<?xml version="1.0" encoding="UTF-8" standalone="no" ?>
<gpx xmlns="http://www.topografix.com/GPX/1/1" xmlns:xsi="http://www.w3.org/2001/XMLSchema-instance" xsi:schemaLocation="http://www.topografix.com/GPX/1/1 http://www.topografix.com/GPX/1/1/gpx.xsd" version="1.1" creator="VisuGPX - https://www.visugpx.com">
  <metadata>
    <name>dévoluy étape 4</name>
    <desc><![CDATA[Poussage depuis les chabottes jusqu'à la tour carrée (500 d+) environs deux heures de poussage ; depuis le col de Lauteret il y a une ligne droite ; bizarre ; mais bon il suffit de suivre depuis le col, le GR 94 jusqu'à la cluse (le gite de l'Yvraie) Depuis la tour carrée jusqu'au gîte , ça roule et c'est du single.]]></desc>
  </metadata>
  <trk>
    <name><![CDATA[Sortie VTT le matin j4 💩😱]]></name>
    <extensions>
      <line xmlns="http://www.topografix.com/GPX/gpx_style/0/2">
        <color>0000FF</color>
        <width>4</width>
      </line>
    </extensions>
    <trkseg>
      <trkpt lat="44.66379" lon="5.7032">
        <ele>1027</ele>
        <time>2023-05-18T07:11:06Z</time>
      </trkpt>
      <trkpt lat="44.66379" lon="5.7032">
        <ele>1041.4</ele>
        <time>2023-05-18T07:11:07Z</time>
      </trkpt>
      <trkpt lat="44.66379" lon="5.7032">
        <ele>1042.8</ele>
        <time>2023-05-18T07:11:09Z</time>
      </trkpt>
      <trkpt lat="44.66378" lon="5.70319">
        <ele>1042.8</ele>
        <time>2023-05-18T07:11:30Z</time>
      </trkpt>
      <trkpt lat="44.66378" lon="5.70319">
        <ele>1043</ele>
        <time>2023-05-18T07:11:33Z</time>
      </trkpt>
      <trkpt lat="44.66397" lon="5.70331">
        <ele>1043</ele>
        <time>2023-05-18T07:13:47Z</time>
      </trkpt>
      <trkpt lat="44.66397" lon="5.70332">
        <ele>1043.6</ele>
        <time>2023-05-18T07:13:57Z</time>
      </trkpt>
      <trkpt lat="44.66398" lon="5.70332">
        <ele>1043.6</ele>
        <time>2023-05-18T07:13:58Z</time>
      </trkpt>
      <trkpt lat="44.664" lon="5.70332">
        <ele>1043.6</ele>
        <time>2023-05-18T07:13:59Z</time>
      </trkpt>
      <trkpt lat="44.66402" lon="5.70332">
        <ele>1043.6</ele>
        <time>2023-05-18T07:14:00Z</time>
      </trkpt>
      <trkpt lat="44.66404" lon="5.70332">
        <ele>1043.6</ele>
        <time>2023-05-18T07:14:01Z</time>
      </trkpt>
      <trkpt lat="44.66406" lon="5.70333">
        <ele>1043.6</ele>
        <time>2023-05-18T07:14:02Z</time>
      </trkpt>
      <trkpt lat="44.66407" lon="5.70334">
        <ele>1043.8</ele>
        <time>2023-05-18T07:14:03Z</time>
      </trkpt>
      <trkpt lat="44.66409" lon="5.70335">
        <ele>1043.8</ele>
        <time>2023-05-18T07:14:04Z</time>
      </trkpt>
      <trkpt lat="44.66411" lon="5.70336">
        <ele>1044</ele>
        <time>2023-05-18T07:14:05Z</time>
      </trkpt>
      <trkpt lat="44.66413" lon="5.70337">
        <ele>1044</ele>
        <time>2023-05-18T07:14:06Z</time>
      </trkpt>
      <trkpt lat="44.66414" lon="5.70338">
        <ele>1044</ele>
        <time>2023-05-18T07:14:07Z</time>
      </trkpt>
      <trkpt lat="44.66416" lon="5.70339">
        <ele>1044.4</ele>
        <time>2023-05-18T07:14:08Z</time>
      </trkpt>
      <trkpt lat="44.66418" lon="5.70339">
        <ele>1044.4</ele>
        <time>2023-05-18T07:14:09Z</time>
      </trkpt>
      <trkpt lat="44.66419" lon="5.70339">
        <ele>1044.6</ele>
        <time>2023-05-18T07:14:10Z</time>
      </trkpt>
      <trkpt lat="44.66421" lon="5.7034">
        <ele>1044.8</ele>
        <time>2023-05-18T07:14:11Z</time>
      </trkpt>
      <trkpt lat="44.66423" lon="5.7034">
        <ele>1044.8</ele>
        <time>2023-05-18T07:14:12Z</time>
      </trkpt>
      <trkpt lat="44.66425" lon="5.70341">
        <ele>1045</ele>
        <time>2023-05-18T07:14:13Z</time>
      </trkpt>
      <trkpt lat="44.66427" lon="5.70341">
        <ele>1045</ele>
        <time>2023-05-18T07:14:14Z</time>
      </trkpt>
      <trkpt lat="44.66429" lon="5.70341">
        <ele>1045.2</ele>
        <time>2023-05-18T07:14:15Z</time>
      </trkpt>
      <trkpt lat="44.6643" lon="5.70342">
        <ele>1045.4</ele>
        <time>2023-05-18T07:14:16Z</time>
      </trkpt>
      <trkpt lat="44.66432" lon="5.70342">
        <ele>1045.6</ele>
        <time>2023-05-18T07:14:17Z</time>
      </trkpt>
      <trkpt lat="44.66434" lon="5.70342">
        <ele>1045.8</ele>
        <time>2023-05-18T07:14:18Z</time>
      </trkpt>
      <trkpt lat="44.66436" lon="5.70343">
        <ele>1045.6</ele>
        <time>2023-05-18T07:14:19Z</time>
      </trkpt>
      <trkpt lat="44.66437" lon="5.70343">
        <ele>1046.2</ele>
        <time>2023-05-18T07:14:20Z</time>
      </trkpt>
      <trkpt lat="44.66439" lon="5.70343">
        <ele>1046.2</ele>
        <time>2023-05-18T07:14:21Z</time>
      </trkpt>
      <trkpt lat="44.66441" lon="5.70343">
        <ele>1046.4</ele>
        <time>2023-05-18T07:14:22Z</time>
      </trkpt>
      <trkpt lat="44.66443" lon="5.70344">
        <ele>1046.6</ele>
        <time>2023-05-18T07:14:23Z</time>
      </trkpt>
      <trkpt lat="44.66444" lon="5.70344">
        <ele>1047</ele>
        <time>2023-05-18T07:14:24Z</time>
      </trkpt>
      <trkpt lat="44.66445" lon="5.70344">
        <ele>1047</ele>
        <time>2023-05-18T07:14:25Z</time>
      </trkpt>
      <trkpt lat="44.66447" lon="5.70345">
        <ele>1047.2</ele>
        <time>2023-05-18T07:14:26Z</time>
      </trkpt>
      <trkpt lat="44.66449" lon="5.70345">
        <ele>1047.4</ele>
        <time>2023-05-18T07:14:27Z</time>
      </trkpt>
      <trkpt lat="44.6645" lon="5.70346">
        <ele>1047.6</ele>
        <time>2023-05-18T07:14:28Z</time>
      </trkpt>
      <trkpt lat="44.66452" lon="5.70347">
        <ele>1047.6</ele>
        <time>2023-05-18T07:14:29Z</time>
      </trkpt>
      <trkpt lat="44.66453" lon="5.70347">
        <ele>1047.8</ele>
        <time>2023-05-18T07:14:30Z</time>
      </trkpt>
      <trkpt lat="44.66455" lon="5.70348">
        <ele>1048</ele>
        <time>2023-05-18T07:14:31Z</time>
      </trkpt>
      <trkpt lat="44.66457" lon="5.70348">
        <ele>1048</ele>
        <time>2023-05-18T07:14:32Z</time>
      </trkpt>
      <trkpt lat="44.66458" lon="5.70348">
        <ele>1048.4</ele>
        <time>2023-05-18T07:14:33Z</time>
      </trkpt>
      <trkpt lat="44.6646" lon="5.70348">
        <ele>1048.6</ele>
        <time>2023-05-18T07:14:34Z</time>
      </trkpt>
      <trkpt lat="44.66462" lon="5.70349">
        <ele>1048.8</ele>
        <time>2023-05-18T07:14:35Z</time>
      </trkpt>
      <trkpt lat="44.66463" lon="5.70349">
        <ele>1048.8</ele>
        <time>2023-05-18T07:14:36Z</time>
      </trkpt>
      <trkpt lat="44.66465" lon="5.7035">
        <ele>1048.8</ele>
        <time>2023-05-18T07:14:37Z</time>
      </trkpt>
      <trkpt lat="44.66467" lon="5.70349">
        <ele>1049</ele>
        <time>2023-05-18T07:14:38Z</time>
      </trkpt>
      <trkpt lat="44.66468" lon="5.70349">
        <ele>1049</ele>
        <time>2023-05-18T07:14:39Z</time>
      </trkpt>
      <trkpt lat="44.66469" lon="5.70348">
        <ele>1049.2</ele>
        <time>2023-05-18T07:14:40Z</time>
      </trkpt>
      <trkpt lat="44.6647" lon="5.70347">
        <ele>1049.2</ele>
        <time>2023-05-18T07:14:41Z</time>
      </trkpt>
      <trkpt lat="44.66473" lon="5.70346">
        <ele>1049.4</ele>
        <time>2023-05-18T07:14:42Z</time>
      </trkpt>
      <trkpt lat="44.66474" lon="5.70346">
        <ele>1049.6</ele>
        <time>2023-05-18T07:14:43Z</time>
      </trkpt>
      <trkpt lat="44.66476" lon="5.70346">
        <ele>1049.6</ele>
        <time>2023-05-18T07:14:44Z</time>
      </trkpt>
      <trkpt lat="44.66477" lon="5.70345">
        <ele>1049.8</ele>
        <time>2023-05-18T07:14:45Z</time>
      </trkpt>
      <trkpt lat="44.66478" lon="5.70346">
        <ele>1049.8</ele>
        <time>2023-05-18T07:14:46Z</time>
      </trkpt>
      <trkpt lat="44.66479" lon="5.70347">
        <ele>1050</ele>
        <time>2023-05-18T07:14:47Z</time>
      </trkpt>
      <trkpt lat="44.66481" lon="5.70347">
        <ele>1050</ele>
        <time>2023-05-18T07:14:48Z</time>
      </trkpt>
      <trkpt lat="44.66482" lon="5.70347">
        <ele>1050.2</ele>
        <time>2023-05-18T07:14:49Z</time>
      </trkpt>
      <trkpt lat="44.66484" lon="5.70347">
        <ele>1050.2</ele>
        <time>2023-05-18T07:14:50Z</time>
      </trkpt>
      <trkpt lat="44.66485" lon="5.70347">
        <ele>1050.6</ele>
        <time>2023-05-18T07:14:51Z</time>
      </trkpt>
      <trkpt lat="44.66486" lon="5.70348">
        <ele>1050.6</ele>
        <time>2023-05-18T07:14:52Z</time>
      </trkpt>
      <trkpt lat="44.66488" lon="5.70349">
        <ele>1050.6</ele>
        <time>2023-05-18T07:14:53Z</time>
      </trkpt>
      <trkpt lat="44.66489" lon="5.7035">
        <ele>1050.8</ele>
        <time>2023-05-18T07:14:54Z</time>
      </trkpt>
      <trkpt lat="44.6649" lon="5.70351">
        <ele>1050.8</ele>
        <time>2023-05-18T07:14:55Z</time>
      </trkpt>
      <trkpt lat="44.66491" lon="5.70351">
        <ele>1051.2</ele>
        <time>2023-05-18T07:14:56Z</time>
      </trkpt>
      <trkpt lat="44.66492" lon="5.70353">
        <ele>1051.2</ele>
        <time>2023-05-18T07:14:57Z</time>
      </trkpt>
      <trkpt lat="44.66493" lon="5.70354">
        <ele>1051.4</ele>
        <time>2023-05-18T07:14:58Z</time>
      </trkpt>
      <trkpt lat="44.66494" lon="5.70355">
        <ele>1051.4</ele>
        <time>2023-05-18T07:14:59Z</time>
      </trkpt>
      <trkpt lat="44.66496" lon="5.70357">
        <ele>1051.8</ele>
        <time>2023-05-18T07:15:00Z</time>
      </trkpt>
      <trkpt lat="44.66498" lon="5.70359">
        <ele>1051.8</ele>
        <time>2023-05-18T07:15:01Z</time>
      </trkpt>
      <trkpt lat="44.66499" lon="5.70361">
        <ele>1052</ele>
        <time>2023-05-18T07:15:02Z</time>
      </trkpt>
      <trkpt lat="44.665" lon="5.70363">
        <ele>1052</ele>
        <time>2023-05-18T07:15:03Z</time>
      </trkpt>
      <trkpt lat="44.665" lon="5.70365">
        <ele>1052.2</ele>
        <time>2023-05-18T07:15:04Z</time>
      </trkpt>
      <trkpt lat="44.66501" lon="5.70368">
        <ele>1052.4</ele>
        <time>2023-05-18T07:15:05Z</time>
      </trkpt>
      <trkpt lat="44.66503" lon="5.70371">
        <ele>1052.6</ele>
        <time>2023-05-18T07:15:06Z</time>
      </trkpt>
      <trkpt lat="44.66504" lon="5.70374">
        <ele>1053</ele>
        <time>2023-05-18T07:15:07Z</time>
      </trkpt>
      <trkpt lat="44.66506" lon="5.70378">
        <ele>1053</ele>
        <time>2023-05-18T07:15:08Z</time>
      </trkpt>
      <trkpt lat="44.66507" lon="5.70382">
        <ele>1053.4</ele>
        <time>2023-05-18T07:15:09Z</time>
      </trkpt>
      <trkpt lat="44.66508" lon="5.70385">
        <ele>1053.4</ele>
        <time>2023-05-18T07:15:10Z</time>
      </trkpt>
      <trkpt lat="44.66509" lon="5.70388">
        <ele>1053.6</ele>
        <time>2023-05-18T07:15:11Z</time>
      </trkpt>
      <trkpt lat="44.6651" lon="5.70391">
        <ele>1053.6</ele>
        <time>2023-05-18T07:15:12Z</time>
      </trkpt>
      <trkpt lat="44.6651" lon="5.70395">
        <ele>1053.6</ele>
        <time>2023-05-18T07:15:13Z</time>
      </trkpt>
      <trkpt lat="44.66511" lon="5.70399">
        <ele>1053.8</ele>
        <time>2023-05-18T07:15:14Z</time>
      </trkpt>
      <trkpt lat="44.66511" lon="5.70403">
        <ele>1053.8</ele>
        <time>2023-05-18T07:15:15Z</time>
      </trkpt>
      <trkpt lat="44.66511" lon="5.70407">
        <ele>1054</ele>
        <time>2023-05-18T07:15:16Z</time>
      </trkpt>
      <trkpt lat="44.66512" lon="5.70411">
        <ele>1054</ele>
        <time>2023-05-18T07:15:17Z</time>
      </trkpt>
      <trkpt lat="44.66512" lon="5.70414">
        <ele>1054</ele>
        <time>2023-05-18T07:15:18Z</time>
      </trkpt>
      <trkpt lat="44.66512" lon="5.70418">
        <ele>1054</ele>
        <time>2023-05-18T07:15:19Z</time>
      </trkpt>
      <trkpt lat="44.66513" lon="5.70422">
        <ele>1054</ele>
        <time>2023-05-18T07:15:20Z</time>
      </trkpt>
      <trkpt lat="44.66513" lon="5.70426">
        <ele>1054</ele>
        <time>2023-05-18T07:15:21Z</time>
      </trkpt>
      <trkpt lat="44.66513" lon="5.70429">
        <ele>1054.2</ele>
        <time>2023-05-18T07:15:22Z</time>
      </trkpt>
      <trkpt lat="44.66512" lon="5.70431">
        <ele>1054.2</ele>
        <time>2023-05-18T07:15:23Z</time>
      </trkpt>
      <trkpt lat="44.66513" lon="5.70435">
        <ele>1054.2</ele>
        <time>2023-05-18T07:15:24Z</time>
      </trkpt>
      <trkpt lat="44.66514" lon="5.7044">
        <ele>1054.2</ele>
        <time>2023-05-18T07:15:25Z</time>
      </trkpt>
      <trkpt lat="44.66512" lon="5.70444">
        <ele>1054.2</ele>
        <time>2023-05-18T07:15:26Z</time>
      </trkpt>
      <trkpt lat="44.6651" lon="5.70447">
        <ele>1054.2</ele>
        <time>2023-05-18T07:15:27Z</time>
      </trkpt>
      <trkpt lat="44.6651" lon="5.7045">
        <ele>1054.2</ele>
        <time>2023-05-18T07:15:28Z</time>
      </trkpt>
      <trkpt lat="44.6651" lon="5.70452">
        <ele>1054.2</ele>
        <time>2023-05-18T07:15:29Z</time>
      </trkpt>
      <trkpt lat="44.6651" lon="5.70454">
        <ele>1054.4</ele>
        <time>2023-05-18T07:15:30Z</time>
      </trkpt>
      <trkpt lat="44.66509" lon="5.70456">
        <ele>1054.4</ele>
        <time>2023-05-18T07:15:31Z</time>
      </trkpt>
      <trkpt lat="44.66508" lon="5.70457">
        <ele>1054.6</ele>
        <time>2023-05-18T07:15:32Z</time>
      </trkpt>
      <trkpt lat="44.66507" lon="5.70459">
        <ele>1054.6</ele>
        <time>2023-05-18T07:15:33Z</time>
      </trkpt>
      <trkpt lat="44.66505" lon="5.70463">
        <ele>1054.8</ele>
        <time>2023-05-18T07:15:35Z</time>
      </trkpt>
      <trkpt lat="44.66504" lon="5.70465">
        <ele>1055</ele>
        <time>2023-05-18T07:15:36Z</time>
      </trkpt>
      <trkpt lat="44.66503" lon="5.70467">
        <ele>1055</ele>
        <time>2023-05-18T07:15:37Z</time>
      </trkpt>
      <trkpt lat="44.66503" lon="5.70469">
        <ele>1055.2</ele>
        <time>2023-05-18T07:15:38Z</time>
      </trkpt>
      <trkpt lat="44.66503" lon="5.70473">
        <ele>1055.2</ele>
        <time>2023-05-18T07:15:39Z</time>
      </trkpt>
      <trkpt lat="44.66503" lon="5.70476">
        <ele>1055.4</ele>
        <time>2023-05-18T07:15:40Z</time>
      </trkpt>
      <trkpt lat="44.66503" lon="5.70479">
        <ele>1055.4</ele>
        <time>2023-05-18T07:15:41Z</time>
      </trkpt>
      <trkpt lat="44.66503" lon="5.70481">
        <ele>1055.6</ele>
        <time>2023-05-18T07:15:42Z</time>
      </trkpt>
      <trkpt lat="44.66503" lon="5.70484">
        <ele>1055.6</ele>
        <time>2023-05-18T07:15:43Z</time>
      </trkpt>
      <trkpt lat="44.66504" lon="5.70486">
        <ele>1055.6</ele>
        <time>2023-05-18T07:15:44Z</time>
      </trkpt>
      <trkpt lat="44.66504" lon="5.70487">
        <ele>1055.6</ele>
        <time>2023-05-18T07:15:45Z</time>
      </trkpt>
      <trkpt lat="44.66503" lon="5.70487">
        <ele>1055.8</ele>
        <time>2023-05-18T07:15:47Z</time>
      </trkpt>
      <trkpt lat="44.66503" lon="5.70488">
        <ele>1055.8</ele>
        <time>2023-05-18T07:15:49Z</time>
      </trkpt>
      <trkpt lat="44.66504" lon="5.70488">
        <ele>1055.4</ele>
        <time>2023-05-18T07:15:54Z</time>
      </trkpt>
      <trkpt lat="44.66507" lon="5.70492">
        <ele>1055.2</ele>
        <time>2023-05-18T07:17:15Z</time>
      </trkpt>
      <trkpt lat="44.66507" lon="5.70493">
        <ele>1055.2</ele>
        <time>2023-05-18T07:18:01Z</time>
      </trkpt>
      <trkpt lat="44.66507" lon="5.70493">
        <ele>1055.2</ele>
        <time>2023-05-18T07:18:04Z</time>
      </trkpt>
      <trkpt lat="44.66504" lon="5.70496">
        <ele>1055.2</ele>
        <time>2023-05-18T07:18:06Z</time>
      </trkpt>
      <trkpt lat="44.66502" lon="5.70496">
        <ele>1055.2</ele>
        <time>2023-05-18T07:18:07Z</time>
      </trkpt>
      <trkpt lat="44.665" lon="5.70496">
        <ele>1055.2</ele>
        <time>2023-05-18T07:18:08Z</time>
      </trkpt>
      <trkpt lat="44.66499" lon="5.70495">
        <ele>1055.2</ele>
        <time>2023-05-18T07:18:09Z</time>
      </trkpt>
      <trkpt lat="44.66497" lon="5.70495">
        <ele>1055.4</ele>
        <time>2023-05-18T07:18:10Z</time>
      </trkpt>
      <trkpt lat="44.66496" lon="5.70497">
        <ele>1055.4</ele>
        <time>2023-05-18T07:18:11Z</time>
      </trkpt>
      <trkpt lat="44.66495" lon="5.70498">
        <ele>1055.4</ele>
        <time>2023-05-18T07:18:12Z</time>
      </trkpt>
      <trkpt lat="44.66493" lon="5.70499">
        <ele>1055.4</ele>
        <time>2023-05-18T07:18:13Z</time>
      </trkpt>
      <trkpt lat="44.66491" lon="5.70499">
        <ele>1055.6</ele>
        <time>2023-05-18T07:18:14Z</time>
      </trkpt>
      <trkpt lat="44.6649" lon="5.70499">
        <ele>1055.6</ele>
        <time>2023-05-18T07:18:15Z</time>
      </trkpt>
      <trkpt lat="44.66489" lon="5.705">
        <ele>1055.6</ele>
        <time>2023-05-18T07:18:16Z</time>
      </trkpt>
      <trkpt lat="44.66488" lon="5.705">
        <ele>1055.8</ele>
        <time>2023-05-18T07:18:17Z</time>
      </trkpt>
      <trkpt lat="44.66486" lon="5.705">
        <ele>1055.8</ele>
        <time>2023-05-18T07:18:18Z</time>
      </trkpt>
      <trkpt lat="44.66485" lon="5.70499">
        <ele>1056</ele>
        <time>2023-05-18T07:18:19Z</time>
      </trkpt>
      <trkpt lat="44.66484" lon="5.70499">
        <ele>1056</ele>
        <time>2023-05-18T07:18:20Z</time>
      </trkpt>
      <trkpt lat="44.66482" lon="5.70499">
        <ele>1056.2</ele>
        <time>2023-05-18T07:18:21Z</time>
      </trkpt>
      <trkpt lat="44.66479" lon="5.705">
        <ele>1056.2</ele>
        <time>2023-05-18T07:18:22Z</time>
      </trkpt>
      <trkpt lat="44.66477" lon="5.70499">
        <ele>1056.4</ele>
        <time>2023-05-18T07:18:23Z</time>
      </trkpt>
      <trkpt lat="44.66477" lon="5.70499">
        <ele>1056.6</ele>
        <time>2023-05-18T07:18:24Z</time>
      </trkpt>
      <trkpt lat="44.66478" lon="5.70498">
        <ele>1056.6</ele>
        <time>2023-05-18T07:18:25Z</time>
      </trkpt>
      <trkpt lat="44.6648" lon="5.70498">
        <ele>1056.6</ele>
        <time>2023-05-18T07:18:26Z</time>
      </trkpt>
      <trkpt lat="44.6649" lon="5.70498">
        <ele>1056.8</ele>
        <time>2023-05-18T07:18:30Z</time>
      </trkpt>
      <trkpt lat="44.66491" lon="5.70495">
        <ele>1056.8</ele>
        <time>2023-05-18T07:18:31Z</time>
      </trkpt>
      <trkpt lat="44.66493" lon="5.70489">
        <ele>1056.6</ele>
        <time>2023-05-18T07:18:33Z</time>
      </trkpt>
      <trkpt lat="44.66494" lon="5.70486">
        <ele>1056.4</ele>
        <time>2023-05-18T07:18:34Z</time>
      </trkpt>
      <trkpt lat="44.66495" lon="5.70484">
        <ele>1056.2</ele>
        <time>2023-05-18T07:18:35Z</time>
      </trkpt>
      <trkpt lat="44.66496" lon="5.70482">
        <ele>1056.2</ele>
        <time>2023-05-18T07:18:36Z</time>
      </trkpt>
      <trkpt lat="44.66497" lon="5.7048">
        <ele>1056</ele>
        <time>2023-05-18T07:18:37Z</time>
      </trkpt>
      <trkpt lat="44.66498" lon="5.70475">
        <ele>1056</ele>
        <time>2023-05-18T07:18:39Z</time>
      </trkpt>
      <trkpt lat="44.66499" lon="5.70473">
        <ele>1056</ele>
        <time>2023-05-18T07:18:40Z</time>
      </trkpt>
      <trkpt lat="44.66498" lon="5.7047">
        <ele>1056</ele>
        <time>2023-05-18T07:18:41Z</time>
      </trkpt>
      <trkpt lat="44.66497" lon="5.70468">
        <ele>1056</ele>
        <time>2023-05-18T07:18:42Z</time>
      </trkpt>
      <trkpt lat="44.66497" lon="5.70466">
        <ele>1056.2</ele>
        <time>2023-05-18T07:18:43Z</time>
      </trkpt>
      <trkpt lat="44.66496" lon="5.70464">
        <ele>1056.2</ele>
        <time>2023-05-18T07:18:44Z</time>
      </trkpt>
      <trkpt lat="44.66495" lon="5.70462">
        <ele>1056.2</ele>
        <time>2023-05-18T07:18:45Z</time>
      </trkpt>
      <trkpt lat="44.66494" lon="5.70461">
        <ele>1056.2</ele>
        <time>2023-05-18T07:18:46Z</time>
      </trkpt>
      <trkpt lat="44.66492" lon="5.7046">
        <ele>1056.2</ele>
        <time>2023-05-18T07:18:47Z</time>
      </trkpt>
      <trkpt lat="44.6649" lon="5.70459">
        <ele>1056.2</ele>
        <time>2023-05-18T07:18:48Z</time>
      </trkpt>
      <trkpt lat="44.66489" lon="5.70457">
        <ele>1056.2</ele>
        <time>2023-05-18T07:18:49Z</time>
      </trkpt>
      <trkpt lat="44.66482" lon="5.70449">
        <ele>1056.8</ele>
        <time>2023-05-18T07:18:54Z</time>
      </trkpt>
      <trkpt lat="44.66481" lon="5.70447">
        <ele>1057</ele>
        <time>2023-05-18T07:18:55Z</time>
      </trkpt>
      <trkpt lat="44.66481" lon="5.70444">
        <ele>1057</ele>
        <time>2023-05-18T07:18:56Z</time>
      </trkpt>
      <trkpt lat="44.6648" lon="5.70442">
        <ele>1057.2</ele>
        <time>2023-05-18T07:18:57Z</time>
      </trkpt>
      <trkpt lat="44.66479" lon="5.70438">
        <ele>1057.6</ele>
        <time>2023-05-18T07:18:59Z</time>
      </trkpt>
      <trkpt lat="44.66478" lon="5.70436">
        <ele>1057.6</ele>
        <time>2023-05-18T07:19:00Z</time>
      </trkpt>
      <trkpt lat="44.66478" lon="5.70434">
        <ele>1057.8</ele>
        <time>2023-05-18T07:19:01Z</time>
      </trkpt>
      <trkpt lat="44.66475" lon="5.7043">
        <ele>1058.2</ele>
        <time>2023-05-18T07:19:03Z</time>
      </trkpt>
      <trkpt lat="44.66475" lon="5.70428">
        <ele>1058.4</ele>
        <time>2023-05-18T07:19:04Z</time>
      </trkpt>
      <trkpt lat="44.66474" lon="5.70426">
        <ele>1058.4</ele>
        <time>2023-05-18T07:19:05Z</time>
      </trkpt>
      <trkpt lat="44.66473" lon="5.70425">
        <ele>1058.8</ele>
        <time>2023-05-18T07:19:06Z</time>
      </trkpt>
      <trkpt lat="44.66473" lon="5.70425">
        <ele>1058.8</ele>
        <time>2023-05-18T07:19:07Z</time>
      </trkpt>
      <trkpt lat="44.66472" lon="5.70424">
        <ele>1058.8</ele>
        <time>2023-05-18T07:19:08Z</time>
      </trkpt>
      <trkpt lat="44.66472" lon="5.70424">
        <ele>1058.8</ele>
        <time>2023-05-18T07:19:09Z</time>
      </trkpt>
      <trkpt lat="44.66471" lon="5.70424">
        <ele>1059</ele>
        <time>2023-05-18T07:19:10Z</time>
      </trkpt>
      <trkpt lat="44.66471" lon="5.70423">
        <ele>1059</ele>
        <time>2023-05-18T07:19:11Z</time>
      </trkpt>
      <trkpt lat="44.66471" lon="5.70423">
        <ele>1059</ele>
        <time>2023-05-18T07:19:15Z</time>
      </trkpt>
      <trkpt lat="44.66471" lon="5.70423">
        <ele>1058.8</ele>
        <time>2023-05-18T07:19:24Z</time>
      </trkpt>
      <trkpt lat="44.66467" lon="5.70425">
        <ele>1058.8</ele>
        <time>2023-05-18T07:19:27Z</time>
      </trkpt>
      <trkpt lat="44.66466" lon="5.70426">
        <ele>1058.8</ele>
        <time>2023-05-18T07:19:28Z</time>
      </trkpt>
      <trkpt lat="44.66465" lon="5.70427">
        <ele>1059</ele>
        <time>2023-05-18T07:19:29Z</time>
      </trkpt>
      <trkpt lat="44.66464" lon="5.70428">
        <ele>1059</ele>
        <time>2023-05-18T07:19:30Z</time>
      </trkpt>
      <trkpt lat="44.6646" lon="5.70428">
        <ele>1059.6</ele>
        <time>2023-05-18T07:19:33Z</time>
      </trkpt>
      <trkpt lat="44.66459" lon="5.70428">
        <ele>1059.8</ele>
        <time>2023-05-18T07:19:34Z</time>
      </trkpt>
      <trkpt lat="44.66457" lon="5.70429">
        <ele>1060.2</ele>
        <time>2023-05-18T07:19:35Z</time>
      </trkpt>
      <trkpt lat="44.66456" lon="5.70429">
        <ele>1060.2</ele>
        <time>2023-05-18T07:19:36Z</time>
      </trkpt>
      <trkpt lat="44.66456" lon="5.7043">
        <ele>1060.6</ele>
        <time>2023-05-18T07:19:37Z</time>
      </trkpt>
      <trkpt lat="44.66455" lon="5.70431">
        <ele>1060.6</ele>
        <time>2023-05-18T07:19:38Z</time>
      </trkpt>
      <trkpt lat="44.66454" lon="5.70432">
        <ele>1060.8</ele>
        <time>2023-05-18T07:19:39Z</time>
      </trkpt>
      <trkpt lat="44.66452" lon="5.70433">
        <ele>1061</ele>
        <time>2023-05-18T07:19:40Z</time>
      </trkpt>
      <trkpt lat="44.66452" lon="5.70434">
        <ele>1061.2</ele>
        <time>2023-05-18T07:19:41Z</time>
      </trkpt>
      <trkpt lat="44.66448" lon="5.70437">
        <ele>1062</ele>
        <time>2023-05-18T07:19:44Z</time>
      </trkpt>
      <trkpt lat="44.66446" lon="5.70439">
        <ele>1062.4</ele>
        <time>2023-05-18T07:19:46Z</time>
      </trkpt>
      <trkpt lat="44.66445" lon="5.70441">
        <ele>1062.6</ele>
        <time>2023-05-18T07:19:47Z</time>
      </trkpt>
      <trkpt lat="44.66445" lon="5.70442">
        <ele>1062.8</ele>
        <time>2023-05-18T07:19:48Z</time>
      </trkpt>
      <trkpt lat="44.66444" lon="5.70443">
        <ele>1063</ele>
        <time>2023-05-18T07:19:49Z</time>
      </trkpt>
      <trkpt lat="44.66443" lon="5.70444">
        <ele>1063.2</ele>
        <time>2023-05-18T07:19:50Z</time>
      </trkpt>
      <trkpt lat="44.66441" lon="5.70445">
        <ele>1063.6</ele>
        <time>2023-05-18T07:19:51Z</time>
      </trkpt>
      <trkpt lat="44.66439" lon="5.70446">
        <ele>1063.8</ele>
        <time>2023-05-18T07:19:52Z</time>
      </trkpt>
      <trkpt lat="44.66438" lon="5.70447">
        <ele>1064</ele>
        <time>2023-05-18T07:19:53Z</time>
      </trkpt>
      <trkpt lat="44.66437" lon="5.70448">
        <ele>1064</ele>
        <time>2023-05-18T07:19:54Z</time>
      </trkpt>
      <trkpt lat="44.66436" lon="5.70448">
        <ele>1064.2</ele>
        <time>2023-05-18T07:19:55Z</time>
      </trkpt>
      <trkpt lat="44.66435" lon="5.70449">
        <ele>1064.6</ele>
        <time>2023-05-18T07:19:56Z</time>
      </trkpt>
      <trkpt lat="44.66434" lon="5.7045">
        <ele>1064.6</ele>
        <time>2023-05-18T07:19:57Z</time>
      </trkpt>
      <trkpt lat="44.66433" lon="5.7045">
        <ele>1065</ele>
        <time>2023-05-18T07:19:58Z</time>
      </trkpt>
      <trkpt lat="44.66431" lon="5.70451">
        <ele>1065.2</ele>
        <time>2023-05-18T07:19:59Z</time>
      </trkpt>
      <trkpt lat="44.66429" lon="5.70451">
        <ele>1065.2</ele>
        <time>2023-05-18T07:20:00Z</time>
      </trkpt>
      <trkpt lat="44.66428" lon="5.70452">
        <ele>1065.4</ele>
        <time>2023-05-18T07:20:01Z</time>
      </trkpt>
      <trkpt lat="44.66426" lon="5.70452">
        <ele>1065.6</ele>
        <time>2023-05-18T07:20:02Z</time>
      </trkpt>
      <trkpt lat="44.66425" lon="5.70452">
        <ele>1065.6</ele>
        <time>2023-05-18T07:20:03Z</time>
      </trkpt>
      <trkpt lat="44.66424" lon="5.70452">
        <ele>1065.8</ele>
        <time>2023-05-18T07:20:04Z</time>
      </trkpt>
      <trkpt lat="44.66422" lon="5.70452">
        <ele>1066</ele>
        <time>2023-05-18T07:20:05Z</time>
      </trkpt>
      <trkpt lat="44.6642" lon="5.70452">
        <ele>1066</ele>
        <time>2023-05-18T07:20:06Z</time>
      </trkpt>
      <trkpt lat="44.66419" lon="5.70452">
        <ele>1066</ele>
        <time>2023-05-18T07:20:07Z</time>
      </trkpt>
      <trkpt lat="44.66418" lon="5.70452">
        <ele>1066.2</ele>
        <time>2023-05-18T07:20:08Z</time>
      </trkpt>
      <trkpt lat="44.66417" lon="5.70453">
        <ele>1066.2</ele>
        <time>2023-05-18T07:20:09Z</time>
      </trkpt>
      <trkpt lat="44.66416" lon="5.70453">
        <ele>1066.2</ele>
        <time>2023-05-18T07:20:10Z</time>
      </trkpt>
      <trkpt lat="44.66415" lon="5.70453">
        <ele>1066.4</ele>
        <time>2023-05-18T07:20:11Z</time>
      </trkpt>
      <trkpt lat="44.66414" lon="5.70453">
        <ele>1066.6</ele>
        <time>2023-05-18T07:20:12Z</time>
      </trkpt>
      <trkpt lat="44.66413" lon="5.70453">
        <ele>1066.6</ele>
        <time>2023-05-18T07:20:13Z</time>
      </trkpt>
      <trkpt lat="44.66412" lon="5.70453">
        <ele>1066.8</ele>
        <time>2023-05-18T07:20:14Z</time>
      </trkpt>
      <trkpt lat="44.66412" lon="5.70453">
        <ele>1066.8</ele>
        <time>2023-05-18T07:20:15Z</time>
      </trkpt>
      <trkpt lat="44.66411" lon="5.70453">
        <ele>1067.2</ele>
        <time>2023-05-18T07:20:16Z</time>
      </trkpt>
      <trkpt lat="44.66409" lon="5.70453">
        <ele>1067.4</ele>
        <time>2023-05-18T07:20:17Z</time>
      </trkpt>
      <trkpt lat="44.66408" lon="5.70454">
        <ele>1067.6</ele>
        <time>2023-05-18T07:20:18Z</time>
      </trkpt>
      <trkpt lat="44.66407" lon="5.70454">
        <ele>1067.8</ele>
        <time>2023-05-18T07:20:19Z</time>
      </trkpt>
      <trkpt lat="44.66405" lon="5.70454">
        <ele>1067.8</ele>
        <time>2023-05-18T07:20:20Z</time>
      </trkpt>
      <trkpt lat="44.66404" lon="5.70455">
        <ele>1068</ele>
        <time>2023-05-18T07:20:21Z</time>
      </trkpt>
      <trkpt lat="44.66402" lon="5.70455">
        <ele>1068.2</ele>
        <time>2023-05-18T07:20:22Z</time>
      </trkpt>
      <trkpt lat="44.66401" lon="5.70455">
        <ele>1068.4</ele>
        <time>2023-05-18T07:20:23Z</time>
      </trkpt>
      <trkpt lat="44.664" lon="5.70455">
        <ele>1068.6</ele>
        <time>2023-05-18T07:20:24Z</time>
      </trkpt>
      <trkpt lat="44.66399" lon="5.70455">
        <ele>1068.8</ele>
        <time>2023-05-18T07:20:25Z</time>
      </trkpt>
      <trkpt lat="44.66398" lon="5.70455">
        <ele>1069</ele>
        <time>2023-05-18T07:20:26Z</time>
      </trkpt>
      <trkpt lat="44.66396" lon="5.70455">
        <ele>1069</ele>
        <time>2023-05-18T07:20:27Z</time>
      </trkpt>
      <trkpt lat="44.66395" lon="5.70455">
        <ele>1069</ele>
        <time>2023-05-18T07:20:28Z</time>
      </trkpt>
      <trkpt lat="44.66394" lon="5.70454">
        <ele>1069.2</ele>
        <time>2023-05-18T07:20:29Z</time>
      </trkpt>
      <trkpt lat="44.66393" lon="5.70454">
        <ele>1069.4</ele>
        <time>2023-05-18T07:20:30Z</time>
      </trkpt>
      <trkpt lat="44.66391" lon="5.70454">
        <ele>1069.8</ele>
        <time>2023-05-18T07:20:31Z</time>
      </trkpt>
      <trkpt lat="44.66391" lon="5.70453">
        <ele>1070</ele>
        <time>2023-05-18T07:20:32Z</time>
      </trkpt>
      <trkpt lat="44.6639" lon="5.70452">
        <ele>1070.2</ele>
        <time>2023-05-18T07:20:33Z</time>
      </trkpt>
      <trkpt lat="44.6639" lon="5.70452">
        <ele>1070.4</ele>
        <time>2023-05-18T07:20:34Z</time>
      </trkpt>
      <trkpt lat="44.66389" lon="5.70451">
        <ele>1070.8</ele>
        <time>2023-05-18T07:20:35Z</time>
      </trkpt>
      <trkpt lat="44.66388" lon="5.70451">
        <ele>1071.2</ele>
        <time>2023-05-18T07:20:36Z</time>
      </trkpt>
      <trkpt lat="44.66387" lon="5.70451">
        <ele>1071.2</ele>
        <time>2023-05-18T07:20:37Z</time>
      </trkpt>
      <trkpt lat="44.66387" lon="5.70451">
        <ele>1071.6</ele>
        <time>2023-05-18T07:20:38Z</time>
      </trkpt>
      <trkpt lat="44.66386" lon="5.70451">
        <ele>1071.6</ele>
        <time>2023-05-18T07:20:39Z</time>
      </trkpt>
      <trkpt lat="44.66386" lon="5.70451">
        <ele>1072</ele>
        <time>2023-05-18T07:20:40Z</time>
      </trkpt>
      <trkpt lat="44.66385" lon="5.70451">
        <ele>1072.2</ele>
        <time>2023-05-18T07:20:41Z</time>
      </trkpt>
      <trkpt lat="44.66384" lon="5.70451">
        <ele>1072.2</ele>
        <time>2023-05-18T07:20:42Z</time>
      </trkpt>
      <trkpt lat="44.66384" lon="5.70452">
        <ele>1072.4</ele>
        <time>2023-05-18T07:20:43Z</time>
      </trkpt>
      <trkpt lat="44.66382" lon="5.70452">
        <ele>1072.4</ele>
        <time>2023-05-18T07:20:44Z</time>
      </trkpt>
      <trkpt lat="44.66381" lon="5.70453">
        <ele>1072.6</ele>
        <time>2023-05-18T07:20:45Z</time>
      </trkpt>
      <trkpt lat="44.6638" lon="5.70454">
        <ele>1072.8</ele>
        <time>2023-05-18T07:20:46Z</time>
      </trkpt>
      <trkpt lat="44.6638" lon="5.70455">
        <ele>1073</ele>
        <time>2023-05-18T07:20:47Z</time>
      </trkpt>
      <trkpt lat="44.66379" lon="5.70455">
        <ele>1073</ele>
        <time>2023-05-18T07:20:48Z</time>
      </trkpt>
      <trkpt lat="44.66378" lon="5.70457">
        <ele>1073.2</ele>
        <time>2023-05-18T07:20:49Z</time>
      </trkpt>
      <trkpt lat="44.66378" lon="5.70458">
        <ele>1073.4</ele>
        <time>2023-05-18T07:20:50Z</time>
      </trkpt>
      <trkpt lat="44.66377" lon="5.7046">
        <ele>1073.6</ele>
        <time>2023-05-18T07:20:51Z</time>
      </trkpt>
      <trkpt lat="44.66376" lon="5.7046">
        <ele>1073.6</ele>
        <time>2023-05-18T07:20:52Z</time>
      </trkpt>
      <trkpt lat="44.66375" lon="5.70461">
        <ele>1073.8</ele>
        <time>2023-05-18T07:20:53Z</time>
      </trkpt>
      <trkpt lat="44.66375" lon="5.70462">
        <ele>1073.8</ele>
        <time>2023-05-18T07:20:54Z</time>
      </trkpt>
      <trkpt lat="44.66374" lon="5.70463">
        <ele>1074</ele>
        <time>2023-05-18T07:20:55Z</time>
      </trkpt>
      <trkpt lat="44.66374" lon="5.70464">
        <ele>1074.4</ele>
        <time>2023-05-18T07:20:56Z</time>
      </trkpt>
      <trkpt lat="44.66373" lon="5.70465">
        <ele>1074.4</ele>
        <time>2023-05-18T07:20:57Z</time>
      </trkpt>
      <trkpt lat="44.66372" lon="5.70466">
        <ele>1074.6</ele>
        <time>2023-05-18T07:20:58Z</time>
      </trkpt>
      <trkpt lat="44.66372" lon="5.70467">
        <ele>1074.8</ele>
        <time>2023-05-18T07:20:59Z</time>
      </trkpt>
      <trkpt lat="44.66371" lon="5.70467">
        <ele>1074.8</ele>
        <time>2023-05-18T07:21:00Z</time>
      </trkpt>
      <trkpt lat="44.66371" lon="5.70469">
        <ele>1075</ele>
        <time>2023-05-18T07:21:01Z</time>
      </trkpt>
      <trkpt lat="44.6637" lon="5.70471">
        <ele>1075</ele>
        <time>2023-05-18T07:21:02Z</time>
      </trkpt>
      <trkpt lat="44.66368" lon="5.70472">
        <ele>1075</ele>
        <time>2023-05-18T07:21:03Z</time>
      </trkpt>
      <trkpt lat="44.66367" lon="5.70474">
        <ele>1075</ele>
        <time>2023-05-18T07:21:04Z</time>
      </trkpt>
      <trkpt lat="44.66365" lon="5.70475">
        <ele>1075.2</ele>
        <time>2023-05-18T07:21:05Z</time>
      </trkpt>
      <trkpt lat="44.66363" lon="5.70476">
        <ele>1075.2</ele>
        <time>2023-05-18T07:21:06Z</time>
      </trkpt>
      <trkpt lat="44.66363" lon="5.70477">
        <ele>1075.2</ele>
        <time>2023-05-18T07:21:07Z</time>
      </trkpt>
      <trkpt lat="44.66361" lon="5.70478">
        <ele>1075.4</ele>
        <time>2023-05-18T07:21:08Z</time>
      </trkpt>
      <trkpt lat="44.66361" lon="5.7048">
        <ele>1075.4</ele>
        <time>2023-05-18T07:21:09Z</time>
      </trkpt>
      <trkpt lat="44.6636" lon="5.70482">
        <ele>1075.4</ele>
        <time>2023-05-18T07:21:10Z</time>
      </trkpt>
      <trkpt lat="44.66358" lon="5.70483">
        <ele>1075.4</ele>
        <time>2023-05-18T07:21:11Z</time>
      </trkpt>
      <trkpt lat="44.66357" lon="5.70484">
        <ele>1075.4</ele>
        <time>2023-05-18T07:21:12Z</time>
      </trkpt>
      <trkpt lat="44.66356" lon="5.70485">
        <ele>1075.4</ele>
        <time>2023-05-18T07:21:13Z</time>
      </trkpt>
      <trkpt lat="44.66355" lon="5.70487">
        <ele>1075.4</ele>
        <time>2023-05-18T07:21:14Z</time>
      </trkpt>
      <trkpt lat="44.66355" lon="5.70488">
        <ele>1075.4</ele>
        <time>2023-05-18T07:21:15Z</time>
      </trkpt>
      <trkpt lat="44.66353" lon="5.70489">
        <ele>1075.6</ele>
        <time>2023-05-18T07:21:16Z</time>
      </trkpt>
      <trkpt lat="44.66353" lon="5.7049">
        <ele>1075.6</ele>
        <time>2023-05-18T07:21:17Z</time>
      </trkpt>
      <trkpt lat="44.66347" lon="5.70498">
        <ele>1076</ele>
        <time>2023-05-18T07:21:22Z</time>
      </trkpt>
      <trkpt lat="44.66344" lon="5.70499">
        <ele>1076.2</ele>
        <time>2023-05-18T07:21:23Z</time>
      </trkpt>
      <trkpt lat="44.66342" lon="5.705">
        <ele>1076.4</ele>
        <time>2023-05-18T07:21:24Z</time>
      </trkpt>
      <trkpt lat="44.6634" lon="5.70502">
        <ele>1076.4</ele>
        <time>2023-05-18T07:21:25Z</time>
      </trkpt>
      <trkpt lat="44.66339" lon="5.70502">
        <ele>1076.6</ele>
        <time>2023-05-18T07:21:26Z</time>
      </trkpt>
      <trkpt lat="44.66337" lon="5.70503">
        <ele>1076.6</ele>
        <time>2023-05-18T07:21:27Z</time>
      </trkpt>
      <trkpt lat="44.66337" lon="5.70502">
        <ele>1076.8</ele>
        <time>2023-05-18T07:21:28Z</time>
      </trkpt>
      <trkpt lat="44.66336" lon="5.70502">
        <ele>1077</ele>
        <time>2023-05-18T07:21:29Z</time>
      </trkpt>
      <trkpt lat="44.66334" lon="5.70502">
        <ele>1077</ele>
        <time>2023-05-18T07:21:30Z</time>
      </trkpt>
      <trkpt lat="44.66333" lon="5.70504">
        <ele>1077.2</ele>
        <time>2023-05-18T07:21:31Z</time>
      </trkpt>
      <trkpt lat="44.66331" lon="5.70504">
        <ele>1077.2</ele>
        <time>2023-05-18T07:21:32Z</time>
      </trkpt>
      <trkpt lat="44.6633" lon="5.70505">
        <ele>1077.4</ele>
        <time>2023-05-18T07:21:33Z</time>
      </trkpt>
      <trkpt lat="44.66329" lon="5.70506">
        <ele>1077.6</ele>
        <time>2023-05-18T07:21:34Z</time>
      </trkpt>
      <trkpt lat="44.66328" lon="5.70507">
        <ele>1077.8</ele>
        <time>2023-05-18T07:21:35Z</time>
      </trkpt>
      <trkpt lat="44.66326" lon="5.70509">
        <ele>1077.8</ele>
        <time>2023-05-18T07:21:36Z</time>
      </trkpt>
      <trkpt lat="44.66325" lon="5.7051">
        <ele>1078</ele>
        <time>2023-05-18T07:21:37Z</time>
      </trkpt>
      <trkpt lat="44.66323" lon="5.70513">
        <ele>1078.4</ele>
        <time>2023-05-18T07:21:40Z</time>
      </trkpt>
      <trkpt lat="44.66322" lon="5.70514">
        <ele>1078.6</ele>
        <time>2023-05-18T07:21:41Z</time>
      </trkpt>
      <trkpt lat="44.66319" lon="5.70515">
        <ele>1078.8</ele>
        <time>2023-05-18T07:21:43Z</time>
      </trkpt>
      <trkpt lat="44.66318" lon="5.70516">
        <ele>1078.8</ele>
        <time>2023-05-18T07:21:44Z</time>
      </trkpt>
      <trkpt lat="44.66317" lon="5.70516">
        <ele>1078.8</ele>
        <time>2023-05-18T07:21:45Z</time>
      </trkpt>
      <trkpt lat="44.66316" lon="5.70516">
        <ele>1079</ele>
        <time>2023-05-18T07:21:46Z</time>
      </trkpt>
      <trkpt lat="44.66316" lon="5.70515">
        <ele>1079</ele>
        <time>2023-05-18T07:21:47Z</time>
      </trkpt>
      <trkpt lat="44.66315" lon="5.70515">
        <ele>1079.4</ele>
        <time>2023-05-18T07:21:48Z</time>
      </trkpt>
      <trkpt lat="44.66314" lon="5.70514">
        <ele>1079.6</ele>
        <time>2023-05-18T07:21:49Z</time>
      </trkpt>
      <trkpt lat="44.66314" lon="5.70514">
        <ele>1079.8</ele>
        <time>2023-05-18T07:21:50Z</time>
      </trkpt>
      <trkpt lat="44.66313" lon="5.70513">
        <ele>1080</ele>
        <time>2023-05-18T07:21:51Z</time>
      </trkpt>
      <trkpt lat="44.66313" lon="5.70512">
        <ele>1080.2</ele>
        <time>2023-05-18T07:21:52Z</time>
      </trkpt>
      <trkpt lat="44.66312" lon="5.70511">
        <ele>1080.4</ele>
        <time>2023-05-18T07:21:53Z</time>
      </trkpt>
      <trkpt lat="44.66311" lon="5.70511">
        <ele>1080.4</ele>
        <time>2023-05-18T07:21:54Z</time>
      </trkpt>
      <trkpt lat="44.66309" lon="5.7051">
        <ele>1080.6</ele>
        <time>2023-05-18T07:21:55Z</time>
      </trkpt>
      <trkpt lat="44.66308" lon="5.70509">
        <ele>1080.6</ele>
        <time>2023-05-18T07:21:56Z</time>
      </trkpt>
      <trkpt lat="44.66308" lon="5.7051">
        <ele>1081</ele>
        <time>2023-05-18T07:21:57Z</time>
      </trkpt>
      <trkpt lat="44.66307" lon="5.7051">
        <ele>1081</ele>
        <time>2023-05-18T07:21:58Z</time>
      </trkpt>
      <trkpt lat="44.66306" lon="5.70511">
        <ele>1081.4</ele>
        <time>2023-05-18T07:21:59Z</time>
      </trkpt>
      <trkpt lat="44.66305" lon="5.7051">
        <ele>1081.6</ele>
        <time>2023-05-18T07:22:00Z</time>
      </trkpt>
      <trkpt lat="44.66304" lon="5.7051">
        <ele>1081.8</ele>
        <time>2023-05-18T07:22:01Z</time>
      </trkpt>
      <trkpt lat="44.66303" lon="5.7051">
        <ele>1082.2</ele>
        <time>2023-05-18T07:22:02Z</time>
      </trkpt>
      <trkpt lat="44.66302" lon="5.7051">
        <ele>1082.2</ele>
        <time>2023-05-18T07:22:03Z</time>
      </trkpt>
      <trkpt lat="44.66301" lon="5.70511">
        <ele>1082.8</ele>
        <time>2023-05-18T07:22:04Z</time>
      </trkpt>
      <trkpt lat="44.66301" lon="5.70512">
        <ele>1082.8</ele>
        <time>2023-05-18T07:22:05Z</time>
      </trkpt>
      <trkpt lat="44.663" lon="5.70512">
        <ele>1083</ele>
        <time>2023-05-18T07:22:06Z</time>
      </trkpt>
      <trkpt lat="44.66299" lon="5.70513">
        <ele>1083</ele>
        <time>2023-05-18T07:22:07Z</time>
      </trkpt>
      <trkpt lat="44.66298" lon="5.70513">
        <ele>1083.4</ele>
        <time>2023-05-18T07:22:08Z</time>
      </trkpt>
      <trkpt lat="44.66297" lon="5.70514">
        <ele>1083.4</ele>
        <time>2023-05-18T07:22:09Z</time>
      </trkpt>
      <trkpt lat="44.66296" lon="5.70514">
        <ele>1083.6</ele>
        <time>2023-05-18T07:22:10Z</time>
      </trkpt>
      <trkpt lat="44.66296" lon="5.70515">
        <ele>1083.8</ele>
        <time>2023-05-18T07:22:11Z</time>
      </trkpt>
      <trkpt lat="44.66295" lon="5.70516">
        <ele>1083.8</ele>
        <time>2023-05-18T07:22:12Z</time>
      </trkpt>
      <trkpt lat="44.66295" lon="5.70517">
        <ele>1084</ele>
        <time>2023-05-18T07:22:13Z</time>
      </trkpt>
      <trkpt lat="44.66294" lon="5.70518">
        <ele>1084</ele>
        <time>2023-05-18T07:22:14Z</time>
      </trkpt>
      <trkpt lat="44.66293" lon="5.70518">
        <ele>1084.2</ele>
        <time>2023-05-18T07:22:15Z</time>
      </trkpt>
      <trkpt lat="44.66292" lon="5.70519">
        <ele>1084.4</ele>
        <time>2023-05-18T07:22:16Z</time>
      </trkpt>
      <trkpt lat="44.66291" lon="5.70519">
        <ele>1084.4</ele>
        <time>2023-05-18T07:22:17Z</time>
      </trkpt>
      <trkpt lat="44.66291" lon="5.70519">
        <ele>1084.6</ele>
        <time>2023-05-18T07:22:18Z</time>
      </trkpt>
      <trkpt lat="44.6629" lon="5.7052">
        <ele>1084.6</ele>
        <time>2023-05-18T07:22:19Z</time>
      </trkpt>
      <trkpt lat="44.66288" lon="5.7052">
        <ele>1084.8</ele>
        <time>2023-05-18T07:22:20Z</time>
      </trkpt>
      <trkpt lat="44.66287" lon="5.7052">
        <ele>1084.8</ele>
        <time>2023-05-18T07:22:21Z</time>
      </trkpt>
      <trkpt lat="44.66286" lon="5.7052">
        <ele>1085</ele>
        <time>2023-05-18T07:22:22Z</time>
      </trkpt>
      <trkpt lat="44.66285" lon="5.70521">
        <ele>1085</ele>
        <time>2023-05-18T07:22:23Z</time>
      </trkpt>
      <trkpt lat="44.66284" lon="5.70521">
        <ele>1085</ele>
        <time>2023-05-18T07:22:24Z</time>
      </trkpt>
      <trkpt lat="44.66283" lon="5.70521">
        <ele>1085.2</ele>
        <time>2023-05-18T07:22:25Z</time>
      </trkpt>
      <trkpt lat="44.66283" lon="5.70522">
        <ele>1085.4</ele>
        <time>2023-05-18T07:22:26Z</time>
      </trkpt>
      <trkpt lat="44.66282" lon="5.70522">
        <ele>1085.6</ele>
        <time>2023-05-18T07:22:27Z</time>
      </trkpt>
      <trkpt lat="44.66281" lon="5.70523">
        <ele>1085.6</ele>
        <time>2023-05-18T07:22:28Z</time>
      </trkpt>
      <trkpt lat="44.66281" lon="5.70523">
        <ele>1086</ele>
        <time>2023-05-18T07:22:29Z</time>
      </trkpt>
      <trkpt lat="44.6628" lon="5.70524">
        <ele>1086</ele>
        <time>2023-05-18T07:22:30Z</time>
      </trkpt>
      <trkpt lat="44.6628" lon="5.70524">
        <ele>1086.2</ele>
        <time>2023-05-18T07:22:31Z</time>
      </trkpt>
      <trkpt lat="44.66279" lon="5.70524">
        <ele>1086.2</ele>
        <time>2023-05-18T07:22:32Z</time>
      </trkpt>
      <trkpt lat="44.66277" lon="5.70525">
        <ele>1086.4</ele>
        <time>2023-05-18T07:22:34Z</time>
      </trkpt>
      <trkpt lat="44.66276" lon="5.70526">
        <ele>1086.6</ele>
        <time>2023-05-18T07:22:35Z</time>
      </trkpt>
      <trkpt lat="44.66274" lon="5.70526">
        <ele>1086.6</ele>
        <time>2023-05-18T07:22:36Z</time>
      </trkpt>
      <trkpt lat="44.66272" lon="5.70526">
        <ele>1086.6</ele>
        <time>2023-05-18T07:22:37Z</time>
      </trkpt>
      <trkpt lat="44.66271" lon="5.70527">
        <ele>1086.8</ele>
        <time>2023-05-18T07:22:38Z</time>
      </trkpt>
      <trkpt lat="44.66271" lon="5.70528">
        <ele>1087.2</ele>
        <time>2023-05-18T07:22:39Z</time>
      </trkpt>
      <trkpt lat="44.66269" lon="5.70529">
        <ele>1087.2</ele>
        <time>2023-05-18T07:22:40Z</time>
      </trkpt>
      <trkpt lat="44.66268" lon="5.70529">
        <ele>1087.4</ele>
        <time>2023-05-18T07:22:41Z</time>
      </trkpt>
      <trkpt lat="44.66265" lon="5.7053">
        <ele>1087.6</ele>
        <time>2023-05-18T07:22:42Z</time>
      </trkpt>
      <trkpt lat="44.66262" lon="5.70531">
        <ele>1087.6</ele>
        <time>2023-05-18T07:22:43Z</time>
      </trkpt>
      <trkpt lat="44.66261" lon="5.70531">
        <ele>1087.8</ele>
        <time>2023-05-18T07:22:44Z</time>
      </trkpt>
      <trkpt lat="44.6626" lon="5.70532">
        <ele>1087.8</ele>
        <time>2023-05-18T07:22:45Z</time>
      </trkpt>
      <trkpt lat="44.66259" lon="5.70533">
        <ele>1088</ele>
        <time>2023-05-18T07:22:46Z</time>
      </trkpt>
      <trkpt lat="44.66258" lon="5.70533">
        <ele>1088.2</ele>
        <time>2023-05-18T07:22:47Z</time>
      </trkpt>
      <trkpt lat="44.66258" lon="5.70534">
        <ele>1088.2</ele>
        <time>2023-05-18T07:22:48Z</time>
      </trkpt>
      <trkpt lat="44.66257" lon="5.70534">
        <ele>1088.4</ele>
        <time>2023-05-18T07:22:49Z</time>
      </trkpt>
      <trkpt lat="44.66256" lon="5.70535">
        <ele>1088.4</ele>
        <time>2023-05-18T07:22:50Z</time>
      </trkpt>
      <trkpt lat="44.66256" lon="5.70535">
        <ele>1088.6</ele>
        <time>2023-05-18T07:22:51Z</time>
      </trkpt>
      <trkpt lat="44.66255" lon="5.70535">
        <ele>1088.6</ele>
        <time>2023-05-18T07:22:52Z</time>
      </trkpt>
      <trkpt lat="44.66254" lon="5.70535">
        <ele>1088.8</ele>
        <time>2023-05-18T07:22:53Z</time>
      </trkpt>
      <trkpt lat="44.66254" lon="5.70535">
        <ele>1088.8</ele>
        <time>2023-05-18T07:22:54Z</time>
      </trkpt>
      <trkpt lat="44.66253" lon="5.70535">
        <ele>1089.2</ele>
        <time>2023-05-18T07:22:55Z</time>
      </trkpt>
      <trkpt lat="44.66252" lon="5.70536">
        <ele>1089.4</ele>
        <time>2023-05-18T07:22:56Z</time>
      </trkpt>
      <trkpt lat="44.66251" lon="5.70536">
        <ele>1089.6</ele>
        <time>2023-05-18T07:22:57Z</time>
      </trkpt>
      <trkpt lat="44.6625" lon="5.70536">
        <ele>1089.8</ele>
        <time>2023-05-18T07:22:58Z</time>
      </trkpt>
      <trkpt lat="44.66249" lon="5.70536">
        <ele>1089.8</ele>
        <time>2023-05-18T07:22:59Z</time>
      </trkpt>
      <trkpt lat="44.66248" lon="5.70536">
        <ele>1090.2</ele>
        <time>2023-05-18T07:23:00Z</time>
      </trkpt>
      <trkpt lat="44.66248" lon="5.70537">
        <ele>1090.2</ele>
        <time>2023-05-18T07:23:01Z</time>
      </trkpt>
      <trkpt lat="44.66247" lon="5.70537">
        <ele>1090.6</ele>
        <time>2023-05-18T07:23:02Z</time>
      </trkpt>
      <trkpt lat="44.66247" lon="5.70537">
        <ele>1090.6</ele>
        <time>2023-05-18T07:23:03Z</time>
      </trkpt>
      <trkpt lat="44.66246" lon="5.70537">
        <ele>1090.8</ele>
        <time>2023-05-18T07:23:04Z</time>
      </trkpt>
      <trkpt lat="44.66246" lon="5.70538">
        <ele>1091</ele>
        <time>2023-05-18T07:23:05Z</time>
      </trkpt>
      <trkpt lat="44.66246" lon="5.70538">
        <ele>1091.2</ele>
        <time>2023-05-18T07:23:06Z</time>
      </trkpt>
      <trkpt lat="44.66245" lon="5.70538">
        <ele>1091.2</ele>
        <time>2023-05-18T07:23:07Z</time>
      </trkpt>
      <trkpt lat="44.66243" lon="5.70539">
        <ele>1091.4</ele>
        <time>2023-05-18T07:23:08Z</time>
      </trkpt>
      <trkpt lat="44.66242" lon="5.70539">
        <ele>1091.4</ele>
        <time>2023-05-18T07:23:09Z</time>
      </trkpt>
      <trkpt lat="44.66241" lon="5.70539">
        <ele>1091.6</ele>
        <time>2023-05-18T07:23:10Z</time>
      </trkpt>
      <trkpt lat="44.66239" lon="5.70539">
        <ele>1091.6</ele>
        <time>2023-05-18T07:23:11Z</time>
      </trkpt>
      <trkpt lat="44.66238" lon="5.70539">
        <ele>1092</ele>
        <time>2023-05-18T07:23:12Z</time>
      </trkpt>
      <trkpt lat="44.66236" lon="5.70539">
        <ele>1092.2</ele>
        <time>2023-05-18T07:23:13Z</time>
      </trkpt>
      <trkpt lat="44.66236" lon="5.70539">
        <ele>1092.4</ele>
        <time>2023-05-18T07:23:14Z</time>
      </trkpt>
      <trkpt lat="44.66235" lon="5.70539">
        <ele>1092.4</ele>
        <time>2023-05-18T07:23:15Z</time>
      </trkpt>
      <trkpt lat="44.66234" lon="5.70539">
        <ele>1092.6</ele>
        <time>2023-05-18T07:23:16Z</time>
      </trkpt>
      <trkpt lat="44.66233" lon="5.70539">
        <ele>1092.8</ele>
        <time>2023-05-18T07:23:17Z</time>
      </trkpt>
      <trkpt lat="44.66231" lon="5.7054">
        <ele>1093</ele>
        <time>2023-05-18T07:23:18Z</time>
      </trkpt>
      <trkpt lat="44.6623" lon="5.7054">
        <ele>1093.2</ele>
        <time>2023-05-18T07:23:19Z</time>
      </trkpt>
      <trkpt lat="44.66228" lon="5.7054">
        <ele>1093.2</ele>
        <time>2023-05-18T07:23:20Z</time>
      </trkpt>
      <trkpt lat="44.66226" lon="5.7054">
        <ele>1093.4</ele>
        <time>2023-05-18T07:23:21Z</time>
      </trkpt>
      <trkpt lat="44.66225" lon="5.70541">
        <ele>1093.4</ele>
        <time>2023-05-18T07:23:22Z</time>
      </trkpt>
      <trkpt lat="44.66223" lon="5.70541">
        <ele>1093.6</ele>
        <time>2023-05-18T07:23:23Z</time>
      </trkpt>
      <trkpt lat="44.66221" lon="5.70541">
        <ele>1093.8</ele>
        <time>2023-05-18T07:23:24Z</time>
      </trkpt>
      <trkpt lat="44.6622" lon="5.70542">
        <ele>1093.8</ele>
        <time>2023-05-18T07:23:25Z</time>
      </trkpt>
      <trkpt lat="44.6622" lon="5.70542">
        <ele>1094</ele>
        <time>2023-05-18T07:23:26Z</time>
      </trkpt>
      <trkpt lat="44.66217" lon="5.70542">
        <ele>1094.2</ele>
        <time>2023-05-18T07:23:27Z</time>
      </trkpt>
      <trkpt lat="44.66216" lon="5.70541">
        <ele>1094.2</ele>
        <time>2023-05-18T07:23:28Z</time>
      </trkpt>
      <trkpt lat="44.66215" lon="5.70542">
        <ele>1094.6</ele>
        <time>2023-05-18T07:23:29Z</time>
      </trkpt>
      <trkpt lat="44.66215" lon="5.70542">
        <ele>1094.8</ele>
        <time>2023-05-18T07:23:30Z</time>
      </trkpt>
      <trkpt lat="44.66214" lon="5.70543">
        <ele>1095</ele>
        <time>2023-05-18T07:23:31Z</time>
      </trkpt>
      <trkpt lat="44.66213" lon="5.70544">
        <ele>1095.2</ele>
        <time>2023-05-18T07:23:32Z</time>
      </trkpt>
      <trkpt lat="44.66213" lon="5.70544">
        <ele>1095.2</ele>
        <time>2023-05-18T07:23:33Z</time>
      </trkpt>
      <trkpt lat="44.66213" lon="5.70544">
        <ele>1095.4</ele>
        <time>2023-05-18T07:23:34Z</time>
      </trkpt>
      <trkpt lat="44.66212" lon="5.70545">
        <ele>1095.4</ele>
        <time>2023-05-18T07:23:35Z</time>
      </trkpt>
      <trkpt lat="44.66212" lon="5.70545">
        <ele>1095.8</ele>
        <time>2023-05-18T07:23:36Z</time>
      </trkpt>
      <trkpt lat="44.66211" lon="5.70545">
        <ele>1095.8</ele>
        <time>2023-05-18T07:23:37Z</time>
      </trkpt>
      <trkpt lat="44.66211" lon="5.70546">
        <ele>1096</ele>
        <time>2023-05-18T07:23:38Z</time>
      </trkpt>
      <trkpt lat="44.66211" lon="5.70546">
        <ele>1096.2</ele>
        <time>2023-05-18T07:23:39Z</time>
      </trkpt>
      <trkpt lat="44.66211" lon="5.70548">
        <ele>1096.2</ele>
        <time>2023-05-18T07:23:40Z</time>
      </trkpt>
      <trkpt lat="44.66211" lon="5.70549">
        <ele>1096.6</ele>
        <time>2023-05-18T07:23:41Z</time>
      </trkpt>
      <trkpt lat="44.6621" lon="5.70551">
        <ele>1096.6</ele>
        <time>2023-05-18T07:23:42Z</time>
      </trkpt>
      <trkpt lat="44.6621" lon="5.70552">
        <ele>1097</ele>
        <time>2023-05-18T07:23:43Z</time>
      </trkpt>
      <trkpt lat="44.6621" lon="5.70552">
        <ele>1097</ele>
        <time>2023-05-18T07:23:44Z</time>
      </trkpt>
      <trkpt lat="44.66209" lon="5.70552">
        <ele>1097.2</ele>
        <time>2023-05-18T07:23:45Z</time>
      </trkpt>
      <trkpt lat="44.66208" lon="5.70553">
        <ele>1097.2</ele>
        <time>2023-05-18T07:23:46Z</time>
      </trkpt>
      <trkpt lat="44.66207" lon="5.70553">
        <ele>1098</ele>
        <time>2023-05-18T07:23:49Z</time>
      </trkpt>
      <trkpt lat="44.66207" lon="5.70554">
        <ele>1098.4</ele>
        <time>2023-05-18T07:23:50Z</time>
      </trkpt>
      <trkpt lat="44.66206" lon="5.70554">
        <ele>1098.4</ele>
        <time>2023-05-18T07:23:51Z</time>
      </trkpt>
      <trkpt lat="44.66205" lon="5.70555">
        <ele>1098.8</ele>
        <time>2023-05-18T07:23:53Z</time>
      </trkpt>
      <trkpt lat="44.66203" lon="5.70557">
        <ele>1099</ele>
        <time>2023-05-18T07:23:54Z</time>
      </trkpt>
      <trkpt lat="44.662" lon="5.70557">
        <ele>1099.2</ele>
        <time>2023-05-18T07:23:55Z</time>
      </trkpt>
      <trkpt lat="44.66199" lon="5.70557">
        <ele>1099.4</ele>
        <time>2023-05-18T07:23:56Z</time>
      </trkpt>
      <trkpt lat="44.66198" lon="5.70558">
        <ele>1099.4</ele>
        <time>2023-05-18T07:23:57Z</time>
      </trkpt>
      <trkpt lat="44.66197" lon="5.70558">
        <ele>1099.6</ele>
        <time>2023-05-18T07:23:58Z</time>
      </trkpt>
      <trkpt lat="44.66196" lon="5.70559">
        <ele>1099.6</ele>
        <time>2023-05-18T07:23:59Z</time>
      </trkpt>
      <trkpt lat="44.66195" lon="5.70559">
        <ele>1099.8</ele>
        <time>2023-05-18T07:24:00Z</time>
      </trkpt>
      <trkpt lat="44.66193" lon="5.7056">
        <ele>1099.8</ele>
        <time>2023-05-18T07:24:01Z</time>
      </trkpt>
      <trkpt lat="44.66193" lon="5.7056">
        <ele>1100</ele>
        <time>2023-05-18T07:24:02Z</time>
      </trkpt>
      <trkpt lat="44.66192" lon="5.7056">
        <ele>1100</ele>
        <time>2023-05-18T07:24:03Z</time>
      </trkpt>
      <trkpt lat="44.66191" lon="5.7056">
        <ele>1100</ele>
        <time>2023-05-18T07:24:04Z</time>
      </trkpt>
      <trkpt lat="44.66189" lon="5.70561">
        <ele>1100.2</ele>
        <time>2023-05-18T07:24:05Z</time>
      </trkpt>
      <trkpt lat="44.66188" lon="5.70562">
        <ele>1100.4</ele>
        <time>2023-05-18T07:24:06Z</time>
      </trkpt>
      <trkpt lat="44.66187" lon="5.70563">
        <ele>1100.4</ele>
        <time>2023-05-18T07:24:07Z</time>
      </trkpt>
      <trkpt lat="44.66185" lon="5.70564">
        <ele>1100.6</ele>
        <time>2023-05-18T07:24:08Z</time>
      </trkpt>
      <trkpt lat="44.66184" lon="5.70564">
        <ele>1100.6</ele>
        <time>2023-05-18T07:24:09Z</time>
      </trkpt>
      <trkpt lat="44.66183" lon="5.70565">
        <ele>1100.8</ele>
        <time>2023-05-18T07:24:10Z</time>
      </trkpt>
      <trkpt lat="44.66182" lon="5.70565">
        <ele>1100.8</ele>
        <time>2023-05-18T07:24:11Z</time>
      </trkpt>
      <trkpt lat="44.6618" lon="5.70566">
        <ele>1100.8</ele>
        <time>2023-05-18T07:24:12Z</time>
      </trkpt>
      <trkpt lat="44.66179" lon="5.70566">
        <ele>1100.8</ele>
        <time>2023-05-18T07:24:13Z</time>
      </trkpt>
      <trkpt lat="44.66179" lon="5.70566">
        <ele>1101</ele>
        <time>2023-05-18T07:24:14Z</time>
      </trkpt>
      <trkpt lat="44.66179" lon="5.70567">
        <ele>1101</ele>
        <time>2023-05-18T07:24:15Z</time>
      </trkpt>
      <trkpt lat="44.66178" lon="5.70567">
        <ele>1101.2</ele>
        <time>2023-05-18T07:24:16Z</time>
      </trkpt>
      <trkpt lat="44.66175" lon="5.70569">
        <ele>1101.6</ele>
        <time>2023-05-18T07:24:17Z</time>
      </trkpt>
      <trkpt lat="44.66175" lon="5.7057">
        <ele>1101.6</ele>
        <time>2023-05-18T07:24:18Z</time>
      </trkpt>
      <trkpt lat="44.66175" lon="5.7057">
        <ele>1102</ele>
        <time>2023-05-18T07:24:19Z</time>
      </trkpt>
      <trkpt lat="44.66174" lon="5.70571">
        <ele>1102</ele>
        <time>2023-05-18T07:24:20Z</time>
      </trkpt>
      <trkpt lat="44.66174" lon="5.70571">
        <ele>1102.2</ele>
        <time>2023-05-18T07:24:21Z</time>
      </trkpt>
      <trkpt lat="44.66173" lon="5.70571">
        <ele>1102.4</ele>
        <time>2023-05-18T07:24:22Z</time>
      </trkpt>
      <trkpt lat="44.66172" lon="5.70572">
        <ele>1102.6</ele>
        <time>2023-05-18T07:24:23Z</time>
      </trkpt>
      <trkpt lat="44.66171" lon="5.70573">
        <ele>1102.8</ele>
        <time>2023-05-18T07:24:24Z</time>
      </trkpt>
      <trkpt lat="44.6617" lon="5.70574">
        <ele>1102.8</ele>
        <time>2023-05-18T07:24:25Z</time>
      </trkpt>
      <trkpt lat="44.66169" lon="5.70574">
        <ele>1103</ele>
        <time>2023-05-18T07:24:26Z</time>
      </trkpt>
      <trkpt lat="44.66168" lon="5.70575">
        <ele>1103.2</ele>
        <time>2023-05-18T07:24:27Z</time>
      </trkpt>
      <trkpt lat="44.66167" lon="5.70576">
        <ele>1103.4</ele>
        <time>2023-05-18T07:24:28Z</time>
      </trkpt>
      <trkpt lat="44.66167" lon="5.70576">
        <ele>1103.4</ele>
        <time>2023-05-18T07:24:29Z</time>
      </trkpt>
      <trkpt lat="44.66166" lon="5.70577">
        <ele>1103.6</ele>
        <time>2023-05-18T07:24:30Z</time>
      </trkpt>
      <trkpt lat="44.66166" lon="5.70577">
        <ele>1103.6</ele>
        <time>2023-05-18T07:24:31Z</time>
      </trkpt>
      <trkpt lat="44.66165" lon="5.70577">
        <ele>1103.8</ele>
        <time>2023-05-18T07:24:32Z</time>
      </trkpt>
      <trkpt lat="44.66164" lon="5.70578">
        <ele>1104</ele>
        <time>2023-05-18T07:24:33Z</time>
      </trkpt>
      <trkpt lat="44.66163" lon="5.70579">
        <ele>1104</ele>
        <time>2023-05-18T07:24:34Z</time>
      </trkpt>
      <trkpt lat="44.66162" lon="5.70579">
        <ele>1104.4</ele>
        <time>2023-05-18T07:24:35Z</time>
      </trkpt>
      <trkpt lat="44.66161" lon="5.70579">
        <ele>1104.6</ele>
        <time>2023-05-18T07:24:36Z</time>
      </trkpt>
      <trkpt lat="44.6616" lon="5.70579">
        <ele>1104.6</ele>
        <time>2023-05-18T07:24:37Z</time>
      </trkpt>
      <trkpt lat="44.66159" lon="5.70579">
        <ele>1104.8</ele>
        <time>2023-05-18T07:24:38Z</time>
      </trkpt>
      <trkpt lat="44.66158" lon="5.70578">
        <ele>1105</ele>
        <time>2023-05-18T07:24:39Z</time>
      </trkpt>
      <trkpt lat="44.66157" lon="5.70577">
        <ele>1105</ele>
        <time>2023-05-18T07:24:40Z</time>
      </trkpt>
      <trkpt lat="44.66156" lon="5.70577">
        <ele>1105.2</ele>
        <time>2023-05-18T07:24:41Z</time>
      </trkpt>
      <trkpt lat="44.66156" lon="5.70577">
        <ele>1105.4</ele>
        <time>2023-05-18T07:24:42Z</time>
      </trkpt>
      <trkpt lat="44.66156" lon="5.70578">
        <ele>1105.4</ele>
        <time>2023-05-18T07:24:43Z</time>
      </trkpt>
      <trkpt lat="44.66155" lon="5.70579">
        <ele>1105.6</ele>
        <time>2023-05-18T07:24:44Z</time>
      </trkpt>
      <trkpt lat="44.66154" lon="5.70579">
        <ele>1105.8</ele>
        <time>2023-05-18T07:24:45Z</time>
      </trkpt>
      <trkpt lat="44.66153" lon="5.7058">
        <ele>1106</ele>
        <time>2023-05-18T07:24:46Z</time>
      </trkpt>
      <trkpt lat="44.66153" lon="5.7058">
        <ele>1106.2</ele>
        <time>2023-05-18T07:24:47Z</time>
      </trkpt>
      <trkpt lat="44.66152" lon="5.70581">
        <ele>1106.4</ele>
        <time>2023-05-18T07:24:48Z</time>
      </trkpt>
      <trkpt lat="44.66152" lon="5.70582">
        <ele>1106.6</ele>
        <time>2023-05-18T07:24:49Z</time>
      </trkpt>
      <trkpt lat="44.66152" lon="5.70583">
        <ele>1106.8</ele>
        <time>2023-05-18T07:24:50Z</time>
      </trkpt>
      <trkpt lat="44.66152" lon="5.70584">
        <ele>1106.8</ele>
        <time>2023-05-18T07:24:51Z</time>
      </trkpt>
      <trkpt lat="44.66151" lon="5.70585">
        <ele>1107</ele>
        <time>2023-05-18T07:24:52Z</time>
      </trkpt>
      <trkpt lat="44.6615" lon="5.70586">
        <ele>1107.2</ele>
        <time>2023-05-18T07:24:53Z</time>
      </trkpt>
      <trkpt lat="44.66149" lon="5.70586">
        <ele>1107.4</ele>
        <time>2023-05-18T07:24:54Z</time>
      </trkpt>
      <trkpt lat="44.66148" lon="5.70587">
        <ele>1107.4</ele>
        <time>2023-05-18T07:24:55Z</time>
      </trkpt>
      <trkpt lat="44.66147" lon="5.70588">
        <ele>1107.4</ele>
        <time>2023-05-18T07:24:56Z</time>
      </trkpt>
      <trkpt lat="44.66147" lon="5.70588">
        <ele>1107.6</ele>
        <time>2023-05-18T07:24:57Z</time>
      </trkpt>
      <trkpt lat="44.66146" lon="5.70588">
        <ele>1107.6</ele>
        <time>2023-05-18T07:24:58Z</time>
      </trkpt>
      <trkpt lat="44.66145" lon="5.70589">
        <ele>1107.8</ele>
        <time>2023-05-18T07:24:59Z</time>
      </trkpt>
      <trkpt lat="44.66144" lon="5.7059">
        <ele>1108</ele>
        <time>2023-05-18T07:25:00Z</time>
      </trkpt>
      <trkpt lat="44.66143" lon="5.70591">
        <ele>1108.2</ele>
        <time>2023-05-18T07:25:01Z</time>
      </trkpt>
      <trkpt lat="44.66142" lon="5.70592">
        <ele>1108.4</ele>
        <time>2023-05-18T07:25:02Z</time>
      </trkpt>
      <trkpt lat="44.66141" lon="5.70592">
        <ele>1108.6</ele>
        <time>2023-05-18T07:25:03Z</time>
      </trkpt>
      <trkpt lat="44.66139" lon="5.70594">
        <ele>1109</ele>
        <time>2023-05-18T07:25:05Z</time>
      </trkpt>
      <trkpt lat="44.66138" lon="5.70594">
        <ele>1109</ele>
        <time>2023-05-18T07:25:06Z</time>
      </trkpt>
      <trkpt lat="44.66137" lon="5.70594">
        <ele>1109.2</ele>
        <time>2023-05-18T07:25:07Z</time>
      </trkpt>
      <trkpt lat="44.66135" lon="5.70594">
        <ele>1109.2</ele>
        <time>2023-05-18T07:25:08Z</time>
      </trkpt>
      <trkpt lat="44.66134" lon="5.70594">
        <ele>1109.4</ele>
        <time>2023-05-18T07:25:09Z</time>
      </trkpt>
      <trkpt lat="44.66133" lon="5.70594">
        <ele>1109.6</ele>
        <time>2023-05-18T07:25:10Z</time>
      </trkpt>
      <trkpt lat="44.66132" lon="5.70594">
        <ele>1109.8</ele>
        <time>2023-05-18T07:25:11Z</time>
      </trkpt>
      <trkpt lat="44.66131" lon="5.70593">
        <ele>1109.8</ele>
        <time>2023-05-18T07:25:12Z</time>
      </trkpt>
      <trkpt lat="44.66131" lon="5.70593">
        <ele>1110</ele>
        <time>2023-05-18T07:25:13Z</time>
      </trkpt>
      <trkpt lat="44.6613" lon="5.70594">
        <ele>1110.8</ele>
        <time>2023-05-18T07:25:18Z</time>
      </trkpt>
      <trkpt lat="44.6613" lon="5.70594">
        <ele>1110.8</ele>
        <time>2023-05-18T07:25:19Z</time>
      </trkpt>
      <trkpt lat="44.66127" lon="5.70595">
        <ele>1111.2</ele>
        <time>2023-05-18T07:25:23Z</time>
      </trkpt>
      <trkpt lat="44.66126" lon="5.70595">
        <ele>1111.2</ele>
        <time>2023-05-18T07:25:24Z</time>
      </trkpt>
      <trkpt lat="44.66125" lon="5.70596">
        <ele>1111.2</ele>
        <time>2023-05-18T07:25:25Z</time>
      </trkpt>
      <trkpt lat="44.66123" lon="5.70596">
        <ele>1111.2</ele>
        <time>2023-05-18T07:25:26Z</time>
      </trkpt>
      <trkpt lat="44.66122" lon="5.70597">
        <ele>1111.2</ele>
        <time>2023-05-18T07:25:27Z</time>
      </trkpt>
      <trkpt lat="44.66121" lon="5.70597">
        <ele>1111.2</ele>
        <time>2023-05-18T07:25:28Z</time>
      </trkpt>
      <trkpt lat="44.6612" lon="5.70598">
        <ele>1111.2</ele>
        <time>2023-05-18T07:25:29Z</time>
      </trkpt>
      <trkpt lat="44.66119" lon="5.70598">
        <ele>1111.2</ele>
        <time>2023-05-18T07:25:30Z</time>
      </trkpt>
      <trkpt lat="44.66118" lon="5.70599">
        <ele>1111.4</ele>
        <time>2023-05-18T07:25:31Z</time>
      </trkpt>
      <trkpt lat="44.66117" lon="5.70599">
        <ele>1111.4</ele>
        <time>2023-05-18T07:25:32Z</time>
      </trkpt>
      <trkpt lat="44.66117" lon="5.70599">
        <ele>1111.4</ele>
        <time>2023-05-18T07:25:33Z</time>
      </trkpt>
      <trkpt lat="44.66115" lon="5.706">
        <ele>1111.6</ele>
        <time>2023-05-18T07:25:34Z</time>
      </trkpt>
      <trkpt lat="44.66113" lon="5.70601">
        <ele>1111.8</ele>
        <time>2023-05-18T07:25:35Z</time>
      </trkpt>
      <trkpt lat="44.66112" lon="5.70602">
        <ele>1112</ele>
        <time>2023-05-18T07:25:36Z</time>
      </trkpt>
      <trkpt lat="44.66111" lon="5.70603">
        <ele>1112.2</ele>
        <time>2023-05-18T07:25:37Z</time>
      </trkpt>
      <trkpt lat="44.6611" lon="5.70603">
        <ele>1112.4</ele>
        <time>2023-05-18T07:25:38Z</time>
      </trkpt>
      <trkpt lat="44.66108" lon="5.70603">
        <ele>1112.4</ele>
        <time>2023-05-18T07:25:39Z</time>
      </trkpt>
      <trkpt lat="44.66107" lon="5.70604">
        <ele>1112.4</ele>
        <time>2023-05-18T07:25:40Z</time>
      </trkpt>
      <trkpt lat="44.66107" lon="5.70604">
        <ele>1112.6</ele>
        <time>2023-05-18T07:25:43Z</time>
      </trkpt>
      <trkpt lat="44.66106" lon="5.70604">
        <ele>1112.8</ele>
        <time>2023-05-18T07:26:02Z</time>
      </trkpt>
      <trkpt lat="44.66106" lon="5.70604">
        <ele>1113</ele>
        <time>2023-05-18T07:26:09Z</time>
      </trkpt>
      <trkpt lat="44.66102" lon="5.70606">
        <ele>1113</ele>
        <time>2023-05-18T07:28:46Z</time>
      </trkpt>
      <trkpt lat="44.66098" lon="5.70607">
        <ele>1112.8</ele>
        <time>2023-05-18T07:28:48Z</time>
      </trkpt>
      <trkpt lat="44.66096" lon="5.70608">
        <ele>1112.8</ele>
        <time>2023-05-18T07:28:49Z</time>
      </trkpt>
      <trkpt lat="44.66094" lon="5.70609">
        <ele>1112.8</ele>
        <time>2023-05-18T07:28:50Z</time>
      </trkpt>
      <trkpt lat="44.6609" lon="5.7061">
        <ele>1112.8</ele>
        <time>2023-05-18T07:28:52Z</time>
      </trkpt>
      <trkpt lat="44.66089" lon="5.70611">
        <ele>1112.8</ele>
        <time>2023-05-18T07:28:53Z</time>
      </trkpt>
      <trkpt lat="44.66087" lon="5.70611">
        <ele>1112.8</ele>
        <time>2023-05-18T07:28:54Z</time>
      </trkpt>
      <trkpt lat="44.66085" lon="5.70612">
        <ele>1112.8</ele>
        <time>2023-05-18T07:28:55Z</time>
      </trkpt>
      <trkpt lat="44.66081" lon="5.70613">
        <ele>1112.8</ele>
        <time>2023-05-18T07:28:57Z</time>
      </trkpt>
      <trkpt lat="44.6608" lon="5.70614">
        <ele>1112.8</ele>
        <time>2023-05-18T07:28:58Z</time>
      </trkpt>
      <trkpt lat="44.66079" lon="5.70616">
        <ele>1112.8</ele>
        <time>2023-05-18T07:28:59Z</time>
      </trkpt>
      <trkpt lat="44.66078" lon="5.70616">
        <ele>1112.8</ele>
        <time>2023-05-18T07:29:00Z</time>
      </trkpt>
      <trkpt lat="44.66076" lon="5.70617">
        <ele>1113</ele>
        <time>2023-05-18T07:29:01Z</time>
      </trkpt>
      <trkpt lat="44.66075" lon="5.70617">
        <ele>1113</ele>
        <time>2023-05-18T07:29:02Z</time>
      </trkpt>
      <trkpt lat="44.66073" lon="5.70618">
        <ele>1113</ele>
        <time>2023-05-18T07:29:03Z</time>
      </trkpt>
      <trkpt lat="44.66072" lon="5.70619">
        <ele>1113.2</ele>
        <time>2023-05-18T07:29:04Z</time>
      </trkpt>
      <trkpt lat="44.66071" lon="5.70619">
        <ele>1113.4</ele>
        <time>2023-05-18T07:29:05Z</time>
      </trkpt>
      <trkpt lat="44.6607" lon="5.7062">
        <ele>1113.4</ele>
        <time>2023-05-18T07:29:06Z</time>
      </trkpt>
      <trkpt lat="44.66069" lon="5.70621">
        <ele>1113.4</ele>
        <time>2023-05-18T07:29:07Z</time>
      </trkpt>
      <trkpt lat="44.66067" lon="5.70622">
        <ele>1113.4</ele>
        <time>2023-05-18T07:29:08Z</time>
      </trkpt>
      <trkpt lat="44.66066" lon="5.70622">
        <ele>1113.6</ele>
        <time>2023-05-18T07:29:09Z</time>
      </trkpt>
      <trkpt lat="44.66065" lon="5.70622">
        <ele>1113.8</ele>
        <time>2023-05-18T07:29:10Z</time>
      </trkpt>
      <trkpt lat="44.66064" lon="5.70622">
        <ele>1113.8</ele>
        <time>2023-05-18T07:29:11Z</time>
      </trkpt>
      <trkpt lat="44.66062" lon="5.70623">
        <ele>1114</ele>
        <time>2023-05-18T07:29:12Z</time>
      </trkpt>
      <trkpt lat="44.66061" lon="5.70624">
        <ele>1114</ele>
        <time>2023-05-18T07:29:13Z</time>
      </trkpt>
      <trkpt lat="44.6606" lon="5.70624">
        <ele>1114.2</ele>
        <time>2023-05-18T07:29:14Z</time>
      </trkpt>
      <trkpt lat="44.66059" lon="5.70625">
        <ele>1114.2</ele>
        <time>2023-05-18T07:29:15Z</time>
      </trkpt>
      <trkpt lat="44.66058" lon="5.70627">
        <ele>1114.2</ele>
        <time>2023-05-18T07:29:16Z</time>
      </trkpt>
      <trkpt lat="44.66054" lon="5.7063">
        <ele>1114.6</ele>
        <time>2023-05-18T07:29:19Z</time>
      </trkpt>
      <trkpt lat="44.66052" lon="5.70631">
        <ele>1114.6</ele>
        <time>2023-05-18T07:29:20Z</time>
      </trkpt>
      <trkpt lat="44.66051" lon="5.70632">
        <ele>1114.6</ele>
        <time>2023-05-18T07:29:21Z</time>
      </trkpt>
      <trkpt lat="44.6605" lon="5.70633">
        <ele>1114.6</ele>
        <time>2023-05-18T07:29:22Z</time>
      </trkpt>
      <trkpt lat="44.6605" lon="5.70633">
        <ele>1114.8</ele>
        <time>2023-05-18T07:29:23Z</time>
      </trkpt>
      <trkpt lat="44.6605" lon="5.70634">
        <ele>1114.8</ele>
        <time>2023-05-18T07:29:24Z</time>
      </trkpt>
      <trkpt lat="44.66049" lon="5.70635">
        <ele>1115</ele>
        <time>2023-05-18T07:29:25Z</time>
      </trkpt>
      <trkpt lat="44.66047" lon="5.70635">
        <ele>1115</ele>
        <time>2023-05-18T07:29:26Z</time>
      </trkpt>
      <trkpt lat="44.66046" lon="5.70635">
        <ele>1115</ele>
        <time>2023-05-18T07:29:27Z</time>
      </trkpt>
      <trkpt lat="44.66042" lon="5.70638">
        <ele>1115.2</ele>
        <time>2023-05-18T07:29:30Z</time>
      </trkpt>
      <trkpt lat="44.66041" lon="5.70638">
        <ele>1115.2</ele>
        <time>2023-05-18T07:29:31Z</time>
      </trkpt>
      <trkpt lat="44.6604" lon="5.70639">
        <ele>1115.4</ele>
        <time>2023-05-18T07:29:32Z</time>
      </trkpt>
      <trkpt lat="44.66037" lon="5.7064">
        <ele>1115.6</ele>
        <time>2023-05-18T07:29:34Z</time>
      </trkpt>
      <trkpt lat="44.66035" lon="5.7064">
        <ele>1115.6</ele>
        <time>2023-05-18T07:29:35Z</time>
      </trkpt>
      <trkpt lat="44.66029" lon="5.7064">
        <ele>1116</ele>
        <time>2023-05-18T07:29:40Z</time>
      </trkpt>
      <trkpt lat="44.66026" lon="5.7064">
        <ele>1116.2</ele>
        <time>2023-05-18T07:29:42Z</time>
      </trkpt>
      <trkpt lat="44.66021" lon="5.7064">
        <ele>1116.6</ele>
        <time>2023-05-18T07:29:46Z</time>
      </trkpt>
      <trkpt lat="44.6602" lon="5.7064">
        <ele>1116.6</ele>
        <time>2023-05-18T07:29:47Z</time>
      </trkpt>
      <trkpt lat="44.66017" lon="5.70639">
        <ele>1116.8</ele>
        <time>2023-05-18T07:29:50Z</time>
      </trkpt>
      <trkpt lat="44.6601" lon="5.70639">
        <ele>1117</ele>
        <time>2023-05-18T07:29:56Z</time>
      </trkpt>
      <trkpt lat="44.66009" lon="5.70641">
        <ele>1117</ele>
        <time>2023-05-18T07:29:57Z</time>
      </trkpt>
      <trkpt lat="44.66008" lon="5.70642">
        <ele>1117.2</ele>
        <time>2023-05-18T07:29:58Z</time>
      </trkpt>
      <trkpt lat="44.66008" lon="5.70643">
        <ele>1117.2</ele>
        <time>2023-05-18T07:29:59Z</time>
      </trkpt>
      <trkpt lat="44.66007" lon="5.70644">
        <ele>1117.2</ele>
        <time>2023-05-18T07:30:00Z</time>
      </trkpt>
      <trkpt lat="44.66006" lon="5.70644">
        <ele>1117.4</ele>
        <time>2023-05-18T07:30:01Z</time>
      </trkpt>
      <trkpt lat="44.66005" lon="5.70645">
        <ele>1117.4</ele>
        <time>2023-05-18T07:30:02Z</time>
      </trkpt>
      <trkpt lat="44.66004" lon="5.70645">
        <ele>1117.6</ele>
        <time>2023-05-18T07:30:03Z</time>
      </trkpt>
      <trkpt lat="44.66003" lon="5.70645">
        <ele>1117.6</ele>
        <time>2023-05-18T07:30:04Z</time>
      </trkpt>
      <trkpt lat="44.66003" lon="5.70645">
        <ele>1117.6</ele>
        <time>2023-05-18T07:30:05Z</time>
      </trkpt>
      <trkpt lat="44.66002" lon="5.70646">
        <ele>1117.6</ele>
        <time>2023-05-18T07:30:06Z</time>
      </trkpt>
      <trkpt lat="44.65999" lon="5.70648">
        <ele>1118</ele>
        <time>2023-05-18T07:30:08Z</time>
      </trkpt>
      <trkpt lat="44.65998" lon="5.70648">
        <ele>1118</ele>
        <time>2023-05-18T07:30:09Z</time>
      </trkpt>
      <trkpt lat="44.65997" lon="5.70648">
        <ele>1118.2</ele>
        <time>2023-05-18T07:30:10Z</time>
      </trkpt>
      <trkpt lat="44.65997" lon="5.70648">
        <ele>1118.4</ele>
        <time>2023-05-18T07:30:11Z</time>
      </trkpt>
      <trkpt lat="44.65994" lon="5.7065">
        <ele>1118.8</ele>
        <time>2023-05-18T07:30:14Z</time>
      </trkpt>
      <trkpt lat="44.65993" lon="5.70651">
        <ele>1119</ele>
        <time>2023-05-18T07:30:15Z</time>
      </trkpt>
      <trkpt lat="44.65993" lon="5.70651">
        <ele>1119.2</ele>
        <time>2023-05-18T07:30:16Z</time>
      </trkpt>
      <trkpt lat="44.65992" lon="5.70652">
        <ele>1119.4</ele>
        <time>2023-05-18T07:30:17Z</time>
      </trkpt>
      <trkpt lat="44.65993" lon="5.70653">
        <ele>1119.6</ele>
        <time>2023-05-18T07:30:18Z</time>
      </trkpt>
      <trkpt lat="44.65993" lon="5.70653">
        <ele>1120</ele>
        <time>2023-05-18T07:30:19Z</time>
      </trkpt>
      <trkpt lat="44.65992" lon="5.70654">
        <ele>1120.4</ele>
        <time>2023-05-18T07:30:20Z</time>
      </trkpt>
      <trkpt lat="44.65991" lon="5.70654">
        <ele>1120.6</ele>
        <time>2023-05-18T07:30:21Z</time>
      </trkpt>
      <trkpt lat="44.65989" lon="5.70654">
        <ele>1121</ele>
        <time>2023-05-18T07:30:22Z</time>
      </trkpt>
      <trkpt lat="44.65988" lon="5.70654">
        <ele>1121.2</ele>
        <time>2023-05-18T07:30:23Z</time>
      </trkpt>
      <trkpt lat="44.65988" lon="5.70655">
        <ele>1121.4</ele>
        <time>2023-05-18T07:30:24Z</time>
      </trkpt>
      <trkpt lat="44.65987" lon="5.70655">
        <ele>1121.6</ele>
        <time>2023-05-18T07:30:25Z</time>
      </trkpt>
      <trkpt lat="44.65986" lon="5.70655">
        <ele>1121.8</ele>
        <time>2023-05-18T07:30:26Z</time>
      </trkpt>
      <trkpt lat="44.65985" lon="5.70656">
        <ele>1122</ele>
        <time>2023-05-18T07:30:27Z</time>
      </trkpt>
      <trkpt lat="44.65984" lon="5.70656">
        <ele>1122</ele>
        <time>2023-05-18T07:30:28Z</time>
      </trkpt>
      <trkpt lat="44.65983" lon="5.70656">
        <ele>1122.2</ele>
        <time>2023-05-18T07:30:29Z</time>
      </trkpt>
      <trkpt lat="44.65982" lon="5.70657">
        <ele>1122.4</ele>
        <time>2023-05-18T07:30:30Z</time>
      </trkpt>
      <trkpt lat="44.65981" lon="5.70657">
        <ele>1122.8</ele>
        <time>2023-05-18T07:30:31Z</time>
      </trkpt>
      <trkpt lat="44.65981" lon="5.70657">
        <ele>1122.8</ele>
        <time>2023-05-18T07:30:32Z</time>
      </trkpt>
      <trkpt lat="44.6598" lon="5.70658">
        <ele>1123</ele>
        <time>2023-05-18T07:30:33Z</time>
      </trkpt>
      <trkpt lat="44.65979" lon="5.70658">
        <ele>1123.2</ele>
        <time>2023-05-18T07:30:34Z</time>
      </trkpt>
      <trkpt lat="44.65978" lon="5.70657">
        <ele>1123.4</ele>
        <time>2023-05-18T07:30:35Z</time>
      </trkpt>
      <trkpt lat="44.65977" lon="5.70657">
        <ele>1123.4</ele>
        <time>2023-05-18T07:30:36Z</time>
      </trkpt>
      <trkpt lat="44.65976" lon="5.70657">
        <ele>1123.6</ele>
        <time>2023-05-18T07:30:37Z</time>
      </trkpt>
      <trkpt lat="44.65975" lon="5.70657">
        <ele>1123.6</ele>
        <time>2023-05-18T07:30:38Z</time>
      </trkpt>
      <trkpt lat="44.65975" lon="5.70657">
        <ele>1123.8</ele>
        <time>2023-05-18T07:30:39Z</time>
      </trkpt>
      <trkpt lat="44.65974" lon="5.70658">
        <ele>1124</ele>
        <time>2023-05-18T07:30:40Z</time>
      </trkpt>
      <trkpt lat="44.65973" lon="5.70658">
        <ele>1124.2</ele>
        <time>2023-05-18T07:30:41Z</time>
      </trkpt>
      <trkpt lat="44.65972" lon="5.70658">
        <ele>1124.4</ele>
        <time>2023-05-18T07:30:42Z</time>
      </trkpt>
      <trkpt lat="44.65972" lon="5.70659">
        <ele>1124.6</ele>
        <time>2023-05-18T07:30:43Z</time>
      </trkpt>
      <trkpt lat="44.65972" lon="5.7066">
        <ele>1124.6</ele>
        <time>2023-05-18T07:30:44Z</time>
      </trkpt>
      <trkpt lat="44.65971" lon="5.70661">
        <ele>1124.8</ele>
        <time>2023-05-18T07:30:45Z</time>
      </trkpt>
      <trkpt lat="44.65971" lon="5.70661">
        <ele>1124.8</ele>
        <time>2023-05-18T07:30:46Z</time>
      </trkpt>
      <trkpt lat="44.6597" lon="5.70661">
        <ele>1125</ele>
        <time>2023-05-18T07:30:47Z</time>
      </trkpt>
      <trkpt lat="44.65969" lon="5.70662">
        <ele>1125.2</ele>
        <time>2023-05-18T07:30:48Z</time>
      </trkpt>
      <trkpt lat="44.65968" lon="5.70662">
        <ele>1125.4</ele>
        <time>2023-05-18T07:30:49Z</time>
      </trkpt>
      <trkpt lat="44.65968" lon="5.70663">
        <ele>1125.4</ele>
        <time>2023-05-18T07:30:50Z</time>
      </trkpt>
      <trkpt lat="44.65967" lon="5.70663">
        <ele>1125.6</ele>
        <time>2023-05-18T07:30:51Z</time>
      </trkpt>
      <trkpt lat="44.65966" lon="5.70664">
        <ele>1125.8</ele>
        <time>2023-05-18T07:30:52Z</time>
      </trkpt>
      <trkpt lat="44.65964" lon="5.70664">
        <ele>1126.2</ele>
        <time>2023-05-18T07:30:55Z</time>
      </trkpt>
      <trkpt lat="44.65963" lon="5.70665">
        <ele>1126.6</ele>
        <time>2023-05-18T07:30:56Z</time>
      </trkpt>
      <trkpt lat="44.65962" lon="5.70665">
        <ele>1126.6</ele>
        <time>2023-05-18T07:30:57Z</time>
      </trkpt>
      <trkpt lat="44.65962" lon="5.70666">
        <ele>1127</ele>
        <time>2023-05-18T07:30:58Z</time>
      </trkpt>
      <trkpt lat="44.6596" lon="5.70667">
        <ele>1127.2</ele>
        <time>2023-05-18T07:30:59Z</time>
      </trkpt>
      <trkpt lat="44.65959" lon="5.70669">
        <ele>1127.4</ele>
        <time>2023-05-18T07:31:00Z</time>
      </trkpt>
      <trkpt lat="44.65959" lon="5.7067">
        <ele>1127.6</ele>
        <time>2023-05-18T07:31:01Z</time>
      </trkpt>
      <trkpt lat="44.65958" lon="5.7067">
        <ele>1127.8</ele>
        <time>2023-05-18T07:31:02Z</time>
      </trkpt>
      <trkpt lat="44.65956" lon="5.70671">
        <ele>1127.8</ele>
        <time>2023-05-18T07:31:03Z</time>
      </trkpt>
      <trkpt lat="44.65955" lon="5.70671">
        <ele>1128</ele>
        <time>2023-05-18T07:31:04Z</time>
      </trkpt>
      <trkpt lat="44.65953" lon="5.70671">
        <ele>1128</ele>
        <time>2023-05-18T07:31:05Z</time>
      </trkpt>
      <trkpt lat="44.65952" lon="5.70672">
        <ele>1128.2</ele>
        <time>2023-05-18T07:31:06Z</time>
      </trkpt>
      <trkpt lat="44.65951" lon="5.70674">
        <ele>1128.4</ele>
        <time>2023-05-18T07:31:08Z</time>
      </trkpt>
      <trkpt lat="44.6595" lon="5.70674">
        <ele>1128.6</ele>
        <time>2023-05-18T07:31:09Z</time>
      </trkpt>
      <trkpt lat="44.6595" lon="5.70674">
        <ele>1128.6</ele>
        <time>2023-05-18T07:31:10Z</time>
      </trkpt>
      <trkpt lat="44.65948" lon="5.70675">
        <ele>1129</ele>
        <time>2023-05-18T07:31:11Z</time>
      </trkpt>
      <trkpt lat="44.65946" lon="5.70676">
        <ele>1129.2</ele>
        <time>2023-05-18T07:31:12Z</time>
      </trkpt>
      <trkpt lat="44.65944" lon="5.70676">
        <ele>1129.4</ele>
        <time>2023-05-18T07:31:13Z</time>
      </trkpt>
      <trkpt lat="44.65942" lon="5.70676">
        <ele>1129.6</ele>
        <time>2023-05-18T07:31:14Z</time>
      </trkpt>
      <trkpt lat="44.65941" lon="5.70676">
        <ele>1129.8</ele>
        <time>2023-05-18T07:31:15Z</time>
      </trkpt>
      <trkpt lat="44.65939" lon="5.70679">
        <ele>1129.8</ele>
        <time>2023-05-18T07:31:16Z</time>
      </trkpt>
      <trkpt lat="44.65937" lon="5.70681">
        <ele>1130</ele>
        <time>2023-05-18T07:31:17Z</time>
      </trkpt>
      <trkpt lat="44.65936" lon="5.70684">
        <ele>1130.2</ele>
        <time>2023-05-18T07:31:18Z</time>
      </trkpt>
      <trkpt lat="44.65935" lon="5.70686">
        <ele>1130.2</ele>
        <time>2023-05-18T07:31:19Z</time>
      </trkpt>
      <trkpt lat="44.65935" lon="5.70687">
        <ele>1130.4</ele>
        <time>2023-05-18T07:31:20Z</time>
      </trkpt>
      <trkpt lat="44.65937" lon="5.70689">
        <ele>1130.6</ele>
        <time>2023-05-18T07:31:21Z</time>
      </trkpt>
      <trkpt lat="44.65937" lon="5.7069">
        <ele>1130.8</ele>
        <time>2023-05-18T07:31:22Z</time>
      </trkpt>
      <trkpt lat="44.65938" lon="5.70691">
        <ele>1130.8</ele>
        <time>2023-05-18T07:31:23Z</time>
      </trkpt>
      <trkpt lat="44.65938" lon="5.70691">
        <ele>1130.8</ele>
        <time>2023-05-18T07:31:24Z</time>
      </trkpt>
      <trkpt lat="44.65938" lon="5.70693">
        <ele>1131</ele>
        <time>2023-05-18T07:31:25Z</time>
      </trkpt>
      <trkpt lat="44.65938" lon="5.70695">
        <ele>1131.2</ele>
        <time>2023-05-18T07:31:26Z</time>
      </trkpt>
      <trkpt lat="44.65937" lon="5.70695">
        <ele>1131.2</ele>
        <time>2023-05-18T07:31:27Z</time>
      </trkpt>
      <trkpt lat="44.65936" lon="5.70696">
        <ele>1131.4</ele>
        <time>2023-05-18T07:31:28Z</time>
      </trkpt>
      <trkpt lat="44.65935" lon="5.70698">
        <ele>1131.6</ele>
        <time>2023-05-18T07:31:29Z</time>
      </trkpt>
      <trkpt lat="44.65935" lon="5.70699">
        <ele>1131.6</ele>
        <time>2023-05-18T07:31:30Z</time>
      </trkpt>
      <trkpt lat="44.65934" lon="5.707">
        <ele>1131.6</ele>
        <time>2023-05-18T07:31:31Z</time>
      </trkpt>
      <trkpt lat="44.65933" lon="5.70702">
        <ele>1131.8</ele>
        <time>2023-05-18T07:31:32Z</time>
      </trkpt>
      <trkpt lat="44.65933" lon="5.70702">
        <ele>1131.8</ele>
        <time>2023-05-18T07:31:33Z</time>
      </trkpt>
      <trkpt lat="44.65932" lon="5.70703">
        <ele>1131.8</ele>
        <time>2023-05-18T07:31:35Z</time>
      </trkpt>
      <trkpt lat="44.65932" lon="5.70703">
        <ele>1131.8</ele>
        <time>2023-05-18T07:31:38Z</time>
      </trkpt>
      <trkpt lat="44.65933" lon="5.70705">
        <ele>1131.8</ele>
        <time>2023-05-18T07:31:48Z</time>
      </trkpt>
      <trkpt lat="44.65933" lon="5.70707">
        <ele>1131.8</ele>
        <time>2023-05-18T07:31:49Z</time>
      </trkpt>
      <trkpt lat="44.65932" lon="5.7071">
        <ele>1131.6</ele>
        <time>2023-05-18T07:31:50Z</time>
      </trkpt>
      <trkpt lat="44.65932" lon="5.70712">
        <ele>1131.6</ele>
        <time>2023-05-18T07:31:52Z</time>
      </trkpt>
      <trkpt lat="44.65931" lon="5.70712">
        <ele>1131.6</ele>
        <time>2023-05-18T07:31:54Z</time>
      </trkpt>
      <trkpt lat="44.6593" lon="5.70712">
        <ele>1131.2</ele>
        <time>2023-05-18T07:32:04Z</time>
      </trkpt>
      <trkpt lat="44.65927" lon="5.70715">
        <ele>1131.2</ele>
        <time>2023-05-18T07:32:06Z</time>
      </trkpt>
      <trkpt lat="44.65925" lon="5.70716">
        <ele>1131.2</ele>
        <time>2023-05-18T07:32:07Z</time>
      </trkpt>
      <trkpt lat="44.65913" lon="5.70721">
        <ele>1130.6</ele>
        <time>2023-05-18T07:32:10Z</time>
      </trkpt>
      <trkpt lat="44.65911" lon="5.70724">
        <ele>1130.4</ele>
        <time>2023-05-18T07:32:11Z</time>
      </trkpt>
      <trkpt lat="44.6591" lon="5.70728">
        <ele>1129.8</ele>
        <time>2023-05-18T07:32:12Z</time>
      </trkpt>
      <trkpt lat="44.65908" lon="5.7073">
        <ele>1129.4</ele>
        <time>2023-05-18T07:32:13Z</time>
      </trkpt>
      <trkpt lat="44.65907" lon="5.70732">
        <ele>1128.2</ele>
        <time>2023-05-18T07:32:14Z</time>
      </trkpt>
      <trkpt lat="44.65904" lon="5.70733">
        <ele>1126.8</ele>
        <time>2023-05-18T07:32:15Z</time>
      </trkpt>
      <trkpt lat="44.65898" lon="5.70734">
        <ele>1126</ele>
        <time>2023-05-18T07:32:16Z</time>
      </trkpt>
      <trkpt lat="44.65893" lon="5.70736">
        <ele>1125</ele>
        <time>2023-05-18T07:32:17Z</time>
      </trkpt>
      <trkpt lat="44.65889" lon="5.7074">
        <ele>1124.6</ele>
        <time>2023-05-18T07:32:18Z</time>
      </trkpt>
      <trkpt lat="44.65887" lon="5.70743">
        <ele>1123.8</ele>
        <time>2023-05-18T07:32:19Z</time>
      </trkpt>
      <trkpt lat="44.65886" lon="5.70746">
        <ele>1123.4</ele>
        <time>2023-05-18T07:32:20Z</time>
      </trkpt>
      <trkpt lat="44.65884" lon="5.70749">
        <ele>1122.6</ele>
        <time>2023-05-18T07:32:21Z</time>
      </trkpt>
      <trkpt lat="44.65882" lon="5.70752">
        <ele>1122.2</ele>
        <time>2023-05-18T07:32:22Z</time>
      </trkpt>
      <trkpt lat="44.65877" lon="5.70753">
        <ele>1121.6</ele>
        <time>2023-05-18T07:32:23Z</time>
      </trkpt>
      <trkpt lat="44.65872" lon="5.70756">
        <ele>1120.6</ele>
        <time>2023-05-18T07:32:24Z</time>
      </trkpt>
      <trkpt lat="44.65867" lon="5.70759">
        <ele>1120</ele>
        <time>2023-05-18T07:32:25Z</time>
      </trkpt>
      <trkpt lat="44.65866" lon="5.70759">
        <ele>1119</ele>
        <time>2023-05-18T07:32:26Z</time>
      </trkpt>
      <trkpt lat="44.65865" lon="5.70762">
        <ele>1118.4</ele>
        <time>2023-05-18T07:32:27Z</time>
      </trkpt>
      <trkpt lat="44.65863" lon="5.70764">
        <ele>1117.4</ele>
        <time>2023-05-18T07:32:28Z</time>
      </trkpt>
      <trkpt lat="44.65859" lon="5.70766">
        <ele>1117</ele>
        <time>2023-05-18T07:32:29Z</time>
      </trkpt>
      <trkpt lat="44.65857" lon="5.70768">
        <ele>1116</ele>
        <time>2023-05-18T07:32:30Z</time>
      </trkpt>
      <trkpt lat="44.65849" lon="5.70774">
        <ele>1115.4</ele>
        <time>2023-05-18T07:32:31Z</time>
      </trkpt>
      <trkpt lat="44.65846" lon="5.70778">
        <ele>1114.6</ele>
        <time>2023-05-18T07:32:32Z</time>
      </trkpt>
      <trkpt lat="44.65842" lon="5.70788">
        <ele>1114</ele>
        <time>2023-05-18T07:32:33Z</time>
      </trkpt>
      <trkpt lat="44.65838" lon="5.70791">
        <ele>1113.8</ele>
        <time>2023-05-18T07:32:34Z</time>
      </trkpt>
      <trkpt lat="44.65837" lon="5.70796">
        <ele>1113</ele>
        <time>2023-05-18T07:32:35Z</time>
      </trkpt>
      <trkpt lat="44.65836" lon="5.70799">
        <ele>1112.8</ele>
        <time>2023-05-18T07:32:36Z</time>
      </trkpt>
      <trkpt lat="44.65837" lon="5.70804">
        <ele>1111.6</ele>
        <time>2023-05-18T07:32:37Z</time>
      </trkpt>
      <trkpt lat="44.65837" lon="5.70807">
        <ele>1111.2</ele>
        <time>2023-05-18T07:32:38Z</time>
      </trkpt>
      <trkpt lat="44.65837" lon="5.70808">
        <ele>1110.2</ele>
        <time>2023-05-18T07:32:39Z</time>
      </trkpt>
      <trkpt lat="44.65837" lon="5.70808">
        <ele>1109.6</ele>
        <time>2023-05-18T07:32:40Z</time>
      </trkpt>
      <trkpt lat="44.65835" lon="5.70808">
        <ele>1108.6</ele>
        <time>2023-05-18T07:32:41Z</time>
      </trkpt>
      <trkpt lat="44.65835" lon="5.70809">
        <ele>1106.4</ele>
        <time>2023-05-18T07:32:42Z</time>
      </trkpt>
      <trkpt lat="44.65835" lon="5.70809">
        <ele>1105.6</ele>
        <time>2023-05-18T07:32:43Z</time>
      </trkpt>
      <trkpt lat="44.65834" lon="5.7081">
        <ele>1104.2</ele>
        <time>2023-05-18T07:32:44Z</time>
      </trkpt>
      <trkpt lat="44.65834" lon="5.7081">
        <ele>1102.8</ele>
        <time>2023-05-18T07:32:46Z</time>
      </trkpt>
      <trkpt lat="44.65834" lon="5.7081">
        <ele>1102.6</ele>
        <time>2023-05-18T07:32:47Z</time>
      </trkpt>
      <trkpt lat="44.65834" lon="5.7081">
        <ele>1101.8</ele>
        <time>2023-05-18T07:32:49Z</time>
      </trkpt>
      <trkpt lat="44.65834" lon="5.7081">
        <ele>1100.8</ele>
        <time>2023-05-18T07:32:53Z</time>
      </trkpt>
      <trkpt lat="44.65834" lon="5.70811">
        <ele>1100.6</ele>
        <time>2023-05-18T07:33:17Z</time>
      </trkpt>
      <trkpt lat="44.65829" lon="5.70818">
        <ele>1100.4</ele>
        <time>2023-05-18T07:33:20Z</time>
      </trkpt>
      <trkpt lat="44.65828" lon="5.7082">
        <ele>1100.2</ele>
        <time>2023-05-18T07:33:21Z</time>
      </trkpt>
      <trkpt lat="44.65827" lon="5.70823">
        <ele>1099.6</ele>
        <time>2023-05-18T07:33:22Z</time>
      </trkpt>
      <trkpt lat="44.65826" lon="5.70825">
        <ele>1099.4</ele>
        <time>2023-05-18T07:33:23Z</time>
      </trkpt>
      <trkpt lat="44.65817" lon="5.70836">
        <ele>1097.4</ele>
        <time>2023-05-18T07:33:26Z</time>
      </trkpt>
      <trkpt lat="44.65815" lon="5.70839">
        <ele>1096.8</ele>
        <time>2023-05-18T07:33:27Z</time>
      </trkpt>
      <trkpt lat="44.65811" lon="5.70847">
        <ele>1095.6</ele>
        <time>2023-05-18T07:33:29Z</time>
      </trkpt>
      <trkpt lat="44.6581" lon="5.70851">
        <ele>1095.2</ele>
        <time>2023-05-18T07:33:30Z</time>
      </trkpt>
      <trkpt lat="44.65808" lon="5.70855">
        <ele>1094</ele>
        <time>2023-05-18T07:33:31Z</time>
      </trkpt>
      <trkpt lat="44.65806" lon="5.70859">
        <ele>1093.6</ele>
        <time>2023-05-18T07:33:32Z</time>
      </trkpt>
      <trkpt lat="44.65803" lon="5.70861">
        <ele>1092.6</ele>
        <time>2023-05-18T07:33:33Z</time>
      </trkpt>
      <trkpt lat="44.65803" lon="5.70864">
        <ele>1092.2</ele>
        <time>2023-05-18T07:33:34Z</time>
      </trkpt>
      <trkpt lat="44.65803" lon="5.70864">
        <ele>1091.4</ele>
        <time>2023-05-18T07:33:35Z</time>
      </trkpt>
      <trkpt lat="44.65802" lon="5.70865">
        <ele>1090.2</ele>
        <time>2023-05-18T07:33:36Z</time>
      </trkpt>
      <trkpt lat="44.65802" lon="5.70865">
        <ele>1089.6</ele>
        <time>2023-05-18T07:33:37Z</time>
      </trkpt>
      <trkpt lat="44.65803" lon="5.70865">
        <ele>1088.8</ele>
        <time>2023-05-18T07:33:38Z</time>
      </trkpt>
      <trkpt lat="44.65801" lon="5.70868">
        <ele>1087.6</ele>
        <time>2023-05-18T07:33:41Z</time>
      </trkpt>
      <trkpt lat="44.65802" lon="5.7087">
        <ele>1086.6</ele>
        <time>2023-05-18T07:33:44Z</time>
      </trkpt>
      <trkpt lat="44.65802" lon="5.7087">
        <ele>1086.4</ele>
        <time>2023-05-18T07:33:45Z</time>
      </trkpt>
      <trkpt lat="44.65805" lon="5.70868">
        <ele>1086</ele>
        <time>2023-05-18T07:33:50Z</time>
      </trkpt>
      <trkpt lat="44.65806" lon="5.70868">
        <ele>1085.8</ele>
        <time>2023-05-18T07:33:51Z</time>
      </trkpt>
      <trkpt lat="44.65806" lon="5.70867">
        <ele>1085.8</ele>
        <time>2023-05-18T07:33:52Z</time>
      </trkpt>
      <trkpt lat="44.65807" lon="5.70866">
        <ele>1085.8</ele>
        <time>2023-05-18T07:33:53Z</time>
      </trkpt>
      <trkpt lat="44.65808" lon="5.70866">
        <ele>1085.6</ele>
        <time>2023-05-18T07:33:54Z</time>
      </trkpt>
      <trkpt lat="44.6581" lon="5.70866">
        <ele>1085.6</ele>
        <time>2023-05-18T07:33:55Z</time>
      </trkpt>
      <trkpt lat="44.65811" lon="5.70866">
        <ele>1085.2</ele>
        <time>2023-05-18T07:33:56Z</time>
      </trkpt>
      <trkpt lat="44.65812" lon="5.70865">
        <ele>1085</ele>
        <time>2023-05-18T07:33:57Z</time>
      </trkpt>
      <trkpt lat="44.65816" lon="5.70865">
        <ele>1084.2</ele>
        <time>2023-05-18T07:34:00Z</time>
      </trkpt>
      <trkpt lat="44.65816" lon="5.70865">
        <ele>1083.8</ele>
        <time>2023-05-18T07:34:01Z</time>
      </trkpt>
      <trkpt lat="44.65817" lon="5.70866">
        <ele>1082.8</ele>
        <time>2023-05-18T07:34:02Z</time>
      </trkpt>
      <trkpt lat="44.65817" lon="5.70866">
        <ele>1081.4</ele>
        <time>2023-05-18T07:34:04Z</time>
      </trkpt>
      <trkpt lat="44.65817" lon="5.70866">
        <ele>1080.8</ele>
        <time>2023-05-18T07:34:05Z</time>
      </trkpt>
      <trkpt lat="44.65818" lon="5.70866">
        <ele>1080.2</ele>
        <time>2023-05-18T07:34:07Z</time>
      </trkpt>
      <trkpt lat="44.65819" lon="5.70867">
        <ele>1079.8</ele>
        <time>2023-05-18T07:34:10Z</time>
      </trkpt>
      <trkpt lat="44.65819" lon="5.70867">
        <ele>1079.8</ele>
        <time>2023-05-18T07:34:11Z</time>
      </trkpt>
      <trkpt lat="44.65818" lon="5.70868">
        <ele>1079.6</ele>
        <time>2023-05-18T07:34:15Z</time>
      </trkpt>
      <trkpt lat="44.65818" lon="5.70869">
        <ele>1079.6</ele>
        <time>2023-05-18T07:34:16Z</time>
      </trkpt>
      <trkpt lat="44.65817" lon="5.70871">
        <ele>1079.4</ele>
        <time>2023-05-18T07:34:17Z</time>
      </trkpt>
      <trkpt lat="44.65815" lon="5.7088">
        <ele>1078.8</ele>
        <time>2023-05-18T07:34:21Z</time>
      </trkpt>
      <trkpt lat="44.65813" lon="5.7089">
        <ele>1077.8</ele>
        <time>2023-05-18T07:34:24Z</time>
      </trkpt>
      <trkpt lat="44.65812" lon="5.70892">
        <ele>1077.2</ele>
        <time>2023-05-18T07:34:25Z</time>
      </trkpt>
      <trkpt lat="44.65811" lon="5.70896">
        <ele>1076.8</ele>
        <time>2023-05-18T07:34:26Z</time>
      </trkpt>
      <trkpt lat="44.65811" lon="5.70898">
        <ele>1075.6</ele>
        <time>2023-05-18T07:34:27Z</time>
      </trkpt>
      <trkpt lat="44.6581" lon="5.709">
        <ele>1074.6</ele>
        <time>2023-05-18T07:34:28Z</time>
      </trkpt>
      <trkpt lat="44.65808" lon="5.70906">
        <ele>1073.4</ele>
        <time>2023-05-18T07:34:29Z</time>
      </trkpt>
      <trkpt lat="44.65805" lon="5.70912">
        <ele>1072.2</ele>
        <time>2023-05-18T07:34:30Z</time>
      </trkpt>
      <trkpt lat="44.65799" lon="5.70918">
        <ele>1070</ele>
        <time>2023-05-18T07:34:32Z</time>
      </trkpt>
      <trkpt lat="44.65797" lon="5.70921">
        <ele>1069.4</ele>
        <time>2023-05-18T07:34:33Z</time>
      </trkpt>
      <trkpt lat="44.65794" lon="5.70924">
        <ele>1068</ele>
        <time>2023-05-18T07:34:34Z</time>
      </trkpt>
      <trkpt lat="44.65792" lon="5.70927">
        <ele>1067.6</ele>
        <time>2023-05-18T07:34:35Z</time>
      </trkpt>
      <trkpt lat="44.6579" lon="5.70931">
        <ele>1066.4</ele>
        <time>2023-05-18T07:34:36Z</time>
      </trkpt>
      <trkpt lat="44.65789" lon="5.70935">
        <ele>1066</ele>
        <time>2023-05-18T07:34:37Z</time>
      </trkpt>
      <trkpt lat="44.65788" lon="5.7094">
        <ele>1065.2</ele>
        <time>2023-05-18T07:34:38Z</time>
      </trkpt>
      <trkpt lat="44.65787" lon="5.70944">
        <ele>1064</ele>
        <time>2023-05-18T07:34:39Z</time>
      </trkpt>
      <trkpt lat="44.65782" lon="5.70952">
        <ele>1062.2</ele>
        <time>2023-05-18T07:34:41Z</time>
      </trkpt>
      <trkpt lat="44.6578" lon="5.70958">
        <ele>1061.2</ele>
        <time>2023-05-18T07:34:42Z</time>
      </trkpt>
      <trkpt lat="44.65776" lon="5.70962">
        <ele>1060</ele>
        <time>2023-05-18T07:34:43Z</time>
      </trkpt>
      <trkpt lat="44.65772" lon="5.70968">
        <ele>1059.6</ele>
        <time>2023-05-18T07:34:44Z</time>
      </trkpt>
      <trkpt lat="44.65771" lon="5.70971">
        <ele>1058.6</ele>
        <time>2023-05-18T07:34:45Z</time>
      </trkpt>
      <trkpt lat="44.65771" lon="5.70974">
        <ele>1058.2</ele>
        <time>2023-05-18T07:34:46Z</time>
      </trkpt>
      <trkpt lat="44.65772" lon="5.70976">
        <ele>1056.8</ele>
        <time>2023-05-18T07:34:47Z</time>
      </trkpt>
      <trkpt lat="44.65771" lon="5.70979">
        <ele>1055.4</ele>
        <time>2023-05-18T07:34:48Z</time>
      </trkpt>
      <trkpt lat="44.65769" lon="5.70981">
        <ele>1055</ele>
        <time>2023-05-18T07:34:49Z</time>
      </trkpt>
      <trkpt lat="44.65769" lon="5.70987">
        <ele>1053.8</ele>
        <time>2023-05-18T07:34:50Z</time>
      </trkpt>
      <trkpt lat="44.65768" lon="5.7099">
        <ele>1053.2</ele>
        <time>2023-05-18T07:34:51Z</time>
      </trkpt>
      <trkpt lat="44.65768" lon="5.70992">
        <ele>1052.2</ele>
        <time>2023-05-18T07:34:52Z</time>
      </trkpt>
      <trkpt lat="44.65767" lon="5.70994">
        <ele>1051.6</ele>
        <time>2023-05-18T07:34:53Z</time>
      </trkpt>
      <trkpt lat="44.65762" lon="5.70996">
        <ele>1050.4</ele>
        <time>2023-05-18T07:34:54Z</time>
      </trkpt>
      <trkpt lat="44.6576" lon="5.71">
        <ele>1049.8</ele>
        <time>2023-05-18T07:34:55Z</time>
      </trkpt>
      <trkpt lat="44.65759" lon="5.71007">
        <ele>1048.6</ele>
        <time>2023-05-18T07:34:56Z</time>
      </trkpt>
      <trkpt lat="44.6576" lon="5.71009">
        <ele>1047.6</ele>
        <time>2023-05-18T07:34:57Z</time>
      </trkpt>
      <trkpt lat="44.65761" lon="5.71013">
        <ele>1047.2</ele>
        <time>2023-05-18T07:34:58Z</time>
      </trkpt>
      <trkpt lat="44.6576" lon="5.71017">
        <ele>1046.2</ele>
        <time>2023-05-18T07:34:59Z</time>
      </trkpt>
      <trkpt lat="44.65758" lon="5.71019">
        <ele>1045.8</ele>
        <time>2023-05-18T07:35:00Z</time>
      </trkpt>
      <trkpt lat="44.65754" lon="5.71019">
        <ele>1044.8</ele>
        <time>2023-05-18T07:35:01Z</time>
      </trkpt>
      <trkpt lat="44.65754" lon="5.71021">
        <ele>1044.2</ele>
        <time>2023-05-18T07:35:02Z</time>
      </trkpt>
      <trkpt lat="44.65755" lon="5.71024">
        <ele>1043.4</ele>
        <time>2023-05-18T07:35:03Z</time>
      </trkpt>
      <trkpt lat="44.65754" lon="5.71026">
        <ele>1043</ele>
        <time>2023-05-18T07:35:04Z</time>
      </trkpt>
      <trkpt lat="44.65754" lon="5.71029">
        <ele>1041.4</ele>
        <time>2023-05-18T07:35:05Z</time>
      </trkpt>
      <trkpt lat="44.65753" lon="5.71031">
        <ele>1040</ele>
        <time>2023-05-18T07:35:06Z</time>
      </trkpt>
      <trkpt lat="44.6575" lon="5.71036">
        <ele>1038.8</ele>
        <time>2023-05-18T07:35:08Z</time>
      </trkpt>
      <trkpt lat="44.65749" lon="5.71038">
        <ele>1038.4</ele>
        <time>2023-05-18T07:35:09Z</time>
      </trkpt>
      <trkpt lat="44.65749" lon="5.7104">
        <ele>1037.2</ele>
        <time>2023-05-18T07:35:10Z</time>
      </trkpt>
      <trkpt lat="44.65749" lon="5.71042">
        <ele>1036.6</ele>
        <time>2023-05-18T07:35:11Z</time>
      </trkpt>
      <trkpt lat="44.65748" lon="5.71043">
        <ele>1035.8</ele>
        <time>2023-05-18T07:35:12Z</time>
      </trkpt>
      <trkpt lat="44.65747" lon="5.71046">
        <ele>1035.4</ele>
        <time>2023-05-18T07:35:13Z</time>
      </trkpt>
      <trkpt lat="44.65746" lon="5.71047">
        <ele>1034.2</ele>
        <time>2023-05-18T07:35:14Z</time>
      </trkpt>
      <trkpt lat="44.65745" lon="5.7105">
        <ele>1033.4</ele>
        <time>2023-05-18T07:35:15Z</time>
      </trkpt>
      <trkpt lat="44.65744" lon="5.71052">
        <ele>1032.6</ele>
        <time>2023-05-18T07:35:16Z</time>
      </trkpt>
      <trkpt lat="44.65744" lon="5.71054">
        <ele>1031.8</ele>
        <time>2023-05-18T07:35:17Z</time>
      </trkpt>
      <trkpt lat="44.65744" lon="5.71056">
        <ele>1031.2</ele>
        <time>2023-05-18T07:35:18Z</time>
      </trkpt>
      <trkpt lat="44.65743" lon="5.71059">
        <ele>1030</ele>
        <time>2023-05-18T07:35:19Z</time>
      </trkpt>
      <trkpt lat="44.65742" lon="5.71066">
        <ele>1028.4</ele>
        <time>2023-05-18T07:35:21Z</time>
      </trkpt>
      <trkpt lat="44.65742" lon="5.71073">
        <ele>1026.8</ele>
        <time>2023-05-18T07:35:23Z</time>
      </trkpt>
      <trkpt lat="44.65742" lon="5.71075">
        <ele>1026</ele>
        <time>2023-05-18T07:35:24Z</time>
      </trkpt>
      <trkpt lat="44.65743" lon="5.71076">
        <ele>1025.2</ele>
        <time>2023-05-18T07:35:25Z</time>
      </trkpt>
      <trkpt lat="44.65743" lon="5.71077">
        <ele>1024</ele>
        <time>2023-05-18T07:35:26Z</time>
      </trkpt>
      <trkpt lat="44.65742" lon="5.71078">
        <ele>1023.6</ele>
        <time>2023-05-18T07:35:27Z</time>
      </trkpt>
      <trkpt lat="44.65742" lon="5.71079">
        <ele>1023</ele>
        <time>2023-05-18T07:35:28Z</time>
      </trkpt>
      <trkpt lat="44.65742" lon="5.71081">
        <ele>1022.8</ele>
        <time>2023-05-18T07:35:29Z</time>
      </trkpt>
      <trkpt lat="44.65741" lon="5.71082">
        <ele>1022.6</ele>
        <time>2023-05-18T07:35:31Z</time>
      </trkpt>
      <trkpt lat="44.6574" lon="5.71083">
        <ele>1022.4</ele>
        <time>2023-05-18T07:35:32Z</time>
      </trkpt>
      <trkpt lat="44.65739" lon="5.71084">
        <ele>1022.4</ele>
        <time>2023-05-18T07:35:33Z</time>
      </trkpt>
      <trkpt lat="44.65739" lon="5.71085">
        <ele>1022.4</ele>
        <time>2023-05-18T07:35:34Z</time>
      </trkpt>
      <trkpt lat="44.65739" lon="5.71086">
        <ele>1022.4</ele>
        <time>2023-05-18T07:35:35Z</time>
      </trkpt>
      <trkpt lat="44.65738" lon="5.71086">
        <ele>1022.4</ele>
        <time>2023-05-18T07:35:37Z</time>
      </trkpt>
      <trkpt lat="44.6574" lon="5.71089">
        <ele>1022.4</ele>
        <time>2023-05-18T07:35:42Z</time>
      </trkpt>
      <trkpt lat="44.65741" lon="5.71092">
        <ele>1022.4</ele>
        <time>2023-05-18T07:35:46Z</time>
      </trkpt>
      <trkpt lat="44.65742" lon="5.71095">
        <ele>1022.4</ele>
        <time>2023-05-18T07:35:48Z</time>
      </trkpt>
      <trkpt lat="44.65742" lon="5.71096">
        <ele>1022.4</ele>
        <time>2023-05-18T07:35:49Z</time>
      </trkpt>
      <trkpt lat="44.65743" lon="5.71097">
        <ele>1022.6</ele>
        <time>2023-05-18T07:35:50Z</time>
      </trkpt>
      <trkpt lat="44.65743" lon="5.71097">
        <ele>1022.6</ele>
        <time>2023-05-18T07:35:51Z</time>
      </trkpt>
      <trkpt lat="44.65742" lon="5.71098">
        <ele>1022.6</ele>
        <time>2023-05-18T07:35:52Z</time>
      </trkpt>
      <trkpt lat="44.65742" lon="5.71098">
        <ele>1022.6</ele>
        <time>2023-05-18T07:35:53Z</time>
      </trkpt>
      <trkpt lat="44.65742" lon="5.71099">
        <ele>1022.6</ele>
        <time>2023-05-18T07:35:54Z</time>
      </trkpt>
      <trkpt lat="44.65743" lon="5.71101">
        <ele>1022.6</ele>
        <time>2023-05-18T07:35:59Z</time>
      </trkpt>
      <trkpt lat="44.65745" lon="5.71103">
        <ele>1022.6</ele>
        <time>2023-05-18T07:36:00Z</time>
      </trkpt>
      <trkpt lat="44.65745" lon="5.71104">
        <ele>1022.6</ele>
        <time>2023-05-18T07:36:01Z</time>
      </trkpt>
      <trkpt lat="44.65747" lon="5.71109">
        <ele>1022.8</ele>
        <time>2023-05-18T07:36:04Z</time>
      </trkpt>
      <trkpt lat="44.65748" lon="5.7111">
        <ele>1022.8</ele>
        <time>2023-05-18T07:36:05Z</time>
      </trkpt>
      <trkpt lat="44.65749" lon="5.71112">
        <ele>1022.8</ele>
        <time>2023-05-18T07:36:06Z</time>
      </trkpt>
      <trkpt lat="44.65749" lon="5.71115">
        <ele>1023</ele>
        <time>2023-05-18T07:36:08Z</time>
      </trkpt>
      <trkpt lat="44.65755" lon="5.71134">
        <ele>1023.2</ele>
        <time>2023-05-18T07:36:18Z</time>
      </trkpt>
      <trkpt lat="44.65758" lon="5.71136">
        <ele>1023.2</ele>
        <time>2023-05-18T07:36:21Z</time>
      </trkpt>
      <trkpt lat="44.6576" lon="5.71137">
        <ele>1023.2</ele>
        <time>2023-05-18T07:36:23Z</time>
      </trkpt>
      <trkpt lat="44.65761" lon="5.71138">
        <ele>1023.2</ele>
        <time>2023-05-18T07:36:24Z</time>
      </trkpt>
      <trkpt lat="44.65762" lon="5.71138">
        <ele>1023.2</ele>
        <time>2023-05-18T07:36:25Z</time>
      </trkpt>
      <trkpt lat="44.65762" lon="5.71138">
        <ele>1023.2</ele>
        <time>2023-05-18T07:36:26Z</time>
      </trkpt>
      <trkpt lat="44.65762" lon="5.71138">
        <ele>1023.2</ele>
        <time>2023-05-18T07:36:27Z</time>
      </trkpt>
      <trkpt lat="44.65762" lon="5.71139">
        <ele>1023.2</ele>
        <time>2023-05-18T07:36:28Z</time>
      </trkpt>
      <trkpt lat="44.65762" lon="5.71139">
        <ele>1023.2</ele>
        <time>2023-05-18T07:36:29Z</time>
      </trkpt>
      <trkpt lat="44.65762" lon="5.7114">
        <ele>1023.2</ele>
        <time>2023-05-18T07:36:30Z</time>
      </trkpt>
      <trkpt lat="44.65761" lon="5.71142">
        <ele>1023.2</ele>
        <time>2023-05-18T07:36:32Z</time>
      </trkpt>
      <trkpt lat="44.6576" lon="5.71145">
        <ele>1023.4</ele>
        <time>2023-05-18T07:36:34Z</time>
      </trkpt>
      <trkpt lat="44.65759" lon="5.71147">
        <ele>1023.4</ele>
        <time>2023-05-18T07:36:35Z</time>
      </trkpt>
      <trkpt lat="44.6576" lon="5.71149">
        <ele>1023.4</ele>
        <time>2023-05-18T07:36:36Z</time>
      </trkpt>
      <trkpt lat="44.6576" lon="5.71151">
        <ele>1023.4</ele>
        <time>2023-05-18T07:36:37Z</time>
      </trkpt>
      <trkpt lat="44.6576" lon="5.71152">
        <ele>1023.6</ele>
        <time>2023-05-18T07:36:38Z</time>
      </trkpt>
      <trkpt lat="44.6576" lon="5.71154">
        <ele>1023.8</ele>
        <time>2023-05-18T07:36:39Z</time>
      </trkpt>
      <trkpt lat="44.65761" lon="5.71155">
        <ele>1023.8</ele>
        <time>2023-05-18T07:36:40Z</time>
      </trkpt>
      <trkpt lat="44.65761" lon="5.71156">
        <ele>1023.8</ele>
        <time>2023-05-18T07:36:41Z</time>
      </trkpt>
      <trkpt lat="44.65764" lon="5.71166">
        <ele>1023.8</ele>
        <time>2023-05-18T07:36:46Z</time>
      </trkpt>
      <trkpt lat="44.65767" lon="5.71176">
        <ele>1023.8</ele>
        <time>2023-05-18T07:36:51Z</time>
      </trkpt>
      <trkpt lat="44.65768" lon="5.71179">
        <ele>1023.8</ele>
        <time>2023-05-18T07:36:53Z</time>
      </trkpt>
      <trkpt lat="44.65768" lon="5.7118">
        <ele>1024</ele>
        <time>2023-05-18T07:36:54Z</time>
      </trkpt>
      <trkpt lat="44.65769" lon="5.7118">
        <ele>1024</ele>
        <time>2023-05-18T07:36:56Z</time>
      </trkpt>
      <trkpt lat="44.65769" lon="5.7118">
        <ele>1024.2</ele>
        <time>2023-05-18T07:37:00Z</time>
      </trkpt>
      <trkpt lat="44.6577" lon="5.71183">
        <ele>1024.2</ele>
        <time>2023-05-18T07:37:04Z</time>
      </trkpt>
      <trkpt lat="44.65772" lon="5.71184">
        <ele>1024.2</ele>
        <time>2023-05-18T07:37:06Z</time>
      </trkpt>
      <trkpt lat="44.65773" lon="5.71185">
        <ele>1024.2</ele>
        <time>2023-05-18T07:37:07Z</time>
      </trkpt>
      <trkpt lat="44.65774" lon="5.71187">
        <ele>1024.2</ele>
        <time>2023-05-18T07:37:09Z</time>
      </trkpt>
      <trkpt lat="44.65775" lon="5.71188">
        <ele>1024.2</ele>
        <time>2023-05-18T07:37:10Z</time>
      </trkpt>
      <trkpt lat="44.65777" lon="5.7119">
        <ele>1024.2</ele>
        <time>2023-05-18T07:37:12Z</time>
      </trkpt>
      <trkpt lat="44.65778" lon="5.71192">
        <ele>1024.2</ele>
        <time>2023-05-18T07:37:13Z</time>
      </trkpt>
      <trkpt lat="44.65779" lon="5.71194">
        <ele>1024.4</ele>
        <time>2023-05-18T07:37:14Z</time>
      </trkpt>
      <trkpt lat="44.65786" lon="5.71202">
        <ele>1024.8</ele>
        <time>2023-05-18T07:37:21Z</time>
      </trkpt>
      <trkpt lat="44.65787" lon="5.71204">
        <ele>1024.8</ele>
        <time>2023-05-18T07:37:22Z</time>
      </trkpt>
      <trkpt lat="44.65788" lon="5.71207">
        <ele>1025</ele>
        <time>2023-05-18T07:37:24Z</time>
      </trkpt>
      <trkpt lat="44.65788" lon="5.71209">
        <ele>1025</ele>
        <time>2023-05-18T07:37:25Z</time>
      </trkpt>
      <trkpt lat="44.65789" lon="5.7121">
        <ele>1025</ele>
        <time>2023-05-18T07:37:26Z</time>
      </trkpt>
      <trkpt lat="44.65789" lon="5.71212">
        <ele>1025.2</ele>
        <time>2023-05-18T07:37:27Z</time>
      </trkpt>
      <trkpt lat="44.65789" lon="5.71213">
        <ele>1025.2</ele>
        <time>2023-05-18T07:37:28Z</time>
      </trkpt>
      <trkpt lat="44.65788" lon="5.71214">
        <ele>1025.2</ele>
        <time>2023-05-18T07:37:29Z</time>
      </trkpt>
      <trkpt lat="44.65788" lon="5.71217">
        <ele>1025.2</ele>
        <time>2023-05-18T07:37:30Z</time>
      </trkpt>
      <trkpt lat="44.65787" lon="5.7122">
        <ele>1025.2</ele>
        <time>2023-05-18T07:37:31Z</time>
      </trkpt>
      <trkpt lat="44.65786" lon="5.71224">
        <ele>1025.4</ele>
        <time>2023-05-18T07:37:32Z</time>
      </trkpt>
      <trkpt lat="44.65785" lon="5.71227">
        <ele>1025.4</ele>
        <time>2023-05-18T07:37:33Z</time>
      </trkpt>
      <trkpt lat="44.65784" lon="5.7123">
        <ele>1025.4</ele>
        <time>2023-05-18T07:37:34Z</time>
      </trkpt>
      <trkpt lat="44.65783" lon="5.71232">
        <ele>1025.4</ele>
        <time>2023-05-18T07:37:35Z</time>
      </trkpt>
      <trkpt lat="44.65782" lon="5.71234">
        <ele>1025.4</ele>
        <time>2023-05-18T07:37:36Z</time>
      </trkpt>
      <trkpt lat="44.6578" lon="5.71235">
        <ele>1025.2</ele>
        <time>2023-05-18T07:37:37Z</time>
      </trkpt>
      <trkpt lat="44.65778" lon="5.71236">
        <ele>1025.2</ele>
        <time>2023-05-18T07:37:38Z</time>
      </trkpt>
      <trkpt lat="44.65776" lon="5.71237">
        <ele>1025.2</ele>
        <time>2023-05-18T07:37:39Z</time>
      </trkpt>
      <trkpt lat="44.65775" lon="5.71239">
        <ele>1025.2</ele>
        <time>2023-05-18T07:37:40Z</time>
      </trkpt>
      <trkpt lat="44.65774" lon="5.71241">
        <ele>1025</ele>
        <time>2023-05-18T07:37:41Z</time>
      </trkpt>
      <trkpt lat="44.65773" lon="5.71242">
        <ele>1025</ele>
        <time>2023-05-18T07:37:42Z</time>
      </trkpt>
      <trkpt lat="44.65772" lon="5.71244">
        <ele>1025</ele>
        <time>2023-05-18T07:37:43Z</time>
      </trkpt>
      <trkpt lat="44.65771" lon="5.71246">
        <ele>1025</ele>
        <time>2023-05-18T07:37:44Z</time>
      </trkpt>
      <trkpt lat="44.65771" lon="5.71247">
        <ele>1025</ele>
        <time>2023-05-18T07:37:45Z</time>
      </trkpt>
      <trkpt lat="44.65771" lon="5.7125">
        <ele>1025</ele>
        <time>2023-05-18T07:37:46Z</time>
      </trkpt>
      <trkpt lat="44.6577" lon="5.71252">
        <ele>1025</ele>
        <time>2023-05-18T07:37:47Z</time>
      </trkpt>
      <trkpt lat="44.65769" lon="5.71254">
        <ele>1025</ele>
        <time>2023-05-18T07:37:48Z</time>
      </trkpt>
      <trkpt lat="44.65768" lon="5.71256">
        <ele>1025</ele>
        <time>2023-05-18T07:37:49Z</time>
      </trkpt>
      <trkpt lat="44.65768" lon="5.71257">
        <ele>1025</ele>
        <time>2023-05-18T07:37:50Z</time>
      </trkpt>
      <trkpt lat="44.65768" lon="5.7126">
        <ele>1025</ele>
        <time>2023-05-18T07:37:51Z</time>
      </trkpt>
      <trkpt lat="44.65768" lon="5.71264">
        <ele>1025</ele>
        <time>2023-05-18T07:37:53Z</time>
      </trkpt>
      <trkpt lat="44.6577" lon="5.71272">
        <ele>1025.2</ele>
        <time>2023-05-18T07:37:56Z</time>
      </trkpt>
      <trkpt lat="44.65771" lon="5.71275">
        <ele>1025.4</ele>
        <time>2023-05-18T07:37:57Z</time>
      </trkpt>
      <trkpt lat="44.65774" lon="5.71281">
        <ele>1025.4</ele>
        <time>2023-05-18T07:38:00Z</time>
      </trkpt>
      <trkpt lat="44.65779" lon="5.71296">
        <ele>1025.8</ele>
        <time>2023-05-18T07:38:07Z</time>
      </trkpt>
      <trkpt lat="44.6578" lon="5.71298">
        <ele>1025.8</ele>
        <time>2023-05-18T07:38:08Z</time>
      </trkpt>
      <trkpt lat="44.65781" lon="5.71302">
        <ele>1026</ele>
        <time>2023-05-18T07:38:10Z</time>
      </trkpt>
      <trkpt lat="44.65782" lon="5.71304">
        <ele>1026</ele>
        <time>2023-05-18T07:38:11Z</time>
      </trkpt>
      <trkpt lat="44.65782" lon="5.71306">
        <ele>1026.2</ele>
        <time>2023-05-18T07:38:12Z</time>
      </trkpt>
      <trkpt lat="44.65782" lon="5.71308">
        <ele>1026.4</ele>
        <time>2023-05-18T07:38:13Z</time>
      </trkpt>
      <trkpt lat="44.65782" lon="5.71311">
        <ele>1026.4</ele>
        <time>2023-05-18T07:38:14Z</time>
      </trkpt>
      <trkpt lat="44.65782" lon="5.71313">
        <ele>1026.4</ele>
        <time>2023-05-18T07:38:15Z</time>
      </trkpt>
      <trkpt lat="44.65782" lon="5.71314">
        <ele>1026.6</ele>
        <time>2023-05-18T07:38:16Z</time>
      </trkpt>
      <trkpt lat="44.65782" lon="5.71316">
        <ele>1026.6</ele>
        <time>2023-05-18T07:38:17Z</time>
      </trkpt>
      <trkpt lat="44.65782" lon="5.71318">
        <ele>1026.6</ele>
        <time>2023-05-18T07:38:18Z</time>
      </trkpt>
      <trkpt lat="44.65783" lon="5.71322">
        <ele>1026.8</ele>
        <time>2023-05-18T07:38:20Z</time>
      </trkpt>
      <trkpt lat="44.65784" lon="5.71326">
        <ele>1026.8</ele>
        <time>2023-05-18T07:38:22Z</time>
      </trkpt>
      <trkpt lat="44.65785" lon="5.71328">
        <ele>1026.8</ele>
        <time>2023-05-18T07:38:23Z</time>
      </trkpt>
      <trkpt lat="44.65785" lon="5.71331">
        <ele>1027</ele>
        <time>2023-05-18T07:38:24Z</time>
      </trkpt>
      <trkpt lat="44.65789" lon="5.71345">
        <ele>1027.2</ele>
        <time>2023-05-18T07:38:30Z</time>
      </trkpt>
      <trkpt lat="44.65795" lon="5.7136">
        <ele>1027.4</ele>
        <time>2023-05-18T07:38:37Z</time>
      </trkpt>
      <trkpt lat="44.65796" lon="5.71361">
        <ele>1027.4</ele>
        <time>2023-05-18T07:38:38Z</time>
      </trkpt>
      <trkpt lat="44.65797" lon="5.71362">
        <ele>1027.4</ele>
        <time>2023-05-18T07:38:39Z</time>
      </trkpt>
      <trkpt lat="44.65797" lon="5.71364">
        <ele>1027.8</ele>
        <time>2023-05-18T07:38:40Z</time>
      </trkpt>
      <trkpt lat="44.65801" lon="5.71368">
        <ele>1028</ele>
        <time>2023-05-18T07:38:43Z</time>
      </trkpt>
      <trkpt lat="44.65802" lon="5.71369">
        <ele>1028</ele>
        <time>2023-05-18T07:38:44Z</time>
      </trkpt>
      <trkpt lat="44.65803" lon="5.71371">
        <ele>1028.2</ele>
        <time>2023-05-18T07:38:45Z</time>
      </trkpt>
      <trkpt lat="44.65809" lon="5.71374">
        <ele>1028.2</ele>
        <time>2023-05-18T07:38:48Z</time>
      </trkpt>
      <trkpt lat="44.65811" lon="5.71375">
        <ele>1028.2</ele>
        <time>2023-05-18T07:38:49Z</time>
      </trkpt>
      <trkpt lat="44.65813" lon="5.71375">
        <ele>1028.2</ele>
        <time>2023-05-18T07:38:50Z</time>
      </trkpt>
      <trkpt lat="44.65815" lon="5.71375">
        <ele>1028.2</ele>
        <time>2023-05-18T07:38:51Z</time>
      </trkpt>
      <trkpt lat="44.65821" lon="5.71377">
        <ele>1028.2</ele>
        <time>2023-05-18T07:38:54Z</time>
      </trkpt>
      <trkpt lat="44.65822" lon="5.71377">
        <ele>1028.2</ele>
        <time>2023-05-18T07:38:55Z</time>
      </trkpt>
      <trkpt lat="44.65823" lon="5.71378">
        <ele>1028.2</ele>
        <time>2023-05-18T07:38:56Z</time>
      </trkpt>
      <trkpt lat="44.65824" lon="5.71378">
        <ele>1028.2</ele>
        <time>2023-05-18T07:38:57Z</time>
      </trkpt>
      <trkpt lat="44.65826" lon="5.71379">
        <ele>1028.4</ele>
        <time>2023-05-18T07:38:58Z</time>
      </trkpt>
      <trkpt lat="44.65829" lon="5.7138">
        <ele>1028.4</ele>
        <time>2023-05-18T07:39:00Z</time>
      </trkpt>
      <trkpt lat="44.65834" lon="5.71384">
        <ele>1028.4</ele>
        <time>2023-05-18T07:39:03Z</time>
      </trkpt>
      <trkpt lat="44.65835" lon="5.71385">
        <ele>1028.6</ele>
        <time>2023-05-18T07:39:04Z</time>
      </trkpt>
      <trkpt lat="44.65839" lon="5.71391">
        <ele>1028.8</ele>
        <time>2023-05-18T07:39:07Z</time>
      </trkpt>
      <trkpt lat="44.65848" lon="5.71404">
        <ele>1029.2</ele>
        <time>2023-05-18T07:39:14Z</time>
      </trkpt>
      <trkpt lat="44.65849" lon="5.71405">
        <ele>1029.2</ele>
        <time>2023-05-18T07:39:15Z</time>
      </trkpt>
      <trkpt lat="44.65852" lon="5.71406">
        <ele>1029.4</ele>
        <time>2023-05-18T07:39:17Z</time>
      </trkpt>
      <trkpt lat="44.65854" lon="5.71405">
        <ele>1029.4</ele>
        <time>2023-05-18T07:39:18Z</time>
      </trkpt>
      <trkpt lat="44.65856" lon="5.71405">
        <ele>1029.4</ele>
        <time>2023-05-18T07:39:19Z</time>
      </trkpt>
      <trkpt lat="44.65857" lon="5.71405">
        <ele>1029.4</ele>
        <time>2023-05-18T07:39:20Z</time>
      </trkpt>
      <trkpt lat="44.65859" lon="5.71405">
        <ele>1029.4</ele>
        <time>2023-05-18T07:39:21Z</time>
      </trkpt>
      <trkpt lat="44.6586" lon="5.71404">
        <ele>1029.6</ele>
        <time>2023-05-18T07:39:22Z</time>
      </trkpt>
      <trkpt lat="44.65862" lon="5.71404">
        <ele>1029.6</ele>
        <time>2023-05-18T07:39:23Z</time>
      </trkpt>
      <trkpt lat="44.65865" lon="5.71403">
        <ele>1029.6</ele>
        <time>2023-05-18T07:39:24Z</time>
      </trkpt>
      <trkpt lat="44.65871" lon="5.71405">
        <ele>1029.8</ele>
        <time>2023-05-18T07:39:27Z</time>
      </trkpt>
      <trkpt lat="44.65873" lon="5.71406">
        <ele>1029.8</ele>
        <time>2023-05-18T07:39:28Z</time>
      </trkpt>
      <trkpt lat="44.65874" lon="5.71406">
        <ele>1030</ele>
        <time>2023-05-18T07:39:29Z</time>
      </trkpt>
      <trkpt lat="44.65876" lon="5.71406">
        <ele>1030</ele>
        <time>2023-05-18T07:39:30Z</time>
      </trkpt>
      <trkpt lat="44.65877" lon="5.71407">
        <ele>1030</ele>
        <time>2023-05-18T07:39:31Z</time>
      </trkpt>
      <trkpt lat="44.65878" lon="5.71408">
        <ele>1030</ele>
        <time>2023-05-18T07:39:32Z</time>
      </trkpt>
      <trkpt lat="44.65879" lon="5.71409">
        <ele>1030.2</ele>
        <time>2023-05-18T07:39:33Z</time>
      </trkpt>
      <trkpt lat="44.6588" lon="5.71411">
        <ele>1030.2</ele>
        <time>2023-05-18T07:39:34Z</time>
      </trkpt>
      <trkpt lat="44.65882" lon="5.71414">
        <ele>1030.2</ele>
        <time>2023-05-18T07:39:35Z</time>
      </trkpt>
      <trkpt lat="44.65882" lon="5.71416">
        <ele>1030.2</ele>
        <time>2023-05-18T07:39:36Z</time>
      </trkpt>
      <trkpt lat="44.65884" lon="5.71418">
        <ele>1030.2</ele>
        <time>2023-05-18T07:39:37Z</time>
      </trkpt>
      <trkpt lat="44.65885" lon="5.7142">
        <ele>1030.6</ele>
        <time>2023-05-18T07:39:38Z</time>
      </trkpt>
      <trkpt lat="44.65887" lon="5.71425">
        <ele>1030.6</ele>
        <time>2023-05-18T07:39:40Z</time>
      </trkpt>
      <trkpt lat="44.65888" lon="5.71427">
        <ele>1030.8</ele>
        <time>2023-05-18T07:39:41Z</time>
      </trkpt>
      <trkpt lat="44.6589" lon="5.71433">
        <ele>1030.8</ele>
        <time>2023-05-18T07:39:44Z</time>
      </trkpt>
      <trkpt lat="44.65892" lon="5.71435">
        <ele>1031.2</ele>
        <time>2023-05-18T07:39:45Z</time>
      </trkpt>
      <trkpt lat="44.65899" lon="5.7145">
        <ele>1032</ele>
        <time>2023-05-18T07:39:52Z</time>
      </trkpt>
      <trkpt lat="44.65905" lon="5.71469">
        <ele>1032.2</ele>
        <time>2023-05-18T07:40:00Z</time>
      </trkpt>
      <trkpt lat="44.65906" lon="5.71477">
        <ele>1032.2</ele>
        <time>2023-05-18T07:40:03Z</time>
      </trkpt>
      <trkpt lat="44.65907" lon="5.71479">
        <ele>1032.2</ele>
        <time>2023-05-18T07:40:04Z</time>
      </trkpt>
      <trkpt lat="44.65908" lon="5.7148">
        <ele>1032.2</ele>
        <time>2023-05-18T07:40:05Z</time>
      </trkpt>
      <trkpt lat="44.65908" lon="5.71482">
        <ele>1032.2</ele>
        <time>2023-05-18T07:40:06Z</time>
      </trkpt>
      <trkpt lat="44.65909" lon="5.71483">
        <ele>1032.4</ele>
        <time>2023-05-18T07:40:07Z</time>
      </trkpt>
      <trkpt lat="44.6591" lon="5.71485">
        <ele>1032.4</ele>
        <time>2023-05-18T07:40:08Z</time>
      </trkpt>
      <trkpt lat="44.6591" lon="5.71488">
        <ele>1032.4</ele>
        <time>2023-05-18T07:40:09Z</time>
      </trkpt>
      <trkpt lat="44.65911" lon="5.7149">
        <ele>1032.4</ele>
        <time>2023-05-18T07:40:10Z</time>
      </trkpt>
      <trkpt lat="44.65913" lon="5.71492">
        <ele>1032.6</ele>
        <time>2023-05-18T07:40:11Z</time>
      </trkpt>
      <trkpt lat="44.65917" lon="5.71498">
        <ele>1032.8</ele>
        <time>2023-05-18T07:40:14Z</time>
      </trkpt>
      <trkpt lat="44.65918" lon="5.715">
        <ele>1032.8</ele>
        <time>2023-05-18T07:40:15Z</time>
      </trkpt>
      <trkpt lat="44.65919" lon="5.71502">
        <ele>1033</ele>
        <time>2023-05-18T07:40:16Z</time>
      </trkpt>
      <trkpt lat="44.6592" lon="5.71504">
        <ele>1033</ele>
        <time>2023-05-18T07:40:17Z</time>
      </trkpt>
      <trkpt lat="44.65922" lon="5.71506">
        <ele>1033</ele>
        <time>2023-05-18T07:40:18Z</time>
      </trkpt>
      <trkpt lat="44.65923" lon="5.71508">
        <ele>1033</ele>
        <time>2023-05-18T07:40:19Z</time>
      </trkpt>
      <trkpt lat="44.65925" lon="5.71515">
        <ele>1033.2</ele>
        <time>2023-05-18T07:40:22Z</time>
      </trkpt>
      <trkpt lat="44.65925" lon="5.71517">
        <ele>1033.2</ele>
        <time>2023-05-18T07:40:23Z</time>
      </trkpt>
      <trkpt lat="44.65932" lon="5.71535">
        <ele>1033.6</ele>
        <time>2023-05-18T07:40:30Z</time>
      </trkpt>
      <trkpt lat="44.65932" lon="5.71537">
        <ele>1033.8</ele>
        <time>2023-05-18T07:40:31Z</time>
      </trkpt>
      <trkpt lat="44.65933" lon="5.7155">
        <ele>1034</ele>
        <time>2023-05-18T07:40:36Z</time>
      </trkpt>
      <trkpt lat="44.65934" lon="5.71556">
        <ele>1034.2</ele>
        <time>2023-05-18T07:40:38Z</time>
      </trkpt>
      <trkpt lat="44.65935" lon="5.71558">
        <ele>1034.2</ele>
        <time>2023-05-18T07:40:39Z</time>
      </trkpt>
      <trkpt lat="44.65942" lon="5.71573">
        <ele>1034.4</ele>
        <time>2023-05-18T07:40:45Z</time>
      </trkpt>
      <trkpt lat="44.65947" lon="5.71588">
        <ele>1034.4</ele>
        <time>2023-05-18T07:40:50Z</time>
      </trkpt>
      <trkpt lat="44.65949" lon="5.71596">
        <ele>1034.4</ele>
        <time>2023-05-18T07:40:53Z</time>
      </trkpt>
      <trkpt lat="44.65949" lon="5.71599">
        <ele>1034.4</ele>
        <time>2023-05-18T07:40:54Z</time>
      </trkpt>
      <trkpt lat="44.6595" lon="5.71601">
        <ele>1034.6</ele>
        <time>2023-05-18T07:40:55Z</time>
      </trkpt>
      <trkpt lat="44.6595" lon="5.71604">
        <ele>1034.6</ele>
        <time>2023-05-18T07:40:56Z</time>
      </trkpt>
      <trkpt lat="44.6595" lon="5.71606">
        <ele>1034.6</ele>
        <time>2023-05-18T07:40:57Z</time>
      </trkpt>
      <trkpt lat="44.65951" lon="5.71609">
        <ele>1034.6</ele>
        <time>2023-05-18T07:40:58Z</time>
      </trkpt>
      <trkpt lat="44.65952" lon="5.71612">
        <ele>1034.6</ele>
        <time>2023-05-18T07:40:59Z</time>
      </trkpt>
      <trkpt lat="44.65952" lon="5.71614">
        <ele>1034.8</ele>
        <time>2023-05-18T07:41:00Z</time>
      </trkpt>
      <trkpt lat="44.65953" lon="5.71617">
        <ele>1034.8</ele>
        <time>2023-05-18T07:41:01Z</time>
      </trkpt>
      <trkpt lat="44.65954" lon="5.71619">
        <ele>1034.8</ele>
        <time>2023-05-18T07:41:02Z</time>
      </trkpt>
      <trkpt lat="44.65954" lon="5.71622">
        <ele>1034.8</ele>
        <time>2023-05-18T07:41:03Z</time>
      </trkpt>
      <trkpt lat="44.65954" lon="5.71624">
        <ele>1034.8</ele>
        <time>2023-05-18T07:41:04Z</time>
      </trkpt>
      <trkpt lat="44.65955" lon="5.71626">
        <ele>1035</ele>
        <time>2023-05-18T07:41:05Z</time>
      </trkpt>
      <trkpt lat="44.65957" lon="5.71631">
        <ele>1028.8</ele>
        <time>2023-05-18T07:41:07Z</time>
      </trkpt>
      <trkpt lat="44.6596" lon="5.71639">
        <ele>1035.2</ele>
        <time>2023-05-18T07:41:10Z</time>
      </trkpt>
      <trkpt lat="44.65961" lon="5.71641">
        <ele>1035.2</ele>
        <time>2023-05-18T07:41:11Z</time>
      </trkpt>
      <trkpt lat="44.65962" lon="5.71643">
        <ele>1035.4</ele>
        <time>2023-05-18T07:41:12Z</time>
      </trkpt>
      <trkpt lat="44.65962" lon="5.71645">
        <ele>1035.4</ele>
        <time>2023-05-18T07:41:13Z</time>
      </trkpt>
      <trkpt lat="44.65961" lon="5.71648">
        <ele>1035.6</ele>
        <time>2023-05-18T07:41:14Z</time>
      </trkpt>
      <trkpt lat="44.6596" lon="5.7165">
        <ele>1035.6</ele>
        <time>2023-05-18T07:41:15Z</time>
      </trkpt>
      <trkpt lat="44.6596" lon="5.71651">
        <ele>1035.6</ele>
        <time>2023-05-18T07:41:16Z</time>
      </trkpt>
      <trkpt lat="44.6596" lon="5.71654">
        <ele>1035.8</ele>
        <time>2023-05-18T07:41:17Z</time>
      </trkpt>
      <trkpt lat="44.65959" lon="5.71655">
        <ele>1035.8</ele>
        <time>2023-05-18T07:41:18Z</time>
      </trkpt>
      <trkpt lat="44.65958" lon="5.71657">
        <ele>1035.8</ele>
        <time>2023-05-18T07:41:19Z</time>
      </trkpt>
      <trkpt lat="44.65957" lon="5.71659">
        <ele>1035.8</ele>
        <time>2023-05-18T07:41:20Z</time>
      </trkpt>
      <trkpt lat="44.65956" lon="5.7166">
        <ele>1035.8</ele>
        <time>2023-05-18T07:41:21Z</time>
      </trkpt>
      <trkpt lat="44.65955" lon="5.71662">
        <ele>1036</ele>
        <time>2023-05-18T07:41:22Z</time>
      </trkpt>
      <trkpt lat="44.65954" lon="5.71663">
        <ele>1036</ele>
        <time>2023-05-18T07:41:23Z</time>
      </trkpt>
      <trkpt lat="44.65954" lon="5.71665">
        <ele>1036</ele>
        <time>2023-05-18T07:41:24Z</time>
      </trkpt>
      <trkpt lat="44.65953" lon="5.71667">
        <ele>1036</ele>
        <time>2023-05-18T07:41:25Z</time>
      </trkpt>
      <trkpt lat="44.65953" lon="5.71668">
        <ele>1036</ele>
        <time>2023-05-18T07:41:26Z</time>
      </trkpt>
      <trkpt lat="44.65952" lon="5.7167">
        <ele>1036</ele>
        <time>2023-05-18T07:41:27Z</time>
      </trkpt>
      <trkpt lat="44.6595" lon="5.71671">
        <ele>1036</ele>
        <time>2023-05-18T07:41:28Z</time>
      </trkpt>
      <trkpt lat="44.65949" lon="5.71673">
        <ele>1036.2</ele>
        <time>2023-05-18T07:41:29Z</time>
      </trkpt>
      <trkpt lat="44.65949" lon="5.71676">
        <ele>1036.2</ele>
        <time>2023-05-18T07:41:30Z</time>
      </trkpt>
      <trkpt lat="44.65948" lon="5.71678">
        <ele>1036.2</ele>
        <time>2023-05-18T07:41:31Z</time>
      </trkpt>
      <trkpt lat="44.65948" lon="5.71681">
        <ele>1036.2</ele>
        <time>2023-05-18T07:41:32Z</time>
      </trkpt>
      <trkpt lat="44.65948" lon="5.71683">
        <ele>1036.4</ele>
        <time>2023-05-18T07:41:33Z</time>
      </trkpt>
      <trkpt lat="44.65948" lon="5.71686">
        <ele>1036.4</ele>
        <time>2023-05-18T07:41:34Z</time>
      </trkpt>
      <trkpt lat="44.65949" lon="5.71691">
        <ele>1036.4</ele>
        <time>2023-05-18T07:41:36Z</time>
      </trkpt>
      <trkpt lat="44.6595" lon="5.71693">
        <ele>1036.6</ele>
        <time>2023-05-18T07:41:37Z</time>
      </trkpt>
      <trkpt lat="44.65951" lon="5.71696">
        <ele>1036.6</ele>
        <time>2023-05-18T07:41:38Z</time>
      </trkpt>
      <trkpt lat="44.65953" lon="5.71701">
        <ele>1036.6</ele>
        <time>2023-05-18T07:41:40Z</time>
      </trkpt>
      <trkpt lat="44.65954" lon="5.71709">
        <ele>1037</ele>
        <time>2023-05-18T07:41:43Z</time>
      </trkpt>
      <trkpt lat="44.65954" lon="5.71712">
        <ele>1036.8</ele>
        <time>2023-05-18T07:41:44Z</time>
      </trkpt>
      <trkpt lat="44.65956" lon="5.71726">
        <ele>1037</ele>
        <time>2023-05-18T07:41:48Z</time>
      </trkpt>
      <trkpt lat="44.65958" lon="5.71731">
        <ele>1037</ele>
        <time>2023-05-18T07:41:50Z</time>
      </trkpt>
      <trkpt lat="44.65959" lon="5.71733">
        <ele>1037.2</ele>
        <time>2023-05-18T07:41:51Z</time>
      </trkpt>
      <trkpt lat="44.65959" lon="5.71739">
        <ele>1037.4</ele>
        <time>2023-05-18T07:41:53Z</time>
      </trkpt>
      <trkpt lat="44.65959" lon="5.71741">
        <ele>1037.4</ele>
        <time>2023-05-18T07:41:54Z</time>
      </trkpt>
      <trkpt lat="44.65959" lon="5.71747">
        <ele>1037.6</ele>
        <time>2023-05-18T07:41:56Z</time>
      </trkpt>
      <trkpt lat="44.6596" lon="5.71749">
        <ele>1037.8</ele>
        <time>2023-05-18T07:41:57Z</time>
      </trkpt>
      <trkpt lat="44.65961" lon="5.71751">
        <ele>1037.8</ele>
        <time>2023-05-18T07:41:58Z</time>
      </trkpt>
      <trkpt lat="44.65962" lon="5.71753">
        <ele>1037.8</ele>
        <time>2023-05-18T07:41:59Z</time>
      </trkpt>
      <trkpt lat="44.65963" lon="5.71755">
        <ele>1038</ele>
        <time>2023-05-18T07:42:00Z</time>
      </trkpt>
      <trkpt lat="44.65966" lon="5.7176">
        <ele>1038</ele>
        <time>2023-05-18T07:42:02Z</time>
      </trkpt>
      <trkpt lat="44.65972" lon="5.71768">
        <ele>1038</ele>
        <time>2023-05-18T07:42:07Z</time>
      </trkpt>
      <trkpt lat="44.65972" lon="5.7177">
        <ele>1038</ele>
        <time>2023-05-18T07:42:08Z</time>
      </trkpt>
      <trkpt lat="44.65972" lon="5.71773">
        <ele>1038</ele>
        <time>2023-05-18T07:42:09Z</time>
      </trkpt>
      <trkpt lat="44.65972" lon="5.71775">
        <ele>1038</ele>
        <time>2023-05-18T07:42:10Z</time>
      </trkpt>
      <trkpt lat="44.65971" lon="5.71776">
        <ele>1038</ele>
        <time>2023-05-18T07:42:11Z</time>
      </trkpt>
      <trkpt lat="44.65971" lon="5.71778">
        <ele>1038</ele>
        <time>2023-05-18T07:42:12Z</time>
      </trkpt>
      <trkpt lat="44.6597" lon="5.7178">
        <ele>1038</ele>
        <time>2023-05-18T07:42:13Z</time>
      </trkpt>
      <trkpt lat="44.65969" lon="5.71782">
        <ele>1038</ele>
        <time>2023-05-18T07:42:14Z</time>
      </trkpt>
      <trkpt lat="44.65969" lon="5.71785">
        <ele>1038</ele>
        <time>2023-05-18T07:42:15Z</time>
      </trkpt>
      <trkpt lat="44.65968" lon="5.71787">
        <ele>1038</ele>
        <time>2023-05-18T07:42:16Z</time>
      </trkpt>
      <trkpt lat="44.65966" lon="5.71791">
        <ele>1038</ele>
        <time>2023-05-18T07:42:18Z</time>
      </trkpt>
      <trkpt lat="44.65966" lon="5.718">
        <ele>1038.2</ele>
        <time>2023-05-18T07:42:21Z</time>
      </trkpt>
      <trkpt lat="44.65966" lon="5.71803">
        <ele>1038.4</ele>
        <time>2023-05-18T07:42:22Z</time>
      </trkpt>
      <trkpt lat="44.65966" lon="5.7181">
        <ele>1038.4</ele>
        <time>2023-05-18T07:42:24Z</time>
      </trkpt>
      <trkpt lat="44.65966" lon="5.71821">
        <ele>1038.8</ele>
        <time>2023-05-18T07:42:28Z</time>
      </trkpt>
      <trkpt lat="44.65965" lon="5.71825">
        <ele>1038.8</ele>
        <time>2023-05-18T07:42:30Z</time>
      </trkpt>
      <trkpt lat="44.65965" lon="5.71828">
        <ele>1039</ele>
        <time>2023-05-18T07:42:31Z</time>
      </trkpt>
      <trkpt lat="44.65965" lon="5.7183">
        <ele>1039</ele>
        <time>2023-05-18T07:42:32Z</time>
      </trkpt>
      <trkpt lat="44.65965" lon="5.71832">
        <ele>1039</ele>
        <time>2023-05-18T07:42:33Z</time>
      </trkpt>
      <trkpt lat="44.65965" lon="5.71834">
        <ele>1039</ele>
        <time>2023-05-18T07:42:34Z</time>
      </trkpt>
      <trkpt lat="44.65965" lon="5.71837">
        <ele>1039</ele>
        <time>2023-05-18T07:42:35Z</time>
      </trkpt>
      <trkpt lat="44.65965" lon="5.71839">
        <ele>1039.2</ele>
        <time>2023-05-18T07:42:36Z</time>
      </trkpt>
      <trkpt lat="44.65966" lon="5.71846">
        <ele>1039.2</ele>
        <time>2023-05-18T07:42:39Z</time>
      </trkpt>
      <trkpt lat="44.65967" lon="5.71848">
        <ele>1039.2</ele>
        <time>2023-05-18T07:42:40Z</time>
      </trkpt>
      <trkpt lat="44.65967" lon="5.7185">
        <ele>1039.2</ele>
        <time>2023-05-18T07:42:41Z</time>
      </trkpt>
      <trkpt lat="44.65968" lon="5.71852">
        <ele>1039.4</ele>
        <time>2023-05-18T07:42:42Z</time>
      </trkpt>
      <trkpt lat="44.65968" lon="5.71854">
        <ele>1039.4</ele>
        <time>2023-05-18T07:42:43Z</time>
      </trkpt>
      <trkpt lat="44.65968" lon="5.71857">
        <ele>1039.6</ele>
        <time>2023-05-18T07:42:44Z</time>
      </trkpt>
      <trkpt lat="44.65966" lon="5.71874">
        <ele>1039.8</ele>
        <time>2023-05-18T07:42:51Z</time>
      </trkpt>
      <trkpt lat="44.65956" lon="5.71887">
        <ele>1040.2</ele>
        <time>2023-05-18T07:42:58Z</time>
      </trkpt>
      <trkpt lat="44.65954" lon="5.71888">
        <ele>1040.2</ele>
        <time>2023-05-18T07:42:59Z</time>
      </trkpt>
      <trkpt lat="44.65948" lon="5.71894">
        <ele>1040.6</ele>
        <time>2023-05-18T07:43:03Z</time>
      </trkpt>
      <trkpt lat="44.65946" lon="5.71895">
        <ele>1040.6</ele>
        <time>2023-05-18T07:43:04Z</time>
      </trkpt>
      <trkpt lat="44.65944" lon="5.71899">
        <ele>1040.6</ele>
        <time>2023-05-18T07:43:06Z</time>
      </trkpt>
      <trkpt lat="44.65943" lon="5.71901">
        <ele>1040.6</ele>
        <time>2023-05-18T07:43:07Z</time>
      </trkpt>
      <trkpt lat="44.65942" lon="5.71903">
        <ele>1040.6</ele>
        <time>2023-05-18T07:43:08Z</time>
      </trkpt>
      <trkpt lat="44.65942" lon="5.71905">
        <ele>1040.6</ele>
        <time>2023-05-18T07:43:09Z</time>
      </trkpt>
      <trkpt lat="44.65941" lon="5.71907">
        <ele>1040.6</ele>
        <time>2023-05-18T07:43:10Z</time>
      </trkpt>
      <trkpt lat="44.6594" lon="5.71909">
        <ele>1040.6</ele>
        <time>2023-05-18T07:43:11Z</time>
      </trkpt>
      <trkpt lat="44.65939" lon="5.71911">
        <ele>1040.6</ele>
        <time>2023-05-18T07:43:12Z</time>
      </trkpt>
      <trkpt lat="44.65938" lon="5.71912">
        <ele>1040.6</ele>
        <time>2023-05-18T07:43:13Z</time>
      </trkpt>
      <trkpt lat="44.65933" lon="5.7192">
        <ele>1040.6</ele>
        <time>2023-05-18T07:43:17Z</time>
      </trkpt>
      <trkpt lat="44.65932" lon="5.71922">
        <ele>1040.6</ele>
        <time>2023-05-18T07:43:18Z</time>
      </trkpt>
      <trkpt lat="44.65933" lon="5.71924">
        <ele>1040.6</ele>
        <time>2023-05-18T07:43:19Z</time>
      </trkpt>
      <trkpt lat="44.65935" lon="5.71931">
        <ele>1040.8</ele>
        <time>2023-05-18T07:43:22Z</time>
      </trkpt>
      <trkpt lat="44.65935" lon="5.71933">
        <ele>1040.8</ele>
        <time>2023-05-18T07:43:23Z</time>
      </trkpt>
      <trkpt lat="44.65945" lon="5.71949">
        <ele>1041</ele>
        <time>2023-05-18T07:43:31Z</time>
      </trkpt>
      <trkpt lat="44.65949" lon="5.71952">
        <ele>1041.2</ele>
        <time>2023-05-18T07:43:33Z</time>
      </trkpt>
      <trkpt lat="44.65951" lon="5.71953">
        <ele>1041.2</ele>
        <time>2023-05-18T07:43:34Z</time>
      </trkpt>
      <trkpt lat="44.65952" lon="5.71953">
        <ele>1041.4</ele>
        <time>2023-05-18T07:43:35Z</time>
      </trkpt>
      <trkpt lat="44.6596" lon="5.71957">
        <ele>1041.6</ele>
        <time>2023-05-18T07:43:39Z</time>
      </trkpt>
      <trkpt lat="44.65965" lon="5.71958">
        <ele>1041.6</ele>
        <time>2023-05-18T07:43:42Z</time>
      </trkpt>
      <trkpt lat="44.65967" lon="5.71958">
        <ele>1041.6</ele>
        <time>2023-05-18T07:43:43Z</time>
      </trkpt>
      <trkpt lat="44.65969" lon="5.71959">
        <ele>1041.6</ele>
        <time>2023-05-18T07:43:44Z</time>
      </trkpt>
      <trkpt lat="44.6597" lon="5.71959">
        <ele>1041.6</ele>
        <time>2023-05-18T07:43:45Z</time>
      </trkpt>
      <trkpt lat="44.65972" lon="5.71959">
        <ele>1041.6</ele>
        <time>2023-05-18T07:43:46Z</time>
      </trkpt>
      <trkpt lat="44.65974" lon="5.71961">
        <ele>1041.6</ele>
        <time>2023-05-18T07:43:47Z</time>
      </trkpt>
      <trkpt lat="44.65975" lon="5.71963">
        <ele>1041.6</ele>
        <time>2023-05-18T07:43:48Z</time>
      </trkpt>
      <trkpt lat="44.65976" lon="5.71964">
        <ele>1041.6</ele>
        <time>2023-05-18T07:43:49Z</time>
      </trkpt>
      <trkpt lat="44.65997" lon="5.71974">
        <ele>1042</ele>
        <time>2023-05-18T07:43:59Z</time>
      </trkpt>
      <trkpt lat="44.66004" lon="5.71977">
        <ele>1042</ele>
        <time>2023-05-18T07:44:03Z</time>
      </trkpt>
      <trkpt lat="44.66005" lon="5.71977">
        <ele>1042</ele>
        <time>2023-05-18T07:44:04Z</time>
      </trkpt>
      <trkpt lat="44.66006" lon="5.71977">
        <ele>1042.2</ele>
        <time>2023-05-18T07:44:05Z</time>
      </trkpt>
      <trkpt lat="44.66013" lon="5.71978">
        <ele>1042.2</ele>
        <time>2023-05-18T07:44:09Z</time>
      </trkpt>
      <trkpt lat="44.66015" lon="5.71977">
        <ele>1042.2</ele>
        <time>2023-05-18T07:44:10Z</time>
      </trkpt>
      <trkpt lat="44.66017" lon="5.71976">
        <ele>1042.2</ele>
        <time>2023-05-18T07:44:11Z</time>
      </trkpt>
      <trkpt lat="44.66029" lon="5.71972">
        <ele>1042.6</ele>
        <time>2023-05-18T07:44:17Z</time>
      </trkpt>
      <trkpt lat="44.66031" lon="5.71973">
        <ele>1042.8</ele>
        <time>2023-05-18T07:44:18Z</time>
      </trkpt>
      <trkpt lat="44.66033" lon="5.71974">
        <ele>1043</ele>
        <time>2023-05-18T07:44:19Z</time>
      </trkpt>
      <trkpt lat="44.66034" lon="5.71975">
        <ele>1043</ele>
        <time>2023-05-18T07:44:20Z</time>
      </trkpt>
      <trkpt lat="44.66036" lon="5.71977">
        <ele>1043</ele>
        <time>2023-05-18T07:44:21Z</time>
      </trkpt>
      <trkpt lat="44.66036" lon="5.7198">
        <ele>1043.2</ele>
        <time>2023-05-18T07:44:22Z</time>
      </trkpt>
      <trkpt lat="44.66033" lon="5.71993">
        <ele>1043.6</ele>
        <time>2023-05-18T07:44:27Z</time>
      </trkpt>
      <trkpt lat="44.66031" lon="5.71995">
        <ele>1043.8</ele>
        <time>2023-05-18T07:44:28Z</time>
      </trkpt>
      <trkpt lat="44.66029" lon="5.71997">
        <ele>1043.8</ele>
        <time>2023-05-18T07:44:29Z</time>
      </trkpt>
      <trkpt lat="44.66019" lon="5.7201">
        <ele>1044.6</ele>
        <time>2023-05-18T07:44:36Z</time>
      </trkpt>
      <trkpt lat="44.66009" lon="5.72021">
        <ele>1045</ele>
        <time>2023-05-18T07:44:42Z</time>
      </trkpt>
      <trkpt lat="44.66004" lon="5.72026">
        <ele>1045.2</ele>
        <time>2023-05-18T07:44:45Z</time>
      </trkpt>
      <trkpt lat="44.65986" lon="5.72038">
        <ele>1046</ele>
        <time>2023-05-18T07:44:53Z</time>
      </trkpt>
      <trkpt lat="44.65984" lon="5.7204">
        <ele>1046</ele>
        <time>2023-05-18T07:44:54Z</time>
      </trkpt>
      <trkpt lat="44.65976" lon="5.72044">
        <ele>1046.6</ele>
        <time>2023-05-18T07:44:58Z</time>
      </trkpt>
      <trkpt lat="44.65965" lon="5.72051">
        <ele>1047</ele>
        <time>2023-05-18T07:45:03Z</time>
      </trkpt>
      <trkpt lat="44.65936" lon="5.72068">
        <ele>1047.6</ele>
        <time>2023-05-18T07:45:15Z</time>
      </trkpt>
      <trkpt lat="44.65929" lon="5.72072">
        <ele>1047.6</ele>
        <time>2023-05-18T07:45:18Z</time>
      </trkpt>
      <trkpt lat="44.65927" lon="5.72074">
        <ele>1047.4</ele>
        <time>2023-05-18T07:45:19Z</time>
      </trkpt>
      <trkpt lat="44.65925" lon="5.72075">
        <ele>1047.6</ele>
        <time>2023-05-18T07:45:20Z</time>
      </trkpt>
      <trkpt lat="44.65922" lon="5.72077">
        <ele>1047.6</ele>
        <time>2023-05-18T07:45:21Z</time>
      </trkpt>
      <trkpt lat="44.6592" lon="5.72078">
        <ele>1047.8</ele>
        <time>2023-05-18T07:45:22Z</time>
      </trkpt>
      <trkpt lat="44.65919" lon="5.72079">
        <ele>1047.6</ele>
        <time>2023-05-18T07:45:23Z</time>
      </trkpt>
      <trkpt lat="44.65917" lon="5.7208">
        <ele>1047.4</ele>
        <time>2023-05-18T07:45:24Z</time>
      </trkpt>
      <trkpt lat="44.65915" lon="5.72081">
        <ele>1047.4</ele>
        <time>2023-05-18T07:45:25Z</time>
      </trkpt>
      <trkpt lat="44.65913" lon="5.72083">
        <ele>1047.4</ele>
        <time>2023-05-18T07:45:26Z</time>
      </trkpt>
      <trkpt lat="44.65911" lon="5.72085">
        <ele>1047.4</ele>
        <time>2023-05-18T07:45:27Z</time>
      </trkpt>
      <trkpt lat="44.65909" lon="5.72087">
        <ele>1047.4</ele>
        <time>2023-05-18T07:45:28Z</time>
      </trkpt>
      <trkpt lat="44.65908" lon="5.72089">
        <ele>1047.4</ele>
        <time>2023-05-18T07:45:29Z</time>
      </trkpt>
      <trkpt lat="44.65906" lon="5.72091">
        <ele>1047.4</ele>
        <time>2023-05-18T07:45:30Z</time>
      </trkpt>
      <trkpt lat="44.65905" lon="5.72092">
        <ele>1047.6</ele>
        <time>2023-05-18T07:45:31Z</time>
      </trkpt>
      <trkpt lat="44.65903" lon="5.72095">
        <ele>1047.6</ele>
        <time>2023-05-18T07:45:32Z</time>
      </trkpt>
      <trkpt lat="44.65902" lon="5.72097">
        <ele>1047.6</ele>
        <time>2023-05-18T07:45:33Z</time>
      </trkpt>
      <trkpt lat="44.659" lon="5.72099">
        <ele>1047.4</ele>
        <time>2023-05-18T07:45:34Z</time>
      </trkpt>
      <trkpt lat="44.65883" lon="5.72117">
        <ele>1047.8</ele>
        <time>2023-05-18T07:45:43Z</time>
      </trkpt>
      <trkpt lat="44.65881" lon="5.72119">
        <ele>1047.8</ele>
        <time>2023-05-18T07:45:44Z</time>
      </trkpt>
      <trkpt lat="44.6587" lon="5.7213">
        <ele>1048.2</ele>
        <time>2023-05-18T07:45:50Z</time>
      </trkpt>
      <trkpt lat="44.65865" lon="5.72133">
        <ele>1048.2</ele>
        <time>2023-05-18T07:45:52Z</time>
      </trkpt>
      <trkpt lat="44.65862" lon="5.72133">
        <ele>1048.2</ele>
        <time>2023-05-18T07:45:53Z</time>
      </trkpt>
      <trkpt lat="44.6586" lon="5.72133">
        <ele>1048.2</ele>
        <time>2023-05-18T07:45:54Z</time>
      </trkpt>
      <trkpt lat="44.65859" lon="5.72132">
        <ele>1048.2</ele>
        <time>2023-05-18T07:45:55Z</time>
      </trkpt>
      <trkpt lat="44.65858" lon="5.72131">
        <ele>1048.4</ele>
        <time>2023-05-18T07:45:56Z</time>
      </trkpt>
      <trkpt lat="44.65858" lon="5.7213">
        <ele>1048.4</ele>
        <time>2023-05-18T07:45:57Z</time>
      </trkpt>
      <trkpt lat="44.65857" lon="5.72129">
        <ele>1048.2</ele>
        <time>2023-05-18T07:46:10Z</time>
      </trkpt>
      <trkpt lat="44.65856" lon="5.72128">
        <ele>1047.2</ele>
        <time>2023-05-18T07:47:13Z</time>
      </trkpt>
      <trkpt lat="44.65856" lon="5.72128">
        <ele>1047.6</ele>
        <time>2023-05-18T07:48:21Z</time>
      </trkpt>
      <trkpt lat="44.65856" lon="5.7213">
        <ele>1047.8</ele>
        <time>2023-05-18T07:49:13Z</time>
      </trkpt>
      <trkpt lat="44.65856" lon="5.7213">
        <ele>1047.8</ele>
        <time>2023-05-18T07:49:26Z</time>
      </trkpt>
      <trkpt lat="44.65855" lon="5.72121">
        <ele>1047.8</ele>
        <time>2023-05-18T07:49:29Z</time>
      </trkpt>
      <trkpt lat="44.6585" lon="5.72095">
        <ele>1047.6</ele>
        <time>2023-05-18T07:49:35Z</time>
      </trkpt>
      <trkpt lat="44.6584" lon="5.72059">
        <ele>1046.8</ele>
        <time>2023-05-18T07:49:44Z</time>
      </trkpt>
      <trkpt lat="44.65839" lon="5.72055">
        <ele>1046.8</ele>
        <time>2023-05-18T07:49:45Z</time>
      </trkpt>
      <trkpt lat="44.65838" lon="5.72051">
        <ele>1046.6</ele>
        <time>2023-05-18T07:49:46Z</time>
      </trkpt>
      <trkpt lat="44.65837" lon="5.72047">
        <ele>1046.6</ele>
        <time>2023-05-18T07:49:47Z</time>
      </trkpt>
      <trkpt lat="44.65837" lon="5.72043">
        <ele>1046.6</ele>
        <time>2023-05-18T07:49:48Z</time>
      </trkpt>
      <trkpt lat="44.65836" lon="5.72038">
        <ele>1046.6</ele>
        <time>2023-05-18T07:49:49Z</time>
      </trkpt>
      <trkpt lat="44.65835" lon="5.72034">
        <ele>1046.4</ele>
        <time>2023-05-18T07:49:50Z</time>
      </trkpt>
      <trkpt lat="44.65834" lon="5.72025">
        <ele>1046.4</ele>
        <time>2023-05-18T07:49:52Z</time>
      </trkpt>
      <trkpt lat="44.65827" lon="5.71978">
        <ele>1046</ele>
        <time>2023-05-18T07:50:01Z</time>
      </trkpt>
      <trkpt lat="44.65821" lon="5.71962">
        <ele>1045.6</ele>
        <time>2023-05-18T07:50:04Z</time>
      </trkpt>
      <trkpt lat="44.65814" lon="5.71952">
        <ele>1045.2</ele>
        <time>2023-05-18T07:50:06Z</time>
      </trkpt>
      <trkpt lat="44.65807" lon="5.71943">
        <ele>1044.8</ele>
        <time>2023-05-18T07:50:08Z</time>
      </trkpt>
      <trkpt lat="44.65803" lon="5.71938">
        <ele>1044.6</ele>
        <time>2023-05-18T07:50:09Z</time>
      </trkpt>
      <trkpt lat="44.65788" lon="5.7192">
        <ele>1043.8</ele>
        <time>2023-05-18T07:50:13Z</time>
      </trkpt>
      <trkpt lat="44.65772" lon="5.719">
        <ele>1042.6</ele>
        <time>2023-05-18T07:50:17Z</time>
      </trkpt>
      <trkpt lat="44.65756" lon="5.71879">
        <ele>1041.4</ele>
        <time>2023-05-18T07:50:21Z</time>
      </trkpt>
      <trkpt lat="44.65749" lon="5.71869">
        <ele>1040.6</ele>
        <time>2023-05-18T07:50:23Z</time>
      </trkpt>
      <trkpt lat="44.65745" lon="5.71864">
        <ele>1040.4</ele>
        <time>2023-05-18T07:50:24Z</time>
      </trkpt>
      <trkpt lat="44.6573" lon="5.71844">
        <ele>1039.4</ele>
        <time>2023-05-18T07:50:28Z</time>
      </trkpt>
      <trkpt lat="44.65726" lon="5.7184">
        <ele>1039.4</ele>
        <time>2023-05-18T07:50:29Z</time>
      </trkpt>
      <trkpt lat="44.65723" lon="5.71835">
        <ele>1039.2</ele>
        <time>2023-05-18T07:50:30Z</time>
      </trkpt>
      <trkpt lat="44.65719" lon="5.71831">
        <ele>1039</ele>
        <time>2023-05-18T07:50:31Z</time>
      </trkpt>
      <trkpt lat="44.65716" lon="5.71826">
        <ele>1038.8</ele>
        <time>2023-05-18T07:50:32Z</time>
      </trkpt>
      <trkpt lat="44.65712" lon="5.71822">
        <ele>1038.6</ele>
        <time>2023-05-18T07:50:33Z</time>
      </trkpt>
      <trkpt lat="44.65709" lon="5.71818">
        <ele>1038.4</ele>
        <time>2023-05-18T07:50:34Z</time>
      </trkpt>
      <trkpt lat="44.65705" lon="5.71813">
        <ele>1038.2</ele>
        <time>2023-05-18T07:50:35Z</time>
      </trkpt>
      <trkpt lat="44.65701" lon="5.71809">
        <ele>1038.2</ele>
        <time>2023-05-18T07:50:36Z</time>
      </trkpt>
      <trkpt lat="44.65694" lon="5.718">
        <ele>1037.6</ele>
        <time>2023-05-18T07:50:38Z</time>
      </trkpt>
      <trkpt lat="44.65691" lon="5.71796">
        <ele>1037</ele>
        <time>2023-05-18T07:50:39Z</time>
      </trkpt>
      <trkpt lat="44.65684" lon="5.71788">
        <ele>1036.6</ele>
        <time>2023-05-18T07:50:41Z</time>
      </trkpt>
      <trkpt lat="44.65681" lon="5.71784">
        <ele>1036.4</ele>
        <time>2023-05-18T07:50:42Z</time>
      </trkpt>
      <trkpt lat="44.65679" lon="5.71781">
        <ele>1036.4</ele>
        <time>2023-05-18T07:50:43Z</time>
      </trkpt>
      <trkpt lat="44.65676" lon="5.71777">
        <ele>1036.2</ele>
        <time>2023-05-18T07:50:44Z</time>
      </trkpt>
      <trkpt lat="44.65673" lon="5.71773">
        <ele>1036</ele>
        <time>2023-05-18T07:50:45Z</time>
      </trkpt>
      <trkpt lat="44.6567" lon="5.71769">
        <ele>1036</ele>
        <time>2023-05-18T07:50:46Z</time>
      </trkpt>
      <trkpt lat="44.65654" lon="5.71748">
        <ele>1035</ele>
        <time>2023-05-18T07:50:51Z</time>
      </trkpt>
      <trkpt lat="44.65651" lon="5.71744">
        <ele>1034.8</ele>
        <time>2023-05-18T07:50:52Z</time>
      </trkpt>
      <trkpt lat="44.6564" lon="5.7173">
        <ele>1034.2</ele>
        <time>2023-05-18T07:50:56Z</time>
      </trkpt>
      <trkpt lat="44.65637" lon="5.71727">
        <ele>1034</ele>
        <time>2023-05-18T07:50:57Z</time>
      </trkpt>
      <trkpt lat="44.65635" lon="5.71724">
        <ele>1033.8</ele>
        <time>2023-05-18T07:50:58Z</time>
      </trkpt>
      <trkpt lat="44.65632" lon="5.7172">
        <ele>1033.8</ele>
        <time>2023-05-18T07:50:59Z</time>
      </trkpt>
      <trkpt lat="44.6563" lon="5.71718">
        <ele>1033.8</ele>
        <time>2023-05-18T07:51:00Z</time>
      </trkpt>
      <trkpt lat="44.65627" lon="5.71715">
        <ele>1033.6</ele>
        <time>2023-05-18T07:51:01Z</time>
      </trkpt>
      <trkpt lat="44.6562" lon="5.71707">
        <ele>1033.4</ele>
        <time>2023-05-18T07:51:04Z</time>
      </trkpt>
      <trkpt lat="44.65618" lon="5.71704">
        <ele>1033.4</ele>
        <time>2023-05-18T07:51:05Z</time>
      </trkpt>
      <trkpt lat="44.65616" lon="5.71702">
        <ele>1033.2</ele>
        <time>2023-05-18T07:51:06Z</time>
      </trkpt>
      <trkpt lat="44.65604" lon="5.71687">
        <ele>1032.8</ele>
        <time>2023-05-18T07:51:11Z</time>
      </trkpt>
      <trkpt lat="44.65599" lon="5.71681">
        <ele>1032.6</ele>
        <time>2023-05-18T07:51:13Z</time>
      </trkpt>
      <trkpt lat="44.65589" lon="5.71668">
        <ele>1032.2</ele>
        <time>2023-05-18T07:51:18Z</time>
      </trkpt>
      <trkpt lat="44.65587" lon="5.71666">
        <ele>1032.2</ele>
        <time>2023-05-18T07:51:19Z</time>
      </trkpt>
      <trkpt lat="44.65585" lon="5.71664">
        <ele>1032.2</ele>
        <time>2023-05-18T07:51:20Z</time>
      </trkpt>
      <trkpt lat="44.65583" lon="5.71662">
        <ele>1032.2</ele>
        <time>2023-05-18T07:51:21Z</time>
      </trkpt>
      <trkpt lat="44.65581" lon="5.7166">
        <ele>1032</ele>
        <time>2023-05-18T07:51:22Z</time>
      </trkpt>
      <trkpt lat="44.65577" lon="5.71656">
        <ele>1031.8</ele>
        <time>2023-05-18T07:51:25Z</time>
      </trkpt>
      <trkpt lat="44.65575" lon="5.71654">
        <ele>1031.6</ele>
        <time>2023-05-18T07:51:26Z</time>
      </trkpt>
      <trkpt lat="44.65573" lon="5.71652">
        <ele>1031.6</ele>
        <time>2023-05-18T07:51:27Z</time>
      </trkpt>
      <trkpt lat="44.65571" lon="5.71651">
        <ele>1031.6</ele>
        <time>2023-05-18T07:51:28Z</time>
      </trkpt>
      <trkpt lat="44.65569" lon="5.71649">
        <ele>1031.6</ele>
        <time>2023-05-18T07:51:29Z</time>
      </trkpt>
      <trkpt lat="44.65568" lon="5.71647">
        <ele>1031.4</ele>
        <time>2023-05-18T07:51:30Z</time>
      </trkpt>
      <trkpt lat="44.65553" lon="5.71633">
        <ele>1031.4</ele>
        <time>2023-05-18T07:51:37Z</time>
      </trkpt>
      <trkpt lat="44.65546" lon="5.71627">
        <ele>1031.4</ele>
        <time>2023-05-18T07:51:40Z</time>
      </trkpt>
      <trkpt lat="44.65543" lon="5.71627">
        <ele>1031.4</ele>
        <time>2023-05-18T07:51:41Z</time>
      </trkpt>
      <trkpt lat="44.65541" lon="5.71628">
        <ele>1031.4</ele>
        <time>2023-05-18T07:51:42Z</time>
      </trkpt>
      <trkpt lat="44.65539" lon="5.71629">
        <ele>1031.4</ele>
        <time>2023-05-18T07:51:43Z</time>
      </trkpt>
      <trkpt lat="44.65537" lon="5.7163">
        <ele>1031.4</ele>
        <time>2023-05-18T07:51:44Z</time>
      </trkpt>
      <trkpt lat="44.65535" lon="5.71631">
        <ele>1031.4</ele>
        <time>2023-05-18T07:51:45Z</time>
      </trkpt>
      <trkpt lat="44.65534" lon="5.71633">
        <ele>1031.4</ele>
        <time>2023-05-18T07:51:46Z</time>
      </trkpt>
      <trkpt lat="44.65533" lon="5.71635">
        <ele>1031.4</ele>
        <time>2023-05-18T07:51:47Z</time>
      </trkpt>
      <trkpt lat="44.65532" lon="5.71637">
        <ele>1031.4</ele>
        <time>2023-05-18T07:51:48Z</time>
      </trkpt>
      <trkpt lat="44.65531" lon="5.71638">
        <ele>1031.6</ele>
        <time>2023-05-18T07:51:49Z</time>
      </trkpt>
      <trkpt lat="44.65529" lon="5.7164">
        <ele>1031.8</ele>
        <time>2023-05-18T07:51:50Z</time>
      </trkpt>
      <trkpt lat="44.65528" lon="5.71642">
        <ele>1031.6</ele>
        <time>2023-05-18T07:51:51Z</time>
      </trkpt>
      <trkpt lat="44.65527" lon="5.71643">
        <ele>1031.6</ele>
        <time>2023-05-18T07:51:52Z</time>
      </trkpt>
      <trkpt lat="44.65525" lon="5.71645">
        <ele>1031.8</ele>
        <time>2023-05-18T07:51:53Z</time>
      </trkpt>
      <trkpt lat="44.65524" lon="5.71647">
        <ele>1031.8</ele>
        <time>2023-05-18T07:51:54Z</time>
      </trkpt>
      <trkpt lat="44.65523" lon="5.71649">
        <ele>1031.8</ele>
        <time>2023-05-18T07:51:55Z</time>
      </trkpt>
      <trkpt lat="44.65522" lon="5.71652">
        <ele>1031.8</ele>
        <time>2023-05-18T07:51:56Z</time>
      </trkpt>
      <trkpt lat="44.6552" lon="5.71657">
        <ele>1031.8</ele>
        <time>2023-05-18T07:51:58Z</time>
      </trkpt>
      <trkpt lat="44.65519" lon="5.71659">
        <ele>1031.8</ele>
        <time>2023-05-18T07:51:59Z</time>
      </trkpt>
      <trkpt lat="44.65518" lon="5.71661">
        <ele>1031.8</ele>
        <time>2023-05-18T07:52:00Z</time>
      </trkpt>
      <trkpt lat="44.65518" lon="5.71664">
        <ele>1031.8</ele>
        <time>2023-05-18T07:52:01Z</time>
      </trkpt>
      <trkpt lat="44.65515" lon="5.71674">
        <ele>1032</ele>
        <time>2023-05-18T07:52:05Z</time>
      </trkpt>
      <trkpt lat="44.65514" lon="5.7168">
        <ele>1032.2</ele>
        <time>2023-05-18T07:52:07Z</time>
      </trkpt>
      <trkpt lat="44.65513" lon="5.71683">
        <ele>1032.2</ele>
        <time>2023-05-18T07:52:08Z</time>
      </trkpt>
      <trkpt lat="44.65513" lon="5.71686">
        <ele>1032.4</ele>
        <time>2023-05-18T07:52:09Z</time>
      </trkpt>
      <trkpt lat="44.65512" lon="5.7169">
        <ele>1032.6</ele>
        <time>2023-05-18T07:52:11Z</time>
      </trkpt>
      <trkpt lat="44.65511" lon="5.71694">
        <ele>1032.8</ele>
        <time>2023-05-18T07:52:13Z</time>
      </trkpt>
      <trkpt lat="44.6551" lon="5.71697">
        <ele>1033</ele>
        <time>2023-05-18T07:52:14Z</time>
      </trkpt>
      <trkpt lat="44.65509" lon="5.71699">
        <ele>1033.2</ele>
        <time>2023-05-18T07:52:15Z</time>
      </trkpt>
      <trkpt lat="44.65506" lon="5.71707">
        <ele>1033.4</ele>
        <time>2023-05-18T07:52:18Z</time>
      </trkpt>
      <trkpt lat="44.65503" lon="5.7172">
        <ele>1033.6</ele>
        <time>2023-05-18T07:52:23Z</time>
      </trkpt>
      <trkpt lat="44.65502" lon="5.71723">
        <ele>1033.6</ele>
        <time>2023-05-18T07:52:24Z</time>
      </trkpt>
      <trkpt lat="44.65499" lon="5.71727">
        <ele>1033.8</ele>
        <time>2023-05-18T07:52:26Z</time>
      </trkpt>
      <trkpt lat="44.65498" lon="5.71729">
        <ele>1033.8</ele>
        <time>2023-05-18T07:52:27Z</time>
      </trkpt>
      <trkpt lat="44.65497" lon="5.71731">
        <ele>1033.8</ele>
        <time>2023-05-18T07:52:28Z</time>
      </trkpt>
      <trkpt lat="44.65494" lon="5.71735">
        <ele>1034</ele>
        <time>2023-05-18T07:52:30Z</time>
      </trkpt>
      <trkpt lat="44.65493" lon="5.71737">
        <ele>1034</ele>
        <time>2023-05-18T07:52:31Z</time>
      </trkpt>
      <trkpt lat="44.65491" lon="5.71739">
        <ele>1034.2</ele>
        <time>2023-05-18T07:52:32Z</time>
      </trkpt>
      <trkpt lat="44.65488" lon="5.71742">
        <ele>1034.2</ele>
        <time>2023-05-18T07:52:34Z</time>
      </trkpt>
      <trkpt lat="44.65485" lon="5.71746">
        <ele>1034.4</ele>
        <time>2023-05-18T07:52:36Z</time>
      </trkpt>
      <trkpt lat="44.65479" lon="5.71756">
        <ele>1034.6</ele>
        <time>2023-05-18T07:52:41Z</time>
      </trkpt>
      <trkpt lat="44.65479" lon="5.71758">
        <ele>1034.6</ele>
        <time>2023-05-18T07:52:42Z</time>
      </trkpt>
      <trkpt lat="44.65478" lon="5.7176">
        <ele>1034.8</ele>
        <time>2023-05-18T07:52:43Z</time>
      </trkpt>
      <trkpt lat="44.65477" lon="5.71763">
        <ele>1035</ele>
        <time>2023-05-18T07:52:44Z</time>
      </trkpt>
      <trkpt lat="44.65475" lon="5.71766">
        <ele>1035</ele>
        <time>2023-05-18T07:52:45Z</time>
      </trkpt>
      <trkpt lat="44.65473" lon="5.71769">
        <ele>1035</ele>
        <time>2023-05-18T07:52:46Z</time>
      </trkpt>
      <trkpt lat="44.65471" lon="5.71771">
        <ele>1035</ele>
        <time>2023-05-18T07:52:47Z</time>
      </trkpt>
      <trkpt lat="44.6547" lon="5.71773">
        <ele>1035</ele>
        <time>2023-05-18T07:52:48Z</time>
      </trkpt>
      <trkpt lat="44.65468" lon="5.71775">
        <ele>1035</ele>
        <time>2023-05-18T07:52:49Z</time>
      </trkpt>
      <trkpt lat="44.65466" lon="5.71776">
        <ele>1035.2</ele>
        <time>2023-05-18T07:52:50Z</time>
      </trkpt>
      <trkpt lat="44.65466" lon="5.71778">
        <ele>1035.2</ele>
        <time>2023-05-18T07:52:51Z</time>
      </trkpt>
      <trkpt lat="44.65466" lon="5.7178">
        <ele>1035.2</ele>
        <time>2023-05-18T07:52:52Z</time>
      </trkpt>
      <trkpt lat="44.65465" lon="5.71782">
        <ele>1035.4</ele>
        <time>2023-05-18T07:52:53Z</time>
      </trkpt>
      <trkpt lat="44.65464" lon="5.71784">
        <ele>1035.6</ele>
        <time>2023-05-18T07:52:54Z</time>
      </trkpt>
      <trkpt lat="44.65461" lon="5.71786">
        <ele>1035.6</ele>
        <time>2023-05-18T07:52:55Z</time>
      </trkpt>
      <trkpt lat="44.65459" lon="5.71788">
        <ele>1035.8</ele>
        <time>2023-05-18T07:52:56Z</time>
      </trkpt>
      <trkpt lat="44.65458" lon="5.71791">
        <ele>1035.8</ele>
        <time>2023-05-18T07:52:57Z</time>
      </trkpt>
      <trkpt lat="44.65456" lon="5.71793">
        <ele>1035.8</ele>
        <time>2023-05-18T07:52:58Z</time>
      </trkpt>
      <trkpt lat="44.65452" lon="5.71798">
        <ele>1036</ele>
        <time>2023-05-18T07:53:00Z</time>
      </trkpt>
      <trkpt lat="44.65451" lon="5.71801">
        <ele>1036</ele>
        <time>2023-05-18T07:53:01Z</time>
      </trkpt>
      <trkpt lat="44.6545" lon="5.71803">
        <ele>1036</ele>
        <time>2023-05-18T07:53:02Z</time>
      </trkpt>
      <trkpt lat="44.65448" lon="5.71806">
        <ele>1036.2</ele>
        <time>2023-05-18T07:53:03Z</time>
      </trkpt>
      <trkpt lat="44.65442" lon="5.71817">
        <ele>1036.4</ele>
        <time>2023-05-18T07:53:08Z</time>
      </trkpt>
      <trkpt lat="44.6544" lon="5.71819">
        <ele>1036.4</ele>
        <time>2023-05-18T07:53:09Z</time>
      </trkpt>
      <trkpt lat="44.65439" lon="5.71821">
        <ele>1036.4</ele>
        <time>2023-05-18T07:53:10Z</time>
      </trkpt>
      <trkpt lat="44.65438" lon="5.71824">
        <ele>1036.4</ele>
        <time>2023-05-18T07:53:11Z</time>
      </trkpt>
      <trkpt lat="44.65433" lon="5.71836">
        <ele>1036.6</ele>
        <time>2023-05-18T07:53:16Z</time>
      </trkpt>
      <trkpt lat="44.65432" lon="5.71838">
        <ele>1036.8</ele>
        <time>2023-05-18T07:53:17Z</time>
      </trkpt>
      <trkpt lat="44.6543" lon="5.7184">
        <ele>1037</ele>
        <time>2023-05-18T07:53:18Z</time>
      </trkpt>
      <trkpt lat="44.65425" lon="5.7185">
        <ele>1037.2</ele>
        <time>2023-05-18T07:53:22Z</time>
      </trkpt>
      <trkpt lat="44.65422" lon="5.71856">
        <ele>1037.4</ele>
        <time>2023-05-18T07:53:25Z</time>
      </trkpt>
      <trkpt lat="44.65416" lon="5.71861">
        <ele>1037.6</ele>
        <time>2023-05-18T07:53:28Z</time>
      </trkpt>
      <trkpt lat="44.65415" lon="5.71861">
        <ele>1037.8</ele>
        <time>2023-05-18T07:53:29Z</time>
      </trkpt>
      <trkpt lat="44.6541" lon="5.71861">
        <ele>1038</ele>
        <time>2023-05-18T07:53:31Z</time>
      </trkpt>
      <trkpt lat="44.65408" lon="5.71861">
        <ele>1038</ele>
        <time>2023-05-18T07:53:32Z</time>
      </trkpt>
      <trkpt lat="44.65406" lon="5.7186">
        <ele>1038</ele>
        <time>2023-05-18T07:53:33Z</time>
      </trkpt>
      <trkpt lat="44.65403" lon="5.71859">
        <ele>1038</ele>
        <time>2023-05-18T07:53:34Z</time>
      </trkpt>
      <trkpt lat="44.65392" lon="5.71854">
        <ele>1038.2</ele>
        <time>2023-05-18T07:53:38Z</time>
      </trkpt>
      <trkpt lat="44.65374" lon="5.71848">
        <ele>1037.8</ele>
        <time>2023-05-18T07:53:44Z</time>
      </trkpt>
      <trkpt lat="44.6536" lon="5.71845">
        <ele>1037.2</ele>
        <time>2023-05-18T07:53:49Z</time>
      </trkpt>
      <trkpt lat="44.65358" lon="5.71845">
        <ele>1037.2</ele>
        <time>2023-05-18T07:53:50Z</time>
      </trkpt>
      <trkpt lat="44.65358" lon="5.71845">
        <ele>1037.2</ele>
        <time>2023-05-18T07:53:51Z</time>
      </trkpt>
      <trkpt lat="44.65358" lon="5.71845">
        <ele>1037.2</ele>
        <time>2023-05-18T07:53:52Z</time>
      </trkpt>
      <trkpt lat="44.65357" lon="5.71844">
        <ele>1037.2</ele>
        <time>2023-05-18T07:53:53Z</time>
      </trkpt>
      <trkpt lat="44.65357" lon="5.71844">
        <ele>1037.2</ele>
        <time>2023-05-18T07:53:54Z</time>
      </trkpt>
      <trkpt lat="44.65357" lon="5.71844">
        <ele>1037.2</ele>
        <time>2023-05-18T07:53:55Z</time>
      </trkpt>
      <trkpt lat="44.65356" lon="5.71844">
        <ele>1037.2</ele>
        <time>2023-05-18T07:53:56Z</time>
      </trkpt>
      <trkpt lat="44.65355" lon="5.71843">
        <ele>1037.4</ele>
        <time>2023-05-18T07:53:58Z</time>
      </trkpt>
      <trkpt lat="44.65354" lon="5.71842">
        <ele>1037.4</ele>
        <time>2023-05-18T07:53:59Z</time>
      </trkpt>
      <trkpt lat="44.65353" lon="5.71842">
        <ele>1037.6</ele>
        <time>2023-05-18T07:54:00Z</time>
      </trkpt>
      <trkpt lat="44.65351" lon="5.71841">
        <ele>1037.8</ele>
        <time>2023-05-18T07:54:01Z</time>
      </trkpt>
      <trkpt lat="44.6535" lon="5.71841">
        <ele>1037.8</ele>
        <time>2023-05-18T07:54:02Z</time>
      </trkpt>
      <trkpt lat="44.65349" lon="5.7184">
        <ele>1037.8</ele>
        <time>2023-05-18T07:54:03Z</time>
      </trkpt>
      <trkpt lat="44.65348" lon="5.7184">
        <ele>1038</ele>
        <time>2023-05-18T07:54:06Z</time>
      </trkpt>
      <trkpt lat="44.65342" lon="5.71833">
        <ele>1037.8</ele>
        <time>2023-05-18T07:54:11Z</time>
      </trkpt>
      <trkpt lat="44.65338" lon="5.7183">
        <ele>1037.6</ele>
        <time>2023-05-18T07:54:13Z</time>
      </trkpt>
      <trkpt lat="44.65336" lon="5.71829">
        <ele>1037.6</ele>
        <time>2023-05-18T07:54:14Z</time>
      </trkpt>
      <trkpt lat="44.65335" lon="5.71828">
        <ele>1037.6</ele>
        <time>2023-05-18T07:54:15Z</time>
      </trkpt>
      <trkpt lat="44.65334" lon="5.71827">
        <ele>1037.6</ele>
        <time>2023-05-18T07:54:16Z</time>
      </trkpt>
      <trkpt lat="44.65329" lon="5.71826">
        <ele>1037.6</ele>
        <time>2023-05-18T07:54:19Z</time>
      </trkpt>
      <trkpt lat="44.65327" lon="5.71826">
        <ele>1037.6</ele>
        <time>2023-05-18T07:54:20Z</time>
      </trkpt>
      <trkpt lat="44.65326" lon="5.71827">
        <ele>1037.6</ele>
        <time>2023-05-18T07:54:21Z</time>
      </trkpt>
      <trkpt lat="44.65326" lon="5.71827">
        <ele>1037.8</ele>
        <time>2023-05-18T07:54:22Z</time>
      </trkpt>
      <trkpt lat="44.65325" lon="5.71828">
        <ele>1038</ele>
        <time>2023-05-18T07:54:23Z</time>
      </trkpt>
      <trkpt lat="44.65324" lon="5.7183">
        <ele>1038</ele>
        <time>2023-05-18T07:54:24Z</time>
      </trkpt>
      <trkpt lat="44.65323" lon="5.71831">
        <ele>1038.2</ele>
        <time>2023-05-18T07:54:25Z</time>
      </trkpt>
      <trkpt lat="44.65322" lon="5.71831">
        <ele>1038.2</ele>
        <time>2023-05-18T07:54:26Z</time>
      </trkpt>
      <trkpt lat="44.65322" lon="5.71832">
        <ele>1038.4</ele>
        <time>2023-05-18T07:54:27Z</time>
      </trkpt>
      <trkpt lat="44.65321" lon="5.71833">
        <ele>1038.4</ele>
        <time>2023-05-18T07:54:28Z</time>
      </trkpt>
      <trkpt lat="44.6532" lon="5.71835">
        <ele>1038.6</ele>
        <time>2023-05-18T07:54:29Z</time>
      </trkpt>
      <trkpt lat="44.6532" lon="5.71837">
        <ele>1038.6</ele>
        <time>2023-05-18T07:54:30Z</time>
      </trkpt>
      <trkpt lat="44.65319" lon="5.71839">
        <ele>1038.8</ele>
        <time>2023-05-18T07:54:31Z</time>
      </trkpt>
      <trkpt lat="44.65317" lon="5.71841">
        <ele>1039</ele>
        <time>2023-05-18T07:54:33Z</time>
      </trkpt>
      <trkpt lat="44.65315" lon="5.71845">
        <ele>1039.2</ele>
        <time>2023-05-18T07:54:35Z</time>
      </trkpt>
      <trkpt lat="44.65314" lon="5.71846">
        <ele>1039.4</ele>
        <time>2023-05-18T07:54:36Z</time>
      </trkpt>
      <trkpt lat="44.65314" lon="5.71846">
        <ele>1039.6</ele>
        <time>2023-05-18T07:54:37Z</time>
      </trkpt>
      <trkpt lat="44.65313" lon="5.71847">
        <ele>1039.8</ele>
        <time>2023-05-18T07:54:38Z</time>
      </trkpt>
      <trkpt lat="44.65313" lon="5.71848">
        <ele>1040</ele>
        <time>2023-05-18T07:54:39Z</time>
      </trkpt>
      <trkpt lat="44.65312" lon="5.71849">
        <ele>1040.2</ele>
        <time>2023-05-18T07:54:40Z</time>
      </trkpt>
      <trkpt lat="44.65312" lon="5.71849">
        <ele>1040.2</ele>
        <time>2023-05-18T07:54:41Z</time>
      </trkpt>
      <trkpt lat="44.65312" lon="5.71849">
        <ele>1040.4</ele>
        <time>2023-05-18T07:54:42Z</time>
      </trkpt>
      <trkpt lat="44.65311" lon="5.7185">
        <ele>1040.4</ele>
        <time>2023-05-18T07:54:43Z</time>
      </trkpt>
      <trkpt lat="44.65311" lon="5.7185">
        <ele>1040.4</ele>
        <time>2023-05-18T07:54:44Z</time>
      </trkpt>
      <trkpt lat="44.65311" lon="5.7185">
        <ele>1040.8</ele>
        <time>2023-05-18T07:54:45Z</time>
      </trkpt>
      <trkpt lat="44.65309" lon="5.71851">
        <ele>1040.8</ele>
        <time>2023-05-18T07:54:46Z</time>
      </trkpt>
      <trkpt lat="44.65308" lon="5.71852">
        <ele>1041.2</ele>
        <time>2023-05-18T07:54:47Z</time>
      </trkpt>
      <trkpt lat="44.65306" lon="5.71853">
        <ele>1041.2</ele>
        <time>2023-05-18T07:54:48Z</time>
      </trkpt>
      <trkpt lat="44.65306" lon="5.71854">
        <ele>1041.6</ele>
        <time>2023-05-18T07:54:49Z</time>
      </trkpt>
      <trkpt lat="44.65305" lon="5.71857">
        <ele>1041.8</ele>
        <time>2023-05-18T07:54:50Z</time>
      </trkpt>
      <trkpt lat="44.65304" lon="5.71859">
        <ele>1042</ele>
        <time>2023-05-18T07:54:51Z</time>
      </trkpt>
      <trkpt lat="44.65303" lon="5.71861">
        <ele>1042</ele>
        <time>2023-05-18T07:54:52Z</time>
      </trkpt>
      <trkpt lat="44.65303" lon="5.71862">
        <ele>1042.2</ele>
        <time>2023-05-18T07:54:53Z</time>
      </trkpt>
      <trkpt lat="44.65302" lon="5.71862">
        <ele>1042.2</ele>
        <time>2023-05-18T07:54:54Z</time>
      </trkpt>
      <trkpt lat="44.65301" lon="5.71864">
        <ele>1042.4</ele>
        <time>2023-05-18T07:54:55Z</time>
      </trkpt>
      <trkpt lat="44.65301" lon="5.71866">
        <ele>1042.8</ele>
        <time>2023-05-18T07:54:56Z</time>
      </trkpt>
      <trkpt lat="44.653" lon="5.71869">
        <ele>1042.8</ele>
        <time>2023-05-18T07:54:57Z</time>
      </trkpt>
      <trkpt lat="44.65299" lon="5.71871">
        <ele>1043</ele>
        <time>2023-05-18T07:54:58Z</time>
      </trkpt>
      <trkpt lat="44.65298" lon="5.71873">
        <ele>1043.2</ele>
        <time>2023-05-18T07:54:59Z</time>
      </trkpt>
      <trkpt lat="44.65297" lon="5.71874">
        <ele>1043.4</ele>
        <time>2023-05-18T07:55:00Z</time>
      </trkpt>
      <trkpt lat="44.65296" lon="5.71875">
        <ele>1043.4</ele>
        <time>2023-05-18T07:55:01Z</time>
      </trkpt>
      <trkpt lat="44.65295" lon="5.71876">
        <ele>1043.4</ele>
        <time>2023-05-18T07:55:02Z</time>
      </trkpt>
      <trkpt lat="44.65295" lon="5.71877">
        <ele>1043.6</ele>
        <time>2023-05-18T07:55:03Z</time>
      </trkpt>
      <trkpt lat="44.65294" lon="5.71879">
        <ele>1043.4</ele>
        <time>2023-05-18T07:55:04Z</time>
      </trkpt>
      <trkpt lat="44.65293" lon="5.71881">
        <ele>1043.6</ele>
        <time>2023-05-18T07:55:05Z</time>
      </trkpt>
      <trkpt lat="44.65293" lon="5.71882">
        <ele>1043.8</ele>
        <time>2023-05-18T07:55:06Z</time>
      </trkpt>
      <trkpt lat="44.65293" lon="5.71882">
        <ele>1044</ele>
        <time>2023-05-18T07:55:07Z</time>
      </trkpt>
      <trkpt lat="44.65292" lon="5.71884">
        <ele>1044.2</ele>
        <time>2023-05-18T07:55:08Z</time>
      </trkpt>
      <trkpt lat="44.65291" lon="5.71886">
        <ele>1044.4</ele>
        <time>2023-05-18T07:55:09Z</time>
      </trkpt>
      <trkpt lat="44.6529" lon="5.71888">
        <ele>1044.6</ele>
        <time>2023-05-18T07:55:10Z</time>
      </trkpt>
      <trkpt lat="44.6529" lon="5.71891">
        <ele>1044.6</ele>
        <time>2023-05-18T07:55:11Z</time>
      </trkpt>
      <trkpt lat="44.6529" lon="5.71893">
        <ele>1044.8</ele>
        <time>2023-05-18T07:55:12Z</time>
      </trkpt>
      <trkpt lat="44.65289" lon="5.71895">
        <ele>1045</ele>
        <time>2023-05-18T07:55:13Z</time>
      </trkpt>
      <trkpt lat="44.65289" lon="5.71898">
        <ele>1045.2</ele>
        <time>2023-05-18T07:55:14Z</time>
      </trkpt>
      <trkpt lat="44.65289" lon="5.71901">
        <ele>1045.2</ele>
        <time>2023-05-18T07:55:15Z</time>
      </trkpt>
      <trkpt lat="44.65288" lon="5.71903">
        <ele>1045.2</ele>
        <time>2023-05-18T07:55:16Z</time>
      </trkpt>
      <trkpt lat="44.65288" lon="5.71905">
        <ele>1045.6</ele>
        <time>2023-05-18T07:55:17Z</time>
      </trkpt>
      <trkpt lat="44.65288" lon="5.71908">
        <ele>1045.6</ele>
        <time>2023-05-18T07:55:18Z</time>
      </trkpt>
      <trkpt lat="44.65287" lon="5.71911">
        <ele>1045.8</ele>
        <time>2023-05-18T07:55:19Z</time>
      </trkpt>
      <trkpt lat="44.65282" lon="5.71913">
        <ele>1045.8</ele>
        <time>2023-05-18T07:55:20Z</time>
      </trkpt>
      <trkpt lat="44.65281" lon="5.71916">
        <ele>1046</ele>
        <time>2023-05-18T07:55:21Z</time>
      </trkpt>
      <trkpt lat="44.6528" lon="5.71918">
        <ele>1046</ele>
        <time>2023-05-18T07:55:22Z</time>
      </trkpt>
      <trkpt lat="44.65278" lon="5.7192">
        <ele>1046.2</ele>
        <time>2023-05-18T07:55:23Z</time>
      </trkpt>
      <trkpt lat="44.65277" lon="5.71922">
        <ele>1046.2</ele>
        <time>2023-05-18T07:55:24Z</time>
      </trkpt>
      <trkpt lat="44.65275" lon="5.71923">
        <ele>1046.4</ele>
        <time>2023-05-18T07:55:25Z</time>
      </trkpt>
      <trkpt lat="44.65274" lon="5.71924">
        <ele>1046.6</ele>
        <time>2023-05-18T07:55:26Z</time>
      </trkpt>
      <trkpt lat="44.65273" lon="5.71924">
        <ele>1046.6</ele>
        <time>2023-05-18T07:55:27Z</time>
      </trkpt>
      <trkpt lat="44.65273" lon="5.71924">
        <ele>1046.6</ele>
        <time>2023-05-18T07:55:28Z</time>
      </trkpt>
      <trkpt lat="44.65271" lon="5.71923">
        <ele>1046.6</ele>
        <time>2023-05-18T07:55:29Z</time>
      </trkpt>
      <trkpt lat="44.6527" lon="5.71922">
        <ele>1047</ele>
        <time>2023-05-18T07:55:30Z</time>
      </trkpt>
      <trkpt lat="44.65268" lon="5.71921">
        <ele>1047</ele>
        <time>2023-05-18T07:55:31Z</time>
      </trkpt>
      <trkpt lat="44.65268" lon="5.71919">
        <ele>1047.4</ele>
        <time>2023-05-18T07:55:32Z</time>
      </trkpt>
      <trkpt lat="44.65268" lon="5.71918">
        <ele>1047.4</ele>
        <time>2023-05-18T07:55:33Z</time>
      </trkpt>
      <trkpt lat="44.65268" lon="5.71916">
        <ele>1047.6</ele>
        <time>2023-05-18T07:55:34Z</time>
      </trkpt>
      <trkpt lat="44.65268" lon="5.71914">
        <ele>1047.8</ele>
        <time>2023-05-18T07:55:35Z</time>
      </trkpt>
      <trkpt lat="44.65269" lon="5.71912">
        <ele>1047.8</ele>
        <time>2023-05-18T07:55:36Z</time>
      </trkpt>
      <trkpt lat="44.65268" lon="5.7191">
        <ele>1048</ele>
        <time>2023-05-18T07:55:37Z</time>
      </trkpt>
      <trkpt lat="44.65268" lon="5.71908">
        <ele>1048.2</ele>
        <time>2023-05-18T07:55:38Z</time>
      </trkpt>
      <trkpt lat="44.65268" lon="5.71907">
        <ele>1048.4</ele>
        <time>2023-05-18T07:55:39Z</time>
      </trkpt>
      <trkpt lat="44.65268" lon="5.71906">
        <ele>1048.4</ele>
        <time>2023-05-18T07:55:40Z</time>
      </trkpt>
      <trkpt lat="44.65268" lon="5.71906">
        <ele>1048.6</ele>
        <time>2023-05-18T07:55:41Z</time>
      </trkpt>
      <trkpt lat="44.65268" lon="5.71906">
        <ele>1048.8</ele>
        <time>2023-05-18T07:55:42Z</time>
      </trkpt>
      <trkpt lat="44.65268" lon="5.71906">
        <ele>1049.2</ele>
        <time>2023-05-18T07:55:46Z</time>
      </trkpt>
      <trkpt lat="44.65268" lon="5.71906">
        <ele>1049</ele>
        <time>2023-05-18T07:55:55Z</time>
      </trkpt>
      <trkpt lat="44.65268" lon="5.71906">
        <ele>1049</ele>
        <time>2023-05-18T07:55:57Z</time>
      </trkpt>
      <trkpt lat="44.65269" lon="5.71907">
        <ele>1049</ele>
        <time>2023-05-18T07:55:58Z</time>
      </trkpt>
      <trkpt lat="44.65268" lon="5.71914">
        <ele>1049</ele>
        <time>2023-05-18T07:56:01Z</time>
      </trkpt>
      <trkpt lat="44.65268" lon="5.71916">
        <ele>1048.8</ele>
        <time>2023-05-18T07:56:02Z</time>
      </trkpt>
      <trkpt lat="44.65269" lon="5.71919">
        <ele>1048.6</ele>
        <time>2023-05-18T07:56:03Z</time>
      </trkpt>
      <trkpt lat="44.65271" lon="5.71924">
        <ele>1048.6</ele>
        <time>2023-05-18T07:56:05Z</time>
      </trkpt>
      <trkpt lat="44.65273" lon="5.71925">
        <ele>1048.2</ele>
        <time>2023-05-18T07:56:06Z</time>
      </trkpt>
      <trkpt lat="44.65274" lon="5.71926">
        <ele>1048.2</ele>
        <time>2023-05-18T07:56:07Z</time>
      </trkpt>
      <trkpt lat="44.65275" lon="5.71925">
        <ele>1048</ele>
        <time>2023-05-18T07:56:08Z</time>
      </trkpt>
      <trkpt lat="44.65276" lon="5.71925">
        <ele>1047.8</ele>
        <time>2023-05-18T07:56:09Z</time>
      </trkpt>
      <trkpt lat="44.65277" lon="5.71926">
        <ele>1047.6</ele>
        <time>2023-05-18T07:56:10Z</time>
      </trkpt>
      <trkpt lat="44.65277" lon="5.71926">
        <ele>1047.4</ele>
        <time>2023-05-18T07:56:11Z</time>
      </trkpt>
      <trkpt lat="44.65276" lon="5.71926">
        <ele>1047.2</ele>
        <time>2023-05-18T07:56:14Z</time>
      </trkpt>
      <trkpt lat="44.65276" lon="5.71926">
        <ele>1047</ele>
        <time>2023-05-18T07:56:16Z</time>
      </trkpt>
      <trkpt lat="44.65276" lon="5.71926">
        <ele>1046.8</ele>
        <time>2023-05-18T07:56:25Z</time>
      </trkpt>
      <trkpt lat="44.65276" lon="5.71925">
        <ele>1046.6</ele>
        <time>2023-05-18T07:56:32Z</time>
      </trkpt>
      <trkpt lat="44.65278" lon="5.71924">
        <ele>1046.8</ele>
        <time>2023-05-18T07:56:49Z</time>
      </trkpt>
      <trkpt lat="44.65278" lon="5.71923">
        <ele>1046.8</ele>
        <time>2023-05-18T07:56:50Z</time>
      </trkpt>
      <trkpt lat="44.65279" lon="5.71921">
        <ele>1046.8</ele>
        <time>2023-05-18T07:56:52Z</time>
      </trkpt>
      <trkpt lat="44.65279" lon="5.71919">
        <ele>1046.8</ele>
        <time>2023-05-18T07:56:53Z</time>
      </trkpt>
      <trkpt lat="44.65279" lon="5.71915">
        <ele>1046.2</ele>
        <time>2023-05-18T07:56:56Z</time>
      </trkpt>
      <trkpt lat="44.65279" lon="5.71915">
        <ele>1046.2</ele>
        <time>2023-05-18T07:56:57Z</time>
      </trkpt>
      <trkpt lat="44.65279" lon="5.71915">
        <ele>1046.2</ele>
        <time>2023-05-18T07:56:58Z</time>
      </trkpt>
      <trkpt lat="44.65279" lon="5.71915">
        <ele>1046</ele>
        <time>2023-05-18T07:57:04Z</time>
      </trkpt>
      <trkpt lat="44.65279" lon="5.71915">
        <ele>1046</ele>
        <time>2023-05-18T07:57:07Z</time>
      </trkpt>
      <trkpt lat="44.65279" lon="5.71915">
        <ele>1045.8</ele>
        <time>2023-05-18T07:57:17Z</time>
      </trkpt>
      <trkpt lat="44.65279" lon="5.71915">
        <ele>1045.8</ele>
        <time>2023-05-18T07:57:38Z</time>
      </trkpt>
      <trkpt lat="44.65279" lon="5.71915">
        <ele>1045.2</ele>
        <time>2023-05-18T07:57:48Z</time>
      </trkpt>
      <trkpt lat="44.65279" lon="5.71915">
        <ele>1045.8</ele>
        <time>2023-05-18T07:58:03Z</time>
      </trkpt>
      <trkpt lat="44.65279" lon="5.71915">
        <ele>1046</ele>
        <time>2023-05-18T07:58:06Z</time>
      </trkpt>
      <trkpt lat="44.65279" lon="5.71915">
        <ele>1045.6</ele>
        <time>2023-05-18T07:58:22Z</time>
      </trkpt>
      <trkpt lat="44.65279" lon="5.71915">
        <ele>1045.6</ele>
        <time>2023-05-18T07:58:42Z</time>
      </trkpt>
      <trkpt lat="44.65279" lon="5.71915">
        <ele>1045.6</ele>
        <time>2023-05-18T07:58:46Z</time>
      </trkpt>
      <trkpt lat="44.65279" lon="5.71915">
        <ele>1046</ele>
        <time>2023-05-18T07:58:52Z</time>
      </trkpt>
      <trkpt lat="44.65279" lon="5.71915">
        <ele>1045.6</ele>
        <time>2023-05-18T07:59:08Z</time>
      </trkpt>
      <trkpt lat="44.65279" lon="5.71913">
        <ele>1045.6</ele>
        <time>2023-05-18T07:59:21Z</time>
      </trkpt>
      <trkpt lat="44.6528" lon="5.71911">
        <ele>1045.6</ele>
        <time>2023-05-18T07:59:22Z</time>
      </trkpt>
      <trkpt lat="44.65284" lon="5.71904">
        <ele>1045.6</ele>
        <time>2023-05-18T07:59:25Z</time>
      </trkpt>
      <trkpt lat="44.65295" lon="5.71886">
        <ele>1045.4</ele>
        <time>2023-05-18T07:59:29Z</time>
      </trkpt>
      <trkpt lat="44.6531" lon="5.71866">
        <ele>1044.2</ele>
        <time>2023-05-18T07:59:33Z</time>
      </trkpt>
      <trkpt lat="44.65318" lon="5.71855">
        <ele>1043.8</ele>
        <time>2023-05-18T07:59:35Z</time>
      </trkpt>
      <trkpt lat="44.65324" lon="5.71847">
        <ele>1042.8</ele>
        <time>2023-05-18T07:59:37Z</time>
      </trkpt>
      <trkpt lat="44.65326" lon="5.71844">
        <ele>1042.4</ele>
        <time>2023-05-18T07:59:38Z</time>
      </trkpt>
      <trkpt lat="44.65328" lon="5.71841">
        <ele>1041.6</ele>
        <time>2023-05-18T07:59:39Z</time>
      </trkpt>
      <trkpt lat="44.6533" lon="5.71841">
        <ele>1041.2</ele>
        <time>2023-05-18T07:59:40Z</time>
      </trkpt>
      <trkpt lat="44.6533" lon="5.71842">
        <ele>1040.8</ele>
        <time>2023-05-18T07:59:41Z</time>
      </trkpt>
      <trkpt lat="44.65328" lon="5.71842">
        <ele>1040.4</ele>
        <time>2023-05-18T07:59:42Z</time>
      </trkpt>
      <trkpt lat="44.65326" lon="5.71842">
        <ele>1040.2</ele>
        <time>2023-05-18T07:59:43Z</time>
      </trkpt>
      <trkpt lat="44.65322" lon="5.71846">
        <ele>1040</ele>
        <time>2023-05-18T07:59:45Z</time>
      </trkpt>
      <trkpt lat="44.65321" lon="5.71849">
        <ele>1039.8</ele>
        <time>2023-05-18T07:59:46Z</time>
      </trkpt>
      <trkpt lat="44.6532" lon="5.7185">
        <ele>1039.6</ele>
        <time>2023-05-18T07:59:47Z</time>
      </trkpt>
      <trkpt lat="44.65319" lon="5.71851">
        <ele>1039.6</ele>
        <time>2023-05-18T07:59:48Z</time>
      </trkpt>
      <trkpt lat="44.65317" lon="5.71853">
        <ele>1039.6</ele>
        <time>2023-05-18T07:59:49Z</time>
      </trkpt>
      <trkpt lat="44.65316" lon="5.71856">
        <ele>1039.6</ele>
        <time>2023-05-18T07:59:50Z</time>
      </trkpt>
      <trkpt lat="44.65315" lon="5.71858">
        <ele>1039.6</ele>
        <time>2023-05-18T07:59:51Z</time>
      </trkpt>
      <trkpt lat="44.65314" lon="5.7186">
        <ele>1039.8</ele>
        <time>2023-05-18T07:59:52Z</time>
      </trkpt>
      <trkpt lat="44.65312" lon="5.71862">
        <ele>1039.8</ele>
        <time>2023-05-18T07:59:53Z</time>
      </trkpt>
      <trkpt lat="44.6531" lon="5.71863">
        <ele>1039.8</ele>
        <time>2023-05-18T07:59:54Z</time>
      </trkpt>
      <trkpt lat="44.65309" lon="5.71865">
        <ele>1039.8</ele>
        <time>2023-05-18T07:59:55Z</time>
      </trkpt>
      <trkpt lat="44.65309" lon="5.71868">
        <ele>1040</ele>
        <time>2023-05-18T07:59:56Z</time>
      </trkpt>
      <trkpt lat="44.65308" lon="5.71871">
        <ele>1040</ele>
        <time>2023-05-18T07:59:57Z</time>
      </trkpt>
      <trkpt lat="44.65309" lon="5.71874">
        <ele>1040</ele>
        <time>2023-05-18T07:59:58Z</time>
      </trkpt>
      <trkpt lat="44.65308" lon="5.71876">
        <ele>1040.2</ele>
        <time>2023-05-18T07:59:59Z</time>
      </trkpt>
      <trkpt lat="44.65308" lon="5.71878">
        <ele>1040.2</ele>
        <time>2023-05-18T08:00:00Z</time>
      </trkpt>
      <trkpt lat="44.65306" lon="5.71884">
        <ele>1040.4</ele>
        <time>2023-05-18T08:00:02Z</time>
      </trkpt>
      <trkpt lat="44.65306" lon="5.71885">
        <ele>1040.6</ele>
        <time>2023-05-18T08:00:03Z</time>
      </trkpt>
      <trkpt lat="44.65306" lon="5.71886">
        <ele>1040.8</ele>
        <time>2023-05-18T08:00:04Z</time>
      </trkpt>
      <trkpt lat="44.65306" lon="5.71887">
        <ele>1040.8</ele>
        <time>2023-05-18T08:00:05Z</time>
      </trkpt>
      <trkpt lat="44.65305" lon="5.71888">
        <ele>1040.8</ele>
        <time>2023-05-18T08:00:06Z</time>
      </trkpt>
      <trkpt lat="44.65303" lon="5.71889">
        <ele>1041</ele>
        <time>2023-05-18T08:00:07Z</time>
      </trkpt>
      <trkpt lat="44.65302" lon="5.7189">
        <ele>1041</ele>
        <time>2023-05-18T08:00:08Z</time>
      </trkpt>
      <trkpt lat="44.65302" lon="5.71891">
        <ele>1041.2</ele>
        <time>2023-05-18T08:00:09Z</time>
      </trkpt>
      <trkpt lat="44.65301" lon="5.71893">
        <ele>1041.4</ele>
        <time>2023-05-18T08:00:10Z</time>
      </trkpt>
      <trkpt lat="44.653" lon="5.71894">
        <ele>1041.4</ele>
        <time>2023-05-18T08:00:11Z</time>
      </trkpt>
      <trkpt lat="44.653" lon="5.71895">
        <ele>1041.6</ele>
        <time>2023-05-18T08:00:12Z</time>
      </trkpt>
      <trkpt lat="44.65296" lon="5.71897">
        <ele>1041.6</ele>
        <time>2023-05-18T08:00:14Z</time>
      </trkpt>
      <trkpt lat="44.65295" lon="5.71899">
        <ele>1041.6</ele>
        <time>2023-05-18T08:00:15Z</time>
      </trkpt>
      <trkpt lat="44.65294" lon="5.719">
        <ele>1041.8</ele>
        <time>2023-05-18T08:00:16Z</time>
      </trkpt>
      <trkpt lat="44.65293" lon="5.71903">
        <ele>1041.8</ele>
        <time>2023-05-18T08:00:17Z</time>
      </trkpt>
      <trkpt lat="44.65293" lon="5.71906">
        <ele>1041.8</ele>
        <time>2023-05-18T08:00:18Z</time>
      </trkpt>
      <trkpt lat="44.65292" lon="5.71913">
        <ele>1042</ele>
        <time>2023-05-18T08:00:21Z</time>
      </trkpt>
      <trkpt lat="44.65292" lon="5.71915">
        <ele>1042.2</ele>
        <time>2023-05-18T08:00:22Z</time>
      </trkpt>
      <trkpt lat="44.65292" lon="5.71918">
        <ele>1042.2</ele>
        <time>2023-05-18T08:00:23Z</time>
      </trkpt>
      <trkpt lat="44.65292" lon="5.71921">
        <ele>1042.4</ele>
        <time>2023-05-18T08:00:24Z</time>
      </trkpt>
      <trkpt lat="44.6529" lon="5.71926">
        <ele>1042.4</ele>
        <time>2023-05-18T08:00:26Z</time>
      </trkpt>
      <trkpt lat="44.65289" lon="5.71929">
        <ele>1042.6</ele>
        <time>2023-05-18T08:00:27Z</time>
      </trkpt>
      <trkpt lat="44.65285" lon="5.71933">
        <ele>1042.6</ele>
        <time>2023-05-18T08:00:28Z</time>
      </trkpt>
      <trkpt lat="44.65284" lon="5.71937">
        <ele>1042.8</ele>
        <time>2023-05-18T08:00:29Z</time>
      </trkpt>
      <trkpt lat="44.6528" lon="5.71946">
        <ele>1042.8</ele>
        <time>2023-05-18T08:00:32Z</time>
      </trkpt>
      <trkpt lat="44.6528" lon="5.71949">
        <ele>1042.8</ele>
        <time>2023-05-18T08:00:33Z</time>
      </trkpt>
      <trkpt lat="44.6528" lon="5.71953">
        <ele>1042.8</ele>
        <time>2023-05-18T08:00:34Z</time>
      </trkpt>
      <trkpt lat="44.6528" lon="5.71956">
        <ele>1042.8</ele>
        <time>2023-05-18T08:00:35Z</time>
      </trkpt>
      <trkpt lat="44.65281" lon="5.71963">
        <ele>1043</ele>
        <time>2023-05-18T08:00:38Z</time>
      </trkpt>
      <trkpt lat="44.6528" lon="5.71964">
        <ele>1043.2</ele>
        <time>2023-05-18T08:00:39Z</time>
      </trkpt>
      <trkpt lat="44.65281" lon="5.71972">
        <ele>1043.4</ele>
        <time>2023-05-18T08:00:41Z</time>
      </trkpt>
      <trkpt lat="44.65279" lon="5.71975">
        <ele>1043.2</ele>
        <time>2023-05-18T08:00:43Z</time>
      </trkpt>
      <trkpt lat="44.65274" lon="5.71979">
        <ele>1043.4</ele>
        <time>2023-05-18T08:00:45Z</time>
      </trkpt>
      <trkpt lat="44.65273" lon="5.71981">
        <ele>1043.4</ele>
        <time>2023-05-18T08:00:46Z</time>
      </trkpt>
      <trkpt lat="44.65272" lon="5.71983">
        <ele>1043.6</ele>
        <time>2023-05-18T08:00:47Z</time>
      </trkpt>
      <trkpt lat="44.65272" lon="5.71986">
        <ele>1043.8</ele>
        <time>2023-05-18T08:00:48Z</time>
      </trkpt>
      <trkpt lat="44.65272" lon="5.71989">
        <ele>1043.8</ele>
        <time>2023-05-18T08:00:49Z</time>
      </trkpt>
      <trkpt lat="44.65272" lon="5.71991">
        <ele>1044</ele>
        <time>2023-05-18T08:00:50Z</time>
      </trkpt>
      <trkpt lat="44.65273" lon="5.71993">
        <ele>1044</ele>
        <time>2023-05-18T08:00:51Z</time>
      </trkpt>
      <trkpt lat="44.65273" lon="5.71995">
        <ele>1044</ele>
        <time>2023-05-18T08:00:52Z</time>
      </trkpt>
      <trkpt lat="44.65272" lon="5.71997">
        <ele>1044.2</ele>
        <time>2023-05-18T08:00:53Z</time>
      </trkpt>
      <trkpt lat="44.65272" lon="5.71999">
        <ele>1044.4</ele>
        <time>2023-05-18T08:00:54Z</time>
      </trkpt>
      <trkpt lat="44.65272" lon="5.72001">
        <ele>1044.4</ele>
        <time>2023-05-18T08:00:55Z</time>
      </trkpt>
      <trkpt lat="44.65271" lon="5.72002">
        <ele>1044.4</ele>
        <time>2023-05-18T08:00:56Z</time>
      </trkpt>
      <trkpt lat="44.6527" lon="5.72004">
        <ele>1044.6</ele>
        <time>2023-05-18T08:00:57Z</time>
      </trkpt>
      <trkpt lat="44.65267" lon="5.72006">
        <ele>1044.8</ele>
        <time>2023-05-18T08:00:58Z</time>
      </trkpt>
      <trkpt lat="44.65267" lon="5.72008">
        <ele>1044.8</ele>
        <time>2023-05-18T08:00:59Z</time>
      </trkpt>
      <trkpt lat="44.65266" lon="5.7201">
        <ele>1045</ele>
        <time>2023-05-18T08:01:00Z</time>
      </trkpt>
      <trkpt lat="44.65265" lon="5.72012">
        <ele>1045</ele>
        <time>2023-05-18T08:01:01Z</time>
      </trkpt>
      <trkpt lat="44.65265" lon="5.72015">
        <ele>1045</ele>
        <time>2023-05-18T08:01:02Z</time>
      </trkpt>
      <trkpt lat="44.65264" lon="5.72018">
        <ele>1045</ele>
        <time>2023-05-18T08:01:03Z</time>
      </trkpt>
      <trkpt lat="44.65263" lon="5.72025">
        <ele>1045</ele>
        <time>2023-05-18T08:01:06Z</time>
      </trkpt>
      <trkpt lat="44.65262" lon="5.72029">
        <ele>1045.2</ele>
        <time>2023-05-18T08:01:08Z</time>
      </trkpt>
      <trkpt lat="44.65261" lon="5.72031">
        <ele>1045.2</ele>
        <time>2023-05-18T08:01:09Z</time>
      </trkpt>
      <trkpt lat="44.65259" lon="5.72034">
        <ele>1045.4</ele>
        <time>2023-05-18T08:01:12Z</time>
      </trkpt>
      <trkpt lat="44.65259" lon="5.72035">
        <ele>1045.4</ele>
        <time>2023-05-18T08:01:13Z</time>
      </trkpt>
      <trkpt lat="44.65259" lon="5.72036">
        <ele>1045.4</ele>
        <time>2023-05-18T08:01:14Z</time>
      </trkpt>
      <trkpt lat="44.65259" lon="5.72038">
        <ele>1045.6</ele>
        <time>2023-05-18T08:01:15Z</time>
      </trkpt>
      <trkpt lat="44.65258" lon="5.7204">
        <ele>1045.6</ele>
        <time>2023-05-18T08:01:16Z</time>
      </trkpt>
      <trkpt lat="44.65256" lon="5.72042">
        <ele>1045.6</ele>
        <time>2023-05-18T08:01:17Z</time>
      </trkpt>
      <trkpt lat="44.65255" lon="5.72043">
        <ele>1045.8</ele>
        <time>2023-05-18T08:01:18Z</time>
      </trkpt>
      <trkpt lat="44.65254" lon="5.72046">
        <ele>1045.8</ele>
        <time>2023-05-18T08:01:19Z</time>
      </trkpt>
      <trkpt lat="44.65253" lon="5.72049">
        <ele>1045.8</ele>
        <time>2023-05-18T08:01:20Z</time>
      </trkpt>
      <trkpt lat="44.65251" lon="5.72052">
        <ele>1045.8</ele>
        <time>2023-05-18T08:01:21Z</time>
      </trkpt>
      <trkpt lat="44.6525" lon="5.72056">
        <ele>1045.8</ele>
        <time>2023-05-18T08:01:22Z</time>
      </trkpt>
      <trkpt lat="44.65249" lon="5.72059">
        <ele>1045.6</ele>
        <time>2023-05-18T08:01:23Z</time>
      </trkpt>
      <trkpt lat="44.65247" lon="5.72064">
        <ele>1045.6</ele>
        <time>2023-05-18T08:01:24Z</time>
      </trkpt>
      <trkpt lat="44.65244" lon="5.72071">
        <ele>1045.6</ele>
        <time>2023-05-18T08:01:26Z</time>
      </trkpt>
      <trkpt lat="44.65243" lon="5.72073">
        <ele>1045.6</ele>
        <time>2023-05-18T08:01:27Z</time>
      </trkpt>
      <trkpt lat="44.65246" lon="5.72075">
        <ele>1045.6</ele>
        <time>2023-05-18T08:01:28Z</time>
      </trkpt>
      <trkpt lat="44.65245" lon="5.72077">
        <ele>1045.6</ele>
        <time>2023-05-18T08:01:29Z</time>
      </trkpt>
      <trkpt lat="44.65245" lon="5.72077">
        <ele>1045.6</ele>
        <time>2023-05-18T08:01:30Z</time>
      </trkpt>
      <trkpt lat="44.65245" lon="5.72077">
        <ele>1045.6</ele>
        <time>2023-05-18T08:01:31Z</time>
      </trkpt>
      <trkpt lat="44.65245" lon="5.72078">
        <ele>1046.4</ele>
        <time>2023-05-18T08:01:34Z</time>
      </trkpt>
      <trkpt lat="44.65243" lon="5.72079">
        <ele>1047</ele>
        <time>2023-05-18T08:01:38Z</time>
      </trkpt>
      <trkpt lat="44.65243" lon="5.72079">
        <ele>1047.2</ele>
        <time>2023-05-18T08:01:39Z</time>
      </trkpt>
      <trkpt lat="44.65242" lon="5.72081">
        <ele>1047.4</ele>
        <time>2023-05-18T08:01:40Z</time>
      </trkpt>
      <trkpt lat="44.65243" lon="5.72084">
        <ele>1047.4</ele>
        <time>2023-05-18T08:01:41Z</time>
      </trkpt>
      <trkpt lat="44.65244" lon="5.72087">
        <ele>1047.2</ele>
        <time>2023-05-18T08:01:42Z</time>
      </trkpt>
      <trkpt lat="44.65244" lon="5.72089">
        <ele>1047.6</ele>
        <time>2023-05-18T08:01:43Z</time>
      </trkpt>
      <trkpt lat="44.65243" lon="5.72089">
        <ele>1047.6</ele>
        <time>2023-05-18T08:01:45Z</time>
      </trkpt>
      <trkpt lat="44.65243" lon="5.72089">
        <ele>1047.8</ele>
        <time>2023-05-18T08:01:47Z</time>
      </trkpt>
      <trkpt lat="44.65243" lon="5.72089">
        <ele>1048.2</ele>
        <time>2023-05-18T08:01:51Z</time>
      </trkpt>
      <trkpt lat="44.65243" lon="5.72089">
        <ele>1048.2</ele>
        <time>2023-05-18T08:01:52Z</time>
      </trkpt>
      <trkpt lat="44.65243" lon="5.72089">
        <ele>1048.2</ele>
        <time>2023-05-18T08:01:58Z</time>
      </trkpt>
      <trkpt lat="44.65243" lon="5.72089">
        <ele>1048.2</ele>
        <time>2023-05-18T08:02:18Z</time>
      </trkpt>
      <trkpt lat="44.65243" lon="5.72089">
        <ele>1048.6</ele>
        <time>2023-05-18T08:02:26Z</time>
      </trkpt>
      <trkpt lat="44.65243" lon="5.72089">
        <ele>1048.6</ele>
        <time>2023-05-18T08:02:28Z</time>
      </trkpt>
      <trkpt lat="44.65243" lon="5.72089">
        <ele>1048.4</ele>
        <time>2023-05-18T08:02:30Z</time>
      </trkpt>
      <trkpt lat="44.65243" lon="5.72089">
        <ele>1048.6</ele>
        <time>2023-05-18T08:02:31Z</time>
      </trkpt>
      <trkpt lat="44.65243" lon="5.72089">
        <ele>1048.4</ele>
        <time>2023-05-18T08:02:34Z</time>
      </trkpt>
      <trkpt lat="44.65243" lon="5.72088">
        <ele>1048.4</ele>
        <time>2023-05-18T08:02:39Z</time>
      </trkpt>
      <trkpt lat="44.65243" lon="5.72087">
        <ele>1048.2</ele>
        <time>2023-05-18T08:02:40Z</time>
      </trkpt>
      <trkpt lat="44.65244" lon="5.72087">
        <ele>1048.2</ele>
        <time>2023-05-18T08:02:41Z</time>
      </trkpt>
      <trkpt lat="44.65253" lon="5.72075">
        <ele>1047.8</ele>
        <time>2023-05-18T08:02:46Z</time>
      </trkpt>
      <trkpt lat="44.65258" lon="5.72068">
        <ele>1047.6</ele>
        <time>2023-05-18T08:02:48Z</time>
      </trkpt>
      <trkpt lat="44.65259" lon="5.72064">
        <ele>1047.2</ele>
        <time>2023-05-18T08:02:49Z</time>
      </trkpt>
      <trkpt lat="44.65258" lon="5.72061">
        <ele>1047.2</ele>
        <time>2023-05-18T08:02:50Z</time>
      </trkpt>
      <trkpt lat="44.65258" lon="5.72059">
        <ele>1046.6</ele>
        <time>2023-05-18T08:02:51Z</time>
      </trkpt>
      <trkpt lat="44.65258" lon="5.72057">
        <ele>1046.6</ele>
        <time>2023-05-18T08:02:52Z</time>
      </trkpt>
      <trkpt lat="44.65258" lon="5.72054">
        <ele>1046.4</ele>
        <time>2023-05-18T08:02:53Z</time>
      </trkpt>
      <trkpt lat="44.65258" lon="5.72053">
        <ele>1046.4</ele>
        <time>2023-05-18T08:02:54Z</time>
      </trkpt>
      <trkpt lat="44.65258" lon="5.72052">
        <ele>1046.4</ele>
        <time>2023-05-18T08:02:55Z</time>
      </trkpt>
      <trkpt lat="44.65258" lon="5.72051">
        <ele>1046.4</ele>
        <time>2023-05-18T08:02:56Z</time>
      </trkpt>
      <trkpt lat="44.65265" lon="5.72041">
        <ele>1046.4</ele>
        <time>2023-05-18T08:03:01Z</time>
      </trkpt>
      <trkpt lat="44.65266" lon="5.72038">
        <ele>1046.4</ele>
        <time>2023-05-18T08:03:02Z</time>
      </trkpt>
      <trkpt lat="44.65266" lon="5.72035">
        <ele>1046.4</ele>
        <time>2023-05-18T08:03:03Z</time>
      </trkpt>
      <trkpt lat="44.65267" lon="5.72031">
        <ele>1046.4</ele>
        <time>2023-05-18T08:03:04Z</time>
      </trkpt>
      <trkpt lat="44.65267" lon="5.72026">
        <ele>1046.2</ele>
        <time>2023-05-18T08:03:05Z</time>
      </trkpt>
      <trkpt lat="44.65265" lon="5.72022">
        <ele>1046.2</ele>
        <time>2023-05-18T08:03:06Z</time>
      </trkpt>
      <trkpt lat="44.65266" lon="5.72018">
        <ele>1046.2</ele>
        <time>2023-05-18T08:03:07Z</time>
      </trkpt>
      <trkpt lat="44.65269" lon="5.72011">
        <ele>1046.2</ele>
        <time>2023-05-18T08:03:09Z</time>
      </trkpt>
      <trkpt lat="44.65269" lon="5.72007">
        <ele>1046</ele>
        <time>2023-05-18T08:03:10Z</time>
      </trkpt>
      <trkpt lat="44.6527" lon="5.72004">
        <ele>1046</ele>
        <time>2023-05-18T08:03:11Z</time>
      </trkpt>
      <trkpt lat="44.65272" lon="5.72001">
        <ele>1046</ele>
        <time>2023-05-18T08:03:12Z</time>
      </trkpt>
      <trkpt lat="44.65274" lon="5.71989">
        <ele>1045.8</ele>
        <time>2023-05-18T08:03:15Z</time>
      </trkpt>
      <trkpt lat="44.65275" lon="5.71986">
        <ele>1045.6</ele>
        <time>2023-05-18T08:03:16Z</time>
      </trkpt>
      <trkpt lat="44.65277" lon="5.71979">
        <ele>1045.4</ele>
        <time>2023-05-18T08:03:18Z</time>
      </trkpt>
      <trkpt lat="44.65279" lon="5.71976">
        <ele>1045.2</ele>
        <time>2023-05-18T08:03:19Z</time>
      </trkpt>
      <trkpt lat="44.6528" lon="5.71973">
        <ele>1045.2</ele>
        <time>2023-05-18T08:03:20Z</time>
      </trkpt>
      <trkpt lat="44.65281" lon="5.7197">
        <ele>1045</ele>
        <time>2023-05-18T08:03:21Z</time>
      </trkpt>
      <trkpt lat="44.65283" lon="5.71967">
        <ele>1045</ele>
        <time>2023-05-18T08:03:22Z</time>
      </trkpt>
      <trkpt lat="44.65285" lon="5.71958">
        <ele>1044.8</ele>
        <time>2023-05-18T08:03:24Z</time>
      </trkpt>
      <trkpt lat="44.65286" lon="5.71954">
        <ele>1044.6</ele>
        <time>2023-05-18T08:03:25Z</time>
      </trkpt>
      <trkpt lat="44.65286" lon="5.71949">
        <ele>1044.6</ele>
        <time>2023-05-18T08:03:26Z</time>
      </trkpt>
      <trkpt lat="44.65285" lon="5.71944">
        <ele>1044.6</ele>
        <time>2023-05-18T08:03:27Z</time>
      </trkpt>
      <trkpt lat="44.65285" lon="5.7194">
        <ele>1044.6</ele>
        <time>2023-05-18T08:03:28Z</time>
      </trkpt>
      <trkpt lat="44.65286" lon="5.71936">
        <ele>1044.4</ele>
        <time>2023-05-18T08:03:29Z</time>
      </trkpt>
      <trkpt lat="44.65288" lon="5.71933">
        <ele>1044.2</ele>
        <time>2023-05-18T08:03:30Z</time>
      </trkpt>
      <trkpt lat="44.6529" lon="5.71927">
        <ele>1044.2</ele>
        <time>2023-05-18T08:03:31Z</time>
      </trkpt>
      <trkpt lat="44.65291" lon="5.71922">
        <ele>1044.2</ele>
        <time>2023-05-18T08:03:32Z</time>
      </trkpt>
      <trkpt lat="44.65293" lon="5.71917">
        <ele>1044.2</ele>
        <time>2023-05-18T08:03:33Z</time>
      </trkpt>
      <trkpt lat="44.65297" lon="5.71914">
        <ele>1044</ele>
        <time>2023-05-18T08:03:34Z</time>
      </trkpt>
      <trkpt lat="44.65298" lon="5.7191">
        <ele>1044</ele>
        <time>2023-05-18T08:03:35Z</time>
      </trkpt>
      <trkpt lat="44.65304" lon="5.71904">
        <ele>1043.4</ele>
        <time>2023-05-18T08:03:37Z</time>
      </trkpt>
      <trkpt lat="44.65306" lon="5.719">
        <ele>1043.2</ele>
        <time>2023-05-18T08:03:38Z</time>
      </trkpt>
      <trkpt lat="44.65308" lon="5.71888">
        <ele>1042.8</ele>
        <time>2023-05-18T08:03:40Z</time>
      </trkpt>
      <trkpt lat="44.6531" lon="5.7188">
        <ele>1042.6</ele>
        <time>2023-05-18T08:03:41Z</time>
      </trkpt>
      <trkpt lat="44.65313" lon="5.71876">
        <ele>1042.4</ele>
        <time>2023-05-18T08:03:42Z</time>
      </trkpt>
      <trkpt lat="44.65316" lon="5.71871">
        <ele>1042.4</ele>
        <time>2023-05-18T08:03:43Z</time>
      </trkpt>
      <trkpt lat="44.65318" lon="5.71865">
        <ele>1042.2</ele>
        <time>2023-05-18T08:03:44Z</time>
      </trkpt>
      <trkpt lat="44.65322" lon="5.7186">
        <ele>1042.2</ele>
        <time>2023-05-18T08:03:45Z</time>
      </trkpt>
      <trkpt lat="44.65325" lon="5.71846">
        <ele>1041.6</ele>
        <time>2023-05-18T08:03:47Z</time>
      </trkpt>
      <trkpt lat="44.65322" lon="5.7184">
        <ele>1041.4</ele>
        <time>2023-05-18T08:03:48Z</time>
      </trkpt>
      <trkpt lat="44.65319" lon="5.71834">
        <ele>1041.2</ele>
        <time>2023-05-18T08:03:49Z</time>
      </trkpt>
      <trkpt lat="44.65321" lon="5.71831">
        <ele>1041</ele>
        <time>2023-05-18T08:03:50Z</time>
      </trkpt>
      <trkpt lat="44.65324" lon="5.71826">
        <ele>1041</ele>
        <time>2023-05-18T08:03:51Z</time>
      </trkpt>
      <trkpt lat="44.65327" lon="5.71823">
        <ele>1040.8</ele>
        <time>2023-05-18T08:03:52Z</time>
      </trkpt>
      <trkpt lat="44.65331" lon="5.71822">
        <ele>1040.4</ele>
        <time>2023-05-18T08:03:54Z</time>
      </trkpt>
      <trkpt lat="44.65333" lon="5.71823">
        <ele>1040.4</ele>
        <time>2023-05-18T08:03:55Z</time>
      </trkpt>
      <trkpt lat="44.65336" lon="5.71824">
        <ele>1040.2</ele>
        <time>2023-05-18T08:03:56Z</time>
      </trkpt>
      <trkpt lat="44.65337" lon="5.71825">
        <ele>1039.8</ele>
        <time>2023-05-18T08:03:57Z</time>
      </trkpt>
      <trkpt lat="44.65338" lon="5.71826">
        <ele>1039.6</ele>
        <time>2023-05-18T08:03:58Z</time>
      </trkpt>
      <trkpt lat="44.6534" lon="5.71826">
        <ele>1039.2</ele>
        <time>2023-05-18T08:03:59Z</time>
      </trkpt>
      <trkpt lat="44.65341" lon="5.71827">
        <ele>1039</ele>
        <time>2023-05-18T08:04:00Z</time>
      </trkpt>
      <trkpt lat="44.65342" lon="5.71827">
        <ele>1038.6</ele>
        <time>2023-05-18T08:04:01Z</time>
      </trkpt>
      <trkpt lat="44.65343" lon="5.71829">
        <ele>1038.4</ele>
        <time>2023-05-18T08:04:02Z</time>
      </trkpt>
      <trkpt lat="44.65344" lon="5.7183">
        <ele>1038.2</ele>
        <time>2023-05-18T08:04:03Z</time>
      </trkpt>
      <trkpt lat="44.65346" lon="5.71832">
        <ele>1038.2</ele>
        <time>2023-05-18T08:04:04Z</time>
      </trkpt>
      <trkpt lat="44.65347" lon="5.71833">
        <ele>1038</ele>
        <time>2023-05-18T08:04:05Z</time>
      </trkpt>
      <trkpt lat="44.65348" lon="5.71834">
        <ele>1037.8</ele>
        <time>2023-05-18T08:04:06Z</time>
      </trkpt>
      <trkpt lat="44.65348" lon="5.71834">
        <ele>1037.6</ele>
        <time>2023-05-18T08:04:07Z</time>
      </trkpt>
      <trkpt lat="44.65348" lon="5.71834">
        <ele>1037.4</ele>
        <time>2023-05-18T08:04:08Z</time>
      </trkpt>
      <trkpt lat="44.65348" lon="5.71834">
        <ele>1037.2</ele>
        <time>2023-05-18T08:04:09Z</time>
      </trkpt>
      <trkpt lat="44.65349" lon="5.71834">
        <ele>1037.2</ele>
        <time>2023-05-18T08:04:10Z</time>
      </trkpt>
      <trkpt lat="44.65351" lon="5.71835">
        <ele>1037.2</ele>
        <time>2023-05-18T08:04:11Z</time>
      </trkpt>
      <trkpt lat="44.65356" lon="5.71837">
        <ele>1037.2</ele>
        <time>2023-05-18T08:04:13Z</time>
      </trkpt>
      <trkpt lat="44.65357" lon="5.71838">
        <ele>1037.2</ele>
        <time>2023-05-18T08:04:14Z</time>
      </trkpt>
      <trkpt lat="44.65362" lon="5.7184">
        <ele>1037.4</ele>
        <time>2023-05-18T08:04:17Z</time>
      </trkpt>
      <trkpt lat="44.65362" lon="5.7184">
        <ele>1037.6</ele>
        <time>2023-05-18T08:04:18Z</time>
      </trkpt>
      <trkpt lat="44.65362" lon="5.7184">
        <ele>1037.6</ele>
        <time>2023-05-18T08:04:19Z</time>
      </trkpt>
      <trkpt lat="44.65362" lon="5.7184">
        <ele>1037.6</ele>
        <time>2023-05-18T08:04:20Z</time>
      </trkpt>
      <trkpt lat="44.65362" lon="5.7184">
        <ele>1037.6</ele>
        <time>2023-05-18T08:04:21Z</time>
      </trkpt>
      <trkpt lat="44.65364" lon="5.71841">
        <ele>1037.8</ele>
        <time>2023-05-18T08:04:22Z</time>
      </trkpt>
      <trkpt lat="44.65371" lon="5.71843">
        <ele>1037.8</ele>
        <time>2023-05-18T08:04:24Z</time>
      </trkpt>
      <trkpt lat="44.65388" lon="5.71851">
        <ele>1038.2</ele>
        <time>2023-05-18T08:04:29Z</time>
      </trkpt>
      <trkpt lat="44.65399" lon="5.71856">
        <ele>1038.6</ele>
        <time>2023-05-18T08:04:33Z</time>
      </trkpt>
      <trkpt lat="44.65403" lon="5.71857">
        <ele>1038.6</ele>
        <time>2023-05-18T08:04:35Z</time>
      </trkpt>
      <trkpt lat="44.65405" lon="5.7186">
        <ele>1038.6</ele>
        <time>2023-05-18T08:04:36Z</time>
      </trkpt>
      <trkpt lat="44.65407" lon="5.71863">
        <ele>1038.6</ele>
        <time>2023-05-18T08:04:37Z</time>
      </trkpt>
      <trkpt lat="44.6541" lon="5.71868">
        <ele>1038.8</ele>
        <time>2023-05-18T08:04:39Z</time>
      </trkpt>
      <trkpt lat="44.65412" lon="5.71872">
        <ele>1038.8</ele>
        <time>2023-05-18T08:04:40Z</time>
      </trkpt>
      <trkpt lat="44.65414" lon="5.71875">
        <ele>1038.8</ele>
        <time>2023-05-18T08:04:41Z</time>
      </trkpt>
      <trkpt lat="44.65415" lon="5.71879">
        <ele>1038.8</ele>
        <time>2023-05-18T08:04:42Z</time>
      </trkpt>
      <trkpt lat="44.65415" lon="5.71881">
        <ele>1038.8</ele>
        <time>2023-05-18T08:04:43Z</time>
      </trkpt>
      <trkpt lat="44.65415" lon="5.71885">
        <ele>1039</ele>
        <time>2023-05-18T08:04:44Z</time>
      </trkpt>
      <trkpt lat="44.65415" lon="5.71888">
        <ele>1039</ele>
        <time>2023-05-18T08:04:45Z</time>
      </trkpt>
      <trkpt lat="44.65415" lon="5.71891">
        <ele>1039</ele>
        <time>2023-05-18T08:04:46Z</time>
      </trkpt>
      <trkpt lat="44.65415" lon="5.71897">
        <ele>1039.2</ele>
        <time>2023-05-18T08:04:48Z</time>
      </trkpt>
      <trkpt lat="44.65416" lon="5.71901">
        <ele>1039.2</ele>
        <time>2023-05-18T08:04:49Z</time>
      </trkpt>
      <trkpt lat="44.65417" lon="5.71904">
        <ele>1039.4</ele>
        <time>2023-05-18T08:04:50Z</time>
      </trkpt>
      <trkpt lat="44.65418" lon="5.7191">
        <ele>1039.4</ele>
        <time>2023-05-18T08:04:52Z</time>
      </trkpt>
      <trkpt lat="44.65421" lon="5.71924">
        <ele>1039.6</ele>
        <time>2023-05-18T08:04:56Z</time>
      </trkpt>
      <trkpt lat="44.65427" lon="5.7194">
        <ele>1039.6</ele>
        <time>2023-05-18T08:05:01Z</time>
      </trkpt>
      <trkpt lat="44.65432" lon="5.71963">
        <ele>1039.8</ele>
        <time>2023-05-18T08:05:08Z</time>
      </trkpt>
      <trkpt lat="44.65432" lon="5.71994">
        <ele>1040.6</ele>
        <time>2023-05-18T08:05:18Z</time>
      </trkpt>
      <trkpt lat="44.65432" lon="5.71996">
        <ele>1040.8</ele>
        <time>2023-05-18T08:05:19Z</time>
      </trkpt>
      <trkpt lat="44.65432" lon="5.71999">
        <ele>1040.8</ele>
        <time>2023-05-18T08:05:20Z</time>
      </trkpt>
      <trkpt lat="44.65432" lon="5.72001">
        <ele>1041</ele>
        <time>2023-05-18T08:05:21Z</time>
      </trkpt>
      <trkpt lat="44.65433" lon="5.72004">
        <ele>1041</ele>
        <time>2023-05-18T08:05:22Z</time>
      </trkpt>
      <trkpt lat="44.65433" lon="5.72007">
        <ele>1041</ele>
        <time>2023-05-18T08:05:23Z</time>
      </trkpt>
      <trkpt lat="44.65433" lon="5.72009">
        <ele>1041.2</ele>
        <time>2023-05-18T08:05:24Z</time>
      </trkpt>
      <trkpt lat="44.65433" lon="5.72011">
        <ele>1041.2</ele>
        <time>2023-05-18T08:05:25Z</time>
      </trkpt>
      <trkpt lat="44.65433" lon="5.72014">
        <ele>1041.2</ele>
        <time>2023-05-18T08:05:26Z</time>
      </trkpt>
      <trkpt lat="44.65433" lon="5.72025">
        <ele>1041.8</ele>
        <time>2023-05-18T08:05:30Z</time>
      </trkpt>
      <trkpt lat="44.65433" lon="5.72035">
        <ele>1042.2</ele>
        <time>2023-05-18T08:05:34Z</time>
      </trkpt>
      <trkpt lat="44.65432" lon="5.72042">
        <ele>1042.6</ele>
        <time>2023-05-18T08:05:37Z</time>
      </trkpt>
      <trkpt lat="44.65432" lon="5.72044">
        <ele>1042.6</ele>
        <time>2023-05-18T08:05:38Z</time>
      </trkpt>
      <trkpt lat="44.65431" lon="5.72046">
        <ele>1042.8</ele>
        <time>2023-05-18T08:05:39Z</time>
      </trkpt>
      <trkpt lat="44.65431" lon="5.72049">
        <ele>1042.8</ele>
        <time>2023-05-18T08:05:40Z</time>
      </trkpt>
      <trkpt lat="44.6543" lon="5.72051">
        <ele>1043</ele>
        <time>2023-05-18T08:05:41Z</time>
      </trkpt>
      <trkpt lat="44.6543" lon="5.72053">
        <ele>1043</ele>
        <time>2023-05-18T08:05:42Z</time>
      </trkpt>
      <trkpt lat="44.65429" lon="5.72055">
        <ele>1043</ele>
        <time>2023-05-18T08:05:43Z</time>
      </trkpt>
      <trkpt lat="44.65428" lon="5.72059">
        <ele>1043.4</ele>
        <time>2023-05-18T08:05:46Z</time>
      </trkpt>
      <trkpt lat="44.65427" lon="5.72061">
        <ele>1043.6</ele>
        <time>2023-05-18T08:05:47Z</time>
      </trkpt>
      <trkpt lat="44.65427" lon="5.72062">
        <ele>1043.8</ele>
        <time>2023-05-18T08:05:48Z</time>
      </trkpt>
      <trkpt lat="44.65427" lon="5.72064">
        <ele>1044.2</ele>
        <time>2023-05-18T08:05:49Z</time>
      </trkpt>
      <trkpt lat="44.65426" lon="5.72066">
        <ele>1044.4</ele>
        <time>2023-05-18T08:05:50Z</time>
      </trkpt>
      <trkpt lat="44.65426" lon="5.72068">
        <ele>1044.6</ele>
        <time>2023-05-18T08:05:51Z</time>
      </trkpt>
      <trkpt lat="44.65426" lon="5.7207">
        <ele>1044.6</ele>
        <time>2023-05-18T08:05:52Z</time>
      </trkpt>
      <trkpt lat="44.65425" lon="5.72071">
        <ele>1044.8</ele>
        <time>2023-05-18T08:05:53Z</time>
      </trkpt>
      <trkpt lat="44.65425" lon="5.72073">
        <ele>1044.8</ele>
        <time>2023-05-18T08:05:54Z</time>
      </trkpt>
      <trkpt lat="44.65424" lon="5.72074">
        <ele>1044.8</ele>
        <time>2023-05-18T08:05:55Z</time>
      </trkpt>
      <trkpt lat="44.65424" lon="5.72076">
        <ele>1044.8</ele>
        <time>2023-05-18T08:05:56Z</time>
      </trkpt>
      <trkpt lat="44.65425" lon="5.72078">
        <ele>1045</ele>
        <time>2023-05-18T08:05:57Z</time>
      </trkpt>
      <trkpt lat="44.65424" lon="5.72079">
        <ele>1045.2</ele>
        <time>2023-05-18T08:05:58Z</time>
      </trkpt>
      <trkpt lat="44.65424" lon="5.72081">
        <ele>1045.2</ele>
        <time>2023-05-18T08:05:59Z</time>
      </trkpt>
      <trkpt lat="44.65424" lon="5.72083">
        <ele>1045.4</ele>
        <time>2023-05-18T08:06:00Z</time>
      </trkpt>
      <trkpt lat="44.65424" lon="5.72084">
        <ele>1045.6</ele>
        <time>2023-05-18T08:06:01Z</time>
      </trkpt>
      <trkpt lat="44.65424" lon="5.72086">
        <ele>1045.8</ele>
        <time>2023-05-18T08:06:02Z</time>
      </trkpt>
      <trkpt lat="44.65424" lon="5.72087">
        <ele>1046</ele>
        <time>2023-05-18T08:06:03Z</time>
      </trkpt>
      <trkpt lat="44.65424" lon="5.72089">
        <ele>1046.2</ele>
        <time>2023-05-18T08:06:04Z</time>
      </trkpt>
      <trkpt lat="44.65424" lon="5.72091">
        <ele>1046.4</ele>
        <time>2023-05-18T08:06:05Z</time>
      </trkpt>
      <trkpt lat="44.65424" lon="5.72092">
        <ele>1046.6</ele>
        <time>2023-05-18T08:06:06Z</time>
      </trkpt>
      <trkpt lat="44.65424" lon="5.72094">
        <ele>1046.8</ele>
        <time>2023-05-18T08:06:07Z</time>
      </trkpt>
      <trkpt lat="44.65424" lon="5.72096">
        <ele>1047</ele>
        <time>2023-05-18T08:06:08Z</time>
      </trkpt>
      <trkpt lat="44.65424" lon="5.72097">
        <ele>1047.4</ele>
        <time>2023-05-18T08:06:09Z</time>
      </trkpt>
      <trkpt lat="44.65423" lon="5.72099">
        <ele>1047.4</ele>
        <time>2023-05-18T08:06:10Z</time>
      </trkpt>
      <trkpt lat="44.65423" lon="5.72101">
        <ele>1047.8</ele>
        <time>2023-05-18T08:06:11Z</time>
      </trkpt>
      <trkpt lat="44.65423" lon="5.72103">
        <ele>1047.8</ele>
        <time>2023-05-18T08:06:12Z</time>
      </trkpt>
      <trkpt lat="44.65423" lon="5.72104">
        <ele>1048</ele>
        <time>2023-05-18T08:06:13Z</time>
      </trkpt>
      <trkpt lat="44.65423" lon="5.72106">
        <ele>1048.2</ele>
        <time>2023-05-18T08:06:14Z</time>
      </trkpt>
      <trkpt lat="44.65423" lon="5.72107">
        <ele>1048.2</ele>
        <time>2023-05-18T08:06:15Z</time>
      </trkpt>
      <trkpt lat="44.65423" lon="5.72109">
        <ele>1048.4</ele>
        <time>2023-05-18T08:06:16Z</time>
      </trkpt>
      <trkpt lat="44.65422" lon="5.72111">
        <ele>1048.6</ele>
        <time>2023-05-18T08:06:17Z</time>
      </trkpt>
      <trkpt lat="44.65422" lon="5.72112">
        <ele>1048.8</ele>
        <time>2023-05-18T08:06:18Z</time>
      </trkpt>
      <trkpt lat="44.65422" lon="5.72114">
        <ele>1048.8</ele>
        <time>2023-05-18T08:06:19Z</time>
      </trkpt>
      <trkpt lat="44.65422" lon="5.72115">
        <ele>1049</ele>
        <time>2023-05-18T08:06:20Z</time>
      </trkpt>
      <trkpt lat="44.65422" lon="5.72117">
        <ele>1049.2</ele>
        <time>2023-05-18T08:06:21Z</time>
      </trkpt>
      <trkpt lat="44.65422" lon="5.72119">
        <ele>1049.2</ele>
        <time>2023-05-18T08:06:22Z</time>
      </trkpt>
      <trkpt lat="44.65422" lon="5.7212">
        <ele>1049.4</ele>
        <time>2023-05-18T08:06:23Z</time>
      </trkpt>
      <trkpt lat="44.65421" lon="5.72122">
        <ele>1049.6</ele>
        <time>2023-05-18T08:06:24Z</time>
      </trkpt>
      <trkpt lat="44.65421" lon="5.72123">
        <ele>1049.6</ele>
        <time>2023-05-18T08:06:25Z</time>
      </trkpt>
      <trkpt lat="44.65421" lon="5.72124">
        <ele>1049.8</ele>
        <time>2023-05-18T08:06:26Z</time>
      </trkpt>
      <trkpt lat="44.65421" lon="5.72126">
        <ele>1050</ele>
        <time>2023-05-18T08:06:27Z</time>
      </trkpt>
      <trkpt lat="44.65421" lon="5.72128">
        <ele>1050.4</ele>
        <time>2023-05-18T08:06:28Z</time>
      </trkpt>
      <trkpt lat="44.65421" lon="5.72129">
        <ele>1050.6</ele>
        <time>2023-05-18T08:06:29Z</time>
      </trkpt>
      <trkpt lat="44.65421" lon="5.72131">
        <ele>1051</ele>
        <time>2023-05-18T08:06:30Z</time>
      </trkpt>
      <trkpt lat="44.65421" lon="5.72133">
        <ele>1051.2</ele>
        <time>2023-05-18T08:06:31Z</time>
      </trkpt>
      <trkpt lat="44.6542" lon="5.72134">
        <ele>1051.2</ele>
        <time>2023-05-18T08:06:32Z</time>
      </trkpt>
      <trkpt lat="44.6542" lon="5.72136">
        <ele>1051.4</ele>
        <time>2023-05-18T08:06:33Z</time>
      </trkpt>
      <trkpt lat="44.6542" lon="5.72137">
        <ele>1051.8</ele>
        <time>2023-05-18T08:06:34Z</time>
      </trkpt>
      <trkpt lat="44.65419" lon="5.72138">
        <ele>1051.8</ele>
        <time>2023-05-18T08:06:35Z</time>
      </trkpt>
      <trkpt lat="44.65419" lon="5.7214">
        <ele>1052</ele>
        <time>2023-05-18T08:06:36Z</time>
      </trkpt>
      <trkpt lat="44.65419" lon="5.72142">
        <ele>1052.4</ele>
        <time>2023-05-18T08:06:37Z</time>
      </trkpt>
      <trkpt lat="44.65419" lon="5.72143">
        <ele>1052.4</ele>
        <time>2023-05-18T08:06:38Z</time>
      </trkpt>
      <trkpt lat="44.65418" lon="5.72144">
        <ele>1052.4</ele>
        <time>2023-05-18T08:06:39Z</time>
      </trkpt>
      <trkpt lat="44.65418" lon="5.72146">
        <ele>1052.6</ele>
        <time>2023-05-18T08:06:40Z</time>
      </trkpt>
      <trkpt lat="44.65418" lon="5.72147">
        <ele>1052.8</ele>
        <time>2023-05-18T08:06:41Z</time>
      </trkpt>
      <trkpt lat="44.65417" lon="5.72149">
        <ele>1053</ele>
        <time>2023-05-18T08:06:42Z</time>
      </trkpt>
      <trkpt lat="44.65416" lon="5.7215">
        <ele>1053.4</ele>
        <time>2023-05-18T08:06:43Z</time>
      </trkpt>
      <trkpt lat="44.65416" lon="5.72152">
        <ele>1053.6</ele>
        <time>2023-05-18T08:06:44Z</time>
      </trkpt>
      <trkpt lat="44.65415" lon="5.72153">
        <ele>1053.8</ele>
        <time>2023-05-18T08:06:45Z</time>
      </trkpt>
      <trkpt lat="44.65415" lon="5.72153">
        <ele>1054</ele>
        <time>2023-05-18T08:06:46Z</time>
      </trkpt>
      <trkpt lat="44.65415" lon="5.72154">
        <ele>1054</ele>
        <time>2023-05-18T08:06:47Z</time>
      </trkpt>
      <trkpt lat="44.65415" lon="5.72154">
        <ele>1054.4</ele>
        <time>2023-05-18T08:06:48Z</time>
      </trkpt>
      <trkpt lat="44.65414" lon="5.72155">
        <ele>1054.6</ele>
        <time>2023-05-18T08:06:49Z</time>
      </trkpt>
      <trkpt lat="44.65413" lon="5.72156">
        <ele>1054.8</ele>
        <time>2023-05-18T08:06:50Z</time>
      </trkpt>
      <trkpt lat="44.65413" lon="5.72158">
        <ele>1055</ele>
        <time>2023-05-18T08:06:51Z</time>
      </trkpt>
      <trkpt lat="44.65413" lon="5.72159">
        <ele>1055.2</ele>
        <time>2023-05-18T08:06:52Z</time>
      </trkpt>
      <trkpt lat="44.65412" lon="5.72161">
        <ele>1055.4</ele>
        <time>2023-05-18T08:06:53Z</time>
      </trkpt>
      <trkpt lat="44.65412" lon="5.72161">
        <ele>1055.6</ele>
        <time>2023-05-18T08:06:54Z</time>
      </trkpt>
      <trkpt lat="44.65412" lon="5.72162">
        <ele>1055.8</ele>
        <time>2023-05-18T08:06:55Z</time>
      </trkpt>
      <trkpt lat="44.65412" lon="5.72162">
        <ele>1055.8</ele>
        <time>2023-05-18T08:06:56Z</time>
      </trkpt>
      <trkpt lat="44.65412" lon="5.72163">
        <ele>1056</ele>
        <time>2023-05-18T08:06:57Z</time>
      </trkpt>
      <trkpt lat="44.65412" lon="5.72163">
        <ele>1056.2</ele>
        <time>2023-05-18T08:06:58Z</time>
      </trkpt>
      <trkpt lat="44.65411" lon="5.72164">
        <ele>1056.2</ele>
        <time>2023-05-18T08:06:59Z</time>
      </trkpt>
      <trkpt lat="44.65411" lon="5.72164">
        <ele>1056.6</ele>
        <time>2023-05-18T08:07:00Z</time>
      </trkpt>
      <trkpt lat="44.65412" lon="5.72165">
        <ele>1056.6</ele>
        <time>2023-05-18T08:07:01Z</time>
      </trkpt>
      <trkpt lat="44.65411" lon="5.72166">
        <ele>1057</ele>
        <time>2023-05-18T08:07:02Z</time>
      </trkpt>
      <trkpt lat="44.65411" lon="5.72167">
        <ele>1057</ele>
        <time>2023-05-18T08:07:03Z</time>
      </trkpt>
      <trkpt lat="44.65411" lon="5.72168">
        <ele>1057.2</ele>
        <time>2023-05-18T08:07:04Z</time>
      </trkpt>
      <trkpt lat="44.65411" lon="5.72169">
        <ele>1057.4</ele>
        <time>2023-05-18T08:07:05Z</time>
      </trkpt>
      <trkpt lat="44.65411" lon="5.72171">
        <ele>1057.6</ele>
        <time>2023-05-18T08:07:06Z</time>
      </trkpt>
      <trkpt lat="44.65411" lon="5.72172">
        <ele>1057.6</ele>
        <time>2023-05-18T08:07:07Z</time>
      </trkpt>
      <trkpt lat="44.6541" lon="5.72172">
        <ele>1057.8</ele>
        <time>2023-05-18T08:07:08Z</time>
      </trkpt>
      <trkpt lat="44.65409" lon="5.72173">
        <ele>1058</ele>
        <time>2023-05-18T08:07:09Z</time>
      </trkpt>
      <trkpt lat="44.65409" lon="5.72174">
        <ele>1058</ele>
        <time>2023-05-18T08:07:10Z</time>
      </trkpt>
      <trkpt lat="44.65409" lon="5.72174">
        <ele>1058.4</ele>
        <time>2023-05-18T08:07:11Z</time>
      </trkpt>
      <trkpt lat="44.65409" lon="5.72176">
        <ele>1058.4</ele>
        <time>2023-05-18T08:07:12Z</time>
      </trkpt>
      <trkpt lat="44.65409" lon="5.72177">
        <ele>1058.6</ele>
        <time>2023-05-18T08:07:13Z</time>
      </trkpt>
      <trkpt lat="44.65408" lon="5.72178">
        <ele>1058.6</ele>
        <time>2023-05-18T08:07:14Z</time>
      </trkpt>
      <trkpt lat="44.65408" lon="5.72179">
        <ele>1058.8</ele>
        <time>2023-05-18T08:07:15Z</time>
      </trkpt>
      <trkpt lat="44.65409" lon="5.72179">
        <ele>1059</ele>
        <time>2023-05-18T08:07:16Z</time>
      </trkpt>
      <trkpt lat="44.65409" lon="5.72179">
        <ele>1059.2</ele>
        <time>2023-05-18T08:07:17Z</time>
      </trkpt>
      <trkpt lat="44.65409" lon="5.7218">
        <ele>1059.4</ele>
        <time>2023-05-18T08:07:18Z</time>
      </trkpt>
      <trkpt lat="44.6541" lon="5.72181">
        <ele>1059.4</ele>
        <time>2023-05-18T08:07:19Z</time>
      </trkpt>
      <trkpt lat="44.6541" lon="5.72182">
        <ele>1059.6</ele>
        <time>2023-05-18T08:07:20Z</time>
      </trkpt>
      <trkpt lat="44.6541" lon="5.72183">
        <ele>1059.6</ele>
        <time>2023-05-18T08:07:21Z</time>
      </trkpt>
      <trkpt lat="44.6541" lon="5.72184">
        <ele>1059.8</ele>
        <time>2023-05-18T08:07:22Z</time>
      </trkpt>
      <trkpt lat="44.65411" lon="5.72185">
        <ele>1059.8</ele>
        <time>2023-05-18T08:07:23Z</time>
      </trkpt>
      <trkpt lat="44.65411" lon="5.72187">
        <ele>1060.2</ele>
        <time>2023-05-18T08:07:24Z</time>
      </trkpt>
      <trkpt lat="44.65412" lon="5.72188">
        <ele>1060.4</ele>
        <time>2023-05-18T08:07:25Z</time>
      </trkpt>
      <trkpt lat="44.65412" lon="5.72189">
        <ele>1060.6</ele>
        <time>2023-05-18T08:07:26Z</time>
      </trkpt>
      <trkpt lat="44.65411" lon="5.7219">
        <ele>1061</ele>
        <time>2023-05-18T08:07:27Z</time>
      </trkpt>
      <trkpt lat="44.65411" lon="5.72191">
        <ele>1061</ele>
        <time>2023-05-18T08:07:28Z</time>
      </trkpt>
      <trkpt lat="44.65412" lon="5.72192">
        <ele>1061.4</ele>
        <time>2023-05-18T08:07:29Z</time>
      </trkpt>
      <trkpt lat="44.65412" lon="5.72193">
        <ele>1061.4</ele>
        <time>2023-05-18T08:07:30Z</time>
      </trkpt>
      <trkpt lat="44.65412" lon="5.72194">
        <ele>1061.6</ele>
        <time>2023-05-18T08:07:31Z</time>
      </trkpt>
      <trkpt lat="44.65412" lon="5.72194">
        <ele>1061.6</ele>
        <time>2023-05-18T08:07:32Z</time>
      </trkpt>
      <trkpt lat="44.65412" lon="5.72194">
        <ele>1062</ele>
        <time>2023-05-18T08:07:33Z</time>
      </trkpt>
      <trkpt lat="44.65412" lon="5.72195">
        <ele>1062.2</ele>
        <time>2023-05-18T08:07:34Z</time>
      </trkpt>
      <trkpt lat="44.65412" lon="5.72195">
        <ele>1062.2</ele>
        <time>2023-05-18T08:07:35Z</time>
      </trkpt>
      <trkpt lat="44.65412" lon="5.72196">
        <ele>1062.4</ele>
        <time>2023-05-18T08:07:36Z</time>
      </trkpt>
      <trkpt lat="44.65412" lon="5.72197">
        <ele>1062.4</ele>
        <time>2023-05-18T08:07:37Z</time>
      </trkpt>
      <trkpt lat="44.65412" lon="5.72198">
        <ele>1062.6</ele>
        <time>2023-05-18T08:07:38Z</time>
      </trkpt>
      <trkpt lat="44.65411" lon="5.72199">
        <ele>1062.6</ele>
        <time>2023-05-18T08:07:39Z</time>
      </trkpt>
      <trkpt lat="44.65411" lon="5.722">
        <ele>1062.8</ele>
        <time>2023-05-18T08:07:40Z</time>
      </trkpt>
      <trkpt lat="44.65411" lon="5.72201">
        <ele>1063</ele>
        <time>2023-05-18T08:07:41Z</time>
      </trkpt>
      <trkpt lat="44.65412" lon="5.72202">
        <ele>1063</ele>
        <time>2023-05-18T08:07:42Z</time>
      </trkpt>
      <trkpt lat="44.65412" lon="5.72204">
        <ele>1063.2</ele>
        <time>2023-05-18T08:07:43Z</time>
      </trkpt>
      <trkpt lat="44.65412" lon="5.72205">
        <ele>1063.2</ele>
        <time>2023-05-18T08:07:44Z</time>
      </trkpt>
      <trkpt lat="44.65412" lon="5.72207">
        <ele>1063.4</ele>
        <time>2023-05-18T08:07:45Z</time>
      </trkpt>
      <trkpt lat="44.65411" lon="5.72208">
        <ele>1063.4</ele>
        <time>2023-05-18T08:07:46Z</time>
      </trkpt>
      <trkpt lat="44.65411" lon="5.72209">
        <ele>1063.4</ele>
        <time>2023-05-18T08:07:47Z</time>
      </trkpt>
      <trkpt lat="44.65411" lon="5.72211">
        <ele>1063.6</ele>
        <time>2023-05-18T08:07:48Z</time>
      </trkpt>
      <trkpt lat="44.65411" lon="5.72212">
        <ele>1063.8</ele>
        <time>2023-05-18T08:07:49Z</time>
      </trkpt>
      <trkpt lat="44.65412" lon="5.72213">
        <ele>1063.8</ele>
        <time>2023-05-18T08:07:50Z</time>
      </trkpt>
      <trkpt lat="44.65412" lon="5.72214">
        <ele>1064</ele>
        <time>2023-05-18T08:07:51Z</time>
      </trkpt>
      <trkpt lat="44.65412" lon="5.72216">
        <ele>1064.2</ele>
        <time>2023-05-18T08:07:52Z</time>
      </trkpt>
      <trkpt lat="44.65412" lon="5.72217">
        <ele>1064.2</ele>
        <time>2023-05-18T08:07:53Z</time>
      </trkpt>
      <trkpt lat="44.65411" lon="5.72218">
        <ele>1064.4</ele>
        <time>2023-05-18T08:07:54Z</time>
      </trkpt>
      <trkpt lat="44.65411" lon="5.72219">
        <ele>1064.4</ele>
        <time>2023-05-18T08:07:55Z</time>
      </trkpt>
      <trkpt lat="44.65411" lon="5.7222">
        <ele>1064.6</ele>
        <time>2023-05-18T08:07:56Z</time>
      </trkpt>
      <trkpt lat="44.6541" lon="5.72222">
        <ele>1064.8</ele>
        <time>2023-05-18T08:07:57Z</time>
      </trkpt>
      <trkpt lat="44.65409" lon="5.72222">
        <ele>1064.8</ele>
        <time>2023-05-18T08:07:58Z</time>
      </trkpt>
      <trkpt lat="44.65409" lon="5.72223">
        <ele>1065</ele>
        <time>2023-05-18T08:07:59Z</time>
      </trkpt>
      <trkpt lat="44.65409" lon="5.72223">
        <ele>1065</ele>
        <time>2023-05-18T08:08:00Z</time>
      </trkpt>
      <trkpt lat="44.65409" lon="5.72224">
        <ele>1065.2</ele>
        <time>2023-05-18T08:08:01Z</time>
      </trkpt>
      <trkpt lat="44.65409" lon="5.72225">
        <ele>1065.4</ele>
        <time>2023-05-18T08:08:02Z</time>
      </trkpt>
      <trkpt lat="44.65409" lon="5.72226">
        <ele>1065.4</ele>
        <time>2023-05-18T08:08:03Z</time>
      </trkpt>
      <trkpt lat="44.65409" lon="5.72226">
        <ele>1065.6</ele>
        <time>2023-05-18T08:08:04Z</time>
      </trkpt>
      <trkpt lat="44.65409" lon="5.72227">
        <ele>1065.8</ele>
        <time>2023-05-18T08:08:05Z</time>
      </trkpt>
      <trkpt lat="44.65409" lon="5.72228">
        <ele>1066</ele>
        <time>2023-05-18T08:08:06Z</time>
      </trkpt>
      <trkpt lat="44.65408" lon="5.72228">
        <ele>1066</ele>
        <time>2023-05-18T08:08:07Z</time>
      </trkpt>
      <trkpt lat="44.65408" lon="5.72229">
        <ele>1066.2</ele>
        <time>2023-05-18T08:08:08Z</time>
      </trkpt>
      <trkpt lat="44.65408" lon="5.72231">
        <ele>1066.4</ele>
        <time>2023-05-18T08:08:09Z</time>
      </trkpt>
      <trkpt lat="44.65409" lon="5.72232">
        <ele>1066.6</ele>
        <time>2023-05-18T08:08:10Z</time>
      </trkpt>
      <trkpt lat="44.65408" lon="5.72233">
        <ele>1066.8</ele>
        <time>2023-05-18T08:08:11Z</time>
      </trkpt>
      <trkpt lat="44.65408" lon="5.72233">
        <ele>1067</ele>
        <time>2023-05-18T08:08:12Z</time>
      </trkpt>
      <trkpt lat="44.65408" lon="5.72233">
        <ele>1067</ele>
        <time>2023-05-18T08:08:13Z</time>
      </trkpt>
      <trkpt lat="44.65408" lon="5.72235">
        <ele>1067</ele>
        <time>2023-05-18T08:08:14Z</time>
      </trkpt>
      <trkpt lat="44.65408" lon="5.72236">
        <ele>1067.2</ele>
        <time>2023-05-18T08:08:15Z</time>
      </trkpt>
      <trkpt lat="44.65408" lon="5.72237">
        <ele>1067.2</ele>
        <time>2023-05-18T08:08:16Z</time>
      </trkpt>
      <trkpt lat="44.65408" lon="5.72238">
        <ele>1067.4</ele>
        <time>2023-05-18T08:08:17Z</time>
      </trkpt>
      <trkpt lat="44.65408" lon="5.72239">
        <ele>1067.6</ele>
        <time>2023-05-18T08:08:18Z</time>
      </trkpt>
      <trkpt lat="44.65408" lon="5.72241">
        <ele>1067.6</ele>
        <time>2023-05-18T08:08:19Z</time>
      </trkpt>
      <trkpt lat="44.65408" lon="5.72242">
        <ele>1067.6</ele>
        <time>2023-05-18T08:08:20Z</time>
      </trkpt>
      <trkpt lat="44.65408" lon="5.72243">
        <ele>1067.8</ele>
        <time>2023-05-18T08:08:21Z</time>
      </trkpt>
      <trkpt lat="44.65408" lon="5.72243">
        <ele>1067.8</ele>
        <time>2023-05-18T08:08:22Z</time>
      </trkpt>
      <trkpt lat="44.65408" lon="5.72244">
        <ele>1067.8</ele>
        <time>2023-05-18T08:08:23Z</time>
      </trkpt>
      <trkpt lat="44.65408" lon="5.72245">
        <ele>1068</ele>
        <time>2023-05-18T08:08:24Z</time>
      </trkpt>
      <trkpt lat="44.65408" lon="5.72246">
        <ele>1068.2</ele>
        <time>2023-05-18T08:08:25Z</time>
      </trkpt>
      <trkpt lat="44.65408" lon="5.72247">
        <ele>1068.4</ele>
        <time>2023-05-18T08:08:26Z</time>
      </trkpt>
      <trkpt lat="44.65408" lon="5.72248">
        <ele>1068.4</ele>
        <time>2023-05-18T08:08:27Z</time>
      </trkpt>
      <trkpt lat="44.65408" lon="5.72249">
        <ele>1068.6</ele>
        <time>2023-05-18T08:08:28Z</time>
      </trkpt>
      <trkpt lat="44.65408" lon="5.72251">
        <ele>1068.8</ele>
        <time>2023-05-18T08:08:29Z</time>
      </trkpt>
      <trkpt lat="44.65408" lon="5.72252">
        <ele>1068.8</ele>
        <time>2023-05-18T08:08:30Z</time>
      </trkpt>
      <trkpt lat="44.65408" lon="5.72253">
        <ele>1068.8</ele>
        <time>2023-05-18T08:08:31Z</time>
      </trkpt>
      <trkpt lat="44.65408" lon="5.72253">
        <ele>1069</ele>
        <time>2023-05-18T08:08:32Z</time>
      </trkpt>
      <trkpt lat="44.65407" lon="5.72255">
        <ele>1069.2</ele>
        <time>2023-05-18T08:08:33Z</time>
      </trkpt>
      <trkpt lat="44.65407" lon="5.72256">
        <ele>1069.2</ele>
        <time>2023-05-18T08:08:34Z</time>
      </trkpt>
      <trkpt lat="44.65407" lon="5.72257">
        <ele>1069.2</ele>
        <time>2023-05-18T08:08:35Z</time>
      </trkpt>
      <trkpt lat="44.65406" lon="5.72258">
        <ele>1069.6</ele>
        <time>2023-05-18T08:08:36Z</time>
      </trkpt>
      <trkpt lat="44.65406" lon="5.72258">
        <ele>1069.6</ele>
        <time>2023-05-18T08:08:37Z</time>
      </trkpt>
      <trkpt lat="44.65406" lon="5.72259">
        <ele>1069.8</ele>
        <time>2023-05-18T08:08:38Z</time>
      </trkpt>
      <trkpt lat="44.65406" lon="5.7226">
        <ele>1069.8</ele>
        <time>2023-05-18T08:08:39Z</time>
      </trkpt>
      <trkpt lat="44.65405" lon="5.72261">
        <ele>1069.8</ele>
        <time>2023-05-18T08:08:40Z</time>
      </trkpt>
      <trkpt lat="44.65405" lon="5.72262">
        <ele>1069.8</ele>
        <time>2023-05-18T08:08:41Z</time>
      </trkpt>
      <trkpt lat="44.65404" lon="5.72263">
        <ele>1070</ele>
        <time>2023-05-18T08:08:42Z</time>
      </trkpt>
      <trkpt lat="44.65404" lon="5.72264">
        <ele>1070</ele>
        <time>2023-05-18T08:08:43Z</time>
      </trkpt>
      <trkpt lat="44.65403" lon="5.72265">
        <ele>1070.2</ele>
        <time>2023-05-18T08:08:44Z</time>
      </trkpt>
      <trkpt lat="44.65403" lon="5.72266">
        <ele>1070.2</ele>
        <time>2023-05-18T08:08:45Z</time>
      </trkpt>
      <trkpt lat="44.65403" lon="5.72267">
        <ele>1070.4</ele>
        <time>2023-05-18T08:08:46Z</time>
      </trkpt>
      <trkpt lat="44.65402" lon="5.7227">
        <ele>1070.6</ele>
        <time>2023-05-18T08:08:48Z</time>
      </trkpt>
      <trkpt lat="44.65402" lon="5.72272">
        <ele>1070.8</ele>
        <time>2023-05-18T08:08:50Z</time>
      </trkpt>
      <trkpt lat="44.65402" lon="5.72274">
        <ele>1071</ele>
        <time>2023-05-18T08:08:51Z</time>
      </trkpt>
      <trkpt lat="44.65401" lon="5.72274">
        <ele>1071.2</ele>
        <time>2023-05-18T08:08:52Z</time>
      </trkpt>
      <trkpt lat="44.65401" lon="5.72277">
        <ele>1071.6</ele>
        <time>2023-05-18T08:08:55Z</time>
      </trkpt>
      <trkpt lat="44.654" lon="5.72279">
        <ele>1071.6</ele>
        <time>2023-05-18T08:08:56Z</time>
      </trkpt>
      <trkpt lat="44.654" lon="5.7228">
        <ele>1071.8</ele>
        <time>2023-05-18T08:08:57Z</time>
      </trkpt>
      <trkpt lat="44.654" lon="5.72281">
        <ele>1071.8</ele>
        <time>2023-05-18T08:08:58Z</time>
      </trkpt>
      <trkpt lat="44.654" lon="5.72282">
        <ele>1071.8</ele>
        <time>2023-05-18T08:08:59Z</time>
      </trkpt>
      <trkpt lat="44.65399" lon="5.72283">
        <ele>1072</ele>
        <time>2023-05-18T08:09:00Z</time>
      </trkpt>
      <trkpt lat="44.65399" lon="5.72285">
        <ele>1072.2</ele>
        <time>2023-05-18T08:09:01Z</time>
      </trkpt>
      <trkpt lat="44.65399" lon="5.72286">
        <ele>1072.2</ele>
        <time>2023-05-18T08:09:02Z</time>
      </trkpt>
      <trkpt lat="44.65399" lon="5.72287">
        <ele>1072.4</ele>
        <time>2023-05-18T08:09:03Z</time>
      </trkpt>
      <trkpt lat="44.65399" lon="5.72289">
        <ele>1072.6</ele>
        <time>2023-05-18T08:09:04Z</time>
      </trkpt>
      <trkpt lat="44.65399" lon="5.7229">
        <ele>1072.6</ele>
        <time>2023-05-18T08:09:05Z</time>
      </trkpt>
      <trkpt lat="44.65399" lon="5.72292">
        <ele>1072.6</ele>
        <time>2023-05-18T08:09:06Z</time>
      </trkpt>
      <trkpt lat="44.65399" lon="5.72293">
        <ele>1072.8</ele>
        <time>2023-05-18T08:09:07Z</time>
      </trkpt>
      <trkpt lat="44.65399" lon="5.72295">
        <ele>1073</ele>
        <time>2023-05-18T08:09:08Z</time>
      </trkpt>
      <trkpt lat="44.65399" lon="5.72296">
        <ele>1073.2</ele>
        <time>2023-05-18T08:09:09Z</time>
      </trkpt>
      <trkpt lat="44.65398" lon="5.72297">
        <ele>1073.2</ele>
        <time>2023-05-18T08:09:10Z</time>
      </trkpt>
      <trkpt lat="44.65398" lon="5.72298">
        <ele>1073.4</ele>
        <time>2023-05-18T08:09:11Z</time>
      </trkpt>
      <trkpt lat="44.65398" lon="5.72298">
        <ele>1073.6</ele>
        <time>2023-05-18T08:09:12Z</time>
      </trkpt>
      <trkpt lat="44.65399" lon="5.72298">
        <ele>1073.6</ele>
        <time>2023-05-18T08:09:13Z</time>
      </trkpt>
      <trkpt lat="44.65399" lon="5.72298">
        <ele>1074</ele>
        <time>2023-05-18T08:09:20Z</time>
      </trkpt>
      <trkpt lat="44.65399" lon="5.72298">
        <ele>1074.2</ele>
        <time>2023-05-18T08:09:27Z</time>
      </trkpt>
      <trkpt lat="44.65399" lon="5.72299">
        <ele>1074.2</ele>
        <time>2023-05-18T08:09:39Z</time>
      </trkpt>
      <trkpt lat="44.65399" lon="5.72299">
        <ele>1074.2</ele>
        <time>2023-05-18T08:09:40Z</time>
      </trkpt>
      <trkpt lat="44.65399" lon="5.72299">
        <ele>1074.4</ele>
        <time>2023-05-18T08:09:44Z</time>
      </trkpt>
      <trkpt lat="44.65399" lon="5.72299">
        <ele>1074.4</ele>
        <time>2023-05-18T08:09:47Z</time>
      </trkpt>
      <trkpt lat="44.65399" lon="5.72299">
        <ele>1074.6</ele>
        <time>2023-05-18T08:10:01Z</time>
      </trkpt>
      <trkpt lat="44.65399" lon="5.72299">
        <ele>1074.6</ele>
        <time>2023-05-18T08:10:30Z</time>
      </trkpt>
      <trkpt lat="44.654" lon="5.723">
        <ele>1075.2</ele>
        <time>2023-05-18T08:11:29Z</time>
      </trkpt>
      <trkpt lat="44.654" lon="5.723">
        <ele>1075.2</ele>
        <time>2023-05-18T08:11:31Z</time>
      </trkpt>
      <trkpt lat="44.654" lon="5.72303">
        <ele>1075.4</ele>
        <time>2023-05-18T08:11:35Z</time>
      </trkpt>
      <trkpt lat="44.65399" lon="5.7231">
        <ele>1075.6</ele>
        <time>2023-05-18T08:11:38Z</time>
      </trkpt>
      <trkpt lat="44.65399" lon="5.7232">
        <ele>1075.8</ele>
        <time>2023-05-18T08:11:42Z</time>
      </trkpt>
      <trkpt lat="44.65399" lon="5.72323">
        <ele>1075.8</ele>
        <time>2023-05-18T08:11:43Z</time>
      </trkpt>
      <trkpt lat="44.65398" lon="5.72329">
        <ele>1076</ele>
        <time>2023-05-18T08:11:45Z</time>
      </trkpt>
      <trkpt lat="44.65395" lon="5.72349">
        <ele>1076</ele>
        <time>2023-05-18T08:11:52Z</time>
      </trkpt>
      <trkpt lat="44.65391" lon="5.72368">
        <ele>1075.8</ele>
        <time>2023-05-18T08:11:59Z</time>
      </trkpt>
      <trkpt lat="44.6539" lon="5.72371">
        <ele>1075.8</ele>
        <time>2023-05-18T08:12:00Z</time>
      </trkpt>
      <trkpt lat="44.6539" lon="5.72373">
        <ele>1075.8</ele>
        <time>2023-05-18T08:12:01Z</time>
      </trkpt>
      <trkpt lat="44.65389" lon="5.72375">
        <ele>1075.8</ele>
        <time>2023-05-18T08:12:02Z</time>
      </trkpt>
      <trkpt lat="44.65389" lon="5.72377">
        <ele>1076</ele>
        <time>2023-05-18T08:12:03Z</time>
      </trkpt>
      <trkpt lat="44.65389" lon="5.7238">
        <ele>1076</ele>
        <time>2023-05-18T08:12:04Z</time>
      </trkpt>
      <trkpt lat="44.65389" lon="5.72382">
        <ele>1076</ele>
        <time>2023-05-18T08:12:05Z</time>
      </trkpt>
      <trkpt lat="44.65389" lon="5.72385">
        <ele>1076</ele>
        <time>2023-05-18T08:12:06Z</time>
      </trkpt>
      <trkpt lat="44.65389" lon="5.72388">
        <ele>1076.2</ele>
        <time>2023-05-18T08:12:07Z</time>
      </trkpt>
      <trkpt lat="44.65388" lon="5.72394">
        <ele>1076.2</ele>
        <time>2023-05-18T08:12:09Z</time>
      </trkpt>
      <trkpt lat="44.65388" lon="5.72397">
        <ele>1076.2</ele>
        <time>2023-05-18T08:12:10Z</time>
      </trkpt>
      <trkpt lat="44.65388" lon="5.72399">
        <ele>1076.2</ele>
        <time>2023-05-18T08:12:11Z</time>
      </trkpt>
      <trkpt lat="44.65387" lon="5.72401">
        <ele>1076.2</ele>
        <time>2023-05-18T08:12:12Z</time>
      </trkpt>
      <trkpt lat="44.65385" lon="5.72407">
        <ele>1076.4</ele>
        <time>2023-05-18T08:12:15Z</time>
      </trkpt>
      <trkpt lat="44.65385" lon="5.72409">
        <ele>1076.4</ele>
        <time>2023-05-18T08:12:16Z</time>
      </trkpt>
      <trkpt lat="44.65386" lon="5.72411">
        <ele>1076.4</ele>
        <time>2023-05-18T08:12:17Z</time>
      </trkpt>
      <trkpt lat="44.65386" lon="5.72414">
        <ele>1076.4</ele>
        <time>2023-05-18T08:12:18Z</time>
      </trkpt>
      <trkpt lat="44.65385" lon="5.72417">
        <ele>1076.4</ele>
        <time>2023-05-18T08:12:19Z</time>
      </trkpt>
      <trkpt lat="44.65383" lon="5.72426">
        <ele>1076.4</ele>
        <time>2023-05-18T08:12:22Z</time>
      </trkpt>
      <trkpt lat="44.65383" lon="5.72435">
        <ele>1076.4</ele>
        <time>2023-05-18T08:12:25Z</time>
      </trkpt>
      <trkpt lat="44.65384" lon="5.72441">
        <ele>1076.4</ele>
        <time>2023-05-18T08:12:27Z</time>
      </trkpt>
      <trkpt lat="44.6539" lon="5.72469">
        <ele>1076.4</ele>
        <time>2023-05-18T08:12:35Z</time>
      </trkpt>
      <trkpt lat="44.65389" lon="5.72471">
        <ele>1076.4</ele>
        <time>2023-05-18T08:12:36Z</time>
      </trkpt>
      <trkpt lat="44.65389" lon="5.72474">
        <ele>1076.6</ele>
        <time>2023-05-18T08:12:37Z</time>
      </trkpt>
      <trkpt lat="44.65388" lon="5.72479">
        <ele>1076.8</ele>
        <time>2023-05-18T08:12:39Z</time>
      </trkpt>
      <trkpt lat="44.65388" lon="5.72481">
        <ele>1076.8</ele>
        <time>2023-05-18T08:12:40Z</time>
      </trkpt>
      <trkpt lat="44.65388" lon="5.72484">
        <ele>1077</ele>
        <time>2023-05-18T08:12:41Z</time>
      </trkpt>
      <trkpt lat="44.65388" lon="5.72487">
        <ele>1077</ele>
        <time>2023-05-18T08:12:42Z</time>
      </trkpt>
      <trkpt lat="44.65388" lon="5.72489">
        <ele>1077.2</ele>
        <time>2023-05-18T08:12:43Z</time>
      </trkpt>
      <trkpt lat="44.65388" lon="5.72492">
        <ele>1077.2</ele>
        <time>2023-05-18T08:12:44Z</time>
      </trkpt>
      <trkpt lat="44.65388" lon="5.72495">
        <ele>1077.2</ele>
        <time>2023-05-18T08:12:45Z</time>
      </trkpt>
      <trkpt lat="44.65387" lon="5.72497">
        <ele>1077.4</ele>
        <time>2023-05-18T08:12:46Z</time>
      </trkpt>
      <trkpt lat="44.65387" lon="5.725">
        <ele>1077.4</ele>
        <time>2023-05-18T08:12:47Z</time>
      </trkpt>
      <trkpt lat="44.65387" lon="5.72503">
        <ele>1077.4</ele>
        <time>2023-05-18T08:12:48Z</time>
      </trkpt>
      <trkpt lat="44.65386" lon="5.72505">
        <ele>1077.6</ele>
        <time>2023-05-18T08:12:49Z</time>
      </trkpt>
      <trkpt lat="44.65388" lon="5.72519">
        <ele>1078</ele>
        <time>2023-05-18T08:12:54Z</time>
      </trkpt>
      <trkpt lat="44.65388" lon="5.72524">
        <ele>1078.4</ele>
        <time>2023-05-18T08:12:56Z</time>
      </trkpt>
      <trkpt lat="44.65388" lon="5.72526">
        <ele>1078.6</ele>
        <time>2023-05-18T08:12:57Z</time>
      </trkpt>
      <trkpt lat="44.65386" lon="5.72536">
        <ele>1079.2</ele>
        <time>2023-05-18T08:13:01Z</time>
      </trkpt>
      <trkpt lat="44.65386" lon="5.72538">
        <ele>1079.4</ele>
        <time>2023-05-18T08:13:02Z</time>
      </trkpt>
      <trkpt lat="44.65386" lon="5.72543">
        <ele>1079.6</ele>
        <time>2023-05-18T08:13:04Z</time>
      </trkpt>
      <trkpt lat="44.65386" lon="5.72545">
        <ele>1079.6</ele>
        <time>2023-05-18T08:13:05Z</time>
      </trkpt>
      <trkpt lat="44.65385" lon="5.72548">
        <ele>1079.8</ele>
        <time>2023-05-18T08:13:06Z</time>
      </trkpt>
      <trkpt lat="44.65386" lon="5.7255">
        <ele>1080</ele>
        <time>2023-05-18T08:13:07Z</time>
      </trkpt>
      <trkpt lat="44.65386" lon="5.72553">
        <ele>1080</ele>
        <time>2023-05-18T08:13:08Z</time>
      </trkpt>
      <trkpt lat="44.65386" lon="5.72556">
        <ele>1080.2</ele>
        <time>2023-05-18T08:13:09Z</time>
      </trkpt>
      <trkpt lat="44.65386" lon="5.72558">
        <ele>1080.2</ele>
        <time>2023-05-18T08:13:10Z</time>
      </trkpt>
      <trkpt lat="44.65385" lon="5.72561">
        <ele>1080.4</ele>
        <time>2023-05-18T08:13:11Z</time>
      </trkpt>
      <trkpt lat="44.65385" lon="5.72563">
        <ele>1080.4</ele>
        <time>2023-05-18T08:13:12Z</time>
      </trkpt>
      <trkpt lat="44.65386" lon="5.72566">
        <ele>1080.6</ele>
        <time>2023-05-18T08:13:13Z</time>
      </trkpt>
      <trkpt lat="44.65385" lon="5.72568">
        <ele>1080.6</ele>
        <time>2023-05-18T08:13:14Z</time>
      </trkpt>
      <trkpt lat="44.65385" lon="5.72571">
        <ele>1080.8</ele>
        <time>2023-05-18T08:13:15Z</time>
      </trkpt>
      <trkpt lat="44.65384" lon="5.72574">
        <ele>1081</ele>
        <time>2023-05-18T08:13:16Z</time>
      </trkpt>
      <trkpt lat="44.65383" lon="5.72577">
        <ele>1081.2</ele>
        <time>2023-05-18T08:13:17Z</time>
      </trkpt>
      <trkpt lat="44.65383" lon="5.72579">
        <ele>1081.2</ele>
        <time>2023-05-18T08:13:18Z</time>
      </trkpt>
      <trkpt lat="44.65382" lon="5.72582">
        <ele>1081.4</ele>
        <time>2023-05-18T08:13:19Z</time>
      </trkpt>
      <trkpt lat="44.65381" lon="5.72585">
        <ele>1081.4</ele>
        <time>2023-05-18T08:13:20Z</time>
      </trkpt>
      <trkpt lat="44.65381" lon="5.72588">
        <ele>1081.4</ele>
        <time>2023-05-18T08:13:21Z</time>
      </trkpt>
      <trkpt lat="44.6538" lon="5.7259">
        <ele>1081.4</ele>
        <time>2023-05-18T08:13:22Z</time>
      </trkpt>
      <trkpt lat="44.6538" lon="5.72593">
        <ele>1081.4</ele>
        <time>2023-05-18T08:13:23Z</time>
      </trkpt>
      <trkpt lat="44.6538" lon="5.72595">
        <ele>1081.4</ele>
        <time>2023-05-18T08:13:24Z</time>
      </trkpt>
      <trkpt lat="44.6538" lon="5.72598">
        <ele>1081.6</ele>
        <time>2023-05-18T08:13:25Z</time>
      </trkpt>
      <trkpt lat="44.6538" lon="5.72601">
        <ele>1081.6</ele>
        <time>2023-05-18T08:13:26Z</time>
      </trkpt>
      <trkpt lat="44.6538" lon="5.72603">
        <ele>1081.6</ele>
        <time>2023-05-18T08:13:27Z</time>
      </trkpt>
      <trkpt lat="44.6538" lon="5.72605">
        <ele>1081.6</ele>
        <time>2023-05-18T08:13:28Z</time>
      </trkpt>
      <trkpt lat="44.6538" lon="5.72608">
        <ele>1081.6</ele>
        <time>2023-05-18T08:13:29Z</time>
      </trkpt>
      <trkpt lat="44.65378" lon="5.72624">
        <ele>1082</ele>
        <time>2023-05-18T08:13:34Z</time>
      </trkpt>
      <trkpt lat="44.6537" lon="5.72648">
        <ele>1082.2</ele>
        <time>2023-05-18T08:13:41Z</time>
      </trkpt>
      <trkpt lat="44.65349" lon="5.72672">
        <ele>1082.2</ele>
        <time>2023-05-18T08:13:49Z</time>
      </trkpt>
      <trkpt lat="44.65332" lon="5.72686">
        <ele>1081.6</ele>
        <time>2023-05-18T08:13:54Z</time>
      </trkpt>
      <trkpt lat="44.65307" lon="5.72704">
        <ele>1079.8</ele>
        <time>2023-05-18T08:13:59Z</time>
      </trkpt>
      <trkpt lat="44.65295" lon="5.7271">
        <ele>1079.2</ele>
        <time>2023-05-18T08:14:01Z</time>
      </trkpt>
      <trkpt lat="44.65284" lon="5.72717">
        <ele>1078.2</ele>
        <time>2023-05-18T08:14:03Z</time>
      </trkpt>
      <trkpt lat="44.65278" lon="5.72721">
        <ele>1077.8</ele>
        <time>2023-05-18T08:14:04Z</time>
      </trkpt>
      <trkpt lat="44.65265" lon="5.72728">
        <ele>1077</ele>
        <time>2023-05-18T08:14:06Z</time>
      </trkpt>
      <trkpt lat="44.65247" lon="5.72743">
        <ele>1075.6</ele>
        <time>2023-05-18T08:14:09Z</time>
      </trkpt>
      <trkpt lat="44.65242" lon="5.7275">
        <ele>1074.8</ele>
        <time>2023-05-18T08:14:10Z</time>
      </trkpt>
      <trkpt lat="44.65238" lon="5.72758">
        <ele>1074.6</ele>
        <time>2023-05-18T08:14:11Z</time>
      </trkpt>
      <trkpt lat="44.65235" lon="5.72768">
        <ele>1073.6</ele>
        <time>2023-05-18T08:14:12Z</time>
      </trkpt>
      <trkpt lat="44.65232" lon="5.72778">
        <ele>1073</ele>
        <time>2023-05-18T08:14:13Z</time>
      </trkpt>
      <trkpt lat="44.6523" lon="5.72788">
        <ele>1072.8</ele>
        <time>2023-05-18T08:14:14Z</time>
      </trkpt>
      <trkpt lat="44.65225" lon="5.72816">
        <ele>1071.8</ele>
        <time>2023-05-18T08:14:17Z</time>
      </trkpt>
      <trkpt lat="44.65224" lon="5.72824">
        <ele>1071.6</ele>
        <time>2023-05-18T08:14:18Z</time>
      </trkpt>
      <trkpt lat="44.65222" lon="5.72832">
        <ele>1071.4</ele>
        <time>2023-05-18T08:14:19Z</time>
      </trkpt>
      <trkpt lat="44.65219" lon="5.72839">
        <ele>1071.2</ele>
        <time>2023-05-18T08:14:20Z</time>
      </trkpt>
      <trkpt lat="44.65216" lon="5.72846">
        <ele>1071.2</ele>
        <time>2023-05-18T08:14:21Z</time>
      </trkpt>
      <trkpt lat="44.65213" lon="5.72852">
        <ele>1071.2</ele>
        <time>2023-05-18T08:14:22Z</time>
      </trkpt>
      <trkpt lat="44.6521" lon="5.72857">
        <ele>1071.2</ele>
        <time>2023-05-18T08:14:23Z</time>
      </trkpt>
      <trkpt lat="44.65207" lon="5.72863">
        <ele>1071.2</ele>
        <time>2023-05-18T08:14:24Z</time>
      </trkpt>
      <trkpt lat="44.65204" lon="5.72867">
        <ele>1071.2</ele>
        <time>2023-05-18T08:14:25Z</time>
      </trkpt>
      <trkpt lat="44.65202" lon="5.72872">
        <ele>1071.2</ele>
        <time>2023-05-18T08:14:26Z</time>
      </trkpt>
      <trkpt lat="44.652" lon="5.72876">
        <ele>1071.2</ele>
        <time>2023-05-18T08:14:27Z</time>
      </trkpt>
      <trkpt lat="44.65197" lon="5.72879">
        <ele>1071.2</ele>
        <time>2023-05-18T08:14:28Z</time>
      </trkpt>
      <trkpt lat="44.65194" lon="5.72883">
        <ele>1071.2</ele>
        <time>2023-05-18T08:14:29Z</time>
      </trkpt>
      <trkpt lat="44.65189" lon="5.72891">
        <ele>1071.2</ele>
        <time>2023-05-18T08:14:31Z</time>
      </trkpt>
      <trkpt lat="44.65187" lon="5.72894">
        <ele>1071.4</ele>
        <time>2023-05-18T08:14:32Z</time>
      </trkpt>
      <trkpt lat="44.65184" lon="5.72897">
        <ele>1071.4</ele>
        <time>2023-05-18T08:14:33Z</time>
      </trkpt>
      <trkpt lat="44.65182" lon="5.729">
        <ele>1071.4</ele>
        <time>2023-05-18T08:14:34Z</time>
      </trkpt>
      <trkpt lat="44.6518" lon="5.72904">
        <ele>1071.6</ele>
        <time>2023-05-18T08:14:35Z</time>
      </trkpt>
      <trkpt lat="44.65178" lon="5.72907">
        <ele>1071.6</ele>
        <time>2023-05-18T08:14:36Z</time>
      </trkpt>
      <trkpt lat="44.65176" lon="5.72909">
        <ele>1071.8</ele>
        <time>2023-05-18T08:14:37Z</time>
      </trkpt>
      <trkpt lat="44.65174" lon="5.72912">
        <ele>1071.8</ele>
        <time>2023-05-18T08:14:38Z</time>
      </trkpt>
      <trkpt lat="44.65172" lon="5.72914">
        <ele>1071.8</ele>
        <time>2023-05-18T08:14:39Z</time>
      </trkpt>
      <trkpt lat="44.65168" lon="5.7292">
        <ele>1072</ele>
        <time>2023-05-18T08:14:41Z</time>
      </trkpt>
      <trkpt lat="44.65167" lon="5.72923">
        <ele>1072</ele>
        <time>2023-05-18T08:14:42Z</time>
      </trkpt>
      <trkpt lat="44.65165" lon="5.72925">
        <ele>1072.2</ele>
        <time>2023-05-18T08:14:43Z</time>
      </trkpt>
      <trkpt lat="44.65163" lon="5.72928">
        <ele>1072.4</ele>
        <time>2023-05-18T08:14:44Z</time>
      </trkpt>
      <trkpt lat="44.65162" lon="5.7293">
        <ele>1072.6</ele>
        <time>2023-05-18T08:14:45Z</time>
      </trkpt>
      <trkpt lat="44.6516" lon="5.72933">
        <ele>1072.6</ele>
        <time>2023-05-18T08:14:46Z</time>
      </trkpt>
      <trkpt lat="44.65159" lon="5.72935">
        <ele>1072.8</ele>
        <time>2023-05-18T08:14:47Z</time>
      </trkpt>
      <trkpt lat="44.65157" lon="5.72937">
        <ele>1073</ele>
        <time>2023-05-18T08:14:48Z</time>
      </trkpt>
      <trkpt lat="44.65156" lon="5.7294">
        <ele>1073</ele>
        <time>2023-05-18T08:14:49Z</time>
      </trkpt>
      <trkpt lat="44.65154" lon="5.72942">
        <ele>1073.2</ele>
        <time>2023-05-18T08:14:50Z</time>
      </trkpt>
      <trkpt lat="44.65153" lon="5.72945">
        <ele>1073.4</ele>
        <time>2023-05-18T08:14:51Z</time>
      </trkpt>
      <trkpt lat="44.65151" lon="5.72948">
        <ele>1073.4</ele>
        <time>2023-05-18T08:14:52Z</time>
      </trkpt>
      <trkpt lat="44.6515" lon="5.72951">
        <ele>1073.6</ele>
        <time>2023-05-18T08:14:53Z</time>
      </trkpt>
      <trkpt lat="44.65148" lon="5.72953">
        <ele>1073.6</ele>
        <time>2023-05-18T08:14:54Z</time>
      </trkpt>
      <trkpt lat="44.65146" lon="5.72956">
        <ele>1073.6</ele>
        <time>2023-05-18T08:14:55Z</time>
      </trkpt>
      <trkpt lat="44.65144" lon="5.72962">
        <ele>1073.8</ele>
        <time>2023-05-18T08:14:57Z</time>
      </trkpt>
      <trkpt lat="44.65143" lon="5.72965">
        <ele>1074</ele>
        <time>2023-05-18T08:14:58Z</time>
      </trkpt>
      <trkpt lat="44.65137" lon="5.72985">
        <ele>1075</ele>
        <time>2023-05-18T08:15:05Z</time>
      </trkpt>
      <trkpt lat="44.65136" lon="5.72988">
        <ele>1075.2</ele>
        <time>2023-05-18T08:15:06Z</time>
      </trkpt>
      <trkpt lat="44.65136" lon="5.72991">
        <ele>1075.2</ele>
        <time>2023-05-18T08:15:07Z</time>
      </trkpt>
      <trkpt lat="44.65135" lon="5.72994">
        <ele>1075.4</ele>
        <time>2023-05-18T08:15:08Z</time>
      </trkpt>
      <trkpt lat="44.65135" lon="5.72997">
        <ele>1075.4</ele>
        <time>2023-05-18T08:15:09Z</time>
      </trkpt>
      <trkpt lat="44.65135" lon="5.73">
        <ele>1075.6</ele>
        <time>2023-05-18T08:15:10Z</time>
      </trkpt>
      <trkpt lat="44.65134" lon="5.73004">
        <ele>1075.6</ele>
        <time>2023-05-18T08:15:11Z</time>
      </trkpt>
      <trkpt lat="44.65134" lon="5.73007">
        <ele>1075.8</ele>
        <time>2023-05-18T08:15:12Z</time>
      </trkpt>
      <trkpt lat="44.65133" lon="5.7301">
        <ele>1076</ele>
        <time>2023-05-18T08:15:13Z</time>
      </trkpt>
      <trkpt lat="44.65132" lon="5.73013">
        <ele>1076.2</ele>
        <time>2023-05-18T08:15:14Z</time>
      </trkpt>
      <trkpt lat="44.65132" lon="5.73016">
        <ele>1076.2</ele>
        <time>2023-05-18T08:15:15Z</time>
      </trkpt>
      <trkpt lat="44.65131" lon="5.73019">
        <ele>1076.4</ele>
        <time>2023-05-18T08:15:16Z</time>
      </trkpt>
      <trkpt lat="44.6513" lon="5.73022">
        <ele>1076.4</ele>
        <time>2023-05-18T08:15:17Z</time>
      </trkpt>
      <trkpt lat="44.6513" lon="5.73025">
        <ele>1076.4</ele>
        <time>2023-05-18T08:15:18Z</time>
      </trkpt>
      <trkpt lat="44.65129" lon="5.73028">
        <ele>1076.6</ele>
        <time>2023-05-18T08:15:19Z</time>
      </trkpt>
      <trkpt lat="44.65129" lon="5.73032">
        <ele>1076.6</ele>
        <time>2023-05-18T08:15:20Z</time>
      </trkpt>
      <trkpt lat="44.65129" lon="5.73035">
        <ele>1076.8</ele>
        <time>2023-05-18T08:15:21Z</time>
      </trkpt>
      <trkpt lat="44.65128" lon="5.73038">
        <ele>1076.8</ele>
        <time>2023-05-18T08:15:22Z</time>
      </trkpt>
      <trkpt lat="44.65128" lon="5.73041">
        <ele>1077</ele>
        <time>2023-05-18T08:15:23Z</time>
      </trkpt>
      <trkpt lat="44.65128" lon="5.73044">
        <ele>1077</ele>
        <time>2023-05-18T08:15:24Z</time>
      </trkpt>
      <trkpt lat="44.65127" lon="5.73048">
        <ele>1077.2</ele>
        <time>2023-05-18T08:15:25Z</time>
      </trkpt>
      <trkpt lat="44.65126" lon="5.73051">
        <ele>1077.4</ele>
        <time>2023-05-18T08:15:26Z</time>
      </trkpt>
      <trkpt lat="44.65126" lon="5.73054">
        <ele>1077.6</ele>
        <time>2023-05-18T08:15:27Z</time>
      </trkpt>
      <trkpt lat="44.65125" lon="5.73057">
        <ele>1077.6</ele>
        <time>2023-05-18T08:15:28Z</time>
      </trkpt>
      <trkpt lat="44.65124" lon="5.7306">
        <ele>1077.8</ele>
        <time>2023-05-18T08:15:29Z</time>
      </trkpt>
      <trkpt lat="44.65123" lon="5.73063">
        <ele>1077.8</ele>
        <time>2023-05-18T08:15:30Z</time>
      </trkpt>
      <trkpt lat="44.65122" lon="5.73066">
        <ele>1078</ele>
        <time>2023-05-18T08:15:31Z</time>
      </trkpt>
      <trkpt lat="44.65122" lon="5.73069">
        <ele>1078.2</ele>
        <time>2023-05-18T08:15:32Z</time>
      </trkpt>
      <trkpt lat="44.65121" lon="5.73071">
        <ele>1078.2</ele>
        <time>2023-05-18T08:15:33Z</time>
      </trkpt>
      <trkpt lat="44.6512" lon="5.73073">
        <ele>1078.2</ele>
        <time>2023-05-18T08:15:34Z</time>
      </trkpt>
      <trkpt lat="44.6512" lon="5.73076">
        <ele>1078.4</ele>
        <time>2023-05-18T08:15:35Z</time>
      </trkpt>
      <trkpt lat="44.65119" lon="5.73078">
        <ele>1078.4</ele>
        <time>2023-05-18T08:15:36Z</time>
      </trkpt>
      <trkpt lat="44.65119" lon="5.73081">
        <ele>1078.6</ele>
        <time>2023-05-18T08:15:37Z</time>
      </trkpt>
      <trkpt lat="44.65118" lon="5.73084">
        <ele>1078.6</ele>
        <time>2023-05-18T08:15:38Z</time>
      </trkpt>
      <trkpt lat="44.65117" lon="5.73087">
        <ele>1078.8</ele>
        <time>2023-05-18T08:15:39Z</time>
      </trkpt>
      <trkpt lat="44.65117" lon="5.7309">
        <ele>1078.8</ele>
        <time>2023-05-18T08:15:40Z</time>
      </trkpt>
      <trkpt lat="44.65117" lon="5.73093">
        <ele>1079</ele>
        <time>2023-05-18T08:15:41Z</time>
      </trkpt>
      <trkpt lat="44.65117" lon="5.73095">
        <ele>1079.2</ele>
        <time>2023-05-18T08:15:42Z</time>
      </trkpt>
      <trkpt lat="44.65116" lon="5.73098">
        <ele>1079.2</ele>
        <time>2023-05-18T08:15:43Z</time>
      </trkpt>
      <trkpt lat="44.65116" lon="5.731">
        <ele>1079.4</ele>
        <time>2023-05-18T08:15:44Z</time>
      </trkpt>
      <trkpt lat="44.65115" lon="5.73103">
        <ele>1079.6</ele>
        <time>2023-05-18T08:15:45Z</time>
      </trkpt>
      <trkpt lat="44.65114" lon="5.73106">
        <ele>1079.6</ele>
        <time>2023-05-18T08:15:46Z</time>
      </trkpt>
      <trkpt lat="44.65114" lon="5.73109">
        <ele>1079.6</ele>
        <time>2023-05-18T08:15:47Z</time>
      </trkpt>
      <trkpt lat="44.65114" lon="5.73111">
        <ele>1079.8</ele>
        <time>2023-05-18T08:15:48Z</time>
      </trkpt>
      <trkpt lat="44.65114" lon="5.73114">
        <ele>1080.2</ele>
        <time>2023-05-18T08:15:49Z</time>
      </trkpt>
      <trkpt lat="44.65114" lon="5.73117">
        <ele>1080.4</ele>
        <time>2023-05-18T08:15:50Z</time>
      </trkpt>
      <trkpt lat="44.65114" lon="5.7312">
        <ele>1080.6</ele>
        <time>2023-05-18T08:15:51Z</time>
      </trkpt>
      <trkpt lat="44.65113" lon="5.73123">
        <ele>1080.6</ele>
        <time>2023-05-18T08:15:52Z</time>
      </trkpt>
      <trkpt lat="44.65113" lon="5.73126">
        <ele>1080.8</ele>
        <time>2023-05-18T08:15:53Z</time>
      </trkpt>
      <trkpt lat="44.65113" lon="5.73129">
        <ele>1080.8</ele>
        <time>2023-05-18T08:15:54Z</time>
      </trkpt>
      <trkpt lat="44.65112" lon="5.73132">
        <ele>1081</ele>
        <time>2023-05-18T08:15:55Z</time>
      </trkpt>
      <trkpt lat="44.65111" lon="5.73135">
        <ele>1081</ele>
        <time>2023-05-18T08:15:56Z</time>
      </trkpt>
      <trkpt lat="44.65111" lon="5.73138">
        <ele>1081</ele>
        <time>2023-05-18T08:15:57Z</time>
      </trkpt>
      <trkpt lat="44.65111" lon="5.73141">
        <ele>1081.2</ele>
        <time>2023-05-18T08:15:58Z</time>
      </trkpt>
      <trkpt lat="44.6511" lon="5.73144">
        <ele>1081.4</ele>
        <time>2023-05-18T08:15:59Z</time>
      </trkpt>
      <trkpt lat="44.6511" lon="5.73147">
        <ele>1081.4</ele>
        <time>2023-05-18T08:16:00Z</time>
      </trkpt>
      <trkpt lat="44.6511" lon="5.7315">
        <ele>1081.6</ele>
        <time>2023-05-18T08:16:01Z</time>
      </trkpt>
      <trkpt lat="44.6511" lon="5.73153">
        <ele>1081.8</ele>
        <time>2023-05-18T08:16:02Z</time>
      </trkpt>
      <trkpt lat="44.65111" lon="5.73155">
        <ele>1081.8</ele>
        <time>2023-05-18T08:16:03Z</time>
      </trkpt>
      <trkpt lat="44.65108" lon="5.73157">
        <ele>1082</ele>
        <time>2023-05-18T08:16:04Z</time>
      </trkpt>
      <trkpt lat="44.65108" lon="5.7316">
        <ele>1082.2</ele>
        <time>2023-05-18T08:16:05Z</time>
      </trkpt>
      <trkpt lat="44.65109" lon="5.73163">
        <ele>1082.2</ele>
        <time>2023-05-18T08:16:06Z</time>
      </trkpt>
      <trkpt lat="44.65108" lon="5.73166">
        <ele>1082.4</ele>
        <time>2023-05-18T08:16:07Z</time>
      </trkpt>
      <trkpt lat="44.65108" lon="5.73169">
        <ele>1082.4</ele>
        <time>2023-05-18T08:16:08Z</time>
      </trkpt>
      <trkpt lat="44.65108" lon="5.73172">
        <ele>1082.6</ele>
        <time>2023-05-18T08:16:09Z</time>
      </trkpt>
      <trkpt lat="44.65108" lon="5.73175">
        <ele>1082.8</ele>
        <time>2023-05-18T08:16:10Z</time>
      </trkpt>
      <trkpt lat="44.65107" lon="5.73177">
        <ele>1083.4</ele>
        <time>2023-05-18T08:16:11Z</time>
      </trkpt>
      <trkpt lat="44.65106" lon="5.7318">
        <ele>1083.4</ele>
        <time>2023-05-18T08:16:12Z</time>
      </trkpt>
      <trkpt lat="44.65106" lon="5.73182">
        <ele>1083.6</ele>
        <time>2023-05-18T08:16:13Z</time>
      </trkpt>
      <trkpt lat="44.65106" lon="5.73185">
        <ele>1083.8</ele>
        <time>2023-05-18T08:16:14Z</time>
      </trkpt>
      <trkpt lat="44.65106" lon="5.73187">
        <ele>1083.8</ele>
        <time>2023-05-18T08:16:15Z</time>
      </trkpt>
      <trkpt lat="44.65105" lon="5.73189">
        <ele>1083.8</ele>
        <time>2023-05-18T08:16:16Z</time>
      </trkpt>
      <trkpt lat="44.65105" lon="5.73191">
        <ele>1083.8</ele>
        <time>2023-05-18T08:16:17Z</time>
      </trkpt>
      <trkpt lat="44.65104" lon="5.73194">
        <ele>1084</ele>
        <time>2023-05-18T08:16:18Z</time>
      </trkpt>
      <trkpt lat="44.65103" lon="5.73196">
        <ele>1084</ele>
        <time>2023-05-18T08:16:19Z</time>
      </trkpt>
      <trkpt lat="44.65104" lon="5.73199">
        <ele>1084.2</ele>
        <time>2023-05-18T08:16:20Z</time>
      </trkpt>
      <trkpt lat="44.65104" lon="5.73202">
        <ele>1084.4</ele>
        <time>2023-05-18T08:16:21Z</time>
      </trkpt>
      <trkpt lat="44.65103" lon="5.73205">
        <ele>1084.4</ele>
        <time>2023-05-18T08:16:22Z</time>
      </trkpt>
      <trkpt lat="44.65103" lon="5.73208">
        <ele>1084.6</ele>
        <time>2023-05-18T08:16:23Z</time>
      </trkpt>
      <trkpt lat="44.65103" lon="5.7321">
        <ele>1084.6</ele>
        <time>2023-05-18T08:16:24Z</time>
      </trkpt>
      <trkpt lat="44.65103" lon="5.73213">
        <ele>1084.8</ele>
        <time>2023-05-18T08:16:25Z</time>
      </trkpt>
      <trkpt lat="44.65103" lon="5.73216">
        <ele>1084.8</ele>
        <time>2023-05-18T08:16:26Z</time>
      </trkpt>
      <trkpt lat="44.65103" lon="5.73219">
        <ele>1085</ele>
        <time>2023-05-18T08:16:27Z</time>
      </trkpt>
      <trkpt lat="44.65103" lon="5.73222">
        <ele>1085.2</ele>
        <time>2023-05-18T08:16:28Z</time>
      </trkpt>
      <trkpt lat="44.65102" lon="5.73224">
        <ele>1085.4</ele>
        <time>2023-05-18T08:16:29Z</time>
      </trkpt>
      <trkpt lat="44.65102" lon="5.73226">
        <ele>1085.6</ele>
        <time>2023-05-18T08:16:30Z</time>
      </trkpt>
      <trkpt lat="44.65101" lon="5.7323">
        <ele>1085.6</ele>
        <time>2023-05-18T08:16:31Z</time>
      </trkpt>
      <trkpt lat="44.65102" lon="5.73232">
        <ele>1085.8</ele>
        <time>2023-05-18T08:16:32Z</time>
      </trkpt>
      <trkpt lat="44.65101" lon="5.73236">
        <ele>1086</ele>
        <time>2023-05-18T08:16:33Z</time>
      </trkpt>
      <trkpt lat="44.65101" lon="5.73239">
        <ele>1086</ele>
        <time>2023-05-18T08:16:34Z</time>
      </trkpt>
      <trkpt lat="44.65101" lon="5.73242">
        <ele>1086</ele>
        <time>2023-05-18T08:16:35Z</time>
      </trkpt>
      <trkpt lat="44.65101" lon="5.73244">
        <ele>1086.2</ele>
        <time>2023-05-18T08:16:36Z</time>
      </trkpt>
      <trkpt lat="44.651" lon="5.73246">
        <ele>1086.2</ele>
        <time>2023-05-18T08:16:37Z</time>
      </trkpt>
      <trkpt lat="44.65099" lon="5.73247">
        <ele>1086.4</ele>
        <time>2023-05-18T08:16:38Z</time>
      </trkpt>
      <trkpt lat="44.65098" lon="5.73249">
        <ele>1086.4</ele>
        <time>2023-05-18T08:16:39Z</time>
      </trkpt>
      <trkpt lat="44.65097" lon="5.7325">
        <ele>1086.6</ele>
        <time>2023-05-18T08:16:40Z</time>
      </trkpt>
      <trkpt lat="44.65097" lon="5.73251">
        <ele>1086.6</ele>
        <time>2023-05-18T08:16:41Z</time>
      </trkpt>
      <trkpt lat="44.65097" lon="5.73251">
        <ele>1086.6</ele>
        <time>2023-05-18T08:16:42Z</time>
      </trkpt>
      <trkpt lat="44.65097" lon="5.73252">
        <ele>1087</ele>
        <time>2023-05-18T08:16:43Z</time>
      </trkpt>
      <trkpt lat="44.65097" lon="5.73255">
        <ele>1087.2</ele>
        <time>2023-05-18T08:16:44Z</time>
      </trkpt>
      <trkpt lat="44.65097" lon="5.73258">
        <ele>1087.4</ele>
        <time>2023-05-18T08:16:45Z</time>
      </trkpt>
      <trkpt lat="44.65096" lon="5.73261">
        <ele>1087.6</ele>
        <time>2023-05-18T08:16:46Z</time>
      </trkpt>
      <trkpt lat="44.65095" lon="5.73262">
        <ele>1087.6</ele>
        <time>2023-05-18T08:16:47Z</time>
      </trkpt>
      <trkpt lat="44.65094" lon="5.73263">
        <ele>1087.8</ele>
        <time>2023-05-18T08:16:48Z</time>
      </trkpt>
      <trkpt lat="44.65093" lon="5.73264">
        <ele>1088</ele>
        <time>2023-05-18T08:16:49Z</time>
      </trkpt>
      <trkpt lat="44.65093" lon="5.73265">
        <ele>1088.2</ele>
        <time>2023-05-18T08:16:50Z</time>
      </trkpt>
      <trkpt lat="44.65092" lon="5.73266">
        <ele>1088.4</ele>
        <time>2023-05-18T08:16:51Z</time>
      </trkpt>
      <trkpt lat="44.6509" lon="5.73269">
        <ele>1088.8</ele>
        <time>2023-05-18T08:16:52Z</time>
      </trkpt>
      <trkpt lat="44.65087" lon="5.73271">
        <ele>1088.8</ele>
        <time>2023-05-18T08:16:53Z</time>
      </trkpt>
      <trkpt lat="44.65085" lon="5.73275">
        <ele>1089.2</ele>
        <time>2023-05-18T08:16:54Z</time>
      </trkpt>
      <trkpt lat="44.65083" lon="5.73278">
        <ele>1089.4</ele>
        <time>2023-05-18T08:16:55Z</time>
      </trkpt>
      <trkpt lat="44.65083" lon="5.73281">
        <ele>1089.6</ele>
        <time>2023-05-18T08:16:56Z</time>
      </trkpt>
      <trkpt lat="44.65082" lon="5.73285">
        <ele>1089.6</ele>
        <time>2023-05-18T08:16:57Z</time>
      </trkpt>
      <trkpt lat="44.65081" lon="5.73288">
        <ele>1089.6</ele>
        <time>2023-05-18T08:16:58Z</time>
      </trkpt>
      <trkpt lat="44.6508" lon="5.73291">
        <ele>1089.8</ele>
        <time>2023-05-18T08:16:59Z</time>
      </trkpt>
      <trkpt lat="44.65079" lon="5.73295">
        <ele>1089.8</ele>
        <time>2023-05-18T08:17:00Z</time>
      </trkpt>
      <trkpt lat="44.65078" lon="5.73298">
        <ele>1090</ele>
        <time>2023-05-18T08:17:01Z</time>
      </trkpt>
      <trkpt lat="44.65077" lon="5.73302">
        <ele>1090.2</ele>
        <time>2023-05-18T08:17:02Z</time>
      </trkpt>
      <trkpt lat="44.65077" lon="5.73306">
        <ele>1090.2</ele>
        <time>2023-05-18T08:17:03Z</time>
      </trkpt>
      <trkpt lat="44.65077" lon="5.7331">
        <ele>1090.4</ele>
        <time>2023-05-18T08:17:04Z</time>
      </trkpt>
      <trkpt lat="44.65075" lon="5.73312">
        <ele>1090.4</ele>
        <time>2023-05-18T08:17:05Z</time>
      </trkpt>
      <trkpt lat="44.65074" lon="5.73316">
        <ele>1090.6</ele>
        <time>2023-05-18T08:17:06Z</time>
      </trkpt>
      <trkpt lat="44.65073" lon="5.73318">
        <ele>1090.6</ele>
        <time>2023-05-18T08:17:07Z</time>
      </trkpt>
      <trkpt lat="44.65073" lon="5.7332">
        <ele>1090.8</ele>
        <time>2023-05-18T08:17:08Z</time>
      </trkpt>
      <trkpt lat="44.65072" lon="5.73321">
        <ele>1090.8</ele>
        <time>2023-05-18T08:17:09Z</time>
      </trkpt>
      <trkpt lat="44.65071" lon="5.73324">
        <ele>1091</ele>
        <time>2023-05-18T08:17:10Z</time>
      </trkpt>
      <trkpt lat="44.65069" lon="5.73327">
        <ele>1091.2</ele>
        <time>2023-05-18T08:17:11Z</time>
      </trkpt>
      <trkpt lat="44.65068" lon="5.7333">
        <ele>1091.2</ele>
        <time>2023-05-18T08:17:12Z</time>
      </trkpt>
      <trkpt lat="44.65067" lon="5.73332">
        <ele>1091.2</ele>
        <time>2023-05-18T08:17:13Z</time>
      </trkpt>
      <trkpt lat="44.65066" lon="5.73335">
        <ele>1091.4</ele>
        <time>2023-05-18T08:17:14Z</time>
      </trkpt>
      <trkpt lat="44.65065" lon="5.73338">
        <ele>1091.4</ele>
        <time>2023-05-18T08:17:15Z</time>
      </trkpt>
      <trkpt lat="44.65064" lon="5.7334">
        <ele>1091.6</ele>
        <time>2023-05-18T08:17:16Z</time>
      </trkpt>
      <trkpt lat="44.65063" lon="5.73342">
        <ele>1091.6</ele>
        <time>2023-05-18T08:17:17Z</time>
      </trkpt>
      <trkpt lat="44.65062" lon="5.73345">
        <ele>1091.8</ele>
        <time>2023-05-18T08:17:18Z</time>
      </trkpt>
      <trkpt lat="44.65061" lon="5.73348">
        <ele>1091.8</ele>
        <time>2023-05-18T08:17:19Z</time>
      </trkpt>
      <trkpt lat="44.6506" lon="5.73352">
        <ele>1092</ele>
        <time>2023-05-18T08:17:20Z</time>
      </trkpt>
      <trkpt lat="44.6506" lon="5.73356">
        <ele>1092</ele>
        <time>2023-05-18T08:17:21Z</time>
      </trkpt>
      <trkpt lat="44.6506" lon="5.73359">
        <ele>1092.2</ele>
        <time>2023-05-18T08:17:22Z</time>
      </trkpt>
      <trkpt lat="44.65059" lon="5.73363">
        <ele>1092.2</ele>
        <time>2023-05-18T08:17:23Z</time>
      </trkpt>
      <trkpt lat="44.65058" lon="5.73366">
        <ele>1092.4</ele>
        <time>2023-05-18T08:17:24Z</time>
      </trkpt>
      <trkpt lat="44.65058" lon="5.73369">
        <ele>1092.4</ele>
        <time>2023-05-18T08:17:25Z</time>
      </trkpt>
      <trkpt lat="44.65056" lon="5.73372">
        <ele>1092.4</ele>
        <time>2023-05-18T08:17:26Z</time>
      </trkpt>
      <trkpt lat="44.65056" lon="5.73376">
        <ele>1092.6</ele>
        <time>2023-05-18T08:17:27Z</time>
      </trkpt>
      <trkpt lat="44.65055" lon="5.7338">
        <ele>1092.6</ele>
        <time>2023-05-18T08:17:28Z</time>
      </trkpt>
      <trkpt lat="44.65055" lon="5.73384">
        <ele>1092.8</ele>
        <time>2023-05-18T08:17:29Z</time>
      </trkpt>
      <trkpt lat="44.65054" lon="5.73387">
        <ele>1092.8</ele>
        <time>2023-05-18T08:17:30Z</time>
      </trkpt>
      <trkpt lat="44.65053" lon="5.73391">
        <ele>1092.8</ele>
        <time>2023-05-18T08:17:31Z</time>
      </trkpt>
      <trkpt lat="44.65052" lon="5.73393">
        <ele>1093</ele>
        <time>2023-05-18T08:17:32Z</time>
      </trkpt>
      <trkpt lat="44.65052" lon="5.73396">
        <ele>1093</ele>
        <time>2023-05-18T08:17:33Z</time>
      </trkpt>
      <trkpt lat="44.65051" lon="5.73398">
        <ele>1093</ele>
        <time>2023-05-18T08:17:34Z</time>
      </trkpt>
      <trkpt lat="44.65047" lon="5.73409">
        <ele>1093.2</ele>
        <time>2023-05-18T08:17:37Z</time>
      </trkpt>
      <trkpt lat="44.65045" lon="5.73413">
        <ele>1093.2</ele>
        <time>2023-05-18T08:17:38Z</time>
      </trkpt>
      <trkpt lat="44.65035" lon="5.7344">
        <ele>1093.6</ele>
        <time>2023-05-18T08:17:45Z</time>
      </trkpt>
      <trkpt lat="44.65036" lon="5.73444">
        <ele>1093.8</ele>
        <time>2023-05-18T08:17:46Z</time>
      </trkpt>
      <trkpt lat="44.65037" lon="5.73448">
        <ele>1093.8</ele>
        <time>2023-05-18T08:17:47Z</time>
      </trkpt>
      <trkpt lat="44.65038" lon="5.73459">
        <ele>1094</ele>
        <time>2023-05-18T08:17:50Z</time>
      </trkpt>
      <trkpt lat="44.65038" lon="5.73463">
        <ele>1094.2</ele>
        <time>2023-05-18T08:17:51Z</time>
      </trkpt>
      <trkpt lat="44.65038" lon="5.73465">
        <ele>1094</ele>
        <time>2023-05-18T08:17:52Z</time>
      </trkpt>
      <trkpt lat="44.65037" lon="5.73468">
        <ele>1094.2</ele>
        <time>2023-05-18T08:17:53Z</time>
      </trkpt>
      <trkpt lat="44.65038" lon="5.7347">
        <ele>1094.4</ele>
        <time>2023-05-18T08:17:54Z</time>
      </trkpt>
      <trkpt lat="44.65038" lon="5.73471">
        <ele>1094.4</ele>
        <time>2023-05-18T08:17:55Z</time>
      </trkpt>
      <trkpt lat="44.65038" lon="5.73474">
        <ele>1094.6</ele>
        <time>2023-05-18T08:17:56Z</time>
      </trkpt>
      <trkpt lat="44.65038" lon="5.73476">
        <ele>1094.6</ele>
        <time>2023-05-18T08:17:57Z</time>
      </trkpt>
      <trkpt lat="44.65038" lon="5.73478">
        <ele>1094.8</ele>
        <time>2023-05-18T08:17:58Z</time>
      </trkpt>
      <trkpt lat="44.65036" lon="5.73481">
        <ele>1095</ele>
        <time>2023-05-18T08:17:59Z</time>
      </trkpt>
      <trkpt lat="44.65035" lon="5.73484">
        <ele>1095</ele>
        <time>2023-05-18T08:18:00Z</time>
      </trkpt>
      <trkpt lat="44.65033" lon="5.73486">
        <ele>1095.4</ele>
        <time>2023-05-18T08:18:01Z</time>
      </trkpt>
      <trkpt lat="44.65032" lon="5.73489">
        <ele>1095.4</ele>
        <time>2023-05-18T08:18:02Z</time>
      </trkpt>
      <trkpt lat="44.65029" lon="5.73494">
        <ele>1095.6</ele>
        <time>2023-05-18T08:18:04Z</time>
      </trkpt>
      <trkpt lat="44.65027" lon="5.73496">
        <ele>1095.8</ele>
        <time>2023-05-18T08:18:05Z</time>
      </trkpt>
      <trkpt lat="44.65026" lon="5.73498">
        <ele>1096</ele>
        <time>2023-05-18T08:18:06Z</time>
      </trkpt>
      <trkpt lat="44.65024" lon="5.735">
        <ele>1096.2</ele>
        <time>2023-05-18T08:18:07Z</time>
      </trkpt>
      <trkpt lat="44.65021" lon="5.73502">
        <ele>1096.2</ele>
        <time>2023-05-18T08:18:08Z</time>
      </trkpt>
      <trkpt lat="44.65019" lon="5.73503">
        <ele>1096.2</ele>
        <time>2023-05-18T08:18:09Z</time>
      </trkpt>
      <trkpt lat="44.65018" lon="5.73505">
        <ele>1096.4</ele>
        <time>2023-05-18T08:18:10Z</time>
      </trkpt>
      <trkpt lat="44.65017" lon="5.73507">
        <ele>1096.2</ele>
        <time>2023-05-18T08:18:11Z</time>
      </trkpt>
      <trkpt lat="44.65015" lon="5.7351">
        <ele>1096.4</ele>
        <time>2023-05-18T08:18:12Z</time>
      </trkpt>
      <trkpt lat="44.65013" lon="5.73513">
        <ele>1096.4</ele>
        <time>2023-05-18T08:18:13Z</time>
      </trkpt>
      <trkpt lat="44.65012" lon="5.73515">
        <ele>1096.6</ele>
        <time>2023-05-18T08:18:14Z</time>
      </trkpt>
      <trkpt lat="44.6501" lon="5.73518">
        <ele>1096.6</ele>
        <time>2023-05-18T08:18:15Z</time>
      </trkpt>
      <trkpt lat="44.65009" lon="5.73522">
        <ele>1096.8</ele>
        <time>2023-05-18T08:18:16Z</time>
      </trkpt>
      <trkpt lat="44.65009" lon="5.73525">
        <ele>1096.8</ele>
        <time>2023-05-18T08:18:17Z</time>
      </trkpt>
      <trkpt lat="44.65008" lon="5.73528">
        <ele>1096.8</ele>
        <time>2023-05-18T08:18:18Z</time>
      </trkpt>
      <trkpt lat="44.65007" lon="5.73531">
        <ele>1097</ele>
        <time>2023-05-18T08:18:19Z</time>
      </trkpt>
      <trkpt lat="44.65006" lon="5.73534">
        <ele>1097</ele>
        <time>2023-05-18T08:18:20Z</time>
      </trkpt>
      <trkpt lat="44.65005" lon="5.73537">
        <ele>1097</ele>
        <time>2023-05-18T08:18:21Z</time>
      </trkpt>
      <trkpt lat="44.65005" lon="5.7354">
        <ele>1097</ele>
        <time>2023-05-18T08:18:22Z</time>
      </trkpt>
      <trkpt lat="44.65004" lon="5.73543">
        <ele>1097.2</ele>
        <time>2023-05-18T08:18:23Z</time>
      </trkpt>
      <trkpt lat="44.65004" lon="5.73545">
        <ele>1097.4</ele>
        <time>2023-05-18T08:18:24Z</time>
      </trkpt>
      <trkpt lat="44.65003" lon="5.73548">
        <ele>1097.4</ele>
        <time>2023-05-18T08:18:25Z</time>
      </trkpt>
      <trkpt lat="44.65002" lon="5.73551">
        <ele>1097.6</ele>
        <time>2023-05-18T08:18:26Z</time>
      </trkpt>
      <trkpt lat="44.65002" lon="5.73553">
        <ele>1097.6</ele>
        <time>2023-05-18T08:18:27Z</time>
      </trkpt>
      <trkpt lat="44.65001" lon="5.73556">
        <ele>1097.8</ele>
        <time>2023-05-18T08:18:28Z</time>
      </trkpt>
      <trkpt lat="44.65" lon="5.73559">
        <ele>1097.8</ele>
        <time>2023-05-18T08:18:29Z</time>
      </trkpt>
      <trkpt lat="44.64999" lon="5.73561">
        <ele>1098</ele>
        <time>2023-05-18T08:18:30Z</time>
      </trkpt>
      <trkpt lat="44.64998" lon="5.73563">
        <ele>1098.2</ele>
        <time>2023-05-18T08:18:31Z</time>
      </trkpt>
      <trkpt lat="44.64998" lon="5.73567">
        <ele>1098.2</ele>
        <time>2023-05-18T08:18:32Z</time>
      </trkpt>
      <trkpt lat="44.64997" lon="5.7357">
        <ele>1098.4</ele>
        <time>2023-05-18T08:18:33Z</time>
      </trkpt>
      <trkpt lat="44.64996" lon="5.73573">
        <ele>1098.4</ele>
        <time>2023-05-18T08:18:34Z</time>
      </trkpt>
      <trkpt lat="44.64995" lon="5.73576">
        <ele>1098.6</ele>
        <time>2023-05-18T08:18:35Z</time>
      </trkpt>
      <trkpt lat="44.64994" lon="5.7358">
        <ele>1098.6</ele>
        <time>2023-05-18T08:18:36Z</time>
      </trkpt>
      <trkpt lat="44.64994" lon="5.73584">
        <ele>1098.6</ele>
        <time>2023-05-18T08:18:37Z</time>
      </trkpt>
      <trkpt lat="44.64993" lon="5.73587">
        <ele>1098.6</ele>
        <time>2023-05-18T08:18:38Z</time>
      </trkpt>
      <trkpt lat="44.64993" lon="5.7359">
        <ele>1098.8</ele>
        <time>2023-05-18T08:18:39Z</time>
      </trkpt>
      <trkpt lat="44.64993" lon="5.73593">
        <ele>1099</ele>
        <time>2023-05-18T08:18:40Z</time>
      </trkpt>
      <trkpt lat="44.64993" lon="5.73594">
        <ele>1099</ele>
        <time>2023-05-18T08:18:41Z</time>
      </trkpt>
      <trkpt lat="44.64993" lon="5.73594">
        <ele>1099.2</ele>
        <time>2023-05-18T08:18:42Z</time>
      </trkpt>
      <trkpt lat="44.64993" lon="5.73594">
        <ele>1099.6</ele>
        <time>2023-05-18T08:18:54Z</time>
      </trkpt>
      <trkpt lat="44.64993" lon="5.73595">
        <ele>1099.8</ele>
        <time>2023-05-18T08:19:04Z</time>
      </trkpt>
      <trkpt lat="44.64991" lon="5.73604">
        <ele>1099.8</ele>
        <time>2023-05-18T08:19:08Z</time>
      </trkpt>
      <trkpt lat="44.64989" lon="5.73612">
        <ele>1099.6</ele>
        <time>2023-05-18T08:19:11Z</time>
      </trkpt>
      <trkpt lat="44.64985" lon="5.73623">
        <ele>1099.8</ele>
        <time>2023-05-18T08:19:14Z</time>
      </trkpt>
      <trkpt lat="44.64977" lon="5.7364">
        <ele>1100.2</ele>
        <time>2023-05-18T08:19:21Z</time>
      </trkpt>
      <trkpt lat="44.64977" lon="5.7364">
        <ele>1100.2</ele>
        <time>2023-05-18T08:19:22Z</time>
      </trkpt>
      <trkpt lat="44.64977" lon="5.7364">
        <ele>1100.4</ele>
        <time>2023-05-18T08:19:23Z</time>
      </trkpt>
      <trkpt lat="44.64977" lon="5.7364">
        <ele>1100.6</ele>
        <time>2023-05-18T08:19:24Z</time>
      </trkpt>
      <trkpt lat="44.64977" lon="5.7364">
        <ele>1101.2</ele>
        <time>2023-05-18T08:19:30Z</time>
      </trkpt>
      <trkpt lat="44.64977" lon="5.7364">
        <ele>1101.4</ele>
        <time>2023-05-18T08:19:33Z</time>
      </trkpt>
      <trkpt lat="44.64976" lon="5.73643">
        <ele>1101.8</ele>
        <time>2023-05-18T08:19:43Z</time>
      </trkpt>
      <trkpt lat="44.64976" lon="5.73644">
        <ele>1101.8</ele>
        <time>2023-05-18T08:19:44Z</time>
      </trkpt>
      <trkpt lat="44.64972" lon="5.73646">
        <ele>1101.6</ele>
        <time>2023-05-18T08:19:46Z</time>
      </trkpt>
      <trkpt lat="44.64971" lon="5.73648">
        <ele>1101.6</ele>
        <time>2023-05-18T08:19:47Z</time>
      </trkpt>
      <trkpt lat="44.64969" lon="5.73648">
        <ele>1101.6</ele>
        <time>2023-05-18T08:19:48Z</time>
      </trkpt>
      <trkpt lat="44.64968" lon="5.73649">
        <ele>1101.8</ele>
        <time>2023-05-18T08:19:49Z</time>
      </trkpt>
      <trkpt lat="44.64965" lon="5.73651">
        <ele>1102</ele>
        <time>2023-05-18T08:19:51Z</time>
      </trkpt>
      <trkpt lat="44.64964" lon="5.73652">
        <ele>1102</ele>
        <time>2023-05-18T08:19:52Z</time>
      </trkpt>
      <trkpt lat="44.64963" lon="5.73653">
        <ele>1102.2</ele>
        <time>2023-05-18T08:19:53Z</time>
      </trkpt>
      <trkpt lat="44.64962" lon="5.73655">
        <ele>1102.2</ele>
        <time>2023-05-18T08:19:54Z</time>
      </trkpt>
      <trkpt lat="44.64961" lon="5.73657">
        <ele>1102.4</ele>
        <time>2023-05-18T08:19:55Z</time>
      </trkpt>
      <trkpt lat="44.64959" lon="5.7366">
        <ele>1102.2</ele>
        <time>2023-05-18T08:19:56Z</time>
      </trkpt>
      <trkpt lat="44.64958" lon="5.73662">
        <ele>1102.4</ele>
        <time>2023-05-18T08:19:57Z</time>
      </trkpt>
      <trkpt lat="44.64957" lon="5.73664">
        <ele>1102.4</ele>
        <time>2023-05-18T08:19:58Z</time>
      </trkpt>
      <trkpt lat="44.64957" lon="5.73666">
        <ele>1102.4</ele>
        <time>2023-05-18T08:19:59Z</time>
      </trkpt>
      <trkpt lat="44.64955" lon="5.7367">
        <ele>1102.6</ele>
        <time>2023-05-18T08:20:01Z</time>
      </trkpt>
      <trkpt lat="44.64955" lon="5.73672">
        <ele>1102.8</ele>
        <time>2023-05-18T08:20:02Z</time>
      </trkpt>
      <trkpt lat="44.64955" lon="5.73674">
        <ele>1102.6</ele>
        <time>2023-05-18T08:20:03Z</time>
      </trkpt>
      <trkpt lat="44.64954" lon="5.73676">
        <ele>1102.8</ele>
        <time>2023-05-18T08:20:04Z</time>
      </trkpt>
      <trkpt lat="44.64954" lon="5.73676">
        <ele>1102.8</ele>
        <time>2023-05-18T08:20:05Z</time>
      </trkpt>
      <trkpt lat="44.64953" lon="5.73676">
        <ele>1103</ele>
        <time>2023-05-18T08:20:06Z</time>
      </trkpt>
      <trkpt lat="44.64954" lon="5.73677">
        <ele>1103</ele>
        <time>2023-05-18T08:20:07Z</time>
      </trkpt>
      <trkpt lat="44.64954" lon="5.73677">
        <ele>1103</ele>
        <time>2023-05-18T08:20:08Z</time>
      </trkpt>
      <trkpt lat="44.64954" lon="5.73677">
        <ele>1102.8</ele>
        <time>2023-05-18T08:20:17Z</time>
      </trkpt>
      <trkpt lat="44.64954" lon="5.73677">
        <ele>1102.8</ele>
        <time>2023-05-18T08:20:45Z</time>
      </trkpt>
      <trkpt lat="44.64954" lon="5.73677">
        <ele>1103</ele>
        <time>2023-05-18T08:20:53Z</time>
      </trkpt>
      <trkpt lat="44.64954" lon="5.73677">
        <ele>1102.8</ele>
        <time>2023-05-18T08:21:30Z</time>
      </trkpt>
      <trkpt lat="44.64954" lon="5.73677">
        <ele>1103</ele>
        <time>2023-05-18T08:21:37Z</time>
      </trkpt>
      <trkpt lat="44.64952" lon="5.73678">
        <ele>1103.2</ele>
        <time>2023-05-18T08:21:45Z</time>
      </trkpt>
      <trkpt lat="44.64951" lon="5.7368">
        <ele>1103.4</ele>
        <time>2023-05-18T08:21:47Z</time>
      </trkpt>
      <trkpt lat="44.64951" lon="5.73681">
        <ele>1103.6</ele>
        <time>2023-05-18T08:21:48Z</time>
      </trkpt>
      <trkpt lat="44.64949" lon="5.73685">
        <ele>1103.6</ele>
        <time>2023-05-18T08:21:49Z</time>
      </trkpt>
      <trkpt lat="44.64944" lon="5.73691">
        <ele>1103.8</ele>
        <time>2023-05-18T08:21:51Z</time>
      </trkpt>
      <trkpt lat="44.64942" lon="5.73693">
        <ele>1103.8</ele>
        <time>2023-05-18T08:21:52Z</time>
      </trkpt>
      <trkpt lat="44.64941" lon="5.73696">
        <ele>1104</ele>
        <time>2023-05-18T08:21:53Z</time>
      </trkpt>
      <trkpt lat="44.6494" lon="5.73698">
        <ele>1104</ele>
        <time>2023-05-18T08:21:54Z</time>
      </trkpt>
      <trkpt lat="44.64939" lon="5.737">
        <ele>1104.2</ele>
        <time>2023-05-18T08:21:55Z</time>
      </trkpt>
      <trkpt lat="44.64937" lon="5.73702">
        <ele>1104.2</ele>
        <time>2023-05-18T08:21:56Z</time>
      </trkpt>
      <trkpt lat="44.64936" lon="5.73704">
        <ele>1104.2</ele>
        <time>2023-05-18T08:21:57Z</time>
      </trkpt>
      <trkpt lat="44.64934" lon="5.73707">
        <ele>1104.2</ele>
        <time>2023-05-18T08:21:58Z</time>
      </trkpt>
      <trkpt lat="44.64933" lon="5.73709">
        <ele>1104.4</ele>
        <time>2023-05-18T08:21:59Z</time>
      </trkpt>
      <trkpt lat="44.64931" lon="5.73711">
        <ele>1104.6</ele>
        <time>2023-05-18T08:22:00Z</time>
      </trkpt>
      <trkpt lat="44.64928" lon="5.73714">
        <ele>1104.8</ele>
        <time>2023-05-18T08:22:02Z</time>
      </trkpt>
      <trkpt lat="44.64926" lon="5.73716">
        <ele>1105</ele>
        <time>2023-05-18T08:22:03Z</time>
      </trkpt>
      <trkpt lat="44.6492" lon="5.73729">
        <ele>1105.4</ele>
        <time>2023-05-18T08:22:06Z</time>
      </trkpt>
      <trkpt lat="44.64917" lon="5.73735">
        <ele>1105.6</ele>
        <time>2023-05-18T08:22:07Z</time>
      </trkpt>
      <trkpt lat="44.64915" lon="5.73738">
        <ele>1105.6</ele>
        <time>2023-05-18T08:22:08Z</time>
      </trkpt>
      <trkpt lat="44.64911" lon="5.73746">
        <ele>1105.8</ele>
        <time>2023-05-18T08:22:10Z</time>
      </trkpt>
      <trkpt lat="44.64911" lon="5.73749">
        <ele>1105.8</ele>
        <time>2023-05-18T08:22:11Z</time>
      </trkpt>
      <trkpt lat="44.64909" lon="5.73752">
        <ele>1105.8</ele>
        <time>2023-05-18T08:22:12Z</time>
      </trkpt>
      <trkpt lat="44.64908" lon="5.73755">
        <ele>1105.8</ele>
        <time>2023-05-18T08:22:13Z</time>
      </trkpt>
      <trkpt lat="44.64907" lon="5.73758">
        <ele>1106</ele>
        <time>2023-05-18T08:22:14Z</time>
      </trkpt>
      <trkpt lat="44.64906" lon="5.73763">
        <ele>1106</ele>
        <time>2023-05-18T08:22:15Z</time>
      </trkpt>
      <trkpt lat="44.64905" lon="5.73765">
        <ele>1106.2</ele>
        <time>2023-05-18T08:22:16Z</time>
      </trkpt>
      <trkpt lat="44.64905" lon="5.73768">
        <ele>1106.4</ele>
        <time>2023-05-18T08:22:17Z</time>
      </trkpt>
      <trkpt lat="44.64903" lon="5.73771">
        <ele>1106.4</ele>
        <time>2023-05-18T08:22:18Z</time>
      </trkpt>
      <trkpt lat="44.64902" lon="5.73774">
        <ele>1106.6</ele>
        <time>2023-05-18T08:22:19Z</time>
      </trkpt>
      <trkpt lat="44.64901" lon="5.73778">
        <ele>1106.4</ele>
        <time>2023-05-18T08:22:20Z</time>
      </trkpt>
      <trkpt lat="44.649" lon="5.73782">
        <ele>1106.4</ele>
        <time>2023-05-18T08:22:21Z</time>
      </trkpt>
      <trkpt lat="44.64899" lon="5.73784">
        <ele>1106.6</ele>
        <time>2023-05-18T08:22:22Z</time>
      </trkpt>
      <trkpt lat="44.64898" lon="5.73788">
        <ele>1106.6</ele>
        <time>2023-05-18T08:22:23Z</time>
      </trkpt>
      <trkpt lat="44.64897" lon="5.73791">
        <ele>1106.8</ele>
        <time>2023-05-18T08:22:24Z</time>
      </trkpt>
      <trkpt lat="44.64896" lon="5.73794">
        <ele>1107</ele>
        <time>2023-05-18T08:22:25Z</time>
      </trkpt>
      <trkpt lat="44.64895" lon="5.73797">
        <ele>1107</ele>
        <time>2023-05-18T08:22:26Z</time>
      </trkpt>
      <trkpt lat="44.64894" lon="5.738">
        <ele>1107</ele>
        <time>2023-05-18T08:22:27Z</time>
      </trkpt>
      <trkpt lat="44.64893" lon="5.73804">
        <ele>1107.2</ele>
        <time>2023-05-18T08:22:28Z</time>
      </trkpt>
      <trkpt lat="44.64892" lon="5.73806">
        <ele>1107.2</ele>
        <time>2023-05-18T08:22:29Z</time>
      </trkpt>
      <trkpt lat="44.6489" lon="5.7381">
        <ele>1107.4</ele>
        <time>2023-05-18T08:22:30Z</time>
      </trkpt>
      <trkpt lat="44.6489" lon="5.73812">
        <ele>1107.4</ele>
        <time>2023-05-18T08:22:31Z</time>
      </trkpt>
      <trkpt lat="44.64888" lon="5.73815">
        <ele>1107.6</ele>
        <time>2023-05-18T08:22:32Z</time>
      </trkpt>
      <trkpt lat="44.64886" lon="5.73817">
        <ele>1107.8</ele>
        <time>2023-05-18T08:22:33Z</time>
      </trkpt>
      <trkpt lat="44.64885" lon="5.7382">
        <ele>1108</ele>
        <time>2023-05-18T08:22:34Z</time>
      </trkpt>
      <trkpt lat="44.64883" lon="5.73822">
        <ele>1108</ele>
        <time>2023-05-18T08:22:35Z</time>
      </trkpt>
      <trkpt lat="44.64882" lon="5.73823">
        <ele>1107.8</ele>
        <time>2023-05-18T08:22:36Z</time>
      </trkpt>
      <trkpt lat="44.64882" lon="5.73824">
        <ele>1108</ele>
        <time>2023-05-18T08:22:37Z</time>
      </trkpt>
      <trkpt lat="44.64881" lon="5.73826">
        <ele>1108</ele>
        <time>2023-05-18T08:22:38Z</time>
      </trkpt>
      <trkpt lat="44.6488" lon="5.73828">
        <ele>1108.2</ele>
        <time>2023-05-18T08:22:39Z</time>
      </trkpt>
      <trkpt lat="44.64879" lon="5.7383">
        <ele>1108.2</ele>
        <time>2023-05-18T08:22:40Z</time>
      </trkpt>
      <trkpt lat="44.64878" lon="5.73832">
        <ele>1108.2</ele>
        <time>2023-05-18T08:22:41Z</time>
      </trkpt>
      <trkpt lat="44.64876" lon="5.73835">
        <ele>1108.2</ele>
        <time>2023-05-18T08:22:42Z</time>
      </trkpt>
      <trkpt lat="44.64875" lon="5.73837">
        <ele>1108.4</ele>
        <time>2023-05-18T08:22:43Z</time>
      </trkpt>
      <trkpt lat="44.64874" lon="5.73839">
        <ele>1108.6</ele>
        <time>2023-05-18T08:22:44Z</time>
      </trkpt>
      <trkpt lat="44.64872" lon="5.73841">
        <ele>1108.8</ele>
        <time>2023-05-18T08:22:45Z</time>
      </trkpt>
      <trkpt lat="44.64871" lon="5.73843">
        <ele>1108.8</ele>
        <time>2023-05-18T08:22:46Z</time>
      </trkpt>
      <trkpt lat="44.64869" lon="5.73844">
        <ele>1109</ele>
        <time>2023-05-18T08:22:47Z</time>
      </trkpt>
      <trkpt lat="44.64867" lon="5.73845">
        <ele>1109.2</ele>
        <time>2023-05-18T08:22:48Z</time>
      </trkpt>
      <trkpt lat="44.64865" lon="5.73845">
        <ele>1109.2</ele>
        <time>2023-05-18T08:22:49Z</time>
      </trkpt>
      <trkpt lat="44.64863" lon="5.73846">
        <ele>1109</ele>
        <time>2023-05-18T08:22:50Z</time>
      </trkpt>
      <trkpt lat="44.64861" lon="5.73847">
        <ele>1109.2</ele>
        <time>2023-05-18T08:22:51Z</time>
      </trkpt>
      <trkpt lat="44.64859" lon="5.73847">
        <ele>1109.2</ele>
        <time>2023-05-18T08:22:52Z</time>
      </trkpt>
      <trkpt lat="44.64858" lon="5.73849">
        <ele>1109.4</ele>
        <time>2023-05-18T08:22:53Z</time>
      </trkpt>
      <trkpt lat="44.64856" lon="5.73849">
        <ele>1109.4</ele>
        <time>2023-05-18T08:22:54Z</time>
      </trkpt>
      <trkpt lat="44.64853" lon="5.7385">
        <ele>1109.6</ele>
        <time>2023-05-18T08:22:55Z</time>
      </trkpt>
      <trkpt lat="44.64851" lon="5.73851">
        <ele>1109.6</ele>
        <time>2023-05-18T08:22:56Z</time>
      </trkpt>
      <trkpt lat="44.64848" lon="5.73852">
        <ele>1109.8</ele>
        <time>2023-05-18T08:22:57Z</time>
      </trkpt>
      <trkpt lat="44.64846" lon="5.73853">
        <ele>1109.8</ele>
        <time>2023-05-18T08:22:58Z</time>
      </trkpt>
      <trkpt lat="44.64844" lon="5.73855">
        <ele>1109.8</ele>
        <time>2023-05-18T08:22:59Z</time>
      </trkpt>
      <trkpt lat="44.64842" lon="5.73857">
        <ele>1110</ele>
        <time>2023-05-18T08:23:00Z</time>
      </trkpt>
      <trkpt lat="44.64839" lon="5.73859">
        <ele>1110.2</ele>
        <time>2023-05-18T08:23:01Z</time>
      </trkpt>
      <trkpt lat="44.64837" lon="5.73861">
        <ele>1110.2</ele>
        <time>2023-05-18T08:23:02Z</time>
      </trkpt>
      <trkpt lat="44.64834" lon="5.73862">
        <ele>1110.4</ele>
        <time>2023-05-18T08:23:03Z</time>
      </trkpt>
      <trkpt lat="44.6483" lon="5.73864">
        <ele>1110.4</ele>
        <time>2023-05-18T08:23:04Z</time>
      </trkpt>
      <trkpt lat="44.64827" lon="5.73866">
        <ele>1110.6</ele>
        <time>2023-05-18T08:23:05Z</time>
      </trkpt>
      <trkpt lat="44.64823" lon="5.73868">
        <ele>1110.6</ele>
        <time>2023-05-18T08:23:06Z</time>
      </trkpt>
      <trkpt lat="44.64821" lon="5.73869">
        <ele>1110.8</ele>
        <time>2023-05-18T08:23:07Z</time>
      </trkpt>
      <trkpt lat="44.64818" lon="5.73871">
        <ele>1110.8</ele>
        <time>2023-05-18T08:23:08Z</time>
      </trkpt>
      <trkpt lat="44.64817" lon="5.73873">
        <ele>1110.8</ele>
        <time>2023-05-18T08:23:09Z</time>
      </trkpt>
      <trkpt lat="44.64815" lon="5.73876">
        <ele>1111</ele>
        <time>2023-05-18T08:23:10Z</time>
      </trkpt>
      <trkpt lat="44.64814" lon="5.73879">
        <ele>1111.2</ele>
        <time>2023-05-18T08:23:11Z</time>
      </trkpt>
      <trkpt lat="44.64813" lon="5.73882">
        <ele>1111.2</ele>
        <time>2023-05-18T08:23:12Z</time>
      </trkpt>
      <trkpt lat="44.64811" lon="5.73886">
        <ele>1111.4</ele>
        <time>2023-05-18T08:23:13Z</time>
      </trkpt>
      <trkpt lat="44.6481" lon="5.7389">
        <ele>1111.6</ele>
        <time>2023-05-18T08:23:14Z</time>
      </trkpt>
      <trkpt lat="44.64809" lon="5.73893">
        <ele>1111.6</ele>
        <time>2023-05-18T08:23:15Z</time>
      </trkpt>
      <trkpt lat="44.64808" lon="5.73897">
        <ele>1111.8</ele>
        <time>2023-05-18T08:23:16Z</time>
      </trkpt>
      <trkpt lat="44.64808" lon="5.73901">
        <ele>1111.8</ele>
        <time>2023-05-18T08:23:17Z</time>
      </trkpt>
      <trkpt lat="44.64808" lon="5.73903">
        <ele>1112</ele>
        <time>2023-05-18T08:23:18Z</time>
      </trkpt>
      <trkpt lat="44.64807" lon="5.73906">
        <ele>1112</ele>
        <time>2023-05-18T08:23:19Z</time>
      </trkpt>
      <trkpt lat="44.64806" lon="5.73908">
        <ele>1112</ele>
        <time>2023-05-18T08:23:20Z</time>
      </trkpt>
      <trkpt lat="44.64805" lon="5.7391">
        <ele>1112.2</ele>
        <time>2023-05-18T08:23:21Z</time>
      </trkpt>
      <trkpt lat="44.64803" lon="5.73914">
        <ele>1112.2</ele>
        <time>2023-05-18T08:23:22Z</time>
      </trkpt>
      <trkpt lat="44.64803" lon="5.73918">
        <ele>1112.4</ele>
        <time>2023-05-18T08:23:23Z</time>
      </trkpt>
      <trkpt lat="44.64803" lon="5.73922">
        <ele>1112.4</ele>
        <time>2023-05-18T08:23:24Z</time>
      </trkpt>
      <trkpt lat="44.64801" lon="5.73927">
        <ele>1112.6</ele>
        <time>2023-05-18T08:23:25Z</time>
      </trkpt>
      <trkpt lat="44.64799" lon="5.73931">
        <ele>1112.4</ele>
        <time>2023-05-18T08:23:26Z</time>
      </trkpt>
      <trkpt lat="44.64797" lon="5.73935">
        <ele>1112.6</ele>
        <time>2023-05-18T08:23:27Z</time>
      </trkpt>
      <trkpt lat="44.64794" lon="5.73938">
        <ele>1112.6</ele>
        <time>2023-05-18T08:23:28Z</time>
      </trkpt>
      <trkpt lat="44.64793" lon="5.73941">
        <ele>1113</ele>
        <time>2023-05-18T08:23:29Z</time>
      </trkpt>
      <trkpt lat="44.64791" lon="5.73944">
        <ele>1113</ele>
        <time>2023-05-18T08:23:30Z</time>
      </trkpt>
      <trkpt lat="44.64788" lon="5.73947">
        <ele>1113.2</ele>
        <time>2023-05-18T08:23:31Z</time>
      </trkpt>
      <trkpt lat="44.64788" lon="5.73951">
        <ele>1113.2</ele>
        <time>2023-05-18T08:23:32Z</time>
      </trkpt>
      <trkpt lat="44.64787" lon="5.73956">
        <ele>1113.2</ele>
        <time>2023-05-18T08:23:33Z</time>
      </trkpt>
      <trkpt lat="44.64787" lon="5.73959">
        <ele>1113.4</ele>
        <time>2023-05-18T08:23:34Z</time>
      </trkpt>
      <trkpt lat="44.64785" lon="5.73962">
        <ele>1113.4</ele>
        <time>2023-05-18T08:23:35Z</time>
      </trkpt>
      <trkpt lat="44.64784" lon="5.73965">
        <ele>1113.4</ele>
        <time>2023-05-18T08:23:36Z</time>
      </trkpt>
      <trkpt lat="44.64782" lon="5.73967">
        <ele>1113.4</ele>
        <time>2023-05-18T08:23:37Z</time>
      </trkpt>
      <trkpt lat="44.64781" lon="5.7397">
        <ele>1113.4</ele>
        <time>2023-05-18T08:23:38Z</time>
      </trkpt>
      <trkpt lat="44.64779" lon="5.73973">
        <ele>1113.6</ele>
        <time>2023-05-18T08:23:39Z</time>
      </trkpt>
      <trkpt lat="44.64777" lon="5.73975">
        <ele>1113.6</ele>
        <time>2023-05-18T08:23:40Z</time>
      </trkpt>
      <trkpt lat="44.64776" lon="5.73977">
        <ele>1113.8</ele>
        <time>2023-05-18T08:23:41Z</time>
      </trkpt>
      <trkpt lat="44.64774" lon="5.73978">
        <ele>1113.8</ele>
        <time>2023-05-18T08:23:42Z</time>
      </trkpt>
      <trkpt lat="44.64772" lon="5.7398">
        <ele>1113.6</ele>
        <time>2023-05-18T08:23:43Z</time>
      </trkpt>
      <trkpt lat="44.6477" lon="5.73982">
        <ele>1113.6</ele>
        <time>2023-05-18T08:23:44Z</time>
      </trkpt>
      <trkpt lat="44.64769" lon="5.73983">
        <ele>1113.8</ele>
        <time>2023-05-18T08:23:45Z</time>
      </trkpt>
      <trkpt lat="44.64767" lon="5.73984">
        <ele>1113.8</ele>
        <time>2023-05-18T08:23:46Z</time>
      </trkpt>
      <trkpt lat="44.64765" lon="5.73986">
        <ele>1114</ele>
        <time>2023-05-18T08:23:47Z</time>
      </trkpt>
      <trkpt lat="44.64764" lon="5.73987">
        <ele>1114.2</ele>
        <time>2023-05-18T08:23:48Z</time>
      </trkpt>
      <trkpt lat="44.64762" lon="5.73988">
        <ele>1114.2</ele>
        <time>2023-05-18T08:23:49Z</time>
      </trkpt>
      <trkpt lat="44.6476" lon="5.7399">
        <ele>1114.2</ele>
        <time>2023-05-18T08:23:50Z</time>
      </trkpt>
      <trkpt lat="44.64758" lon="5.7399">
        <ele>1114.2</ele>
        <time>2023-05-18T08:23:51Z</time>
      </trkpt>
      <trkpt lat="44.6475" lon="5.73999">
        <ele>1114.2</ele>
        <time>2023-05-18T08:23:54Z</time>
      </trkpt>
      <trkpt lat="44.64741" lon="5.74008">
        <ele>1114.4</ele>
        <time>2023-05-18T08:23:58Z</time>
      </trkpt>
      <trkpt lat="44.64737" lon="5.74014">
        <ele>1115</ele>
        <time>2023-05-18T08:24:01Z</time>
      </trkpt>
      <trkpt lat="44.64736" lon="5.74017">
        <ele>1115</ele>
        <time>2023-05-18T08:24:02Z</time>
      </trkpt>
      <trkpt lat="44.64734" lon="5.74019">
        <ele>1115</ele>
        <time>2023-05-18T08:24:03Z</time>
      </trkpt>
      <trkpt lat="44.64733" lon="5.74022">
        <ele>1115.2</ele>
        <time>2023-05-18T08:24:04Z</time>
      </trkpt>
      <trkpt lat="44.64728" lon="5.74035">
        <ele>1115.6</ele>
        <time>2023-05-18T08:24:07Z</time>
      </trkpt>
      <trkpt lat="44.64726" lon="5.74038">
        <ele>1115.8</ele>
        <time>2023-05-18T08:24:08Z</time>
      </trkpt>
      <trkpt lat="44.64724" lon="5.74042">
        <ele>1115.8</ele>
        <time>2023-05-18T08:24:09Z</time>
      </trkpt>
      <trkpt lat="44.64723" lon="5.74045">
        <ele>1116</ele>
        <time>2023-05-18T08:24:10Z</time>
      </trkpt>
      <trkpt lat="44.64722" lon="5.74049">
        <ele>1116.2</ele>
        <time>2023-05-18T08:24:11Z</time>
      </trkpt>
      <trkpt lat="44.6472" lon="5.74052">
        <ele>1116</ele>
        <time>2023-05-18T08:24:12Z</time>
      </trkpt>
      <trkpt lat="44.64719" lon="5.74056">
        <ele>1116.4</ele>
        <time>2023-05-18T08:24:13Z</time>
      </trkpt>
      <trkpt lat="44.64718" lon="5.74059">
        <ele>1116.4</ele>
        <time>2023-05-18T08:24:14Z</time>
      </trkpt>
      <trkpt lat="44.64716" lon="5.74062">
        <ele>1116.6</ele>
        <time>2023-05-18T08:24:15Z</time>
      </trkpt>
      <trkpt lat="44.64714" lon="5.74065">
        <ele>1116.6</ele>
        <time>2023-05-18T08:24:16Z</time>
      </trkpt>
      <trkpt lat="44.64712" lon="5.74068">
        <ele>1116.8</ele>
        <time>2023-05-18T08:24:17Z</time>
      </trkpt>
      <trkpt lat="44.64711" lon="5.74071">
        <ele>1116.8</ele>
        <time>2023-05-18T08:24:18Z</time>
      </trkpt>
      <trkpt lat="44.64707" lon="5.74074">
        <ele>1117</ele>
        <time>2023-05-18T08:24:19Z</time>
      </trkpt>
      <trkpt lat="44.64706" lon="5.74079">
        <ele>1117</ele>
        <time>2023-05-18T08:24:20Z</time>
      </trkpt>
      <trkpt lat="44.64704" lon="5.74083">
        <ele>1117.2</ele>
        <time>2023-05-18T08:24:21Z</time>
      </trkpt>
      <trkpt lat="44.64702" lon="5.74085">
        <ele>1117.4</ele>
        <time>2023-05-18T08:24:22Z</time>
      </trkpt>
      <trkpt lat="44.647" lon="5.74087">
        <ele>1117.2</ele>
        <time>2023-05-18T08:24:23Z</time>
      </trkpt>
      <trkpt lat="44.647" lon="5.74088">
        <ele>1117.4</ele>
        <time>2023-05-18T08:24:24Z</time>
      </trkpt>
      <trkpt lat="44.647" lon="5.74089">
        <ele>1117.4</ele>
        <time>2023-05-18T08:24:25Z</time>
      </trkpt>
      <trkpt lat="44.64699" lon="5.74091">
        <ele>1117.6</ele>
        <time>2023-05-18T08:24:26Z</time>
      </trkpt>
      <trkpt lat="44.64698" lon="5.74094">
        <ele>1117.6</ele>
        <time>2023-05-18T08:24:27Z</time>
      </trkpt>
      <trkpt lat="44.64696" lon="5.74094">
        <ele>1117.8</ele>
        <time>2023-05-18T08:24:28Z</time>
      </trkpt>
      <trkpt lat="44.64694" lon="5.74095">
        <ele>1117.8</ele>
        <time>2023-05-18T08:24:29Z</time>
      </trkpt>
      <trkpt lat="44.64693" lon="5.74096">
        <ele>1118</ele>
        <time>2023-05-18T08:24:30Z</time>
      </trkpt>
      <trkpt lat="44.64692" lon="5.74097">
        <ele>1118.2</ele>
        <time>2023-05-18T08:24:31Z</time>
      </trkpt>
      <trkpt lat="44.6469" lon="5.74098">
        <ele>1118.2</ele>
        <time>2023-05-18T08:24:32Z</time>
      </trkpt>
      <trkpt lat="44.64689" lon="5.74099">
        <ele>1118.4</ele>
        <time>2023-05-18T08:24:33Z</time>
      </trkpt>
      <trkpt lat="44.64688" lon="5.741">
        <ele>1118.6</ele>
        <time>2023-05-18T08:24:34Z</time>
      </trkpt>
      <trkpt lat="44.64687" lon="5.74102">
        <ele>1118.6</ele>
        <time>2023-05-18T08:24:35Z</time>
      </trkpt>
      <trkpt lat="44.64684" lon="5.74105">
        <ele>1118.8</ele>
        <time>2023-05-18T08:24:36Z</time>
      </trkpt>
      <trkpt lat="44.64682" lon="5.74107">
        <ele>1119</ele>
        <time>2023-05-18T08:24:37Z</time>
      </trkpt>
      <trkpt lat="44.64681" lon="5.74109">
        <ele>1119</ele>
        <time>2023-05-18T08:24:38Z</time>
      </trkpt>
      <trkpt lat="44.64679" lon="5.74111">
        <ele>1119.2</ele>
        <time>2023-05-18T08:24:39Z</time>
      </trkpt>
      <trkpt lat="44.64678" lon="5.74115">
        <ele>1119.4</ele>
        <time>2023-05-18T08:24:40Z</time>
      </trkpt>
      <trkpt lat="44.64676" lon="5.74122">
        <ele>1119.2</ele>
        <time>2023-05-18T08:24:41Z</time>
      </trkpt>
      <trkpt lat="44.64675" lon="5.74123">
        <ele>1119.4</ele>
        <time>2023-05-18T08:24:42Z</time>
      </trkpt>
      <trkpt lat="44.64675" lon="5.74123">
        <ele>1119.4</ele>
        <time>2023-05-18T08:24:43Z</time>
      </trkpt>
      <trkpt lat="44.64675" lon="5.74123">
        <ele>1119.4</ele>
        <time>2023-05-18T08:24:44Z</time>
      </trkpt>
      <trkpt lat="44.64673" lon="5.74124">
        <ele>1119.6</ele>
        <time>2023-05-18T08:24:45Z</time>
      </trkpt>
      <trkpt lat="44.64672" lon="5.74124">
        <ele>1119.6</ele>
        <time>2023-05-18T08:24:46Z</time>
      </trkpt>
      <trkpt lat="44.64672" lon="5.74125">
        <ele>1119.8</ele>
        <time>2023-05-18T08:24:47Z</time>
      </trkpt>
      <trkpt lat="44.64669" lon="5.74129">
        <ele>1119.8</ele>
        <time>2023-05-18T08:24:48Z</time>
      </trkpt>
      <trkpt lat="44.64667" lon="5.74135">
        <ele>1120</ele>
        <time>2023-05-18T08:24:49Z</time>
      </trkpt>
      <trkpt lat="44.64665" lon="5.74139">
        <ele>1120</ele>
        <time>2023-05-18T08:24:50Z</time>
      </trkpt>
      <trkpt lat="44.64663" lon="5.7414">
        <ele>1120.2</ele>
        <time>2023-05-18T08:24:51Z</time>
      </trkpt>
      <trkpt lat="44.6466" lon="5.74142">
        <ele>1120.4</ele>
        <time>2023-05-18T08:24:52Z</time>
      </trkpt>
      <trkpt lat="44.64658" lon="5.74145">
        <ele>1120.4</ele>
        <time>2023-05-18T08:24:53Z</time>
      </trkpt>
      <trkpt lat="44.64655" lon="5.74149">
        <ele>1120.4</ele>
        <time>2023-05-18T08:24:54Z</time>
      </trkpt>
      <trkpt lat="44.64653" lon="5.74151">
        <ele>1120.6</ele>
        <time>2023-05-18T08:24:55Z</time>
      </trkpt>
      <trkpt lat="44.64651" lon="5.74152">
        <ele>1120.6</ele>
        <time>2023-05-18T08:24:56Z</time>
      </trkpt>
      <trkpt lat="44.64649" lon="5.74152">
        <ele>1120.8</ele>
        <time>2023-05-18T08:24:57Z</time>
      </trkpt>
      <trkpt lat="44.64647" lon="5.74153">
        <ele>1121</ele>
        <time>2023-05-18T08:24:58Z</time>
      </trkpt>
      <trkpt lat="44.64645" lon="5.74154">
        <ele>1121.2</ele>
        <time>2023-05-18T08:24:59Z</time>
      </trkpt>
      <trkpt lat="44.64644" lon="5.74156">
        <ele>1121.2</ele>
        <time>2023-05-18T08:25:00Z</time>
      </trkpt>
      <trkpt lat="44.64642" lon="5.74159">
        <ele>1121.4</ele>
        <time>2023-05-18T08:25:01Z</time>
      </trkpt>
      <trkpt lat="44.6464" lon="5.74161">
        <ele>1121.4</ele>
        <time>2023-05-18T08:25:02Z</time>
      </trkpt>
      <trkpt lat="44.64638" lon="5.74163">
        <ele>1121.6</ele>
        <time>2023-05-18T08:25:03Z</time>
      </trkpt>
      <trkpt lat="44.64637" lon="5.74164">
        <ele>1121.6</ele>
        <time>2023-05-18T08:25:04Z</time>
      </trkpt>
      <trkpt lat="44.64635" lon="5.74167">
        <ele>1121.8</ele>
        <time>2023-05-18T08:25:05Z</time>
      </trkpt>
      <trkpt lat="44.64634" lon="5.74168">
        <ele>1121.8</ele>
        <time>2023-05-18T08:25:06Z</time>
      </trkpt>
      <trkpt lat="44.64633" lon="5.74171">
        <ele>1122</ele>
        <time>2023-05-18T08:25:07Z</time>
      </trkpt>
      <trkpt lat="44.64631" lon="5.74176">
        <ele>1122</ele>
        <time>2023-05-18T08:25:08Z</time>
      </trkpt>
      <trkpt lat="44.6463" lon="5.74181">
        <ele>1122.2</ele>
        <time>2023-05-18T08:25:09Z</time>
      </trkpt>
      <trkpt lat="44.64626" lon="5.74185">
        <ele>1122.4</ele>
        <time>2023-05-18T08:25:10Z</time>
      </trkpt>
      <trkpt lat="44.64625" lon="5.74188">
        <ele>1122.2</ele>
        <time>2023-05-18T08:25:11Z</time>
      </trkpt>
      <trkpt lat="44.64622" lon="5.74191">
        <ele>1122.4</ele>
        <time>2023-05-18T08:25:12Z</time>
      </trkpt>
      <trkpt lat="44.64619" lon="5.74194">
        <ele>1122.4</ele>
        <time>2023-05-18T08:25:13Z</time>
      </trkpt>
      <trkpt lat="44.64618" lon="5.74194">
        <ele>1122.8</ele>
        <time>2023-05-18T08:25:14Z</time>
      </trkpt>
      <trkpt lat="44.64618" lon="5.74194">
        <ele>1122.8</ele>
        <time>2023-05-18T08:25:15Z</time>
      </trkpt>
      <trkpt lat="44.64617" lon="5.74195">
        <ele>1123</ele>
        <time>2023-05-18T08:25:16Z</time>
      </trkpt>
      <trkpt lat="44.64616" lon="5.74196">
        <ele>1123.2</ele>
        <time>2023-05-18T08:25:17Z</time>
      </trkpt>
      <trkpt lat="44.64615" lon="5.74197">
        <ele>1123.4</ele>
        <time>2023-05-18T08:25:18Z</time>
      </trkpt>
      <trkpt lat="44.64613" lon="5.74199">
        <ele>1123.6</ele>
        <time>2023-05-18T08:25:19Z</time>
      </trkpt>
      <trkpt lat="44.64611" lon="5.74202">
        <ele>1123.6</ele>
        <time>2023-05-18T08:25:20Z</time>
      </trkpt>
      <trkpt lat="44.64608" lon="5.74205">
        <ele>1123.8</ele>
        <time>2023-05-18T08:25:21Z</time>
      </trkpt>
      <trkpt lat="44.64607" lon="5.74206">
        <ele>1123.8</ele>
        <time>2023-05-18T08:25:22Z</time>
      </trkpt>
      <trkpt lat="44.64606" lon="5.74207">
        <ele>1123.8</ele>
        <time>2023-05-18T08:25:23Z</time>
      </trkpt>
      <trkpt lat="44.64605" lon="5.74208">
        <ele>1124</ele>
        <time>2023-05-18T08:25:24Z</time>
      </trkpt>
      <trkpt lat="44.64604" lon="5.7421">
        <ele>1124</ele>
        <time>2023-05-18T08:25:25Z</time>
      </trkpt>
      <trkpt lat="44.64603" lon="5.74211">
        <ele>1124.2</ele>
        <time>2023-05-18T08:25:26Z</time>
      </trkpt>
      <trkpt lat="44.64602" lon="5.74212">
        <ele>1124.4</ele>
        <time>2023-05-18T08:25:27Z</time>
      </trkpt>
      <trkpt lat="44.64601" lon="5.74214">
        <ele>1124.6</ele>
        <time>2023-05-18T08:25:28Z</time>
      </trkpt>
      <trkpt lat="44.646" lon="5.7422">
        <ele>1124.6</ele>
        <time>2023-05-18T08:25:29Z</time>
      </trkpt>
      <trkpt lat="44.64599" lon="5.74224">
        <ele>1124.8</ele>
        <time>2023-05-18T08:25:30Z</time>
      </trkpt>
      <trkpt lat="44.64597" lon="5.74227">
        <ele>1125</ele>
        <time>2023-05-18T08:25:31Z</time>
      </trkpt>
      <trkpt lat="44.64595" lon="5.7423">
        <ele>1125.2</ele>
        <time>2023-05-18T08:25:32Z</time>
      </trkpt>
      <trkpt lat="44.64595" lon="5.74232">
        <ele>1125.4</ele>
        <time>2023-05-18T08:25:33Z</time>
      </trkpt>
      <trkpt lat="44.64595" lon="5.74235">
        <ele>1125.6</ele>
        <time>2023-05-18T08:25:34Z</time>
      </trkpt>
      <trkpt lat="44.64594" lon="5.74236">
        <ele>1125.8</ele>
        <time>2023-05-18T08:25:35Z</time>
      </trkpt>
      <trkpt lat="44.64593" lon="5.74238">
        <ele>1125.8</ele>
        <time>2023-05-18T08:25:36Z</time>
      </trkpt>
      <trkpt lat="44.64592" lon="5.7424">
        <ele>1126</ele>
        <time>2023-05-18T08:25:37Z</time>
      </trkpt>
      <trkpt lat="44.6459" lon="5.74244">
        <ele>1126</ele>
        <time>2023-05-18T08:25:38Z</time>
      </trkpt>
      <trkpt lat="44.6459" lon="5.74245">
        <ele>1126.2</ele>
        <time>2023-05-18T08:25:39Z</time>
      </trkpt>
      <trkpt lat="44.6459" lon="5.74245">
        <ele>1126.4</ele>
        <time>2023-05-18T08:25:40Z</time>
      </trkpt>
      <trkpt lat="44.6459" lon="5.74245">
        <ele>1126.4</ele>
        <time>2023-05-18T08:25:41Z</time>
      </trkpt>
      <trkpt lat="44.6459" lon="5.74246">
        <ele>1126.8</ele>
        <time>2023-05-18T08:25:42Z</time>
      </trkpt>
      <trkpt lat="44.6459" lon="5.74246">
        <ele>1126.8</ele>
        <time>2023-05-18T08:25:43Z</time>
      </trkpt>
      <trkpt lat="44.64589" lon="5.74248">
        <ele>1127</ele>
        <time>2023-05-18T08:25:44Z</time>
      </trkpt>
      <trkpt lat="44.64588" lon="5.7425">
        <ele>1127.2</ele>
        <time>2023-05-18T08:25:45Z</time>
      </trkpt>
      <trkpt lat="44.64587" lon="5.74253">
        <ele>1127.2</ele>
        <time>2023-05-18T08:25:46Z</time>
      </trkpt>
      <trkpt lat="44.64587" lon="5.74254">
        <ele>1127.2</ele>
        <time>2023-05-18T08:25:47Z</time>
      </trkpt>
      <trkpt lat="44.64586" lon="5.74255">
        <ele>1127.4</ele>
        <time>2023-05-18T08:25:48Z</time>
      </trkpt>
      <trkpt lat="44.64585" lon="5.74255">
        <ele>1127.6</ele>
        <time>2023-05-18T08:25:49Z</time>
      </trkpt>
      <trkpt lat="44.64585" lon="5.74256">
        <ele>1127.4</ele>
        <time>2023-05-18T08:25:50Z</time>
      </trkpt>
      <trkpt lat="44.64585" lon="5.74256">
        <ele>1127.6</ele>
        <time>2023-05-18T08:25:51Z</time>
      </trkpt>
      <trkpt lat="44.64583" lon="5.74257">
        <ele>1127.8</ele>
        <time>2023-05-18T08:25:52Z</time>
      </trkpt>
      <trkpt lat="44.64582" lon="5.74257">
        <ele>1128</ele>
        <time>2023-05-18T08:25:53Z</time>
      </trkpt>
      <trkpt lat="44.64581" lon="5.7426">
        <ele>1128</ele>
        <time>2023-05-18T08:25:54Z</time>
      </trkpt>
      <trkpt lat="44.6458" lon="5.74261">
        <ele>1128.2</ele>
        <time>2023-05-18T08:25:55Z</time>
      </trkpt>
      <trkpt lat="44.64579" lon="5.74262">
        <ele>1128.4</ele>
        <time>2023-05-18T08:25:56Z</time>
      </trkpt>
      <trkpt lat="44.64577" lon="5.74264">
        <ele>1128.8</ele>
        <time>2023-05-18T08:25:57Z</time>
      </trkpt>
      <trkpt lat="44.64575" lon="5.74267">
        <ele>1128.8</ele>
        <time>2023-05-18T08:25:58Z</time>
      </trkpt>
      <trkpt lat="44.64571" lon="5.74271">
        <ele>1129</ele>
        <time>2023-05-18T08:25:59Z</time>
      </trkpt>
      <trkpt lat="44.6457" lon="5.74272">
        <ele>1129</ele>
        <time>2023-05-18T08:26:00Z</time>
      </trkpt>
      <trkpt lat="44.64568" lon="5.74274">
        <ele>1129.2</ele>
        <time>2023-05-18T08:26:01Z</time>
      </trkpt>
      <trkpt lat="44.64567" lon="5.74275">
        <ele>1129.4</ele>
        <time>2023-05-18T08:26:02Z</time>
      </trkpt>
      <trkpt lat="44.64566" lon="5.74278">
        <ele>1129.4</ele>
        <time>2023-05-18T08:26:03Z</time>
      </trkpt>
      <trkpt lat="44.64564" lon="5.7428">
        <ele>1129.4</ele>
        <time>2023-05-18T08:26:04Z</time>
      </trkpt>
      <trkpt lat="44.64562" lon="5.74283">
        <ele>1129.6</ele>
        <time>2023-05-18T08:26:05Z</time>
      </trkpt>
      <trkpt lat="44.6456" lon="5.74287">
        <ele>1129.6</ele>
        <time>2023-05-18T08:26:06Z</time>
      </trkpt>
      <trkpt lat="44.64558" lon="5.74288">
        <ele>1129.8</ele>
        <time>2023-05-18T08:26:07Z</time>
      </trkpt>
      <trkpt lat="44.64556" lon="5.7429">
        <ele>1129.6</ele>
        <time>2023-05-18T08:26:08Z</time>
      </trkpt>
      <trkpt lat="44.64556" lon="5.74291">
        <ele>1129.8</ele>
        <time>2023-05-18T08:26:09Z</time>
      </trkpt>
      <trkpt lat="44.64554" lon="5.74294">
        <ele>1130</ele>
        <time>2023-05-18T08:26:10Z</time>
      </trkpt>
      <trkpt lat="44.64553" lon="5.74298">
        <ele>1130.2</ele>
        <time>2023-05-18T08:26:11Z</time>
      </trkpt>
      <trkpt lat="44.64551" lon="5.74301">
        <ele>1130.2</ele>
        <time>2023-05-18T08:26:12Z</time>
      </trkpt>
      <trkpt lat="44.6455" lon="5.74303">
        <ele>1130.4</ele>
        <time>2023-05-18T08:26:13Z</time>
      </trkpt>
      <trkpt lat="44.64548" lon="5.74306">
        <ele>1130.6</ele>
        <time>2023-05-18T08:26:14Z</time>
      </trkpt>
      <trkpt lat="44.64547" lon="5.74307">
        <ele>1130.8</ele>
        <time>2023-05-18T08:26:15Z</time>
      </trkpt>
      <trkpt lat="44.64545" lon="5.74311">
        <ele>1131</ele>
        <time>2023-05-18T08:26:16Z</time>
      </trkpt>
      <trkpt lat="44.64545" lon="5.74313">
        <ele>1131</ele>
        <time>2023-05-18T08:26:17Z</time>
      </trkpt>
      <trkpt lat="44.64545" lon="5.74317">
        <ele>1131.2</ele>
        <time>2023-05-18T08:26:18Z</time>
      </trkpt>
      <trkpt lat="44.64545" lon="5.74322">
        <ele>1131.4</ele>
        <time>2023-05-18T08:26:19Z</time>
      </trkpt>
      <trkpt lat="44.64545" lon="5.74325">
        <ele>1131.6</ele>
        <time>2023-05-18T08:26:20Z</time>
      </trkpt>
      <trkpt lat="44.64544" lon="5.74327">
        <ele>1131.4</ele>
        <time>2023-05-18T08:26:21Z</time>
      </trkpt>
      <trkpt lat="44.64543" lon="5.74329">
        <ele>1131.6</ele>
        <time>2023-05-18T08:26:22Z</time>
      </trkpt>
      <trkpt lat="44.64543" lon="5.74331">
        <ele>1131.8</ele>
        <time>2023-05-18T08:26:23Z</time>
      </trkpt>
      <trkpt lat="44.64542" lon="5.74334">
        <ele>1131.8</ele>
        <time>2023-05-18T08:26:24Z</time>
      </trkpt>
      <trkpt lat="44.64541" lon="5.74336">
        <ele>1132</ele>
        <time>2023-05-18T08:26:25Z</time>
      </trkpt>
      <trkpt lat="44.6454" lon="5.74338">
        <ele>1132.2</ele>
        <time>2023-05-18T08:26:26Z</time>
      </trkpt>
      <trkpt lat="44.64539" lon="5.74342">
        <ele>1132.2</ele>
        <time>2023-05-18T08:26:27Z</time>
      </trkpt>
      <trkpt lat="44.64538" lon="5.74344">
        <ele>1132.4</ele>
        <time>2023-05-18T08:26:28Z</time>
      </trkpt>
      <trkpt lat="44.64536" lon="5.74346">
        <ele>1132.6</ele>
        <time>2023-05-18T08:26:29Z</time>
      </trkpt>
      <trkpt lat="44.64535" lon="5.74347">
        <ele>1132.6</ele>
        <time>2023-05-18T08:26:30Z</time>
      </trkpt>
      <trkpt lat="44.64534" lon="5.74348">
        <ele>1133</ele>
        <time>2023-05-18T08:26:31Z</time>
      </trkpt>
      <trkpt lat="44.64533" lon="5.74351">
        <ele>1133</ele>
        <time>2023-05-18T08:26:32Z</time>
      </trkpt>
      <trkpt lat="44.64533" lon="5.74354">
        <ele>1133.2</ele>
        <time>2023-05-18T08:26:33Z</time>
      </trkpt>
      <trkpt lat="44.64532" lon="5.74357">
        <ele>1133.2</ele>
        <time>2023-05-18T08:26:34Z</time>
      </trkpt>
      <trkpt lat="44.64531" lon="5.7436">
        <ele>1133.4</ele>
        <time>2023-05-18T08:26:35Z</time>
      </trkpt>
      <trkpt lat="44.64531" lon="5.74362">
        <ele>1133.4</ele>
        <time>2023-05-18T08:26:36Z</time>
      </trkpt>
      <trkpt lat="44.64531" lon="5.74365">
        <ele>1133.6</ele>
        <time>2023-05-18T08:26:37Z</time>
      </trkpt>
      <trkpt lat="44.6453" lon="5.74367">
        <ele>1133.6</ele>
        <time>2023-05-18T08:26:38Z</time>
      </trkpt>
      <trkpt lat="44.6453" lon="5.7437">
        <ele>1133.6</ele>
        <time>2023-05-18T08:26:39Z</time>
      </trkpt>
      <trkpt lat="44.64529" lon="5.74373">
        <ele>1133.8</ele>
        <time>2023-05-18T08:26:40Z</time>
      </trkpt>
      <trkpt lat="44.64528" lon="5.74375">
        <ele>1134</ele>
        <time>2023-05-18T08:26:41Z</time>
      </trkpt>
      <trkpt lat="44.64528" lon="5.74378">
        <ele>1134.2</ele>
        <time>2023-05-18T08:26:42Z</time>
      </trkpt>
      <trkpt lat="44.64527" lon="5.74381">
        <ele>1134.2</ele>
        <time>2023-05-18T08:26:43Z</time>
      </trkpt>
      <trkpt lat="44.64528" lon="5.74383">
        <ele>1134.4</ele>
        <time>2023-05-18T08:26:44Z</time>
      </trkpt>
      <trkpt lat="44.64527" lon="5.74386">
        <ele>1134.6</ele>
        <time>2023-05-18T08:26:45Z</time>
      </trkpt>
      <trkpt lat="44.64528" lon="5.74388">
        <ele>1134.6</ele>
        <time>2023-05-18T08:26:46Z</time>
      </trkpt>
      <trkpt lat="44.6453" lon="5.74391">
        <ele>1134.8</ele>
        <time>2023-05-18T08:26:47Z</time>
      </trkpt>
      <trkpt lat="44.64532" lon="5.74392">
        <ele>1135</ele>
        <time>2023-05-18T08:26:48Z</time>
      </trkpt>
      <trkpt lat="44.64532" lon="5.74394">
        <ele>1135</ele>
        <time>2023-05-18T08:26:49Z</time>
      </trkpt>
      <trkpt lat="44.64532" lon="5.74396">
        <ele>1135.2</ele>
        <time>2023-05-18T08:26:50Z</time>
      </trkpt>
      <trkpt lat="44.64533" lon="5.74398">
        <ele>1135.4</ele>
        <time>2023-05-18T08:26:51Z</time>
      </trkpt>
      <trkpt lat="44.64533" lon="5.744">
        <ele>1135.4</ele>
        <time>2023-05-18T08:26:52Z</time>
      </trkpt>
      <trkpt lat="44.64533" lon="5.74402">
        <ele>1135.4</ele>
        <time>2023-05-18T08:26:53Z</time>
      </trkpt>
      <trkpt lat="44.64533" lon="5.74404">
        <ele>1135.6</ele>
        <time>2023-05-18T08:26:54Z</time>
      </trkpt>
      <trkpt lat="44.64533" lon="5.74405">
        <ele>1135.6</ele>
        <time>2023-05-18T08:26:55Z</time>
      </trkpt>
      <trkpt lat="44.64533" lon="5.74406">
        <ele>1135.8</ele>
        <time>2023-05-18T08:26:56Z</time>
      </trkpt>
      <trkpt lat="44.64532" lon="5.74408">
        <ele>1135.8</ele>
        <time>2023-05-18T08:26:57Z</time>
      </trkpt>
      <trkpt lat="44.64531" lon="5.7441">
        <ele>1136</ele>
        <time>2023-05-18T08:26:58Z</time>
      </trkpt>
      <trkpt lat="44.64531" lon="5.74412">
        <ele>1136.2</ele>
        <time>2023-05-18T08:26:59Z</time>
      </trkpt>
      <trkpt lat="44.64532" lon="5.74415">
        <ele>1136.4</ele>
        <time>2023-05-18T08:27:00Z</time>
      </trkpt>
      <trkpt lat="44.64532" lon="5.74417">
        <ele>1136.4</ele>
        <time>2023-05-18T08:27:01Z</time>
      </trkpt>
      <trkpt lat="44.64532" lon="5.7442">
        <ele>1136.6</ele>
        <time>2023-05-18T08:27:02Z</time>
      </trkpt>
      <trkpt lat="44.64532" lon="5.74422">
        <ele>1136.6</ele>
        <time>2023-05-18T08:27:03Z</time>
      </trkpt>
      <trkpt lat="44.64533" lon="5.74424">
        <ele>1136.8</ele>
        <time>2023-05-18T08:27:04Z</time>
      </trkpt>
      <trkpt lat="44.64533" lon="5.74426">
        <ele>1136.8</ele>
        <time>2023-05-18T08:27:05Z</time>
      </trkpt>
      <trkpt lat="44.64533" lon="5.74429">
        <ele>1137</ele>
        <time>2023-05-18T08:27:06Z</time>
      </trkpt>
      <trkpt lat="44.64533" lon="5.74433">
        <ele>1137</ele>
        <time>2023-05-18T08:27:07Z</time>
      </trkpt>
      <trkpt lat="44.64534" lon="5.74437">
        <ele>1137.2</ele>
        <time>2023-05-18T08:27:08Z</time>
      </trkpt>
      <trkpt lat="44.64534" lon="5.7444">
        <ele>1137.2</ele>
        <time>2023-05-18T08:27:09Z</time>
      </trkpt>
      <trkpt lat="44.64534" lon="5.74442">
        <ele>1137.4</ele>
        <time>2023-05-18T08:27:10Z</time>
      </trkpt>
      <trkpt lat="44.64533" lon="5.74444">
        <ele>1137.4</ele>
        <time>2023-05-18T08:27:11Z</time>
      </trkpt>
      <trkpt lat="44.64533" lon="5.74447">
        <ele>1137.6</ele>
        <time>2023-05-18T08:27:12Z</time>
      </trkpt>
      <trkpt lat="44.64532" lon="5.74451">
        <ele>1137.6</ele>
        <time>2023-05-18T08:27:13Z</time>
      </trkpt>
      <trkpt lat="44.64533" lon="5.74454">
        <ele>1137.8</ele>
        <time>2023-05-18T08:27:14Z</time>
      </trkpt>
      <trkpt lat="44.64533" lon="5.74454">
        <ele>1138</ele>
        <time>2023-05-18T08:27:15Z</time>
      </trkpt>
      <trkpt lat="44.64533" lon="5.74454">
        <ele>1138</ele>
        <time>2023-05-18T08:27:16Z</time>
      </trkpt>
      <trkpt lat="44.64533" lon="5.74455">
        <ele>1138.2</ele>
        <time>2023-05-18T08:27:17Z</time>
      </trkpt>
      <trkpt lat="44.64533" lon="5.74459">
        <ele>1138.2</ele>
        <time>2023-05-18T08:27:18Z</time>
      </trkpt>
      <trkpt lat="44.64534" lon="5.74462">
        <ele>1138.4</ele>
        <time>2023-05-18T08:27:19Z</time>
      </trkpt>
      <trkpt lat="44.64535" lon="5.74465">
        <ele>1138.6</ele>
        <time>2023-05-18T08:27:20Z</time>
      </trkpt>
      <trkpt lat="44.64535" lon="5.74468">
        <ele>1138.8</ele>
        <time>2023-05-18T08:27:21Z</time>
      </trkpt>
      <trkpt lat="44.64535" lon="5.74468">
        <ele>1138.8</ele>
        <time>2023-05-18T08:27:22Z</time>
      </trkpt>
      <trkpt lat="44.64534" lon="5.74469">
        <ele>1138.8</ele>
        <time>2023-05-18T08:27:23Z</time>
      </trkpt>
      <trkpt lat="44.64534" lon="5.74472">
        <ele>1139</ele>
        <time>2023-05-18T08:27:24Z</time>
      </trkpt>
      <trkpt lat="44.64534" lon="5.74474">
        <ele>1139</ele>
        <time>2023-05-18T08:27:25Z</time>
      </trkpt>
      <trkpt lat="44.64535" lon="5.74477">
        <ele>1139.2</ele>
        <time>2023-05-18T08:27:26Z</time>
      </trkpt>
      <trkpt lat="44.64535" lon="5.74479">
        <ele>1139.2</ele>
        <time>2023-05-18T08:27:27Z</time>
      </trkpt>
      <trkpt lat="44.64535" lon="5.74484">
        <ele>1139.4</ele>
        <time>2023-05-18T08:27:28Z</time>
      </trkpt>
      <trkpt lat="44.64536" lon="5.74488">
        <ele>1139.6</ele>
        <time>2023-05-18T08:27:29Z</time>
      </trkpt>
      <trkpt lat="44.64536" lon="5.74492">
        <ele>1139.8</ele>
        <time>2023-05-18T08:27:30Z</time>
      </trkpt>
      <trkpt lat="44.64536" lon="5.74495">
        <ele>1139.8</ele>
        <time>2023-05-18T08:27:31Z</time>
      </trkpt>
      <trkpt lat="44.64536" lon="5.74499">
        <ele>1139.8</ele>
        <time>2023-05-18T08:27:32Z</time>
      </trkpt>
      <trkpt lat="44.64537" lon="5.74502">
        <ele>1140</ele>
        <time>2023-05-18T08:27:33Z</time>
      </trkpt>
      <trkpt lat="44.64538" lon="5.74506">
        <ele>1140.2</ele>
        <time>2023-05-18T08:27:34Z</time>
      </trkpt>
      <trkpt lat="44.64539" lon="5.74509">
        <ele>1140.4</ele>
        <time>2023-05-18T08:27:35Z</time>
      </trkpt>
      <trkpt lat="44.64539" lon="5.74513">
        <ele>1140.4</ele>
        <time>2023-05-18T08:27:36Z</time>
      </trkpt>
      <trkpt lat="44.6454" lon="5.74517">
        <ele>1140.6</ele>
        <time>2023-05-18T08:27:37Z</time>
      </trkpt>
      <trkpt lat="44.6454" lon="5.7452">
        <ele>1140.8</ele>
        <time>2023-05-18T08:27:38Z</time>
      </trkpt>
      <trkpt lat="44.64539" lon="5.74524">
        <ele>1140.8</ele>
        <time>2023-05-18T08:27:39Z</time>
      </trkpt>
      <trkpt lat="44.64538" lon="5.74528">
        <ele>1141</ele>
        <time>2023-05-18T08:27:40Z</time>
      </trkpt>
      <trkpt lat="44.64537" lon="5.74532">
        <ele>1141</ele>
        <time>2023-05-18T08:27:41Z</time>
      </trkpt>
      <trkpt lat="44.64536" lon="5.74536">
        <ele>1141</ele>
        <time>2023-05-18T08:27:42Z</time>
      </trkpt>
      <trkpt lat="44.64535" lon="5.74539">
        <ele>1141</ele>
        <time>2023-05-18T08:27:43Z</time>
      </trkpt>
      <trkpt lat="44.64534" lon="5.74542">
        <ele>1141.2</ele>
        <time>2023-05-18T08:27:44Z</time>
      </trkpt>
      <trkpt lat="44.64535" lon="5.74544">
        <ele>1141.4</ele>
        <time>2023-05-18T08:27:45Z</time>
      </trkpt>
      <trkpt lat="44.64535" lon="5.74547">
        <ele>1141.4</ele>
        <time>2023-05-18T08:27:46Z</time>
      </trkpt>
      <trkpt lat="44.64537" lon="5.7455">
        <ele>1141.6</ele>
        <time>2023-05-18T08:27:47Z</time>
      </trkpt>
      <trkpt lat="44.64538" lon="5.74554">
        <ele>1141.6</ele>
        <time>2023-05-18T08:27:48Z</time>
      </trkpt>
      <trkpt lat="44.64539" lon="5.74555">
        <ele>1141.8</ele>
        <time>2023-05-18T08:27:49Z</time>
      </trkpt>
      <trkpt lat="44.64539" lon="5.74558">
        <ele>1141.8</ele>
        <time>2023-05-18T08:27:50Z</time>
      </trkpt>
      <trkpt lat="44.64539" lon="5.7456">
        <ele>1141.8</ele>
        <time>2023-05-18T08:27:51Z</time>
      </trkpt>
      <trkpt lat="44.64539" lon="5.74561">
        <ele>1141.8</ele>
        <time>2023-05-18T08:27:52Z</time>
      </trkpt>
      <trkpt lat="44.64539" lon="5.74563">
        <ele>1141.8</ele>
        <time>2023-05-18T08:27:53Z</time>
      </trkpt>
      <trkpt lat="44.64539" lon="5.74564">
        <ele>1142</ele>
        <time>2023-05-18T08:27:54Z</time>
      </trkpt>
      <trkpt lat="44.6454" lon="5.74565">
        <ele>1142</ele>
        <time>2023-05-18T08:27:55Z</time>
      </trkpt>
      <trkpt lat="44.6454" lon="5.74567">
        <ele>1142.4</ele>
        <time>2023-05-18T08:27:56Z</time>
      </trkpt>
      <trkpt lat="44.6454" lon="5.74568">
        <ele>1142.4</ele>
        <time>2023-05-18T08:27:57Z</time>
      </trkpt>
      <trkpt lat="44.64541" lon="5.7457">
        <ele>1142.8</ele>
        <time>2023-05-18T08:27:58Z</time>
      </trkpt>
      <trkpt lat="44.64541" lon="5.74572">
        <ele>1142.8</ele>
        <time>2023-05-18T08:27:59Z</time>
      </trkpt>
      <trkpt lat="44.64541" lon="5.74574">
        <ele>1142.8</ele>
        <time>2023-05-18T08:28:00Z</time>
      </trkpt>
      <trkpt lat="44.64542" lon="5.74575">
        <ele>1143</ele>
        <time>2023-05-18T08:28:01Z</time>
      </trkpt>
      <trkpt lat="44.64541" lon="5.74577">
        <ele>1143.2</ele>
        <time>2023-05-18T08:28:02Z</time>
      </trkpt>
      <trkpt lat="44.64541" lon="5.74577">
        <ele>1143.2</ele>
        <time>2023-05-18T08:28:03Z</time>
      </trkpt>
      <trkpt lat="44.64541" lon="5.74577">
        <ele>1143.2</ele>
        <time>2023-05-18T08:28:04Z</time>
      </trkpt>
      <trkpt lat="44.64541" lon="5.74577">
        <ele>1143.4</ele>
        <time>2023-05-18T08:28:05Z</time>
      </trkpt>
      <trkpt lat="44.64541" lon="5.74577">
        <ele>1143.6</ele>
        <time>2023-05-18T08:28:07Z</time>
      </trkpt>
      <trkpt lat="44.64541" lon="5.74577">
        <ele>1143.6</ele>
        <time>2023-05-18T08:28:10Z</time>
      </trkpt>
      <trkpt lat="44.64541" lon="5.74577">
        <ele>1143.8</ele>
        <time>2023-05-18T08:28:18Z</time>
      </trkpt>
      <trkpt lat="44.64541" lon="5.74578">
        <ele>1143.8</ele>
        <time>2023-05-18T08:28:19Z</time>
      </trkpt>
      <trkpt lat="44.64541" lon="5.74579">
        <ele>1143.8</ele>
        <time>2023-05-18T08:28:20Z</time>
      </trkpt>
      <trkpt lat="44.64542" lon="5.74579">
        <ele>1143.8</ele>
        <time>2023-05-18T08:28:21Z</time>
      </trkpt>
      <trkpt lat="44.64542" lon="5.74581">
        <ele>1143.8</ele>
        <time>2023-05-18T08:28:22Z</time>
      </trkpt>
      <trkpt lat="44.64543" lon="5.74581">
        <ele>1143.8</ele>
        <time>2023-05-18T08:28:23Z</time>
      </trkpt>
      <trkpt lat="44.64543" lon="5.74584">
        <ele>1143.8</ele>
        <time>2023-05-18T08:28:25Z</time>
      </trkpt>
      <trkpt lat="44.64543" lon="5.74585">
        <ele>1143.8</ele>
        <time>2023-05-18T08:28:26Z</time>
      </trkpt>
      <trkpt lat="44.64543" lon="5.74586">
        <ele>1143.8</ele>
        <time>2023-05-18T08:28:27Z</time>
      </trkpt>
      <trkpt lat="44.64542" lon="5.74587">
        <ele>1144</ele>
        <time>2023-05-18T08:28:29Z</time>
      </trkpt>
      <trkpt lat="44.64542" lon="5.74588">
        <ele>1144</ele>
        <time>2023-05-18T08:28:30Z</time>
      </trkpt>
      <trkpt lat="44.64543" lon="5.74591">
        <ele>1144</ele>
        <time>2023-05-18T08:28:31Z</time>
      </trkpt>
      <trkpt lat="44.64543" lon="5.74594">
        <ele>1144</ele>
        <time>2023-05-18T08:28:32Z</time>
      </trkpt>
      <trkpt lat="44.64543" lon="5.74597">
        <ele>1144</ele>
        <time>2023-05-18T08:28:33Z</time>
      </trkpt>
      <trkpt lat="44.64545" lon="5.74599">
        <ele>1144.2</ele>
        <time>2023-05-18T08:28:34Z</time>
      </trkpt>
      <trkpt lat="44.64544" lon="5.74603">
        <ele>1144.2</ele>
        <time>2023-05-18T08:28:35Z</time>
      </trkpt>
      <trkpt lat="44.64544" lon="5.74606">
        <ele>1144.4</ele>
        <time>2023-05-18T08:28:36Z</time>
      </trkpt>
      <trkpt lat="44.64545" lon="5.74609">
        <ele>1144.6</ele>
        <time>2023-05-18T08:28:37Z</time>
      </trkpt>
      <trkpt lat="44.64545" lon="5.74612">
        <ele>1144.6</ele>
        <time>2023-05-18T08:28:38Z</time>
      </trkpt>
      <trkpt lat="44.64545" lon="5.74613">
        <ele>1144.8</ele>
        <time>2023-05-18T08:28:39Z</time>
      </trkpt>
      <trkpt lat="44.64544" lon="5.74614">
        <ele>1144.8</ele>
        <time>2023-05-18T08:28:40Z</time>
      </trkpt>
      <trkpt lat="44.64544" lon="5.74617">
        <ele>1144.8</ele>
        <time>2023-05-18T08:28:41Z</time>
      </trkpt>
      <trkpt lat="44.64544" lon="5.74619">
        <ele>1144.8</ele>
        <time>2023-05-18T08:28:42Z</time>
      </trkpt>
      <trkpt lat="44.64544" lon="5.74621">
        <ele>1144.8</ele>
        <time>2023-05-18T08:28:43Z</time>
      </trkpt>
      <trkpt lat="44.64543" lon="5.74623">
        <ele>1145</ele>
        <time>2023-05-18T08:28:44Z</time>
      </trkpt>
      <trkpt lat="44.64543" lon="5.74625">
        <ele>1145.2</ele>
        <time>2023-05-18T08:28:45Z</time>
      </trkpt>
      <trkpt lat="44.64542" lon="5.74631">
        <ele>1145.4</ele>
        <time>2023-05-18T08:28:47Z</time>
      </trkpt>
      <trkpt lat="44.64542" lon="5.74633">
        <ele>1145.6</ele>
        <time>2023-05-18T08:28:48Z</time>
      </trkpt>
      <trkpt lat="44.64541" lon="5.74636">
        <ele>1145.8</ele>
        <time>2023-05-18T08:28:49Z</time>
      </trkpt>
      <trkpt lat="44.64541" lon="5.74638">
        <ele>1145.8</ele>
        <time>2023-05-18T08:28:50Z</time>
      </trkpt>
      <trkpt lat="44.64543" lon="5.74646">
        <ele>1146</ele>
        <time>2023-05-18T08:28:53Z</time>
      </trkpt>
      <trkpt lat="44.64542" lon="5.74652">
        <ele>1146</ele>
        <time>2023-05-18T08:28:55Z</time>
      </trkpt>
      <trkpt lat="44.6454" lon="5.74656">
        <ele>1146</ele>
        <time>2023-05-18T08:28:56Z</time>
      </trkpt>
      <trkpt lat="44.6454" lon="5.74659">
        <ele>1146.2</ele>
        <time>2023-05-18T08:28:57Z</time>
      </trkpt>
      <trkpt lat="44.6454" lon="5.74663">
        <ele>1146.2</ele>
        <time>2023-05-18T08:28:59Z</time>
      </trkpt>
      <trkpt lat="44.6454" lon="5.74664">
        <ele>1146.4</ele>
        <time>2023-05-18T08:29:00Z</time>
      </trkpt>
      <trkpt lat="44.6454" lon="5.74664">
        <ele>1146.6</ele>
        <time>2023-05-18T08:29:01Z</time>
      </trkpt>
      <trkpt lat="44.64541" lon="5.74665">
        <ele>1146.6</ele>
        <time>2023-05-18T08:29:02Z</time>
      </trkpt>
      <trkpt lat="44.6454" lon="5.7467">
        <ele>1147</ele>
        <time>2023-05-18T08:29:04Z</time>
      </trkpt>
      <trkpt lat="44.64539" lon="5.74672">
        <ele>1147.2</ele>
        <time>2023-05-18T08:29:05Z</time>
      </trkpt>
      <trkpt lat="44.64538" lon="5.74674">
        <ele>1147.4</ele>
        <time>2023-05-18T08:29:06Z</time>
      </trkpt>
      <trkpt lat="44.64537" lon="5.74676">
        <ele>1147.4</ele>
        <time>2023-05-18T08:29:07Z</time>
      </trkpt>
      <trkpt lat="44.64536" lon="5.74679">
        <ele>1147.6</ele>
        <time>2023-05-18T08:29:08Z</time>
      </trkpt>
      <trkpt lat="44.64536" lon="5.7468">
        <ele>1147.6</ele>
        <time>2023-05-18T08:29:09Z</time>
      </trkpt>
      <trkpt lat="44.64534" lon="5.74682">
        <ele>1147.6</ele>
        <time>2023-05-18T08:29:10Z</time>
      </trkpt>
      <trkpt lat="44.64533" lon="5.74684">
        <ele>1147.6</ele>
        <time>2023-05-18T08:29:11Z</time>
      </trkpt>
      <trkpt lat="44.64533" lon="5.74684">
        <ele>1147.8</ele>
        <time>2023-05-18T08:29:12Z</time>
      </trkpt>
      <trkpt lat="44.64533" lon="5.74686">
        <ele>1148</ele>
        <time>2023-05-18T08:29:13Z</time>
      </trkpt>
      <trkpt lat="44.64532" lon="5.74688">
        <ele>1148</ele>
        <time>2023-05-18T08:29:14Z</time>
      </trkpt>
      <trkpt lat="44.64531" lon="5.74691">
        <ele>1148.4</ele>
        <time>2023-05-18T08:29:15Z</time>
      </trkpt>
      <trkpt lat="44.6453" lon="5.74696">
        <ele>1148.6</ele>
        <time>2023-05-18T08:29:16Z</time>
      </trkpt>
      <trkpt lat="44.64531" lon="5.74699">
        <ele>1148.6</ele>
        <time>2023-05-18T08:29:17Z</time>
      </trkpt>
      <trkpt lat="44.6453" lon="5.74704">
        <ele>1148.8</ele>
        <time>2023-05-18T08:29:18Z</time>
      </trkpt>
      <trkpt lat="44.64529" lon="5.74708">
        <ele>1148.8</ele>
        <time>2023-05-18T08:29:19Z</time>
      </trkpt>
      <trkpt lat="44.64529" lon="5.74712">
        <ele>1149</ele>
        <time>2023-05-18T08:29:20Z</time>
      </trkpt>
      <trkpt lat="44.64529" lon="5.74715">
        <ele>1149</ele>
        <time>2023-05-18T08:29:21Z</time>
      </trkpt>
      <trkpt lat="44.64528" lon="5.74719">
        <ele>1149</ele>
        <time>2023-05-18T08:29:22Z</time>
      </trkpt>
      <trkpt lat="44.64524" lon="5.74723">
        <ele>1149</ele>
        <time>2023-05-18T08:29:23Z</time>
      </trkpt>
      <trkpt lat="44.64521" lon="5.74726">
        <ele>1149.2</ele>
        <time>2023-05-18T08:29:24Z</time>
      </trkpt>
      <trkpt lat="44.64519" lon="5.74729">
        <ele>1149.2</ele>
        <time>2023-05-18T08:29:25Z</time>
      </trkpt>
      <trkpt lat="44.64519" lon="5.74733">
        <ele>1149.2</ele>
        <time>2023-05-18T08:29:26Z</time>
      </trkpt>
      <trkpt lat="44.64519" lon="5.74735">
        <ele>1149.6</ele>
        <time>2023-05-18T08:29:27Z</time>
      </trkpt>
      <trkpt lat="44.64521" lon="5.74739">
        <ele>1149.6</ele>
        <time>2023-05-18T08:29:28Z</time>
      </trkpt>
      <trkpt lat="44.64521" lon="5.74743">
        <ele>1149.8</ele>
        <time>2023-05-18T08:29:29Z</time>
      </trkpt>
      <trkpt lat="44.64522" lon="5.74745">
        <ele>1150</ele>
        <time>2023-05-18T08:29:30Z</time>
      </trkpt>
      <trkpt lat="44.64523" lon="5.74748">
        <ele>1150</ele>
        <time>2023-05-18T08:29:31Z</time>
      </trkpt>
      <trkpt lat="44.64525" lon="5.74751">
        <ele>1150.2</ele>
        <time>2023-05-18T08:29:32Z</time>
      </trkpt>
      <trkpt lat="44.64525" lon="5.74753">
        <ele>1150.2</ele>
        <time>2023-05-18T08:29:33Z</time>
      </trkpt>
      <trkpt lat="44.64524" lon="5.74757">
        <ele>1150.4</ele>
        <time>2023-05-18T08:29:34Z</time>
      </trkpt>
      <trkpt lat="44.64523" lon="5.74759">
        <ele>1150.4</ele>
        <time>2023-05-18T08:29:35Z</time>
      </trkpt>
      <trkpt lat="44.64523" lon="5.74761">
        <ele>1150.8</ele>
        <time>2023-05-18T08:29:36Z</time>
      </trkpt>
      <trkpt lat="44.64524" lon="5.74763">
        <ele>1150.8</ele>
        <time>2023-05-18T08:29:37Z</time>
      </trkpt>
      <trkpt lat="44.64524" lon="5.74764">
        <ele>1151</ele>
        <time>2023-05-18T08:29:38Z</time>
      </trkpt>
      <trkpt lat="44.64524" lon="5.74767">
        <ele>1151</ele>
        <time>2023-05-18T08:29:39Z</time>
      </trkpt>
      <trkpt lat="44.64524" lon="5.74772">
        <ele>1151.2</ele>
        <time>2023-05-18T08:29:40Z</time>
      </trkpt>
      <trkpt lat="44.64524" lon="5.74777">
        <ele>1151.2</ele>
        <time>2023-05-18T08:29:41Z</time>
      </trkpt>
      <trkpt lat="44.64523" lon="5.7478">
        <ele>1151.2</ele>
        <time>2023-05-18T08:29:42Z</time>
      </trkpt>
      <trkpt lat="44.64523" lon="5.74784">
        <ele>1151.4</ele>
        <time>2023-05-18T08:29:43Z</time>
      </trkpt>
      <trkpt lat="44.64523" lon="5.74786">
        <ele>1151.4</ele>
        <time>2023-05-18T08:29:44Z</time>
      </trkpt>
      <trkpt lat="44.64523" lon="5.74787">
        <ele>1151.6</ele>
        <time>2023-05-18T08:29:45Z</time>
      </trkpt>
      <trkpt lat="44.64523" lon="5.7479">
        <ele>1151.6</ele>
        <time>2023-05-18T08:29:46Z</time>
      </trkpt>
      <trkpt lat="44.64523" lon="5.74794">
        <ele>1151.8</ele>
        <time>2023-05-18T08:29:47Z</time>
      </trkpt>
      <trkpt lat="44.64522" lon="5.74797">
        <ele>1151.8</ele>
        <time>2023-05-18T08:29:48Z</time>
      </trkpt>
      <trkpt lat="44.64521" lon="5.74801">
        <ele>1152</ele>
        <time>2023-05-18T08:29:49Z</time>
      </trkpt>
      <trkpt lat="44.64523" lon="5.74803">
        <ele>1152</ele>
        <time>2023-05-18T08:29:50Z</time>
      </trkpt>
      <trkpt lat="44.64524" lon="5.74806">
        <ele>1152.2</ele>
        <time>2023-05-18T08:29:51Z</time>
      </trkpt>
      <trkpt lat="44.64524" lon="5.74809">
        <ele>1152.4</ele>
        <time>2023-05-18T08:29:52Z</time>
      </trkpt>
      <trkpt lat="44.64522" lon="5.74811">
        <ele>1152.4</ele>
        <time>2023-05-18T08:29:53Z</time>
      </trkpt>
      <trkpt lat="44.64522" lon="5.74814">
        <ele>1152.6</ele>
        <time>2023-05-18T08:29:54Z</time>
      </trkpt>
      <trkpt lat="44.64522" lon="5.74816">
        <ele>1152.6</ele>
        <time>2023-05-18T08:29:55Z</time>
      </trkpt>
      <trkpt lat="44.64522" lon="5.74819">
        <ele>1152.8</ele>
        <time>2023-05-18T08:29:56Z</time>
      </trkpt>
      <trkpt lat="44.64521" lon="5.74822">
        <ele>1152.8</ele>
        <time>2023-05-18T08:29:57Z</time>
      </trkpt>
      <trkpt lat="44.64521" lon="5.74824">
        <ele>1153</ele>
        <time>2023-05-18T08:29:58Z</time>
      </trkpt>
      <trkpt lat="44.64524" lon="5.74827">
        <ele>1153</ele>
        <time>2023-05-18T08:29:59Z</time>
      </trkpt>
      <trkpt lat="44.64524" lon="5.7483">
        <ele>1153</ele>
        <time>2023-05-18T08:30:00Z</time>
      </trkpt>
      <trkpt lat="44.64523" lon="5.74832">
        <ele>1153.2</ele>
        <time>2023-05-18T08:30:01Z</time>
      </trkpt>
      <trkpt lat="44.64523" lon="5.74835">
        <ele>1153.4</ele>
        <time>2023-05-18T08:30:02Z</time>
      </trkpt>
      <trkpt lat="44.64523" lon="5.74837">
        <ele>1153.6</ele>
        <time>2023-05-18T08:30:03Z</time>
      </trkpt>
      <trkpt lat="44.64523" lon="5.7484">
        <ele>1153.6</ele>
        <time>2023-05-18T08:30:04Z</time>
      </trkpt>
      <trkpt lat="44.64522" lon="5.74842">
        <ele>1153.8</ele>
        <time>2023-05-18T08:30:05Z</time>
      </trkpt>
      <trkpt lat="44.64522" lon="5.74844">
        <ele>1153.8</ele>
        <time>2023-05-18T08:30:06Z</time>
      </trkpt>
      <trkpt lat="44.64521" lon="5.74845">
        <ele>1153.8</ele>
        <time>2023-05-18T08:30:07Z</time>
      </trkpt>
      <trkpt lat="44.64521" lon="5.74847">
        <ele>1153.8</ele>
        <time>2023-05-18T08:30:08Z</time>
      </trkpt>
      <trkpt lat="44.6452" lon="5.74848">
        <ele>1153.8</ele>
        <time>2023-05-18T08:30:09Z</time>
      </trkpt>
      <trkpt lat="44.64519" lon="5.7485">
        <ele>1154</ele>
        <time>2023-05-18T08:30:10Z</time>
      </trkpt>
      <trkpt lat="44.64518" lon="5.74852">
        <ele>1154</ele>
        <time>2023-05-18T08:30:11Z</time>
      </trkpt>
      <trkpt lat="44.64517" lon="5.74854">
        <ele>1154.2</ele>
        <time>2023-05-18T08:30:12Z</time>
      </trkpt>
      <trkpt lat="44.64516" lon="5.74858">
        <ele>1154.4</ele>
        <time>2023-05-18T08:30:13Z</time>
      </trkpt>
      <trkpt lat="44.64516" lon="5.74861">
        <ele>1154.8</ele>
        <time>2023-05-18T08:30:14Z</time>
      </trkpt>
      <trkpt lat="44.64514" lon="5.74864">
        <ele>1154.8</ele>
        <time>2023-05-18T08:30:15Z</time>
      </trkpt>
      <trkpt lat="44.64514" lon="5.74865">
        <ele>1155</ele>
        <time>2023-05-18T08:30:16Z</time>
      </trkpt>
      <trkpt lat="44.64513" lon="5.74868">
        <ele>1155.2</ele>
        <time>2023-05-18T08:30:17Z</time>
      </trkpt>
      <trkpt lat="44.64511" lon="5.7487">
        <ele>1155.2</ele>
        <time>2023-05-18T08:30:18Z</time>
      </trkpt>
      <trkpt lat="44.6451" lon="5.74873">
        <ele>1155.4</ele>
        <time>2023-05-18T08:30:19Z</time>
      </trkpt>
      <trkpt lat="44.64509" lon="5.74875">
        <ele>1155.4</ele>
        <time>2023-05-18T08:30:20Z</time>
      </trkpt>
      <trkpt lat="44.64507" lon="5.74877">
        <ele>1155.6</ele>
        <time>2023-05-18T08:30:21Z</time>
      </trkpt>
      <trkpt lat="44.64506" lon="5.74878">
        <ele>1155.8</ele>
        <time>2023-05-18T08:30:22Z</time>
      </trkpt>
      <trkpt lat="44.64505" lon="5.7488">
        <ele>1155.8</ele>
        <time>2023-05-18T08:30:23Z</time>
      </trkpt>
      <trkpt lat="44.64504" lon="5.74883">
        <ele>1156</ele>
        <time>2023-05-18T08:30:24Z</time>
      </trkpt>
      <trkpt lat="44.64503" lon="5.74885">
        <ele>1156</ele>
        <time>2023-05-18T08:30:25Z</time>
      </trkpt>
      <trkpt lat="44.64501" lon="5.74888">
        <ele>1156.2</ele>
        <time>2023-05-18T08:30:26Z</time>
      </trkpt>
      <trkpt lat="44.64501" lon="5.7489">
        <ele>1156.2</ele>
        <time>2023-05-18T08:30:27Z</time>
      </trkpt>
      <trkpt lat="44.64498" lon="5.74894">
        <ele>1156.4</ele>
        <time>2023-05-18T08:30:28Z</time>
      </trkpt>
      <trkpt lat="44.64498" lon="5.74897">
        <ele>1156.4</ele>
        <time>2023-05-18T08:30:29Z</time>
      </trkpt>
      <trkpt lat="44.64497" lon="5.74901">
        <ele>1156.6</ele>
        <time>2023-05-18T08:30:30Z</time>
      </trkpt>
      <trkpt lat="44.64497" lon="5.74903">
        <ele>1157</ele>
        <time>2023-05-18T08:30:31Z</time>
      </trkpt>
      <trkpt lat="44.64496" lon="5.74906">
        <ele>1157.2</ele>
        <time>2023-05-18T08:30:32Z</time>
      </trkpt>
      <trkpt lat="44.64495" lon="5.74908">
        <ele>1157.4</ele>
        <time>2023-05-18T08:30:33Z</time>
      </trkpt>
      <trkpt lat="44.64493" lon="5.74911">
        <ele>1157.4</ele>
        <time>2023-05-18T08:30:34Z</time>
      </trkpt>
      <trkpt lat="44.64492" lon="5.74914">
        <ele>1157.4</ele>
        <time>2023-05-18T08:30:35Z</time>
      </trkpt>
      <trkpt lat="44.64491" lon="5.74916">
        <ele>1157.4</ele>
        <time>2023-05-18T08:30:36Z</time>
      </trkpt>
      <trkpt lat="44.6449" lon="5.74918">
        <ele>1157.6</ele>
        <time>2023-05-18T08:30:37Z</time>
      </trkpt>
      <trkpt lat="44.6449" lon="5.7492">
        <ele>1157.6</ele>
        <time>2023-05-18T08:30:38Z</time>
      </trkpt>
      <trkpt lat="44.6449" lon="5.74922">
        <ele>1157.6</ele>
        <time>2023-05-18T08:30:39Z</time>
      </trkpt>
      <trkpt lat="44.64489" lon="5.74924">
        <ele>1157.8</ele>
        <time>2023-05-18T08:30:40Z</time>
      </trkpt>
      <trkpt lat="44.64489" lon="5.74926">
        <ele>1157.8</ele>
        <time>2023-05-18T08:30:41Z</time>
      </trkpt>
      <trkpt lat="44.64489" lon="5.74929">
        <ele>1158</ele>
        <time>2023-05-18T08:30:42Z</time>
      </trkpt>
      <trkpt lat="44.64488" lon="5.74931">
        <ele>1158</ele>
        <time>2023-05-18T08:30:43Z</time>
      </trkpt>
      <trkpt lat="44.64488" lon="5.74933">
        <ele>1158.2</ele>
        <time>2023-05-18T08:30:44Z</time>
      </trkpt>
      <trkpt lat="44.64487" lon="5.74935">
        <ele>1158.2</ele>
        <time>2023-05-18T08:30:45Z</time>
      </trkpt>
      <trkpt lat="44.64486" lon="5.74936">
        <ele>1158.4</ele>
        <time>2023-05-18T08:30:46Z</time>
      </trkpt>
      <trkpt lat="44.64485" lon="5.74938">
        <ele>1158.6</ele>
        <time>2023-05-18T08:30:47Z</time>
      </trkpt>
      <trkpt lat="44.64484" lon="5.74941">
        <ele>1158.6</ele>
        <time>2023-05-18T08:30:48Z</time>
      </trkpt>
      <trkpt lat="44.64484" lon="5.74943">
        <ele>1158.6</ele>
        <time>2023-05-18T08:30:49Z</time>
      </trkpt>
      <trkpt lat="44.64484" lon="5.74946">
        <ele>1158.8</ele>
        <time>2023-05-18T08:30:50Z</time>
      </trkpt>
      <trkpt lat="44.64484" lon="5.74948">
        <ele>1159</ele>
        <time>2023-05-18T08:30:51Z</time>
      </trkpt>
      <trkpt lat="44.64483" lon="5.74951">
        <ele>1159</ele>
        <time>2023-05-18T08:30:52Z</time>
      </trkpt>
      <trkpt lat="44.64482" lon="5.74953">
        <ele>1159.2</ele>
        <time>2023-05-18T08:30:53Z</time>
      </trkpt>
      <trkpt lat="44.64482" lon="5.74955">
        <ele>1159.4</ele>
        <time>2023-05-18T08:30:54Z</time>
      </trkpt>
      <trkpt lat="44.64482" lon="5.74958">
        <ele>1159.6</ele>
        <time>2023-05-18T08:30:55Z</time>
      </trkpt>
      <trkpt lat="44.64482" lon="5.74959">
        <ele>1160</ele>
        <time>2023-05-18T08:30:56Z</time>
      </trkpt>
      <trkpt lat="44.64481" lon="5.7496">
        <ele>1160</ele>
        <time>2023-05-18T08:30:57Z</time>
      </trkpt>
      <trkpt lat="44.64481" lon="5.74962">
        <ele>1160.2</ele>
        <time>2023-05-18T08:30:58Z</time>
      </trkpt>
      <trkpt lat="44.64481" lon="5.74964">
        <ele>1160.2</ele>
        <time>2023-05-18T08:30:59Z</time>
      </trkpt>
      <trkpt lat="44.64481" lon="5.74967">
        <ele>1160.4</ele>
        <time>2023-05-18T08:31:00Z</time>
      </trkpt>
      <trkpt lat="44.64481" lon="5.7497">
        <ele>1160.4</ele>
        <time>2023-05-18T08:31:01Z</time>
      </trkpt>
      <trkpt lat="44.6448" lon="5.74973">
        <ele>1160.4</ele>
        <time>2023-05-18T08:31:02Z</time>
      </trkpt>
      <trkpt lat="44.6448" lon="5.74975">
        <ele>1160.8</ele>
        <time>2023-05-18T08:31:03Z</time>
      </trkpt>
      <trkpt lat="44.6448" lon="5.74977">
        <ele>1160.8</ele>
        <time>2023-05-18T08:31:04Z</time>
      </trkpt>
      <trkpt lat="44.6448" lon="5.74979">
        <ele>1161</ele>
        <time>2023-05-18T08:31:05Z</time>
      </trkpt>
      <trkpt lat="44.64479" lon="5.74981">
        <ele>1161.2</ele>
        <time>2023-05-18T08:31:06Z</time>
      </trkpt>
      <trkpt lat="44.64479" lon="5.74984">
        <ele>1161.4</ele>
        <time>2023-05-18T08:31:07Z</time>
      </trkpt>
      <trkpt lat="44.64478" lon="5.74987">
        <ele>1161.4</ele>
        <time>2023-05-18T08:31:08Z</time>
      </trkpt>
      <trkpt lat="44.64476" lon="5.7499">
        <ele>1161.6</ele>
        <time>2023-05-18T08:31:09Z</time>
      </trkpt>
      <trkpt lat="44.64475" lon="5.74993">
        <ele>1161.6</ele>
        <time>2023-05-18T08:31:10Z</time>
      </trkpt>
      <trkpt lat="44.64475" lon="5.74996">
        <ele>1161.8</ele>
        <time>2023-05-18T08:31:11Z</time>
      </trkpt>
      <trkpt lat="44.64475" lon="5.74999">
        <ele>1161.8</ele>
        <time>2023-05-18T08:31:12Z</time>
      </trkpt>
      <trkpt lat="44.64474" lon="5.75003">
        <ele>1162</ele>
        <time>2023-05-18T08:31:13Z</time>
      </trkpt>
      <trkpt lat="44.64474" lon="5.75005">
        <ele>1162.2</ele>
        <time>2023-05-18T08:31:14Z</time>
      </trkpt>
      <trkpt lat="44.64472" lon="5.75007">
        <ele>1162.2</ele>
        <time>2023-05-18T08:31:15Z</time>
      </trkpt>
      <trkpt lat="44.6447" lon="5.75011">
        <ele>1162.4</ele>
        <time>2023-05-18T08:31:16Z</time>
      </trkpt>
      <trkpt lat="44.64469" lon="5.75015">
        <ele>1162.4</ele>
        <time>2023-05-18T08:31:17Z</time>
      </trkpt>
      <trkpt lat="44.64466" lon="5.75018">
        <ele>1162.6</ele>
        <time>2023-05-18T08:31:18Z</time>
      </trkpt>
      <trkpt lat="44.64465" lon="5.75021">
        <ele>1162.6</ele>
        <time>2023-05-18T08:31:19Z</time>
      </trkpt>
      <trkpt lat="44.64464" lon="5.75024">
        <ele>1162.6</ele>
        <time>2023-05-18T08:31:20Z</time>
      </trkpt>
      <trkpt lat="44.64463" lon="5.75026">
        <ele>1163</ele>
        <time>2023-05-18T08:31:21Z</time>
      </trkpt>
      <trkpt lat="44.64463" lon="5.75027">
        <ele>1163</ele>
        <time>2023-05-18T08:31:22Z</time>
      </trkpt>
      <trkpt lat="44.64462" lon="5.75029">
        <ele>1163</ele>
        <time>2023-05-18T08:31:23Z</time>
      </trkpt>
      <trkpt lat="44.64461" lon="5.7503">
        <ele>1163.2</ele>
        <time>2023-05-18T08:31:24Z</time>
      </trkpt>
      <trkpt lat="44.6446" lon="5.75032">
        <ele>1163.2</ele>
        <time>2023-05-18T08:31:25Z</time>
      </trkpt>
      <trkpt lat="44.6446" lon="5.75035">
        <ele>1163.4</ele>
        <time>2023-05-18T08:31:26Z</time>
      </trkpt>
      <trkpt lat="44.64458" lon="5.75037">
        <ele>1163.4</ele>
        <time>2023-05-18T08:31:27Z</time>
      </trkpt>
      <trkpt lat="44.64457" lon="5.7504">
        <ele>1163.6</ele>
        <time>2023-05-18T08:31:28Z</time>
      </trkpt>
      <trkpt lat="44.64457" lon="5.75042">
        <ele>1163.8</ele>
        <time>2023-05-18T08:31:29Z</time>
      </trkpt>
      <trkpt lat="44.64453" lon="5.75045">
        <ele>1163.8</ele>
        <time>2023-05-18T08:31:30Z</time>
      </trkpt>
      <trkpt lat="44.6445" lon="5.75048">
        <ele>1164</ele>
        <time>2023-05-18T08:31:31Z</time>
      </trkpt>
      <trkpt lat="44.64447" lon="5.75052">
        <ele>1164.2</ele>
        <time>2023-05-18T08:31:32Z</time>
      </trkpt>
      <trkpt lat="44.64447" lon="5.75052">
        <ele>1164.4</ele>
        <time>2023-05-18T08:31:33Z</time>
      </trkpt>
      <trkpt lat="44.64447" lon="5.75052">
        <ele>1164.4</ele>
        <time>2023-05-18T08:31:34Z</time>
      </trkpt>
      <trkpt lat="44.64446" lon="5.75053">
        <ele>1164.6</ele>
        <time>2023-05-18T08:31:35Z</time>
      </trkpt>
      <trkpt lat="44.64445" lon="5.75053">
        <ele>1164.6</ele>
        <time>2023-05-18T08:31:36Z</time>
      </trkpt>
      <trkpt lat="44.64445" lon="5.75054">
        <ele>1164.6</ele>
        <time>2023-05-18T08:31:37Z</time>
      </trkpt>
      <trkpt lat="44.64444" lon="5.75055">
        <ele>1164.8</ele>
        <time>2023-05-18T08:31:38Z</time>
      </trkpt>
      <trkpt lat="44.64443" lon="5.75056">
        <ele>1164.8</ele>
        <time>2023-05-18T08:31:39Z</time>
      </trkpt>
      <trkpt lat="44.64442" lon="5.75057">
        <ele>1165</ele>
        <time>2023-05-18T08:31:40Z</time>
      </trkpt>
      <trkpt lat="44.64441" lon="5.7506">
        <ele>1165.2</ele>
        <time>2023-05-18T08:31:41Z</time>
      </trkpt>
      <trkpt lat="44.64441" lon="5.7506">
        <ele>1165.2</ele>
        <time>2023-05-18T08:31:42Z</time>
      </trkpt>
      <trkpt lat="44.6444" lon="5.75061">
        <ele>1165.4</ele>
        <time>2023-05-18T08:31:43Z</time>
      </trkpt>
      <trkpt lat="44.64438" lon="5.75062">
        <ele>1165.4</ele>
        <time>2023-05-18T08:31:44Z</time>
      </trkpt>
      <trkpt lat="44.64436" lon="5.75064">
        <ele>1165.6</ele>
        <time>2023-05-18T08:31:45Z</time>
      </trkpt>
      <trkpt lat="44.64435" lon="5.75066">
        <ele>1165.8</ele>
        <time>2023-05-18T08:31:46Z</time>
      </trkpt>
      <trkpt lat="44.64435" lon="5.75066">
        <ele>1165.8</ele>
        <time>2023-05-18T08:31:47Z</time>
      </trkpt>
      <trkpt lat="44.64434" lon="5.75067">
        <ele>1166</ele>
        <time>2023-05-18T08:31:48Z</time>
      </trkpt>
      <trkpt lat="44.64433" lon="5.75067">
        <ele>1166.2</ele>
        <time>2023-05-18T08:31:49Z</time>
      </trkpt>
      <trkpt lat="44.64433" lon="5.75068">
        <ele>1166.2</ele>
        <time>2023-05-18T08:31:50Z</time>
      </trkpt>
      <trkpt lat="44.64431" lon="5.75069">
        <ele>1166.4</ele>
        <time>2023-05-18T08:31:51Z</time>
      </trkpt>
      <trkpt lat="44.64429" lon="5.75072">
        <ele>1166.4</ele>
        <time>2023-05-18T08:31:52Z</time>
      </trkpt>
      <trkpt lat="44.64427" lon="5.75076">
        <ele>1166.6</ele>
        <time>2023-05-18T08:31:53Z</time>
      </trkpt>
      <trkpt lat="44.64424" lon="5.75078">
        <ele>1166.8</ele>
        <time>2023-05-18T08:31:54Z</time>
      </trkpt>
      <trkpt lat="44.64423" lon="5.75081">
        <ele>1166.8</ele>
        <time>2023-05-18T08:31:55Z</time>
      </trkpt>
      <trkpt lat="44.64422" lon="5.75084">
        <ele>1167</ele>
        <time>2023-05-18T08:31:56Z</time>
      </trkpt>
      <trkpt lat="44.64421" lon="5.75086">
        <ele>1167.2</ele>
        <time>2023-05-18T08:31:57Z</time>
      </trkpt>
      <trkpt lat="44.64418" lon="5.75089">
        <ele>1167.2</ele>
        <time>2023-05-18T08:31:58Z</time>
      </trkpt>
      <trkpt lat="44.64417" lon="5.75091">
        <ele>1167.2</ele>
        <time>2023-05-18T08:31:59Z</time>
      </trkpt>
      <trkpt lat="44.64415" lon="5.75095">
        <ele>1167.4</ele>
        <time>2023-05-18T08:32:00Z</time>
      </trkpt>
      <trkpt lat="44.64414" lon="5.75098">
        <ele>1167.6</ele>
        <time>2023-05-18T08:32:01Z</time>
      </trkpt>
      <trkpt lat="44.64412" lon="5.75101">
        <ele>1167.6</ele>
        <time>2023-05-18T08:32:02Z</time>
      </trkpt>
      <trkpt lat="44.64411" lon="5.75103">
        <ele>1167.8</ele>
        <time>2023-05-18T08:32:03Z</time>
      </trkpt>
      <trkpt lat="44.64411" lon="5.75105">
        <ele>1167.8</ele>
        <time>2023-05-18T08:32:04Z</time>
      </trkpt>
      <trkpt lat="44.64409" lon="5.75107">
        <ele>1168</ele>
        <time>2023-05-18T08:32:05Z</time>
      </trkpt>
      <trkpt lat="44.64407" lon="5.75109">
        <ele>1168.2</ele>
        <time>2023-05-18T08:32:06Z</time>
      </trkpt>
      <trkpt lat="44.64405" lon="5.75111">
        <ele>1168.4</ele>
        <time>2023-05-18T08:32:07Z</time>
      </trkpt>
      <trkpt lat="44.64404" lon="5.75112">
        <ele>1168.4</ele>
        <time>2023-05-18T08:32:08Z</time>
      </trkpt>
      <trkpt lat="44.64403" lon="5.75114">
        <ele>1168.6</ele>
        <time>2023-05-18T08:32:09Z</time>
      </trkpt>
      <trkpt lat="44.64402" lon="5.75117">
        <ele>1168.6</ele>
        <time>2023-05-18T08:32:10Z</time>
      </trkpt>
      <trkpt lat="44.64401" lon="5.7512">
        <ele>1168.8</ele>
        <time>2023-05-18T08:32:11Z</time>
      </trkpt>
      <trkpt lat="44.644" lon="5.75124">
        <ele>1169</ele>
        <time>2023-05-18T08:32:12Z</time>
      </trkpt>
      <trkpt lat="44.64399" lon="5.75126">
        <ele>1169</ele>
        <time>2023-05-18T08:32:13Z</time>
      </trkpt>
      <trkpt lat="44.64398" lon="5.7513">
        <ele>1169</ele>
        <time>2023-05-18T08:32:14Z</time>
      </trkpt>
      <trkpt lat="44.64397" lon="5.75133">
        <ele>1169.2</ele>
        <time>2023-05-18T08:32:15Z</time>
      </trkpt>
      <trkpt lat="44.64397" lon="5.75136">
        <ele>1169.2</ele>
        <time>2023-05-18T08:32:16Z</time>
      </trkpt>
      <trkpt lat="44.64396" lon="5.75141">
        <ele>1169.4</ele>
        <time>2023-05-18T08:32:17Z</time>
      </trkpt>
      <trkpt lat="44.64394" lon="5.75143">
        <ele>1169.4</ele>
        <time>2023-05-18T08:32:18Z</time>
      </trkpt>
      <trkpt lat="44.64393" lon="5.75146">
        <ele>1169.6</ele>
        <time>2023-05-18T08:32:19Z</time>
      </trkpt>
      <trkpt lat="44.64391" lon="5.75149">
        <ele>1169.6</ele>
        <time>2023-05-18T08:32:20Z</time>
      </trkpt>
      <trkpt lat="44.6439" lon="5.75151">
        <ele>1169.8</ele>
        <time>2023-05-18T08:32:21Z</time>
      </trkpt>
      <trkpt lat="44.64387" lon="5.75153">
        <ele>1170</ele>
        <time>2023-05-18T08:32:22Z</time>
      </trkpt>
      <trkpt lat="44.64387" lon="5.75157">
        <ele>1170.2</ele>
        <time>2023-05-18T08:32:23Z</time>
      </trkpt>
      <trkpt lat="44.64386" lon="5.75159">
        <ele>1170.2</ele>
        <time>2023-05-18T08:32:24Z</time>
      </trkpt>
      <trkpt lat="44.64385" lon="5.75161">
        <ele>1170.4</ele>
        <time>2023-05-18T08:32:25Z</time>
      </trkpt>
      <trkpt lat="44.64384" lon="5.75162">
        <ele>1170.4</ele>
        <time>2023-05-18T08:32:26Z</time>
      </trkpt>
      <trkpt lat="44.64384" lon="5.75164">
        <ele>1170.4</ele>
        <time>2023-05-18T08:32:27Z</time>
      </trkpt>
      <trkpt lat="44.64383" lon="5.75166">
        <ele>1170.6</ele>
        <time>2023-05-18T08:32:28Z</time>
      </trkpt>
      <trkpt lat="44.64382" lon="5.75168">
        <ele>1170.6</ele>
        <time>2023-05-18T08:32:29Z</time>
      </trkpt>
      <trkpt lat="44.64381" lon="5.7517">
        <ele>1170.8</ele>
        <time>2023-05-18T08:32:30Z</time>
      </trkpt>
      <trkpt lat="44.64379" lon="5.75171">
        <ele>1171</ele>
        <time>2023-05-18T08:32:31Z</time>
      </trkpt>
      <trkpt lat="44.64378" lon="5.75173">
        <ele>1171</ele>
        <time>2023-05-18T08:32:32Z</time>
      </trkpt>
      <trkpt lat="44.64377" lon="5.75175">
        <ele>1171.2</ele>
        <time>2023-05-18T08:32:33Z</time>
      </trkpt>
      <trkpt lat="44.64376" lon="5.75177">
        <ele>1171.2</ele>
        <time>2023-05-18T08:32:34Z</time>
      </trkpt>
      <trkpt lat="44.64375" lon="5.7518">
        <ele>1171.4</ele>
        <time>2023-05-18T08:32:35Z</time>
      </trkpt>
      <trkpt lat="44.64374" lon="5.75182">
        <ele>1171.6</ele>
        <time>2023-05-18T08:32:36Z</time>
      </trkpt>
      <trkpt lat="44.64372" lon="5.75184">
        <ele>1171.8</ele>
        <time>2023-05-18T08:32:37Z</time>
      </trkpt>
      <trkpt lat="44.6437" lon="5.75186">
        <ele>1171.8</ele>
        <time>2023-05-18T08:32:38Z</time>
      </trkpt>
      <trkpt lat="44.64369" lon="5.75188">
        <ele>1171.8</ele>
        <time>2023-05-18T08:32:39Z</time>
      </trkpt>
      <trkpt lat="44.64367" lon="5.7519">
        <ele>1172</ele>
        <time>2023-05-18T08:32:40Z</time>
      </trkpt>
      <trkpt lat="44.64365" lon="5.75192">
        <ele>1172.2</ele>
        <time>2023-05-18T08:32:41Z</time>
      </trkpt>
      <trkpt lat="44.64365" lon="5.75194">
        <ele>1172.4</ele>
        <time>2023-05-18T08:32:42Z</time>
      </trkpt>
      <trkpt lat="44.64364" lon="5.75197">
        <ele>1172.6</ele>
        <time>2023-05-18T08:32:43Z</time>
      </trkpt>
      <trkpt lat="44.64363" lon="5.75199">
        <ele>1172.6</ele>
        <time>2023-05-18T08:32:44Z</time>
      </trkpt>
      <trkpt lat="44.64361" lon="5.752">
        <ele>1172.6</ele>
        <time>2023-05-18T08:32:45Z</time>
      </trkpt>
      <trkpt lat="44.64361" lon="5.75202">
        <ele>1172.8</ele>
        <time>2023-05-18T08:32:46Z</time>
      </trkpt>
      <trkpt lat="44.6436" lon="5.75205">
        <ele>1172.8</ele>
        <time>2023-05-18T08:32:47Z</time>
      </trkpt>
      <trkpt lat="44.64358" lon="5.75208">
        <ele>1172.8</ele>
        <time>2023-05-18T08:32:48Z</time>
      </trkpt>
      <trkpt lat="44.64356" lon="5.75211">
        <ele>1172.8</ele>
        <time>2023-05-18T08:32:49Z</time>
      </trkpt>
      <trkpt lat="44.64356" lon="5.75214">
        <ele>1173</ele>
        <time>2023-05-18T08:32:50Z</time>
      </trkpt>
      <trkpt lat="44.64355" lon="5.75217">
        <ele>1173.2</ele>
        <time>2023-05-18T08:32:51Z</time>
      </trkpt>
      <trkpt lat="44.64354" lon="5.75221">
        <ele>1173.2</ele>
        <time>2023-05-18T08:32:52Z</time>
      </trkpt>
      <trkpt lat="44.64353" lon="5.75225">
        <ele>1173.4</ele>
        <time>2023-05-18T08:32:53Z</time>
      </trkpt>
      <trkpt lat="44.64351" lon="5.75228">
        <ele>1173.4</ele>
        <time>2023-05-18T08:32:54Z</time>
      </trkpt>
      <trkpt lat="44.6435" lon="5.75231">
        <ele>1173.6</ele>
        <time>2023-05-18T08:32:55Z</time>
      </trkpt>
      <trkpt lat="44.6435" lon="5.75233">
        <ele>1173.6</ele>
        <time>2023-05-18T08:32:56Z</time>
      </trkpt>
      <trkpt lat="44.6435" lon="5.75235">
        <ele>1173.8</ele>
        <time>2023-05-18T08:32:57Z</time>
      </trkpt>
      <trkpt lat="44.64349" lon="5.75237">
        <ele>1173.8</ele>
        <time>2023-05-18T08:32:58Z</time>
      </trkpt>
      <trkpt lat="44.64349" lon="5.75238">
        <ele>1174</ele>
        <time>2023-05-18T08:32:59Z</time>
      </trkpt>
      <trkpt lat="44.64349" lon="5.75239">
        <ele>1174.2</ele>
        <time>2023-05-18T08:33:00Z</time>
      </trkpt>
      <trkpt lat="44.64348" lon="5.75241">
        <ele>1174.2</ele>
        <time>2023-05-18T08:33:01Z</time>
      </trkpt>
      <trkpt lat="44.64346" lon="5.75243">
        <ele>1174.4</ele>
        <time>2023-05-18T08:33:02Z</time>
      </trkpt>
      <trkpt lat="44.64344" lon="5.75245">
        <ele>1174.4</ele>
        <time>2023-05-18T08:33:03Z</time>
      </trkpt>
      <trkpt lat="44.64343" lon="5.75247">
        <ele>1174.6</ele>
        <time>2023-05-18T08:33:04Z</time>
      </trkpt>
      <trkpt lat="44.64342" lon="5.75248">
        <ele>1174.8</ele>
        <time>2023-05-18T08:33:05Z</time>
      </trkpt>
      <trkpt lat="44.64341" lon="5.75251">
        <ele>1175</ele>
        <time>2023-05-18T08:33:06Z</time>
      </trkpt>
      <trkpt lat="44.6434" lon="5.75254">
        <ele>1175.2</ele>
        <time>2023-05-18T08:33:07Z</time>
      </trkpt>
      <trkpt lat="44.6434" lon="5.75257">
        <ele>1175.4</ele>
        <time>2023-05-18T08:33:08Z</time>
      </trkpt>
      <trkpt lat="44.64339" lon="5.7526">
        <ele>1175.6</ele>
        <time>2023-05-18T08:33:09Z</time>
      </trkpt>
      <trkpt lat="44.64339" lon="5.75263">
        <ele>1175.6</ele>
        <time>2023-05-18T08:33:10Z</time>
      </trkpt>
      <trkpt lat="44.64338" lon="5.75266">
        <ele>1175.8</ele>
        <time>2023-05-18T08:33:11Z</time>
      </trkpt>
      <trkpt lat="44.64337" lon="5.75269">
        <ele>1175.8</ele>
        <time>2023-05-18T08:33:12Z</time>
      </trkpt>
      <trkpt lat="44.64337" lon="5.75272">
        <ele>1175.8</ele>
        <time>2023-05-18T08:33:13Z</time>
      </trkpt>
      <trkpt lat="44.64336" lon="5.75275">
        <ele>1175.8</ele>
        <time>2023-05-18T08:33:14Z</time>
      </trkpt>
      <trkpt lat="44.64335" lon="5.75278">
        <ele>1175.8</ele>
        <time>2023-05-18T08:33:15Z</time>
      </trkpt>
      <trkpt lat="44.64335" lon="5.7528">
        <ele>1176</ele>
        <time>2023-05-18T08:33:16Z</time>
      </trkpt>
      <trkpt lat="44.64334" lon="5.75283">
        <ele>1176</ele>
        <time>2023-05-18T08:33:17Z</time>
      </trkpt>
      <trkpt lat="44.64333" lon="5.75285">
        <ele>1176.2</ele>
        <time>2023-05-18T08:33:18Z</time>
      </trkpt>
      <trkpt lat="44.64332" lon="5.75288">
        <ele>1176.2</ele>
        <time>2023-05-18T08:33:19Z</time>
      </trkpt>
      <trkpt lat="44.64331" lon="5.75292">
        <ele>1176.4</ele>
        <time>2023-05-18T08:33:20Z</time>
      </trkpt>
      <trkpt lat="44.6433" lon="5.75294">
        <ele>1176.4</ele>
        <time>2023-05-18T08:33:21Z</time>
      </trkpt>
      <trkpt lat="44.64329" lon="5.75296">
        <ele>1176.4</ele>
        <time>2023-05-18T08:33:22Z</time>
      </trkpt>
      <trkpt lat="44.64327" lon="5.75297">
        <ele>1176.6</ele>
        <time>2023-05-18T08:33:23Z</time>
      </trkpt>
      <trkpt lat="44.64327" lon="5.75299">
        <ele>1177</ele>
        <time>2023-05-18T08:33:24Z</time>
      </trkpt>
      <trkpt lat="44.64326" lon="5.75302">
        <ele>1177</ele>
        <time>2023-05-18T08:33:25Z</time>
      </trkpt>
      <trkpt lat="44.64325" lon="5.75303">
        <ele>1177.2</ele>
        <time>2023-05-18T08:33:26Z</time>
      </trkpt>
      <trkpt lat="44.64324" lon="5.75305">
        <ele>1177.4</ele>
        <time>2023-05-18T08:33:27Z</time>
      </trkpt>
      <trkpt lat="44.64323" lon="5.75308">
        <ele>1177.4</ele>
        <time>2023-05-18T08:33:28Z</time>
      </trkpt>
      <trkpt lat="44.64322" lon="5.75309">
        <ele>1177.6</ele>
        <time>2023-05-18T08:33:29Z</time>
      </trkpt>
      <trkpt lat="44.64321" lon="5.75311">
        <ele>1177.6</ele>
        <time>2023-05-18T08:33:30Z</time>
      </trkpt>
      <trkpt lat="44.6432" lon="5.75312">
        <ele>1177.6</ele>
        <time>2023-05-18T08:33:31Z</time>
      </trkpt>
      <trkpt lat="44.64318" lon="5.75312">
        <ele>1177.8</ele>
        <time>2023-05-18T08:33:32Z</time>
      </trkpt>
      <trkpt lat="44.64317" lon="5.75313">
        <ele>1178</ele>
        <time>2023-05-18T08:33:33Z</time>
      </trkpt>
      <trkpt lat="44.64317" lon="5.75317">
        <ele>1178</ele>
        <time>2023-05-18T08:33:34Z</time>
      </trkpt>
      <trkpt lat="44.64316" lon="5.75321">
        <ele>1178.4</ele>
        <time>2023-05-18T08:33:35Z</time>
      </trkpt>
      <trkpt lat="44.64315" lon="5.75325">
        <ele>1178.4</ele>
        <time>2023-05-18T08:33:36Z</time>
      </trkpt>
      <trkpt lat="44.64313" lon="5.75328">
        <ele>1178.4</ele>
        <time>2023-05-18T08:33:37Z</time>
      </trkpt>
      <trkpt lat="44.64309" lon="5.7533">
        <ele>1178.8</ele>
        <time>2023-05-18T08:33:38Z</time>
      </trkpt>
      <trkpt lat="44.64309" lon="5.75332">
        <ele>1178.8</ele>
        <time>2023-05-18T08:33:39Z</time>
      </trkpt>
      <trkpt lat="44.64309" lon="5.75333">
        <ele>1179</ele>
        <time>2023-05-18T08:33:40Z</time>
      </trkpt>
      <trkpt lat="44.64307" lon="5.75333">
        <ele>1179</ele>
        <time>2023-05-18T08:33:41Z</time>
      </trkpt>
      <trkpt lat="44.64305" lon="5.75332">
        <ele>1179.2</ele>
        <time>2023-05-18T08:33:42Z</time>
      </trkpt>
      <trkpt lat="44.64302" lon="5.75333">
        <ele>1179.2</ele>
        <time>2023-05-18T08:33:43Z</time>
      </trkpt>
      <trkpt lat="44.64301" lon="5.75333">
        <ele>1179.4</ele>
        <time>2023-05-18T08:33:44Z</time>
      </trkpt>
      <trkpt lat="44.64301" lon="5.75333">
        <ele>1179.4</ele>
        <time>2023-05-18T08:33:45Z</time>
      </trkpt>
      <trkpt lat="44.643" lon="5.75333">
        <ele>1179.8</ele>
        <time>2023-05-18T08:33:46Z</time>
      </trkpt>
      <trkpt lat="44.64299" lon="5.75335">
        <ele>1180</ele>
        <time>2023-05-18T08:33:47Z</time>
      </trkpt>
      <trkpt lat="44.64298" lon="5.75336">
        <ele>1180</ele>
        <time>2023-05-18T08:33:48Z</time>
      </trkpt>
      <trkpt lat="44.64297" lon="5.75336">
        <ele>1180.2</ele>
        <time>2023-05-18T08:33:49Z</time>
      </trkpt>
      <trkpt lat="44.64296" lon="5.75337">
        <ele>1180.4</ele>
        <time>2023-05-18T08:33:50Z</time>
      </trkpt>
      <trkpt lat="44.64296" lon="5.75337">
        <ele>1180.4</ele>
        <time>2023-05-18T08:33:51Z</time>
      </trkpt>
      <trkpt lat="44.64294" lon="5.75337">
        <ele>1180.4</ele>
        <time>2023-05-18T08:33:52Z</time>
      </trkpt>
      <trkpt lat="44.64293" lon="5.75338">
        <ele>1180.4</ele>
        <time>2023-05-18T08:33:53Z</time>
      </trkpt>
      <trkpt lat="44.64292" lon="5.75339">
        <ele>1180.6</ele>
        <time>2023-05-18T08:33:54Z</time>
      </trkpt>
      <trkpt lat="44.64291" lon="5.75339">
        <ele>1180.6</ele>
        <time>2023-05-18T08:33:55Z</time>
      </trkpt>
      <trkpt lat="44.6429" lon="5.7534">
        <ele>1180.8</ele>
        <time>2023-05-18T08:33:56Z</time>
      </trkpt>
      <trkpt lat="44.64288" lon="5.75341">
        <ele>1180.8</ele>
        <time>2023-05-18T08:33:57Z</time>
      </trkpt>
      <trkpt lat="44.64287" lon="5.75342">
        <ele>1180.6</ele>
        <time>2023-05-18T08:33:58Z</time>
      </trkpt>
      <trkpt lat="44.64285" lon="5.75343">
        <ele>1181</ele>
        <time>2023-05-18T08:33:59Z</time>
      </trkpt>
      <trkpt lat="44.64284" lon="5.75344">
        <ele>1181</ele>
        <time>2023-05-18T08:34:00Z</time>
      </trkpt>
      <trkpt lat="44.64283" lon="5.75344">
        <ele>1181</ele>
        <time>2023-05-18T08:34:01Z</time>
      </trkpt>
      <trkpt lat="44.64281" lon="5.75345">
        <ele>1181</ele>
        <time>2023-05-18T08:34:02Z</time>
      </trkpt>
      <trkpt lat="44.64279" lon="5.75346">
        <ele>1181.2</ele>
        <time>2023-05-18T08:34:03Z</time>
      </trkpt>
      <trkpt lat="44.64277" lon="5.75348">
        <ele>1181.4</ele>
        <time>2023-05-18T08:34:04Z</time>
      </trkpt>
      <trkpt lat="44.64277" lon="5.75349">
        <ele>1181.4</ele>
        <time>2023-05-18T08:34:05Z</time>
      </trkpt>
      <trkpt lat="44.64276" lon="5.7535">
        <ele>1181.6</ele>
        <time>2023-05-18T08:34:06Z</time>
      </trkpt>
      <trkpt lat="44.64275" lon="5.75351">
        <ele>1181.8</ele>
        <time>2023-05-18T08:34:07Z</time>
      </trkpt>
      <trkpt lat="44.64274" lon="5.75353">
        <ele>1182</ele>
        <time>2023-05-18T08:34:08Z</time>
      </trkpt>
      <trkpt lat="44.64273" lon="5.75353">
        <ele>1182.2</ele>
        <time>2023-05-18T08:34:09Z</time>
      </trkpt>
      <trkpt lat="44.64272" lon="5.75354">
        <ele>1182.2</ele>
        <time>2023-05-18T08:34:10Z</time>
      </trkpt>
      <trkpt lat="44.64271" lon="5.75355">
        <ele>1182.4</ele>
        <time>2023-05-18T08:34:11Z</time>
      </trkpt>
      <trkpt lat="44.64269" lon="5.75356">
        <ele>1182.6</ele>
        <time>2023-05-18T08:34:12Z</time>
      </trkpt>
      <trkpt lat="44.64268" lon="5.75357">
        <ele>1182.6</ele>
        <time>2023-05-18T08:34:13Z</time>
      </trkpt>
      <trkpt lat="44.64267" lon="5.75358">
        <ele>1182.8</ele>
        <time>2023-05-18T08:34:14Z</time>
      </trkpt>
      <trkpt lat="44.64266" lon="5.75359">
        <ele>1182.8</ele>
        <time>2023-05-18T08:34:15Z</time>
      </trkpt>
      <trkpt lat="44.64265" lon="5.75361">
        <ele>1183</ele>
        <time>2023-05-18T08:34:16Z</time>
      </trkpt>
      <trkpt lat="44.64264" lon="5.75363">
        <ele>1183</ele>
        <time>2023-05-18T08:34:17Z</time>
      </trkpt>
      <trkpt lat="44.64263" lon="5.75364">
        <ele>1183.2</ele>
        <time>2023-05-18T08:34:18Z</time>
      </trkpt>
      <trkpt lat="44.64262" lon="5.75366">
        <ele>1183.2</ele>
        <time>2023-05-18T08:34:19Z</time>
      </trkpt>
      <trkpt lat="44.64262" lon="5.75367">
        <ele>1183.2</ele>
        <time>2023-05-18T08:34:20Z</time>
      </trkpt>
      <trkpt lat="44.64262" lon="5.7537">
        <ele>1183.4</ele>
        <time>2023-05-18T08:34:21Z</time>
      </trkpt>
      <trkpt lat="44.64262" lon="5.7537">
        <ele>1183.6</ele>
        <time>2023-05-18T08:34:22Z</time>
      </trkpt>
      <trkpt lat="44.64261" lon="5.75371">
        <ele>1183.8</ele>
        <time>2023-05-18T08:34:23Z</time>
      </trkpt>
      <trkpt lat="44.6426" lon="5.75373">
        <ele>1183.8</ele>
        <time>2023-05-18T08:34:24Z</time>
      </trkpt>
      <trkpt lat="44.64259" lon="5.75374">
        <ele>1184</ele>
        <time>2023-05-18T08:34:25Z</time>
      </trkpt>
      <trkpt lat="44.64259" lon="5.75375">
        <ele>1184</ele>
        <time>2023-05-18T08:34:26Z</time>
      </trkpt>
      <trkpt lat="44.64258" lon="5.75375">
        <ele>1184.2</ele>
        <time>2023-05-18T08:34:27Z</time>
      </trkpt>
      <trkpt lat="44.64258" lon="5.75375">
        <ele>1184.4</ele>
        <time>2023-05-18T08:34:28Z</time>
      </trkpt>
      <trkpt lat="44.64258" lon="5.75375">
        <ele>1184.6</ele>
        <time>2023-05-18T08:34:29Z</time>
      </trkpt>
      <trkpt lat="44.64258" lon="5.75375">
        <ele>1184.8</ele>
        <time>2023-05-18T08:34:30Z</time>
      </trkpt>
      <trkpt lat="44.64258" lon="5.75375">
        <ele>1184.8</ele>
        <time>2023-05-18T08:34:31Z</time>
      </trkpt>
      <trkpt lat="44.64258" lon="5.75375">
        <ele>1185</ele>
        <time>2023-05-18T08:34:32Z</time>
      </trkpt>
      <trkpt lat="44.64257" lon="5.75376">
        <ele>1185.2</ele>
        <time>2023-05-18T08:34:33Z</time>
      </trkpt>
      <trkpt lat="44.64257" lon="5.75376">
        <ele>1185.4</ele>
        <time>2023-05-18T08:34:34Z</time>
      </trkpt>
      <trkpt lat="44.64256" lon="5.75377">
        <ele>1185.4</ele>
        <time>2023-05-18T08:34:35Z</time>
      </trkpt>
      <trkpt lat="44.64254" lon="5.75378">
        <ele>1185.6</ele>
        <time>2023-05-18T08:34:36Z</time>
      </trkpt>
      <trkpt lat="44.64253" lon="5.75381">
        <ele>1185.6</ele>
        <time>2023-05-18T08:34:37Z</time>
      </trkpt>
      <trkpt lat="44.64252" lon="5.75383">
        <ele>1185.8</ele>
        <time>2023-05-18T08:34:38Z</time>
      </trkpt>
      <trkpt lat="44.64251" lon="5.75386">
        <ele>1186</ele>
        <time>2023-05-18T08:34:39Z</time>
      </trkpt>
      <trkpt lat="44.6425" lon="5.75388">
        <ele>1186</ele>
        <time>2023-05-18T08:34:40Z</time>
      </trkpt>
      <trkpt lat="44.64249" lon="5.75391">
        <ele>1186.2</ele>
        <time>2023-05-18T08:34:41Z</time>
      </trkpt>
      <trkpt lat="44.64248" lon="5.75393">
        <ele>1186.2</ele>
        <time>2023-05-18T08:34:42Z</time>
      </trkpt>
      <trkpt lat="44.64248" lon="5.75393">
        <ele>1186.4</ele>
        <time>2023-05-18T08:34:43Z</time>
      </trkpt>
      <trkpt lat="44.64248" lon="5.75393">
        <ele>1186.4</ele>
        <time>2023-05-18T08:34:44Z</time>
      </trkpt>
      <trkpt lat="44.64247" lon="5.75395">
        <ele>1186.6</ele>
        <time>2023-05-18T08:34:45Z</time>
      </trkpt>
      <trkpt lat="44.64246" lon="5.75396">
        <ele>1186.6</ele>
        <time>2023-05-18T08:34:46Z</time>
      </trkpt>
      <trkpt lat="44.64244" lon="5.75397">
        <ele>1186.8</ele>
        <time>2023-05-18T08:34:47Z</time>
      </trkpt>
      <trkpt lat="44.64243" lon="5.75398">
        <ele>1187</ele>
        <time>2023-05-18T08:34:48Z</time>
      </trkpt>
      <trkpt lat="44.64241" lon="5.754">
        <ele>1187.2</ele>
        <time>2023-05-18T08:34:49Z</time>
      </trkpt>
      <trkpt lat="44.64238" lon="5.75404">
        <ele>1187.2</ele>
        <time>2023-05-18T08:34:50Z</time>
      </trkpt>
      <trkpt lat="44.64236" lon="5.75407">
        <ele>1187.4</ele>
        <time>2023-05-18T08:34:51Z</time>
      </trkpt>
      <trkpt lat="44.64235" lon="5.75407">
        <ele>1187.4</ele>
        <time>2023-05-18T08:34:52Z</time>
      </trkpt>
      <trkpt lat="44.64234" lon="5.75409">
        <ele>1187.4</ele>
        <time>2023-05-18T08:34:53Z</time>
      </trkpt>
      <trkpt lat="44.64232" lon="5.75411">
        <ele>1187.6</ele>
        <time>2023-05-18T08:34:54Z</time>
      </trkpt>
      <trkpt lat="44.64229" lon="5.75413">
        <ele>1187.8</ele>
        <time>2023-05-18T08:34:55Z</time>
      </trkpt>
      <trkpt lat="44.64227" lon="5.75415">
        <ele>1188</ele>
        <time>2023-05-18T08:34:56Z</time>
      </trkpt>
      <trkpt lat="44.64226" lon="5.75417">
        <ele>1188.2</ele>
        <time>2023-05-18T08:34:57Z</time>
      </trkpt>
      <trkpt lat="44.64225" lon="5.75419">
        <ele>1188.4</ele>
        <time>2023-05-18T08:34:58Z</time>
      </trkpt>
      <trkpt lat="44.64225" lon="5.75419">
        <ele>1188.6</ele>
        <time>2023-05-18T08:34:59Z</time>
      </trkpt>
      <trkpt lat="44.64224" lon="5.7542">
        <ele>1188.6</ele>
        <time>2023-05-18T08:35:00Z</time>
      </trkpt>
      <trkpt lat="44.64223" lon="5.75422">
        <ele>1188.8</ele>
        <time>2023-05-18T08:35:01Z</time>
      </trkpt>
      <trkpt lat="44.64222" lon="5.75425">
        <ele>1188.8</ele>
        <time>2023-05-18T08:35:02Z</time>
      </trkpt>
      <trkpt lat="44.6422" lon="5.75427">
        <ele>1188.8</ele>
        <time>2023-05-18T08:35:03Z</time>
      </trkpt>
      <trkpt lat="44.64218" lon="5.7543">
        <ele>1189</ele>
        <time>2023-05-18T08:35:04Z</time>
      </trkpt>
      <trkpt lat="44.64217" lon="5.75433">
        <ele>1189.2</ele>
        <time>2023-05-18T08:35:05Z</time>
      </trkpt>
      <trkpt lat="44.64216" lon="5.75435">
        <ele>1189.4</ele>
        <time>2023-05-18T08:35:06Z</time>
      </trkpt>
      <trkpt lat="44.64215" lon="5.75438">
        <ele>1189.4</ele>
        <time>2023-05-18T08:35:07Z</time>
      </trkpt>
      <trkpt lat="44.64214" lon="5.75441">
        <ele>1189.6</ele>
        <time>2023-05-18T08:35:08Z</time>
      </trkpt>
      <trkpt lat="44.64213" lon="5.75444">
        <ele>1189.6</ele>
        <time>2023-05-18T08:35:09Z</time>
      </trkpt>
      <trkpt lat="44.64213" lon="5.75446">
        <ele>1189.8</ele>
        <time>2023-05-18T08:35:10Z</time>
      </trkpt>
      <trkpt lat="44.64212" lon="5.7545">
        <ele>1189.8</ele>
        <time>2023-05-18T08:35:11Z</time>
      </trkpt>
      <trkpt lat="44.64212" lon="5.75454">
        <ele>1190</ele>
        <time>2023-05-18T08:35:12Z</time>
      </trkpt>
      <trkpt lat="44.6421" lon="5.75458">
        <ele>1190</ele>
        <time>2023-05-18T08:35:13Z</time>
      </trkpt>
      <trkpt lat="44.64209" lon="5.75463">
        <ele>1190</ele>
        <time>2023-05-18T08:35:14Z</time>
      </trkpt>
      <trkpt lat="44.64209" lon="5.75466">
        <ele>1190.2</ele>
        <time>2023-05-18T08:35:15Z</time>
      </trkpt>
      <trkpt lat="44.64209" lon="5.7547">
        <ele>1190.2</ele>
        <time>2023-05-18T08:35:16Z</time>
      </trkpt>
      <trkpt lat="44.64208" lon="5.75473">
        <ele>1190.4</ele>
        <time>2023-05-18T08:35:17Z</time>
      </trkpt>
      <trkpt lat="44.64208" lon="5.75475">
        <ele>1190.6</ele>
        <time>2023-05-18T08:35:18Z</time>
      </trkpt>
      <trkpt lat="44.64207" lon="5.75478">
        <ele>1190.8</ele>
        <time>2023-05-18T08:35:19Z</time>
      </trkpt>
      <trkpt lat="44.64207" lon="5.75479">
        <ele>1190.8</ele>
        <time>2023-05-18T08:35:20Z</time>
      </trkpt>
      <trkpt lat="44.64207" lon="5.75481">
        <ele>1191</ele>
        <time>2023-05-18T08:35:21Z</time>
      </trkpt>
      <trkpt lat="44.64207" lon="5.75485">
        <ele>1191.2</ele>
        <time>2023-05-18T08:35:22Z</time>
      </trkpt>
      <trkpt lat="44.64205" lon="5.75488">
        <ele>1191.4</ele>
        <time>2023-05-18T08:35:23Z</time>
      </trkpt>
      <trkpt lat="44.64204" lon="5.75491">
        <ele>1191.4</ele>
        <time>2023-05-18T08:35:24Z</time>
      </trkpt>
      <trkpt lat="44.64204" lon="5.75493">
        <ele>1191.6</ele>
        <time>2023-05-18T08:35:25Z</time>
      </trkpt>
      <trkpt lat="44.64203" lon="5.75494">
        <ele>1191.8</ele>
        <time>2023-05-18T08:35:26Z</time>
      </trkpt>
      <trkpt lat="44.64203" lon="5.75496">
        <ele>1192</ele>
        <time>2023-05-18T08:35:27Z</time>
      </trkpt>
      <trkpt lat="44.64203" lon="5.75498">
        <ele>1192</ele>
        <time>2023-05-18T08:35:28Z</time>
      </trkpt>
      <trkpt lat="44.64203" lon="5.755">
        <ele>1192.2</ele>
        <time>2023-05-18T08:35:29Z</time>
      </trkpt>
      <trkpt lat="44.64202" lon="5.75502">
        <ele>1192.4</ele>
        <time>2023-05-18T08:35:30Z</time>
      </trkpt>
      <trkpt lat="44.64201" lon="5.75504">
        <ele>1192.4</ele>
        <time>2023-05-18T08:35:31Z</time>
      </trkpt>
      <trkpt lat="44.642" lon="5.75505">
        <ele>1192.2</ele>
        <time>2023-05-18T08:35:32Z</time>
      </trkpt>
      <trkpt lat="44.642" lon="5.75506">
        <ele>1192.6</ele>
        <time>2023-05-18T08:35:33Z</time>
      </trkpt>
      <trkpt lat="44.64199" lon="5.75508">
        <ele>1192.8</ele>
        <time>2023-05-18T08:35:34Z</time>
      </trkpt>
      <trkpt lat="44.64199" lon="5.7551">
        <ele>1192.8</ele>
        <time>2023-05-18T08:35:35Z</time>
      </trkpt>
      <trkpt lat="44.64198" lon="5.75512">
        <ele>1193</ele>
        <time>2023-05-18T08:35:36Z</time>
      </trkpt>
      <trkpt lat="44.64197" lon="5.75513">
        <ele>1193</ele>
        <time>2023-05-18T08:35:37Z</time>
      </trkpt>
      <trkpt lat="44.64196" lon="5.75515">
        <ele>1193.2</ele>
        <time>2023-05-18T08:35:38Z</time>
      </trkpt>
      <trkpt lat="44.64195" lon="5.75516">
        <ele>1193.4</ele>
        <time>2023-05-18T08:35:39Z</time>
      </trkpt>
      <trkpt lat="44.64195" lon="5.75518">
        <ele>1193.4</ele>
        <time>2023-05-18T08:35:40Z</time>
      </trkpt>
      <trkpt lat="44.64195" lon="5.7552">
        <ele>1193.8</ele>
        <time>2023-05-18T08:35:41Z</time>
      </trkpt>
      <trkpt lat="44.64194" lon="5.75523">
        <ele>1193.8</ele>
        <time>2023-05-18T08:35:42Z</time>
      </trkpt>
      <trkpt lat="44.64194" lon="5.75525">
        <ele>1194</ele>
        <time>2023-05-18T08:35:43Z</time>
      </trkpt>
      <trkpt lat="44.64193" lon="5.75527">
        <ele>1194.2</ele>
        <time>2023-05-18T08:35:44Z</time>
      </trkpt>
      <trkpt lat="44.64193" lon="5.75528">
        <ele>1194.2</ele>
        <time>2023-05-18T08:35:45Z</time>
      </trkpt>
      <trkpt lat="44.64192" lon="5.7553">
        <ele>1194.2</ele>
        <time>2023-05-18T08:35:46Z</time>
      </trkpt>
      <trkpt lat="44.6419" lon="5.75532">
        <ele>1194.2</ele>
        <time>2023-05-18T08:35:47Z</time>
      </trkpt>
      <trkpt lat="44.64189" lon="5.75534">
        <ele>1194.4</ele>
        <time>2023-05-18T08:35:48Z</time>
      </trkpt>
      <trkpt lat="44.64188" lon="5.75536">
        <ele>1194.4</ele>
        <time>2023-05-18T08:35:49Z</time>
      </trkpt>
      <trkpt lat="44.64187" lon="5.75538">
        <ele>1194.6</ele>
        <time>2023-05-18T08:35:50Z</time>
      </trkpt>
      <trkpt lat="44.64186" lon="5.75539">
        <ele>1194.6</ele>
        <time>2023-05-18T08:35:51Z</time>
      </trkpt>
      <trkpt lat="44.64185" lon="5.75539">
        <ele>1194.8</ele>
        <time>2023-05-18T08:35:52Z</time>
      </trkpt>
      <trkpt lat="44.64184" lon="5.75542">
        <ele>1195</ele>
        <time>2023-05-18T08:35:53Z</time>
      </trkpt>
      <trkpt lat="44.64182" lon="5.75543">
        <ele>1195</ele>
        <time>2023-05-18T08:35:54Z</time>
      </trkpt>
      <trkpt lat="44.6418" lon="5.75545">
        <ele>1195.2</ele>
        <time>2023-05-18T08:35:55Z</time>
      </trkpt>
      <trkpt lat="44.64179" lon="5.75547">
        <ele>1195.2</ele>
        <time>2023-05-18T08:35:56Z</time>
      </trkpt>
      <trkpt lat="44.64178" lon="5.75549">
        <ele>1195.4</ele>
        <time>2023-05-18T08:35:57Z</time>
      </trkpt>
      <trkpt lat="44.64177" lon="5.75551">
        <ele>1195.4</ele>
        <time>2023-05-18T08:35:58Z</time>
      </trkpt>
      <trkpt lat="44.64176" lon="5.75553">
        <ele>1195.6</ele>
        <time>2023-05-18T08:35:59Z</time>
      </trkpt>
      <trkpt lat="44.64175" lon="5.75555">
        <ele>1195.6</ele>
        <time>2023-05-18T08:36:00Z</time>
      </trkpt>
      <trkpt lat="44.64175" lon="5.75556">
        <ele>1195.8</ele>
        <time>2023-05-18T08:36:01Z</time>
      </trkpt>
      <trkpt lat="44.64174" lon="5.75559">
        <ele>1195.8</ele>
        <time>2023-05-18T08:36:02Z</time>
      </trkpt>
      <trkpt lat="44.64174" lon="5.75562">
        <ele>1195.8</ele>
        <time>2023-05-18T08:36:03Z</time>
      </trkpt>
      <trkpt lat="44.64173" lon="5.75565">
        <ele>1196</ele>
        <time>2023-05-18T08:36:04Z</time>
      </trkpt>
      <trkpt lat="44.64173" lon="5.75568">
        <ele>1196</ele>
        <time>2023-05-18T08:36:05Z</time>
      </trkpt>
      <trkpt lat="44.64172" lon="5.75571">
        <ele>1196.2</ele>
        <time>2023-05-18T08:36:06Z</time>
      </trkpt>
      <trkpt lat="44.64171" lon="5.75575">
        <ele>1196.4</ele>
        <time>2023-05-18T08:36:07Z</time>
      </trkpt>
      <trkpt lat="44.6417" lon="5.75577">
        <ele>1196.4</ele>
        <time>2023-05-18T08:36:08Z</time>
      </trkpt>
      <trkpt lat="44.6417" lon="5.7558">
        <ele>1196.6</ele>
        <time>2023-05-18T08:36:09Z</time>
      </trkpt>
      <trkpt lat="44.6417" lon="5.75583">
        <ele>1196.6</ele>
        <time>2023-05-18T08:36:10Z</time>
      </trkpt>
      <trkpt lat="44.6417" lon="5.75587">
        <ele>1196.6</ele>
        <time>2023-05-18T08:36:11Z</time>
      </trkpt>
      <trkpt lat="44.64168" lon="5.75589">
        <ele>1196.6</ele>
        <time>2023-05-18T08:36:12Z</time>
      </trkpt>
      <trkpt lat="44.64166" lon="5.75591">
        <ele>1197</ele>
        <time>2023-05-18T08:36:13Z</time>
      </trkpt>
      <trkpt lat="44.64165" lon="5.75593">
        <ele>1197</ele>
        <time>2023-05-18T08:36:14Z</time>
      </trkpt>
      <trkpt lat="44.64164" lon="5.75597">
        <ele>1197.2</ele>
        <time>2023-05-18T08:36:15Z</time>
      </trkpt>
      <trkpt lat="44.64163" lon="5.75599">
        <ele>1197.2</ele>
        <time>2023-05-18T08:36:16Z</time>
      </trkpt>
      <trkpt lat="44.64163" lon="5.75603">
        <ele>1197.2</ele>
        <time>2023-05-18T08:36:17Z</time>
      </trkpt>
      <trkpt lat="44.64163" lon="5.75607">
        <ele>1197.4</ele>
        <time>2023-05-18T08:36:18Z</time>
      </trkpt>
      <trkpt lat="44.64163" lon="5.7561">
        <ele>1197.4</ele>
        <time>2023-05-18T08:36:19Z</time>
      </trkpt>
      <trkpt lat="44.64163" lon="5.75613">
        <ele>1197.4</ele>
        <time>2023-05-18T08:36:20Z</time>
      </trkpt>
      <trkpt lat="44.64163" lon="5.75617">
        <ele>1197.6</ele>
        <time>2023-05-18T08:36:21Z</time>
      </trkpt>
      <trkpt lat="44.64161" lon="5.7562">
        <ele>1197.8</ele>
        <time>2023-05-18T08:36:22Z</time>
      </trkpt>
      <trkpt lat="44.64161" lon="5.75622">
        <ele>1197.8</ele>
        <time>2023-05-18T08:36:23Z</time>
      </trkpt>
      <trkpt lat="44.64161" lon="5.75624">
        <ele>1198</ele>
        <time>2023-05-18T08:36:24Z</time>
      </trkpt>
      <trkpt lat="44.64159" lon="5.75626">
        <ele>1198</ele>
        <time>2023-05-18T08:36:25Z</time>
      </trkpt>
      <trkpt lat="44.64159" lon="5.75629">
        <ele>1198.2</ele>
        <time>2023-05-18T08:36:26Z</time>
      </trkpt>
      <trkpt lat="44.6416" lon="5.75632">
        <ele>1198.2</ele>
        <time>2023-05-18T08:36:27Z</time>
      </trkpt>
      <trkpt lat="44.64159" lon="5.75636">
        <ele>1198.4</ele>
        <time>2023-05-18T08:36:29Z</time>
      </trkpt>
      <trkpt lat="44.64159" lon="5.75638">
        <ele>1198.4</ele>
        <time>2023-05-18T08:36:30Z</time>
      </trkpt>
      <trkpt lat="44.64159" lon="5.75645">
        <ele>1198.8</ele>
        <time>2023-05-18T08:36:33Z</time>
      </trkpt>
      <trkpt lat="44.64159" lon="5.75647">
        <ele>1198.8</ele>
        <time>2023-05-18T08:36:34Z</time>
      </trkpt>
      <trkpt lat="44.64159" lon="5.75649">
        <ele>1199</ele>
        <time>2023-05-18T08:36:35Z</time>
      </trkpt>
      <trkpt lat="44.64159" lon="5.75651">
        <ele>1199</ele>
        <time>2023-05-18T08:36:36Z</time>
      </trkpt>
      <trkpt lat="44.64159" lon="5.75653">
        <ele>1199.2</ele>
        <time>2023-05-18T08:36:37Z</time>
      </trkpt>
      <trkpt lat="44.64158" lon="5.75655">
        <ele>1199.4</ele>
        <time>2023-05-18T08:36:38Z</time>
      </trkpt>
      <trkpt lat="44.64158" lon="5.75657">
        <ele>1199.4</ele>
        <time>2023-05-18T08:36:39Z</time>
      </trkpt>
      <trkpt lat="44.64157" lon="5.75658">
        <ele>1199.6</ele>
        <time>2023-05-18T08:36:40Z</time>
      </trkpt>
      <trkpt lat="44.64157" lon="5.7566">
        <ele>1199.8</ele>
        <time>2023-05-18T08:36:41Z</time>
      </trkpt>
      <trkpt lat="44.64157" lon="5.75663">
        <ele>1199.8</ele>
        <time>2023-05-18T08:36:42Z</time>
      </trkpt>
      <trkpt lat="44.64156" lon="5.75667">
        <ele>1200</ele>
        <time>2023-05-18T08:36:44Z</time>
      </trkpt>
      <trkpt lat="44.64156" lon="5.75669">
        <ele>1200.2</ele>
        <time>2023-05-18T08:36:45Z</time>
      </trkpt>
      <trkpt lat="44.64156" lon="5.75671">
        <ele>1200.2</ele>
        <time>2023-05-18T08:36:46Z</time>
      </trkpt>
      <trkpt lat="44.64156" lon="5.75674">
        <ele>1200.2</ele>
        <time>2023-05-18T08:36:47Z</time>
      </trkpt>
      <trkpt lat="44.64156" lon="5.75677">
        <ele>1200.4</ele>
        <time>2023-05-18T08:36:48Z</time>
      </trkpt>
      <trkpt lat="44.64156" lon="5.7568">
        <ele>1200.6</ele>
        <time>2023-05-18T08:36:49Z</time>
      </trkpt>
      <trkpt lat="44.64156" lon="5.75682">
        <ele>1200.6</ele>
        <time>2023-05-18T08:36:50Z</time>
      </trkpt>
      <trkpt lat="44.64156" lon="5.75684">
        <ele>1200.8</ele>
        <time>2023-05-18T08:36:51Z</time>
      </trkpt>
      <trkpt lat="44.64155" lon="5.75686">
        <ele>1200.8</ele>
        <time>2023-05-18T08:36:52Z</time>
      </trkpt>
      <trkpt lat="44.64154" lon="5.75688">
        <ele>1201</ele>
        <time>2023-05-18T08:36:53Z</time>
      </trkpt>
      <trkpt lat="44.64154" lon="5.75691">
        <ele>1201</ele>
        <time>2023-05-18T08:36:54Z</time>
      </trkpt>
      <trkpt lat="44.64153" lon="5.75693">
        <ele>1201.2</ele>
        <time>2023-05-18T08:36:55Z</time>
      </trkpt>
      <trkpt lat="44.64152" lon="5.75695">
        <ele>1201.4</ele>
        <time>2023-05-18T08:36:56Z</time>
      </trkpt>
      <trkpt lat="44.64152" lon="5.75698">
        <ele>1201.4</ele>
        <time>2023-05-18T08:36:57Z</time>
      </trkpt>
      <trkpt lat="44.64151" lon="5.75699">
        <ele>1201.6</ele>
        <time>2023-05-18T08:36:58Z</time>
      </trkpt>
      <trkpt lat="44.64151" lon="5.757">
        <ele>1201.8</ele>
        <time>2023-05-18T08:36:59Z</time>
      </trkpt>
      <trkpt lat="44.6415" lon="5.75704">
        <ele>1201.8</ele>
        <time>2023-05-18T08:37:00Z</time>
      </trkpt>
      <trkpt lat="44.6415" lon="5.75708">
        <ele>1202</ele>
        <time>2023-05-18T08:37:01Z</time>
      </trkpt>
      <trkpt lat="44.6415" lon="5.75711">
        <ele>1202</ele>
        <time>2023-05-18T08:37:02Z</time>
      </trkpt>
      <trkpt lat="44.6415" lon="5.75713">
        <ele>1202</ele>
        <time>2023-05-18T08:37:03Z</time>
      </trkpt>
      <trkpt lat="44.6415" lon="5.75715">
        <ele>1202.2</ele>
        <time>2023-05-18T08:37:04Z</time>
      </trkpt>
      <trkpt lat="44.64149" lon="5.75719">
        <ele>1202.4</ele>
        <time>2023-05-18T08:37:05Z</time>
      </trkpt>
      <trkpt lat="44.64149" lon="5.75721">
        <ele>1202.4</ele>
        <time>2023-05-18T08:37:06Z</time>
      </trkpt>
      <trkpt lat="44.64149" lon="5.75723">
        <ele>1202.4</ele>
        <time>2023-05-18T08:37:07Z</time>
      </trkpt>
      <trkpt lat="44.64149" lon="5.75727">
        <ele>1202.4</ele>
        <time>2023-05-18T08:37:08Z</time>
      </trkpt>
      <trkpt lat="44.64149" lon="5.7573">
        <ele>1202.6</ele>
        <time>2023-05-18T08:37:09Z</time>
      </trkpt>
      <trkpt lat="44.64148" lon="5.75733">
        <ele>1202.8</ele>
        <time>2023-05-18T08:37:10Z</time>
      </trkpt>
      <trkpt lat="44.64149" lon="5.75736">
        <ele>1203</ele>
        <time>2023-05-18T08:37:11Z</time>
      </trkpt>
      <trkpt lat="44.64149" lon="5.75739">
        <ele>1203</ele>
        <time>2023-05-18T08:37:12Z</time>
      </trkpt>
      <trkpt lat="44.64149" lon="5.75742">
        <ele>1203.2</ele>
        <time>2023-05-18T08:37:13Z</time>
      </trkpt>
      <trkpt lat="44.64149" lon="5.75746">
        <ele>1203.2</ele>
        <time>2023-05-18T08:37:14Z</time>
      </trkpt>
      <trkpt lat="44.64149" lon="5.7575">
        <ele>1203.2</ele>
        <time>2023-05-18T08:37:15Z</time>
      </trkpt>
      <trkpt lat="44.64148" lon="5.75754">
        <ele>1203.4</ele>
        <time>2023-05-18T08:37:16Z</time>
      </trkpt>
      <trkpt lat="44.64148" lon="5.75757">
        <ele>1203.6</ele>
        <time>2023-05-18T08:37:17Z</time>
      </trkpt>
      <trkpt lat="44.64149" lon="5.7576">
        <ele>1203.6</ele>
        <time>2023-05-18T08:37:18Z</time>
      </trkpt>
      <trkpt lat="44.6415" lon="5.75763">
        <ele>1203.6</ele>
        <time>2023-05-18T08:37:19Z</time>
      </trkpt>
      <trkpt lat="44.64151" lon="5.75766">
        <ele>1203.6</ele>
        <time>2023-05-18T08:37:20Z</time>
      </trkpt>
      <trkpt lat="44.64152" lon="5.7577">
        <ele>1203.6</ele>
        <time>2023-05-18T08:37:21Z</time>
      </trkpt>
      <trkpt lat="44.64153" lon="5.75772">
        <ele>1203.8</ele>
        <time>2023-05-18T08:37:22Z</time>
      </trkpt>
      <trkpt lat="44.64155" lon="5.75775">
        <ele>1203.8</ele>
        <time>2023-05-18T08:37:23Z</time>
      </trkpt>
      <trkpt lat="44.64158" lon="5.7578">
        <ele>1204</ele>
        <time>2023-05-18T08:37:25Z</time>
      </trkpt>
      <trkpt lat="44.64159" lon="5.75785">
        <ele>1204.2</ele>
        <time>2023-05-18T08:37:27Z</time>
      </trkpt>
      <trkpt lat="44.64159" lon="5.75788">
        <ele>1204.4</ele>
        <time>2023-05-18T08:37:28Z</time>
      </trkpt>
      <trkpt lat="44.64159" lon="5.75792">
        <ele>1204.4</ele>
        <time>2023-05-18T08:37:29Z</time>
      </trkpt>
      <trkpt lat="44.64158" lon="5.75795">
        <ele>1204.4</ele>
        <time>2023-05-18T08:37:30Z</time>
      </trkpt>
      <trkpt lat="44.64158" lon="5.75797">
        <ele>1204.6</ele>
        <time>2023-05-18T08:37:31Z</time>
      </trkpt>
      <trkpt lat="44.64156" lon="5.75806">
        <ele>1204.6</ele>
        <time>2023-05-18T08:37:34Z</time>
      </trkpt>
      <trkpt lat="44.64155" lon="5.75809">
        <ele>1204.6</ele>
        <time>2023-05-18T08:37:35Z</time>
      </trkpt>
      <trkpt lat="44.64154" lon="5.75816">
        <ele>1204.8</ele>
        <time>2023-05-18T08:37:37Z</time>
      </trkpt>
      <trkpt lat="44.64153" lon="5.75822">
        <ele>1204.8</ele>
        <time>2023-05-18T08:37:39Z</time>
      </trkpt>
      <trkpt lat="44.64152" lon="5.75825">
        <ele>1204.8</ele>
        <time>2023-05-18T08:37:40Z</time>
      </trkpt>
      <trkpt lat="44.64152" lon="5.75827">
        <ele>1204.8</ele>
        <time>2023-05-18T08:37:41Z</time>
      </trkpt>
      <trkpt lat="44.64152" lon="5.7583">
        <ele>1205</ele>
        <time>2023-05-18T08:37:42Z</time>
      </trkpt>
      <trkpt lat="44.64151" lon="5.75832">
        <ele>1205</ele>
        <time>2023-05-18T08:37:43Z</time>
      </trkpt>
      <trkpt lat="44.64149" lon="5.75834">
        <ele>1205</ele>
        <time>2023-05-18T08:37:44Z</time>
      </trkpt>
      <trkpt lat="44.64149" lon="5.75836">
        <ele>1205</ele>
        <time>2023-05-18T08:37:45Z</time>
      </trkpt>
      <trkpt lat="44.64147" lon="5.75837">
        <ele>1205</ele>
        <time>2023-05-18T08:37:46Z</time>
      </trkpt>
      <trkpt lat="44.64145" lon="5.75838">
        <ele>1205</ele>
        <time>2023-05-18T08:37:47Z</time>
      </trkpt>
      <trkpt lat="44.64144" lon="5.7584">
        <ele>1205</ele>
        <time>2023-05-18T08:37:48Z</time>
      </trkpt>
      <trkpt lat="44.64143" lon="5.75841">
        <ele>1205</ele>
        <time>2023-05-18T08:37:49Z</time>
      </trkpt>
      <trkpt lat="44.64142" lon="5.75842">
        <ele>1205</ele>
        <time>2023-05-18T08:37:50Z</time>
      </trkpt>
      <trkpt lat="44.64138" lon="5.75845">
        <ele>1205</ele>
        <time>2023-05-18T08:37:52Z</time>
      </trkpt>
      <trkpt lat="44.64136" lon="5.75846">
        <ele>1205.2</ele>
        <time>2023-05-18T08:37:53Z</time>
      </trkpt>
      <trkpt lat="44.64129" lon="5.75854">
        <ele>1205.2</ele>
        <time>2023-05-18T08:37:55Z</time>
      </trkpt>
      <trkpt lat="44.64126" lon="5.75857">
        <ele>1205.2</ele>
        <time>2023-05-18T08:37:56Z</time>
      </trkpt>
      <trkpt lat="44.64124" lon="5.75859">
        <ele>1205.4</ele>
        <time>2023-05-18T08:37:57Z</time>
      </trkpt>
      <trkpt lat="44.64114" lon="5.7587">
        <ele>1205.6</ele>
        <time>2023-05-18T08:38:01Z</time>
      </trkpt>
      <trkpt lat="44.64096" lon="5.7589">
        <ele>1205.8</ele>
        <time>2023-05-18T08:38:10Z</time>
      </trkpt>
      <trkpt lat="44.64096" lon="5.75893">
        <ele>1205.8</ele>
        <time>2023-05-18T08:38:11Z</time>
      </trkpt>
      <trkpt lat="44.64095" lon="5.75894">
        <ele>1205.8</ele>
        <time>2023-05-18T08:38:12Z</time>
      </trkpt>
      <trkpt lat="44.64095" lon="5.75894">
        <ele>1206</ele>
        <time>2023-05-18T08:38:15Z</time>
      </trkpt>
      <trkpt lat="44.64095" lon="5.75894">
        <ele>1206.2</ele>
        <time>2023-05-18T08:38:16Z</time>
      </trkpt>
      <trkpt lat="44.64095" lon="5.75894">
        <ele>1206.4</ele>
        <time>2023-05-18T08:38:36Z</time>
      </trkpt>
      <trkpt lat="44.64094" lon="5.75895">
        <ele>1206.6</ele>
        <time>2023-05-18T08:38:47Z</time>
      </trkpt>
      <trkpt lat="44.64093" lon="5.75896">
        <ele>1206.6</ele>
        <time>2023-05-18T08:38:48Z</time>
      </trkpt>
      <trkpt lat="44.64093" lon="5.75896">
        <ele>1206.6</ele>
        <time>2023-05-18T08:38:49Z</time>
      </trkpt>
      <trkpt lat="44.64091" lon="5.75899">
        <ele>1206.6</ele>
        <time>2023-05-18T08:38:51Z</time>
      </trkpt>
      <trkpt lat="44.64091" lon="5.75902">
        <ele>1206.8</ele>
        <time>2023-05-18T08:38:52Z</time>
      </trkpt>
      <trkpt lat="44.64089" lon="5.75905">
        <ele>1207</ele>
        <time>2023-05-18T08:38:54Z</time>
      </trkpt>
      <trkpt lat="44.64088" lon="5.75907">
        <ele>1207</ele>
        <time>2023-05-18T08:38:55Z</time>
      </trkpt>
      <trkpt lat="44.64087" lon="5.75908">
        <ele>1207.2</ele>
        <time>2023-05-18T08:38:56Z</time>
      </trkpt>
      <trkpt lat="44.64085" lon="5.75912">
        <ele>1207.4</ele>
        <time>2023-05-18T08:38:58Z</time>
      </trkpt>
      <trkpt lat="44.64082" lon="5.75919">
        <ele>1208</ele>
        <time>2023-05-18T08:39:01Z</time>
      </trkpt>
      <trkpt lat="44.64081" lon="5.75922">
        <ele>1208.2</ele>
        <time>2023-05-18T08:39:02Z</time>
      </trkpt>
      <trkpt lat="44.64081" lon="5.75923">
        <ele>1208.2</ele>
        <time>2023-05-18T08:39:03Z</time>
      </trkpt>
      <trkpt lat="44.64081" lon="5.75925">
        <ele>1208.4</ele>
        <time>2023-05-18T08:39:04Z</time>
      </trkpt>
      <trkpt lat="44.64079" lon="5.75931">
        <ele>1208.6</ele>
        <time>2023-05-18T08:39:06Z</time>
      </trkpt>
      <trkpt lat="44.64076" lon="5.75937">
        <ele>1209</ele>
        <time>2023-05-18T08:39:08Z</time>
      </trkpt>
      <trkpt lat="44.64075" lon="5.7594">
        <ele>1209</ele>
        <time>2023-05-18T08:39:09Z</time>
      </trkpt>
      <trkpt lat="44.64075" lon="5.75943">
        <ele>1209.2</ele>
        <time>2023-05-18T08:39:10Z</time>
      </trkpt>
      <trkpt lat="44.64074" lon="5.75945">
        <ele>1209.4</ele>
        <time>2023-05-18T08:39:11Z</time>
      </trkpt>
      <trkpt lat="44.64073" lon="5.75947">
        <ele>1209.4</ele>
        <time>2023-05-18T08:39:12Z</time>
      </trkpt>
      <trkpt lat="44.64072" lon="5.75949">
        <ele>1209.6</ele>
        <time>2023-05-18T08:39:13Z</time>
      </trkpt>
      <trkpt lat="44.64071" lon="5.75951">
        <ele>1210</ele>
        <time>2023-05-18T08:39:14Z</time>
      </trkpt>
      <trkpt lat="44.6407" lon="5.75953">
        <ele>1210.2</ele>
        <time>2023-05-18T08:39:15Z</time>
      </trkpt>
      <trkpt lat="44.6407" lon="5.75954">
        <ele>1210.4</ele>
        <time>2023-05-18T08:39:16Z</time>
      </trkpt>
      <trkpt lat="44.6407" lon="5.75955">
        <ele>1210.4</ele>
        <time>2023-05-18T08:39:17Z</time>
      </trkpt>
      <trkpt lat="44.64069" lon="5.75959">
        <ele>1210.6</ele>
        <time>2023-05-18T08:39:18Z</time>
      </trkpt>
      <trkpt lat="44.64068" lon="5.7596">
        <ele>1210.6</ele>
        <time>2023-05-18T08:39:19Z</time>
      </trkpt>
      <trkpt lat="44.64068" lon="5.7596">
        <ele>1210.8</ele>
        <time>2023-05-18T08:39:20Z</time>
      </trkpt>
      <trkpt lat="44.64066" lon="5.75961">
        <ele>1210.8</ele>
        <time>2023-05-18T08:39:21Z</time>
      </trkpt>
      <trkpt lat="44.64064" lon="5.75962">
        <ele>1210.8</ele>
        <time>2023-05-18T08:39:22Z</time>
      </trkpt>
      <trkpt lat="44.64064" lon="5.75963">
        <ele>1211</ele>
        <time>2023-05-18T08:39:23Z</time>
      </trkpt>
      <trkpt lat="44.64064" lon="5.75963">
        <ele>1211</ele>
        <time>2023-05-18T08:39:24Z</time>
      </trkpt>
      <trkpt lat="44.64063" lon="5.75963">
        <ele>1211.2</ele>
        <time>2023-05-18T08:39:25Z</time>
      </trkpt>
      <trkpt lat="44.64062" lon="5.75965">
        <ele>1211.4</ele>
        <time>2023-05-18T08:39:26Z</time>
      </trkpt>
      <trkpt lat="44.6406" lon="5.75967">
        <ele>1211.4</ele>
        <time>2023-05-18T08:39:27Z</time>
      </trkpt>
      <trkpt lat="44.64058" lon="5.75969">
        <ele>1211.4</ele>
        <time>2023-05-18T08:39:28Z</time>
      </trkpt>
      <trkpt lat="44.64057" lon="5.7597">
        <ele>1211.8</ele>
        <time>2023-05-18T08:39:29Z</time>
      </trkpt>
      <trkpt lat="44.64056" lon="5.75972">
        <ele>1211.8</ele>
        <time>2023-05-18T08:39:30Z</time>
      </trkpt>
      <trkpt lat="44.64055" lon="5.75973">
        <ele>1212</ele>
        <time>2023-05-18T08:39:31Z</time>
      </trkpt>
      <trkpt lat="44.64053" lon="5.75975">
        <ele>1212.2</ele>
        <time>2023-05-18T08:39:32Z</time>
      </trkpt>
      <trkpt lat="44.64051" lon="5.75977">
        <ele>1212.4</ele>
        <time>2023-05-18T08:39:33Z</time>
      </trkpt>
      <trkpt lat="44.64051" lon="5.75977">
        <ele>1212.4</ele>
        <time>2023-05-18T08:39:34Z</time>
      </trkpt>
      <trkpt lat="44.6405" lon="5.75979">
        <ele>1212.6</ele>
        <time>2023-05-18T08:39:35Z</time>
      </trkpt>
      <trkpt lat="44.64048" lon="5.75981">
        <ele>1212.6</ele>
        <time>2023-05-18T08:39:36Z</time>
      </trkpt>
      <trkpt lat="44.64048" lon="5.75982">
        <ele>1212.8</ele>
        <time>2023-05-18T08:39:37Z</time>
      </trkpt>
      <trkpt lat="44.64046" lon="5.75983">
        <ele>1213</ele>
        <time>2023-05-18T08:39:38Z</time>
      </trkpt>
      <trkpt lat="44.64045" lon="5.75984">
        <ele>1213</ele>
        <time>2023-05-18T08:39:39Z</time>
      </trkpt>
      <trkpt lat="44.64045" lon="5.75984">
        <ele>1213.2</ele>
        <time>2023-05-18T08:39:40Z</time>
      </trkpt>
      <trkpt lat="44.64044" lon="5.75985">
        <ele>1213.2</ele>
        <time>2023-05-18T08:39:41Z</time>
      </trkpt>
      <trkpt lat="44.64043" lon="5.75986">
        <ele>1213.4</ele>
        <time>2023-05-18T08:39:42Z</time>
      </trkpt>
      <trkpt lat="44.64042" lon="5.75988">
        <ele>1213.4</ele>
        <time>2023-05-18T08:39:43Z</time>
      </trkpt>
      <trkpt lat="44.64041" lon="5.7599">
        <ele>1213.2</ele>
        <time>2023-05-18T08:39:44Z</time>
      </trkpt>
      <trkpt lat="44.6404" lon="5.7599">
        <ele>1213.4</ele>
        <time>2023-05-18T08:39:45Z</time>
      </trkpt>
      <trkpt lat="44.6404" lon="5.75992">
        <ele>1213.4</ele>
        <time>2023-05-18T08:39:46Z</time>
      </trkpt>
      <trkpt lat="44.64039" lon="5.75992">
        <ele>1213.8</ele>
        <time>2023-05-18T08:39:47Z</time>
      </trkpt>
      <trkpt lat="44.64039" lon="5.75993">
        <ele>1213.8</ele>
        <time>2023-05-18T08:39:49Z</time>
      </trkpt>
      <trkpt lat="44.64038" lon="5.75993">
        <ele>1214</ele>
        <time>2023-05-18T08:39:50Z</time>
      </trkpt>
      <trkpt lat="44.64037" lon="5.75995">
        <ele>1214.2</ele>
        <time>2023-05-18T08:39:51Z</time>
      </trkpt>
      <trkpt lat="44.64036" lon="5.75996">
        <ele>1214.2</ele>
        <time>2023-05-18T08:39:52Z</time>
      </trkpt>
      <trkpt lat="44.64035" lon="5.75996">
        <ele>1214.6</ele>
        <time>2023-05-18T08:39:53Z</time>
      </trkpt>
      <trkpt lat="44.64034" lon="5.75999">
        <ele>1214.6</ele>
        <time>2023-05-18T08:39:54Z</time>
      </trkpt>
      <trkpt lat="44.64033" lon="5.76001">
        <ele>1214.8</ele>
        <time>2023-05-18T08:39:55Z</time>
      </trkpt>
      <trkpt lat="44.64032" lon="5.76002">
        <ele>1214.8</ele>
        <time>2023-05-18T08:39:56Z</time>
      </trkpt>
      <trkpt lat="44.64032" lon="5.76002">
        <ele>1215</ele>
        <time>2023-05-18T08:39:57Z</time>
      </trkpt>
      <trkpt lat="44.64031" lon="5.76002">
        <ele>1215.2</ele>
        <time>2023-05-18T08:39:58Z</time>
      </trkpt>
      <trkpt lat="44.6403" lon="5.76003">
        <ele>1215.2</ele>
        <time>2023-05-18T08:39:59Z</time>
      </trkpt>
      <trkpt lat="44.6403" lon="5.76003">
        <ele>1215.4</ele>
        <time>2023-05-18T08:40:00Z</time>
      </trkpt>
      <trkpt lat="44.64029" lon="5.76004">
        <ele>1215.6</ele>
        <time>2023-05-18T08:40:01Z</time>
      </trkpt>
      <trkpt lat="44.64029" lon="5.76004">
        <ele>1215.8</ele>
        <time>2023-05-18T08:40:02Z</time>
      </trkpt>
      <trkpt lat="44.64028" lon="5.76004">
        <ele>1215.8</ele>
        <time>2023-05-18T08:40:03Z</time>
      </trkpt>
      <trkpt lat="44.64027" lon="5.76005">
        <ele>1216.2</ele>
        <time>2023-05-18T08:40:05Z</time>
      </trkpt>
      <trkpt lat="44.64027" lon="5.76005">
        <ele>1216.2</ele>
        <time>2023-05-18T08:40:06Z</time>
      </trkpt>
      <trkpt lat="44.64026" lon="5.76006">
        <ele>1216.4</ele>
        <time>2023-05-18T08:40:07Z</time>
      </trkpt>
      <trkpt lat="44.64026" lon="5.76006">
        <ele>1216.4</ele>
        <time>2023-05-18T08:40:08Z</time>
      </trkpt>
      <trkpt lat="44.64025" lon="5.76007">
        <ele>1216.6</ele>
        <time>2023-05-18T08:40:09Z</time>
      </trkpt>
      <trkpt lat="44.64024" lon="5.76007">
        <ele>1216.6</ele>
        <time>2023-05-18T08:40:10Z</time>
      </trkpt>
      <trkpt lat="44.64024" lon="5.76007">
        <ele>1216.8</ele>
        <time>2023-05-18T08:40:11Z</time>
      </trkpt>
      <trkpt lat="44.64024" lon="5.76007">
        <ele>1217</ele>
        <time>2023-05-18T08:40:12Z</time>
      </trkpt>
      <trkpt lat="44.64024" lon="5.76008">
        <ele>1217</ele>
        <time>2023-05-18T08:40:13Z</time>
      </trkpt>
      <trkpt lat="44.64021" lon="5.76012">
        <ele>1217.4</ele>
        <time>2023-05-18T08:40:14Z</time>
      </trkpt>
      <trkpt lat="44.64021" lon="5.76012">
        <ele>1217.4</ele>
        <time>2023-05-18T08:40:15Z</time>
      </trkpt>
      <trkpt lat="44.6402" lon="5.76016">
        <ele>1217.6</ele>
        <time>2023-05-18T08:40:16Z</time>
      </trkpt>
      <trkpt lat="44.6402" lon="5.76016">
        <ele>1217.8</ele>
        <time>2023-05-18T08:40:17Z</time>
      </trkpt>
      <trkpt lat="44.6402" lon="5.76016">
        <ele>1218</ele>
        <time>2023-05-18T08:40:18Z</time>
      </trkpt>
      <trkpt lat="44.64018" lon="5.76018">
        <ele>1218</ele>
        <time>2023-05-18T08:40:19Z</time>
      </trkpt>
      <trkpt lat="44.64017" lon="5.7602">
        <ele>1218.4</ele>
        <time>2023-05-18T08:40:20Z</time>
      </trkpt>
      <trkpt lat="44.64016" lon="5.76021">
        <ele>1218.6</ele>
        <time>2023-05-18T08:40:21Z</time>
      </trkpt>
      <trkpt lat="44.64014" lon="5.76022">
        <ele>1218.6</ele>
        <time>2023-05-18T08:40:22Z</time>
      </trkpt>
      <trkpt lat="44.64012" lon="5.76023">
        <ele>1218.8</ele>
        <time>2023-05-18T08:40:23Z</time>
      </trkpt>
      <trkpt lat="44.64011" lon="5.76024">
        <ele>1219</ele>
        <time>2023-05-18T08:40:24Z</time>
      </trkpt>
      <trkpt lat="44.64009" lon="5.76026">
        <ele>1219.2</ele>
        <time>2023-05-18T08:40:25Z</time>
      </trkpt>
      <trkpt lat="44.64009" lon="5.76027">
        <ele>1219.4</ele>
        <time>2023-05-18T08:40:26Z</time>
      </trkpt>
      <trkpt lat="44.64008" lon="5.76028">
        <ele>1219.4</ele>
        <time>2023-05-18T08:40:27Z</time>
      </trkpt>
      <trkpt lat="44.64008" lon="5.76029">
        <ele>1219.6</ele>
        <time>2023-05-18T08:40:28Z</time>
      </trkpt>
      <trkpt lat="44.64008" lon="5.76029">
        <ele>1219.8</ele>
        <time>2023-05-18T08:40:29Z</time>
      </trkpt>
      <trkpt lat="44.64008" lon="5.76029">
        <ele>1219.8</ele>
        <time>2023-05-18T08:40:30Z</time>
      </trkpt>
      <trkpt lat="44.64008" lon="5.76029">
        <ele>1220.2</ele>
        <time>2023-05-18T08:40:31Z</time>
      </trkpt>
      <trkpt lat="44.64006" lon="5.76031">
        <ele>1220.6</ele>
        <time>2023-05-18T08:40:34Z</time>
      </trkpt>
      <trkpt lat="44.64006" lon="5.76031">
        <ele>1220.6</ele>
        <time>2023-05-18T08:40:35Z</time>
      </trkpt>
      <trkpt lat="44.64006" lon="5.76031">
        <ele>1220.6</ele>
        <time>2023-05-18T08:40:36Z</time>
      </trkpt>
      <trkpt lat="44.64005" lon="5.76034">
        <ele>1220.8</ele>
        <time>2023-05-18T08:40:37Z</time>
      </trkpt>
      <trkpt lat="44.64004" lon="5.76034">
        <ele>1221.2</ele>
        <time>2023-05-18T08:40:38Z</time>
      </trkpt>
      <trkpt lat="44.64004" lon="5.76034">
        <ele>1221.2</ele>
        <time>2023-05-18T08:40:39Z</time>
      </trkpt>
      <trkpt lat="44.64004" lon="5.76034">
        <ele>1221.2</ele>
        <time>2023-05-18T08:40:40Z</time>
      </trkpt>
      <trkpt lat="44.64004" lon="5.76034">
        <ele>1221.4</ele>
        <time>2023-05-18T08:40:41Z</time>
      </trkpt>
      <trkpt lat="44.64004" lon="5.76034">
        <ele>1221.6</ele>
        <time>2023-05-18T08:40:42Z</time>
      </trkpt>
      <trkpt lat="44.64004" lon="5.76034">
        <ele>1221.8</ele>
        <time>2023-05-18T08:40:43Z</time>
      </trkpt>
      <trkpt lat="44.64002" lon="5.76037">
        <ele>1222</ele>
        <time>2023-05-18T08:40:44Z</time>
      </trkpt>
      <trkpt lat="44.64" lon="5.7604">
        <ele>1222</ele>
        <time>2023-05-18T08:40:45Z</time>
      </trkpt>
      <trkpt lat="44.63998" lon="5.76043">
        <ele>1222.2</ele>
        <time>2023-05-18T08:40:46Z</time>
      </trkpt>
      <trkpt lat="44.63998" lon="5.76044">
        <ele>1222.2</ele>
        <time>2023-05-18T08:40:47Z</time>
      </trkpt>
      <trkpt lat="44.63996" lon="5.76046">
        <ele>1222.4</ele>
        <time>2023-05-18T08:40:48Z</time>
      </trkpt>
      <trkpt lat="44.63994" lon="5.7605">
        <ele>1222.8</ele>
        <time>2023-05-18T08:40:49Z</time>
      </trkpt>
      <trkpt lat="44.63993" lon="5.76053">
        <ele>1223</ele>
        <time>2023-05-18T08:40:50Z</time>
      </trkpt>
      <trkpt lat="44.63991" lon="5.76055">
        <ele>1223.2</ele>
        <time>2023-05-18T08:40:51Z</time>
      </trkpt>
      <trkpt lat="44.6399" lon="5.76058">
        <ele>1223.2</ele>
        <time>2023-05-18T08:40:52Z</time>
      </trkpt>
      <trkpt lat="44.63988" lon="5.7606">
        <ele>1223.4</ele>
        <time>2023-05-18T08:40:53Z</time>
      </trkpt>
      <trkpt lat="44.63987" lon="5.76062">
        <ele>1223.8</ele>
        <time>2023-05-18T08:40:54Z</time>
      </trkpt>
      <trkpt lat="44.63986" lon="5.76064">
        <ele>1223.8</ele>
        <time>2023-05-18T08:40:55Z</time>
      </trkpt>
      <trkpt lat="44.63983" lon="5.76067">
        <ele>1224.2</ele>
        <time>2023-05-18T08:40:56Z</time>
      </trkpt>
      <trkpt lat="44.63981" lon="5.76069">
        <ele>1224.2</ele>
        <time>2023-05-18T08:40:57Z</time>
      </trkpt>
      <trkpt lat="44.63976" lon="5.76072">
        <ele>1224.4</ele>
        <time>2023-05-18T08:40:58Z</time>
      </trkpt>
      <trkpt lat="44.63971" lon="5.76074">
        <ele>1224.6</ele>
        <time>2023-05-18T08:40:59Z</time>
      </trkpt>
      <trkpt lat="44.63969" lon="5.76077">
        <ele>1224.8</ele>
        <time>2023-05-18T08:41:00Z</time>
      </trkpt>
      <trkpt lat="44.63966" lon="5.7608">
        <ele>1225</ele>
        <time>2023-05-18T08:41:01Z</time>
      </trkpt>
      <trkpt lat="44.63964" lon="5.76082">
        <ele>1225.2</ele>
        <time>2023-05-18T08:41:02Z</time>
      </trkpt>
      <trkpt lat="44.63964" lon="5.76082">
        <ele>1225.4</ele>
        <time>2023-05-18T08:41:03Z</time>
      </trkpt>
      <trkpt lat="44.63963" lon="5.76084">
        <ele>1225.6</ele>
        <time>2023-05-18T08:41:04Z</time>
      </trkpt>
      <trkpt lat="44.63962" lon="5.76086">
        <ele>1225.6</ele>
        <time>2023-05-18T08:41:05Z</time>
      </trkpt>
      <trkpt lat="44.63962" lon="5.76086">
        <ele>1225.8</ele>
        <time>2023-05-18T08:41:06Z</time>
      </trkpt>
      <trkpt lat="44.6396" lon="5.76088">
        <ele>1226</ele>
        <time>2023-05-18T08:41:07Z</time>
      </trkpt>
      <trkpt lat="44.63958" lon="5.76089">
        <ele>1226.2</ele>
        <time>2023-05-18T08:41:08Z</time>
      </trkpt>
      <trkpt lat="44.63958" lon="5.76089">
        <ele>1226.2</ele>
        <time>2023-05-18T08:41:09Z</time>
      </trkpt>
      <trkpt lat="44.63957" lon="5.7609">
        <ele>1226.4</ele>
        <time>2023-05-18T08:41:10Z</time>
      </trkpt>
      <trkpt lat="44.63956" lon="5.76092">
        <ele>1226.4</ele>
        <time>2023-05-18T08:41:11Z</time>
      </trkpt>
      <trkpt lat="44.63955" lon="5.76093">
        <ele>1226.8</ele>
        <time>2023-05-18T08:41:12Z</time>
      </trkpt>
      <trkpt lat="44.63954" lon="5.76094">
        <ele>1226.8</ele>
        <time>2023-05-18T08:41:13Z</time>
      </trkpt>
      <trkpt lat="44.63952" lon="5.76097">
        <ele>1227</ele>
        <time>2023-05-18T08:41:14Z</time>
      </trkpt>
      <trkpt lat="44.6395" lon="5.761">
        <ele>1227</ele>
        <time>2023-05-18T08:41:15Z</time>
      </trkpt>
      <trkpt lat="44.63949" lon="5.76103">
        <ele>1227</ele>
        <time>2023-05-18T08:41:16Z</time>
      </trkpt>
      <trkpt lat="44.63948" lon="5.76105">
        <ele>1227.2</ele>
        <time>2023-05-18T08:41:17Z</time>
      </trkpt>
      <trkpt lat="44.63946" lon="5.76107">
        <ele>1227.2</ele>
        <time>2023-05-18T08:41:18Z</time>
      </trkpt>
      <trkpt lat="44.63946" lon="5.76109">
        <ele>1227.4</ele>
        <time>2023-05-18T08:41:19Z</time>
      </trkpt>
      <trkpt lat="44.63944" lon="5.76112">
        <ele>1227.6</ele>
        <time>2023-05-18T08:41:20Z</time>
      </trkpt>
      <trkpt lat="44.63944" lon="5.76113">
        <ele>1227.6</ele>
        <time>2023-05-18T08:41:21Z</time>
      </trkpt>
      <trkpt lat="44.63942" lon="5.76117">
        <ele>1227.8</ele>
        <time>2023-05-18T08:41:22Z</time>
      </trkpt>
      <trkpt lat="44.63941" lon="5.7612">
        <ele>1227.8</ele>
        <time>2023-05-18T08:41:23Z</time>
      </trkpt>
      <trkpt lat="44.63939" lon="5.76124">
        <ele>1228</ele>
        <time>2023-05-18T08:41:24Z</time>
      </trkpt>
      <trkpt lat="44.63937" lon="5.76126">
        <ele>1228.2</ele>
        <time>2023-05-18T08:41:25Z</time>
      </trkpt>
      <trkpt lat="44.63935" lon="5.76129">
        <ele>1228.2</ele>
        <time>2023-05-18T08:41:26Z</time>
      </trkpt>
      <trkpt lat="44.63933" lon="5.76131">
        <ele>1228.4</ele>
        <time>2023-05-18T08:41:27Z</time>
      </trkpt>
      <trkpt lat="44.63931" lon="5.76134">
        <ele>1228.6</ele>
        <time>2023-05-18T08:41:28Z</time>
      </trkpt>
      <trkpt lat="44.6393" lon="5.76136">
        <ele>1228.8</ele>
        <time>2023-05-18T08:41:29Z</time>
      </trkpt>
      <trkpt lat="44.6393" lon="5.76137">
        <ele>1229</ele>
        <time>2023-05-18T08:41:30Z</time>
      </trkpt>
      <trkpt lat="44.63928" lon="5.76138">
        <ele>1229.2</ele>
        <time>2023-05-18T08:41:31Z</time>
      </trkpt>
      <trkpt lat="44.63927" lon="5.7614">
        <ele>1229.4</ele>
        <time>2023-05-18T08:41:32Z</time>
      </trkpt>
      <trkpt lat="44.63927" lon="5.7614">
        <ele>1229.4</ele>
        <time>2023-05-18T08:41:33Z</time>
      </trkpt>
      <trkpt lat="44.63925" lon="5.76143">
        <ele>1229.8</ele>
        <time>2023-05-18T08:41:34Z</time>
      </trkpt>
      <trkpt lat="44.63923" lon="5.76145">
        <ele>1230.2</ele>
        <time>2023-05-18T08:41:35Z</time>
      </trkpt>
      <trkpt lat="44.63921" lon="5.76149">
        <ele>1230.2</ele>
        <time>2023-05-18T08:41:36Z</time>
      </trkpt>
      <trkpt lat="44.63918" lon="5.76154">
        <ele>1230.4</ele>
        <time>2023-05-18T08:41:37Z</time>
      </trkpt>
      <trkpt lat="44.63918" lon="5.76155">
        <ele>1230.4</ele>
        <time>2023-05-18T08:41:38Z</time>
      </trkpt>
      <trkpt lat="44.63917" lon="5.76155">
        <ele>1230.6</ele>
        <time>2023-05-18T08:41:39Z</time>
      </trkpt>
      <trkpt lat="44.63917" lon="5.76156">
        <ele>1230.8</ele>
        <time>2023-05-18T08:41:40Z</time>
      </trkpt>
      <trkpt lat="44.63917" lon="5.76158">
        <ele>1231</ele>
        <time>2023-05-18T08:41:41Z</time>
      </trkpt>
      <trkpt lat="44.63916" lon="5.7616">
        <ele>1231.2</ele>
        <time>2023-05-18T08:41:42Z</time>
      </trkpt>
      <trkpt lat="44.63915" lon="5.76163">
        <ele>1231.2</ele>
        <time>2023-05-18T08:41:43Z</time>
      </trkpt>
      <trkpt lat="44.63914" lon="5.76164">
        <ele>1231.6</ele>
        <time>2023-05-18T08:41:44Z</time>
      </trkpt>
      <trkpt lat="44.63913" lon="5.76167">
        <ele>1231.6</ele>
        <time>2023-05-18T08:41:45Z</time>
      </trkpt>
      <trkpt lat="44.63912" lon="5.76169">
        <ele>1231.8</ele>
        <time>2023-05-18T08:41:46Z</time>
      </trkpt>
      <trkpt lat="44.63911" lon="5.76171">
        <ele>1232</ele>
        <time>2023-05-18T08:41:47Z</time>
      </trkpt>
      <trkpt lat="44.63909" lon="5.76173">
        <ele>1232.2</ele>
        <time>2023-05-18T08:41:48Z</time>
      </trkpt>
      <trkpt lat="44.63909" lon="5.76176">
        <ele>1232.2</ele>
        <time>2023-05-18T08:41:49Z</time>
      </trkpt>
      <trkpt lat="44.63907" lon="5.76177">
        <ele>1232.4</ele>
        <time>2023-05-18T08:41:50Z</time>
      </trkpt>
      <trkpt lat="44.63906" lon="5.76179">
        <ele>1232.6</ele>
        <time>2023-05-18T08:41:51Z</time>
      </trkpt>
      <trkpt lat="44.63905" lon="5.76182">
        <ele>1232.6</ele>
        <time>2023-05-18T08:41:52Z</time>
      </trkpt>
      <trkpt lat="44.63904" lon="5.76184">
        <ele>1232.8</ele>
        <time>2023-05-18T08:41:53Z</time>
      </trkpt>
      <trkpt lat="44.63903" lon="5.76186">
        <ele>1232.8</ele>
        <time>2023-05-18T08:41:54Z</time>
      </trkpt>
      <trkpt lat="44.63902" lon="5.76188">
        <ele>1233</ele>
        <time>2023-05-18T08:41:55Z</time>
      </trkpt>
      <trkpt lat="44.63901" lon="5.76191">
        <ele>1233</ele>
        <time>2023-05-18T08:41:56Z</time>
      </trkpt>
      <trkpt lat="44.639" lon="5.76194">
        <ele>1233.2</ele>
        <time>2023-05-18T08:41:57Z</time>
      </trkpt>
      <trkpt lat="44.63899" lon="5.76196">
        <ele>1233.2</ele>
        <time>2023-05-18T08:41:58Z</time>
      </trkpt>
      <trkpt lat="44.63898" lon="5.76198">
        <ele>1233.2</ele>
        <time>2023-05-18T08:41:59Z</time>
      </trkpt>
      <trkpt lat="44.63897" lon="5.76199">
        <ele>1233.4</ele>
        <time>2023-05-18T08:42:00Z</time>
      </trkpt>
      <trkpt lat="44.63896" lon="5.76201">
        <ele>1233.4</ele>
        <time>2023-05-18T08:42:01Z</time>
      </trkpt>
      <trkpt lat="44.63894" lon="5.76205">
        <ele>1233.6</ele>
        <time>2023-05-18T08:42:02Z</time>
      </trkpt>
      <trkpt lat="44.63893" lon="5.76207">
        <ele>1233.6</ele>
        <time>2023-05-18T08:42:03Z</time>
      </trkpt>
      <trkpt lat="44.63893" lon="5.76209">
        <ele>1233.8</ele>
        <time>2023-05-18T08:42:04Z</time>
      </trkpt>
      <trkpt lat="44.63893" lon="5.76212">
        <ele>1234</ele>
        <time>2023-05-18T08:42:05Z</time>
      </trkpt>
      <trkpt lat="44.63892" lon="5.76213">
        <ele>1234.2</ele>
        <time>2023-05-18T08:42:06Z</time>
      </trkpt>
      <trkpt lat="44.6389" lon="5.76216">
        <ele>1234.2</ele>
        <time>2023-05-18T08:42:07Z</time>
      </trkpt>
      <trkpt lat="44.63888" lon="5.76218">
        <ele>1234.4</ele>
        <time>2023-05-18T08:42:08Z</time>
      </trkpt>
      <trkpt lat="44.63886" lon="5.7622">
        <ele>1234.4</ele>
        <time>2023-05-18T08:42:09Z</time>
      </trkpt>
      <trkpt lat="44.63884" lon="5.7622">
        <ele>1234.6</ele>
        <time>2023-05-18T08:42:10Z</time>
      </trkpt>
      <trkpt lat="44.63881" lon="5.76223">
        <ele>1234.6</ele>
        <time>2023-05-18T08:42:11Z</time>
      </trkpt>
      <trkpt lat="44.6388" lon="5.76224">
        <ele>1234.6</ele>
        <time>2023-05-18T08:42:12Z</time>
      </trkpt>
      <trkpt lat="44.63878" lon="5.76227">
        <ele>1234.8</ele>
        <time>2023-05-18T08:42:13Z</time>
      </trkpt>
      <trkpt lat="44.63876" lon="5.7623">
        <ele>1234.8</ele>
        <time>2023-05-18T08:42:14Z</time>
      </trkpt>
      <trkpt lat="44.63875" lon="5.76233">
        <ele>1235</ele>
        <time>2023-05-18T08:42:15Z</time>
      </trkpt>
      <trkpt lat="44.63872" lon="5.76236">
        <ele>1235</ele>
        <time>2023-05-18T08:42:16Z</time>
      </trkpt>
      <trkpt lat="44.6387" lon="5.76237">
        <ele>1235.2</ele>
        <time>2023-05-18T08:42:17Z</time>
      </trkpt>
      <trkpt lat="44.63868" lon="5.7624">
        <ele>1235.2</ele>
        <time>2023-05-18T08:42:18Z</time>
      </trkpt>
      <trkpt lat="44.63868" lon="5.76241">
        <ele>1235.2</ele>
        <time>2023-05-18T08:42:19Z</time>
      </trkpt>
      <trkpt lat="44.63866" lon="5.76244">
        <ele>1235.4</ele>
        <time>2023-05-18T08:42:20Z</time>
      </trkpt>
      <trkpt lat="44.63864" lon="5.76246">
        <ele>1235.4</ele>
        <time>2023-05-18T08:42:21Z</time>
      </trkpt>
      <trkpt lat="44.63863" lon="5.76249">
        <ele>1235.6</ele>
        <time>2023-05-18T08:42:22Z</time>
      </trkpt>
      <trkpt lat="44.63859" lon="5.76252">
        <ele>1235.6</ele>
        <time>2023-05-18T08:42:23Z</time>
      </trkpt>
      <trkpt lat="44.63857" lon="5.76254">
        <ele>1235.6</ele>
        <time>2023-05-18T08:42:24Z</time>
      </trkpt>
      <trkpt lat="44.63856" lon="5.76257">
        <ele>1235.8</ele>
        <time>2023-05-18T08:42:25Z</time>
      </trkpt>
      <trkpt lat="44.63855" lon="5.76259">
        <ele>1235.8</ele>
        <time>2023-05-18T08:42:26Z</time>
      </trkpt>
      <trkpt lat="44.63855" lon="5.76261">
        <ele>1235.8</ele>
        <time>2023-05-18T08:42:27Z</time>
      </trkpt>
      <trkpt lat="44.63852" lon="5.76262">
        <ele>1235.8</ele>
        <time>2023-05-18T08:42:28Z</time>
      </trkpt>
      <trkpt lat="44.63848" lon="5.76265">
        <ele>1236</ele>
        <time>2023-05-18T08:42:29Z</time>
      </trkpt>
      <trkpt lat="44.63844" lon="5.76267">
        <ele>1235.8</ele>
        <time>2023-05-18T08:42:30Z</time>
      </trkpt>
      <trkpt lat="44.63839" lon="5.76269">
        <ele>1235.8</ele>
        <time>2023-05-18T08:42:31Z</time>
      </trkpt>
      <trkpt lat="44.63837" lon="5.7627">
        <ele>1235.8</ele>
        <time>2023-05-18T08:42:32Z</time>
      </trkpt>
      <trkpt lat="44.63835" lon="5.76271">
        <ele>1235.8</ele>
        <time>2023-05-18T08:42:33Z</time>
      </trkpt>
      <trkpt lat="44.63832" lon="5.76272">
        <ele>1235.8</ele>
        <time>2023-05-18T08:42:34Z</time>
      </trkpt>
      <trkpt lat="44.6383" lon="5.76272">
        <ele>1235.6</ele>
        <time>2023-05-18T08:42:35Z</time>
      </trkpt>
      <trkpt lat="44.63828" lon="5.76273">
        <ele>1235.6</ele>
        <time>2023-05-18T08:42:36Z</time>
      </trkpt>
      <trkpt lat="44.63826" lon="5.76275">
        <ele>1235.6</ele>
        <time>2023-05-18T08:42:37Z</time>
      </trkpt>
      <trkpt lat="44.63824" lon="5.76277">
        <ele>1235.6</ele>
        <time>2023-05-18T08:42:38Z</time>
      </trkpt>
      <trkpt lat="44.63823" lon="5.76278">
        <ele>1235.6</ele>
        <time>2023-05-18T08:42:40Z</time>
      </trkpt>
      <trkpt lat="44.63821" lon="5.76281">
        <ele>1235.4</ele>
        <time>2023-05-18T08:42:41Z</time>
      </trkpt>
      <trkpt lat="44.63819" lon="5.76283">
        <ele>1235.4</ele>
        <time>2023-05-18T08:42:42Z</time>
      </trkpt>
      <trkpt lat="44.63816" lon="5.76291">
        <ele>1235.4</ele>
        <time>2023-05-18T08:42:45Z</time>
      </trkpt>
      <trkpt lat="44.63815" lon="5.76294">
        <ele>1235.4</ele>
        <time>2023-05-18T08:42:46Z</time>
      </trkpt>
      <trkpt lat="44.63814" lon="5.76297">
        <ele>1235.4</ele>
        <time>2023-05-18T08:42:47Z</time>
      </trkpt>
      <trkpt lat="44.63813" lon="5.76301">
        <ele>1235.4</ele>
        <time>2023-05-18T08:42:48Z</time>
      </trkpt>
      <trkpt lat="44.63812" lon="5.76304">
        <ele>1235.4</ele>
        <time>2023-05-18T08:42:49Z</time>
      </trkpt>
      <trkpt lat="44.63811" lon="5.76307">
        <ele>1235.6</ele>
        <time>2023-05-18T08:42:50Z</time>
      </trkpt>
      <trkpt lat="44.63808" lon="5.76314">
        <ele>1235.8</ele>
        <time>2023-05-18T08:42:52Z</time>
      </trkpt>
      <trkpt lat="44.63804" lon="5.76319">
        <ele>1236</ele>
        <time>2023-05-18T08:42:54Z</time>
      </trkpt>
      <trkpt lat="44.63803" lon="5.76321">
        <ele>1236</ele>
        <time>2023-05-18T08:42:55Z</time>
      </trkpt>
      <trkpt lat="44.63803" lon="5.76324">
        <ele>1236.2</ele>
        <time>2023-05-18T08:42:56Z</time>
      </trkpt>
      <trkpt lat="44.63803" lon="5.76327">
        <ele>1236.2</ele>
        <time>2023-05-18T08:42:57Z</time>
      </trkpt>
      <trkpt lat="44.63802" lon="5.76331">
        <ele>1236.4</ele>
        <time>2023-05-18T08:42:58Z</time>
      </trkpt>
      <trkpt lat="44.63801" lon="5.76335">
        <ele>1236.4</ele>
        <time>2023-05-18T08:42:59Z</time>
      </trkpt>
      <trkpt lat="44.638" lon="5.76338">
        <ele>1236.8</ele>
        <time>2023-05-18T08:43:00Z</time>
      </trkpt>
      <trkpt lat="44.638" lon="5.76342">
        <ele>1236.8</ele>
        <time>2023-05-18T08:43:01Z</time>
      </trkpt>
      <trkpt lat="44.63799" lon="5.76345">
        <ele>1236.8</ele>
        <time>2023-05-18T08:43:02Z</time>
      </trkpt>
      <trkpt lat="44.63797" lon="5.76355">
        <ele>1237</ele>
        <time>2023-05-18T08:43:04Z</time>
      </trkpt>
      <trkpt lat="44.63796" lon="5.76357">
        <ele>1237</ele>
        <time>2023-05-18T08:43:05Z</time>
      </trkpt>
      <trkpt lat="44.63794" lon="5.76358">
        <ele>1237</ele>
        <time>2023-05-18T08:43:06Z</time>
      </trkpt>
      <trkpt lat="44.63794" lon="5.76361">
        <ele>1237</ele>
        <time>2023-05-18T08:43:07Z</time>
      </trkpt>
      <trkpt lat="44.63791" lon="5.76365">
        <ele>1237.2</ele>
        <time>2023-05-18T08:43:08Z</time>
      </trkpt>
      <trkpt lat="44.63789" lon="5.76368">
        <ele>1237.4</ele>
        <time>2023-05-18T08:43:09Z</time>
      </trkpt>
      <trkpt lat="44.63788" lon="5.76371">
        <ele>1237.4</ele>
        <time>2023-05-18T08:43:10Z</time>
      </trkpt>
      <trkpt lat="44.63786" lon="5.76375">
        <ele>1237.6</ele>
        <time>2023-05-18T08:43:11Z</time>
      </trkpt>
      <trkpt lat="44.63785" lon="5.76377">
        <ele>1237.6</ele>
        <time>2023-05-18T08:43:12Z</time>
      </trkpt>
      <trkpt lat="44.63785" lon="5.76377">
        <ele>1237.8</ele>
        <time>2023-05-18T08:43:13Z</time>
      </trkpt>
      <trkpt lat="44.63785" lon="5.76377">
        <ele>1238</ele>
        <time>2023-05-18T08:43:14Z</time>
      </trkpt>
      <trkpt lat="44.63785" lon="5.76379">
        <ele>1238.2</ele>
        <time>2023-05-18T08:43:15Z</time>
      </trkpt>
      <trkpt lat="44.63786" lon="5.7638">
        <ele>1238.4</ele>
        <time>2023-05-18T08:43:16Z</time>
      </trkpt>
      <trkpt lat="44.63786" lon="5.76381">
        <ele>1238.4</ele>
        <time>2023-05-18T08:43:17Z</time>
      </trkpt>
      <trkpt lat="44.63786" lon="5.76384">
        <ele>1238.4</ele>
        <time>2023-05-18T08:43:18Z</time>
      </trkpt>
      <trkpt lat="44.63786" lon="5.76386">
        <ele>1238.4</ele>
        <time>2023-05-18T08:43:19Z</time>
      </trkpt>
      <trkpt lat="44.63787" lon="5.76388">
        <ele>1238.6</ele>
        <time>2023-05-18T08:43:20Z</time>
      </trkpt>
      <trkpt lat="44.63786" lon="5.76392">
        <ele>1238.8</ele>
        <time>2023-05-18T08:43:22Z</time>
      </trkpt>
      <trkpt lat="44.63786" lon="5.76393">
        <ele>1239</ele>
        <time>2023-05-18T08:43:23Z</time>
      </trkpt>
      <trkpt lat="44.63787" lon="5.76395">
        <ele>1239.2</ele>
        <time>2023-05-18T08:43:24Z</time>
      </trkpt>
      <trkpt lat="44.63788" lon="5.76398">
        <ele>1239.2</ele>
        <time>2023-05-18T08:43:25Z</time>
      </trkpt>
      <trkpt lat="44.6379" lon="5.76402">
        <ele>1239.4</ele>
        <time>2023-05-18T08:43:26Z</time>
      </trkpt>
      <trkpt lat="44.6379" lon="5.76404">
        <ele>1239.4</ele>
        <time>2023-05-18T08:43:27Z</time>
      </trkpt>
      <trkpt lat="44.63791" lon="5.76407">
        <ele>1239.6</ele>
        <time>2023-05-18T08:43:28Z</time>
      </trkpt>
      <trkpt lat="44.63791" lon="5.76411">
        <ele>1239.8</ele>
        <time>2023-05-18T08:43:29Z</time>
      </trkpt>
      <trkpt lat="44.63792" lon="5.76415">
        <ele>1239.8</ele>
        <time>2023-05-18T08:43:30Z</time>
      </trkpt>
      <trkpt lat="44.63792" lon="5.76419">
        <ele>1239.8</ele>
        <time>2023-05-18T08:43:31Z</time>
      </trkpt>
      <trkpt lat="44.63793" lon="5.76421">
        <ele>1240</ele>
        <time>2023-05-18T08:43:32Z</time>
      </trkpt>
      <trkpt lat="44.63794" lon="5.76424">
        <ele>1240</ele>
        <time>2023-05-18T08:43:33Z</time>
      </trkpt>
      <trkpt lat="44.63795" lon="5.76426">
        <ele>1240.2</ele>
        <time>2023-05-18T08:43:34Z</time>
      </trkpt>
      <trkpt lat="44.63795" lon="5.7643">
        <ele>1240.4</ele>
        <time>2023-05-18T08:43:35Z</time>
      </trkpt>
      <trkpt lat="44.63796" lon="5.76434">
        <ele>1240.6</ele>
        <time>2023-05-18T08:43:36Z</time>
      </trkpt>
      <trkpt lat="44.63797" lon="5.76437">
        <ele>1240.4</ele>
        <time>2023-05-18T08:43:37Z</time>
      </trkpt>
      <trkpt lat="44.63798" lon="5.76441">
        <ele>1240.4</ele>
        <time>2023-05-18T08:43:38Z</time>
      </trkpt>
      <trkpt lat="44.63799" lon="5.76444">
        <ele>1240.6</ele>
        <time>2023-05-18T08:43:39Z</time>
      </trkpt>
      <trkpt lat="44.638" lon="5.76447">
        <ele>1240.6</ele>
        <time>2023-05-18T08:43:40Z</time>
      </trkpt>
      <trkpt lat="44.638" lon="5.7645">
        <ele>1240.6</ele>
        <time>2023-05-18T08:43:41Z</time>
      </trkpt>
      <trkpt lat="44.63801" lon="5.76452">
        <ele>1240.6</ele>
        <time>2023-05-18T08:43:42Z</time>
      </trkpt>
      <trkpt lat="44.63801" lon="5.76454">
        <ele>1241</ele>
        <time>2023-05-18T08:43:43Z</time>
      </trkpt>
      <trkpt lat="44.63802" lon="5.76458">
        <ele>1241</ele>
        <time>2023-05-18T08:43:44Z</time>
      </trkpt>
      <trkpt lat="44.63802" lon="5.76462">
        <ele>1241.2</ele>
        <time>2023-05-18T08:43:45Z</time>
      </trkpt>
      <trkpt lat="44.63802" lon="5.76464">
        <ele>1241.2</ele>
        <time>2023-05-18T08:43:46Z</time>
      </trkpt>
      <trkpt lat="44.63802" lon="5.76466">
        <ele>1241.4</ele>
        <time>2023-05-18T08:43:47Z</time>
      </trkpt>
      <trkpt lat="44.63803" lon="5.76468">
        <ele>1241.6</ele>
        <time>2023-05-18T08:43:48Z</time>
      </trkpt>
      <trkpt lat="44.63804" lon="5.76471">
        <ele>1241.6</ele>
        <time>2023-05-18T08:43:49Z</time>
      </trkpt>
      <trkpt lat="44.63806" lon="5.76473">
        <ele>1241.8</ele>
        <time>2023-05-18T08:43:50Z</time>
      </trkpt>
      <trkpt lat="44.63807" lon="5.76475">
        <ele>1241.8</ele>
        <time>2023-05-18T08:43:51Z</time>
      </trkpt>
      <trkpt lat="44.63807" lon="5.76478">
        <ele>1241.8</ele>
        <time>2023-05-18T08:43:52Z</time>
      </trkpt>
      <trkpt lat="44.63808" lon="5.7648">
        <ele>1242</ele>
        <time>2023-05-18T08:43:53Z</time>
      </trkpt>
      <trkpt lat="44.63807" lon="5.76481">
        <ele>1242.2</ele>
        <time>2023-05-18T08:43:54Z</time>
      </trkpt>
      <trkpt lat="44.63807" lon="5.76484">
        <ele>1242.2</ele>
        <time>2023-05-18T08:43:55Z</time>
      </trkpt>
      <trkpt lat="44.63807" lon="5.76486">
        <ele>1242.4</ele>
        <time>2023-05-18T08:43:56Z</time>
      </trkpt>
      <trkpt lat="44.63807" lon="5.76487">
        <ele>1242.4</ele>
        <time>2023-05-18T08:43:57Z</time>
      </trkpt>
      <trkpt lat="44.63807" lon="5.7649">
        <ele>1242.4</ele>
        <time>2023-05-18T08:43:58Z</time>
      </trkpt>
      <trkpt lat="44.63807" lon="5.76493">
        <ele>1242.6</ele>
        <time>2023-05-18T08:43:59Z</time>
      </trkpt>
      <trkpt lat="44.63807" lon="5.76494">
        <ele>1242.6</ele>
        <time>2023-05-18T08:44:00Z</time>
      </trkpt>
      <trkpt lat="44.63808" lon="5.76495">
        <ele>1242.8</ele>
        <time>2023-05-18T08:44:01Z</time>
      </trkpt>
      <trkpt lat="44.63808" lon="5.76498">
        <ele>1242.8</ele>
        <time>2023-05-18T08:44:02Z</time>
      </trkpt>
      <trkpt lat="44.63808" lon="5.76501">
        <ele>1243</ele>
        <time>2023-05-18T08:44:03Z</time>
      </trkpt>
      <trkpt lat="44.63809" lon="5.76503">
        <ele>1243</ele>
        <time>2023-05-18T08:44:04Z</time>
      </trkpt>
      <trkpt lat="44.63809" lon="5.76505">
        <ele>1243.2</ele>
        <time>2023-05-18T08:44:05Z</time>
      </trkpt>
      <trkpt lat="44.6381" lon="5.76508">
        <ele>1243.4</ele>
        <time>2023-05-18T08:44:06Z</time>
      </trkpt>
      <trkpt lat="44.63811" lon="5.7651">
        <ele>1243.6</ele>
        <time>2023-05-18T08:44:07Z</time>
      </trkpt>
      <trkpt lat="44.63811" lon="5.76512">
        <ele>1243.6</ele>
        <time>2023-05-18T08:44:08Z</time>
      </trkpt>
      <trkpt lat="44.63811" lon="5.76515">
        <ele>1243.8</ele>
        <time>2023-05-18T08:44:09Z</time>
      </trkpt>
      <trkpt lat="44.63811" lon="5.76516">
        <ele>1243.8</ele>
        <time>2023-05-18T08:44:10Z</time>
      </trkpt>
      <trkpt lat="44.63811" lon="5.76517">
        <ele>1244</ele>
        <time>2023-05-18T08:44:11Z</time>
      </trkpt>
      <trkpt lat="44.63812" lon="5.76519">
        <ele>1244</ele>
        <time>2023-05-18T08:44:12Z</time>
      </trkpt>
      <trkpt lat="44.63812" lon="5.76519">
        <ele>1244.2</ele>
        <time>2023-05-18T08:44:13Z</time>
      </trkpt>
      <trkpt lat="44.63812" lon="5.76521">
        <ele>1244.2</ele>
        <time>2023-05-18T08:44:14Z</time>
      </trkpt>
      <trkpt lat="44.63813" lon="5.76524">
        <ele>1244.2</ele>
        <time>2023-05-18T08:44:15Z</time>
      </trkpt>
      <trkpt lat="44.63813" lon="5.76526">
        <ele>1244.4</ele>
        <time>2023-05-18T08:44:16Z</time>
      </trkpt>
      <trkpt lat="44.63814" lon="5.76527">
        <ele>1244.6</ele>
        <time>2023-05-18T08:44:17Z</time>
      </trkpt>
      <trkpt lat="44.63814" lon="5.76528">
        <ele>1244.6</ele>
        <time>2023-05-18T08:44:18Z</time>
      </trkpt>
      <trkpt lat="44.63815" lon="5.7653">
        <ele>1244.8</ele>
        <time>2023-05-18T08:44:19Z</time>
      </trkpt>
      <trkpt lat="44.63815" lon="5.76532">
        <ele>1245</ele>
        <time>2023-05-18T08:44:20Z</time>
      </trkpt>
      <trkpt lat="44.63815" lon="5.76533">
        <ele>1245.2</ele>
        <time>2023-05-18T08:44:21Z</time>
      </trkpt>
      <trkpt lat="44.63815" lon="5.76534">
        <ele>1245.2</ele>
        <time>2023-05-18T08:44:22Z</time>
      </trkpt>
      <trkpt lat="44.63815" lon="5.76536">
        <ele>1245.4</ele>
        <time>2023-05-18T08:44:23Z</time>
      </trkpt>
      <trkpt lat="44.63816" lon="5.76538">
        <ele>1245.6</ele>
        <time>2023-05-18T08:44:24Z</time>
      </trkpt>
      <trkpt lat="44.63817" lon="5.76541">
        <ele>1245.8</ele>
        <time>2023-05-18T08:44:25Z</time>
      </trkpt>
      <trkpt lat="44.63817" lon="5.76543">
        <ele>1246</ele>
        <time>2023-05-18T08:44:26Z</time>
      </trkpt>
      <trkpt lat="44.63818" lon="5.76546">
        <ele>1246</ele>
        <time>2023-05-18T08:44:27Z</time>
      </trkpt>
      <trkpt lat="44.63818" lon="5.76548">
        <ele>1246.2</ele>
        <time>2023-05-18T08:44:28Z</time>
      </trkpt>
      <trkpt lat="44.63819" lon="5.76551">
        <ele>1246.4</ele>
        <time>2023-05-18T08:44:29Z</time>
      </trkpt>
      <trkpt lat="44.6382" lon="5.76554">
        <ele>1246.6</ele>
        <time>2023-05-18T08:44:30Z</time>
      </trkpt>
      <trkpt lat="44.6382" lon="5.76554">
        <ele>1246.6</ele>
        <time>2023-05-18T08:44:31Z</time>
      </trkpt>
      <trkpt lat="44.63821" lon="5.76556">
        <ele>1246.8</ele>
        <time>2023-05-18T08:44:32Z</time>
      </trkpt>
      <trkpt lat="44.63821" lon="5.76557">
        <ele>1247</ele>
        <time>2023-05-18T08:44:33Z</time>
      </trkpt>
      <trkpt lat="44.63821" lon="5.76559">
        <ele>1247</ele>
        <time>2023-05-18T08:44:34Z</time>
      </trkpt>
      <trkpt lat="44.63822" lon="5.76561">
        <ele>1247.2</ele>
        <time>2023-05-18T08:44:35Z</time>
      </trkpt>
      <trkpt lat="44.63822" lon="5.76563">
        <ele>1247.4</ele>
        <time>2023-05-18T08:44:36Z</time>
      </trkpt>
      <trkpt lat="44.63823" lon="5.76565">
        <ele>1247.6</ele>
        <time>2023-05-18T08:44:37Z</time>
      </trkpt>
      <trkpt lat="44.63825" lon="5.76567">
        <ele>1247.6</ele>
        <time>2023-05-18T08:44:38Z</time>
      </trkpt>
      <trkpt lat="44.63826" lon="5.7657">
        <ele>1248</ele>
        <time>2023-05-18T08:44:39Z</time>
      </trkpt>
      <trkpt lat="44.63826" lon="5.76572">
        <ele>1248</ele>
        <time>2023-05-18T08:44:40Z</time>
      </trkpt>
      <trkpt lat="44.63827" lon="5.76574">
        <ele>1248.2</ele>
        <time>2023-05-18T08:44:41Z</time>
      </trkpt>
      <trkpt lat="44.63828" lon="5.76577">
        <ele>1248.4</ele>
        <time>2023-05-18T08:44:42Z</time>
      </trkpt>
      <trkpt lat="44.63828" lon="5.7658">
        <ele>1248.6</ele>
        <time>2023-05-18T08:44:43Z</time>
      </trkpt>
      <trkpt lat="44.63829" lon="5.76582">
        <ele>1248.6</ele>
        <time>2023-05-18T08:44:44Z</time>
      </trkpt>
      <trkpt lat="44.63829" lon="5.76586">
        <ele>1248.6</ele>
        <time>2023-05-18T08:44:45Z</time>
      </trkpt>
      <trkpt lat="44.6383" lon="5.76589">
        <ele>1248.8</ele>
        <time>2023-05-18T08:44:46Z</time>
      </trkpt>
      <trkpt lat="44.6383" lon="5.7659">
        <ele>1248.8</ele>
        <time>2023-05-18T08:44:47Z</time>
      </trkpt>
      <trkpt lat="44.63831" lon="5.76592">
        <ele>1249</ele>
        <time>2023-05-18T08:44:48Z</time>
      </trkpt>
      <trkpt lat="44.63832" lon="5.76593">
        <ele>1249</ele>
        <time>2023-05-18T08:44:49Z</time>
      </trkpt>
      <trkpt lat="44.63832" lon="5.76594">
        <ele>1249.2</ele>
        <time>2023-05-18T08:44:50Z</time>
      </trkpt>
      <trkpt lat="44.63832" lon="5.76595">
        <ele>1249.4</ele>
        <time>2023-05-18T08:44:51Z</time>
      </trkpt>
      <trkpt lat="44.63832" lon="5.76596">
        <ele>1249.4</ele>
        <time>2023-05-18T08:44:52Z</time>
      </trkpt>
      <trkpt lat="44.63832" lon="5.76596">
        <ele>1249.6</ele>
        <time>2023-05-18T08:44:53Z</time>
      </trkpt>
      <trkpt lat="44.63833" lon="5.76598">
        <ele>1249.8</ele>
        <time>2023-05-18T08:44:54Z</time>
      </trkpt>
      <trkpt lat="44.63834" lon="5.76599">
        <ele>1249.8</ele>
        <time>2023-05-18T08:44:55Z</time>
      </trkpt>
      <trkpt lat="44.63834" lon="5.76602">
        <ele>1249.8</ele>
        <time>2023-05-18T08:44:56Z</time>
      </trkpt>
      <trkpt lat="44.63834" lon="5.76606">
        <ele>1250</ele>
        <time>2023-05-18T08:44:57Z</time>
      </trkpt>
      <trkpt lat="44.63834" lon="5.76608">
        <ele>1250.2</ele>
        <time>2023-05-18T08:44:58Z</time>
      </trkpt>
      <trkpt lat="44.63834" lon="5.76611">
        <ele>1250.4</ele>
        <time>2023-05-18T08:44:59Z</time>
      </trkpt>
      <trkpt lat="44.63835" lon="5.76612">
        <ele>1250.6</ele>
        <time>2023-05-18T08:45:00Z</time>
      </trkpt>
      <trkpt lat="44.63835" lon="5.76614">
        <ele>1250.8</ele>
        <time>2023-05-18T08:45:01Z</time>
      </trkpt>
      <trkpt lat="44.63836" lon="5.76616">
        <ele>1250.8</ele>
        <time>2023-05-18T08:45:02Z</time>
      </trkpt>
      <trkpt lat="44.63837" lon="5.76619">
        <ele>1251</ele>
        <time>2023-05-18T08:45:03Z</time>
      </trkpt>
      <trkpt lat="44.63837" lon="5.76622">
        <ele>1251.2</ele>
        <time>2023-05-18T08:45:04Z</time>
      </trkpt>
      <trkpt lat="44.63839" lon="5.76624">
        <ele>1251.2</ele>
        <time>2023-05-18T08:45:05Z</time>
      </trkpt>
      <trkpt lat="44.63839" lon="5.76627">
        <ele>1251.4</ele>
        <time>2023-05-18T08:45:06Z</time>
      </trkpt>
      <trkpt lat="44.6384" lon="5.7663">
        <ele>1251.4</ele>
        <time>2023-05-18T08:45:07Z</time>
      </trkpt>
      <trkpt lat="44.63841" lon="5.76633">
        <ele>1251.6</ele>
        <time>2023-05-18T08:45:08Z</time>
      </trkpt>
      <trkpt lat="44.63842" lon="5.76637">
        <ele>1251.8</ele>
        <time>2023-05-18T08:45:09Z</time>
      </trkpt>
      <trkpt lat="44.63842" lon="5.76642">
        <ele>1251.8</ele>
        <time>2023-05-18T08:45:10Z</time>
      </trkpt>
      <trkpt lat="44.63841" lon="5.76646">
        <ele>1252</ele>
        <time>2023-05-18T08:45:11Z</time>
      </trkpt>
      <trkpt lat="44.6384" lon="5.76649">
        <ele>1252</ele>
        <time>2023-05-18T08:45:12Z</time>
      </trkpt>
      <trkpt lat="44.6384" lon="5.7665">
        <ele>1252.2</ele>
        <time>2023-05-18T08:45:13Z</time>
      </trkpt>
      <trkpt lat="44.63841" lon="5.76652">
        <ele>1252.2</ele>
        <time>2023-05-18T08:45:14Z</time>
      </trkpt>
      <trkpt lat="44.63842" lon="5.76654">
        <ele>1252.2</ele>
        <time>2023-05-18T08:45:15Z</time>
      </trkpt>
      <trkpt lat="44.63842" lon="5.76657">
        <ele>1252.4</ele>
        <time>2023-05-18T08:45:16Z</time>
      </trkpt>
      <trkpt lat="44.63844" lon="5.7666">
        <ele>1252.4</ele>
        <time>2023-05-18T08:45:17Z</time>
      </trkpt>
      <trkpt lat="44.63845" lon="5.76664">
        <ele>1252.6</ele>
        <time>2023-05-18T08:45:18Z</time>
      </trkpt>
      <trkpt lat="44.63846" lon="5.76665">
        <ele>1252.4</ele>
        <time>2023-05-18T08:45:19Z</time>
      </trkpt>
      <trkpt lat="44.63846" lon="5.76667">
        <ele>1252.4</ele>
        <time>2023-05-18T08:45:20Z</time>
      </trkpt>
      <trkpt lat="44.63846" lon="5.76668">
        <ele>1252.4</ele>
        <time>2023-05-18T08:45:21Z</time>
      </trkpt>
      <trkpt lat="44.63847" lon="5.76669">
        <ele>1252.6</ele>
        <time>2023-05-18T08:45:22Z</time>
      </trkpt>
      <trkpt lat="44.63847" lon="5.76671">
        <ele>1252.8</ele>
        <time>2023-05-18T08:45:23Z</time>
      </trkpt>
      <trkpt lat="44.63848" lon="5.76672">
        <ele>1252.8</ele>
        <time>2023-05-18T08:45:24Z</time>
      </trkpt>
      <trkpt lat="44.63848" lon="5.76673">
        <ele>1253</ele>
        <time>2023-05-18T08:45:25Z</time>
      </trkpt>
      <trkpt lat="44.63849" lon="5.76675">
        <ele>1253.2</ele>
        <time>2023-05-18T08:45:26Z</time>
      </trkpt>
      <trkpt lat="44.63849" lon="5.76676">
        <ele>1253.4</ele>
        <time>2023-05-18T08:45:27Z</time>
      </trkpt>
      <trkpt lat="44.6385" lon="5.76677">
        <ele>1253.4</ele>
        <time>2023-05-18T08:45:28Z</time>
      </trkpt>
      <trkpt lat="44.6385" lon="5.76679">
        <ele>1253.4</ele>
        <time>2023-05-18T08:45:29Z</time>
      </trkpt>
      <trkpt lat="44.63851" lon="5.7668">
        <ele>1253.6</ele>
        <time>2023-05-18T08:45:30Z</time>
      </trkpt>
      <trkpt lat="44.63851" lon="5.76682">
        <ele>1253.8</ele>
        <time>2023-05-18T08:45:31Z</time>
      </trkpt>
      <trkpt lat="44.63852" lon="5.76683">
        <ele>1253.8</ele>
        <time>2023-05-18T08:45:32Z</time>
      </trkpt>
      <trkpt lat="44.63851" lon="5.76684">
        <ele>1254</ele>
        <time>2023-05-18T08:45:33Z</time>
      </trkpt>
      <trkpt lat="44.63851" lon="5.76686">
        <ele>1254.2</ele>
        <time>2023-05-18T08:45:34Z</time>
      </trkpt>
      <trkpt lat="44.63851" lon="5.76688">
        <ele>1254.2</ele>
        <time>2023-05-18T08:45:35Z</time>
      </trkpt>
      <trkpt lat="44.63852" lon="5.76688">
        <ele>1254.4</ele>
        <time>2023-05-18T08:45:36Z</time>
      </trkpt>
      <trkpt lat="44.63852" lon="5.76689">
        <ele>1254.4</ele>
        <time>2023-05-18T08:45:37Z</time>
      </trkpt>
      <trkpt lat="44.63852" lon="5.76689">
        <ele>1254.6</ele>
        <time>2023-05-18T08:45:38Z</time>
      </trkpt>
      <trkpt lat="44.63852" lon="5.7669">
        <ele>1254.8</ele>
        <time>2023-05-18T08:45:39Z</time>
      </trkpt>
      <trkpt lat="44.63852" lon="5.76691">
        <ele>1255</ele>
        <time>2023-05-18T08:45:40Z</time>
      </trkpt>
      <trkpt lat="44.63852" lon="5.76693">
        <ele>1255</ele>
        <time>2023-05-18T08:45:41Z</time>
      </trkpt>
      <trkpt lat="44.63852" lon="5.76694">
        <ele>1255.2</ele>
        <time>2023-05-18T08:45:42Z</time>
      </trkpt>
      <trkpt lat="44.63852" lon="5.76695">
        <ele>1255.4</ele>
        <time>2023-05-18T08:45:43Z</time>
      </trkpt>
      <trkpt lat="44.63852" lon="5.76695">
        <ele>1255.6</ele>
        <time>2023-05-18T08:45:44Z</time>
      </trkpt>
      <trkpt lat="44.63852" lon="5.76696">
        <ele>1255.8</ele>
        <time>2023-05-18T08:45:45Z</time>
      </trkpt>
      <trkpt lat="44.63852" lon="5.76698">
        <ele>1256</ele>
        <time>2023-05-18T08:45:46Z</time>
      </trkpt>
      <trkpt lat="44.63851" lon="5.767">
        <ele>1256.2</ele>
        <time>2023-05-18T08:45:47Z</time>
      </trkpt>
      <trkpt lat="44.63851" lon="5.76702">
        <ele>1256.2</ele>
        <time>2023-05-18T08:45:48Z</time>
      </trkpt>
      <trkpt lat="44.63851" lon="5.76704">
        <ele>1256.4</ele>
        <time>2023-05-18T08:45:49Z</time>
      </trkpt>
      <trkpt lat="44.63852" lon="5.76707">
        <ele>1256.6</ele>
        <time>2023-05-18T08:45:50Z</time>
      </trkpt>
      <trkpt lat="44.63852" lon="5.76707">
        <ele>1256.8</ele>
        <time>2023-05-18T08:45:51Z</time>
      </trkpt>
      <trkpt lat="44.63852" lon="5.76708">
        <ele>1256.8</ele>
        <time>2023-05-18T08:45:52Z</time>
      </trkpt>
      <trkpt lat="44.63852" lon="5.76708">
        <ele>1257</ele>
        <time>2023-05-18T08:45:53Z</time>
      </trkpt>
      <trkpt lat="44.63852" lon="5.76708">
        <ele>1257</ele>
        <time>2023-05-18T08:45:54Z</time>
      </trkpt>
      <trkpt lat="44.63851" lon="5.76709">
        <ele>1257.4</ele>
        <time>2023-05-18T08:45:55Z</time>
      </trkpt>
      <trkpt lat="44.6385" lon="5.76711">
        <ele>1257.4</ele>
        <time>2023-05-18T08:45:56Z</time>
      </trkpt>
      <trkpt lat="44.63849" lon="5.76714">
        <ele>1257.6</ele>
        <time>2023-05-18T08:45:57Z</time>
      </trkpt>
      <trkpt lat="44.63849" lon="5.76714">
        <ele>1257.6</ele>
        <time>2023-05-18T08:45:58Z</time>
      </trkpt>
      <trkpt lat="44.63849" lon="5.76714">
        <ele>1257.8</ele>
        <time>2023-05-18T08:45:59Z</time>
      </trkpt>
      <trkpt lat="44.63849" lon="5.76715">
        <ele>1257.8</ele>
        <time>2023-05-18T08:46:00Z</time>
      </trkpt>
      <trkpt lat="44.63849" lon="5.76716">
        <ele>1258</ele>
        <time>2023-05-18T08:46:01Z</time>
      </trkpt>
      <trkpt lat="44.63849" lon="5.76716">
        <ele>1258.2</ele>
        <time>2023-05-18T08:46:02Z</time>
      </trkpt>
      <trkpt lat="44.63849" lon="5.76717">
        <ele>1258.4</ele>
        <time>2023-05-18T08:46:03Z</time>
      </trkpt>
      <trkpt lat="44.63848" lon="5.76718">
        <ele>1258.6</ele>
        <time>2023-05-18T08:46:04Z</time>
      </trkpt>
      <trkpt lat="44.63848" lon="5.76719">
        <ele>1258.8</ele>
        <time>2023-05-18T08:46:05Z</time>
      </trkpt>
      <trkpt lat="44.63848" lon="5.76719">
        <ele>1258.8</ele>
        <time>2023-05-18T08:46:06Z</time>
      </trkpt>
      <trkpt lat="44.63847" lon="5.76719">
        <ele>1259</ele>
        <time>2023-05-18T08:46:07Z</time>
      </trkpt>
      <trkpt lat="44.63846" lon="5.76722">
        <ele>1259</ele>
        <time>2023-05-18T08:46:08Z</time>
      </trkpt>
      <trkpt lat="44.63845" lon="5.76724">
        <ele>1259.2</ele>
        <time>2023-05-18T08:46:09Z</time>
      </trkpt>
      <trkpt lat="44.63844" lon="5.76725">
        <ele>1259.4</ele>
        <time>2023-05-18T08:46:10Z</time>
      </trkpt>
      <trkpt lat="44.63842" lon="5.76726">
        <ele>1259.4</ele>
        <time>2023-05-18T08:46:11Z</time>
      </trkpt>
      <trkpt lat="44.63841" lon="5.76727">
        <ele>1259.6</ele>
        <time>2023-05-18T08:46:12Z</time>
      </trkpt>
      <trkpt lat="44.6384" lon="5.7673">
        <ele>1259.8</ele>
        <time>2023-05-18T08:46:13Z</time>
      </trkpt>
      <trkpt lat="44.63839" lon="5.76733">
        <ele>1260</ele>
        <time>2023-05-18T08:46:14Z</time>
      </trkpt>
      <trkpt lat="44.63838" lon="5.76735">
        <ele>1260</ele>
        <time>2023-05-18T08:46:15Z</time>
      </trkpt>
      <trkpt lat="44.63839" lon="5.76739">
        <ele>1260.2</ele>
        <time>2023-05-18T08:46:16Z</time>
      </trkpt>
      <trkpt lat="44.63837" lon="5.76743">
        <ele>1260.2</ele>
        <time>2023-05-18T08:46:17Z</time>
      </trkpt>
      <trkpt lat="44.63837" lon="5.76744">
        <ele>1260.4</ele>
        <time>2023-05-18T08:46:18Z</time>
      </trkpt>
      <trkpt lat="44.63836" lon="5.76747">
        <ele>1260.6</ele>
        <time>2023-05-18T08:46:19Z</time>
      </trkpt>
      <trkpt lat="44.63834" lon="5.76751">
        <ele>1260.8</ele>
        <time>2023-05-18T08:46:20Z</time>
      </trkpt>
      <trkpt lat="44.63833" lon="5.76754">
        <ele>1261</ele>
        <time>2023-05-18T08:46:21Z</time>
      </trkpt>
      <trkpt lat="44.63832" lon="5.76757">
        <ele>1261.2</ele>
        <time>2023-05-18T08:46:22Z</time>
      </trkpt>
      <trkpt lat="44.6383" lon="5.76759">
        <ele>1261.4</ele>
        <time>2023-05-18T08:46:23Z</time>
      </trkpt>
      <trkpt lat="44.6383" lon="5.76761">
        <ele>1261.4</ele>
        <time>2023-05-18T08:46:24Z</time>
      </trkpt>
      <trkpt lat="44.63829" lon="5.76764">
        <ele>1261.6</ele>
        <time>2023-05-18T08:46:25Z</time>
      </trkpt>
      <trkpt lat="44.63828" lon="5.76768">
        <ele>1261.6</ele>
        <time>2023-05-18T08:46:26Z</time>
      </trkpt>
      <trkpt lat="44.63827" lon="5.76771">
        <ele>1261.8</ele>
        <time>2023-05-18T08:46:27Z</time>
      </trkpt>
      <trkpt lat="44.63825" lon="5.76773">
        <ele>1262</ele>
        <time>2023-05-18T08:46:28Z</time>
      </trkpt>
      <trkpt lat="44.63824" lon="5.76776">
        <ele>1262</ele>
        <time>2023-05-18T08:46:29Z</time>
      </trkpt>
      <trkpt lat="44.63824" lon="5.76777">
        <ele>1262.2</ele>
        <time>2023-05-18T08:46:30Z</time>
      </trkpt>
      <trkpt lat="44.63824" lon="5.7678">
        <ele>1262.4</ele>
        <time>2023-05-18T08:46:31Z</time>
      </trkpt>
      <trkpt lat="44.63825" lon="5.76781">
        <ele>1262.6</ele>
        <time>2023-05-18T08:46:32Z</time>
      </trkpt>
      <trkpt lat="44.63825" lon="5.76782">
        <ele>1262.8</ele>
        <time>2023-05-18T08:46:33Z</time>
      </trkpt>
      <trkpt lat="44.63825" lon="5.76783">
        <ele>1263</ele>
        <time>2023-05-18T08:46:34Z</time>
      </trkpt>
      <trkpt lat="44.63825" lon="5.76785">
        <ele>1263</ele>
        <time>2023-05-18T08:46:35Z</time>
      </trkpt>
      <trkpt lat="44.63825" lon="5.76787">
        <ele>1263.2</ele>
        <time>2023-05-18T08:46:36Z</time>
      </trkpt>
      <trkpt lat="44.63825" lon="5.76789">
        <ele>1263.4</ele>
        <time>2023-05-18T08:46:37Z</time>
      </trkpt>
      <trkpt lat="44.63825" lon="5.76791">
        <ele>1263.4</ele>
        <time>2023-05-18T08:46:38Z</time>
      </trkpt>
      <trkpt lat="44.63826" lon="5.76793">
        <ele>1263.6</ele>
        <time>2023-05-18T08:46:39Z</time>
      </trkpt>
      <trkpt lat="44.63827" lon="5.76795">
        <ele>1263.6</ele>
        <time>2023-05-18T08:46:40Z</time>
      </trkpt>
      <trkpt lat="44.63828" lon="5.76796">
        <ele>1263.8</ele>
        <time>2023-05-18T08:46:41Z</time>
      </trkpt>
      <trkpt lat="44.63829" lon="5.76797">
        <ele>1263.8</ele>
        <time>2023-05-18T08:46:42Z</time>
      </trkpt>
      <trkpt lat="44.63829" lon="5.76799">
        <ele>1264</ele>
        <time>2023-05-18T08:46:43Z</time>
      </trkpt>
      <trkpt lat="44.6383" lon="5.76801">
        <ele>1264.2</ele>
        <time>2023-05-18T08:46:44Z</time>
      </trkpt>
      <trkpt lat="44.6383" lon="5.76802">
        <ele>1264.2</ele>
        <time>2023-05-18T08:46:45Z</time>
      </trkpt>
      <trkpt lat="44.6383" lon="5.76803">
        <ele>1264.2</ele>
        <time>2023-05-18T08:46:46Z</time>
      </trkpt>
      <trkpt lat="44.6383" lon="5.76803">
        <ele>1264.4</ele>
        <time>2023-05-18T08:46:47Z</time>
      </trkpt>
      <trkpt lat="44.6383" lon="5.76803">
        <ele>1264.6</ele>
        <time>2023-05-18T08:46:48Z</time>
      </trkpt>
      <trkpt lat="44.6383" lon="5.76804">
        <ele>1264.8</ele>
        <time>2023-05-18T08:46:49Z</time>
      </trkpt>
      <trkpt lat="44.6383" lon="5.76805">
        <ele>1265</ele>
        <time>2023-05-18T08:46:50Z</time>
      </trkpt>
      <trkpt lat="44.63831" lon="5.76806">
        <ele>1265</ele>
        <time>2023-05-18T08:46:51Z</time>
      </trkpt>
      <trkpt lat="44.63831" lon="5.76808">
        <ele>1265.2</ele>
        <time>2023-05-18T08:46:52Z</time>
      </trkpt>
      <trkpt lat="44.63832" lon="5.7681">
        <ele>1265.4</ele>
        <time>2023-05-18T08:46:53Z</time>
      </trkpt>
      <trkpt lat="44.63833" lon="5.76811">
        <ele>1265.6</ele>
        <time>2023-05-18T08:46:54Z</time>
      </trkpt>
      <trkpt lat="44.63834" lon="5.76813">
        <ele>1265.6</ele>
        <time>2023-05-18T08:46:55Z</time>
      </trkpt>
      <trkpt lat="44.63835" lon="5.76814">
        <ele>1265.8</ele>
        <time>2023-05-18T08:46:56Z</time>
      </trkpt>
      <trkpt lat="44.63835" lon="5.76816">
        <ele>1266</ele>
        <time>2023-05-18T08:46:57Z</time>
      </trkpt>
      <trkpt lat="44.63836" lon="5.76818">
        <ele>1266</ele>
        <time>2023-05-18T08:46:58Z</time>
      </trkpt>
      <trkpt lat="44.63837" lon="5.7682">
        <ele>1266.2</ele>
        <time>2023-05-18T08:46:59Z</time>
      </trkpt>
      <trkpt lat="44.63838" lon="5.76822">
        <ele>1266.2</ele>
        <time>2023-05-18T08:47:00Z</time>
      </trkpt>
      <trkpt lat="44.63838" lon="5.76825">
        <ele>1266.2</ele>
        <time>2023-05-18T08:47:01Z</time>
      </trkpt>
      <trkpt lat="44.63838" lon="5.76829">
        <ele>1266.4</ele>
        <time>2023-05-18T08:47:02Z</time>
      </trkpt>
      <trkpt lat="44.63838" lon="5.76832">
        <ele>1266.4</ele>
        <time>2023-05-18T08:47:03Z</time>
      </trkpt>
      <trkpt lat="44.63839" lon="5.76834">
        <ele>1266.6</ele>
        <time>2023-05-18T08:47:04Z</time>
      </trkpt>
      <trkpt lat="44.63839" lon="5.76837">
        <ele>1266.8</ele>
        <time>2023-05-18T08:47:05Z</time>
      </trkpt>
      <trkpt lat="44.63839" lon="5.76841">
        <ele>1266.8</ele>
        <time>2023-05-18T08:47:06Z</time>
      </trkpt>
      <trkpt lat="44.63839" lon="5.76844">
        <ele>1267</ele>
        <time>2023-05-18T08:47:07Z</time>
      </trkpt>
      <trkpt lat="44.6384" lon="5.76846">
        <ele>1267.2</ele>
        <time>2023-05-18T08:47:08Z</time>
      </trkpt>
      <trkpt lat="44.63841" lon="5.76848">
        <ele>1267.2</ele>
        <time>2023-05-18T08:47:09Z</time>
      </trkpt>
      <trkpt lat="44.63842" lon="5.76849">
        <ele>1267.4</ele>
        <time>2023-05-18T08:47:10Z</time>
      </trkpt>
      <trkpt lat="44.63843" lon="5.76851">
        <ele>1267.6</ele>
        <time>2023-05-18T08:47:11Z</time>
      </trkpt>
      <trkpt lat="44.63842" lon="5.76853">
        <ele>1267.8</ele>
        <time>2023-05-18T08:47:12Z</time>
      </trkpt>
      <trkpt lat="44.63843" lon="5.76855">
        <ele>1267.8</ele>
        <time>2023-05-18T08:47:13Z</time>
      </trkpt>
      <trkpt lat="44.63843" lon="5.76857">
        <ele>1267.8</ele>
        <time>2023-05-18T08:47:14Z</time>
      </trkpt>
      <trkpt lat="44.63844" lon="5.76859">
        <ele>1268</ele>
        <time>2023-05-18T08:47:15Z</time>
      </trkpt>
      <trkpt lat="44.63845" lon="5.76861">
        <ele>1268.2</ele>
        <time>2023-05-18T08:47:16Z</time>
      </trkpt>
      <trkpt lat="44.63846" lon="5.76862">
        <ele>1268.2</ele>
        <time>2023-05-18T08:47:17Z</time>
      </trkpt>
      <trkpt lat="44.63846" lon="5.76865">
        <ele>1268.4</ele>
        <time>2023-05-18T08:47:18Z</time>
      </trkpt>
      <trkpt lat="44.63846" lon="5.76867">
        <ele>1268.6</ele>
        <time>2023-05-18T08:47:19Z</time>
      </trkpt>
      <trkpt lat="44.63847" lon="5.76868">
        <ele>1268.6</ele>
        <time>2023-05-18T08:47:20Z</time>
      </trkpt>
      <trkpt lat="44.63847" lon="5.7687">
        <ele>1268.8</ele>
        <time>2023-05-18T08:47:21Z</time>
      </trkpt>
      <trkpt lat="44.63847" lon="5.76873">
        <ele>1268.8</ele>
        <time>2023-05-18T08:47:22Z</time>
      </trkpt>
      <trkpt lat="44.63847" lon="5.76876">
        <ele>1269</ele>
        <time>2023-05-18T08:47:23Z</time>
      </trkpt>
      <trkpt lat="44.63846" lon="5.76879">
        <ele>1269.2</ele>
        <time>2023-05-18T08:47:24Z</time>
      </trkpt>
      <trkpt lat="44.63846" lon="5.76881">
        <ele>1269.2</ele>
        <time>2023-05-18T08:47:25Z</time>
      </trkpt>
      <trkpt lat="44.63846" lon="5.76883">
        <ele>1269.2</ele>
        <time>2023-05-18T08:47:26Z</time>
      </trkpt>
      <trkpt lat="44.63846" lon="5.76885">
        <ele>1269.6</ele>
        <time>2023-05-18T08:47:27Z</time>
      </trkpt>
      <trkpt lat="44.63846" lon="5.76887">
        <ele>1269.8</ele>
        <time>2023-05-18T08:47:28Z</time>
      </trkpt>
      <trkpt lat="44.63845" lon="5.7689">
        <ele>1269.8</ele>
        <time>2023-05-18T08:47:29Z</time>
      </trkpt>
      <trkpt lat="44.63843" lon="5.76892">
        <ele>1269.8</ele>
        <time>2023-05-18T08:47:30Z</time>
      </trkpt>
      <trkpt lat="44.63843" lon="5.76894">
        <ele>1269.8</ele>
        <time>2023-05-18T08:47:31Z</time>
      </trkpt>
      <trkpt lat="44.63842" lon="5.76895">
        <ele>1270</ele>
        <time>2023-05-18T08:47:32Z</time>
      </trkpt>
      <trkpt lat="44.63842" lon="5.76895">
        <ele>1270.2</ele>
        <time>2023-05-18T08:47:33Z</time>
      </trkpt>
      <trkpt lat="44.63842" lon="5.76895">
        <ele>1270.4</ele>
        <time>2023-05-18T08:47:34Z</time>
      </trkpt>
      <trkpt lat="44.63842" lon="5.76895">
        <ele>1271.2</ele>
        <time>2023-05-18T08:47:38Z</time>
      </trkpt>
      <trkpt lat="44.63842" lon="5.76895">
        <ele>1271.2</ele>
        <time>2023-05-18T08:48:02Z</time>
      </trkpt>
      <trkpt lat="44.63842" lon="5.76895">
        <ele>1271.2</ele>
        <time>2023-05-18T08:48:04Z</time>
      </trkpt>
      <trkpt lat="44.63842" lon="5.76898">
        <ele>1271.2</ele>
        <time>2023-05-18T08:48:21Z</time>
      </trkpt>
      <trkpt lat="44.63842" lon="5.76901">
        <ele>1271.2</ele>
        <time>2023-05-18T08:48:23Z</time>
      </trkpt>
      <trkpt lat="44.63841" lon="5.76908">
        <ele>1271.4</ele>
        <time>2023-05-18T08:48:26Z</time>
      </trkpt>
      <trkpt lat="44.63841" lon="5.7691">
        <ele>1271.4</ele>
        <time>2023-05-18T08:48:27Z</time>
      </trkpt>
      <trkpt lat="44.63841" lon="5.76912">
        <ele>1271.6</ele>
        <time>2023-05-18T08:48:28Z</time>
      </trkpt>
      <trkpt lat="44.6384" lon="5.7692">
        <ele>1272</ele>
        <time>2023-05-18T08:48:32Z</time>
      </trkpt>
      <trkpt lat="44.6384" lon="5.7692">
        <ele>1271.8</ele>
        <time>2023-05-18T08:48:33Z</time>
      </trkpt>
      <trkpt lat="44.63839" lon="5.76921">
        <ele>1272</ele>
        <time>2023-05-18T08:48:34Z</time>
      </trkpt>
      <trkpt lat="44.63839" lon="5.76923">
        <ele>1272.2</ele>
        <time>2023-05-18T08:48:35Z</time>
      </trkpt>
      <trkpt lat="44.63837" lon="5.76931">
        <ele>1272.6</ele>
        <time>2023-05-18T08:48:39Z</time>
      </trkpt>
      <trkpt lat="44.63837" lon="5.76933">
        <ele>1272.8</ele>
        <time>2023-05-18T08:48:40Z</time>
      </trkpt>
      <trkpt lat="44.63836" lon="5.76939">
        <ele>1273.2</ele>
        <time>2023-05-18T08:48:43Z</time>
      </trkpt>
      <trkpt lat="44.63836" lon="5.76941">
        <ele>1273.4</ele>
        <time>2023-05-18T08:48:44Z</time>
      </trkpt>
      <trkpt lat="44.63836" lon="5.76944">
        <ele>1273.6</ele>
        <time>2023-05-18T08:48:46Z</time>
      </trkpt>
      <trkpt lat="44.63835" lon="5.76946">
        <ele>1273.6</ele>
        <time>2023-05-18T08:48:47Z</time>
      </trkpt>
      <trkpt lat="44.63835" lon="5.76949">
        <ele>1274.2</ele>
        <time>2023-05-18T08:48:49Z</time>
      </trkpt>
      <trkpt lat="44.63834" lon="5.76952">
        <ele>1274.6</ele>
        <time>2023-05-18T08:48:51Z</time>
      </trkpt>
      <trkpt lat="44.63834" lon="5.76954">
        <ele>1274.8</ele>
        <time>2023-05-18T08:48:52Z</time>
      </trkpt>
      <trkpt lat="44.63834" lon="5.76955">
        <ele>1275</ele>
        <time>2023-05-18T08:48:53Z</time>
      </trkpt>
      <trkpt lat="44.63834" lon="5.76957">
        <ele>1275.2</ele>
        <time>2023-05-18T08:48:54Z</time>
      </trkpt>
      <trkpt lat="44.63834" lon="5.76959">
        <ele>1275.2</ele>
        <time>2023-05-18T08:48:55Z</time>
      </trkpt>
      <trkpt lat="44.63834" lon="5.76961">
        <ele>1275.4</ele>
        <time>2023-05-18T08:48:56Z</time>
      </trkpt>
      <trkpt lat="44.63834" lon="5.76962">
        <ele>1275.6</ele>
        <time>2023-05-18T08:48:57Z</time>
      </trkpt>
      <trkpt lat="44.63833" lon="5.76964">
        <ele>1275.6</ele>
        <time>2023-05-18T08:48:58Z</time>
      </trkpt>
      <trkpt lat="44.63833" lon="5.76966">
        <ele>1275.8</ele>
        <time>2023-05-18T08:48:59Z</time>
      </trkpt>
      <trkpt lat="44.63834" lon="5.76968">
        <ele>1276</ele>
        <time>2023-05-18T08:49:00Z</time>
      </trkpt>
      <trkpt lat="44.63834" lon="5.7697">
        <ele>1276</ele>
        <time>2023-05-18T08:49:01Z</time>
      </trkpt>
      <trkpt lat="44.63834" lon="5.76972">
        <ele>1276.2</ele>
        <time>2023-05-18T08:49:02Z</time>
      </trkpt>
      <trkpt lat="44.63835" lon="5.76974">
        <ele>1276.2</ele>
        <time>2023-05-18T08:49:03Z</time>
      </trkpt>
      <trkpt lat="44.63835" lon="5.76976">
        <ele>1276.6</ele>
        <time>2023-05-18T08:49:04Z</time>
      </trkpt>
      <trkpt lat="44.63835" lon="5.76978">
        <ele>1276.8</ele>
        <time>2023-05-18T08:49:05Z</time>
      </trkpt>
      <trkpt lat="44.63834" lon="5.76979">
        <ele>1277</ele>
        <time>2023-05-18T08:49:06Z</time>
      </trkpt>
      <trkpt lat="44.63834" lon="5.76981">
        <ele>1277.2</ele>
        <time>2023-05-18T08:49:07Z</time>
      </trkpt>
      <trkpt lat="44.63834" lon="5.76982">
        <ele>1277</ele>
        <time>2023-05-18T08:49:08Z</time>
      </trkpt>
      <trkpt lat="44.63835" lon="5.76984">
        <ele>1277.2</ele>
        <time>2023-05-18T08:49:09Z</time>
      </trkpt>
      <trkpt lat="44.63835" lon="5.76985">
        <ele>1277.2</ele>
        <time>2023-05-18T08:49:10Z</time>
      </trkpt>
      <trkpt lat="44.63835" lon="5.76987">
        <ele>1277.4</ele>
        <time>2023-05-18T08:49:11Z</time>
      </trkpt>
      <trkpt lat="44.63835" lon="5.76987">
        <ele>1277.4</ele>
        <time>2023-05-18T08:49:12Z</time>
      </trkpt>
      <trkpt lat="44.63834" lon="5.76988">
        <ele>1277.6</ele>
        <time>2023-05-18T08:49:13Z</time>
      </trkpt>
      <trkpt lat="44.63835" lon="5.76989">
        <ele>1277.8</ele>
        <time>2023-05-18T08:49:14Z</time>
      </trkpt>
      <trkpt lat="44.63835" lon="5.7699">
        <ele>1277.8</ele>
        <time>2023-05-18T08:49:15Z</time>
      </trkpt>
      <trkpt lat="44.63835" lon="5.76991">
        <ele>1278</ele>
        <time>2023-05-18T08:49:16Z</time>
      </trkpt>
      <trkpt lat="44.63836" lon="5.76992">
        <ele>1278.2</ele>
        <time>2023-05-18T08:49:17Z</time>
      </trkpt>
      <trkpt lat="44.63836" lon="5.76992">
        <ele>1278.4</ele>
        <time>2023-05-18T08:49:18Z</time>
      </trkpt>
      <trkpt lat="44.63836" lon="5.76992">
        <ele>1278.4</ele>
        <time>2023-05-18T08:49:19Z</time>
      </trkpt>
      <trkpt lat="44.63836" lon="5.76993">
        <ele>1279</ele>
        <time>2023-05-18T08:49:22Z</time>
      </trkpt>
      <trkpt lat="44.63836" lon="5.76994">
        <ele>1279.2</ele>
        <time>2023-05-18T08:49:23Z</time>
      </trkpt>
      <trkpt lat="44.63835" lon="5.76996">
        <ele>1279.4</ele>
        <time>2023-05-18T08:49:24Z</time>
      </trkpt>
      <trkpt lat="44.63835" lon="5.76997">
        <ele>1279.8</ele>
        <time>2023-05-18T08:49:25Z</time>
      </trkpt>
      <trkpt lat="44.63835" lon="5.76998">
        <ele>1279.8</ele>
        <time>2023-05-18T08:49:26Z</time>
      </trkpt>
      <trkpt lat="44.63834" lon="5.76999">
        <ele>1280.2</ele>
        <time>2023-05-18T08:49:27Z</time>
      </trkpt>
      <trkpt lat="44.63833" lon="5.77001">
        <ele>1280.2</ele>
        <time>2023-05-18T08:49:28Z</time>
      </trkpt>
      <trkpt lat="44.63832" lon="5.77003">
        <ele>1280.4</ele>
        <time>2023-05-18T08:49:29Z</time>
      </trkpt>
      <trkpt lat="44.63831" lon="5.77004">
        <ele>1280.6</ele>
        <time>2023-05-18T08:49:30Z</time>
      </trkpt>
      <trkpt lat="44.6383" lon="5.77006">
        <ele>1280.8</ele>
        <time>2023-05-18T08:49:31Z</time>
      </trkpt>
      <trkpt lat="44.6383" lon="5.77008">
        <ele>1281</ele>
        <time>2023-05-18T08:49:32Z</time>
      </trkpt>
      <trkpt lat="44.63828" lon="5.7701">
        <ele>1281</ele>
        <time>2023-05-18T08:49:33Z</time>
      </trkpt>
      <trkpt lat="44.63827" lon="5.77011">
        <ele>1281.2</ele>
        <time>2023-05-18T08:49:34Z</time>
      </trkpt>
      <trkpt lat="44.63826" lon="5.77013">
        <ele>1281.2</ele>
        <time>2023-05-18T08:49:35Z</time>
      </trkpt>
      <trkpt lat="44.63825" lon="5.77015">
        <ele>1281.4</ele>
        <time>2023-05-18T08:49:36Z</time>
      </trkpt>
      <trkpt lat="44.63826" lon="5.77018">
        <ele>1281.4</ele>
        <time>2023-05-18T08:49:37Z</time>
      </trkpt>
      <trkpt lat="44.63825" lon="5.77019">
        <ele>1281.4</ele>
        <time>2023-05-18T08:49:38Z</time>
      </trkpt>
      <trkpt lat="44.63825" lon="5.77022">
        <ele>1281.4</ele>
        <time>2023-05-18T08:49:39Z</time>
      </trkpt>
      <trkpt lat="44.63824" lon="5.77024">
        <ele>1282</ele>
        <time>2023-05-18T08:49:40Z</time>
      </trkpt>
      <trkpt lat="44.63822" lon="5.77025">
        <ele>1282</ele>
        <time>2023-05-18T08:49:41Z</time>
      </trkpt>
      <trkpt lat="44.63822" lon="5.77025">
        <ele>1282</ele>
        <time>2023-05-18T08:49:42Z</time>
      </trkpt>
      <trkpt lat="44.63822" lon="5.77025">
        <ele>1282.4</ele>
        <time>2023-05-18T08:49:43Z</time>
      </trkpt>
      <trkpt lat="44.63821" lon="5.77027">
        <ele>1282.4</ele>
        <time>2023-05-18T08:49:44Z</time>
      </trkpt>
      <trkpt lat="44.63821" lon="5.77029">
        <ele>1282.6</ele>
        <time>2023-05-18T08:49:45Z</time>
      </trkpt>
      <trkpt lat="44.6382" lon="5.77032">
        <ele>1282.8</ele>
        <time>2023-05-18T08:49:46Z</time>
      </trkpt>
      <trkpt lat="44.6382" lon="5.77035">
        <ele>1283.2</ele>
        <time>2023-05-18T08:49:47Z</time>
      </trkpt>
      <trkpt lat="44.63819" lon="5.77037">
        <ele>1283.2</ele>
        <time>2023-05-18T08:49:48Z</time>
      </trkpt>
      <trkpt lat="44.63819" lon="5.7704">
        <ele>1283.6</ele>
        <time>2023-05-18T08:49:49Z</time>
      </trkpt>
      <trkpt lat="44.6382" lon="5.77042">
        <ele>1283.8</ele>
        <time>2023-05-18T08:49:50Z</time>
      </trkpt>
      <trkpt lat="44.63821" lon="5.77046">
        <ele>1283.8</ele>
        <time>2023-05-18T08:49:51Z</time>
      </trkpt>
      <trkpt lat="44.6382" lon="5.77048">
        <ele>1284.2</ele>
        <time>2023-05-18T08:49:52Z</time>
      </trkpt>
      <trkpt lat="44.6382" lon="5.7705">
        <ele>1284</ele>
        <time>2023-05-18T08:49:53Z</time>
      </trkpt>
      <trkpt lat="44.6382" lon="5.77052">
        <ele>1284.4</ele>
        <time>2023-05-18T08:49:54Z</time>
      </trkpt>
      <trkpt lat="44.6382" lon="5.77052">
        <ele>1284.4</ele>
        <time>2023-05-18T08:49:55Z</time>
      </trkpt>
      <trkpt lat="44.6382" lon="5.77052">
        <ele>1284.6</ele>
        <time>2023-05-18T08:49:56Z</time>
      </trkpt>
      <trkpt lat="44.6382" lon="5.77053">
        <ele>1284.6</ele>
        <time>2023-05-18T08:49:57Z</time>
      </trkpt>
      <trkpt lat="44.6382" lon="5.77053">
        <ele>1284.8</ele>
        <time>2023-05-18T08:49:58Z</time>
      </trkpt>
      <trkpt lat="44.6382" lon="5.77053">
        <ele>1285</ele>
        <time>2023-05-18T08:49:59Z</time>
      </trkpt>
      <trkpt lat="44.6382" lon="5.77055">
        <ele>1285.2</ele>
        <time>2023-05-18T08:50:00Z</time>
      </trkpt>
      <trkpt lat="44.6382" lon="5.77056">
        <ele>1285.2</ele>
        <time>2023-05-18T08:50:01Z</time>
      </trkpt>
      <trkpt lat="44.63819" lon="5.77059">
        <ele>1285.4</ele>
        <time>2023-05-18T08:50:02Z</time>
      </trkpt>
      <trkpt lat="44.63818" lon="5.77063">
        <ele>1285.4</ele>
        <time>2023-05-18T08:50:03Z</time>
      </trkpt>
      <trkpt lat="44.63818" lon="5.77065">
        <ele>1285.6</ele>
        <time>2023-05-18T08:50:04Z</time>
      </trkpt>
      <trkpt lat="44.63817" lon="5.77066">
        <ele>1285.8</ele>
        <time>2023-05-18T08:50:05Z</time>
      </trkpt>
      <trkpt lat="44.63817" lon="5.77067">
        <ele>1286</ele>
        <time>2023-05-18T08:50:06Z</time>
      </trkpt>
      <trkpt lat="44.63817" lon="5.77069">
        <ele>1286</ele>
        <time>2023-05-18T08:50:07Z</time>
      </trkpt>
      <trkpt lat="44.63817" lon="5.7707">
        <ele>1286.2</ele>
        <time>2023-05-18T08:50:08Z</time>
      </trkpt>
      <trkpt lat="44.63817" lon="5.7707">
        <ele>1286.2</ele>
        <time>2023-05-18T08:50:09Z</time>
      </trkpt>
      <trkpt lat="44.63817" lon="5.77072">
        <ele>1286.4</ele>
        <time>2023-05-18T08:50:10Z</time>
      </trkpt>
      <trkpt lat="44.63817" lon="5.77073">
        <ele>1286.6</ele>
        <time>2023-05-18T08:50:11Z</time>
      </trkpt>
      <trkpt lat="44.63817" lon="5.77074">
        <ele>1286.8</ele>
        <time>2023-05-18T08:50:12Z</time>
      </trkpt>
      <trkpt lat="44.63816" lon="5.77076">
        <ele>1286.8</ele>
        <time>2023-05-18T08:50:13Z</time>
      </trkpt>
      <trkpt lat="44.63817" lon="5.77079">
        <ele>1287</ele>
        <time>2023-05-18T08:50:14Z</time>
      </trkpt>
      <trkpt lat="44.63817" lon="5.7708">
        <ele>1287</ele>
        <time>2023-05-18T08:50:15Z</time>
      </trkpt>
      <trkpt lat="44.63817" lon="5.77082">
        <ele>1287.4</ele>
        <time>2023-05-18T08:50:16Z</time>
      </trkpt>
      <trkpt lat="44.63817" lon="5.77084">
        <ele>1287.4</ele>
        <time>2023-05-18T08:50:17Z</time>
      </trkpt>
      <trkpt lat="44.63817" lon="5.77086">
        <ele>1287.6</ele>
        <time>2023-05-18T08:50:18Z</time>
      </trkpt>
      <trkpt lat="44.63816" lon="5.77088">
        <ele>1287.8</ele>
        <time>2023-05-18T08:50:19Z</time>
      </trkpt>
      <trkpt lat="44.63816" lon="5.77088">
        <ele>1287.8</ele>
        <time>2023-05-18T08:50:20Z</time>
      </trkpt>
      <trkpt lat="44.63816" lon="5.77088">
        <ele>1287.8</ele>
        <time>2023-05-18T08:50:21Z</time>
      </trkpt>
      <trkpt lat="44.63816" lon="5.77089">
        <ele>1288</ele>
        <time>2023-05-18T08:50:22Z</time>
      </trkpt>
      <trkpt lat="44.63815" lon="5.77091">
        <ele>1288.2</ele>
        <time>2023-05-18T08:50:23Z</time>
      </trkpt>
      <trkpt lat="44.63816" lon="5.77091">
        <ele>1288.2</ele>
        <time>2023-05-18T08:50:24Z</time>
      </trkpt>
      <trkpt lat="44.63816" lon="5.77092">
        <ele>1288.4</ele>
        <time>2023-05-18T08:50:25Z</time>
      </trkpt>
      <trkpt lat="44.63816" lon="5.77093">
        <ele>1288.6</ele>
        <time>2023-05-18T08:50:26Z</time>
      </trkpt>
      <trkpt lat="44.63816" lon="5.77094">
        <ele>1288.8</ele>
        <time>2023-05-18T08:50:27Z</time>
      </trkpt>
      <trkpt lat="44.63815" lon="5.77095">
        <ele>1289</ele>
        <time>2023-05-18T08:50:28Z</time>
      </trkpt>
      <trkpt lat="44.63815" lon="5.77096">
        <ele>1289.2</ele>
        <time>2023-05-18T08:50:29Z</time>
      </trkpt>
      <trkpt lat="44.63814" lon="5.77097">
        <ele>1289.4</ele>
        <time>2023-05-18T08:50:30Z</time>
      </trkpt>
      <trkpt lat="44.63814" lon="5.77099">
        <ele>1289.6</ele>
        <time>2023-05-18T08:50:31Z</time>
      </trkpt>
      <trkpt lat="44.63813" lon="5.77101">
        <ele>1289.8</ele>
        <time>2023-05-18T08:50:32Z</time>
      </trkpt>
      <trkpt lat="44.63812" lon="5.77103">
        <ele>1289.8</ele>
        <time>2023-05-18T08:50:33Z</time>
      </trkpt>
      <trkpt lat="44.63812" lon="5.77105">
        <ele>1290.2</ele>
        <time>2023-05-18T08:50:34Z</time>
      </trkpt>
      <trkpt lat="44.63812" lon="5.77107">
        <ele>1290.2</ele>
        <time>2023-05-18T08:50:35Z</time>
      </trkpt>
      <trkpt lat="44.63811" lon="5.7711">
        <ele>1290.4</ele>
        <time>2023-05-18T08:50:36Z</time>
      </trkpt>
      <trkpt lat="44.63811" lon="5.77112">
        <ele>1290.6</ele>
        <time>2023-05-18T08:50:37Z</time>
      </trkpt>
      <trkpt lat="44.6381" lon="5.77114">
        <ele>1290.6</ele>
        <time>2023-05-18T08:50:38Z</time>
      </trkpt>
      <trkpt lat="44.6381" lon="5.77115">
        <ele>1290.8</ele>
        <time>2023-05-18T08:50:39Z</time>
      </trkpt>
      <trkpt lat="44.63809" lon="5.77117">
        <ele>1291</ele>
        <time>2023-05-18T08:50:40Z</time>
      </trkpt>
      <trkpt lat="44.6381" lon="5.77119">
        <ele>1291.2</ele>
        <time>2023-05-18T08:50:41Z</time>
      </trkpt>
      <trkpt lat="44.6381" lon="5.7712">
        <ele>1291.4</ele>
        <time>2023-05-18T08:50:42Z</time>
      </trkpt>
      <trkpt lat="44.6381" lon="5.7712">
        <ele>1291.4</ele>
        <time>2023-05-18T08:50:43Z</time>
      </trkpt>
      <trkpt lat="44.6381" lon="5.77121">
        <ele>1291.6</ele>
        <time>2023-05-18T08:50:44Z</time>
      </trkpt>
      <trkpt lat="44.6381" lon="5.77121">
        <ele>1291.6</ele>
        <time>2023-05-18T08:50:45Z</time>
      </trkpt>
      <trkpt lat="44.6381" lon="5.77122">
        <ele>1291.8</ele>
        <time>2023-05-18T08:50:47Z</time>
      </trkpt>
      <trkpt lat="44.63809" lon="5.77123">
        <ele>1292.2</ele>
        <time>2023-05-18T08:50:48Z</time>
      </trkpt>
      <trkpt lat="44.63809" lon="5.77123">
        <ele>1292.2</ele>
        <time>2023-05-18T08:50:49Z</time>
      </trkpt>
      <trkpt lat="44.63809" lon="5.77123">
        <ele>1292.4</ele>
        <time>2023-05-18T08:50:50Z</time>
      </trkpt>
      <trkpt lat="44.63809" lon="5.77123">
        <ele>1292.6</ele>
        <time>2023-05-18T08:50:51Z</time>
      </trkpt>
      <trkpt lat="44.63809" lon="5.77124">
        <ele>1292.6</ele>
        <time>2023-05-18T08:50:52Z</time>
      </trkpt>
      <trkpt lat="44.63809" lon="5.77128">
        <ele>1293</ele>
        <time>2023-05-18T08:50:54Z</time>
      </trkpt>
      <trkpt lat="44.63808" lon="5.7713">
        <ele>1293</ele>
        <time>2023-05-18T08:50:55Z</time>
      </trkpt>
      <trkpt lat="44.63807" lon="5.77131">
        <ele>1293.2</ele>
        <time>2023-05-18T08:50:56Z</time>
      </trkpt>
      <trkpt lat="44.63807" lon="5.77132">
        <ele>1293.2</ele>
        <time>2023-05-18T08:50:57Z</time>
      </trkpt>
      <trkpt lat="44.63807" lon="5.77132">
        <ele>1293.4</ele>
        <time>2023-05-18T08:50:58Z</time>
      </trkpt>
      <trkpt lat="44.63806" lon="5.77133">
        <ele>1293.6</ele>
        <time>2023-05-18T08:50:59Z</time>
      </trkpt>
      <trkpt lat="44.63806" lon="5.77134">
        <ele>1293.6</ele>
        <time>2023-05-18T08:51:00Z</time>
      </trkpt>
      <trkpt lat="44.63806" lon="5.77134">
        <ele>1293.8</ele>
        <time>2023-05-18T08:51:01Z</time>
      </trkpt>
      <trkpt lat="44.63806" lon="5.77135">
        <ele>1294</ele>
        <time>2023-05-18T08:51:02Z</time>
      </trkpt>
      <trkpt lat="44.63805" lon="5.77135">
        <ele>1294.2</ele>
        <time>2023-05-18T08:51:03Z</time>
      </trkpt>
      <trkpt lat="44.63805" lon="5.77136">
        <ele>1294.4</ele>
        <time>2023-05-18T08:51:04Z</time>
      </trkpt>
      <trkpt lat="44.63805" lon="5.77136">
        <ele>1294.4</ele>
        <time>2023-05-18T08:51:05Z</time>
      </trkpt>
      <trkpt lat="44.63804" lon="5.77137">
        <ele>1294.6</ele>
        <time>2023-05-18T08:51:06Z</time>
      </trkpt>
      <trkpt lat="44.63804" lon="5.77139">
        <ele>1294.8</ele>
        <time>2023-05-18T08:51:07Z</time>
      </trkpt>
      <trkpt lat="44.63804" lon="5.77141">
        <ele>1295</ele>
        <time>2023-05-18T08:51:08Z</time>
      </trkpt>
      <trkpt lat="44.63804" lon="5.77143">
        <ele>1295</ele>
        <time>2023-05-18T08:51:09Z</time>
      </trkpt>
      <trkpt lat="44.63803" lon="5.77144">
        <ele>1295.2</ele>
        <time>2023-05-18T08:51:10Z</time>
      </trkpt>
      <trkpt lat="44.63803" lon="5.77144">
        <ele>1295.4</ele>
        <time>2023-05-18T08:51:11Z</time>
      </trkpt>
      <trkpt lat="44.63803" lon="5.77144">
        <ele>1295.4</ele>
        <time>2023-05-18T08:51:12Z</time>
      </trkpt>
      <trkpt lat="44.63802" lon="5.77147">
        <ele>1295.6</ele>
        <time>2023-05-18T08:51:13Z</time>
      </trkpt>
      <trkpt lat="44.638" lon="5.77149">
        <ele>1295.8</ele>
        <time>2023-05-18T08:51:14Z</time>
      </trkpt>
      <trkpt lat="44.638" lon="5.77149">
        <ele>1296</ele>
        <time>2023-05-18T08:51:15Z</time>
      </trkpt>
      <trkpt lat="44.63799" lon="5.7715">
        <ele>1296</ele>
        <time>2023-05-18T08:51:16Z</time>
      </trkpt>
      <trkpt lat="44.63798" lon="5.77152">
        <ele>1296.2</ele>
        <time>2023-05-18T08:51:17Z</time>
      </trkpt>
      <trkpt lat="44.63798" lon="5.77153">
        <ele>1296.4</ele>
        <time>2023-05-18T08:51:18Z</time>
      </trkpt>
      <trkpt lat="44.63797" lon="5.77155">
        <ele>1296.6</ele>
        <time>2023-05-18T08:51:19Z</time>
      </trkpt>
      <trkpt lat="44.63795" lon="5.77158">
        <ele>1296.6</ele>
        <time>2023-05-18T08:51:20Z</time>
      </trkpt>
      <trkpt lat="44.63794" lon="5.7716">
        <ele>1296.8</ele>
        <time>2023-05-18T08:51:21Z</time>
      </trkpt>
      <trkpt lat="44.63794" lon="5.77161">
        <ele>1297</ele>
        <time>2023-05-18T08:51:22Z</time>
      </trkpt>
      <trkpt lat="44.63793" lon="5.77161">
        <ele>1297.2</ele>
        <time>2023-05-18T08:51:23Z</time>
      </trkpt>
      <trkpt lat="44.63793" lon="5.77162">
        <ele>1297.2</ele>
        <time>2023-05-18T08:51:24Z</time>
      </trkpt>
      <trkpt lat="44.63792" lon="5.77165">
        <ele>1297.2</ele>
        <time>2023-05-18T08:51:25Z</time>
      </trkpt>
      <trkpt lat="44.63791" lon="5.77167">
        <ele>1297.4</ele>
        <time>2023-05-18T08:51:26Z</time>
      </trkpt>
      <trkpt lat="44.63791" lon="5.77169">
        <ele>1297.4</ele>
        <time>2023-05-18T08:51:27Z</time>
      </trkpt>
      <trkpt lat="44.6379" lon="5.7717">
        <ele>1297.8</ele>
        <time>2023-05-18T08:51:28Z</time>
      </trkpt>
      <trkpt lat="44.63789" lon="5.77171">
        <ele>1298</ele>
        <time>2023-05-18T08:51:29Z</time>
      </trkpt>
      <trkpt lat="44.63788" lon="5.77173">
        <ele>1298.2</ele>
        <time>2023-05-18T08:51:30Z</time>
      </trkpt>
      <trkpt lat="44.63788" lon="5.77175">
        <ele>1298.4</ele>
        <time>2023-05-18T08:51:31Z</time>
      </trkpt>
      <trkpt lat="44.63787" lon="5.77177">
        <ele>1298.4</ele>
        <time>2023-05-18T08:51:32Z</time>
      </trkpt>
      <trkpt lat="44.63786" lon="5.77178">
        <ele>1298.6</ele>
        <time>2023-05-18T08:51:33Z</time>
      </trkpt>
      <trkpt lat="44.63786" lon="5.77179">
        <ele>1298.6</ele>
        <time>2023-05-18T08:51:34Z</time>
      </trkpt>
      <trkpt lat="44.63786" lon="5.77179">
        <ele>1298.8</ele>
        <time>2023-05-18T08:51:35Z</time>
      </trkpt>
      <trkpt lat="44.63786" lon="5.77179">
        <ele>1299</ele>
        <time>2023-05-18T08:51:36Z</time>
      </trkpt>
      <trkpt lat="44.63786" lon="5.7718">
        <ele>1299.4</ele>
        <time>2023-05-18T08:51:39Z</time>
      </trkpt>
      <trkpt lat="44.63785" lon="5.77181">
        <ele>1299.6</ele>
        <time>2023-05-18T08:51:40Z</time>
      </trkpt>
      <trkpt lat="44.63783" lon="5.77182">
        <ele>1299.6</ele>
        <time>2023-05-18T08:51:41Z</time>
      </trkpt>
      <trkpt lat="44.63783" lon="5.77182">
        <ele>1299.8</ele>
        <time>2023-05-18T08:51:42Z</time>
      </trkpt>
      <trkpt lat="44.63782" lon="5.77186">
        <ele>1299.8</ele>
        <time>2023-05-18T08:51:43Z</time>
      </trkpt>
      <trkpt lat="44.6378" lon="5.77188">
        <ele>1300</ele>
        <time>2023-05-18T08:51:44Z</time>
      </trkpt>
      <trkpt lat="44.63779" lon="5.77189">
        <ele>1300</ele>
        <time>2023-05-18T08:51:45Z</time>
      </trkpt>
      <trkpt lat="44.63779" lon="5.7719">
        <ele>1300.2</ele>
        <time>2023-05-18T08:51:46Z</time>
      </trkpt>
      <trkpt lat="44.63779" lon="5.7719">
        <ele>1300.6</ele>
        <time>2023-05-18T08:51:47Z</time>
      </trkpt>
      <trkpt lat="44.63779" lon="5.7719">
        <ele>1300.6</ele>
        <time>2023-05-18T08:51:48Z</time>
      </trkpt>
      <trkpt lat="44.63779" lon="5.7719">
        <ele>1300.8</ele>
        <time>2023-05-18T08:51:49Z</time>
      </trkpt>
      <trkpt lat="44.63779" lon="5.77192">
        <ele>1301</ele>
        <time>2023-05-18T08:51:50Z</time>
      </trkpt>
      <trkpt lat="44.63779" lon="5.77192">
        <ele>1301.2</ele>
        <time>2023-05-18T08:51:51Z</time>
      </trkpt>
      <trkpt lat="44.63779" lon="5.77192">
        <ele>1301.4</ele>
        <time>2023-05-18T08:51:52Z</time>
      </trkpt>
      <trkpt lat="44.63779" lon="5.77192">
        <ele>1301.4</ele>
        <time>2023-05-18T08:51:53Z</time>
      </trkpt>
      <trkpt lat="44.63777" lon="5.77196">
        <ele>1301.6</ele>
        <time>2023-05-18T08:51:54Z</time>
      </trkpt>
      <trkpt lat="44.63776" lon="5.77199">
        <ele>1301.6</ele>
        <time>2023-05-18T08:51:55Z</time>
      </trkpt>
      <trkpt lat="44.63775" lon="5.77202">
        <ele>1302</ele>
        <time>2023-05-18T08:51:56Z</time>
      </trkpt>
      <trkpt lat="44.63775" lon="5.77202">
        <ele>1302</ele>
        <time>2023-05-18T08:51:57Z</time>
      </trkpt>
      <trkpt lat="44.63775" lon="5.77203">
        <ele>1302.2</ele>
        <time>2023-05-18T08:51:58Z</time>
      </trkpt>
      <trkpt lat="44.63775" lon="5.77204">
        <ele>1302.2</ele>
        <time>2023-05-18T08:51:59Z</time>
      </trkpt>
      <trkpt lat="44.63775" lon="5.77205">
        <ele>1302.6</ele>
        <time>2023-05-18T08:52:00Z</time>
      </trkpt>
      <trkpt lat="44.63775" lon="5.77205">
        <ele>1302.6</ele>
        <time>2023-05-18T08:52:01Z</time>
      </trkpt>
      <trkpt lat="44.63774" lon="5.77207">
        <ele>1302.8</ele>
        <time>2023-05-18T08:52:02Z</time>
      </trkpt>
      <trkpt lat="44.63772" lon="5.77209">
        <ele>1303</ele>
        <time>2023-05-18T08:52:03Z</time>
      </trkpt>
      <trkpt lat="44.63771" lon="5.77212">
        <ele>1303.2</ele>
        <time>2023-05-18T08:52:04Z</time>
      </trkpt>
      <trkpt lat="44.6377" lon="5.77214">
        <ele>1303.2</ele>
        <time>2023-05-18T08:52:05Z</time>
      </trkpt>
      <trkpt lat="44.63769" lon="5.77214">
        <ele>1303.2</ele>
        <time>2023-05-18T08:52:06Z</time>
      </trkpt>
      <trkpt lat="44.63768" lon="5.77216">
        <ele>1303.4</ele>
        <time>2023-05-18T08:52:07Z</time>
      </trkpt>
      <trkpt lat="44.63768" lon="5.77218">
        <ele>1303.4</ele>
        <time>2023-05-18T08:52:08Z</time>
      </trkpt>
      <trkpt lat="44.63767" lon="5.77218">
        <ele>1303.8</ele>
        <time>2023-05-18T08:52:09Z</time>
      </trkpt>
      <trkpt lat="44.63767" lon="5.77219">
        <ele>1303.8</ele>
        <time>2023-05-18T08:52:10Z</time>
      </trkpt>
      <trkpt lat="44.63766" lon="5.77221">
        <ele>1304</ele>
        <time>2023-05-18T08:52:11Z</time>
      </trkpt>
      <trkpt lat="44.63765" lon="5.77223">
        <ele>1304.2</ele>
        <time>2023-05-18T08:52:12Z</time>
      </trkpt>
      <trkpt lat="44.63764" lon="5.77226">
        <ele>1304.4</ele>
        <time>2023-05-18T08:52:13Z</time>
      </trkpt>
      <trkpt lat="44.63762" lon="5.77229">
        <ele>1304.4</ele>
        <time>2023-05-18T08:52:14Z</time>
      </trkpt>
      <trkpt lat="44.63761" lon="5.77233">
        <ele>1304.6</ele>
        <time>2023-05-18T08:52:15Z</time>
      </trkpt>
      <trkpt lat="44.6376" lon="5.77234">
        <ele>1304.8</ele>
        <time>2023-05-18T08:52:16Z</time>
      </trkpt>
      <trkpt lat="44.63759" lon="5.77236">
        <ele>1304.8</ele>
        <time>2023-05-18T08:52:17Z</time>
      </trkpt>
      <trkpt lat="44.63758" lon="5.77239">
        <ele>1305</ele>
        <time>2023-05-18T08:52:18Z</time>
      </trkpt>
      <trkpt lat="44.63757" lon="5.77241">
        <ele>1305</ele>
        <time>2023-05-18T08:52:19Z</time>
      </trkpt>
      <trkpt lat="44.63756" lon="5.77244">
        <ele>1305.2</ele>
        <time>2023-05-18T08:52:20Z</time>
      </trkpt>
      <trkpt lat="44.63755" lon="5.77246">
        <ele>1305.4</ele>
        <time>2023-05-18T08:52:21Z</time>
      </trkpt>
      <trkpt lat="44.63755" lon="5.77248">
        <ele>1305.4</ele>
        <time>2023-05-18T08:52:22Z</time>
      </trkpt>
      <trkpt lat="44.63754" lon="5.7725">
        <ele>1305.6</ele>
        <time>2023-05-18T08:52:23Z</time>
      </trkpt>
      <trkpt lat="44.63753" lon="5.77252">
        <ele>1305.6</ele>
        <time>2023-05-18T08:52:24Z</time>
      </trkpt>
      <trkpt lat="44.63752" lon="5.77254">
        <ele>1305.8</ele>
        <time>2023-05-18T08:52:25Z</time>
      </trkpt>
      <trkpt lat="44.63752" lon="5.77255">
        <ele>1305.8</ele>
        <time>2023-05-18T08:52:26Z</time>
      </trkpt>
      <trkpt lat="44.63751" lon="5.77257">
        <ele>1306</ele>
        <time>2023-05-18T08:52:27Z</time>
      </trkpt>
      <trkpt lat="44.63751" lon="5.77257">
        <ele>1306.2</ele>
        <time>2023-05-18T08:52:28Z</time>
      </trkpt>
      <trkpt lat="44.63751" lon="5.77257">
        <ele>1306.2</ele>
        <time>2023-05-18T08:52:29Z</time>
      </trkpt>
      <trkpt lat="44.63751" lon="5.77257">
        <ele>1306.2</ele>
        <time>2023-05-18T08:52:30Z</time>
      </trkpt>
      <trkpt lat="44.63751" lon="5.77257">
        <ele>1306.6</ele>
        <time>2023-05-18T08:52:34Z</time>
      </trkpt>
      <trkpt lat="44.63751" lon="5.77257">
        <ele>1306.8</ele>
        <time>2023-05-18T08:53:00Z</time>
      </trkpt>
      <trkpt lat="44.63751" lon="5.77257">
        <ele>1306.4</ele>
        <time>2023-05-18T08:53:19Z</time>
      </trkpt>
      <trkpt lat="44.63751" lon="5.77257">
        <ele>1306.4</ele>
        <time>2023-05-18T08:54:13Z</time>
      </trkpt>
      <trkpt lat="44.63751" lon="5.77257">
        <ele>1306.4</ele>
        <time>2023-05-18T08:54:14Z</time>
      </trkpt>
      <trkpt lat="44.6375" lon="5.77263">
        <ele>1306.6</ele>
        <time>2023-05-18T08:54:20Z</time>
      </trkpt>
      <trkpt lat="44.63749" lon="5.77267">
        <ele>1306.8</ele>
        <time>2023-05-18T08:54:23Z</time>
      </trkpt>
      <trkpt lat="44.63748" lon="5.77271">
        <ele>1306.8</ele>
        <time>2023-05-18T08:54:25Z</time>
      </trkpt>
      <trkpt lat="44.63747" lon="5.77275">
        <ele>1307</ele>
        <time>2023-05-18T08:54:27Z</time>
      </trkpt>
      <trkpt lat="44.63746" lon="5.77277">
        <ele>1307.2</ele>
        <time>2023-05-18T08:54:28Z</time>
      </trkpt>
      <trkpt lat="44.63745" lon="5.77279">
        <ele>1307.2</ele>
        <time>2023-05-18T08:54:29Z</time>
      </trkpt>
      <trkpt lat="44.63743" lon="5.77281">
        <ele>1307.6</ele>
        <time>2023-05-18T08:54:31Z</time>
      </trkpt>
      <trkpt lat="44.63741" lon="5.77286">
        <ele>1308</ele>
        <time>2023-05-18T08:54:34Z</time>
      </trkpt>
      <trkpt lat="44.63741" lon="5.77287">
        <ele>1308.2</ele>
        <time>2023-05-18T08:54:35Z</time>
      </trkpt>
      <trkpt lat="44.6374" lon="5.77288">
        <ele>1308.2</ele>
        <time>2023-05-18T08:54:36Z</time>
      </trkpt>
      <trkpt lat="44.6374" lon="5.7729">
        <ele>1308.4</ele>
        <time>2023-05-18T08:54:37Z</time>
      </trkpt>
      <trkpt lat="44.6374" lon="5.77291">
        <ele>1308.6</ele>
        <time>2023-05-18T08:54:38Z</time>
      </trkpt>
      <trkpt lat="44.63738" lon="5.77294">
        <ele>1308.8</ele>
        <time>2023-05-18T08:54:39Z</time>
      </trkpt>
      <trkpt lat="44.63738" lon="5.77297">
        <ele>1309</ele>
        <time>2023-05-18T08:54:41Z</time>
      </trkpt>
      <trkpt lat="44.63736" lon="5.77303">
        <ele>1309.6</ele>
        <time>2023-05-18T08:54:45Z</time>
      </trkpt>
      <trkpt lat="44.63736" lon="5.77305">
        <ele>1309.8</ele>
        <time>2023-05-18T08:54:46Z</time>
      </trkpt>
      <trkpt lat="44.63736" lon="5.77306">
        <ele>1310</ele>
        <time>2023-05-18T08:54:47Z</time>
      </trkpt>
      <trkpt lat="44.63735" lon="5.77307">
        <ele>1310.2</ele>
        <time>2023-05-18T08:54:48Z</time>
      </trkpt>
      <trkpt lat="44.63734" lon="5.77308">
        <ele>1310.4</ele>
        <time>2023-05-18T08:54:49Z</time>
      </trkpt>
      <trkpt lat="44.63733" lon="5.7731">
        <ele>1310.6</ele>
        <time>2023-05-18T08:54:50Z</time>
      </trkpt>
      <trkpt lat="44.63733" lon="5.77311">
        <ele>1310.6</ele>
        <time>2023-05-18T08:54:51Z</time>
      </trkpt>
      <trkpt lat="44.63733" lon="5.77313">
        <ele>1311</ele>
        <time>2023-05-18T08:54:52Z</time>
      </trkpt>
      <trkpt lat="44.63733" lon="5.77314">
        <ele>1311.2</ele>
        <time>2023-05-18T08:54:53Z</time>
      </trkpt>
      <trkpt lat="44.63732" lon="5.77316">
        <ele>1311</ele>
        <time>2023-05-18T08:54:54Z</time>
      </trkpt>
      <trkpt lat="44.63731" lon="5.77318">
        <ele>1311.2</ele>
        <time>2023-05-18T08:54:55Z</time>
      </trkpt>
      <trkpt lat="44.63731" lon="5.77319">
        <ele>1311.8</ele>
        <time>2023-05-18T08:54:56Z</time>
      </trkpt>
      <trkpt lat="44.6373" lon="5.77321">
        <ele>1311.8</ele>
        <time>2023-05-18T08:54:57Z</time>
      </trkpt>
      <trkpt lat="44.63729" lon="5.77322">
        <ele>1312</ele>
        <time>2023-05-18T08:54:58Z</time>
      </trkpt>
      <trkpt lat="44.63728" lon="5.77322">
        <ele>1312</ele>
        <time>2023-05-18T08:54:59Z</time>
      </trkpt>
      <trkpt lat="44.63728" lon="5.77323">
        <ele>1312.2</ele>
        <time>2023-05-18T08:55:00Z</time>
      </trkpt>
      <trkpt lat="44.63727" lon="5.77325">
        <ele>1312.2</ele>
        <time>2023-05-18T08:55:01Z</time>
      </trkpt>
      <trkpt lat="44.63726" lon="5.77326">
        <ele>1312.6</ele>
        <time>2023-05-18T08:55:02Z</time>
      </trkpt>
      <trkpt lat="44.63726" lon="5.77327">
        <ele>1312.6</ele>
        <time>2023-05-18T08:55:03Z</time>
      </trkpt>
      <trkpt lat="44.63725" lon="5.77328">
        <ele>1312.8</ele>
        <time>2023-05-18T08:55:04Z</time>
      </trkpt>
      <trkpt lat="44.63724" lon="5.77329">
        <ele>1312.8</ele>
        <time>2023-05-18T08:55:05Z</time>
      </trkpt>
      <trkpt lat="44.63724" lon="5.7733">
        <ele>1313</ele>
        <time>2023-05-18T08:55:06Z</time>
      </trkpt>
      <trkpt lat="44.63724" lon="5.77332">
        <ele>1313</ele>
        <time>2023-05-18T08:55:07Z</time>
      </trkpt>
      <trkpt lat="44.63723" lon="5.77334">
        <ele>1313</ele>
        <time>2023-05-18T08:55:08Z</time>
      </trkpt>
      <trkpt lat="44.63722" lon="5.77336">
        <ele>1313.2</ele>
        <time>2023-05-18T08:55:09Z</time>
      </trkpt>
      <trkpt lat="44.63722" lon="5.77337">
        <ele>1313.2</ele>
        <time>2023-05-18T08:55:10Z</time>
      </trkpt>
      <trkpt lat="44.63722" lon="5.77338">
        <ele>1313.4</ele>
        <time>2023-05-18T08:55:11Z</time>
      </trkpt>
      <trkpt lat="44.63721" lon="5.77341">
        <ele>1313.4</ele>
        <time>2023-05-18T08:55:12Z</time>
      </trkpt>
      <trkpt lat="44.6372" lon="5.77342">
        <ele>1313.6</ele>
        <time>2023-05-18T08:55:13Z</time>
      </trkpt>
      <trkpt lat="44.63718" lon="5.77343">
        <ele>1314</ele>
        <time>2023-05-18T08:55:14Z</time>
      </trkpt>
      <trkpt lat="44.63715" lon="5.77344">
        <ele>1314</ele>
        <time>2023-05-18T08:55:15Z</time>
      </trkpt>
      <trkpt lat="44.63715" lon="5.77345">
        <ele>1314.2</ele>
        <time>2023-05-18T08:55:16Z</time>
      </trkpt>
      <trkpt lat="44.63714" lon="5.77346">
        <ele>1314.4</ele>
        <time>2023-05-18T08:55:17Z</time>
      </trkpt>
      <trkpt lat="44.63713" lon="5.77348">
        <ele>1314.6</ele>
        <time>2023-05-18T08:55:18Z</time>
      </trkpt>
      <trkpt lat="44.63712" lon="5.77349">
        <ele>1314.6</ele>
        <time>2023-05-18T08:55:19Z</time>
      </trkpt>
      <trkpt lat="44.63711" lon="5.77351">
        <ele>1314.8</ele>
        <time>2023-05-18T08:55:20Z</time>
      </trkpt>
      <trkpt lat="44.6371" lon="5.77352">
        <ele>1314.8</ele>
        <time>2023-05-18T08:55:21Z</time>
      </trkpt>
      <trkpt lat="44.63709" lon="5.77354">
        <ele>1315</ele>
        <time>2023-05-18T08:55:22Z</time>
      </trkpt>
      <trkpt lat="44.63708" lon="5.77356">
        <ele>1315</ele>
        <time>2023-05-18T08:55:23Z</time>
      </trkpt>
      <trkpt lat="44.63707" lon="5.77357">
        <ele>1315.2</ele>
        <time>2023-05-18T08:55:24Z</time>
      </trkpt>
      <trkpt lat="44.63707" lon="5.77357">
        <ele>1315.4</ele>
        <time>2023-05-18T08:55:25Z</time>
      </trkpt>
      <trkpt lat="44.63707" lon="5.77358">
        <ele>1315.4</ele>
        <time>2023-05-18T08:55:26Z</time>
      </trkpt>
      <trkpt lat="44.63707" lon="5.77359">
        <ele>1315.4</ele>
        <time>2023-05-18T08:55:27Z</time>
      </trkpt>
      <trkpt lat="44.63707" lon="5.7736">
        <ele>1315.6</ele>
        <time>2023-05-18T08:55:28Z</time>
      </trkpt>
      <trkpt lat="44.63707" lon="5.7736">
        <ele>1315.6</ele>
        <time>2023-05-18T08:55:29Z</time>
      </trkpt>
      <trkpt lat="44.63707" lon="5.77361">
        <ele>1315.8</ele>
        <time>2023-05-18T08:55:30Z</time>
      </trkpt>
      <trkpt lat="44.63707" lon="5.77362">
        <ele>1315.8</ele>
        <time>2023-05-18T08:55:31Z</time>
      </trkpt>
      <trkpt lat="44.63708" lon="5.77364">
        <ele>1316</ele>
        <time>2023-05-18T08:55:32Z</time>
      </trkpt>
      <trkpt lat="44.63709" lon="5.77365">
        <ele>1316.2</ele>
        <time>2023-05-18T08:55:33Z</time>
      </trkpt>
      <trkpt lat="44.63709" lon="5.77367">
        <ele>1316.4</ele>
        <time>2023-05-18T08:55:34Z</time>
      </trkpt>
      <trkpt lat="44.6371" lon="5.77368">
        <ele>1316.4</ele>
        <time>2023-05-18T08:55:35Z</time>
      </trkpt>
      <trkpt lat="44.63711" lon="5.77369">
        <ele>1316.4</ele>
        <time>2023-05-18T08:55:36Z</time>
      </trkpt>
      <trkpt lat="44.63712" lon="5.77371">
        <ele>1316.6</ele>
        <time>2023-05-18T08:55:37Z</time>
      </trkpt>
      <trkpt lat="44.63713" lon="5.77372">
        <ele>1316.8</ele>
        <time>2023-05-18T08:55:38Z</time>
      </trkpt>
      <trkpt lat="44.63714" lon="5.77374">
        <ele>1316.8</ele>
        <time>2023-05-18T08:55:39Z</time>
      </trkpt>
      <trkpt lat="44.63716" lon="5.77375">
        <ele>1316.8</ele>
        <time>2023-05-18T08:55:40Z</time>
      </trkpt>
      <trkpt lat="44.63717" lon="5.77376">
        <ele>1317</ele>
        <time>2023-05-18T08:55:41Z</time>
      </trkpt>
      <trkpt lat="44.63718" lon="5.77376">
        <ele>1317.2</ele>
        <time>2023-05-18T08:55:42Z</time>
      </trkpt>
      <trkpt lat="44.63718" lon="5.77377">
        <ele>1317.2</ele>
        <time>2023-05-18T08:55:43Z</time>
      </trkpt>
      <trkpt lat="44.63719" lon="5.77377">
        <ele>1317.2</ele>
        <time>2023-05-18T08:55:44Z</time>
      </trkpt>
      <trkpt lat="44.6372" lon="5.77377">
        <ele>1317.4</ele>
        <time>2023-05-18T08:55:45Z</time>
      </trkpt>
      <trkpt lat="44.63721" lon="5.77377">
        <ele>1317.4</ele>
        <time>2023-05-18T08:55:46Z</time>
      </trkpt>
      <trkpt lat="44.63722" lon="5.77376">
        <ele>1317.4</ele>
        <time>2023-05-18T08:55:47Z</time>
      </trkpt>
      <trkpt lat="44.63723" lon="5.77376">
        <ele>1317.4</ele>
        <time>2023-05-18T08:55:48Z</time>
      </trkpt>
      <trkpt lat="44.63724" lon="5.77376">
        <ele>1317.6</ele>
        <time>2023-05-18T08:55:49Z</time>
      </trkpt>
      <trkpt lat="44.63725" lon="5.77375">
        <ele>1317.6</ele>
        <time>2023-05-18T08:55:50Z</time>
      </trkpt>
      <trkpt lat="44.63726" lon="5.77375">
        <ele>1317.6</ele>
        <time>2023-05-18T08:55:51Z</time>
      </trkpt>
      <trkpt lat="44.63727" lon="5.77376">
        <ele>1317.8</ele>
        <time>2023-05-18T08:55:52Z</time>
      </trkpt>
      <trkpt lat="44.63728" lon="5.77376">
        <ele>1317.8</ele>
        <time>2023-05-18T08:55:53Z</time>
      </trkpt>
      <trkpt lat="44.63728" lon="5.77376">
        <ele>1318</ele>
        <time>2023-05-18T08:55:54Z</time>
      </trkpt>
      <trkpt lat="44.63729" lon="5.77376">
        <ele>1318</ele>
        <time>2023-05-18T08:55:55Z</time>
      </trkpt>
      <trkpt lat="44.6373" lon="5.77375">
        <ele>1318.2</ele>
        <time>2023-05-18T08:55:57Z</time>
      </trkpt>
      <trkpt lat="44.63731" lon="5.77375">
        <ele>1318.2</ele>
        <time>2023-05-18T08:55:58Z</time>
      </trkpt>
      <trkpt lat="44.63732" lon="5.77374">
        <ele>1318.4</ele>
        <time>2023-05-18T08:55:59Z</time>
      </trkpt>
      <trkpt lat="44.63736" lon="5.77374">
        <ele>1318.6</ele>
        <time>2023-05-18T08:56:02Z</time>
      </trkpt>
      <trkpt lat="44.63737" lon="5.77374">
        <ele>1318.8</ele>
        <time>2023-05-18T08:56:03Z</time>
      </trkpt>
      <trkpt lat="44.63739" lon="5.77375">
        <ele>1318.8</ele>
        <time>2023-05-18T08:56:04Z</time>
      </trkpt>
      <trkpt lat="44.63742" lon="5.77375">
        <ele>1319</ele>
        <time>2023-05-18T08:56:06Z</time>
      </trkpt>
      <trkpt lat="44.63744" lon="5.77375">
        <ele>1319</ele>
        <time>2023-05-18T08:56:07Z</time>
      </trkpt>
      <trkpt lat="44.63748" lon="5.77375">
        <ele>1319.4</ele>
        <time>2023-05-18T08:56:10Z</time>
      </trkpt>
      <trkpt lat="44.63748" lon="5.77375">
        <ele>1319.4</ele>
        <time>2023-05-18T08:56:11Z</time>
      </trkpt>
      <trkpt lat="44.63748" lon="5.77375">
        <ele>1319.6</ele>
        <time>2023-05-18T08:56:12Z</time>
      </trkpt>
      <trkpt lat="44.63748" lon="5.77375">
        <ele>1319.8</ele>
        <time>2023-05-18T08:56:14Z</time>
      </trkpt>
      <trkpt lat="44.63748" lon="5.77375">
        <ele>1319.8</ele>
        <time>2023-05-18T08:56:52Z</time>
      </trkpt>
      <trkpt lat="44.63748" lon="5.77375">
        <ele>1319.6</ele>
        <time>2023-05-18T08:57:11Z</time>
      </trkpt>
      <trkpt lat="44.63748" lon="5.77375">
        <ele>1319.6</ele>
        <time>2023-05-18T08:57:27Z</time>
      </trkpt>
      <trkpt lat="44.63748" lon="5.77375">
        <ele>1319.6</ele>
        <time>2023-05-18T08:57:50Z</time>
      </trkpt>
      <trkpt lat="44.6375" lon="5.77376">
        <ele>1319.6</ele>
        <time>2023-05-18T08:58:05Z</time>
      </trkpt>
      <trkpt lat="44.63751" lon="5.77377">
        <ele>1319.8</ele>
        <time>2023-05-18T08:58:06Z</time>
      </trkpt>
      <trkpt lat="44.63752" lon="5.77377">
        <ele>1319.8</ele>
        <time>2023-05-18T08:58:07Z</time>
      </trkpt>
      <trkpt lat="44.63755" lon="5.77378">
        <ele>1319.8</ele>
        <time>2023-05-18T08:58:09Z</time>
      </trkpt>
      <trkpt lat="44.63756" lon="5.77379">
        <ele>1319.8</ele>
        <time>2023-05-18T08:58:10Z</time>
      </trkpt>
      <trkpt lat="44.63758" lon="5.77379">
        <ele>1320</ele>
        <time>2023-05-18T08:58:11Z</time>
      </trkpt>
      <trkpt lat="44.63761" lon="5.7738">
        <ele>1320.2</ele>
        <time>2023-05-18T08:58:13Z</time>
      </trkpt>
      <trkpt lat="44.63765" lon="5.77379">
        <ele>1320.4</ele>
        <time>2023-05-18T08:58:16Z</time>
      </trkpt>
      <trkpt lat="44.63768" lon="5.77379">
        <ele>1320.4</ele>
        <time>2023-05-18T08:58:18Z</time>
      </trkpt>
      <trkpt lat="44.63771" lon="5.77379">
        <ele>1320.6</ele>
        <time>2023-05-18T08:58:20Z</time>
      </trkpt>
      <trkpt lat="44.63772" lon="5.77378">
        <ele>1320.8</ele>
        <time>2023-05-18T08:58:21Z</time>
      </trkpt>
      <trkpt lat="44.63773" lon="5.77378">
        <ele>1320.8</ele>
        <time>2023-05-18T08:58:22Z</time>
      </trkpt>
      <trkpt lat="44.63775" lon="5.77378">
        <ele>1321</ele>
        <time>2023-05-18T08:58:23Z</time>
      </trkpt>
      <trkpt lat="44.63777" lon="5.77377">
        <ele>1321</ele>
        <time>2023-05-18T08:58:24Z</time>
      </trkpt>
      <trkpt lat="44.63778" lon="5.77377">
        <ele>1321.2</ele>
        <time>2023-05-18T08:58:25Z</time>
      </trkpt>
      <trkpt lat="44.6378" lon="5.77377">
        <ele>1321.4</ele>
        <time>2023-05-18T08:58:26Z</time>
      </trkpt>
      <trkpt lat="44.63781" lon="5.77377">
        <ele>1321.4</ele>
        <time>2023-05-18T08:58:27Z</time>
      </trkpt>
      <trkpt lat="44.63786" lon="5.77377">
        <ele>1321.6</ele>
        <time>2023-05-18T08:58:30Z</time>
      </trkpt>
      <trkpt lat="44.63787" lon="5.77377">
        <ele>1321.8</ele>
        <time>2023-05-18T08:58:31Z</time>
      </trkpt>
      <trkpt lat="44.63788" lon="5.77377">
        <ele>1322</ele>
        <time>2023-05-18T08:58:32Z</time>
      </trkpt>
      <trkpt lat="44.63793" lon="5.77379">
        <ele>1322.2</ele>
        <time>2023-05-18T08:58:35Z</time>
      </trkpt>
      <trkpt lat="44.63794" lon="5.77378">
        <ele>1322.4</ele>
        <time>2023-05-18T08:58:36Z</time>
      </trkpt>
      <trkpt lat="44.63796" lon="5.77378">
        <ele>1322.6</ele>
        <time>2023-05-18T08:58:37Z</time>
      </trkpt>
      <trkpt lat="44.63799" lon="5.77375">
        <ele>1322.8</ele>
        <time>2023-05-18T08:58:39Z</time>
      </trkpt>
      <trkpt lat="44.63801" lon="5.77374">
        <ele>1323</ele>
        <time>2023-05-18T08:58:40Z</time>
      </trkpt>
      <trkpt lat="44.63803" lon="5.77374">
        <ele>1323.2</ele>
        <time>2023-05-18T08:58:41Z</time>
      </trkpt>
      <trkpt lat="44.63804" lon="5.77373">
        <ele>1323.2</ele>
        <time>2023-05-18T08:58:42Z</time>
      </trkpt>
      <trkpt lat="44.63806" lon="5.77371">
        <ele>1323.4</ele>
        <time>2023-05-18T08:58:43Z</time>
      </trkpt>
      <trkpt lat="44.63806" lon="5.7737">
        <ele>1323.4</ele>
        <time>2023-05-18T08:58:44Z</time>
      </trkpt>
      <trkpt lat="44.63807" lon="5.77369">
        <ele>1323.6</ele>
        <time>2023-05-18T08:58:45Z</time>
      </trkpt>
      <trkpt lat="44.63808" lon="5.77369">
        <ele>1323.6</ele>
        <time>2023-05-18T08:58:46Z</time>
      </trkpt>
      <trkpt lat="44.6381" lon="5.77369">
        <ele>1324</ele>
        <time>2023-05-18T08:58:47Z</time>
      </trkpt>
      <trkpt lat="44.63811" lon="5.77368">
        <ele>1324</ele>
        <time>2023-05-18T08:58:48Z</time>
      </trkpt>
      <trkpt lat="44.63812" lon="5.77368">
        <ele>1324.2</ele>
        <time>2023-05-18T08:58:49Z</time>
      </trkpt>
      <trkpt lat="44.63813" lon="5.77367">
        <ele>1324.2</ele>
        <time>2023-05-18T08:58:50Z</time>
      </trkpt>
      <trkpt lat="44.63814" lon="5.77366">
        <ele>1324.2</ele>
        <time>2023-05-18T08:58:51Z</time>
      </trkpt>
      <trkpt lat="44.63814" lon="5.77365">
        <ele>1324.4</ele>
        <time>2023-05-18T08:58:52Z</time>
      </trkpt>
      <trkpt lat="44.63815" lon="5.77365">
        <ele>1324.6</ele>
        <time>2023-05-18T08:58:53Z</time>
      </trkpt>
      <trkpt lat="44.63815" lon="5.77364">
        <ele>1324.8</ele>
        <time>2023-05-18T08:58:54Z</time>
      </trkpt>
      <trkpt lat="44.63816" lon="5.77364">
        <ele>1324.8</ele>
        <time>2023-05-18T08:58:55Z</time>
      </trkpt>
      <trkpt lat="44.63817" lon="5.77363">
        <ele>1325</ele>
        <time>2023-05-18T08:58:56Z</time>
      </trkpt>
      <trkpt lat="44.63818" lon="5.77362">
        <ele>1325.2</ele>
        <time>2023-05-18T08:58:57Z</time>
      </trkpt>
      <trkpt lat="44.63819" lon="5.77361">
        <ele>1325.2</ele>
        <time>2023-05-18T08:58:58Z</time>
      </trkpt>
      <trkpt lat="44.6382" lon="5.7736">
        <ele>1325.4</ele>
        <time>2023-05-18T08:58:59Z</time>
      </trkpt>
      <trkpt lat="44.63821" lon="5.77359">
        <ele>1325.4</ele>
        <time>2023-05-18T08:59:00Z</time>
      </trkpt>
      <trkpt lat="44.63822" lon="5.77358">
        <ele>1325.6</ele>
        <time>2023-05-18T08:59:01Z</time>
      </trkpt>
      <trkpt lat="44.63824" lon="5.77357">
        <ele>1325.8</ele>
        <time>2023-05-18T08:59:02Z</time>
      </trkpt>
      <trkpt lat="44.63825" lon="5.77357">
        <ele>1325.8</ele>
        <time>2023-05-18T08:59:03Z</time>
      </trkpt>
      <trkpt lat="44.63826" lon="5.77357">
        <ele>1325.8</ele>
        <time>2023-05-18T08:59:04Z</time>
      </trkpt>
      <trkpt lat="44.63828" lon="5.77357">
        <ele>1326.2</ele>
        <time>2023-05-18T08:59:05Z</time>
      </trkpt>
      <trkpt lat="44.6383" lon="5.77357">
        <ele>1326.4</ele>
        <time>2023-05-18T08:59:06Z</time>
      </trkpt>
      <trkpt lat="44.63831" lon="5.77357">
        <ele>1326.4</ele>
        <time>2023-05-18T08:59:07Z</time>
      </trkpt>
      <trkpt lat="44.63832" lon="5.77356">
        <ele>1326.6</ele>
        <time>2023-05-18T08:59:08Z</time>
      </trkpt>
      <trkpt lat="44.63833" lon="5.77356">
        <ele>1326.6</ele>
        <time>2023-05-18T08:59:09Z</time>
      </trkpt>
      <trkpt lat="44.63835" lon="5.77355">
        <ele>1326.8</ele>
        <time>2023-05-18T08:59:10Z</time>
      </trkpt>
      <trkpt lat="44.63837" lon="5.77355">
        <ele>1326.8</ele>
        <time>2023-05-18T08:59:11Z</time>
      </trkpt>
      <trkpt lat="44.63839" lon="5.77356">
        <ele>1327</ele>
        <time>2023-05-18T08:59:12Z</time>
      </trkpt>
      <trkpt lat="44.63841" lon="5.77356">
        <ele>1327</ele>
        <time>2023-05-18T08:59:13Z</time>
      </trkpt>
      <trkpt lat="44.63842" lon="5.77356">
        <ele>1327.2</ele>
        <time>2023-05-18T08:59:14Z</time>
      </trkpt>
      <trkpt lat="44.63843" lon="5.77357">
        <ele>1327.2</ele>
        <time>2023-05-18T08:59:15Z</time>
      </trkpt>
      <trkpt lat="44.63844" lon="5.77358">
        <ele>1327.4</ele>
        <time>2023-05-18T08:59:16Z</time>
      </trkpt>
      <trkpt lat="44.63846" lon="5.7736">
        <ele>1327.4</ele>
        <time>2023-05-18T08:59:17Z</time>
      </trkpt>
      <trkpt lat="44.63847" lon="5.77361">
        <ele>1327.6</ele>
        <time>2023-05-18T08:59:18Z</time>
      </trkpt>
      <trkpt lat="44.63849" lon="5.77362">
        <ele>1327.6</ele>
        <time>2023-05-18T08:59:19Z</time>
      </trkpt>
      <trkpt lat="44.6385" lon="5.77363">
        <ele>1327.8</ele>
        <time>2023-05-18T08:59:20Z</time>
      </trkpt>
      <trkpt lat="44.63851" lon="5.77364">
        <ele>1328</ele>
        <time>2023-05-18T08:59:21Z</time>
      </trkpt>
      <trkpt lat="44.63853" lon="5.77364">
        <ele>1328.2</ele>
        <time>2023-05-18T08:59:22Z</time>
      </trkpt>
      <trkpt lat="44.63855" lon="5.77364">
        <ele>1328.4</ele>
        <time>2023-05-18T08:59:23Z</time>
      </trkpt>
      <trkpt lat="44.63857" lon="5.77366">
        <ele>1328.4</ele>
        <time>2023-05-18T08:59:24Z</time>
      </trkpt>
      <trkpt lat="44.63858" lon="5.77368">
        <ele>1328.6</ele>
        <time>2023-05-18T08:59:25Z</time>
      </trkpt>
      <trkpt lat="44.6386" lon="5.7737">
        <ele>1328.6</ele>
        <time>2023-05-18T08:59:26Z</time>
      </trkpt>
      <trkpt lat="44.63861" lon="5.77372">
        <ele>1328.6</ele>
        <time>2023-05-18T08:59:27Z</time>
      </trkpt>
      <trkpt lat="44.63863" lon="5.77373">
        <ele>1328.6</ele>
        <time>2023-05-18T08:59:28Z</time>
      </trkpt>
      <trkpt lat="44.63864" lon="5.77374">
        <ele>1328.8</ele>
        <time>2023-05-18T08:59:29Z</time>
      </trkpt>
      <trkpt lat="44.63866" lon="5.77376">
        <ele>1328.8</ele>
        <time>2023-05-18T08:59:30Z</time>
      </trkpt>
      <trkpt lat="44.63868" lon="5.77377">
        <ele>1328.8</ele>
        <time>2023-05-18T08:59:31Z</time>
      </trkpt>
      <trkpt lat="44.6387" lon="5.77379">
        <ele>1328.8</ele>
        <time>2023-05-18T08:59:32Z</time>
      </trkpt>
      <trkpt lat="44.63872" lon="5.7738">
        <ele>1328.8</ele>
        <time>2023-05-18T08:59:33Z</time>
      </trkpt>
      <trkpt lat="44.63874" lon="5.77381">
        <ele>1328.8</ele>
        <time>2023-05-18T08:59:34Z</time>
      </trkpt>
      <trkpt lat="44.63876" lon="5.77382">
        <ele>1328.8</ele>
        <time>2023-05-18T08:59:35Z</time>
      </trkpt>
      <trkpt lat="44.63878" lon="5.77384">
        <ele>1328.8</ele>
        <time>2023-05-18T08:59:36Z</time>
      </trkpt>
      <trkpt lat="44.63884" lon="5.77385">
        <ele>1328.8</ele>
        <time>2023-05-18T08:59:38Z</time>
      </trkpt>
      <trkpt lat="44.63891" lon="5.77383">
        <ele>1328.8</ele>
        <time>2023-05-18T08:59:40Z</time>
      </trkpt>
      <trkpt lat="44.63894" lon="5.77381">
        <ele>1328.6</ele>
        <time>2023-05-18T08:59:41Z</time>
      </trkpt>
      <trkpt lat="44.63896" lon="5.77379">
        <ele>1328.6</ele>
        <time>2023-05-18T08:59:42Z</time>
      </trkpt>
      <trkpt lat="44.63897" lon="5.77376">
        <ele>1328.6</ele>
        <time>2023-05-18T08:59:43Z</time>
      </trkpt>
      <trkpt lat="44.63899" lon="5.77374">
        <ele>1328.6</ele>
        <time>2023-05-18T08:59:44Z</time>
      </trkpt>
      <trkpt lat="44.63899" lon="5.77372">
        <ele>1328.4</ele>
        <time>2023-05-18T08:59:45Z</time>
      </trkpt>
      <trkpt lat="44.639" lon="5.7737">
        <ele>1328.4</ele>
        <time>2023-05-18T08:59:46Z</time>
      </trkpt>
      <trkpt lat="44.639" lon="5.77368">
        <ele>1328.2</ele>
        <time>2023-05-18T08:59:47Z</time>
      </trkpt>
      <trkpt lat="44.63901" lon="5.77367">
        <ele>1328.2</ele>
        <time>2023-05-18T08:59:48Z</time>
      </trkpt>
      <trkpt lat="44.63901" lon="5.77365">
        <ele>1328.2</ele>
        <time>2023-05-18T08:59:49Z</time>
      </trkpt>
      <trkpt lat="44.63902" lon="5.77363">
        <ele>1328.2</ele>
        <time>2023-05-18T08:59:50Z</time>
      </trkpt>
      <trkpt lat="44.63905" lon="5.77345">
        <ele>1328.2</ele>
        <time>2023-05-18T08:59:59Z</time>
      </trkpt>
      <trkpt lat="44.63906" lon="5.77337">
        <ele>1328.2</ele>
        <time>2023-05-18T09:00:07Z</time>
      </trkpt>
      <trkpt lat="44.63906" lon="5.77335">
        <ele>1328.2</ele>
        <time>2023-05-18T09:00:08Z</time>
      </trkpt>
      <trkpt lat="44.63907" lon="5.77333">
        <ele>1328.2</ele>
        <time>2023-05-18T09:00:09Z</time>
      </trkpt>
      <trkpt lat="44.63907" lon="5.77332">
        <ele>1328.4</ele>
        <time>2023-05-18T09:00:10Z</time>
      </trkpt>
      <trkpt lat="44.63908" lon="5.77331">
        <ele>1328.4</ele>
        <time>2023-05-18T09:00:11Z</time>
      </trkpt>
      <trkpt lat="44.63909" lon="5.77331">
        <ele>1328.4</ele>
        <time>2023-05-18T09:00:12Z</time>
      </trkpt>
      <trkpt lat="44.63912" lon="5.77334">
        <ele>1328.4</ele>
        <time>2023-05-18T09:00:15Z</time>
      </trkpt>
      <trkpt lat="44.63913" lon="5.77335">
        <ele>1328.4</ele>
        <time>2023-05-18T09:00:16Z</time>
      </trkpt>
      <trkpt lat="44.63914" lon="5.77336">
        <ele>1328.4</ele>
        <time>2023-05-18T09:00:17Z</time>
      </trkpt>
      <trkpt lat="44.63914" lon="5.77336">
        <ele>1328.4</ele>
        <time>2023-05-18T09:00:18Z</time>
      </trkpt>
      <trkpt lat="44.63914" lon="5.77336">
        <ele>1328.4</ele>
        <time>2023-05-18T09:00:19Z</time>
      </trkpt>
      <trkpt lat="44.63914" lon="5.77336">
        <ele>1328.6</ele>
        <time>2023-05-18T09:00:20Z</time>
      </trkpt>
      <trkpt lat="44.63914" lon="5.77336">
        <ele>1329</ele>
        <time>2023-05-18T09:00:21Z</time>
      </trkpt>
      <trkpt lat="44.63914" lon="5.77336">
        <ele>1329.4</ele>
        <time>2023-05-18T09:00:22Z</time>
      </trkpt>
      <trkpt lat="44.63914" lon="5.77338">
        <ele>1329.8</ele>
        <time>2023-05-18T09:00:25Z</time>
      </trkpt>
      <trkpt lat="44.63914" lon="5.77339">
        <ele>1330</ele>
        <time>2023-05-18T09:00:26Z</time>
      </trkpt>
      <trkpt lat="44.63913" lon="5.7734">
        <ele>1330.2</ele>
        <time>2023-05-18T09:00:28Z</time>
      </trkpt>
      <trkpt lat="44.63913" lon="5.7734">
        <ele>1330.4</ele>
        <time>2023-05-18T09:00:29Z</time>
      </trkpt>
      <trkpt lat="44.63913" lon="5.77341">
        <ele>1330.4</ele>
        <time>2023-05-18T09:00:30Z</time>
      </trkpt>
      <trkpt lat="44.63914" lon="5.77342">
        <ele>1330.4</ele>
        <time>2023-05-18T09:00:31Z</time>
      </trkpt>
      <trkpt lat="44.63914" lon="5.77343">
        <ele>1330.4</ele>
        <time>2023-05-18T09:00:32Z</time>
      </trkpt>
      <trkpt lat="44.63914" lon="5.77344">
        <ele>1330.6</ele>
        <time>2023-05-18T09:00:34Z</time>
      </trkpt>
      <trkpt lat="44.63914" lon="5.77345">
        <ele>1330.8</ele>
        <time>2023-05-18T09:00:35Z</time>
      </trkpt>
      <trkpt lat="44.63915" lon="5.77346">
        <ele>1330.8</ele>
        <time>2023-05-18T09:00:36Z</time>
      </trkpt>
      <trkpt lat="44.63915" lon="5.77348">
        <ele>1331</ele>
        <time>2023-05-18T09:00:38Z</time>
      </trkpt>
      <trkpt lat="44.63915" lon="5.77348">
        <ele>1331</ele>
        <time>2023-05-18T09:00:39Z</time>
      </trkpt>
      <trkpt lat="44.63915" lon="5.77348">
        <ele>1331.4</ele>
        <time>2023-05-18T09:00:40Z</time>
      </trkpt>
      <trkpt lat="44.63915" lon="5.77349">
        <ele>1331.4</ele>
        <time>2023-05-18T09:00:41Z</time>
      </trkpt>
      <trkpt lat="44.63915" lon="5.77349">
        <ele>1331.6</ele>
        <time>2023-05-18T09:00:42Z</time>
      </trkpt>
      <trkpt lat="44.63915" lon="5.77349">
        <ele>1331.6</ele>
        <time>2023-05-18T09:00:43Z</time>
      </trkpt>
      <trkpt lat="44.63915" lon="5.77349">
        <ele>1331.6</ele>
        <time>2023-05-18T09:00:44Z</time>
      </trkpt>
      <trkpt lat="44.63915" lon="5.77349">
        <ele>1331.8</ele>
        <time>2023-05-18T09:00:45Z</time>
      </trkpt>
      <trkpt lat="44.63915" lon="5.7735">
        <ele>1332</ele>
        <time>2023-05-18T09:00:46Z</time>
      </trkpt>
      <trkpt lat="44.63915" lon="5.7735">
        <ele>1332.2</ele>
        <time>2023-05-18T09:00:47Z</time>
      </trkpt>
      <trkpt lat="44.63915" lon="5.7735">
        <ele>1332.6</ele>
        <time>2023-05-18T09:00:50Z</time>
      </trkpt>
      <trkpt lat="44.63915" lon="5.7735">
        <ele>1332.6</ele>
        <time>2023-05-18T09:00:51Z</time>
      </trkpt>
      <trkpt lat="44.63915" lon="5.7735">
        <ele>1332.8</ele>
        <time>2023-05-18T09:00:53Z</time>
      </trkpt>
      <trkpt lat="44.63915" lon="5.77351">
        <ele>1332.8</ele>
        <time>2023-05-18T09:00:54Z</time>
      </trkpt>
      <trkpt lat="44.63916" lon="5.77353">
        <ele>1333</ele>
        <time>2023-05-18T09:00:55Z</time>
      </trkpt>
      <trkpt lat="44.63916" lon="5.77354">
        <ele>1333.2</ele>
        <time>2023-05-18T09:00:56Z</time>
      </trkpt>
      <trkpt lat="44.63916" lon="5.77354">
        <ele>1333.2</ele>
        <time>2023-05-18T09:00:57Z</time>
      </trkpt>
      <trkpt lat="44.63916" lon="5.77354">
        <ele>1333.4</ele>
        <time>2023-05-18T09:00:58Z</time>
      </trkpt>
      <trkpt lat="44.63916" lon="5.77354">
        <ele>1333.4</ele>
        <time>2023-05-18T09:00:59Z</time>
      </trkpt>
      <trkpt lat="44.63917" lon="5.77354">
        <ele>1333.6</ele>
        <time>2023-05-18T09:01:00Z</time>
      </trkpt>
      <trkpt lat="44.63917" lon="5.77355">
        <ele>1333.6</ele>
        <time>2023-05-18T09:01:01Z</time>
      </trkpt>
      <trkpt lat="44.63917" lon="5.77355">
        <ele>1333.8</ele>
        <time>2023-05-18T09:01:02Z</time>
      </trkpt>
      <trkpt lat="44.63917" lon="5.77355">
        <ele>1333.8</ele>
        <time>2023-05-18T09:01:03Z</time>
      </trkpt>
      <trkpt lat="44.63917" lon="5.77356">
        <ele>1333.8</ele>
        <time>2023-05-18T09:01:04Z</time>
      </trkpt>
      <trkpt lat="44.63918" lon="5.77357">
        <ele>1333.8</ele>
        <time>2023-05-18T09:01:05Z</time>
      </trkpt>
      <trkpt lat="44.63918" lon="5.77357">
        <ele>1333.8</ele>
        <time>2023-05-18T09:01:06Z</time>
      </trkpt>
      <trkpt lat="44.63919" lon="5.77358">
        <ele>1334</ele>
        <time>2023-05-18T09:01:07Z</time>
      </trkpt>
      <trkpt lat="44.63919" lon="5.77359">
        <ele>1334.2</ele>
        <time>2023-05-18T09:01:08Z</time>
      </trkpt>
      <trkpt lat="44.63919" lon="5.77361">
        <ele>1334.2</ele>
        <time>2023-05-18T09:01:09Z</time>
      </trkpt>
      <trkpt lat="44.6392" lon="5.77363">
        <ele>1334.4</ele>
        <time>2023-05-18T09:01:10Z</time>
      </trkpt>
      <trkpt lat="44.6392" lon="5.77365">
        <ele>1334.4</ele>
        <time>2023-05-18T09:01:11Z</time>
      </trkpt>
      <trkpt lat="44.63921" lon="5.77366">
        <ele>1334.6</ele>
        <time>2023-05-18T09:01:13Z</time>
      </trkpt>
      <trkpt lat="44.63922" lon="5.77367">
        <ele>1334.8</ele>
        <time>2023-05-18T09:01:14Z</time>
      </trkpt>
      <trkpt lat="44.63922" lon="5.77368">
        <ele>1334.8</ele>
        <time>2023-05-18T09:01:15Z</time>
      </trkpt>
      <trkpt lat="44.63923" lon="5.77369">
        <ele>1335.2</ele>
        <time>2023-05-18T09:01:20Z</time>
      </trkpt>
      <trkpt lat="44.63924" lon="5.7737">
        <ele>1335.2</ele>
        <time>2023-05-18T09:01:21Z</time>
      </trkpt>
      <trkpt lat="44.63925" lon="5.77371">
        <ele>1335.4</ele>
        <time>2023-05-18T09:01:22Z</time>
      </trkpt>
      <trkpt lat="44.63926" lon="5.77372">
        <ele>1335.8</ele>
        <time>2023-05-18T09:01:23Z</time>
      </trkpt>
      <trkpt lat="44.63926" lon="5.77372">
        <ele>1336</ele>
        <time>2023-05-18T09:01:24Z</time>
      </trkpt>
      <trkpt lat="44.63926" lon="5.77372">
        <ele>1336.2</ele>
        <time>2023-05-18T09:01:25Z</time>
      </trkpt>
      <trkpt lat="44.63926" lon="5.77372">
        <ele>1336.4</ele>
        <time>2023-05-18T09:01:26Z</time>
      </trkpt>
      <trkpt lat="44.63926" lon="5.77372">
        <ele>1336.8</ele>
        <time>2023-05-18T09:01:27Z</time>
      </trkpt>
      <trkpt lat="44.63926" lon="5.77372">
        <ele>1337</ele>
        <time>2023-05-18T09:01:28Z</time>
      </trkpt>
      <trkpt lat="44.63927" lon="5.77372">
        <ele>1337.4</ele>
        <time>2023-05-18T09:01:30Z</time>
      </trkpt>
      <trkpt lat="44.63927" lon="5.77372">
        <ele>1337.6</ele>
        <time>2023-05-18T09:01:31Z</time>
      </trkpt>
      <trkpt lat="44.63928" lon="5.77373">
        <ele>1337.8</ele>
        <time>2023-05-18T09:01:32Z</time>
      </trkpt>
      <trkpt lat="44.63929" lon="5.77373">
        <ele>1337.8</ele>
        <time>2023-05-18T09:01:33Z</time>
      </trkpt>
      <trkpt lat="44.63929" lon="5.77373">
        <ele>1338</ele>
        <time>2023-05-18T09:01:34Z</time>
      </trkpt>
      <trkpt lat="44.63929" lon="5.77373">
        <ele>1338.2</ele>
        <time>2023-05-18T09:01:35Z</time>
      </trkpt>
      <trkpt lat="44.63929" lon="5.77373">
        <ele>1338.2</ele>
        <time>2023-05-18T09:01:36Z</time>
      </trkpt>
      <trkpt lat="44.63929" lon="5.77373">
        <ele>1338.4</ele>
        <time>2023-05-18T09:01:37Z</time>
      </trkpt>
      <trkpt lat="44.6393" lon="5.77373">
        <ele>1338.4</ele>
        <time>2023-05-18T09:01:38Z</time>
      </trkpt>
      <trkpt lat="44.6393" lon="5.77373">
        <ele>1338.4</ele>
        <time>2023-05-18T09:01:39Z</time>
      </trkpt>
      <trkpt lat="44.6393" lon="5.77373">
        <ele>1338.6</ele>
        <time>2023-05-18T09:01:40Z</time>
      </trkpt>
      <trkpt lat="44.63931" lon="5.77374">
        <ele>1338.6</ele>
        <time>2023-05-18T09:01:41Z</time>
      </trkpt>
      <trkpt lat="44.63933" lon="5.77377">
        <ele>1338.8</ele>
        <time>2023-05-18T09:01:42Z</time>
      </trkpt>
      <trkpt lat="44.63935" lon="5.77377">
        <ele>1339</ele>
        <time>2023-05-18T09:01:43Z</time>
      </trkpt>
      <trkpt lat="44.63935" lon="5.77377">
        <ele>1339.2</ele>
        <time>2023-05-18T09:01:44Z</time>
      </trkpt>
      <trkpt lat="44.63935" lon="5.77377">
        <ele>1339.4</ele>
        <time>2023-05-18T09:01:45Z</time>
      </trkpt>
      <trkpt lat="44.63936" lon="5.77377">
        <ele>1339.4</ele>
        <time>2023-05-18T09:01:46Z</time>
      </trkpt>
      <trkpt lat="44.63937" lon="5.77378">
        <ele>1339.6</ele>
        <time>2023-05-18T09:01:47Z</time>
      </trkpt>
      <trkpt lat="44.63937" lon="5.77378">
        <ele>1339.6</ele>
        <time>2023-05-18T09:01:48Z</time>
      </trkpt>
      <trkpt lat="44.63938" lon="5.77378">
        <ele>1339.8</ele>
        <time>2023-05-18T09:01:49Z</time>
      </trkpt>
      <trkpt lat="44.63939" lon="5.77378">
        <ele>1340</ele>
        <time>2023-05-18T09:01:50Z</time>
      </trkpt>
      <trkpt lat="44.63939" lon="5.77378">
        <ele>1340</ele>
        <time>2023-05-18T09:01:51Z</time>
      </trkpt>
      <trkpt lat="44.6394" lon="5.77379">
        <ele>1340.2</ele>
        <time>2023-05-18T09:01:52Z</time>
      </trkpt>
      <trkpt lat="44.63941" lon="5.77379">
        <ele>1340.4</ele>
        <time>2023-05-18T09:01:53Z</time>
      </trkpt>
      <trkpt lat="44.63941" lon="5.77379">
        <ele>1340.4</ele>
        <time>2023-05-18T09:01:54Z</time>
      </trkpt>
      <trkpt lat="44.63941" lon="5.77379">
        <ele>1340.6</ele>
        <time>2023-05-18T09:01:55Z</time>
      </trkpt>
      <trkpt lat="44.63941" lon="5.77379">
        <ele>1340.8</ele>
        <time>2023-05-18T09:01:56Z</time>
      </trkpt>
      <trkpt lat="44.63941" lon="5.77379">
        <ele>1341.2</ele>
        <time>2023-05-18T09:01:57Z</time>
      </trkpt>
      <trkpt lat="44.63941" lon="5.77379">
        <ele>1341.4</ele>
        <time>2023-05-18T09:01:59Z</time>
      </trkpt>
      <trkpt lat="44.63942" lon="5.7738">
        <ele>1341.6</ele>
        <time>2023-05-18T09:02:00Z</time>
      </trkpt>
      <trkpt lat="44.63942" lon="5.7738">
        <ele>1341.8</ele>
        <time>2023-05-18T09:02:01Z</time>
      </trkpt>
      <trkpt lat="44.63943" lon="5.7738">
        <ele>1342.2</ele>
        <time>2023-05-18T09:02:04Z</time>
      </trkpt>
      <trkpt lat="44.63944" lon="5.7738">
        <ele>1342.6</ele>
        <time>2023-05-18T09:02:06Z</time>
      </trkpt>
      <trkpt lat="44.63944" lon="5.7738">
        <ele>1343.4</ele>
        <time>2023-05-18T09:02:13Z</time>
      </trkpt>
      <trkpt lat="44.63944" lon="5.7738">
        <ele>1343.6</ele>
        <time>2023-05-18T09:02:14Z</time>
      </trkpt>
      <trkpt lat="44.63944" lon="5.7738">
        <ele>1343.8</ele>
        <time>2023-05-18T09:02:16Z</time>
      </trkpt>
      <trkpt lat="44.63945" lon="5.77381">
        <ele>1344.4</ele>
        <time>2023-05-18T09:02:23Z</time>
      </trkpt>
      <trkpt lat="44.63947" lon="5.77383">
        <ele>1344.6</ele>
        <time>2023-05-18T09:02:24Z</time>
      </trkpt>
      <trkpt lat="44.63947" lon="5.77383">
        <ele>1344.8</ele>
        <time>2023-05-18T09:02:25Z</time>
      </trkpt>
      <trkpt lat="44.63948" lon="5.77383">
        <ele>1345.2</ele>
        <time>2023-05-18T09:02:26Z</time>
      </trkpt>
      <trkpt lat="44.63948" lon="5.77384">
        <ele>1345.2</ele>
        <time>2023-05-18T09:02:27Z</time>
      </trkpt>
      <trkpt lat="44.63949" lon="5.77384">
        <ele>1345.4</ele>
        <time>2023-05-18T09:02:28Z</time>
      </trkpt>
      <trkpt lat="44.63949" lon="5.77385">
        <ele>1345.6</ele>
        <time>2023-05-18T09:02:29Z</time>
      </trkpt>
      <trkpt lat="44.6395" lon="5.77385">
        <ele>1345.8</ele>
        <time>2023-05-18T09:02:30Z</time>
      </trkpt>
      <trkpt lat="44.63952" lon="5.77386">
        <ele>1346</ele>
        <time>2023-05-18T09:02:31Z</time>
      </trkpt>
      <trkpt lat="44.63953" lon="5.77386">
        <ele>1346</ele>
        <time>2023-05-18T09:02:32Z</time>
      </trkpt>
      <trkpt lat="44.63954" lon="5.77387">
        <ele>1346.2</ele>
        <time>2023-05-18T09:02:33Z</time>
      </trkpt>
      <trkpt lat="44.63954" lon="5.77387">
        <ele>1346.4</ele>
        <time>2023-05-18T09:02:34Z</time>
      </trkpt>
      <trkpt lat="44.63954" lon="5.77387">
        <ele>1346.6</ele>
        <time>2023-05-18T09:02:35Z</time>
      </trkpt>
      <trkpt lat="44.63954" lon="5.77387">
        <ele>1346.6</ele>
        <time>2023-05-18T09:02:36Z</time>
      </trkpt>
      <trkpt lat="44.63954" lon="5.77387">
        <ele>1347</ele>
        <time>2023-05-18T09:02:38Z</time>
      </trkpt>
      <trkpt lat="44.63954" lon="5.77387">
        <ele>1347</ele>
        <time>2023-05-18T09:02:39Z</time>
      </trkpt>
      <trkpt lat="44.63954" lon="5.77387">
        <ele>1347.2</ele>
        <time>2023-05-18T09:02:40Z</time>
      </trkpt>
      <trkpt lat="44.63956" lon="5.77388">
        <ele>1347.4</ele>
        <time>2023-05-18T09:02:41Z</time>
      </trkpt>
      <trkpt lat="44.63959" lon="5.7739">
        <ele>1347.4</ele>
        <time>2023-05-18T09:02:42Z</time>
      </trkpt>
      <trkpt lat="44.6396" lon="5.77391">
        <ele>1347.6</ele>
        <time>2023-05-18T09:02:43Z</time>
      </trkpt>
      <trkpt lat="44.63961" lon="5.77392">
        <ele>1347.6</ele>
        <time>2023-05-18T09:02:44Z</time>
      </trkpt>
      <trkpt lat="44.63962" lon="5.77393">
        <ele>1347.6</ele>
        <time>2023-05-18T09:02:45Z</time>
      </trkpt>
      <trkpt lat="44.63964" lon="5.77394">
        <ele>1347.6</ele>
        <time>2023-05-18T09:02:46Z</time>
      </trkpt>
      <trkpt lat="44.63966" lon="5.77396">
        <ele>1347.8</ele>
        <time>2023-05-18T09:02:47Z</time>
      </trkpt>
      <trkpt lat="44.63967" lon="5.77397">
        <ele>1348</ele>
        <time>2023-05-18T09:02:48Z</time>
      </trkpt>
      <trkpt lat="44.63968" lon="5.77399">
        <ele>1348</ele>
        <time>2023-05-18T09:02:49Z</time>
      </trkpt>
      <trkpt lat="44.6397" lon="5.774">
        <ele>1348.2</ele>
        <time>2023-05-18T09:02:50Z</time>
      </trkpt>
      <trkpt lat="44.63971" lon="5.774">
        <ele>1348.4</ele>
        <time>2023-05-18T09:02:51Z</time>
      </trkpt>
      <trkpt lat="44.63971" lon="5.774">
        <ele>1348.4</ele>
        <time>2023-05-18T09:02:52Z</time>
      </trkpt>
      <trkpt lat="44.63971" lon="5.774">
        <ele>1348.6</ele>
        <time>2023-05-18T09:02:53Z</time>
      </trkpt>
      <trkpt lat="44.63971" lon="5.774">
        <ele>1348.6</ele>
        <time>2023-05-18T09:02:54Z</time>
      </trkpt>
      <trkpt lat="44.63971" lon="5.774">
        <ele>1348.8</ele>
        <time>2023-05-18T09:02:55Z</time>
      </trkpt>
      <trkpt lat="44.63971" lon="5.774">
        <ele>1348.8</ele>
        <time>2023-05-18T09:02:56Z</time>
      </trkpt>
      <trkpt lat="44.63972" lon="5.77401">
        <ele>1349</ele>
        <time>2023-05-18T09:02:57Z</time>
      </trkpt>
      <trkpt lat="44.63972" lon="5.77402">
        <ele>1349</ele>
        <time>2023-05-18T09:02:58Z</time>
      </trkpt>
      <trkpt lat="44.63974" lon="5.77402">
        <ele>1349.4</ele>
        <time>2023-05-18T09:03:00Z</time>
      </trkpt>
      <trkpt lat="44.63974" lon="5.77402">
        <ele>1349.6</ele>
        <time>2023-05-18T09:03:01Z</time>
      </trkpt>
      <trkpt lat="44.63975" lon="5.77402">
        <ele>1349.8</ele>
        <time>2023-05-18T09:03:02Z</time>
      </trkpt>
      <trkpt lat="44.63975" lon="5.77402">
        <ele>1349.8</ele>
        <time>2023-05-18T09:03:03Z</time>
      </trkpt>
      <trkpt lat="44.63975" lon="5.77402">
        <ele>1349.8</ele>
        <time>2023-05-18T09:03:04Z</time>
      </trkpt>
      <trkpt lat="44.63975" lon="5.77402">
        <ele>1350</ele>
        <time>2023-05-18T09:03:05Z</time>
      </trkpt>
      <trkpt lat="44.63975" lon="5.77402">
        <ele>1350</ele>
        <time>2023-05-18T09:03:06Z</time>
      </trkpt>
      <trkpt lat="44.63976" lon="5.77403">
        <ele>1350</ele>
        <time>2023-05-18T09:03:07Z</time>
      </trkpt>
      <trkpt lat="44.63979" lon="5.77405">
        <ele>1350.2</ele>
        <time>2023-05-18T09:03:08Z</time>
      </trkpt>
      <trkpt lat="44.63979" lon="5.77405">
        <ele>1350.4</ele>
        <time>2023-05-18T09:03:09Z</time>
      </trkpt>
      <trkpt lat="44.6398" lon="5.77405">
        <ele>1350.6</ele>
        <time>2023-05-18T09:03:10Z</time>
      </trkpt>
      <trkpt lat="44.63981" lon="5.77405">
        <ele>1350.8</ele>
        <time>2023-05-18T09:03:11Z</time>
      </trkpt>
      <trkpt lat="44.63982" lon="5.77406">
        <ele>1350.8</ele>
        <time>2023-05-18T09:03:12Z</time>
      </trkpt>
      <trkpt lat="44.63983" lon="5.77407">
        <ele>1351</ele>
        <time>2023-05-18T09:03:13Z</time>
      </trkpt>
      <trkpt lat="44.63983" lon="5.77407">
        <ele>1351</ele>
        <time>2023-05-18T09:03:14Z</time>
      </trkpt>
      <trkpt lat="44.63983" lon="5.77407">
        <ele>1351.2</ele>
        <time>2023-05-18T09:03:20Z</time>
      </trkpt>
      <trkpt lat="44.63983" lon="5.77407">
        <ele>1351.6</ele>
        <time>2023-05-18T09:03:28Z</time>
      </trkpt>
      <trkpt lat="44.63983" lon="5.77407">
        <ele>1351.4</ele>
        <time>2023-05-18T09:03:31Z</time>
      </trkpt>
      <trkpt lat="44.63985" lon="5.77407">
        <ele>1351.4</ele>
        <time>2023-05-18T09:03:32Z</time>
      </trkpt>
      <trkpt lat="44.63987" lon="5.77409">
        <ele>1351.4</ele>
        <time>2023-05-18T09:03:34Z</time>
      </trkpt>
      <trkpt lat="44.63988" lon="5.77409">
        <ele>1351.4</ele>
        <time>2023-05-18T09:03:35Z</time>
      </trkpt>
      <trkpt lat="44.63988" lon="5.7741">
        <ele>1351.4</ele>
        <time>2023-05-18T09:03:36Z</time>
      </trkpt>
      <trkpt lat="44.6399" lon="5.77412">
        <ele>1351.4</ele>
        <time>2023-05-18T09:03:37Z</time>
      </trkpt>
      <trkpt lat="44.6399" lon="5.77413">
        <ele>1351.6</ele>
        <time>2023-05-18T09:03:38Z</time>
      </trkpt>
      <trkpt lat="44.63991" lon="5.77413">
        <ele>1351.8</ele>
        <time>2023-05-18T09:03:40Z</time>
      </trkpt>
      <trkpt lat="44.63996" lon="5.77417">
        <ele>1352.4</ele>
        <time>2023-05-18T09:03:44Z</time>
      </trkpt>
      <trkpt lat="44.63997" lon="5.77419">
        <ele>1352.6</ele>
        <time>2023-05-18T09:03:45Z</time>
      </trkpt>
      <trkpt lat="44.63998" lon="5.7742">
        <ele>1353</ele>
        <time>2023-05-18T09:03:46Z</time>
      </trkpt>
      <trkpt lat="44.64009" lon="5.77429">
        <ele>1353.6</ele>
        <time>2023-05-18T09:03:52Z</time>
      </trkpt>
      <trkpt lat="44.64012" lon="5.77431">
        <ele>1354</ele>
        <time>2023-05-18T09:03:54Z</time>
      </trkpt>
      <trkpt lat="44.64014" lon="5.77432">
        <ele>1354</ele>
        <time>2023-05-18T09:03:55Z</time>
      </trkpt>
      <trkpt lat="44.6402" lon="5.77439">
        <ele>1354.4</ele>
        <time>2023-05-18T09:03:59Z</time>
      </trkpt>
      <trkpt lat="44.64022" lon="5.7744">
        <ele>1354.6</ele>
        <time>2023-05-18T09:04:00Z</time>
      </trkpt>
      <trkpt lat="44.64023" lon="5.7744">
        <ele>1354.6</ele>
        <time>2023-05-18T09:04:01Z</time>
      </trkpt>
      <trkpt lat="44.64024" lon="5.7744">
        <ele>1354.8</ele>
        <time>2023-05-18T09:04:02Z</time>
      </trkpt>
      <trkpt lat="44.64024" lon="5.7744">
        <ele>1355</ele>
        <time>2023-05-18T09:04:03Z</time>
      </trkpt>
      <trkpt lat="44.64024" lon="5.7744">
        <ele>1355.2</ele>
        <time>2023-05-18T09:04:04Z</time>
      </trkpt>
      <trkpt lat="44.64026" lon="5.77441">
        <ele>1355.4</ele>
        <time>2023-05-18T09:04:05Z</time>
      </trkpt>
      <trkpt lat="44.64028" lon="5.77442">
        <ele>1355.4</ele>
        <time>2023-05-18T09:04:06Z</time>
      </trkpt>
      <trkpt lat="44.64029" lon="5.77443">
        <ele>1355.6</ele>
        <time>2023-05-18T09:04:07Z</time>
      </trkpt>
      <trkpt lat="44.64029" lon="5.77444">
        <ele>1355.8</ele>
        <time>2023-05-18T09:04:08Z</time>
      </trkpt>
      <trkpt lat="44.6403" lon="5.77445">
        <ele>1355.8</ele>
        <time>2023-05-18T09:04:09Z</time>
      </trkpt>
      <trkpt lat="44.6403" lon="5.77445">
        <ele>1356</ele>
        <time>2023-05-18T09:04:10Z</time>
      </trkpt>
      <trkpt lat="44.6403" lon="5.77445">
        <ele>1356</ele>
        <time>2023-05-18T09:04:11Z</time>
      </trkpt>
      <trkpt lat="44.6403" lon="5.77445">
        <ele>1356.2</ele>
        <time>2023-05-18T09:04:12Z</time>
      </trkpt>
      <trkpt lat="44.64031" lon="5.77445">
        <ele>1356.4</ele>
        <time>2023-05-18T09:04:13Z</time>
      </trkpt>
      <trkpt lat="44.64032" lon="5.77447">
        <ele>1356.6</ele>
        <time>2023-05-18T09:04:14Z</time>
      </trkpt>
      <trkpt lat="44.64033" lon="5.77447">
        <ele>1356.8</ele>
        <time>2023-05-18T09:04:15Z</time>
      </trkpt>
      <trkpt lat="44.64033" lon="5.77448">
        <ele>1357</ele>
        <time>2023-05-18T09:04:16Z</time>
      </trkpt>
      <trkpt lat="44.64034" lon="5.77448">
        <ele>1357</ele>
        <time>2023-05-18T09:04:17Z</time>
      </trkpt>
      <trkpt lat="44.64035" lon="5.77449">
        <ele>1357.2</ele>
        <time>2023-05-18T09:04:18Z</time>
      </trkpt>
      <trkpt lat="44.64035" lon="5.7745">
        <ele>1357.4</ele>
        <time>2023-05-18T09:04:19Z</time>
      </trkpt>
      <trkpt lat="44.64035" lon="5.7745">
        <ele>1357.6</ele>
        <time>2023-05-18T09:04:20Z</time>
      </trkpt>
      <trkpt lat="44.64036" lon="5.77451">
        <ele>1357.6</ele>
        <time>2023-05-18T09:04:21Z</time>
      </trkpt>
      <trkpt lat="44.64037" lon="5.77453">
        <ele>1357.8</ele>
        <time>2023-05-18T09:04:22Z</time>
      </trkpt>
      <trkpt lat="44.64037" lon="5.77454">
        <ele>1358</ele>
        <time>2023-05-18T09:04:23Z</time>
      </trkpt>
      <trkpt lat="44.64038" lon="5.77454">
        <ele>1358</ele>
        <time>2023-05-18T09:04:24Z</time>
      </trkpt>
      <trkpt lat="44.64038" lon="5.77455">
        <ele>1358.4</ele>
        <time>2023-05-18T09:04:25Z</time>
      </trkpt>
      <trkpt lat="44.64038" lon="5.77455">
        <ele>1358.4</ele>
        <time>2023-05-18T09:04:26Z</time>
      </trkpt>
      <trkpt lat="44.64038" lon="5.77455">
        <ele>1358.6</ele>
        <time>2023-05-18T09:04:27Z</time>
      </trkpt>
      <trkpt lat="44.64038" lon="5.77455">
        <ele>1359</ele>
        <time>2023-05-18T09:04:30Z</time>
      </trkpt>
      <trkpt lat="44.64039" lon="5.77455">
        <ele>1359.4</ele>
        <time>2023-05-18T09:04:32Z</time>
      </trkpt>
      <trkpt lat="44.64039" lon="5.77455">
        <ele>1359.6</ele>
        <time>2023-05-18T09:04:36Z</time>
      </trkpt>
      <trkpt lat="44.64039" lon="5.77455">
        <ele>1359.8</ele>
        <time>2023-05-18T09:04:37Z</time>
      </trkpt>
      <trkpt lat="44.64039" lon="5.77455">
        <ele>1359.8</ele>
        <time>2023-05-18T09:04:38Z</time>
      </trkpt>
      <trkpt lat="44.6404" lon="5.77456">
        <ele>1359.8</ele>
        <time>2023-05-18T09:04:39Z</time>
      </trkpt>
      <trkpt lat="44.6404" lon="5.77456">
        <ele>1360</ele>
        <time>2023-05-18T09:04:40Z</time>
      </trkpt>
      <trkpt lat="44.64041" lon="5.77456">
        <ele>1360</ele>
        <time>2023-05-18T09:04:41Z</time>
      </trkpt>
      <trkpt lat="44.64041" lon="5.77456">
        <ele>1360.2</ele>
        <time>2023-05-18T09:04:42Z</time>
      </trkpt>
      <trkpt lat="44.64041" lon="5.77456">
        <ele>1360.4</ele>
        <time>2023-05-18T09:04:43Z</time>
      </trkpt>
      <trkpt lat="44.64041" lon="5.77456">
        <ele>1360.6</ele>
        <time>2023-05-18T09:04:45Z</time>
      </trkpt>
      <trkpt lat="44.64041" lon="5.77456">
        <ele>1360.8</ele>
        <time>2023-05-18T09:04:49Z</time>
      </trkpt>
      <trkpt lat="44.64041" lon="5.77456">
        <ele>1360.8</ele>
        <time>2023-05-18T09:04:50Z</time>
      </trkpt>
      <trkpt lat="44.64042" lon="5.77457">
        <ele>1361.4</ele>
        <time>2023-05-18T09:04:55Z</time>
      </trkpt>
      <trkpt lat="44.64043" lon="5.77458">
        <ele>1362</ele>
        <time>2023-05-18T09:04:57Z</time>
      </trkpt>
      <trkpt lat="44.64046" lon="5.7746">
        <ele>1362.4</ele>
        <time>2023-05-18T09:05:00Z</time>
      </trkpt>
      <trkpt lat="44.64046" lon="5.7746">
        <ele>1362.6</ele>
        <time>2023-05-18T09:05:03Z</time>
      </trkpt>
      <trkpt lat="44.64046" lon="5.7746">
        <ele>1362.8</ele>
        <time>2023-05-18T09:05:04Z</time>
      </trkpt>
      <trkpt lat="44.64046" lon="5.7746">
        <ele>1363</ele>
        <time>2023-05-18T09:05:05Z</time>
      </trkpt>
      <trkpt lat="44.64047" lon="5.77463">
        <ele>1363.2</ele>
        <time>2023-05-18T09:05:06Z</time>
      </trkpt>
      <trkpt lat="44.64049" lon="5.77465">
        <ele>1363.4</ele>
        <time>2023-05-18T09:05:07Z</time>
      </trkpt>
      <trkpt lat="44.64051" lon="5.77466">
        <ele>1363.4</ele>
        <time>2023-05-18T09:05:08Z</time>
      </trkpt>
      <trkpt lat="44.64052" lon="5.77466">
        <ele>1363.6</ele>
        <time>2023-05-18T09:05:09Z</time>
      </trkpt>
      <trkpt lat="44.64053" lon="5.77467">
        <ele>1363.8</ele>
        <time>2023-05-18T09:05:10Z</time>
      </trkpt>
      <trkpt lat="44.64054" lon="5.77468">
        <ele>1363.8</ele>
        <time>2023-05-18T09:05:11Z</time>
      </trkpt>
      <trkpt lat="44.64054" lon="5.77469">
        <ele>1364</ele>
        <time>2023-05-18T09:05:12Z</time>
      </trkpt>
      <trkpt lat="44.64054" lon="5.77469">
        <ele>1364</ele>
        <time>2023-05-18T09:05:13Z</time>
      </trkpt>
      <trkpt lat="44.64054" lon="5.77469">
        <ele>1364.2</ele>
        <time>2023-05-18T09:05:14Z</time>
      </trkpt>
      <trkpt lat="44.64054" lon="5.77469">
        <ele>1364.2</ele>
        <time>2023-05-18T09:05:15Z</time>
      </trkpt>
      <trkpt lat="44.64054" lon="5.77469">
        <ele>1364.4</ele>
        <time>2023-05-18T09:05:16Z</time>
      </trkpt>
      <trkpt lat="44.64054" lon="5.77469">
        <ele>1364.4</ele>
        <time>2023-05-18T09:05:17Z</time>
      </trkpt>
      <trkpt lat="44.64055" lon="5.7747">
        <ele>1364.4</ele>
        <time>2023-05-18T09:05:18Z</time>
      </trkpt>
      <trkpt lat="44.64056" lon="5.77471">
        <ele>1364.6</ele>
        <time>2023-05-18T09:05:19Z</time>
      </trkpt>
      <trkpt lat="44.64056" lon="5.77471">
        <ele>1364.6</ele>
        <time>2023-05-18T09:05:20Z</time>
      </trkpt>
      <trkpt lat="44.64057" lon="5.77471">
        <ele>1364.8</ele>
        <time>2023-05-18T09:05:21Z</time>
      </trkpt>
      <trkpt lat="44.64058" lon="5.77472">
        <ele>1365</ele>
        <time>2023-05-18T09:05:22Z</time>
      </trkpt>
      <trkpt lat="44.64059" lon="5.77473">
        <ele>1365.2</ele>
        <time>2023-05-18T09:05:23Z</time>
      </trkpt>
      <trkpt lat="44.6406" lon="5.77474">
        <ele>1365.4</ele>
        <time>2023-05-18T09:05:24Z</time>
      </trkpt>
      <trkpt lat="44.64061" lon="5.77474">
        <ele>1365.6</ele>
        <time>2023-05-18T09:05:25Z</time>
      </trkpt>
      <trkpt lat="44.64061" lon="5.77474">
        <ele>1365.8</ele>
        <time>2023-05-18T09:05:26Z</time>
      </trkpt>
      <trkpt lat="44.64061" lon="5.77474">
        <ele>1365.8</ele>
        <time>2023-05-18T09:05:27Z</time>
      </trkpt>
      <trkpt lat="44.64062" lon="5.77475">
        <ele>1365.8</ele>
        <time>2023-05-18T09:05:28Z</time>
      </trkpt>
      <trkpt lat="44.64062" lon="5.77475">
        <ele>1366</ele>
        <time>2023-05-18T09:05:29Z</time>
      </trkpt>
      <trkpt lat="44.64063" lon="5.77476">
        <ele>1366</ele>
        <time>2023-05-18T09:05:30Z</time>
      </trkpt>
      <trkpt lat="44.64064" lon="5.77477">
        <ele>1366.2</ele>
        <time>2023-05-18T09:05:31Z</time>
      </trkpt>
      <trkpt lat="44.64065" lon="5.77478">
        <ele>1366.2</ele>
        <time>2023-05-18T09:05:32Z</time>
      </trkpt>
      <trkpt lat="44.64065" lon="5.77478">
        <ele>1366.2</ele>
        <time>2023-05-18T09:05:33Z</time>
      </trkpt>
      <trkpt lat="44.64065" lon="5.77478">
        <ele>1366.4</ele>
        <time>2023-05-18T09:05:34Z</time>
      </trkpt>
      <trkpt lat="44.64066" lon="5.77479">
        <ele>1366.6</ele>
        <time>2023-05-18T09:05:35Z</time>
      </trkpt>
      <trkpt lat="44.64066" lon="5.7748">
        <ele>1366.6</ele>
        <time>2023-05-18T09:05:36Z</time>
      </trkpt>
      <trkpt lat="44.64067" lon="5.7748">
        <ele>1366.8</ele>
        <time>2023-05-18T09:05:37Z</time>
      </trkpt>
      <trkpt lat="44.64067" lon="5.7748">
        <ele>1366.8</ele>
        <time>2023-05-18T09:05:38Z</time>
      </trkpt>
      <trkpt lat="44.64067" lon="5.7748">
        <ele>1367</ele>
        <time>2023-05-18T09:05:39Z</time>
      </trkpt>
      <trkpt lat="44.64067" lon="5.7748">
        <ele>1367</ele>
        <time>2023-05-18T09:05:40Z</time>
      </trkpt>
      <trkpt lat="44.64067" lon="5.7748">
        <ele>1367.6</ele>
        <time>2023-05-18T09:05:43Z</time>
      </trkpt>
      <trkpt lat="44.64068" lon="5.77482">
        <ele>1367.8</ele>
        <time>2023-05-18T09:05:44Z</time>
      </trkpt>
      <trkpt lat="44.6407" lon="5.77484">
        <ele>1367.8</ele>
        <time>2023-05-18T09:05:45Z</time>
      </trkpt>
      <trkpt lat="44.64071" lon="5.77485">
        <ele>1368</ele>
        <time>2023-05-18T09:05:46Z</time>
      </trkpt>
      <trkpt lat="44.64072" lon="5.77486">
        <ele>1368</ele>
        <time>2023-05-18T09:05:47Z</time>
      </trkpt>
      <trkpt lat="44.64072" lon="5.77486">
        <ele>1368.2</ele>
        <time>2023-05-18T09:05:48Z</time>
      </trkpt>
      <trkpt lat="44.64072" lon="5.77486">
        <ele>1368.2</ele>
        <time>2023-05-18T09:05:49Z</time>
      </trkpt>
      <trkpt lat="44.64073" lon="5.77487">
        <ele>1368.4</ele>
        <time>2023-05-18T09:05:50Z</time>
      </trkpt>
      <trkpt lat="44.64075" lon="5.77488">
        <ele>1368.4</ele>
        <time>2023-05-18T09:05:51Z</time>
      </trkpt>
      <trkpt lat="44.64076" lon="5.7749">
        <ele>1368.4</ele>
        <time>2023-05-18T09:05:52Z</time>
      </trkpt>
      <trkpt lat="44.64076" lon="5.7749">
        <ele>1368.6</ele>
        <time>2023-05-18T09:05:53Z</time>
      </trkpt>
      <trkpt lat="44.64077" lon="5.77491">
        <ele>1368.6</ele>
        <time>2023-05-18T09:05:54Z</time>
      </trkpt>
      <trkpt lat="44.64077" lon="5.77491">
        <ele>1368.6</ele>
        <time>2023-05-18T09:05:55Z</time>
      </trkpt>
      <trkpt lat="44.64077" lon="5.77491">
        <ele>1368.6</ele>
        <time>2023-05-18T09:05:56Z</time>
      </trkpt>
      <trkpt lat="44.64077" lon="5.77491">
        <ele>1369</ele>
        <time>2023-05-18T09:05:57Z</time>
      </trkpt>
      <trkpt lat="44.64077" lon="5.77492">
        <ele>1369.2</ele>
        <time>2023-05-18T09:05:58Z</time>
      </trkpt>
      <trkpt lat="44.64078" lon="5.77492">
        <ele>1369.2</ele>
        <time>2023-05-18T09:05:59Z</time>
      </trkpt>
      <trkpt lat="44.64079" lon="5.77494">
        <ele>1369.2</ele>
        <time>2023-05-18T09:06:00Z</time>
      </trkpt>
      <trkpt lat="44.64079" lon="5.77495">
        <ele>1369.6</ele>
        <time>2023-05-18T09:06:01Z</time>
      </trkpt>
      <trkpt lat="44.6408" lon="5.77496">
        <ele>1369.6</ele>
        <time>2023-05-18T09:06:02Z</time>
      </trkpt>
      <trkpt lat="44.6408" lon="5.77497">
        <ele>1369.8</ele>
        <time>2023-05-18T09:06:03Z</time>
      </trkpt>
      <trkpt lat="44.6408" lon="5.77497">
        <ele>1369.8</ele>
        <time>2023-05-18T09:06:04Z</time>
      </trkpt>
      <trkpt lat="44.6408" lon="5.77497">
        <ele>1369.8</ele>
        <time>2023-05-18T09:06:05Z</time>
      </trkpt>
      <trkpt lat="44.64081" lon="5.77498">
        <ele>1370</ele>
        <time>2023-05-18T09:06:06Z</time>
      </trkpt>
      <trkpt lat="44.64081" lon="5.77499">
        <ele>1370</ele>
        <time>2023-05-18T09:06:07Z</time>
      </trkpt>
      <trkpt lat="44.64082" lon="5.77499">
        <ele>1370.2</ele>
        <time>2023-05-18T09:06:08Z</time>
      </trkpt>
      <trkpt lat="44.64082" lon="5.775">
        <ele>1370.2</ele>
        <time>2023-05-18T09:06:09Z</time>
      </trkpt>
      <trkpt lat="44.64083" lon="5.77501">
        <ele>1370.4</ele>
        <time>2023-05-18T09:06:10Z</time>
      </trkpt>
      <trkpt lat="44.64083" lon="5.77501">
        <ele>1370.6</ele>
        <time>2023-05-18T09:06:11Z</time>
      </trkpt>
      <trkpt lat="44.64084" lon="5.77502">
        <ele>1370.6</ele>
        <time>2023-05-18T09:06:12Z</time>
      </trkpt>
      <trkpt lat="44.64084" lon="5.77502">
        <ele>1370.8</ele>
        <time>2023-05-18T09:06:13Z</time>
      </trkpt>
      <trkpt lat="44.64084" lon="5.77502">
        <ele>1371</ele>
        <time>2023-05-18T09:06:14Z</time>
      </trkpt>
      <trkpt lat="44.64084" lon="5.77502">
        <ele>1371</ele>
        <time>2023-05-18T09:06:15Z</time>
      </trkpt>
      <trkpt lat="44.64084" lon="5.77502">
        <ele>1371</ele>
        <time>2023-05-18T09:06:16Z</time>
      </trkpt>
      <trkpt lat="44.64086" lon="5.77504">
        <ele>1371.4</ele>
        <time>2023-05-18T09:06:25Z</time>
      </trkpt>
      <trkpt lat="44.64087" lon="5.77506">
        <ele>1371.4</ele>
        <time>2023-05-18T09:06:26Z</time>
      </trkpt>
      <trkpt lat="44.64088" lon="5.77507">
        <ele>1371.6</ele>
        <time>2023-05-18T09:06:27Z</time>
      </trkpt>
      <trkpt lat="44.64088" lon="5.77507">
        <ele>1371.6</ele>
        <time>2023-05-18T09:06:28Z</time>
      </trkpt>
      <trkpt lat="44.64088" lon="5.77507">
        <ele>1371.6</ele>
        <time>2023-05-18T09:06:29Z</time>
      </trkpt>
      <trkpt lat="44.64088" lon="5.77508">
        <ele>1371.6</ele>
        <time>2023-05-18T09:06:30Z</time>
      </trkpt>
      <trkpt lat="44.64089" lon="5.77509">
        <ele>1371.8</ele>
        <time>2023-05-18T09:06:31Z</time>
      </trkpt>
      <trkpt lat="44.6409" lon="5.7751">
        <ele>1371.8</ele>
        <time>2023-05-18T09:06:32Z</time>
      </trkpt>
      <trkpt lat="44.64091" lon="5.77511">
        <ele>1371.8</ele>
        <time>2023-05-18T09:06:33Z</time>
      </trkpt>
      <trkpt lat="44.64092" lon="5.77512">
        <ele>1372</ele>
        <time>2023-05-18T09:06:34Z</time>
      </trkpt>
      <trkpt lat="44.64093" lon="5.77512">
        <ele>1372.2</ele>
        <time>2023-05-18T09:06:35Z</time>
      </trkpt>
      <trkpt lat="44.64095" lon="5.77514">
        <ele>1372.8</ele>
        <time>2023-05-18T09:06:39Z</time>
      </trkpt>
      <trkpt lat="44.64096" lon="5.77515">
        <ele>1373.2</ele>
        <time>2023-05-18T09:06:41Z</time>
      </trkpt>
      <trkpt lat="44.64096" lon="5.77515">
        <ele>1373.2</ele>
        <time>2023-05-18T09:06:42Z</time>
      </trkpt>
      <trkpt lat="44.64096" lon="5.77515">
        <ele>1373.4</ele>
        <time>2023-05-18T09:06:43Z</time>
      </trkpt>
      <trkpt lat="44.64097" lon="5.77516">
        <ele>1373.6</ele>
        <time>2023-05-18T09:06:45Z</time>
      </trkpt>
      <trkpt lat="44.64098" lon="5.77516">
        <ele>1373.6</ele>
        <time>2023-05-18T09:06:46Z</time>
      </trkpt>
      <trkpt lat="44.641" lon="5.77518">
        <ele>1374.2</ele>
        <time>2023-05-18T09:06:50Z</time>
      </trkpt>
      <trkpt lat="44.641" lon="5.77518">
        <ele>1374.4</ele>
        <time>2023-05-18T09:06:51Z</time>
      </trkpt>
      <trkpt lat="44.641" lon="5.77518">
        <ele>1374.4</ele>
        <time>2023-05-18T09:06:52Z</time>
      </trkpt>
      <trkpt lat="44.641" lon="5.77518">
        <ele>1374.6</ele>
        <time>2023-05-18T09:06:53Z</time>
      </trkpt>
      <trkpt lat="44.641" lon="5.77518">
        <ele>1374.6</ele>
        <time>2023-05-18T09:06:54Z</time>
      </trkpt>
      <trkpt lat="44.641" lon="5.77519">
        <ele>1374.8</ele>
        <time>2023-05-18T09:06:55Z</time>
      </trkpt>
      <trkpt lat="44.64101" lon="5.77519">
        <ele>1375</ele>
        <time>2023-05-18T09:06:56Z</time>
      </trkpt>
      <trkpt lat="44.64101" lon="5.77519">
        <ele>1375</ele>
        <time>2023-05-18T09:06:57Z</time>
      </trkpt>
      <trkpt lat="44.64101" lon="5.77519">
        <ele>1375.2</ele>
        <time>2023-05-18T09:06:58Z</time>
      </trkpt>
      <trkpt lat="44.64101" lon="5.77519">
        <ele>1375.2</ele>
        <time>2023-05-18T09:06:59Z</time>
      </trkpt>
      <trkpt lat="44.64101" lon="5.77519">
        <ele>1375.4</ele>
        <time>2023-05-18T09:07:00Z</time>
      </trkpt>
      <trkpt lat="44.64101" lon="5.77519">
        <ele>1375.4</ele>
        <time>2023-05-18T09:07:01Z</time>
      </trkpt>
      <trkpt lat="44.64101" lon="5.77519">
        <ele>1375.4</ele>
        <time>2023-05-18T09:07:02Z</time>
      </trkpt>
      <trkpt lat="44.64101" lon="5.7752">
        <ele>1375.6</ele>
        <time>2023-05-18T09:07:03Z</time>
      </trkpt>
      <trkpt lat="44.64101" lon="5.7752">
        <ele>1375.8</ele>
        <time>2023-05-18T09:07:04Z</time>
      </trkpt>
      <trkpt lat="44.64101" lon="5.7752">
        <ele>1376</ele>
        <time>2023-05-18T09:07:05Z</time>
      </trkpt>
      <trkpt lat="44.64103" lon="5.77523">
        <ele>1376.2</ele>
        <time>2023-05-18T09:07:07Z</time>
      </trkpt>
      <trkpt lat="44.64103" lon="5.77523">
        <ele>1376.2</ele>
        <time>2023-05-18T09:07:08Z</time>
      </trkpt>
      <trkpt lat="44.64103" lon="5.77523">
        <ele>1376.4</ele>
        <time>2023-05-18T09:07:09Z</time>
      </trkpt>
      <trkpt lat="44.64103" lon="5.77523">
        <ele>1376.4</ele>
        <time>2023-05-18T09:07:10Z</time>
      </trkpt>
      <trkpt lat="44.64103" lon="5.77524">
        <ele>1376.6</ele>
        <time>2023-05-18T09:07:11Z</time>
      </trkpt>
      <trkpt lat="44.64104" lon="5.77524">
        <ele>1376.6</ele>
        <time>2023-05-18T09:07:12Z</time>
      </trkpt>
      <trkpt lat="44.64104" lon="5.77524">
        <ele>1377</ele>
        <time>2023-05-18T09:07:13Z</time>
      </trkpt>
      <trkpt lat="44.64104" lon="5.77524">
        <ele>1377.2</ele>
        <time>2023-05-18T09:07:14Z</time>
      </trkpt>
      <trkpt lat="44.64104" lon="5.77524">
        <ele>1377.8</ele>
        <time>2023-05-18T09:07:18Z</time>
      </trkpt>
      <trkpt lat="44.64104" lon="5.77525">
        <ele>1378.4</ele>
        <time>2023-05-18T09:07:24Z</time>
      </trkpt>
      <trkpt lat="44.64106" lon="5.77527">
        <ele>1378.8</ele>
        <time>2023-05-18T09:07:29Z</time>
      </trkpt>
      <trkpt lat="44.64107" lon="5.77529">
        <ele>1379.2</ele>
        <time>2023-05-18T09:07:32Z</time>
      </trkpt>
      <trkpt lat="44.64108" lon="5.7753">
        <ele>1379.6</ele>
        <time>2023-05-18T09:07:35Z</time>
      </trkpt>
      <trkpt lat="44.64108" lon="5.77531">
        <ele>1379.6</ele>
        <time>2023-05-18T09:07:36Z</time>
      </trkpt>
      <trkpt lat="44.64109" lon="5.77532">
        <ele>1379.8</ele>
        <time>2023-05-18T09:07:37Z</time>
      </trkpt>
      <trkpt lat="44.6411" lon="5.77533">
        <ele>1379.8</ele>
        <time>2023-05-18T09:07:38Z</time>
      </trkpt>
      <trkpt lat="44.64111" lon="5.77535">
        <ele>1380</ele>
        <time>2023-05-18T09:07:39Z</time>
      </trkpt>
      <trkpt lat="44.64112" lon="5.77537">
        <ele>1380.2</ele>
        <time>2023-05-18T09:07:40Z</time>
      </trkpt>
      <trkpt lat="44.64112" lon="5.77537">
        <ele>1380.4</ele>
        <time>2023-05-18T09:07:41Z</time>
      </trkpt>
      <trkpt lat="44.64113" lon="5.77539">
        <ele>1380.4</ele>
        <time>2023-05-18T09:07:42Z</time>
      </trkpt>
      <trkpt lat="44.64114" lon="5.7754">
        <ele>1380.6</ele>
        <time>2023-05-18T09:07:43Z</time>
      </trkpt>
      <trkpt lat="44.64114" lon="5.77542">
        <ele>1380.8</ele>
        <time>2023-05-18T09:07:44Z</time>
      </trkpt>
      <trkpt lat="44.64115" lon="5.77543">
        <ele>1381</ele>
        <time>2023-05-18T09:07:45Z</time>
      </trkpt>
      <trkpt lat="44.64115" lon="5.77543">
        <ele>1381</ele>
        <time>2023-05-18T09:07:46Z</time>
      </trkpt>
      <trkpt lat="44.64116" lon="5.77544">
        <ele>1381.2</ele>
        <time>2023-05-18T09:07:47Z</time>
      </trkpt>
      <trkpt lat="44.64116" lon="5.77544">
        <ele>1381.2</ele>
        <time>2023-05-18T09:07:48Z</time>
      </trkpt>
      <trkpt lat="44.64116" lon="5.77544">
        <ele>1381.4</ele>
        <time>2023-05-18T09:07:49Z</time>
      </trkpt>
      <trkpt lat="44.64116" lon="5.77544">
        <ele>1381.4</ele>
        <time>2023-05-18T09:07:50Z</time>
      </trkpt>
      <trkpt lat="44.64117" lon="5.77547">
        <ele>1381.6</ele>
        <time>2023-05-18T09:07:52Z</time>
      </trkpt>
      <trkpt lat="44.64117" lon="5.77547">
        <ele>1381.8</ele>
        <time>2023-05-18T09:07:53Z</time>
      </trkpt>
      <trkpt lat="44.64118" lon="5.77548">
        <ele>1381.8</ele>
        <time>2023-05-18T09:07:54Z</time>
      </trkpt>
      <trkpt lat="44.64118" lon="5.77549">
        <ele>1382</ele>
        <time>2023-05-18T09:07:55Z</time>
      </trkpt>
      <trkpt lat="44.64118" lon="5.77549">
        <ele>1382.4</ele>
        <time>2023-05-18T09:07:56Z</time>
      </trkpt>
      <trkpt lat="44.64118" lon="5.77549">
        <ele>1382.4</ele>
        <time>2023-05-18T09:07:57Z</time>
      </trkpt>
      <trkpt lat="44.64118" lon="5.77549">
        <ele>1382.6</ele>
        <time>2023-05-18T09:07:58Z</time>
      </trkpt>
      <trkpt lat="44.64118" lon="5.77549">
        <ele>1382.8</ele>
        <time>2023-05-18T09:07:59Z</time>
      </trkpt>
      <trkpt lat="44.64118" lon="5.77549">
        <ele>1382.8</ele>
        <time>2023-05-18T09:08:00Z</time>
      </trkpt>
      <trkpt lat="44.64119" lon="5.77552">
        <ele>1383.2</ele>
        <time>2023-05-18T09:08:05Z</time>
      </trkpt>
      <trkpt lat="44.64119" lon="5.77552">
        <ele>1383.4</ele>
        <time>2023-05-18T09:08:06Z</time>
      </trkpt>
      <trkpt lat="44.64119" lon="5.77552">
        <ele>1383.4</ele>
        <time>2023-05-18T09:08:07Z</time>
      </trkpt>
      <trkpt lat="44.64119" lon="5.77553">
        <ele>1384.6</ele>
        <time>2023-05-18T09:08:14Z</time>
      </trkpt>
      <trkpt lat="44.64119" lon="5.77553">
        <ele>1385.2</ele>
        <time>2023-05-18T09:08:21Z</time>
      </trkpt>
      <trkpt lat="44.64119" lon="5.77553">
        <ele>1385.2</ele>
        <time>2023-05-18T09:08:22Z</time>
      </trkpt>
      <trkpt lat="44.6412" lon="5.77554">
        <ele>1385.8</ele>
        <time>2023-05-18T09:08:24Z</time>
      </trkpt>
      <trkpt lat="44.6412" lon="5.77554">
        <ele>1385.8</ele>
        <time>2023-05-18T09:08:25Z</time>
      </trkpt>
      <trkpt lat="44.6412" lon="5.77554">
        <ele>1386</ele>
        <time>2023-05-18T09:08:27Z</time>
      </trkpt>
      <trkpt lat="44.6412" lon="5.77559">
        <ele>1386.6</ele>
        <time>2023-05-18T09:08:33Z</time>
      </trkpt>
      <trkpt lat="44.6412" lon="5.77561">
        <ele>1386.8</ele>
        <time>2023-05-18T09:08:34Z</time>
      </trkpt>
      <trkpt lat="44.64121" lon="5.77563">
        <ele>1386.8</ele>
        <time>2023-05-18T09:08:35Z</time>
      </trkpt>
      <trkpt lat="44.64121" lon="5.77565">
        <ele>1387</ele>
        <time>2023-05-18T09:08:36Z</time>
      </trkpt>
      <trkpt lat="44.64122" lon="5.77568">
        <ele>1387</ele>
        <time>2023-05-18T09:08:37Z</time>
      </trkpt>
      <trkpt lat="44.64122" lon="5.7757">
        <ele>1387</ele>
        <time>2023-05-18T09:08:38Z</time>
      </trkpt>
      <trkpt lat="44.64122" lon="5.77573">
        <ele>1387.2</ele>
        <time>2023-05-18T09:08:39Z</time>
      </trkpt>
      <trkpt lat="44.64122" lon="5.77575">
        <ele>1387.2</ele>
        <time>2023-05-18T09:08:40Z</time>
      </trkpt>
      <trkpt lat="44.64122" lon="5.77576">
        <ele>1387.2</ele>
        <time>2023-05-18T09:08:41Z</time>
      </trkpt>
      <trkpt lat="44.64122" lon="5.77577">
        <ele>1387.4</ele>
        <time>2023-05-18T09:08:42Z</time>
      </trkpt>
      <trkpt lat="44.64122" lon="5.77578">
        <ele>1387.4</ele>
        <time>2023-05-18T09:08:43Z</time>
      </trkpt>
      <trkpt lat="44.64122" lon="5.77578">
        <ele>1387.6</ele>
        <time>2023-05-18T09:08:44Z</time>
      </trkpt>
      <trkpt lat="44.64122" lon="5.77581">
        <ele>1387.8</ele>
        <time>2023-05-18T09:08:48Z</time>
      </trkpt>
      <trkpt lat="44.64122" lon="5.77587">
        <ele>1388.2</ele>
        <time>2023-05-18T09:08:53Z</time>
      </trkpt>
      <trkpt lat="44.64122" lon="5.77589">
        <ele>1388.2</ele>
        <time>2023-05-18T09:08:54Z</time>
      </trkpt>
      <trkpt lat="44.64122" lon="5.7759">
        <ele>1388.2</ele>
        <time>2023-05-18T09:08:55Z</time>
      </trkpt>
      <trkpt lat="44.64123" lon="5.77596">
        <ele>1389</ele>
        <time>2023-05-18T09:09:00Z</time>
      </trkpt>
      <trkpt lat="44.64123" lon="5.77596">
        <ele>1389.2</ele>
        <time>2023-05-18T09:09:01Z</time>
      </trkpt>
      <trkpt lat="44.64123" lon="5.77596">
        <ele>1389.8</ele>
        <time>2023-05-18T09:09:04Z</time>
      </trkpt>
      <trkpt lat="44.64124" lon="5.776">
        <ele>1390</ele>
        <time>2023-05-18T09:09:07Z</time>
      </trkpt>
      <trkpt lat="44.64124" lon="5.776">
        <ele>1390.2</ele>
        <time>2023-05-18T09:09:09Z</time>
      </trkpt>
      <trkpt lat="44.64124" lon="5.77601">
        <ele>1390.6</ele>
        <time>2023-05-18T09:09:10Z</time>
      </trkpt>
      <trkpt lat="44.64124" lon="5.77601">
        <ele>1390.8</ele>
        <time>2023-05-18T09:09:11Z</time>
      </trkpt>
      <trkpt lat="44.64124" lon="5.77601">
        <ele>1390.8</ele>
        <time>2023-05-18T09:09:12Z</time>
      </trkpt>
      <trkpt lat="44.64125" lon="5.77602">
        <ele>1391</ele>
        <time>2023-05-18T09:09:13Z</time>
      </trkpt>
      <trkpt lat="44.64125" lon="5.77603">
        <ele>1391</ele>
        <time>2023-05-18T09:09:14Z</time>
      </trkpt>
      <trkpt lat="44.64125" lon="5.77603">
        <ele>1391.2</ele>
        <time>2023-05-18T09:09:15Z</time>
      </trkpt>
      <trkpt lat="44.64125" lon="5.77604">
        <ele>1391.2</ele>
        <time>2023-05-18T09:09:16Z</time>
      </trkpt>
      <trkpt lat="44.64125" lon="5.77604">
        <ele>1391.4</ele>
        <time>2023-05-18T09:09:17Z</time>
      </trkpt>
      <trkpt lat="44.64125" lon="5.77604">
        <ele>1391.4</ele>
        <time>2023-05-18T09:09:18Z</time>
      </trkpt>
      <trkpt lat="44.64125" lon="5.77604">
        <ele>1391.6</ele>
        <time>2023-05-18T09:09:19Z</time>
      </trkpt>
      <trkpt lat="44.64125" lon="5.77604">
        <ele>1391.6</ele>
        <time>2023-05-18T09:09:20Z</time>
      </trkpt>
      <trkpt lat="44.64125" lon="5.77604">
        <ele>1391.8</ele>
        <time>2023-05-18T09:09:21Z</time>
      </trkpt>
      <trkpt lat="44.64125" lon="5.77604">
        <ele>1392</ele>
        <time>2023-05-18T09:09:22Z</time>
      </trkpt>
      <trkpt lat="44.64125" lon="5.77604">
        <ele>1392.2</ele>
        <time>2023-05-18T09:09:23Z</time>
      </trkpt>
      <trkpt lat="44.64125" lon="5.77606">
        <ele>1392.4</ele>
        <time>2023-05-18T09:09:24Z</time>
      </trkpt>
      <trkpt lat="44.64125" lon="5.77606">
        <ele>1392.4</ele>
        <time>2023-05-18T09:09:25Z</time>
      </trkpt>
      <trkpt lat="44.64125" lon="5.77606">
        <ele>1392.6</ele>
        <time>2023-05-18T09:09:26Z</time>
      </trkpt>
      <trkpt lat="44.64125" lon="5.77606">
        <ele>1392.8</ele>
        <time>2023-05-18T09:09:27Z</time>
      </trkpt>
      <trkpt lat="44.64125" lon="5.77606">
        <ele>1393</ele>
        <time>2023-05-18T09:09:28Z</time>
      </trkpt>
      <trkpt lat="44.64125" lon="5.77606">
        <ele>1393.2</ele>
        <time>2023-05-18T09:09:29Z</time>
      </trkpt>
      <trkpt lat="44.64125" lon="5.77608">
        <ele>1393.8</ele>
        <time>2023-05-18T09:09:33Z</time>
      </trkpt>
      <trkpt lat="44.64125" lon="5.77608">
        <ele>1393.8</ele>
        <time>2023-05-18T09:09:34Z</time>
      </trkpt>
      <trkpt lat="44.64125" lon="5.77608">
        <ele>1393.8</ele>
        <time>2023-05-18T09:09:35Z</time>
      </trkpt>
      <trkpt lat="44.64125" lon="5.77609">
        <ele>1394</ele>
        <time>2023-05-18T09:09:36Z</time>
      </trkpt>
      <trkpt lat="44.64125" lon="5.77609">
        <ele>1394</ele>
        <time>2023-05-18T09:09:37Z</time>
      </trkpt>
      <trkpt lat="44.64125" lon="5.77609">
        <ele>1394.2</ele>
        <time>2023-05-18T09:09:38Z</time>
      </trkpt>
      <trkpt lat="44.64126" lon="5.7761">
        <ele>1394.2</ele>
        <time>2023-05-18T09:09:39Z</time>
      </trkpt>
      <trkpt lat="44.64126" lon="5.77611">
        <ele>1394.4</ele>
        <time>2023-05-18T09:09:40Z</time>
      </trkpt>
      <trkpt lat="44.64126" lon="5.77611">
        <ele>1394.6</ele>
        <time>2023-05-18T09:09:41Z</time>
      </trkpt>
      <trkpt lat="44.64126" lon="5.77613">
        <ele>1394.6</ele>
        <time>2023-05-18T09:09:42Z</time>
      </trkpt>
      <trkpt lat="44.64127" lon="5.77614">
        <ele>1394.8</ele>
        <time>2023-05-18T09:09:43Z</time>
      </trkpt>
      <trkpt lat="44.64127" lon="5.77615">
        <ele>1394.8</ele>
        <time>2023-05-18T09:09:44Z</time>
      </trkpt>
      <trkpt lat="44.64127" lon="5.77615">
        <ele>1395</ele>
        <time>2023-05-18T09:09:45Z</time>
      </trkpt>
      <trkpt lat="44.64127" lon="5.77616">
        <ele>1395.4</ele>
        <time>2023-05-18T09:09:47Z</time>
      </trkpt>
      <trkpt lat="44.64127" lon="5.77616">
        <ele>1395.4</ele>
        <time>2023-05-18T09:09:48Z</time>
      </trkpt>
      <trkpt lat="44.64127" lon="5.77616">
        <ele>1395.6</ele>
        <time>2023-05-18T09:09:49Z</time>
      </trkpt>
      <trkpt lat="44.64127" lon="5.77616">
        <ele>1395.6</ele>
        <time>2023-05-18T09:09:50Z</time>
      </trkpt>
      <trkpt lat="44.64127" lon="5.77617">
        <ele>1395.8</ele>
        <time>2023-05-18T09:09:53Z</time>
      </trkpt>
      <trkpt lat="44.64127" lon="5.77618">
        <ele>1396.8</ele>
        <time>2023-05-18T09:10:02Z</time>
      </trkpt>
      <trkpt lat="44.64127" lon="5.77619">
        <ele>1397</ele>
        <time>2023-05-18T09:10:07Z</time>
      </trkpt>
      <trkpt lat="44.64127" lon="5.77621">
        <ele>1397</ele>
        <time>2023-05-18T09:10:10Z</time>
      </trkpt>
      <trkpt lat="44.64127" lon="5.77621">
        <ele>1397</ele>
        <time>2023-05-18T09:10:11Z</time>
      </trkpt>
      <trkpt lat="44.64127" lon="5.77621">
        <ele>1397.4</ele>
        <time>2023-05-18T09:10:13Z</time>
      </trkpt>
      <trkpt lat="44.64127" lon="5.77623">
        <ele>1397.4</ele>
        <time>2023-05-18T09:10:14Z</time>
      </trkpt>
      <trkpt lat="44.64127" lon="5.77623">
        <ele>1397.6</ele>
        <time>2023-05-18T09:10:16Z</time>
      </trkpt>
      <trkpt lat="44.64127" lon="5.77623">
        <ele>1397.8</ele>
        <time>2023-05-18T09:10:17Z</time>
      </trkpt>
      <trkpt lat="44.64127" lon="5.77623">
        <ele>1398</ele>
        <time>2023-05-18T09:10:18Z</time>
      </trkpt>
      <trkpt lat="44.64127" lon="5.77624">
        <ele>1398.2</ele>
        <time>2023-05-18T09:10:19Z</time>
      </trkpt>
      <trkpt lat="44.64128" lon="5.7763">
        <ele>1399</ele>
        <time>2023-05-18T09:10:23Z</time>
      </trkpt>
      <trkpt lat="44.64128" lon="5.7763">
        <ele>1399.2</ele>
        <time>2023-05-18T09:10:25Z</time>
      </trkpt>
      <trkpt lat="44.64128" lon="5.7763">
        <ele>1399.2</ele>
        <time>2023-05-18T09:10:26Z</time>
      </trkpt>
      <trkpt lat="44.64128" lon="5.7763">
        <ele>1399.4</ele>
        <time>2023-05-18T09:10:27Z</time>
      </trkpt>
      <trkpt lat="44.64128" lon="5.77632">
        <ele>1399.6</ele>
        <time>2023-05-18T09:10:28Z</time>
      </trkpt>
      <trkpt lat="44.64128" lon="5.77634">
        <ele>1399.6</ele>
        <time>2023-05-18T09:10:29Z</time>
      </trkpt>
      <trkpt lat="44.64129" lon="5.77638">
        <ele>1399.8</ele>
        <time>2023-05-18T09:10:30Z</time>
      </trkpt>
      <trkpt lat="44.64129" lon="5.77641">
        <ele>1399.8</ele>
        <time>2023-05-18T09:10:31Z</time>
      </trkpt>
      <trkpt lat="44.64129" lon="5.77643">
        <ele>1400</ele>
        <time>2023-05-18T09:10:32Z</time>
      </trkpt>
      <trkpt lat="44.64129" lon="5.77645">
        <ele>1400</ele>
        <time>2023-05-18T09:10:33Z</time>
      </trkpt>
      <trkpt lat="44.64129" lon="5.77647">
        <ele>1400.2</ele>
        <time>2023-05-18T09:10:34Z</time>
      </trkpt>
      <trkpt lat="44.6413" lon="5.77648">
        <ele>1400.2</ele>
        <time>2023-05-18T09:10:35Z</time>
      </trkpt>
      <trkpt lat="44.64131" lon="5.7765">
        <ele>1400.2</ele>
        <time>2023-05-18T09:10:36Z</time>
      </trkpt>
      <trkpt lat="44.64132" lon="5.77653">
        <ele>1400.4</ele>
        <time>2023-05-18T09:10:37Z</time>
      </trkpt>
      <trkpt lat="44.64133" lon="5.77655">
        <ele>1400.4</ele>
        <time>2023-05-18T09:10:38Z</time>
      </trkpt>
      <trkpt lat="44.64133" lon="5.77656">
        <ele>1400.6</ele>
        <time>2023-05-18T09:10:39Z</time>
      </trkpt>
      <trkpt lat="44.64133" lon="5.77656">
        <ele>1400.6</ele>
        <time>2023-05-18T09:10:40Z</time>
      </trkpt>
      <trkpt lat="44.64133" lon="5.77656">
        <ele>1400.8</ele>
        <time>2023-05-18T09:10:41Z</time>
      </trkpt>
      <trkpt lat="44.64133" lon="5.77657">
        <ele>1400.8</ele>
        <time>2023-05-18T09:10:42Z</time>
      </trkpt>
      <trkpt lat="44.64133" lon="5.77658">
        <ele>1400.8</ele>
        <time>2023-05-18T09:10:43Z</time>
      </trkpt>
      <trkpt lat="44.64133" lon="5.77659">
        <ele>1400.8</ele>
        <time>2023-05-18T09:10:44Z</time>
      </trkpt>
      <trkpt lat="44.64134" lon="5.7766">
        <ele>1400.8</ele>
        <time>2023-05-18T09:10:45Z</time>
      </trkpt>
      <trkpt lat="44.64134" lon="5.77662">
        <ele>1400.8</ele>
        <time>2023-05-18T09:10:46Z</time>
      </trkpt>
      <trkpt lat="44.64134" lon="5.77662">
        <ele>1401</ele>
        <time>2023-05-18T09:10:47Z</time>
      </trkpt>
      <trkpt lat="44.64134" lon="5.77662">
        <ele>1401</ele>
        <time>2023-05-18T09:10:48Z</time>
      </trkpt>
      <trkpt lat="44.64134" lon="5.77663">
        <ele>1401</ele>
        <time>2023-05-18T09:10:49Z</time>
      </trkpt>
      <trkpt lat="44.64134" lon="5.77664">
        <ele>1401</ele>
        <time>2023-05-18T09:10:50Z</time>
      </trkpt>
      <trkpt lat="44.64134" lon="5.77664">
        <ele>1401.2</ele>
        <time>2023-05-18T09:10:51Z</time>
      </trkpt>
      <trkpt lat="44.64134" lon="5.77665">
        <ele>1401.6</ele>
        <time>2023-05-18T09:10:55Z</time>
      </trkpt>
      <trkpt lat="44.64135" lon="5.77666">
        <ele>1402</ele>
        <time>2023-05-18T09:10:57Z</time>
      </trkpt>
      <trkpt lat="44.64135" lon="5.77666">
        <ele>1402.2</ele>
        <time>2023-05-18T09:10:58Z</time>
      </trkpt>
      <trkpt lat="44.64135" lon="5.77666">
        <ele>1402.4</ele>
        <time>2023-05-18T09:10:59Z</time>
      </trkpt>
      <trkpt lat="44.64135" lon="5.77668">
        <ele>1402.6</ele>
        <time>2023-05-18T09:11:00Z</time>
      </trkpt>
      <trkpt lat="44.64136" lon="5.7767">
        <ele>1403</ele>
        <time>2023-05-18T09:11:01Z</time>
      </trkpt>
      <trkpt lat="44.64136" lon="5.77673">
        <ele>1403</ele>
        <time>2023-05-18T09:11:02Z</time>
      </trkpt>
      <trkpt lat="44.64137" lon="5.77674">
        <ele>1403.2</ele>
        <time>2023-05-18T09:11:03Z</time>
      </trkpt>
      <trkpt lat="44.64137" lon="5.77675">
        <ele>1403.6</ele>
        <time>2023-05-18T09:11:05Z</time>
      </trkpt>
      <trkpt lat="44.64137" lon="5.77676">
        <ele>1403.6</ele>
        <time>2023-05-18T09:11:06Z</time>
      </trkpt>
      <trkpt lat="44.64137" lon="5.77676">
        <ele>1403.8</ele>
        <time>2023-05-18T09:11:08Z</time>
      </trkpt>
      <trkpt lat="44.64137" lon="5.77676">
        <ele>1404</ele>
        <time>2023-05-18T09:11:10Z</time>
      </trkpt>
      <trkpt lat="44.64137" lon="5.77676">
        <ele>1404</ele>
        <time>2023-05-18T09:11:11Z</time>
      </trkpt>
      <trkpt lat="44.64138" lon="5.77679">
        <ele>1404</ele>
        <time>2023-05-18T09:11:13Z</time>
      </trkpt>
      <trkpt lat="44.64138" lon="5.77681">
        <ele>1404</ele>
        <time>2023-05-18T09:11:14Z</time>
      </trkpt>
      <trkpt lat="44.64137" lon="5.77682">
        <ele>1404.2</ele>
        <time>2023-05-18T09:11:15Z</time>
      </trkpt>
      <trkpt lat="44.64138" lon="5.77684">
        <ele>1404.2</ele>
        <time>2023-05-18T09:11:16Z</time>
      </trkpt>
      <trkpt lat="44.64138" lon="5.77686">
        <ele>1404.2</ele>
        <time>2023-05-18T09:11:17Z</time>
      </trkpt>
      <trkpt lat="44.64138" lon="5.77688">
        <ele>1404.2</ele>
        <time>2023-05-18T09:11:18Z</time>
      </trkpt>
      <trkpt lat="44.64138" lon="5.77689">
        <ele>1404.2</ele>
        <time>2023-05-18T09:11:19Z</time>
      </trkpt>
      <trkpt lat="44.64138" lon="5.77691">
        <ele>1404.2</ele>
        <time>2023-05-18T09:11:20Z</time>
      </trkpt>
      <trkpt lat="44.64138" lon="5.77699">
        <ele>1404.8</ele>
        <time>2023-05-18T09:11:24Z</time>
      </trkpt>
      <trkpt lat="44.64138" lon="5.77703">
        <ele>1405.2</ele>
        <time>2023-05-18T09:11:26Z</time>
      </trkpt>
      <trkpt lat="44.64137" lon="5.77707">
        <ele>1405.6</ele>
        <time>2023-05-18T09:11:29Z</time>
      </trkpt>
      <trkpt lat="44.64137" lon="5.77708">
        <ele>1405.8</ele>
        <time>2023-05-18T09:11:30Z</time>
      </trkpt>
      <trkpt lat="44.64137" lon="5.7771">
        <ele>1406</ele>
        <time>2023-05-18T09:11:31Z</time>
      </trkpt>
      <trkpt lat="44.64138" lon="5.77716">
        <ele>1406.2</ele>
        <time>2023-05-18T09:11:34Z</time>
      </trkpt>
      <trkpt lat="44.64138" lon="5.77717">
        <ele>1406.4</ele>
        <time>2023-05-18T09:11:35Z</time>
      </trkpt>
      <trkpt lat="44.64138" lon="5.77719">
        <ele>1406.4</ele>
        <time>2023-05-18T09:11:36Z</time>
      </trkpt>
      <trkpt lat="44.64139" lon="5.77722">
        <ele>1406.6</ele>
        <time>2023-05-18T09:11:38Z</time>
      </trkpt>
      <trkpt lat="44.6414" lon="5.77724">
        <ele>1406.6</ele>
        <time>2023-05-18T09:11:39Z</time>
      </trkpt>
      <trkpt lat="44.6414" lon="5.77725">
        <ele>1406.6</ele>
        <time>2023-05-18T09:11:40Z</time>
      </trkpt>
      <trkpt lat="44.6414" lon="5.77727">
        <ele>1406.8</ele>
        <time>2023-05-18T09:11:41Z</time>
      </trkpt>
      <trkpt lat="44.64141" lon="5.77732">
        <ele>1407.2</ele>
        <time>2023-05-18T09:11:44Z</time>
      </trkpt>
      <trkpt lat="44.64142" lon="5.77735">
        <ele>1407.4</ele>
        <time>2023-05-18T09:11:46Z</time>
      </trkpt>
      <trkpt lat="44.64143" lon="5.77736">
        <ele>1407.6</ele>
        <time>2023-05-18T09:11:48Z</time>
      </trkpt>
      <trkpt lat="44.64143" lon="5.77736">
        <ele>1407.6</ele>
        <time>2023-05-18T09:11:49Z</time>
      </trkpt>
      <trkpt lat="44.64143" lon="5.77736">
        <ele>1407.8</ele>
        <time>2023-05-18T09:11:50Z</time>
      </trkpt>
      <trkpt lat="44.64144" lon="5.77742">
        <ele>1408.2</ele>
        <time>2023-05-18T09:11:59Z</time>
      </trkpt>
      <trkpt lat="44.64144" lon="5.77744">
        <ele>1408.2</ele>
        <time>2023-05-18T09:12:01Z</time>
      </trkpt>
      <trkpt lat="44.64145" lon="5.77745">
        <ele>1408.4</ele>
        <time>2023-05-18T09:12:02Z</time>
      </trkpt>
      <trkpt lat="44.64145" lon="5.77747">
        <ele>1408.6</ele>
        <time>2023-05-18T09:12:04Z</time>
      </trkpt>
      <trkpt lat="44.64145" lon="5.77752">
        <ele>1409.2</ele>
        <time>2023-05-18T09:12:08Z</time>
      </trkpt>
      <trkpt lat="44.64145" lon="5.77754">
        <ele>1409.6</ele>
        <time>2023-05-18T09:12:11Z</time>
      </trkpt>
      <trkpt lat="44.64145" lon="5.77754">
        <ele>1409.6</ele>
        <time>2023-05-18T09:12:12Z</time>
      </trkpt>
      <trkpt lat="44.64145" lon="5.77755">
        <ele>1409.8</ele>
        <time>2023-05-18T09:12:13Z</time>
      </trkpt>
      <trkpt lat="44.64145" lon="5.77756">
        <ele>1410</ele>
        <time>2023-05-18T09:12:14Z</time>
      </trkpt>
      <trkpt lat="44.64145" lon="5.77756">
        <ele>1410.2</ele>
        <time>2023-05-18T09:12:15Z</time>
      </trkpt>
      <trkpt lat="44.64145" lon="5.77756">
        <ele>1410.4</ele>
        <time>2023-05-18T09:12:16Z</time>
      </trkpt>
      <trkpt lat="44.64145" lon="5.77757">
        <ele>1410.8</ele>
        <time>2023-05-18T09:12:18Z</time>
      </trkpt>
      <trkpt lat="44.64145" lon="5.77758">
        <ele>1410.8</ele>
        <time>2023-05-18T09:12:19Z</time>
      </trkpt>
      <trkpt lat="44.64145" lon="5.77759">
        <ele>1411.2</ele>
        <time>2023-05-18T09:12:20Z</time>
      </trkpt>
      <trkpt lat="44.64145" lon="5.7776">
        <ele>1411.2</ele>
        <time>2023-05-18T09:12:21Z</time>
      </trkpt>
      <trkpt lat="44.64145" lon="5.77761">
        <ele>1411.4</ele>
        <time>2023-05-18T09:12:22Z</time>
      </trkpt>
      <trkpt lat="44.64145" lon="5.77761">
        <ele>1411.4</ele>
        <time>2023-05-18T09:12:23Z</time>
      </trkpt>
      <trkpt lat="44.64145" lon="5.77763">
        <ele>1411.4</ele>
        <time>2023-05-18T09:12:24Z</time>
      </trkpt>
      <trkpt lat="44.64145" lon="5.77764">
        <ele>1411.4</ele>
        <time>2023-05-18T09:12:25Z</time>
      </trkpt>
      <trkpt lat="44.64145" lon="5.77765">
        <ele>1411.6</ele>
        <time>2023-05-18T09:12:26Z</time>
      </trkpt>
      <trkpt lat="44.64145" lon="5.77766">
        <ele>1412</ele>
        <time>2023-05-18T09:12:27Z</time>
      </trkpt>
      <trkpt lat="44.64145" lon="5.77767">
        <ele>1412</ele>
        <time>2023-05-18T09:12:28Z</time>
      </trkpt>
      <trkpt lat="44.64145" lon="5.77768">
        <ele>1412.2</ele>
        <time>2023-05-18T09:12:29Z</time>
      </trkpt>
      <trkpt lat="44.64146" lon="5.7777">
        <ele>1412.2</ele>
        <time>2023-05-18T09:12:30Z</time>
      </trkpt>
      <trkpt lat="44.64146" lon="5.77771">
        <ele>1412.4</ele>
        <time>2023-05-18T09:12:31Z</time>
      </trkpt>
      <trkpt lat="44.64146" lon="5.77772">
        <ele>1412.4</ele>
        <time>2023-05-18T09:12:32Z</time>
      </trkpt>
      <trkpt lat="44.64147" lon="5.77773">
        <ele>1412.6</ele>
        <time>2023-05-18T09:12:33Z</time>
      </trkpt>
      <trkpt lat="44.64147" lon="5.77774">
        <ele>1412.6</ele>
        <time>2023-05-18T09:12:34Z</time>
      </trkpt>
      <trkpt lat="44.64147" lon="5.77775">
        <ele>1412.8</ele>
        <time>2023-05-18T09:12:35Z</time>
      </trkpt>
      <trkpt lat="44.64147" lon="5.77776">
        <ele>1412.8</ele>
        <time>2023-05-18T09:12:36Z</time>
      </trkpt>
      <trkpt lat="44.64147" lon="5.77777">
        <ele>1413</ele>
        <time>2023-05-18T09:12:37Z</time>
      </trkpt>
      <trkpt lat="44.64147" lon="5.77779">
        <ele>1413</ele>
        <time>2023-05-18T09:12:38Z</time>
      </trkpt>
      <trkpt lat="44.64147" lon="5.7778">
        <ele>1413.4</ele>
        <time>2023-05-18T09:12:39Z</time>
      </trkpt>
      <trkpt lat="44.64147" lon="5.7778">
        <ele>1413.4</ele>
        <time>2023-05-18T09:12:40Z</time>
      </trkpt>
      <trkpt lat="44.64147" lon="5.7778">
        <ele>1413.4</ele>
        <time>2023-05-18T09:12:41Z</time>
      </trkpt>
      <trkpt lat="44.64148" lon="5.77779">
        <ele>1413.4</ele>
        <time>2023-05-18T09:12:42Z</time>
      </trkpt>
      <trkpt lat="44.64148" lon="5.77781">
        <ele>1413.6</ele>
        <time>2023-05-18T09:12:43Z</time>
      </trkpt>
      <trkpt lat="44.64149" lon="5.77782">
        <ele>1413.8</ele>
        <time>2023-05-18T09:12:44Z</time>
      </trkpt>
      <trkpt lat="44.64149" lon="5.77782">
        <ele>1414</ele>
        <time>2023-05-18T09:12:45Z</time>
      </trkpt>
      <trkpt lat="44.64149" lon="5.77782">
        <ele>1414</ele>
        <time>2023-05-18T09:12:46Z</time>
      </trkpt>
      <trkpt lat="44.64149" lon="5.77782">
        <ele>1414.2</ele>
        <time>2023-05-18T09:12:47Z</time>
      </trkpt>
      <trkpt lat="44.64149" lon="5.77782">
        <ele>1414.2</ele>
        <time>2023-05-18T09:12:48Z</time>
      </trkpt>
      <trkpt lat="44.64149" lon="5.77782">
        <ele>1414.4</ele>
        <time>2023-05-18T09:12:49Z</time>
      </trkpt>
      <trkpt lat="44.64149" lon="5.77782">
        <ele>1414.4</ele>
        <time>2023-05-18T09:12:50Z</time>
      </trkpt>
      <trkpt lat="44.64148" lon="5.77785">
        <ele>1415.2</ele>
        <time>2023-05-18T09:12:54Z</time>
      </trkpt>
      <trkpt lat="44.64148" lon="5.77786">
        <ele>1416</ele>
        <time>2023-05-18T09:12:58Z</time>
      </trkpt>
      <trkpt lat="44.64148" lon="5.77786">
        <ele>1416.2</ele>
        <time>2023-05-18T09:12:59Z</time>
      </trkpt>
      <trkpt lat="44.64148" lon="5.77786">
        <ele>1416.4</ele>
        <time>2023-05-18T09:13:00Z</time>
      </trkpt>
      <trkpt lat="44.64148" lon="5.77786">
        <ele>1416.6</ele>
        <time>2023-05-18T09:13:02Z</time>
      </trkpt>
      <trkpt lat="44.64148" lon="5.77786">
        <ele>1417.2</ele>
        <time>2023-05-18T09:13:07Z</time>
      </trkpt>
      <trkpt lat="44.64148" lon="5.77786">
        <ele>1417.4</ele>
        <time>2023-05-18T09:13:11Z</time>
      </trkpt>
      <trkpt lat="44.64148" lon="5.77786">
        <ele>1417.6</ele>
        <time>2023-05-18T09:13:14Z</time>
      </trkpt>
      <trkpt lat="44.64148" lon="5.77787">
        <ele>1417.6</ele>
        <time>2023-05-18T09:13:18Z</time>
      </trkpt>
      <trkpt lat="44.64149" lon="5.77787">
        <ele>1417.6</ele>
        <time>2023-05-18T09:13:19Z</time>
      </trkpt>
      <trkpt lat="44.6415" lon="5.77787">
        <ele>1417.6</ele>
        <time>2023-05-18T09:13:20Z</time>
      </trkpt>
      <trkpt lat="44.6415" lon="5.77787">
        <ele>1417.6</ele>
        <time>2023-05-18T09:13:21Z</time>
      </trkpt>
      <trkpt lat="44.6415" lon="5.77787">
        <ele>1417.6</ele>
        <time>2023-05-18T09:13:22Z</time>
      </trkpt>
      <trkpt lat="44.6415" lon="5.77787">
        <ele>1417.4</ele>
        <time>2023-05-18T09:13:23Z</time>
      </trkpt>
      <trkpt lat="44.64151" lon="5.77789">
        <ele>1417.2</ele>
        <time>2023-05-18T09:13:29Z</time>
      </trkpt>
      <trkpt lat="44.64152" lon="5.77789">
        <ele>1417.2</ele>
        <time>2023-05-18T09:13:31Z</time>
      </trkpt>
      <trkpt lat="44.64152" lon="5.77789">
        <ele>1417.2</ele>
        <time>2023-05-18T09:13:32Z</time>
      </trkpt>
      <trkpt lat="44.64154" lon="5.77791">
        <ele>1417</ele>
        <time>2023-05-18T09:13:39Z</time>
      </trkpt>
      <trkpt lat="44.64157" lon="5.77792">
        <ele>1416.8</ele>
        <time>2023-05-18T09:13:42Z</time>
      </trkpt>
      <trkpt lat="44.64157" lon="5.77792">
        <ele>1416.8</ele>
        <time>2023-05-18T09:13:43Z</time>
      </trkpt>
      <trkpt lat="44.64158" lon="5.77793">
        <ele>1416.8</ele>
        <time>2023-05-18T09:13:44Z</time>
      </trkpt>
      <trkpt lat="44.64158" lon="5.77793">
        <ele>1416.6</ele>
        <time>2023-05-18T09:13:45Z</time>
      </trkpt>
      <trkpt lat="44.64158" lon="5.77793">
        <ele>1416.6</ele>
        <time>2023-05-18T09:13:46Z</time>
      </trkpt>
      <trkpt lat="44.64157" lon="5.77793">
        <ele>1416.2</ele>
        <time>2023-05-18T09:13:59Z</time>
      </trkpt>
      <trkpt lat="44.64155" lon="5.77793">
        <ele>1416.2</ele>
        <time>2023-05-18T09:14:02Z</time>
      </trkpt>
      <trkpt lat="44.64155" lon="5.77793">
        <ele>1416.2</ele>
        <time>2023-05-18T09:14:03Z</time>
      </trkpt>
      <trkpt lat="44.64154" lon="5.77792">
        <ele>1416.2</ele>
        <time>2023-05-18T09:14:04Z</time>
      </trkpt>
      <trkpt lat="44.64153" lon="5.77792">
        <ele>1416.4</ele>
        <time>2023-05-18T09:14:06Z</time>
      </trkpt>
      <trkpt lat="44.64153" lon="5.77791">
        <ele>1416.4</ele>
        <time>2023-05-18T09:14:07Z</time>
      </trkpt>
      <trkpt lat="44.64151" lon="5.77791">
        <ele>1416.6</ele>
        <time>2023-05-18T09:14:09Z</time>
      </trkpt>
      <trkpt lat="44.64151" lon="5.77792">
        <ele>1416.6</ele>
        <time>2023-05-18T09:14:10Z</time>
      </trkpt>
      <trkpt lat="44.6415" lon="5.77792">
        <ele>1416.8</ele>
        <time>2023-05-18T09:14:11Z</time>
      </trkpt>
      <trkpt lat="44.64149" lon="5.77793">
        <ele>1417</ele>
        <time>2023-05-18T09:14:12Z</time>
      </trkpt>
      <trkpt lat="44.64149" lon="5.77793">
        <ele>1417</ele>
        <time>2023-05-18T09:14:13Z</time>
      </trkpt>
      <trkpt lat="44.64148" lon="5.77793">
        <ele>1417.2</ele>
        <time>2023-05-18T09:14:14Z</time>
      </trkpt>
      <trkpt lat="44.64147" lon="5.77794">
        <ele>1417.4</ele>
        <time>2023-05-18T09:14:15Z</time>
      </trkpt>
      <trkpt lat="44.64146" lon="5.77794">
        <ele>1417.4</ele>
        <time>2023-05-18T09:14:17Z</time>
      </trkpt>
      <trkpt lat="44.64146" lon="5.77794">
        <ele>1417.4</ele>
        <time>2023-05-18T09:14:18Z</time>
      </trkpt>
      <trkpt lat="44.64146" lon="5.77794">
        <ele>1417.6</ele>
        <time>2023-05-18T09:14:19Z</time>
      </trkpt>
      <trkpt lat="44.64146" lon="5.77794">
        <ele>1418</ele>
        <time>2023-05-18T09:14:21Z</time>
      </trkpt>
      <trkpt lat="44.64145" lon="5.77793">
        <ele>1418.2</ele>
        <time>2023-05-18T09:14:26Z</time>
      </trkpt>
      <trkpt lat="44.64144" lon="5.77794">
        <ele>1418.2</ele>
        <time>2023-05-18T09:14:27Z</time>
      </trkpt>
      <trkpt lat="44.64142" lon="5.77796">
        <ele>1418.2</ele>
        <time>2023-05-18T09:14:29Z</time>
      </trkpt>
      <trkpt lat="44.64142" lon="5.77796">
        <ele>1418.2</ele>
        <time>2023-05-18T09:14:30Z</time>
      </trkpt>
      <trkpt lat="44.64141" lon="5.77797">
        <ele>1418.2</ele>
        <time>2023-05-18T09:14:31Z</time>
      </trkpt>
      <trkpt lat="44.6414" lon="5.77798">
        <ele>1418.2</ele>
        <time>2023-05-18T09:14:32Z</time>
      </trkpt>
      <trkpt lat="44.64139" lon="5.77799">
        <ele>1418.2</ele>
        <time>2023-05-18T09:14:33Z</time>
      </trkpt>
      <trkpt lat="44.64138" lon="5.778">
        <ele>1418.2</ele>
        <time>2023-05-18T09:14:34Z</time>
      </trkpt>
      <trkpt lat="44.64138" lon="5.77802">
        <ele>1418.4</ele>
        <time>2023-05-18T09:14:35Z</time>
      </trkpt>
      <trkpt lat="44.64137" lon="5.77803">
        <ele>1418.6</ele>
        <time>2023-05-18T09:14:36Z</time>
      </trkpt>
      <trkpt lat="44.64137" lon="5.77805">
        <ele>1419.2</ele>
        <time>2023-05-18T09:14:38Z</time>
      </trkpt>
      <trkpt lat="44.64136" lon="5.77806">
        <ele>1419.4</ele>
        <time>2023-05-18T09:14:39Z</time>
      </trkpt>
      <trkpt lat="44.64136" lon="5.77807">
        <ele>1419.4</ele>
        <time>2023-05-18T09:14:40Z</time>
      </trkpt>
      <trkpt lat="44.64136" lon="5.77808">
        <ele>1419.6</ele>
        <time>2023-05-18T09:14:41Z</time>
      </trkpt>
      <trkpt lat="44.64135" lon="5.7781">
        <ele>1419.6</ele>
        <time>2023-05-18T09:14:43Z</time>
      </trkpt>
      <trkpt lat="44.64135" lon="5.77815">
        <ele>1419.8</ele>
        <time>2023-05-18T09:14:46Z</time>
      </trkpt>
      <trkpt lat="44.64135" lon="5.77819">
        <ele>1420</ele>
        <time>2023-05-18T09:14:48Z</time>
      </trkpt>
      <trkpt lat="44.64136" lon="5.7782">
        <ele>1420</ele>
        <time>2023-05-18T09:14:49Z</time>
      </trkpt>
      <trkpt lat="44.64136" lon="5.77822">
        <ele>1420.2</ele>
        <time>2023-05-18T09:14:50Z</time>
      </trkpt>
      <trkpt lat="44.64137" lon="5.77823">
        <ele>1420.2</ele>
        <time>2023-05-18T09:14:51Z</time>
      </trkpt>
      <trkpt lat="44.64137" lon="5.77825">
        <ele>1420.4</ele>
        <time>2023-05-18T09:14:52Z</time>
      </trkpt>
      <trkpt lat="44.64138" lon="5.77826">
        <ele>1420.4</ele>
        <time>2023-05-18T09:14:53Z</time>
      </trkpt>
      <trkpt lat="44.6414" lon="5.77836">
        <ele>1421.4</ele>
        <time>2023-05-18T09:14:59Z</time>
      </trkpt>
      <trkpt lat="44.64141" lon="5.77837">
        <ele>1421.6</ele>
        <time>2023-05-18T09:15:00Z</time>
      </trkpt>
      <trkpt lat="44.64141" lon="5.77838">
        <ele>1421.6</ele>
        <time>2023-05-18T09:15:01Z</time>
      </trkpt>
      <trkpt lat="44.64142" lon="5.77839">
        <ele>1421.6</ele>
        <time>2023-05-18T09:15:02Z</time>
      </trkpt>
      <trkpt lat="44.64143" lon="5.7784">
        <ele>1421.6</ele>
        <time>2023-05-18T09:15:03Z</time>
      </trkpt>
      <trkpt lat="44.64143" lon="5.77841">
        <ele>1421.6</ele>
        <time>2023-05-18T09:15:04Z</time>
      </trkpt>
      <trkpt lat="44.64144" lon="5.77842">
        <ele>1421.8</ele>
        <time>2023-05-18T09:15:05Z</time>
      </trkpt>
      <trkpt lat="44.64145" lon="5.77844">
        <ele>1421.8</ele>
        <time>2023-05-18T09:15:06Z</time>
      </trkpt>
      <trkpt lat="44.64146" lon="5.77845">
        <ele>1421.8</ele>
        <time>2023-05-18T09:15:07Z</time>
      </trkpt>
      <trkpt lat="44.64146" lon="5.77846">
        <ele>1421.8</ele>
        <time>2023-05-18T09:15:08Z</time>
      </trkpt>
      <trkpt lat="44.64147" lon="5.77847">
        <ele>1422</ele>
        <time>2023-05-18T09:15:09Z</time>
      </trkpt>
      <trkpt lat="44.64147" lon="5.77848">
        <ele>1422</ele>
        <time>2023-05-18T09:15:10Z</time>
      </trkpt>
      <trkpt lat="44.64148" lon="5.77852">
        <ele>1422.2</ele>
        <time>2023-05-18T09:15:13Z</time>
      </trkpt>
      <trkpt lat="44.64149" lon="5.77853">
        <ele>1422.2</ele>
        <time>2023-05-18T09:15:14Z</time>
      </trkpt>
      <trkpt lat="44.6415" lon="5.77856">
        <ele>1422.4</ele>
        <time>2023-05-18T09:15:16Z</time>
      </trkpt>
      <trkpt lat="44.64151" lon="5.77858">
        <ele>1422.4</ele>
        <time>2023-05-18T09:15:17Z</time>
      </trkpt>
      <trkpt lat="44.64152" lon="5.77861">
        <ele>1423</ele>
        <time>2023-05-18T09:15:20Z</time>
      </trkpt>
      <trkpt lat="44.64154" lon="5.77864">
        <ele>1423.2</ele>
        <time>2023-05-18T09:15:23Z</time>
      </trkpt>
      <trkpt lat="44.64158" lon="5.77869">
        <ele>1423.6</ele>
        <time>2023-05-18T09:15:27Z</time>
      </trkpt>
      <trkpt lat="44.64158" lon="5.7787">
        <ele>1423.6</ele>
        <time>2023-05-18T09:15:28Z</time>
      </trkpt>
      <trkpt lat="44.6416" lon="5.77871">
        <ele>1423.8</ele>
        <time>2023-05-18T09:15:30Z</time>
      </trkpt>
      <trkpt lat="44.64161" lon="5.77872">
        <ele>1424</ele>
        <time>2023-05-18T09:15:31Z</time>
      </trkpt>
      <trkpt lat="44.64163" lon="5.77875">
        <ele>1424.4</ele>
        <time>2023-05-18T09:15:34Z</time>
      </trkpt>
      <trkpt lat="44.64164" lon="5.77876">
        <ele>1424.6</ele>
        <time>2023-05-18T09:15:35Z</time>
      </trkpt>
      <trkpt lat="44.64165" lon="5.77877">
        <ele>1424.8</ele>
        <time>2023-05-18T09:15:36Z</time>
      </trkpt>
      <trkpt lat="44.64165" lon="5.77878">
        <ele>1424.8</ele>
        <time>2023-05-18T09:15:37Z</time>
      </trkpt>
      <trkpt lat="44.64166" lon="5.77879">
        <ele>1425</ele>
        <time>2023-05-18T09:15:38Z</time>
      </trkpt>
      <trkpt lat="44.64167" lon="5.7788">
        <ele>1425.2</ele>
        <time>2023-05-18T09:15:39Z</time>
      </trkpt>
      <trkpt lat="44.64168" lon="5.7788">
        <ele>1425.4</ele>
        <time>2023-05-18T09:15:40Z</time>
      </trkpt>
      <trkpt lat="44.64168" lon="5.77881">
        <ele>1425.4</ele>
        <time>2023-05-18T09:15:41Z</time>
      </trkpt>
      <trkpt lat="44.64169" lon="5.77882">
        <ele>1425.6</ele>
        <time>2023-05-18T09:15:42Z</time>
      </trkpt>
      <trkpt lat="44.6417" lon="5.77882">
        <ele>1425.8</ele>
        <time>2023-05-18T09:15:43Z</time>
      </trkpt>
      <trkpt lat="44.64171" lon="5.77882">
        <ele>1425.8</ele>
        <time>2023-05-18T09:15:44Z</time>
      </trkpt>
      <trkpt lat="44.64171" lon="5.77883">
        <ele>1426</ele>
        <time>2023-05-18T09:15:45Z</time>
      </trkpt>
      <trkpt lat="44.64172" lon="5.77883">
        <ele>1426</ele>
        <time>2023-05-18T09:15:46Z</time>
      </trkpt>
      <trkpt lat="44.64172" lon="5.77884">
        <ele>1426.2</ele>
        <time>2023-05-18T09:15:47Z</time>
      </trkpt>
      <trkpt lat="44.64173" lon="5.77885">
        <ele>1426.2</ele>
        <time>2023-05-18T09:15:48Z</time>
      </trkpt>
      <trkpt lat="44.64174" lon="5.77885">
        <ele>1426.2</ele>
        <time>2023-05-18T09:15:49Z</time>
      </trkpt>
      <trkpt lat="44.64175" lon="5.77887">
        <ele>1426.2</ele>
        <time>2023-05-18T09:15:50Z</time>
      </trkpt>
      <trkpt lat="44.64176" lon="5.77888">
        <ele>1426.4</ele>
        <time>2023-05-18T09:15:51Z</time>
      </trkpt>
      <trkpt lat="44.64177" lon="5.77889">
        <ele>1426.4</ele>
        <time>2023-05-18T09:15:52Z</time>
      </trkpt>
      <trkpt lat="44.64177" lon="5.7789">
        <ele>1426.6</ele>
        <time>2023-05-18T09:15:53Z</time>
      </trkpt>
      <trkpt lat="44.64178" lon="5.77891">
        <ele>1426.8</ele>
        <time>2023-05-18T09:15:54Z</time>
      </trkpt>
      <trkpt lat="44.64179" lon="5.77893">
        <ele>1426.8</ele>
        <time>2023-05-18T09:15:55Z</time>
      </trkpt>
      <trkpt lat="44.6418" lon="5.77895">
        <ele>1426.8</ele>
        <time>2023-05-18T09:15:56Z</time>
      </trkpt>
      <trkpt lat="44.6418" lon="5.77896">
        <ele>1427</ele>
        <time>2023-05-18T09:15:57Z</time>
      </trkpt>
      <trkpt lat="44.64181" lon="5.77897">
        <ele>1427</ele>
        <time>2023-05-18T09:15:58Z</time>
      </trkpt>
      <trkpt lat="44.64182" lon="5.77898">
        <ele>1427</ele>
        <time>2023-05-18T09:15:59Z</time>
      </trkpt>
      <trkpt lat="44.64182" lon="5.77898">
        <ele>1427.2</ele>
        <time>2023-05-18T09:16:00Z</time>
      </trkpt>
      <trkpt lat="44.64182" lon="5.77898">
        <ele>1427.2</ele>
        <time>2023-05-18T09:16:01Z</time>
      </trkpt>
      <trkpt lat="44.64182" lon="5.77899">
        <ele>1427.8</ele>
        <time>2023-05-18T09:16:02Z</time>
      </trkpt>
      <trkpt lat="44.64183" lon="5.779">
        <ele>1428</ele>
        <time>2023-05-18T09:16:03Z</time>
      </trkpt>
      <trkpt lat="44.64183" lon="5.779">
        <ele>1428.2</ele>
        <time>2023-05-18T09:16:04Z</time>
      </trkpt>
      <trkpt lat="44.64183" lon="5.77901">
        <ele>1428.4</ele>
        <time>2023-05-18T09:16:05Z</time>
      </trkpt>
      <trkpt lat="44.64184" lon="5.77902">
        <ele>1428.4</ele>
        <time>2023-05-18T09:16:06Z</time>
      </trkpt>
      <trkpt lat="44.64184" lon="5.77904">
        <ele>1428.6</ele>
        <time>2023-05-18T09:16:07Z</time>
      </trkpt>
      <trkpt lat="44.64185" lon="5.77905">
        <ele>1428.6</ele>
        <time>2023-05-18T09:16:08Z</time>
      </trkpt>
      <trkpt lat="44.64185" lon="5.77907">
        <ele>1428.6</ele>
        <time>2023-05-18T09:16:09Z</time>
      </trkpt>
      <trkpt lat="44.64186" lon="5.77908">
        <ele>1428.6</ele>
        <time>2023-05-18T09:16:10Z</time>
      </trkpt>
      <trkpt lat="44.64186" lon="5.77909">
        <ele>1428.8</ele>
        <time>2023-05-18T09:16:11Z</time>
      </trkpt>
      <trkpt lat="44.64187" lon="5.7791">
        <ele>1429</ele>
        <time>2023-05-18T09:16:12Z</time>
      </trkpt>
      <trkpt lat="44.64188" lon="5.7791">
        <ele>1429.2</ele>
        <time>2023-05-18T09:16:13Z</time>
      </trkpt>
      <trkpt lat="44.64188" lon="5.77911">
        <ele>1429.2</ele>
        <time>2023-05-18T09:16:14Z</time>
      </trkpt>
      <trkpt lat="44.64189" lon="5.77912">
        <ele>1429.4</ele>
        <time>2023-05-18T09:16:15Z</time>
      </trkpt>
      <trkpt lat="44.64189" lon="5.77914">
        <ele>1429.6</ele>
        <time>2023-05-18T09:16:16Z</time>
      </trkpt>
      <trkpt lat="44.64189" lon="5.77915">
        <ele>1429.6</ele>
        <time>2023-05-18T09:16:17Z</time>
      </trkpt>
      <trkpt lat="44.6419" lon="5.77916">
        <ele>1429.6</ele>
        <time>2023-05-18T09:16:18Z</time>
      </trkpt>
      <trkpt lat="44.6419" lon="5.77917">
        <ele>1429.8</ele>
        <time>2023-05-18T09:16:19Z</time>
      </trkpt>
      <trkpt lat="44.64191" lon="5.77918">
        <ele>1429.8</ele>
        <time>2023-05-18T09:16:20Z</time>
      </trkpt>
      <trkpt lat="44.64192" lon="5.7792">
        <ele>1430.2</ele>
        <time>2023-05-18T09:16:21Z</time>
      </trkpt>
      <trkpt lat="44.64193" lon="5.77921">
        <ele>1430.2</ele>
        <time>2023-05-18T09:16:22Z</time>
      </trkpt>
      <trkpt lat="44.64194" lon="5.77922">
        <ele>1430.4</ele>
        <time>2023-05-18T09:16:23Z</time>
      </trkpt>
      <trkpt lat="44.64195" lon="5.77923">
        <ele>1430.4</ele>
        <time>2023-05-18T09:16:24Z</time>
      </trkpt>
      <trkpt lat="44.64196" lon="5.77924">
        <ele>1430.6</ele>
        <time>2023-05-18T09:16:25Z</time>
      </trkpt>
      <trkpt lat="44.64196" lon="5.77925">
        <ele>1430.6</ele>
        <time>2023-05-18T09:16:26Z</time>
      </trkpt>
      <trkpt lat="44.64197" lon="5.77926">
        <ele>1430.8</ele>
        <time>2023-05-18T09:16:27Z</time>
      </trkpt>
      <trkpt lat="44.64198" lon="5.77927">
        <ele>1430.8</ele>
        <time>2023-05-18T09:16:28Z</time>
      </trkpt>
      <trkpt lat="44.64198" lon="5.77928">
        <ele>1431</ele>
        <time>2023-05-18T09:16:29Z</time>
      </trkpt>
      <trkpt lat="44.64199" lon="5.77929">
        <ele>1431.2</ele>
        <time>2023-05-18T09:16:30Z</time>
      </trkpt>
      <trkpt lat="44.642" lon="5.7793">
        <ele>1431.2</ele>
        <time>2023-05-18T09:16:31Z</time>
      </trkpt>
      <trkpt lat="44.642" lon="5.7793">
        <ele>1431.4</ele>
        <time>2023-05-18T09:16:32Z</time>
      </trkpt>
      <trkpt lat="44.64201" lon="5.7793">
        <ele>1431.4</ele>
        <time>2023-05-18T09:16:33Z</time>
      </trkpt>
      <trkpt lat="44.64202" lon="5.77931">
        <ele>1431.6</ele>
        <time>2023-05-18T09:16:34Z</time>
      </trkpt>
      <trkpt lat="44.64203" lon="5.77933">
        <ele>1431.6</ele>
        <time>2023-05-18T09:16:35Z</time>
      </trkpt>
      <trkpt lat="44.64203" lon="5.77933">
        <ele>1431.8</ele>
        <time>2023-05-18T09:16:36Z</time>
      </trkpt>
      <trkpt lat="44.64204" lon="5.77934">
        <ele>1431.8</ele>
        <time>2023-05-18T09:16:37Z</time>
      </trkpt>
      <trkpt lat="44.64205" lon="5.77935">
        <ele>1432</ele>
        <time>2023-05-18T09:16:38Z</time>
      </trkpt>
      <trkpt lat="44.64206" lon="5.77936">
        <ele>1432.2</ele>
        <time>2023-05-18T09:16:39Z</time>
      </trkpt>
      <trkpt lat="44.64206" lon="5.77937">
        <ele>1432.2</ele>
        <time>2023-05-18T09:16:40Z</time>
      </trkpt>
      <trkpt lat="44.64207" lon="5.77938">
        <ele>1432.4</ele>
        <time>2023-05-18T09:16:41Z</time>
      </trkpt>
      <trkpt lat="44.64208" lon="5.7794">
        <ele>1432.4</ele>
        <time>2023-05-18T09:16:42Z</time>
      </trkpt>
      <trkpt lat="44.64208" lon="5.77941">
        <ele>1432.6</ele>
        <time>2023-05-18T09:16:43Z</time>
      </trkpt>
      <trkpt lat="44.64209" lon="5.77942">
        <ele>1432.6</ele>
        <time>2023-05-18T09:16:44Z</time>
      </trkpt>
      <trkpt lat="44.6421" lon="5.77943">
        <ele>1432.8</ele>
        <time>2023-05-18T09:16:45Z</time>
      </trkpt>
      <trkpt lat="44.6421" lon="5.77944">
        <ele>1433</ele>
        <time>2023-05-18T09:16:46Z</time>
      </trkpt>
      <trkpt lat="44.64211" lon="5.77945">
        <ele>1433</ele>
        <time>2023-05-18T09:16:47Z</time>
      </trkpt>
      <trkpt lat="44.64211" lon="5.77947">
        <ele>1433.2</ele>
        <time>2023-05-18T09:16:48Z</time>
      </trkpt>
      <trkpt lat="44.64212" lon="5.77947">
        <ele>1433.2</ele>
        <time>2023-05-18T09:16:49Z</time>
      </trkpt>
      <trkpt lat="44.64212" lon="5.77948">
        <ele>1433.4</ele>
        <time>2023-05-18T09:16:50Z</time>
      </trkpt>
      <trkpt lat="44.64214" lon="5.7795">
        <ele>1433.6</ele>
        <time>2023-05-18T09:16:51Z</time>
      </trkpt>
      <trkpt lat="44.64214" lon="5.77951">
        <ele>1433.6</ele>
        <time>2023-05-18T09:16:52Z</time>
      </trkpt>
      <trkpt lat="44.64215" lon="5.77952">
        <ele>1433.8</ele>
        <time>2023-05-18T09:16:53Z</time>
      </trkpt>
      <trkpt lat="44.64216" lon="5.77952">
        <ele>1434</ele>
        <time>2023-05-18T09:16:54Z</time>
      </trkpt>
      <trkpt lat="44.64217" lon="5.77953">
        <ele>1434</ele>
        <time>2023-05-18T09:16:55Z</time>
      </trkpt>
      <trkpt lat="44.64218" lon="5.77955">
        <ele>1434</ele>
        <time>2023-05-18T09:16:56Z</time>
      </trkpt>
      <trkpt lat="44.64219" lon="5.77956">
        <ele>1434.2</ele>
        <time>2023-05-18T09:16:57Z</time>
      </trkpt>
      <trkpt lat="44.6422" lon="5.77957">
        <ele>1434.2</ele>
        <time>2023-05-18T09:16:58Z</time>
      </trkpt>
      <trkpt lat="44.64221" lon="5.77958">
        <ele>1434.4</ele>
        <time>2023-05-18T09:16:59Z</time>
      </trkpt>
      <trkpt lat="44.64221" lon="5.77959">
        <ele>1434.4</ele>
        <time>2023-05-18T09:17:00Z</time>
      </trkpt>
      <trkpt lat="44.64222" lon="5.7796">
        <ele>1434.4</ele>
        <time>2023-05-18T09:17:01Z</time>
      </trkpt>
      <trkpt lat="44.64223" lon="5.77961">
        <ele>1434.6</ele>
        <time>2023-05-18T09:17:02Z</time>
      </trkpt>
      <trkpt lat="44.64224" lon="5.77963">
        <ele>1434.8</ele>
        <time>2023-05-18T09:17:03Z</time>
      </trkpt>
      <trkpt lat="44.64224" lon="5.77964">
        <ele>1434.8</ele>
        <time>2023-05-18T09:17:04Z</time>
      </trkpt>
      <trkpt lat="44.64225" lon="5.77965">
        <ele>1434.8</ele>
        <time>2023-05-18T09:17:05Z</time>
      </trkpt>
      <trkpt lat="44.64226" lon="5.77966">
        <ele>1435</ele>
        <time>2023-05-18T09:17:06Z</time>
      </trkpt>
      <trkpt lat="44.64227" lon="5.77968">
        <ele>1435</ele>
        <time>2023-05-18T09:17:07Z</time>
      </trkpt>
      <trkpt lat="44.64228" lon="5.77969">
        <ele>1435.2</ele>
        <time>2023-05-18T09:17:08Z</time>
      </trkpt>
      <trkpt lat="44.64228" lon="5.7797">
        <ele>1435.2</ele>
        <time>2023-05-18T09:17:09Z</time>
      </trkpt>
      <trkpt lat="44.64229" lon="5.77972">
        <ele>1435.4</ele>
        <time>2023-05-18T09:17:10Z</time>
      </trkpt>
      <trkpt lat="44.6423" lon="5.77973">
        <ele>1435.6</ele>
        <time>2023-05-18T09:17:11Z</time>
      </trkpt>
      <trkpt lat="44.6423" lon="5.77974">
        <ele>1435.8</ele>
        <time>2023-05-18T09:17:12Z</time>
      </trkpt>
      <trkpt lat="44.64231" lon="5.77975">
        <ele>1435.8</ele>
        <time>2023-05-18T09:17:13Z</time>
      </trkpt>
      <trkpt lat="44.64232" lon="5.77976">
        <ele>1436</ele>
        <time>2023-05-18T09:17:14Z</time>
      </trkpt>
      <trkpt lat="44.64232" lon="5.77977">
        <ele>1436.2</ele>
        <time>2023-05-18T09:17:15Z</time>
      </trkpt>
      <trkpt lat="44.64233" lon="5.77978">
        <ele>1436.2</ele>
        <time>2023-05-18T09:17:16Z</time>
      </trkpt>
      <trkpt lat="44.64233" lon="5.7798">
        <ele>1436.4</ele>
        <time>2023-05-18T09:17:17Z</time>
      </trkpt>
      <trkpt lat="44.64234" lon="5.77981">
        <ele>1436.4</ele>
        <time>2023-05-18T09:17:18Z</time>
      </trkpt>
      <trkpt lat="44.64234" lon="5.77982">
        <ele>1436.8</ele>
        <time>2023-05-18T09:17:19Z</time>
      </trkpt>
      <trkpt lat="44.64235" lon="5.77983">
        <ele>1436.8</ele>
        <time>2023-05-18T09:17:20Z</time>
      </trkpt>
      <trkpt lat="44.64236" lon="5.77984">
        <ele>1437</ele>
        <time>2023-05-18T09:17:21Z</time>
      </trkpt>
      <trkpt lat="44.64236" lon="5.77985">
        <ele>1437</ele>
        <time>2023-05-18T09:17:22Z</time>
      </trkpt>
      <trkpt lat="44.64237" lon="5.77987">
        <ele>1437.2</ele>
        <time>2023-05-18T09:17:23Z</time>
      </trkpt>
      <trkpt lat="44.64237" lon="5.77987">
        <ele>1437.4</ele>
        <time>2023-05-18T09:17:24Z</time>
      </trkpt>
      <trkpt lat="44.64238" lon="5.77988">
        <ele>1437.4</ele>
        <time>2023-05-18T09:17:25Z</time>
      </trkpt>
      <trkpt lat="44.64238" lon="5.7799">
        <ele>1437.6</ele>
        <time>2023-05-18T09:17:26Z</time>
      </trkpt>
      <trkpt lat="44.64239" lon="5.77991">
        <ele>1437.6</ele>
        <time>2023-05-18T09:17:27Z</time>
      </trkpt>
      <trkpt lat="44.6424" lon="5.77992">
        <ele>1437.8</ele>
        <time>2023-05-18T09:17:28Z</time>
      </trkpt>
      <trkpt lat="44.6424" lon="5.77993">
        <ele>1437.8</ele>
        <time>2023-05-18T09:17:29Z</time>
      </trkpt>
      <trkpt lat="44.64241" lon="5.77994">
        <ele>1437.8</ele>
        <time>2023-05-18T09:17:30Z</time>
      </trkpt>
      <trkpt lat="44.64241" lon="5.77996">
        <ele>1438</ele>
        <time>2023-05-18T09:17:31Z</time>
      </trkpt>
      <trkpt lat="44.64242" lon="5.77997">
        <ele>1438.2</ele>
        <time>2023-05-18T09:17:32Z</time>
      </trkpt>
      <trkpt lat="44.64242" lon="5.77998">
        <ele>1438.2</ele>
        <time>2023-05-18T09:17:33Z</time>
      </trkpt>
      <trkpt lat="44.64242" lon="5.77999">
        <ele>1438.4</ele>
        <time>2023-05-18T09:17:34Z</time>
      </trkpt>
      <trkpt lat="44.64243" lon="5.78">
        <ele>1438.6</ele>
        <time>2023-05-18T09:17:35Z</time>
      </trkpt>
      <trkpt lat="44.64244" lon="5.78002">
        <ele>1438.6</ele>
        <time>2023-05-18T09:17:36Z</time>
      </trkpt>
      <trkpt lat="44.64244" lon="5.78004">
        <ele>1438.8</ele>
        <time>2023-05-18T09:17:37Z</time>
      </trkpt>
      <trkpt lat="44.64244" lon="5.78006">
        <ele>1439</ele>
        <time>2023-05-18T09:17:38Z</time>
      </trkpt>
      <trkpt lat="44.64245" lon="5.78008">
        <ele>1439</ele>
        <time>2023-05-18T09:17:39Z</time>
      </trkpt>
      <trkpt lat="44.64245" lon="5.7801">
        <ele>1439</ele>
        <time>2023-05-18T09:17:40Z</time>
      </trkpt>
      <trkpt lat="44.64245" lon="5.78011">
        <ele>1439.2</ele>
        <time>2023-05-18T09:17:41Z</time>
      </trkpt>
      <trkpt lat="44.64246" lon="5.78013">
        <ele>1439.2</ele>
        <time>2023-05-18T09:17:42Z</time>
      </trkpt>
      <trkpt lat="44.64246" lon="5.78014">
        <ele>1439.4</ele>
        <time>2023-05-18T09:17:43Z</time>
      </trkpt>
      <trkpt lat="44.64246" lon="5.78016">
        <ele>1439.4</ele>
        <time>2023-05-18T09:17:44Z</time>
      </trkpt>
      <trkpt lat="44.64246" lon="5.78017">
        <ele>1439.4</ele>
        <time>2023-05-18T09:17:45Z</time>
      </trkpt>
      <trkpt lat="44.64246" lon="5.78019">
        <ele>1439.4</ele>
        <time>2023-05-18T09:17:46Z</time>
      </trkpt>
      <trkpt lat="44.64247" lon="5.78019">
        <ele>1439.6</ele>
        <time>2023-05-18T09:17:47Z</time>
      </trkpt>
      <trkpt lat="44.64247" lon="5.7802">
        <ele>1439.8</ele>
        <time>2023-05-18T09:17:48Z</time>
      </trkpt>
      <trkpt lat="44.64247" lon="5.7802">
        <ele>1439.8</ele>
        <time>2023-05-18T09:17:49Z</time>
      </trkpt>
      <trkpt lat="44.64247" lon="5.78021">
        <ele>1439.8</ele>
        <time>2023-05-18T09:17:50Z</time>
      </trkpt>
      <trkpt lat="44.64248" lon="5.78022">
        <ele>1439.8</ele>
        <time>2023-05-18T09:17:51Z</time>
      </trkpt>
      <trkpt lat="44.64248" lon="5.78024">
        <ele>1439.8</ele>
        <time>2023-05-18T09:17:52Z</time>
      </trkpt>
      <trkpt lat="44.64248" lon="5.78025">
        <ele>1440</ele>
        <time>2023-05-18T09:17:53Z</time>
      </trkpt>
      <trkpt lat="44.64248" lon="5.78027">
        <ele>1440</ele>
        <time>2023-05-18T09:17:54Z</time>
      </trkpt>
      <trkpt lat="44.64249" lon="5.78028">
        <ele>1440</ele>
        <time>2023-05-18T09:17:55Z</time>
      </trkpt>
      <trkpt lat="44.64249" lon="5.7803">
        <ele>1440</ele>
        <time>2023-05-18T09:17:56Z</time>
      </trkpt>
      <trkpt lat="44.64249" lon="5.78031">
        <ele>1440</ele>
        <time>2023-05-18T09:17:57Z</time>
      </trkpt>
      <trkpt lat="44.6425" lon="5.78034">
        <ele>1440.4</ele>
        <time>2023-05-18T09:18:01Z</time>
      </trkpt>
      <trkpt lat="44.6425" lon="5.78035">
        <ele>1440.6</ele>
        <time>2023-05-18T09:18:02Z</time>
      </trkpt>
      <trkpt lat="44.6425" lon="5.78036">
        <ele>1440.8</ele>
        <time>2023-05-18T09:18:03Z</time>
      </trkpt>
      <trkpt lat="44.6425" lon="5.78038">
        <ele>1441</ele>
        <time>2023-05-18T09:18:04Z</time>
      </trkpt>
      <trkpt lat="44.6425" lon="5.78043">
        <ele>1441.4</ele>
        <time>2023-05-18T09:18:07Z</time>
      </trkpt>
      <trkpt lat="44.6425" lon="5.78047">
        <ele>1441.6</ele>
        <time>2023-05-18T09:18:09Z</time>
      </trkpt>
      <trkpt lat="44.64249" lon="5.78048">
        <ele>1441.8</ele>
        <time>2023-05-18T09:18:10Z</time>
      </trkpt>
      <trkpt lat="44.64249" lon="5.78049">
        <ele>1442</ele>
        <time>2023-05-18T09:18:11Z</time>
      </trkpt>
      <trkpt lat="44.64249" lon="5.78051">
        <ele>1442.2</ele>
        <time>2023-05-18T09:18:12Z</time>
      </trkpt>
      <trkpt lat="44.64249" lon="5.78053">
        <ele>1442.4</ele>
        <time>2023-05-18T09:18:13Z</time>
      </trkpt>
      <trkpt lat="44.64249" lon="5.78055">
        <ele>1442.4</ele>
        <time>2023-05-18T09:18:14Z</time>
      </trkpt>
      <trkpt lat="44.64248" lon="5.78056">
        <ele>1442.6</ele>
        <time>2023-05-18T09:18:15Z</time>
      </trkpt>
      <trkpt lat="44.64248" lon="5.78058">
        <ele>1442.6</ele>
        <time>2023-05-18T09:18:16Z</time>
      </trkpt>
      <trkpt lat="44.64248" lon="5.78059">
        <ele>1442.8</ele>
        <time>2023-05-18T09:18:17Z</time>
      </trkpt>
      <trkpt lat="44.64247" lon="5.78061">
        <ele>1443</ele>
        <time>2023-05-18T09:18:18Z</time>
      </trkpt>
      <trkpt lat="44.64247" lon="5.78063">
        <ele>1443</ele>
        <time>2023-05-18T09:18:19Z</time>
      </trkpt>
      <trkpt lat="44.64247" lon="5.78064">
        <ele>1443</ele>
        <time>2023-05-18T09:18:20Z</time>
      </trkpt>
      <trkpt lat="44.64246" lon="5.78066">
        <ele>1443</ele>
        <time>2023-05-18T09:18:21Z</time>
      </trkpt>
      <trkpt lat="44.64246" lon="5.78068">
        <ele>1443.2</ele>
        <time>2023-05-18T09:18:22Z</time>
      </trkpt>
      <trkpt lat="44.64246" lon="5.78069">
        <ele>1443.2</ele>
        <time>2023-05-18T09:18:23Z</time>
      </trkpt>
      <trkpt lat="44.64245" lon="5.78071">
        <ele>1443.4</ele>
        <time>2023-05-18T09:18:24Z</time>
      </trkpt>
      <trkpt lat="44.64245" lon="5.78072">
        <ele>1443.4</ele>
        <time>2023-05-18T09:18:25Z</time>
      </trkpt>
      <trkpt lat="44.64245" lon="5.78074">
        <ele>1443.6</ele>
        <time>2023-05-18T09:18:26Z</time>
      </trkpt>
      <trkpt lat="44.64245" lon="5.78076">
        <ele>1443.8</ele>
        <time>2023-05-18T09:18:27Z</time>
      </trkpt>
      <trkpt lat="44.64244" lon="5.78078">
        <ele>1444</ele>
        <time>2023-05-18T09:18:28Z</time>
      </trkpt>
      <trkpt lat="44.64244" lon="5.78079">
        <ele>1444</ele>
        <time>2023-05-18T09:18:29Z</time>
      </trkpt>
      <trkpt lat="44.64244" lon="5.78081">
        <ele>1444</ele>
        <time>2023-05-18T09:18:30Z</time>
      </trkpt>
      <trkpt lat="44.64243" lon="5.78082">
        <ele>1444.2</ele>
        <time>2023-05-18T09:18:31Z</time>
      </trkpt>
      <trkpt lat="44.64243" lon="5.78083">
        <ele>1444.2</ele>
        <time>2023-05-18T09:18:32Z</time>
      </trkpt>
      <trkpt lat="44.64242" lon="5.78085">
        <ele>1444.4</ele>
        <time>2023-05-18T09:18:33Z</time>
      </trkpt>
      <trkpt lat="44.64242" lon="5.78086">
        <ele>1444.4</ele>
        <time>2023-05-18T09:18:34Z</time>
      </trkpt>
      <trkpt lat="44.64241" lon="5.78088">
        <ele>1444.4</ele>
        <time>2023-05-18T09:18:35Z</time>
      </trkpt>
      <trkpt lat="44.64241" lon="5.7809">
        <ele>1444.6</ele>
        <time>2023-05-18T09:18:36Z</time>
      </trkpt>
      <trkpt lat="44.64241" lon="5.78091">
        <ele>1444.6</ele>
        <time>2023-05-18T09:18:37Z</time>
      </trkpt>
      <trkpt lat="44.6424" lon="5.78092">
        <ele>1444.6</ele>
        <time>2023-05-18T09:18:38Z</time>
      </trkpt>
      <trkpt lat="44.6424" lon="5.78093">
        <ele>1444.6</ele>
        <time>2023-05-18T09:18:39Z</time>
      </trkpt>
      <trkpt lat="44.64239" lon="5.78094">
        <ele>1444.6</ele>
        <time>2023-05-18T09:18:40Z</time>
      </trkpt>
      <trkpt lat="44.64239" lon="5.78096">
        <ele>1444.6</ele>
        <time>2023-05-18T09:18:41Z</time>
      </trkpt>
      <trkpt lat="44.64238" lon="5.78096">
        <ele>1444.8</ele>
        <time>2023-05-18T09:18:42Z</time>
      </trkpt>
      <trkpt lat="44.64237" lon="5.78098">
        <ele>1444.8</ele>
        <time>2023-05-18T09:18:43Z</time>
      </trkpt>
      <trkpt lat="44.64233" lon="5.78103">
        <ele>1444.8</ele>
        <time>2023-05-18T09:18:46Z</time>
      </trkpt>
      <trkpt lat="44.64232" lon="5.78104">
        <ele>1444.8</ele>
        <time>2023-05-18T09:18:47Z</time>
      </trkpt>
      <trkpt lat="44.64231" lon="5.78105">
        <ele>1444.8</ele>
        <time>2023-05-18T09:18:48Z</time>
      </trkpt>
      <trkpt lat="44.64226" lon="5.78113">
        <ele>1444.8</ele>
        <time>2023-05-18T09:18:54Z</time>
      </trkpt>
      <trkpt lat="44.64225" lon="5.78114">
        <ele>1444.8</ele>
        <time>2023-05-18T09:18:55Z</time>
      </trkpt>
      <trkpt lat="44.64225" lon="5.78116">
        <ele>1444.8</ele>
        <time>2023-05-18T09:18:56Z</time>
      </trkpt>
      <trkpt lat="44.64224" lon="5.78117">
        <ele>1444.8</ele>
        <time>2023-05-18T09:18:57Z</time>
      </trkpt>
      <trkpt lat="44.64224" lon="5.78119">
        <ele>1445</ele>
        <time>2023-05-18T09:18:58Z</time>
      </trkpt>
      <trkpt lat="44.64224" lon="5.78121">
        <ele>1445</ele>
        <time>2023-05-18T09:18:59Z</time>
      </trkpt>
      <trkpt lat="44.64223" lon="5.78123">
        <ele>1445</ele>
        <time>2023-05-18T09:19:01Z</time>
      </trkpt>
      <trkpt lat="44.64223" lon="5.78124">
        <ele>1445</ele>
        <time>2023-05-18T09:19:02Z</time>
      </trkpt>
      <trkpt lat="44.64222" lon="5.78125">
        <ele>1445.2</ele>
        <time>2023-05-18T09:19:03Z</time>
      </trkpt>
      <trkpt lat="44.64221" lon="5.78126">
        <ele>1445.2</ele>
        <time>2023-05-18T09:19:04Z</time>
      </trkpt>
      <trkpt lat="44.6422" lon="5.78127">
        <ele>1445.2</ele>
        <time>2023-05-18T09:19:05Z</time>
      </trkpt>
      <trkpt lat="44.6422" lon="5.78128">
        <ele>1445.4</ele>
        <time>2023-05-18T09:19:06Z</time>
      </trkpt>
      <trkpt lat="44.64219" lon="5.78129">
        <ele>1445.4</ele>
        <time>2023-05-18T09:19:07Z</time>
      </trkpt>
      <trkpt lat="44.64219" lon="5.78129">
        <ele>1445.4</ele>
        <time>2023-05-18T09:19:08Z</time>
      </trkpt>
      <trkpt lat="44.64219" lon="5.78129">
        <ele>1445.6</ele>
        <time>2023-05-18T09:19:09Z</time>
      </trkpt>
      <trkpt lat="44.6422" lon="5.78129">
        <ele>1446</ele>
        <time>2023-05-18T09:19:18Z</time>
      </trkpt>
      <trkpt lat="44.6422" lon="5.78129">
        <ele>1446</ele>
        <time>2023-05-18T09:19:28Z</time>
      </trkpt>
      <trkpt lat="44.64219" lon="5.7813">
        <ele>1446</ele>
        <time>2023-05-18T09:19:36Z</time>
      </trkpt>
      <trkpt lat="44.64218" lon="5.7813">
        <ele>1446.2</ele>
        <time>2023-05-18T09:19:43Z</time>
      </trkpt>
      <trkpt lat="44.64218" lon="5.78131">
        <ele>1446.6</ele>
        <time>2023-05-18T09:19:46Z</time>
      </trkpt>
      <trkpt lat="44.64218" lon="5.78132">
        <ele>1446.6</ele>
        <time>2023-05-18T09:19:47Z</time>
      </trkpt>
      <trkpt lat="44.64217" lon="5.78132">
        <ele>1447</ele>
        <time>2023-05-18T09:19:49Z</time>
      </trkpt>
      <trkpt lat="44.64217" lon="5.78133">
        <ele>1447</ele>
        <time>2023-05-18T09:19:50Z</time>
      </trkpt>
      <trkpt lat="44.64217" lon="5.78133">
        <ele>1447</ele>
        <time>2023-05-18T09:19:51Z</time>
      </trkpt>
      <trkpt lat="44.64217" lon="5.78133">
        <ele>1447.2</ele>
        <time>2023-05-18T09:19:52Z</time>
      </trkpt>
      <trkpt lat="44.64217" lon="5.78134">
        <ele>1447.2</ele>
        <time>2023-05-18T09:19:53Z</time>
      </trkpt>
      <trkpt lat="44.64217" lon="5.78134">
        <ele>1447.2</ele>
        <time>2023-05-18T09:19:54Z</time>
      </trkpt>
      <trkpt lat="44.64217" lon="5.78134">
        <ele>1447.4</ele>
        <time>2023-05-18T09:19:55Z</time>
      </trkpt>
      <trkpt lat="44.64216" lon="5.78137">
        <ele>1447.8</ele>
        <time>2023-05-18T09:19:59Z</time>
      </trkpt>
      <trkpt lat="44.64216" lon="5.78137">
        <ele>1448</ele>
        <time>2023-05-18T09:20:02Z</time>
      </trkpt>
      <trkpt lat="44.64215" lon="5.78141">
        <ele>1448.6</ele>
        <time>2023-05-18T09:20:05Z</time>
      </trkpt>
      <trkpt lat="44.64214" lon="5.78145">
        <ele>1448.8</ele>
        <time>2023-05-18T09:20:07Z</time>
      </trkpt>
      <trkpt lat="44.64213" lon="5.78147">
        <ele>1449</ele>
        <time>2023-05-18T09:20:09Z</time>
      </trkpt>
      <trkpt lat="44.64213" lon="5.78148">
        <ele>1449</ele>
        <time>2023-05-18T09:20:10Z</time>
      </trkpt>
      <trkpt lat="44.64213" lon="5.78149">
        <ele>1449</ele>
        <time>2023-05-18T09:20:11Z</time>
      </trkpt>
      <trkpt lat="44.64213" lon="5.7815">
        <ele>1449.2</ele>
        <time>2023-05-18T09:20:12Z</time>
      </trkpt>
      <trkpt lat="44.64213" lon="5.78152">
        <ele>1449.2</ele>
        <time>2023-05-18T09:20:13Z</time>
      </trkpt>
      <trkpt lat="44.64213" lon="5.78152">
        <ele>1449.4</ele>
        <time>2023-05-18T09:20:14Z</time>
      </trkpt>
      <trkpt lat="44.64213" lon="5.78153">
        <ele>1449.4</ele>
        <time>2023-05-18T09:20:15Z</time>
      </trkpt>
      <trkpt lat="44.64213" lon="5.78154">
        <ele>1449.4</ele>
        <time>2023-05-18T09:20:16Z</time>
      </trkpt>
      <trkpt lat="44.64213" lon="5.78155">
        <ele>1449.2</ele>
        <time>2023-05-18T09:20:17Z</time>
      </trkpt>
      <trkpt lat="44.64213" lon="5.78156">
        <ele>1449.4</ele>
        <time>2023-05-18T09:20:18Z</time>
      </trkpt>
      <trkpt lat="44.64213" lon="5.78156">
        <ele>1449.4</ele>
        <time>2023-05-18T09:20:19Z</time>
      </trkpt>
      <trkpt lat="44.64212" lon="5.78158">
        <ele>1449.4</ele>
        <time>2023-05-18T09:20:20Z</time>
      </trkpt>
      <trkpt lat="44.64212" lon="5.78158">
        <ele>1449.6</ele>
        <time>2023-05-18T09:20:21Z</time>
      </trkpt>
      <trkpt lat="44.64212" lon="5.78158">
        <ele>1449.6</ele>
        <time>2023-05-18T09:20:22Z</time>
      </trkpt>
      <trkpt lat="44.64212" lon="5.78158">
        <ele>1449.6</ele>
        <time>2023-05-18T09:20:23Z</time>
      </trkpt>
      <trkpt lat="44.64212" lon="5.78158">
        <ele>1449.6</ele>
        <time>2023-05-18T09:20:24Z</time>
      </trkpt>
      <trkpt lat="44.64212" lon="5.78158">
        <ele>1449.6</ele>
        <time>2023-05-18T09:20:25Z</time>
      </trkpt>
      <trkpt lat="44.64212" lon="5.7816">
        <ele>1449.8</ele>
        <time>2023-05-18T09:20:27Z</time>
      </trkpt>
      <trkpt lat="44.64211" lon="5.78162">
        <ele>1450</ele>
        <time>2023-05-18T09:20:28Z</time>
      </trkpt>
      <trkpt lat="44.64211" lon="5.78163">
        <ele>1450.4</ele>
        <time>2023-05-18T09:20:31Z</time>
      </trkpt>
      <trkpt lat="44.64211" lon="5.78164">
        <ele>1451</ele>
        <time>2023-05-18T09:20:36Z</time>
      </trkpt>
      <trkpt lat="44.64211" lon="5.78164">
        <ele>1451.2</ele>
        <time>2023-05-18T09:20:37Z</time>
      </trkpt>
      <trkpt lat="44.6421" lon="5.78167">
        <ele>1452.2</ele>
        <time>2023-05-18T09:20:47Z</time>
      </trkpt>
      <trkpt lat="44.6421" lon="5.78167">
        <ele>1452.2</ele>
        <time>2023-05-18T09:20:48Z</time>
      </trkpt>
      <trkpt lat="44.6421" lon="5.78167">
        <ele>1452.2</ele>
        <time>2023-05-18T09:20:49Z</time>
      </trkpt>
      <trkpt lat="44.6421" lon="5.78167">
        <ele>1452.4</ele>
        <time>2023-05-18T09:20:50Z</time>
      </trkpt>
      <trkpt lat="44.6421" lon="5.78167">
        <ele>1452.6</ele>
        <time>2023-05-18T09:20:51Z</time>
      </trkpt>
      <trkpt lat="44.6421" lon="5.7817">
        <ele>1452.8</ele>
        <time>2023-05-18T09:20:54Z</time>
      </trkpt>
      <trkpt lat="44.64211" lon="5.78171">
        <ele>1453</ele>
        <time>2023-05-18T09:20:55Z</time>
      </trkpt>
      <trkpt lat="44.64211" lon="5.78171">
        <ele>1453</ele>
        <time>2023-05-18T09:20:56Z</time>
      </trkpt>
      <trkpt lat="44.64211" lon="5.78171">
        <ele>1453.2</ele>
        <time>2023-05-18T09:20:57Z</time>
      </trkpt>
      <trkpt lat="44.64211" lon="5.78171">
        <ele>1453.4</ele>
        <time>2023-05-18T09:20:59Z</time>
      </trkpt>
      <trkpt lat="44.64211" lon="5.78171">
        <ele>1453.6</ele>
        <time>2023-05-18T09:21:00Z</time>
      </trkpt>
      <trkpt lat="44.64211" lon="5.78171">
        <ele>1453.6</ele>
        <time>2023-05-18T09:21:01Z</time>
      </trkpt>
      <trkpt lat="44.64211" lon="5.78171">
        <ele>1453.8</ele>
        <time>2023-05-18T09:21:02Z</time>
      </trkpt>
      <trkpt lat="44.64211" lon="5.78172">
        <ele>1454</ele>
        <time>2023-05-18T09:21:03Z</time>
      </trkpt>
      <trkpt lat="44.64211" lon="5.78172">
        <ele>1454.2</ele>
        <time>2023-05-18T09:21:04Z</time>
      </trkpt>
      <trkpt lat="44.64211" lon="5.78172">
        <ele>1454.2</ele>
        <time>2023-05-18T09:21:05Z</time>
      </trkpt>
      <trkpt lat="44.6421" lon="5.78172">
        <ele>1454.4</ele>
        <time>2023-05-18T09:21:06Z</time>
      </trkpt>
      <trkpt lat="44.64208" lon="5.78177">
        <ele>1454.6</ele>
        <time>2023-05-18T09:21:08Z</time>
      </trkpt>
      <trkpt lat="44.64208" lon="5.78179">
        <ele>1454.8</ele>
        <time>2023-05-18T09:21:09Z</time>
      </trkpt>
      <trkpt lat="44.64207" lon="5.78183">
        <ele>1454.6</ele>
        <time>2023-05-18T09:21:10Z</time>
      </trkpt>
      <trkpt lat="44.64207" lon="5.78183">
        <ele>1454.8</ele>
        <time>2023-05-18T09:21:11Z</time>
      </trkpt>
      <trkpt lat="44.64207" lon="5.78183">
        <ele>1454.8</ele>
        <time>2023-05-18T09:21:12Z</time>
      </trkpt>
      <trkpt lat="44.64207" lon="5.78183">
        <ele>1455</ele>
        <time>2023-05-18T09:21:13Z</time>
      </trkpt>
      <trkpt lat="44.64207" lon="5.78183">
        <ele>1455.2</ele>
        <time>2023-05-18T09:21:16Z</time>
      </trkpt>
      <trkpt lat="44.64207" lon="5.78183">
        <ele>1455.4</ele>
        <time>2023-05-18T09:21:17Z</time>
      </trkpt>
      <trkpt lat="44.64207" lon="5.78183">
        <ele>1455.6</ele>
        <time>2023-05-18T09:21:18Z</time>
      </trkpt>
      <trkpt lat="44.64207" lon="5.78183">
        <ele>1455.8</ele>
        <time>2023-05-18T09:21:19Z</time>
      </trkpt>
      <trkpt lat="44.64207" lon="5.78183">
        <ele>1456</ele>
        <time>2023-05-18T09:21:20Z</time>
      </trkpt>
      <trkpt lat="44.64207" lon="5.78183">
        <ele>1456</ele>
        <time>2023-05-18T09:21:21Z</time>
      </trkpt>
      <trkpt lat="44.64207" lon="5.78186">
        <ele>1456.2</ele>
        <time>2023-05-18T09:21:22Z</time>
      </trkpt>
      <trkpt lat="44.64207" lon="5.78186">
        <ele>1456.2</ele>
        <time>2023-05-18T09:21:23Z</time>
      </trkpt>
      <trkpt lat="44.64207" lon="5.78186">
        <ele>1456.2</ele>
        <time>2023-05-18T09:21:24Z</time>
      </trkpt>
      <trkpt lat="44.64207" lon="5.78187">
        <ele>1456.4</ele>
        <time>2023-05-18T09:21:25Z</time>
      </trkpt>
      <trkpt lat="44.64207" lon="5.7819">
        <ele>1456.4</ele>
        <time>2023-05-18T09:21:26Z</time>
      </trkpt>
      <trkpt lat="44.64207" lon="5.7819">
        <ele>1456.4</ele>
        <time>2023-05-18T09:21:27Z</time>
      </trkpt>
      <trkpt lat="44.64207" lon="5.7819">
        <ele>1456.6</ele>
        <time>2023-05-18T09:21:28Z</time>
      </trkpt>
      <trkpt lat="44.64206" lon="5.78191">
        <ele>1456.8</ele>
        <time>2023-05-18T09:21:31Z</time>
      </trkpt>
      <trkpt lat="44.64206" lon="5.78192">
        <ele>1457</ele>
        <time>2023-05-18T09:21:32Z</time>
      </trkpt>
      <trkpt lat="44.64206" lon="5.78194">
        <ele>1457.2</ele>
        <time>2023-05-18T09:21:33Z</time>
      </trkpt>
      <trkpt lat="44.64206" lon="5.78194">
        <ele>1457.2</ele>
        <time>2023-05-18T09:21:34Z</time>
      </trkpt>
      <trkpt lat="44.64206" lon="5.78194">
        <ele>1457.4</ele>
        <time>2023-05-18T09:21:35Z</time>
      </trkpt>
      <trkpt lat="44.64206" lon="5.78194">
        <ele>1457.4</ele>
        <time>2023-05-18T09:21:36Z</time>
      </trkpt>
      <trkpt lat="44.64206" lon="5.78194">
        <ele>1457.6</ele>
        <time>2023-05-18T09:21:37Z</time>
      </trkpt>
      <trkpt lat="44.64206" lon="5.78194">
        <ele>1457.8</ele>
        <time>2023-05-18T09:21:38Z</time>
      </trkpt>
      <trkpt lat="44.64206" lon="5.78194">
        <ele>1458</ele>
        <time>2023-05-18T09:21:39Z</time>
      </trkpt>
      <trkpt lat="44.64206" lon="5.78194">
        <ele>1458.2</ele>
        <time>2023-05-18T09:21:40Z</time>
      </trkpt>
      <trkpt lat="44.64206" lon="5.78194">
        <ele>1458.2</ele>
        <time>2023-05-18T09:21:41Z</time>
      </trkpt>
      <trkpt lat="44.64206" lon="5.78194">
        <ele>1458.2</ele>
        <time>2023-05-18T09:21:42Z</time>
      </trkpt>
      <trkpt lat="44.64206" lon="5.78194">
        <ele>1458.4</ele>
        <time>2023-05-18T09:21:43Z</time>
      </trkpt>
      <trkpt lat="44.64205" lon="5.78196">
        <ele>1458.6</ele>
        <time>2023-05-18T09:21:46Z</time>
      </trkpt>
      <trkpt lat="44.64204" lon="5.78196">
        <ele>1459.2</ele>
        <time>2023-05-18T09:21:49Z</time>
      </trkpt>
      <trkpt lat="44.64204" lon="5.78196">
        <ele>1459.4</ele>
        <time>2023-05-18T09:21:53Z</time>
      </trkpt>
      <trkpt lat="44.64203" lon="5.78199">
        <ele>1460</ele>
        <time>2023-05-18T09:22:02Z</time>
      </trkpt>
      <trkpt lat="44.64203" lon="5.78199">
        <ele>1460.2</ele>
        <time>2023-05-18T09:22:04Z</time>
      </trkpt>
      <trkpt lat="44.64203" lon="5.78199">
        <ele>1460.8</ele>
        <time>2023-05-18T09:22:12Z</time>
      </trkpt>
      <trkpt lat="44.64203" lon="5.78199">
        <ele>1461.2</ele>
        <time>2023-05-18T09:22:15Z</time>
      </trkpt>
      <trkpt lat="44.64203" lon="5.78199">
        <ele>1461.6</ele>
        <time>2023-05-18T09:22:20Z</time>
      </trkpt>
      <trkpt lat="44.64201" lon="5.78204">
        <ele>1462</ele>
        <time>2023-05-18T09:22:30Z</time>
      </trkpt>
      <trkpt lat="44.642" lon="5.78205">
        <ele>1462.4</ele>
        <time>2023-05-18T09:22:31Z</time>
      </trkpt>
      <trkpt lat="44.64199" lon="5.78208">
        <ele>1463</ele>
        <time>2023-05-18T09:22:39Z</time>
      </trkpt>
      <trkpt lat="44.64199" lon="5.78208">
        <ele>1463.2</ele>
        <time>2023-05-18T09:22:40Z</time>
      </trkpt>
      <trkpt lat="44.64197" lon="5.78211">
        <ele>1464.2</ele>
        <time>2023-05-18T09:22:52Z</time>
      </trkpt>
      <trkpt lat="44.64197" lon="5.78211">
        <ele>1464.4</ele>
        <time>2023-05-18T09:22:54Z</time>
      </trkpt>
      <trkpt lat="44.64195" lon="5.78216">
        <ele>1465.2</ele>
        <time>2023-05-18T09:23:02Z</time>
      </trkpt>
      <trkpt lat="44.64195" lon="5.78216">
        <ele>1465.4</ele>
        <time>2023-05-18T09:23:03Z</time>
      </trkpt>
      <trkpt lat="44.64194" lon="5.78219">
        <ele>1466</ele>
        <time>2023-05-18T09:23:08Z</time>
      </trkpt>
      <trkpt lat="44.64194" lon="5.78221">
        <ele>1466.2</ele>
        <time>2023-05-18T09:23:11Z</time>
      </trkpt>
      <trkpt lat="44.64193" lon="5.78221">
        <ele>1466.6</ele>
        <time>2023-05-18T09:23:14Z</time>
      </trkpt>
      <trkpt lat="44.64193" lon="5.78225">
        <ele>1467</ele>
        <time>2023-05-18T09:23:18Z</time>
      </trkpt>
      <trkpt lat="44.64193" lon="5.78226">
        <ele>1467</ele>
        <time>2023-05-18T09:23:19Z</time>
      </trkpt>
      <trkpt lat="44.64193" lon="5.78226">
        <ele>1467.6</ele>
        <time>2023-05-18T09:23:26Z</time>
      </trkpt>
      <trkpt lat="44.64193" lon="5.78227">
        <ele>1468.2</ele>
        <time>2023-05-18T09:23:32Z</time>
      </trkpt>
      <trkpt lat="44.64192" lon="5.78229">
        <ele>1468.4</ele>
        <time>2023-05-18T09:23:35Z</time>
      </trkpt>
      <trkpt lat="44.64192" lon="5.7823">
        <ele>1468.6</ele>
        <time>2023-05-18T09:23:38Z</time>
      </trkpt>
      <trkpt lat="44.64191" lon="5.78231">
        <ele>1468.8</ele>
        <time>2023-05-18T09:23:39Z</time>
      </trkpt>
      <trkpt lat="44.6419" lon="5.78233">
        <ele>1469</ele>
        <time>2023-05-18T09:23:41Z</time>
      </trkpt>
      <trkpt lat="44.6419" lon="5.78234">
        <ele>1469.2</ele>
        <time>2023-05-18T09:23:42Z</time>
      </trkpt>
      <trkpt lat="44.6419" lon="5.78234">
        <ele>1469.2</ele>
        <time>2023-05-18T09:23:43Z</time>
      </trkpt>
      <trkpt lat="44.64188" lon="5.78241">
        <ele>1469.6</ele>
        <time>2023-05-18T09:23:48Z</time>
      </trkpt>
      <trkpt lat="44.64188" lon="5.78241">
        <ele>1469.8</ele>
        <time>2023-05-18T09:23:49Z</time>
      </trkpt>
      <trkpt lat="44.64188" lon="5.78241">
        <ele>1470</ele>
        <time>2023-05-18T09:23:50Z</time>
      </trkpt>
      <trkpt lat="44.64188" lon="5.78242">
        <ele>1470</ele>
        <time>2023-05-18T09:23:51Z</time>
      </trkpt>
      <trkpt lat="44.64188" lon="5.78242">
        <ele>1470.2</ele>
        <time>2023-05-18T09:23:52Z</time>
      </trkpt>
      <trkpt lat="44.64187" lon="5.78243">
        <ele>1470.4</ele>
        <time>2023-05-18T09:23:54Z</time>
      </trkpt>
      <trkpt lat="44.64187" lon="5.78243">
        <ele>1470.8</ele>
        <time>2023-05-18T09:23:56Z</time>
      </trkpt>
      <trkpt lat="44.64187" lon="5.78243">
        <ele>1470.8</ele>
        <time>2023-05-18T09:23:57Z</time>
      </trkpt>
      <trkpt lat="44.64186" lon="5.78246">
        <ele>1471.8</ele>
        <time>2023-05-18T09:24:04Z</time>
      </trkpt>
      <trkpt lat="44.64183" lon="5.78249">
        <ele>1472.4</ele>
        <time>2023-05-18T09:24:08Z</time>
      </trkpt>
      <trkpt lat="44.64183" lon="5.7825">
        <ele>1472.4</ele>
        <time>2023-05-18T09:24:09Z</time>
      </trkpt>
      <trkpt lat="44.64183" lon="5.7825">
        <ele>1472.6</ele>
        <time>2023-05-18T09:24:10Z</time>
      </trkpt>
      <trkpt lat="44.64182" lon="5.78252">
        <ele>1472.8</ele>
        <time>2023-05-18T09:24:12Z</time>
      </trkpt>
      <trkpt lat="44.64182" lon="5.78252">
        <ele>1472.8</ele>
        <time>2023-05-18T09:24:13Z</time>
      </trkpt>
      <trkpt lat="44.64182" lon="5.78252">
        <ele>1472.8</ele>
        <time>2023-05-18T09:24:14Z</time>
      </trkpt>
      <trkpt lat="44.64182" lon="5.78252">
        <ele>1473</ele>
        <time>2023-05-18T09:24:15Z</time>
      </trkpt>
      <trkpt lat="44.64181" lon="5.78253">
        <ele>1473</ele>
        <time>2023-05-18T09:24:16Z</time>
      </trkpt>
      <trkpt lat="44.6418" lon="5.78253">
        <ele>1473.2</ele>
        <time>2023-05-18T09:24:17Z</time>
      </trkpt>
      <trkpt lat="44.6418" lon="5.78253">
        <ele>1473.2</ele>
        <time>2023-05-18T09:24:18Z</time>
      </trkpt>
      <trkpt lat="44.6418" lon="5.78253">
        <ele>1473.2</ele>
        <time>2023-05-18T09:24:19Z</time>
      </trkpt>
      <trkpt lat="44.6418" lon="5.78253">
        <ele>1473.4</ele>
        <time>2023-05-18T09:24:20Z</time>
      </trkpt>
      <trkpt lat="44.6418" lon="5.78253">
        <ele>1473.8</ele>
        <time>2023-05-18T09:24:29Z</time>
      </trkpt>
      <trkpt lat="44.6418" lon="5.78253">
        <ele>1473.8</ele>
        <time>2023-05-18T09:24:30Z</time>
      </trkpt>
      <trkpt lat="44.6418" lon="5.78255">
        <ele>1474</ele>
        <time>2023-05-18T09:24:56Z</time>
      </trkpt>
      <trkpt lat="44.64179" lon="5.78257">
        <ele>1474</ele>
        <time>2023-05-18T09:24:58Z</time>
      </trkpt>
      <trkpt lat="44.64179" lon="5.78258">
        <ele>1474.2</ele>
        <time>2023-05-18T09:25:01Z</time>
      </trkpt>
      <trkpt lat="44.64179" lon="5.78259">
        <ele>1475</ele>
        <time>2023-05-18T09:25:07Z</time>
      </trkpt>
      <trkpt lat="44.64179" lon="5.7826">
        <ele>1475</ele>
        <time>2023-05-18T09:25:08Z</time>
      </trkpt>
      <trkpt lat="44.64178" lon="5.78261">
        <ele>1475.2</ele>
        <time>2023-05-18T09:25:09Z</time>
      </trkpt>
      <trkpt lat="44.64176" lon="5.78266">
        <ele>1475.4</ele>
        <time>2023-05-18T09:25:13Z</time>
      </trkpt>
      <trkpt lat="44.64176" lon="5.78266">
        <ele>1475.6</ele>
        <time>2023-05-18T09:25:14Z</time>
      </trkpt>
      <trkpt lat="44.64175" lon="5.78271">
        <ele>1476.2</ele>
        <time>2023-05-18T09:25:18Z</time>
      </trkpt>
      <trkpt lat="44.64174" lon="5.78273">
        <ele>1476.2</ele>
        <time>2023-05-18T09:25:19Z</time>
      </trkpt>
      <trkpt lat="44.64174" lon="5.78273">
        <ele>1476.2</ele>
        <time>2023-05-18T09:25:20Z</time>
      </trkpt>
      <trkpt lat="44.64173" lon="5.78274">
        <ele>1476.4</ele>
        <time>2023-05-18T09:25:21Z</time>
      </trkpt>
      <trkpt lat="44.64173" lon="5.78274">
        <ele>1476.4</ele>
        <time>2023-05-18T09:25:22Z</time>
      </trkpt>
      <trkpt lat="44.64171" lon="5.78279">
        <ele>1477.2</ele>
        <time>2023-05-18T09:25:27Z</time>
      </trkpt>
      <trkpt lat="44.6417" lon="5.7828">
        <ele>1477.2</ele>
        <time>2023-05-18T09:25:28Z</time>
      </trkpt>
      <trkpt lat="44.6417" lon="5.78281">
        <ele>1477.2</ele>
        <time>2023-05-18T09:25:29Z</time>
      </trkpt>
      <trkpt lat="44.64169" lon="5.78281">
        <ele>1477.2</ele>
        <time>2023-05-18T09:25:30Z</time>
      </trkpt>
      <trkpt lat="44.64169" lon="5.78282">
        <ele>1477.4</ele>
        <time>2023-05-18T09:25:31Z</time>
      </trkpt>
      <trkpt lat="44.64168" lon="5.78283">
        <ele>1477.4</ele>
        <time>2023-05-18T09:25:32Z</time>
      </trkpt>
      <trkpt lat="44.64168" lon="5.78283">
        <ele>1477.8</ele>
        <time>2023-05-18T09:25:35Z</time>
      </trkpt>
      <trkpt lat="44.64168" lon="5.78284">
        <ele>1477.8</ele>
        <time>2023-05-18T09:25:36Z</time>
      </trkpt>
      <trkpt lat="44.64167" lon="5.78286">
        <ele>1478</ele>
        <time>2023-05-18T09:25:37Z</time>
      </trkpt>
      <trkpt lat="44.64166" lon="5.78288">
        <ele>1478</ele>
        <time>2023-05-18T09:25:38Z</time>
      </trkpt>
      <trkpt lat="44.64164" lon="5.7829">
        <ele>1478.2</ele>
        <time>2023-05-18T09:25:40Z</time>
      </trkpt>
      <trkpt lat="44.64163" lon="5.78291">
        <ele>1478.2</ele>
        <time>2023-05-18T09:25:41Z</time>
      </trkpt>
      <trkpt lat="44.64162" lon="5.78293">
        <ele>1478.6</ele>
        <time>2023-05-18T09:25:43Z</time>
      </trkpt>
      <trkpt lat="44.64159" lon="5.78298">
        <ele>1479.2</ele>
        <time>2023-05-18T09:25:47Z</time>
      </trkpt>
      <trkpt lat="44.64159" lon="5.78299">
        <ele>1479.2</ele>
        <time>2023-05-18T09:25:48Z</time>
      </trkpt>
      <trkpt lat="44.64158" lon="5.783">
        <ele>1479.2</ele>
        <time>2023-05-18T09:25:49Z</time>
      </trkpt>
      <trkpt lat="44.64158" lon="5.783">
        <ele>1479.4</ele>
        <time>2023-05-18T09:25:50Z</time>
      </trkpt>
      <trkpt lat="44.64158" lon="5.783">
        <ele>1479.4</ele>
        <time>2023-05-18T09:25:51Z</time>
      </trkpt>
      <trkpt lat="44.64157" lon="5.78301">
        <ele>1479.4</ele>
        <time>2023-05-18T09:25:52Z</time>
      </trkpt>
      <trkpt lat="44.64157" lon="5.78301">
        <ele>1479.6</ele>
        <time>2023-05-18T09:25:53Z</time>
      </trkpt>
      <trkpt lat="44.64156" lon="5.78302">
        <ele>1479.6</ele>
        <time>2023-05-18T09:25:54Z</time>
      </trkpt>
      <trkpt lat="44.64156" lon="5.78303">
        <ele>1479.8</ele>
        <time>2023-05-18T09:25:55Z</time>
      </trkpt>
      <trkpt lat="44.64155" lon="5.78304">
        <ele>1480</ele>
        <time>2023-05-18T09:25:56Z</time>
      </trkpt>
      <trkpt lat="44.64155" lon="5.78304">
        <ele>1480</ele>
        <time>2023-05-18T09:25:57Z</time>
      </trkpt>
      <trkpt lat="44.64154" lon="5.78306">
        <ele>1480.4</ele>
        <time>2023-05-18T09:26:01Z</time>
      </trkpt>
      <trkpt lat="44.64153" lon="5.78306">
        <ele>1480.4</ele>
        <time>2023-05-18T09:26:02Z</time>
      </trkpt>
      <trkpt lat="44.64152" lon="5.78307">
        <ele>1480.6</ele>
        <time>2023-05-18T09:26:03Z</time>
      </trkpt>
      <trkpt lat="44.64152" lon="5.78307">
        <ele>1480.8</ele>
        <time>2023-05-18T09:26:04Z</time>
      </trkpt>
      <trkpt lat="44.64152" lon="5.78307">
        <ele>1481</ele>
        <time>2023-05-18T09:26:05Z</time>
      </trkpt>
      <trkpt lat="44.64151" lon="5.78308">
        <ele>1481</ele>
        <time>2023-05-18T09:26:06Z</time>
      </trkpt>
      <trkpt lat="44.6415" lon="5.78309">
        <ele>1481.4</ele>
        <time>2023-05-18T09:26:07Z</time>
      </trkpt>
      <trkpt lat="44.6415" lon="5.78309">
        <ele>1481.4</ele>
        <time>2023-05-18T09:26:08Z</time>
      </trkpt>
      <trkpt lat="44.6415" lon="5.7831">
        <ele>1481.6</ele>
        <time>2023-05-18T09:26:09Z</time>
      </trkpt>
      <trkpt lat="44.64148" lon="5.78311">
        <ele>1481.6</ele>
        <time>2023-05-18T09:26:10Z</time>
      </trkpt>
      <trkpt lat="44.64147" lon="5.78312">
        <ele>1481.8</ele>
        <time>2023-05-18T09:26:11Z</time>
      </trkpt>
      <trkpt lat="44.64147" lon="5.78313">
        <ele>1482</ele>
        <time>2023-05-18T09:26:12Z</time>
      </trkpt>
      <trkpt lat="44.64146" lon="5.78313">
        <ele>1482.2</ele>
        <time>2023-05-18T09:26:13Z</time>
      </trkpt>
      <trkpt lat="44.64146" lon="5.78314">
        <ele>1482.4</ele>
        <time>2023-05-18T09:26:14Z</time>
      </trkpt>
      <trkpt lat="44.64146" lon="5.78314">
        <ele>1482.4</ele>
        <time>2023-05-18T09:26:15Z</time>
      </trkpt>
      <trkpt lat="44.64145" lon="5.78316">
        <ele>1482.6</ele>
        <time>2023-05-18T09:26:16Z</time>
      </trkpt>
      <trkpt lat="44.64145" lon="5.78316">
        <ele>1482.6</ele>
        <time>2023-05-18T09:26:17Z</time>
      </trkpt>
      <trkpt lat="44.64144" lon="5.78316">
        <ele>1482.6</ele>
        <time>2023-05-18T09:26:18Z</time>
      </trkpt>
      <trkpt lat="44.64144" lon="5.78316">
        <ele>1482.8</ele>
        <time>2023-05-18T09:26:19Z</time>
      </trkpt>
      <trkpt lat="44.64143" lon="5.78317">
        <ele>1482.8</ele>
        <time>2023-05-18T09:26:20Z</time>
      </trkpt>
      <trkpt lat="44.64143" lon="5.78317">
        <ele>1482.8</ele>
        <time>2023-05-18T09:26:21Z</time>
      </trkpt>
      <trkpt lat="44.64142" lon="5.78318">
        <ele>1483</ele>
        <time>2023-05-18T09:26:22Z</time>
      </trkpt>
      <trkpt lat="44.64142" lon="5.78319">
        <ele>1483</ele>
        <time>2023-05-18T09:26:23Z</time>
      </trkpt>
      <trkpt lat="44.64141" lon="5.78319">
        <ele>1483</ele>
        <time>2023-05-18T09:26:24Z</time>
      </trkpt>
      <trkpt lat="44.64141" lon="5.78319">
        <ele>1483.2</ele>
        <time>2023-05-18T09:26:25Z</time>
      </trkpt>
      <trkpt lat="44.64141" lon="5.78319">
        <ele>1483.2</ele>
        <time>2023-05-18T09:26:26Z</time>
      </trkpt>
      <trkpt lat="44.64141" lon="5.78319">
        <ele>1483.4</ele>
        <time>2023-05-18T09:26:27Z</time>
      </trkpt>
      <trkpt lat="44.64141" lon="5.78319">
        <ele>1483.6</ele>
        <time>2023-05-18T09:26:28Z</time>
      </trkpt>
      <trkpt lat="44.64141" lon="5.7832">
        <ele>1483.6</ele>
        <time>2023-05-18T09:26:29Z</time>
      </trkpt>
      <trkpt lat="44.6414" lon="5.7832">
        <ele>1483.6</ele>
        <time>2023-05-18T09:26:30Z</time>
      </trkpt>
      <trkpt lat="44.6414" lon="5.78321">
        <ele>1483.8</ele>
        <time>2023-05-18T09:26:31Z</time>
      </trkpt>
      <trkpt lat="44.6414" lon="5.78322">
        <ele>1483.8</ele>
        <time>2023-05-18T09:26:32Z</time>
      </trkpt>
      <trkpt lat="44.64138" lon="5.78323">
        <ele>1483.8</ele>
        <time>2023-05-18T09:26:33Z</time>
      </trkpt>
      <trkpt lat="44.64138" lon="5.78324">
        <ele>1484</ele>
        <time>2023-05-18T09:26:34Z</time>
      </trkpt>
      <trkpt lat="44.64137" lon="5.78325">
        <ele>1484</ele>
        <time>2023-05-18T09:26:35Z</time>
      </trkpt>
      <trkpt lat="44.64136" lon="5.78326">
        <ele>1484.2</ele>
        <time>2023-05-18T09:26:36Z</time>
      </trkpt>
      <trkpt lat="44.64135" lon="5.78327">
        <ele>1484.2</ele>
        <time>2023-05-18T09:26:37Z</time>
      </trkpt>
      <trkpt lat="44.64134" lon="5.78328">
        <ele>1484.4</ele>
        <time>2023-05-18T09:26:38Z</time>
      </trkpt>
      <trkpt lat="44.64133" lon="5.78331">
        <ele>1484.4</ele>
        <time>2023-05-18T09:26:40Z</time>
      </trkpt>
      <trkpt lat="44.64132" lon="5.78333">
        <ele>1484.6</ele>
        <time>2023-05-18T09:26:41Z</time>
      </trkpt>
      <trkpt lat="44.64131" lon="5.78335">
        <ele>1484.6</ele>
        <time>2023-05-18T09:26:42Z</time>
      </trkpt>
      <trkpt lat="44.6413" lon="5.78336">
        <ele>1484.8</ele>
        <time>2023-05-18T09:26:43Z</time>
      </trkpt>
      <trkpt lat="44.6413" lon="5.78338">
        <ele>1484.8</ele>
        <time>2023-05-18T09:26:44Z</time>
      </trkpt>
      <trkpt lat="44.64129" lon="5.78339">
        <ele>1484.8</ele>
        <time>2023-05-18T09:26:45Z</time>
      </trkpt>
      <trkpt lat="44.64128" lon="5.7834">
        <ele>1485</ele>
        <time>2023-05-18T09:26:46Z</time>
      </trkpt>
      <trkpt lat="44.64127" lon="5.78342">
        <ele>1485.2</ele>
        <time>2023-05-18T09:26:48Z</time>
      </trkpt>
      <trkpt lat="44.64125" lon="5.78342">
        <ele>1485.2</ele>
        <time>2023-05-18T09:26:49Z</time>
      </trkpt>
      <trkpt lat="44.64125" lon="5.78344">
        <ele>1485.2</ele>
        <time>2023-05-18T09:26:50Z</time>
      </trkpt>
      <trkpt lat="44.64124" lon="5.78344">
        <ele>1485.2</ele>
        <time>2023-05-18T09:26:51Z</time>
      </trkpt>
      <trkpt lat="44.64124" lon="5.78345">
        <ele>1485.4</ele>
        <time>2023-05-18T09:26:52Z</time>
      </trkpt>
      <trkpt lat="44.64123" lon="5.78345">
        <ele>1485.4</ele>
        <time>2023-05-18T09:26:53Z</time>
      </trkpt>
      <trkpt lat="44.64123" lon="5.78345">
        <ele>1485.6</ele>
        <time>2023-05-18T09:26:54Z</time>
      </trkpt>
      <trkpt lat="44.64122" lon="5.78346">
        <ele>1485.6</ele>
        <time>2023-05-18T09:26:55Z</time>
      </trkpt>
      <trkpt lat="44.64122" lon="5.78346">
        <ele>1485.4</ele>
        <time>2023-05-18T09:26:56Z</time>
      </trkpt>
      <trkpt lat="44.6412" lon="5.78347">
        <ele>1485.6</ele>
        <time>2023-05-18T09:26:58Z</time>
      </trkpt>
      <trkpt lat="44.6412" lon="5.78348">
        <ele>1485.6</ele>
        <time>2023-05-18T09:26:59Z</time>
      </trkpt>
      <trkpt lat="44.6412" lon="5.78349">
        <ele>1485.6</ele>
        <time>2023-05-18T09:27:00Z</time>
      </trkpt>
      <trkpt lat="44.64119" lon="5.78349">
        <ele>1485.8</ele>
        <time>2023-05-18T09:27:01Z</time>
      </trkpt>
      <trkpt lat="44.64118" lon="5.7835">
        <ele>1485.8</ele>
        <time>2023-05-18T09:27:02Z</time>
      </trkpt>
      <trkpt lat="44.64117" lon="5.7835">
        <ele>1486</ele>
        <time>2023-05-18T09:27:03Z</time>
      </trkpt>
      <trkpt lat="44.64115" lon="5.78352">
        <ele>1486.4</ele>
        <time>2023-05-18T09:27:06Z</time>
      </trkpt>
      <trkpt lat="44.64115" lon="5.78353">
        <ele>1486.6</ele>
        <time>2023-05-18T09:27:07Z</time>
      </trkpt>
      <trkpt lat="44.64113" lon="5.78355">
        <ele>1486.8</ele>
        <time>2023-05-18T09:27:10Z</time>
      </trkpt>
      <trkpt lat="44.64113" lon="5.78356">
        <ele>1487</ele>
        <time>2023-05-18T09:27:11Z</time>
      </trkpt>
      <trkpt lat="44.64113" lon="5.78356">
        <ele>1487</ele>
        <time>2023-05-18T09:27:12Z</time>
      </trkpt>
      <trkpt lat="44.64112" lon="5.78356">
        <ele>1487.2</ele>
        <time>2023-05-18T09:27:13Z</time>
      </trkpt>
      <trkpt lat="44.6411" lon="5.78357">
        <ele>1487.4</ele>
        <time>2023-05-18T09:27:16Z</time>
      </trkpt>
      <trkpt lat="44.64109" lon="5.78359">
        <ele>1487.6</ele>
        <time>2023-05-18T09:27:18Z</time>
      </trkpt>
      <trkpt lat="44.64109" lon="5.78361">
        <ele>1487.8</ele>
        <time>2023-05-18T09:27:19Z</time>
      </trkpt>
      <trkpt lat="44.64109" lon="5.78364">
        <ele>1488.2</ele>
        <time>2023-05-18T09:27:22Z</time>
      </trkpt>
      <trkpt lat="44.64108" lon="5.78364">
        <ele>1488.2</ele>
        <time>2023-05-18T09:27:23Z</time>
      </trkpt>
      <trkpt lat="44.64108" lon="5.78365">
        <ele>1488.4</ele>
        <time>2023-05-18T09:27:24Z</time>
      </trkpt>
      <trkpt lat="44.64107" lon="5.78366">
        <ele>1488.6</ele>
        <time>2023-05-18T09:27:25Z</time>
      </trkpt>
      <trkpt lat="44.64107" lon="5.78367">
        <ele>1488.8</ele>
        <time>2023-05-18T09:27:26Z</time>
      </trkpt>
      <trkpt lat="44.64106" lon="5.78367">
        <ele>1488.8</ele>
        <time>2023-05-18T09:27:27Z</time>
      </trkpt>
      <trkpt lat="44.64106" lon="5.78368">
        <ele>1488.8</ele>
        <time>2023-05-18T09:27:28Z</time>
      </trkpt>
      <trkpt lat="44.64105" lon="5.78369">
        <ele>1488.8</ele>
        <time>2023-05-18T09:27:29Z</time>
      </trkpt>
      <trkpt lat="44.64105" lon="5.78369">
        <ele>1489</ele>
        <time>2023-05-18T09:27:30Z</time>
      </trkpt>
      <trkpt lat="44.64104" lon="5.7837">
        <ele>1489.2</ele>
        <time>2023-05-18T09:27:31Z</time>
      </trkpt>
      <trkpt lat="44.64104" lon="5.7837">
        <ele>1489</ele>
        <time>2023-05-18T09:27:32Z</time>
      </trkpt>
      <trkpt lat="44.64104" lon="5.78371">
        <ele>1489.2</ele>
        <time>2023-05-18T09:27:33Z</time>
      </trkpt>
      <trkpt lat="44.64103" lon="5.78371">
        <ele>1489.2</ele>
        <time>2023-05-18T09:27:34Z</time>
      </trkpt>
      <trkpt lat="44.64103" lon="5.78372">
        <ele>1489.4</ele>
        <time>2023-05-18T09:27:35Z</time>
      </trkpt>
      <trkpt lat="44.64103" lon="5.78372">
        <ele>1489.4</ele>
        <time>2023-05-18T09:27:36Z</time>
      </trkpt>
      <trkpt lat="44.64103" lon="5.78372">
        <ele>1489.6</ele>
        <time>2023-05-18T09:27:37Z</time>
      </trkpt>
      <trkpt lat="44.64102" lon="5.78373">
        <ele>1489.6</ele>
        <time>2023-05-18T09:27:38Z</time>
      </trkpt>
      <trkpt lat="44.64102" lon="5.78373">
        <ele>1489.8</ele>
        <time>2023-05-18T09:27:39Z</time>
      </trkpt>
      <trkpt lat="44.64102" lon="5.78373">
        <ele>1490</ele>
        <time>2023-05-18T09:27:40Z</time>
      </trkpt>
      <trkpt lat="44.64102" lon="5.78373">
        <ele>1490.2</ele>
        <time>2023-05-18T09:27:41Z</time>
      </trkpt>
      <trkpt lat="44.64102" lon="5.78373">
        <ele>1490.2</ele>
        <time>2023-05-18T09:27:42Z</time>
      </trkpt>
      <trkpt lat="44.64102" lon="5.78373">
        <ele>1490.4</ele>
        <time>2023-05-18T09:27:43Z</time>
      </trkpt>
      <trkpt lat="44.64102" lon="5.78373">
        <ele>1490.8</ele>
        <time>2023-05-18T09:27:46Z</time>
      </trkpt>
      <trkpt lat="44.64102" lon="5.78373">
        <ele>1491</ele>
        <time>2023-05-18T09:27:47Z</time>
      </trkpt>
      <trkpt lat="44.64102" lon="5.78373">
        <ele>1491.4</ele>
        <time>2023-05-18T09:27:51Z</time>
      </trkpt>
      <trkpt lat="44.64101" lon="5.78373">
        <ele>1491.8</ele>
        <time>2023-05-18T09:27:58Z</time>
      </trkpt>
      <trkpt lat="44.64101" lon="5.78375">
        <ele>1491.8</ele>
        <time>2023-05-18T09:28:00Z</time>
      </trkpt>
      <trkpt lat="44.641" lon="5.78375">
        <ele>1492</ele>
        <time>2023-05-18T09:28:02Z</time>
      </trkpt>
      <trkpt lat="44.641" lon="5.78375">
        <ele>1492</ele>
        <time>2023-05-18T09:28:04Z</time>
      </trkpt>
      <trkpt lat="44.64099" lon="5.78377">
        <ele>1492.2</ele>
        <time>2023-05-18T09:28:07Z</time>
      </trkpt>
      <trkpt lat="44.64099" lon="5.78377">
        <ele>1492.4</ele>
        <time>2023-05-18T09:28:09Z</time>
      </trkpt>
      <trkpt lat="44.64099" lon="5.78377">
        <ele>1492.6</ele>
        <time>2023-05-18T09:28:10Z</time>
      </trkpt>
      <trkpt lat="44.64099" lon="5.78377">
        <ele>1493.2</ele>
        <time>2023-05-18T09:28:16Z</time>
      </trkpt>
      <trkpt lat="44.64097" lon="5.78377">
        <ele>1493.6</ele>
        <time>2023-05-18T09:28:18Z</time>
      </trkpt>
      <trkpt lat="44.64096" lon="5.78377">
        <ele>1493.8</ele>
        <time>2023-05-18T09:28:19Z</time>
      </trkpt>
      <trkpt lat="44.64095" lon="5.78378">
        <ele>1494.2</ele>
        <time>2023-05-18T09:28:21Z</time>
      </trkpt>
      <trkpt lat="44.64095" lon="5.78378">
        <ele>1494.2</ele>
        <time>2023-05-18T09:28:22Z</time>
      </trkpt>
      <trkpt lat="44.64095" lon="5.78378">
        <ele>1494.8</ele>
        <time>2023-05-18T09:28:25Z</time>
      </trkpt>
      <trkpt lat="44.64094" lon="5.78379">
        <ele>1495</ele>
        <time>2023-05-18T09:28:28Z</time>
      </trkpt>
      <trkpt lat="44.64094" lon="5.78379">
        <ele>1495.2</ele>
        <time>2023-05-18T09:28:29Z</time>
      </trkpt>
      <trkpt lat="44.64093" lon="5.7838">
        <ele>1495.4</ele>
        <time>2023-05-18T09:28:31Z</time>
      </trkpt>
      <trkpt lat="44.64093" lon="5.78383">
        <ele>1495.4</ele>
        <time>2023-05-18T09:28:33Z</time>
      </trkpt>
      <trkpt lat="44.64093" lon="5.78383">
        <ele>1495.4</ele>
        <time>2023-05-18T09:28:34Z</time>
      </trkpt>
      <trkpt lat="44.64093" lon="5.78383">
        <ele>1495.6</ele>
        <time>2023-05-18T09:28:36Z</time>
      </trkpt>
      <trkpt lat="44.64092" lon="5.78383">
        <ele>1496</ele>
        <time>2023-05-18T09:28:41Z</time>
      </trkpt>
      <trkpt lat="44.64092" lon="5.78383">
        <ele>1496.4</ele>
        <time>2023-05-18T09:28:44Z</time>
      </trkpt>
      <trkpt lat="44.64092" lon="5.78384">
        <ele>1496.6</ele>
        <time>2023-05-18T09:28:45Z</time>
      </trkpt>
      <trkpt lat="44.64091" lon="5.78384">
        <ele>1496.6</ele>
        <time>2023-05-18T09:28:46Z</time>
      </trkpt>
      <trkpt lat="44.6409" lon="5.78384">
        <ele>1496.8</ele>
        <time>2023-05-18T09:28:47Z</time>
      </trkpt>
      <trkpt lat="44.6409" lon="5.78385">
        <ele>1496.8</ele>
        <time>2023-05-18T09:28:48Z</time>
      </trkpt>
      <trkpt lat="44.6409" lon="5.78386">
        <ele>1497</ele>
        <time>2023-05-18T09:28:49Z</time>
      </trkpt>
      <trkpt lat="44.6409" lon="5.78386">
        <ele>1497</ele>
        <time>2023-05-18T09:28:50Z</time>
      </trkpt>
      <trkpt lat="44.64089" lon="5.78386">
        <ele>1497.2</ele>
        <time>2023-05-18T09:28:51Z</time>
      </trkpt>
      <trkpt lat="44.64089" lon="5.78387">
        <ele>1497.2</ele>
        <time>2023-05-18T09:28:52Z</time>
      </trkpt>
      <trkpt lat="44.64089" lon="5.78387">
        <ele>1497.4</ele>
        <time>2023-05-18T09:28:53Z</time>
      </trkpt>
      <trkpt lat="44.64089" lon="5.78387">
        <ele>1497.6</ele>
        <time>2023-05-18T09:28:54Z</time>
      </trkpt>
      <trkpt lat="44.64089" lon="5.78387">
        <ele>1497.6</ele>
        <time>2023-05-18T09:28:55Z</time>
      </trkpt>
      <trkpt lat="44.64089" lon="5.78387">
        <ele>1497.8</ele>
        <time>2023-05-18T09:28:56Z</time>
      </trkpt>
      <trkpt lat="44.64089" lon="5.78387">
        <ele>1497.8</ele>
        <time>2023-05-18T09:28:57Z</time>
      </trkpt>
      <trkpt lat="44.64087" lon="5.78387">
        <ele>1497.8</ele>
        <time>2023-05-18T09:28:58Z</time>
      </trkpt>
      <trkpt lat="44.64087" lon="5.78388">
        <ele>1498</ele>
        <time>2023-05-18T09:28:59Z</time>
      </trkpt>
      <trkpt lat="44.64086" lon="5.78388">
        <ele>1498</ele>
        <time>2023-05-18T09:29:00Z</time>
      </trkpt>
      <trkpt lat="44.64085" lon="5.78389">
        <ele>1498.2</ele>
        <time>2023-05-18T09:29:01Z</time>
      </trkpt>
      <trkpt lat="44.64085" lon="5.7839">
        <ele>1498.2</ele>
        <time>2023-05-18T09:29:02Z</time>
      </trkpt>
      <trkpt lat="44.64083" lon="5.78392">
        <ele>1498.4</ele>
        <time>2023-05-18T09:29:03Z</time>
      </trkpt>
      <trkpt lat="44.64083" lon="5.78393">
        <ele>1498.6</ele>
        <time>2023-05-18T09:29:04Z</time>
      </trkpt>
      <trkpt lat="44.64083" lon="5.78393">
        <ele>1498.6</ele>
        <time>2023-05-18T09:29:05Z</time>
      </trkpt>
      <trkpt lat="44.64082" lon="5.78394">
        <ele>1498.8</ele>
        <time>2023-05-18T09:29:06Z</time>
      </trkpt>
      <trkpt lat="44.64081" lon="5.78395">
        <ele>1499</ele>
        <time>2023-05-18T09:29:07Z</time>
      </trkpt>
      <trkpt lat="44.64081" lon="5.78395">
        <ele>1499</ele>
        <time>2023-05-18T09:29:08Z</time>
      </trkpt>
      <trkpt lat="44.6408" lon="5.78396">
        <ele>1499.2</ele>
        <time>2023-05-18T09:29:09Z</time>
      </trkpt>
      <trkpt lat="44.64079" lon="5.78397">
        <ele>1499.2</ele>
        <time>2023-05-18T09:29:10Z</time>
      </trkpt>
      <trkpt lat="44.64079" lon="5.78398">
        <ele>1499.2</ele>
        <time>2023-05-18T09:29:11Z</time>
      </trkpt>
      <trkpt lat="44.64079" lon="5.78398">
        <ele>1499.6</ele>
        <time>2023-05-18T09:29:12Z</time>
      </trkpt>
      <trkpt lat="44.64079" lon="5.78398">
        <ele>1499.6</ele>
        <time>2023-05-18T09:29:13Z</time>
      </trkpt>
      <trkpt lat="44.64078" lon="5.78398">
        <ele>1499.6</ele>
        <time>2023-05-18T09:29:14Z</time>
      </trkpt>
      <trkpt lat="44.64078" lon="5.78399">
        <ele>1499.8</ele>
        <time>2023-05-18T09:29:15Z</time>
      </trkpt>
      <trkpt lat="44.64077" lon="5.78401">
        <ele>1499.8</ele>
        <time>2023-05-18T09:29:16Z</time>
      </trkpt>
      <trkpt lat="44.64077" lon="5.78402">
        <ele>1499.8</ele>
        <time>2023-05-18T09:29:17Z</time>
      </trkpt>
      <trkpt lat="44.64075" lon="5.78403">
        <ele>1499.8</ele>
        <time>2023-05-18T09:29:18Z</time>
      </trkpt>
      <trkpt lat="44.64075" lon="5.78404">
        <ele>1499.8</ele>
        <time>2023-05-18T09:29:19Z</time>
      </trkpt>
      <trkpt lat="44.64074" lon="5.78406">
        <ele>1500</ele>
        <time>2023-05-18T09:29:20Z</time>
      </trkpt>
      <trkpt lat="44.64074" lon="5.78406">
        <ele>1500</ele>
        <time>2023-05-18T09:29:21Z</time>
      </trkpt>
      <trkpt lat="44.64073" lon="5.78407">
        <ele>1500</ele>
        <time>2023-05-18T09:29:22Z</time>
      </trkpt>
      <trkpt lat="44.64072" lon="5.78409">
        <ele>1500</ele>
        <time>2023-05-18T09:29:23Z</time>
      </trkpt>
      <trkpt lat="44.64071" lon="5.78409">
        <ele>1500</ele>
        <time>2023-05-18T09:29:24Z</time>
      </trkpt>
      <trkpt lat="44.64071" lon="5.78411">
        <ele>1500</ele>
        <time>2023-05-18T09:29:25Z</time>
      </trkpt>
      <trkpt lat="44.6407" lon="5.78411">
        <ele>1500</ele>
        <time>2023-05-18T09:29:26Z</time>
      </trkpt>
      <trkpt lat="44.6407" lon="5.78412">
        <ele>1499.8</ele>
        <time>2023-05-18T09:29:27Z</time>
      </trkpt>
      <trkpt lat="44.6407" lon="5.78412">
        <ele>1500</ele>
        <time>2023-05-18T09:29:28Z</time>
      </trkpt>
      <trkpt lat="44.6407" lon="5.78412">
        <ele>1500</ele>
        <time>2023-05-18T09:29:29Z</time>
      </trkpt>
      <trkpt lat="44.6407" lon="5.78413">
        <ele>1500.4</ele>
        <time>2023-05-18T09:29:33Z</time>
      </trkpt>
      <trkpt lat="44.6407" lon="5.78413">
        <ele>1500.4</ele>
        <time>2023-05-18T09:29:35Z</time>
      </trkpt>
      <trkpt lat="44.64069" lon="5.78415">
        <ele>1500.6</ele>
        <time>2023-05-18T09:29:36Z</time>
      </trkpt>
      <trkpt lat="44.64069" lon="5.78415">
        <ele>1500.6</ele>
        <time>2023-05-18T09:29:37Z</time>
      </trkpt>
      <trkpt lat="44.64068" lon="5.78416">
        <ele>1501.2</ele>
        <time>2023-05-18T09:29:41Z</time>
      </trkpt>
      <trkpt lat="44.64068" lon="5.78416">
        <ele>1501.2</ele>
        <time>2023-05-18T09:29:42Z</time>
      </trkpt>
      <trkpt lat="44.64066" lon="5.78418">
        <ele>1501.6</ele>
        <time>2023-05-18T09:29:45Z</time>
      </trkpt>
      <trkpt lat="44.64065" lon="5.78419">
        <ele>1501.6</ele>
        <time>2023-05-18T09:29:46Z</time>
      </trkpt>
      <trkpt lat="44.64065" lon="5.7842">
        <ele>1501.8</ele>
        <time>2023-05-18T09:29:47Z</time>
      </trkpt>
      <trkpt lat="44.64062" lon="5.78426">
        <ele>1502.8</ele>
        <time>2023-05-18T09:29:54Z</time>
      </trkpt>
      <trkpt lat="44.64062" lon="5.78427">
        <ele>1502.8</ele>
        <time>2023-05-18T09:29:55Z</time>
      </trkpt>
      <trkpt lat="44.64061" lon="5.78429">
        <ele>1503.2</ele>
        <time>2023-05-18T09:29:57Z</time>
      </trkpt>
      <trkpt lat="44.6406" lon="5.78429">
        <ele>1503.4</ele>
        <time>2023-05-18T09:29:58Z</time>
      </trkpt>
      <trkpt lat="44.6406" lon="5.7843">
        <ele>1503.4</ele>
        <time>2023-05-18T09:29:59Z</time>
      </trkpt>
      <trkpt lat="44.64059" lon="5.78431">
        <ele>1503.6</ele>
        <time>2023-05-18T09:30:00Z</time>
      </trkpt>
      <trkpt lat="44.64058" lon="5.78431">
        <ele>1503.6</ele>
        <time>2023-05-18T09:30:01Z</time>
      </trkpt>
      <trkpt lat="44.64058" lon="5.78432">
        <ele>1503.8</ele>
        <time>2023-05-18T09:30:02Z</time>
      </trkpt>
      <trkpt lat="44.64057" lon="5.78432">
        <ele>1503.8</ele>
        <time>2023-05-18T09:30:03Z</time>
      </trkpt>
      <trkpt lat="44.64057" lon="5.78433">
        <ele>1504</ele>
        <time>2023-05-18T09:30:04Z</time>
      </trkpt>
      <trkpt lat="44.64056" lon="5.78434">
        <ele>1504.2</ele>
        <time>2023-05-18T09:30:05Z</time>
      </trkpt>
      <trkpt lat="44.64056" lon="5.78435">
        <ele>1504.4</ele>
        <time>2023-05-18T09:30:06Z</time>
      </trkpt>
      <trkpt lat="44.64056" lon="5.78437">
        <ele>1504.4</ele>
        <time>2023-05-18T09:30:07Z</time>
      </trkpt>
      <trkpt lat="44.64056" lon="5.78438">
        <ele>1504.6</ele>
        <time>2023-05-18T09:30:08Z</time>
      </trkpt>
      <trkpt lat="44.64055" lon="5.78439">
        <ele>1504.6</ele>
        <time>2023-05-18T09:30:09Z</time>
      </trkpt>
      <trkpt lat="44.64055" lon="5.7844">
        <ele>1504.8</ele>
        <time>2023-05-18T09:30:10Z</time>
      </trkpt>
      <trkpt lat="44.64054" lon="5.78441">
        <ele>1504.8</ele>
        <time>2023-05-18T09:30:11Z</time>
      </trkpt>
      <trkpt lat="44.64053" lon="5.78442">
        <ele>1505</ele>
        <time>2023-05-18T09:30:12Z</time>
      </trkpt>
      <trkpt lat="44.64052" lon="5.78443">
        <ele>1505</ele>
        <time>2023-05-18T09:30:13Z</time>
      </trkpt>
      <trkpt lat="44.64052" lon="5.78444">
        <ele>1505</ele>
        <time>2023-05-18T09:30:14Z</time>
      </trkpt>
      <trkpt lat="44.64051" lon="5.78445">
        <ele>1505.2</ele>
        <time>2023-05-18T09:30:15Z</time>
      </trkpt>
      <trkpt lat="44.64051" lon="5.78447">
        <ele>1505.2</ele>
        <time>2023-05-18T09:30:16Z</time>
      </trkpt>
      <trkpt lat="44.64051" lon="5.78448">
        <ele>1505.4</ele>
        <time>2023-05-18T09:30:17Z</time>
      </trkpt>
      <trkpt lat="44.64051" lon="5.78449">
        <ele>1505.6</ele>
        <time>2023-05-18T09:30:18Z</time>
      </trkpt>
      <trkpt lat="44.6405" lon="5.7845">
        <ele>1505.6</ele>
        <time>2023-05-18T09:30:19Z</time>
      </trkpt>
      <trkpt lat="44.6405" lon="5.78451">
        <ele>1505.8</ele>
        <time>2023-05-18T09:30:20Z</time>
      </trkpt>
      <trkpt lat="44.64049" lon="5.78452">
        <ele>1505.8</ele>
        <time>2023-05-18T09:30:21Z</time>
      </trkpt>
      <trkpt lat="44.64049" lon="5.78452">
        <ele>1506</ele>
        <time>2023-05-18T09:30:22Z</time>
      </trkpt>
      <trkpt lat="44.64049" lon="5.78453">
        <ele>1506</ele>
        <time>2023-05-18T09:30:23Z</time>
      </trkpt>
      <trkpt lat="44.64048" lon="5.78453">
        <ele>1506.2</ele>
        <time>2023-05-18T09:30:24Z</time>
      </trkpt>
      <trkpt lat="44.64049" lon="5.78453">
        <ele>1506.2</ele>
        <time>2023-05-18T09:30:25Z</time>
      </trkpt>
      <trkpt lat="44.64049" lon="5.78454">
        <ele>1506.4</ele>
        <time>2023-05-18T09:30:26Z</time>
      </trkpt>
      <trkpt lat="44.64049" lon="5.78455">
        <ele>1506.4</ele>
        <time>2023-05-18T09:30:27Z</time>
      </trkpt>
      <trkpt lat="44.64049" lon="5.78456">
        <ele>1506.4</ele>
        <time>2023-05-18T09:30:28Z</time>
      </trkpt>
      <trkpt lat="44.64049" lon="5.78457">
        <ele>1506.6</ele>
        <time>2023-05-18T09:30:29Z</time>
      </trkpt>
      <trkpt lat="44.64049" lon="5.78457">
        <ele>1506.6</ele>
        <time>2023-05-18T09:30:30Z</time>
      </trkpt>
      <trkpt lat="44.64049" lon="5.78457">
        <ele>1506.8</ele>
        <time>2023-05-18T09:30:31Z</time>
      </trkpt>
      <trkpt lat="44.64049" lon="5.78457">
        <ele>1506.8</ele>
        <time>2023-05-18T09:30:32Z</time>
      </trkpt>
      <trkpt lat="44.64049" lon="5.78457">
        <ele>1507</ele>
        <time>2023-05-18T09:30:33Z</time>
      </trkpt>
      <trkpt lat="44.64049" lon="5.78457">
        <ele>1507</ele>
        <time>2023-05-18T09:30:34Z</time>
      </trkpt>
      <trkpt lat="44.64049" lon="5.78458">
        <ele>1507.2</ele>
        <time>2023-05-18T09:30:35Z</time>
      </trkpt>
      <trkpt lat="44.64048" lon="5.78459">
        <ele>1507.2</ele>
        <time>2023-05-18T09:30:36Z</time>
      </trkpt>
      <trkpt lat="44.64048" lon="5.7846">
        <ele>1507.4</ele>
        <time>2023-05-18T09:30:37Z</time>
      </trkpt>
      <trkpt lat="44.64048" lon="5.7846">
        <ele>1507.4</ele>
        <time>2023-05-18T09:30:38Z</time>
      </trkpt>
      <trkpt lat="44.64048" lon="5.7846">
        <ele>1507.6</ele>
        <time>2023-05-18T09:30:39Z</time>
      </trkpt>
      <trkpt lat="44.64048" lon="5.7846">
        <ele>1507.6</ele>
        <time>2023-05-18T09:30:40Z</time>
      </trkpt>
      <trkpt lat="44.64047" lon="5.78461">
        <ele>1507.8</ele>
        <time>2023-05-18T09:30:41Z</time>
      </trkpt>
      <trkpt lat="44.64046" lon="5.78461">
        <ele>1507.8</ele>
        <time>2023-05-18T09:30:42Z</time>
      </trkpt>
      <trkpt lat="44.64046" lon="5.78462">
        <ele>1508</ele>
        <time>2023-05-18T09:30:43Z</time>
      </trkpt>
      <trkpt lat="44.64045" lon="5.78462">
        <ele>1508</ele>
        <time>2023-05-18T09:30:44Z</time>
      </trkpt>
      <trkpt lat="44.64044" lon="5.78462">
        <ele>1508.2</ele>
        <time>2023-05-18T09:30:45Z</time>
      </trkpt>
      <trkpt lat="44.64043" lon="5.78463">
        <ele>1508.4</ele>
        <time>2023-05-18T09:30:46Z</time>
      </trkpt>
      <trkpt lat="44.64043" lon="5.78463">
        <ele>1508.6</ele>
        <time>2023-05-18T09:30:47Z</time>
      </trkpt>
      <trkpt lat="44.64043" lon="5.78464">
        <ele>1508.8</ele>
        <time>2023-05-18T09:30:48Z</time>
      </trkpt>
      <trkpt lat="44.64043" lon="5.78465">
        <ele>1508.8</ele>
        <time>2023-05-18T09:30:49Z</time>
      </trkpt>
      <trkpt lat="44.64042" lon="5.78465">
        <ele>1509</ele>
        <time>2023-05-18T09:30:50Z</time>
      </trkpt>
      <trkpt lat="44.64042" lon="5.78465">
        <ele>1509.2</ele>
        <time>2023-05-18T09:30:51Z</time>
      </trkpt>
      <trkpt lat="44.64042" lon="5.78465">
        <ele>1509.4</ele>
        <time>2023-05-18T09:30:52Z</time>
      </trkpt>
      <trkpt lat="44.64041" lon="5.78465">
        <ele>1509.4</ele>
        <time>2023-05-18T09:30:53Z</time>
      </trkpt>
      <trkpt lat="44.6404" lon="5.78466">
        <ele>1509.4</ele>
        <time>2023-05-18T09:30:54Z</time>
      </trkpt>
      <trkpt lat="44.64039" lon="5.78467">
        <ele>1509.6</ele>
        <time>2023-05-18T09:30:55Z</time>
      </trkpt>
      <trkpt lat="44.64039" lon="5.78467">
        <ele>1509.8</ele>
        <time>2023-05-18T09:30:56Z</time>
      </trkpt>
      <trkpt lat="44.64038" lon="5.78468">
        <ele>1509.8</ele>
        <time>2023-05-18T09:30:57Z</time>
      </trkpt>
      <trkpt lat="44.64037" lon="5.78469">
        <ele>1509.8</ele>
        <time>2023-05-18T09:30:58Z</time>
      </trkpt>
      <trkpt lat="44.64036" lon="5.78469">
        <ele>1510</ele>
        <time>2023-05-18T09:30:59Z</time>
      </trkpt>
      <trkpt lat="44.64035" lon="5.7847">
        <ele>1510</ele>
        <time>2023-05-18T09:31:00Z</time>
      </trkpt>
      <trkpt lat="44.64034" lon="5.7847">
        <ele>1510.2</ele>
        <time>2023-05-18T09:31:01Z</time>
      </trkpt>
      <trkpt lat="44.64034" lon="5.7847">
        <ele>1510.2</ele>
        <time>2023-05-18T09:31:02Z</time>
      </trkpt>
      <trkpt lat="44.64034" lon="5.7847">
        <ele>1510.4</ele>
        <time>2023-05-18T09:31:03Z</time>
      </trkpt>
      <trkpt lat="44.64033" lon="5.78471">
        <ele>1510.4</ele>
        <time>2023-05-18T09:31:04Z</time>
      </trkpt>
      <trkpt lat="44.64032" lon="5.78472">
        <ele>1510.4</ele>
        <time>2023-05-18T09:31:05Z</time>
      </trkpt>
      <trkpt lat="44.64031" lon="5.78473">
        <ele>1510.6</ele>
        <time>2023-05-18T09:31:06Z</time>
      </trkpt>
      <trkpt lat="44.64031" lon="5.78473">
        <ele>1510.6</ele>
        <time>2023-05-18T09:31:07Z</time>
      </trkpt>
      <trkpt lat="44.6403" lon="5.78473">
        <ele>1510.8</ele>
        <time>2023-05-18T09:31:08Z</time>
      </trkpt>
      <trkpt lat="44.6403" lon="5.78473">
        <ele>1510.8</ele>
        <time>2023-05-18T09:31:09Z</time>
      </trkpt>
      <trkpt lat="44.6403" lon="5.78473">
        <ele>1511</ele>
        <time>2023-05-18T09:31:10Z</time>
      </trkpt>
      <trkpt lat="44.6403" lon="5.78474">
        <ele>1511.2</ele>
        <time>2023-05-18T09:31:12Z</time>
      </trkpt>
      <trkpt lat="44.6403" lon="5.78474">
        <ele>1511.6</ele>
        <time>2023-05-18T09:31:13Z</time>
      </trkpt>
      <trkpt lat="44.6403" lon="5.78474">
        <ele>1511.6</ele>
        <time>2023-05-18T09:31:14Z</time>
      </trkpt>
      <trkpt lat="44.6403" lon="5.78474">
        <ele>1511.8</ele>
        <time>2023-05-18T09:31:15Z</time>
      </trkpt>
      <trkpt lat="44.6403" lon="5.78474">
        <ele>1512</ele>
        <time>2023-05-18T09:31:16Z</time>
      </trkpt>
      <trkpt lat="44.6403" lon="5.78474">
        <ele>1512</ele>
        <time>2023-05-18T09:31:17Z</time>
      </trkpt>
      <trkpt lat="44.6403" lon="5.78474">
        <ele>1512.2</ele>
        <time>2023-05-18T09:31:18Z</time>
      </trkpt>
      <trkpt lat="44.6403" lon="5.78474">
        <ele>1512</ele>
        <time>2023-05-18T09:31:19Z</time>
      </trkpt>
      <trkpt lat="44.64029" lon="5.78474">
        <ele>1512.8</ele>
        <time>2023-05-18T09:31:23Z</time>
      </trkpt>
      <trkpt lat="44.64029" lon="5.78474">
        <ele>1513</ele>
        <time>2023-05-18T09:31:24Z</time>
      </trkpt>
      <trkpt lat="44.64029" lon="5.78475">
        <ele>1513.2</ele>
        <time>2023-05-18T09:31:26Z</time>
      </trkpt>
      <trkpt lat="44.64028" lon="5.78475">
        <ele>1513.4</ele>
        <time>2023-05-18T09:31:28Z</time>
      </trkpt>
      <trkpt lat="44.64028" lon="5.78475">
        <ele>1513.6</ele>
        <time>2023-05-18T09:31:29Z</time>
      </trkpt>
      <trkpt lat="44.64028" lon="5.78475">
        <ele>1514</ele>
        <time>2023-05-18T09:31:33Z</time>
      </trkpt>
      <trkpt lat="44.64027" lon="5.78476">
        <ele>1514.8</ele>
        <time>2023-05-18T09:31:38Z</time>
      </trkpt>
      <trkpt lat="44.64026" lon="5.78476">
        <ele>1515</ele>
        <time>2023-05-18T09:31:40Z</time>
      </trkpt>
      <trkpt lat="44.64026" lon="5.78476">
        <ele>1515.4</ele>
        <time>2023-05-18T09:31:44Z</time>
      </trkpt>
      <trkpt lat="44.64026" lon="5.78476">
        <ele>1516.2</ele>
        <time>2023-05-18T09:31:47Z</time>
      </trkpt>
      <trkpt lat="44.64025" lon="5.78477">
        <ele>1516.2</ele>
        <time>2023-05-18T09:31:48Z</time>
      </trkpt>
      <trkpt lat="44.64025" lon="5.78477">
        <ele>1516.4</ele>
        <time>2023-05-18T09:31:49Z</time>
      </trkpt>
      <trkpt lat="44.64024" lon="5.78478">
        <ele>1516.4</ele>
        <time>2023-05-18T09:31:50Z</time>
      </trkpt>
      <trkpt lat="44.64024" lon="5.78478">
        <ele>1516.4</ele>
        <time>2023-05-18T09:31:51Z</time>
      </trkpt>
      <trkpt lat="44.64024" lon="5.78478">
        <ele>1516.6</ele>
        <time>2023-05-18T09:31:52Z</time>
      </trkpt>
      <trkpt lat="44.64024" lon="5.78478">
        <ele>1516.6</ele>
        <time>2023-05-18T09:31:53Z</time>
      </trkpt>
      <trkpt lat="44.64024" lon="5.78478">
        <ele>1516.8</ele>
        <time>2023-05-18T09:31:54Z</time>
      </trkpt>
      <trkpt lat="44.64024" lon="5.78478">
        <ele>1517.2</ele>
        <time>2023-05-18T09:31:56Z</time>
      </trkpt>
      <trkpt lat="44.64024" lon="5.78478">
        <ele>1517.4</ele>
        <time>2023-05-18T09:31:57Z</time>
      </trkpt>
      <trkpt lat="44.64022" lon="5.78478">
        <ele>1517.6</ele>
        <time>2023-05-18T09:31:59Z</time>
      </trkpt>
      <trkpt lat="44.64022" lon="5.78478">
        <ele>1518</ele>
        <time>2023-05-18T09:32:01Z</time>
      </trkpt>
      <trkpt lat="44.64022" lon="5.78478">
        <ele>1518</ele>
        <time>2023-05-18T09:32:02Z</time>
      </trkpt>
      <trkpt lat="44.64022" lon="5.78478">
        <ele>1518.2</ele>
        <time>2023-05-18T09:32:03Z</time>
      </trkpt>
      <trkpt lat="44.64022" lon="5.78479">
        <ele>1518.6</ele>
        <time>2023-05-18T09:32:05Z</time>
      </trkpt>
      <trkpt lat="44.64021" lon="5.78479">
        <ele>1518.6</ele>
        <time>2023-05-18T09:32:06Z</time>
      </trkpt>
      <trkpt lat="44.6402" lon="5.7848">
        <ele>1518.8</ele>
        <time>2023-05-18T09:32:07Z</time>
      </trkpt>
      <trkpt lat="44.64018" lon="5.78482">
        <ele>1518.8</ele>
        <time>2023-05-18T09:32:08Z</time>
      </trkpt>
      <trkpt lat="44.64018" lon="5.78483">
        <ele>1519</ele>
        <time>2023-05-18T09:32:09Z</time>
      </trkpt>
      <trkpt lat="44.64018" lon="5.78484">
        <ele>1519.2</ele>
        <time>2023-05-18T09:32:10Z</time>
      </trkpt>
      <trkpt lat="44.64018" lon="5.78484">
        <ele>1519.4</ele>
        <time>2023-05-18T09:32:11Z</time>
      </trkpt>
      <trkpt lat="44.64018" lon="5.78484">
        <ele>1519.6</ele>
        <time>2023-05-18T09:32:12Z</time>
      </trkpt>
      <trkpt lat="44.64018" lon="5.78484">
        <ele>1519.8</ele>
        <time>2023-05-18T09:32:14Z</time>
      </trkpt>
      <trkpt lat="44.64018" lon="5.78484">
        <ele>1520</ele>
        <time>2023-05-18T09:32:15Z</time>
      </trkpt>
      <trkpt lat="44.64017" lon="5.78485">
        <ele>1520.2</ele>
        <time>2023-05-18T09:32:16Z</time>
      </trkpt>
      <trkpt lat="44.64016" lon="5.78487">
        <ele>1520.2</ele>
        <time>2023-05-18T09:32:17Z</time>
      </trkpt>
      <trkpt lat="44.64016" lon="5.78488">
        <ele>1520.4</ele>
        <time>2023-05-18T09:32:18Z</time>
      </trkpt>
      <trkpt lat="44.64016" lon="5.78489">
        <ele>1521.4</ele>
        <time>2023-05-18T09:32:25Z</time>
      </trkpt>
      <trkpt lat="44.64016" lon="5.78489">
        <ele>1521.4</ele>
        <time>2023-05-18T09:32:26Z</time>
      </trkpt>
      <trkpt lat="44.64015" lon="5.7849">
        <ele>1522</ele>
        <time>2023-05-18T09:32:31Z</time>
      </trkpt>
      <trkpt lat="44.64013" lon="5.78493">
        <ele>1522.2</ele>
        <time>2023-05-18T09:32:32Z</time>
      </trkpt>
      <trkpt lat="44.64011" lon="5.78496">
        <ele>1522.2</ele>
        <time>2023-05-18T09:32:33Z</time>
      </trkpt>
      <trkpt lat="44.6401" lon="5.78497">
        <ele>1522.4</ele>
        <time>2023-05-18T09:32:34Z</time>
      </trkpt>
      <trkpt lat="44.64009" lon="5.78498">
        <ele>1522.4</ele>
        <time>2023-05-18T09:32:35Z</time>
      </trkpt>
      <trkpt lat="44.64009" lon="5.78499">
        <ele>1522.6</ele>
        <time>2023-05-18T09:32:36Z</time>
      </trkpt>
      <trkpt lat="44.64009" lon="5.78499">
        <ele>1522.6</ele>
        <time>2023-05-18T09:32:37Z</time>
      </trkpt>
      <trkpt lat="44.64009" lon="5.78499">
        <ele>1523</ele>
        <time>2023-05-18T09:32:40Z</time>
      </trkpt>
      <trkpt lat="44.64008" lon="5.785">
        <ele>1523.2</ele>
        <time>2023-05-18T09:32:41Z</time>
      </trkpt>
      <trkpt lat="44.64008" lon="5.78502">
        <ele>1523.2</ele>
        <time>2023-05-18T09:32:42Z</time>
      </trkpt>
      <trkpt lat="44.64008" lon="5.78503">
        <ele>1523.2</ele>
        <time>2023-05-18T09:32:43Z</time>
      </trkpt>
      <trkpt lat="44.64007" lon="5.78504">
        <ele>1523.4</ele>
        <time>2023-05-18T09:32:44Z</time>
      </trkpt>
      <trkpt lat="44.64007" lon="5.78506">
        <ele>1523.4</ele>
        <time>2023-05-18T09:32:45Z</time>
      </trkpt>
      <trkpt lat="44.64006" lon="5.78507">
        <ele>1523.4</ele>
        <time>2023-05-18T09:32:46Z</time>
      </trkpt>
      <trkpt lat="44.64006" lon="5.7851">
        <ele>1523.6</ele>
        <time>2023-05-18T09:32:47Z</time>
      </trkpt>
      <trkpt lat="44.64005" lon="5.78513">
        <ele>1523.6</ele>
        <time>2023-05-18T09:32:48Z</time>
      </trkpt>
      <trkpt lat="44.64005" lon="5.78514">
        <ele>1523.6</ele>
        <time>2023-05-18T09:32:49Z</time>
      </trkpt>
      <trkpt lat="44.64004" lon="5.78515">
        <ele>1523.8</ele>
        <time>2023-05-18T09:32:50Z</time>
      </trkpt>
      <trkpt lat="44.64003" lon="5.78516">
        <ele>1523.6</ele>
        <time>2023-05-18T09:32:51Z</time>
      </trkpt>
      <trkpt lat="44.64003" lon="5.78517">
        <ele>1524</ele>
        <time>2023-05-18T09:32:52Z</time>
      </trkpt>
      <trkpt lat="44.64003" lon="5.78517">
        <ele>1523.8</ele>
        <time>2023-05-18T09:32:53Z</time>
      </trkpt>
      <trkpt lat="44.64002" lon="5.78518">
        <ele>1524</ele>
        <time>2023-05-18T09:32:54Z</time>
      </trkpt>
      <trkpt lat="44.64001" lon="5.78518">
        <ele>1524</ele>
        <time>2023-05-18T09:32:55Z</time>
      </trkpt>
      <trkpt lat="44.64001" lon="5.78519">
        <ele>1524.2</ele>
        <time>2023-05-18T09:32:56Z</time>
      </trkpt>
      <trkpt lat="44.64" lon="5.78519">
        <ele>1524.2</ele>
        <time>2023-05-18T09:32:57Z</time>
      </trkpt>
      <trkpt lat="44.64" lon="5.7852">
        <ele>1524.2</ele>
        <time>2023-05-18T09:32:58Z</time>
      </trkpt>
      <trkpt lat="44.64" lon="5.7852">
        <ele>1524.4</ele>
        <time>2023-05-18T09:32:59Z</time>
      </trkpt>
      <trkpt lat="44.64" lon="5.7852">
        <ele>1524.4</ele>
        <time>2023-05-18T09:33:00Z</time>
      </trkpt>
      <trkpt lat="44.64" lon="5.7852">
        <ele>1524.6</ele>
        <time>2023-05-18T09:33:01Z</time>
      </trkpt>
      <trkpt lat="44.64" lon="5.7852">
        <ele>1524.6</ele>
        <time>2023-05-18T09:33:15Z</time>
      </trkpt>
      <trkpt lat="44.64" lon="5.7852">
        <ele>1524.4</ele>
        <time>2023-05-18T09:33:26Z</time>
      </trkpt>
      <trkpt lat="44.64" lon="5.7852">
        <ele>1524.4</ele>
        <time>2023-05-18T09:33:36Z</time>
      </trkpt>
      <trkpt lat="44.63999" lon="5.78522">
        <ele>1524.6</ele>
        <time>2023-05-18T09:33:39Z</time>
      </trkpt>
      <trkpt lat="44.63998" lon="5.78524">
        <ele>1524.6</ele>
        <time>2023-05-18T09:33:41Z</time>
      </trkpt>
      <trkpt lat="44.63997" lon="5.78525">
        <ele>1524.6</ele>
        <time>2023-05-18T09:33:42Z</time>
      </trkpt>
      <trkpt lat="44.63996" lon="5.78526">
        <ele>1524.6</ele>
        <time>2023-05-18T09:33:43Z</time>
      </trkpt>
      <trkpt lat="44.63996" lon="5.78526">
        <ele>1524.8</ele>
        <time>2023-05-18T09:33:44Z</time>
      </trkpt>
      <trkpt lat="44.63995" lon="5.78527">
        <ele>1525.4</ele>
        <time>2023-05-18T09:33:48Z</time>
      </trkpt>
      <trkpt lat="44.63995" lon="5.78528">
        <ele>1525.6</ele>
        <time>2023-05-18T09:33:49Z</time>
      </trkpt>
      <trkpt lat="44.63994" lon="5.78529">
        <ele>1525.8</ele>
        <time>2023-05-18T09:33:51Z</time>
      </trkpt>
      <trkpt lat="44.63993" lon="5.78529">
        <ele>1526</ele>
        <time>2023-05-18T09:33:52Z</time>
      </trkpt>
      <trkpt lat="44.63993" lon="5.7853">
        <ele>1526.4</ele>
        <time>2023-05-18T09:33:53Z</time>
      </trkpt>
      <trkpt lat="44.63993" lon="5.7853">
        <ele>1526.4</ele>
        <time>2023-05-18T09:33:54Z</time>
      </trkpt>
      <trkpt lat="44.63993" lon="5.7853">
        <ele>1526.4</ele>
        <time>2023-05-18T09:33:55Z</time>
      </trkpt>
      <trkpt lat="44.63993" lon="5.7853">
        <ele>1526.4</ele>
        <time>2023-05-18T09:33:56Z</time>
      </trkpt>
      <trkpt lat="44.63991" lon="5.78531">
        <ele>1527</ele>
        <time>2023-05-18T09:33:58Z</time>
      </trkpt>
      <trkpt lat="44.63989" lon="5.78534">
        <ele>1527</ele>
        <time>2023-05-18T09:34:01Z</time>
      </trkpt>
      <trkpt lat="44.63989" lon="5.78534">
        <ele>1527.2</ele>
        <time>2023-05-18T09:34:02Z</time>
      </trkpt>
      <trkpt lat="44.63989" lon="5.78534">
        <ele>1527.2</ele>
        <time>2023-05-18T09:34:03Z</time>
      </trkpt>
      <trkpt lat="44.63989" lon="5.78534">
        <ele>1527.4</ele>
        <time>2023-05-18T09:34:04Z</time>
      </trkpt>
      <trkpt lat="44.63987" lon="5.78535">
        <ele>1527.6</ele>
        <time>2023-05-18T09:34:05Z</time>
      </trkpt>
      <trkpt lat="44.63986" lon="5.78536">
        <ele>1527.6</ele>
        <time>2023-05-18T09:34:06Z</time>
      </trkpt>
      <trkpt lat="44.63986" lon="5.78536">
        <ele>1527.8</ele>
        <time>2023-05-18T09:34:07Z</time>
      </trkpt>
      <trkpt lat="44.63985" lon="5.78537">
        <ele>1528</ele>
        <time>2023-05-18T09:34:08Z</time>
      </trkpt>
      <trkpt lat="44.63985" lon="5.78537">
        <ele>1528.4</ele>
        <time>2023-05-18T09:34:09Z</time>
      </trkpt>
      <trkpt lat="44.63985" lon="5.78537">
        <ele>1528.4</ele>
        <time>2023-05-18T09:34:10Z</time>
      </trkpt>
      <trkpt lat="44.63984" lon="5.78537">
        <ele>1528.4</ele>
        <time>2023-05-18T09:34:11Z</time>
      </trkpt>
      <trkpt lat="44.63984" lon="5.78538">
        <ele>1528.6</ele>
        <time>2023-05-18T09:34:12Z</time>
      </trkpt>
      <trkpt lat="44.63984" lon="5.78538">
        <ele>1529</ele>
        <time>2023-05-18T09:34:13Z</time>
      </trkpt>
      <trkpt lat="44.63984" lon="5.78538">
        <ele>1529</ele>
        <time>2023-05-18T09:34:14Z</time>
      </trkpt>
      <trkpt lat="44.63983" lon="5.78538">
        <ele>1529</ele>
        <time>2023-05-18T09:34:15Z</time>
      </trkpt>
      <trkpt lat="44.63983" lon="5.78538">
        <ele>1529.2</ele>
        <time>2023-05-18T09:34:16Z</time>
      </trkpt>
      <trkpt lat="44.63983" lon="5.78538">
        <ele>1529.2</ele>
        <time>2023-05-18T09:34:17Z</time>
      </trkpt>
      <trkpt lat="44.63983" lon="5.78538">
        <ele>1529.6</ele>
        <time>2023-05-18T09:34:18Z</time>
      </trkpt>
      <trkpt lat="44.63983" lon="5.78538">
        <ele>1529.6</ele>
        <time>2023-05-18T09:34:19Z</time>
      </trkpt>
      <trkpt lat="44.63983" lon="5.78538">
        <ele>1529.8</ele>
        <time>2023-05-18T09:34:20Z</time>
      </trkpt>
      <trkpt lat="44.63983" lon="5.78538">
        <ele>1529.8</ele>
        <time>2023-05-18T09:34:21Z</time>
      </trkpt>
      <trkpt lat="44.63983" lon="5.78538">
        <ele>1530.2</ele>
        <time>2023-05-18T09:34:22Z</time>
      </trkpt>
      <trkpt lat="44.63982" lon="5.78538">
        <ele>1530.8</ele>
        <time>2023-05-18T09:34:28Z</time>
      </trkpt>
      <trkpt lat="44.63982" lon="5.78538">
        <ele>1531.4</ele>
        <time>2023-05-18T09:34:46Z</time>
      </trkpt>
      <trkpt lat="44.63982" lon="5.78538">
        <ele>1531.2</ele>
        <time>2023-05-18T09:35:02Z</time>
      </trkpt>
      <trkpt lat="44.63982" lon="5.78538">
        <ele>1531.4</ele>
        <time>2023-05-18T09:35:23Z</time>
      </trkpt>
      <trkpt lat="44.63982" lon="5.78538">
        <ele>1531.2</ele>
        <time>2023-05-18T09:35:33Z</time>
      </trkpt>
      <trkpt lat="44.63982" lon="5.78538">
        <ele>1530.8</ele>
        <time>2023-05-18T09:35:46Z</time>
      </trkpt>
      <trkpt lat="44.63982" lon="5.78538">
        <ele>1531.2</ele>
        <time>2023-05-18T09:35:59Z</time>
      </trkpt>
      <trkpt lat="44.63982" lon="5.78538">
        <ele>1531.8</ele>
        <time>2023-05-18T09:36:21Z</time>
      </trkpt>
      <trkpt lat="44.63982" lon="5.78538">
        <ele>1531.8</ele>
        <time>2023-05-18T09:36:26Z</time>
      </trkpt>
      <trkpt lat="44.63979" lon="5.78539">
        <ele>1532</ele>
        <time>2023-05-18T09:36:33Z</time>
      </trkpt>
      <trkpt lat="44.63979" lon="5.78539">
        <ele>1532</ele>
        <time>2023-05-18T09:36:34Z</time>
      </trkpt>
      <trkpt lat="44.63975" lon="5.78543">
        <ele>1532.6</ele>
        <time>2023-05-18T09:36:40Z</time>
      </trkpt>
      <trkpt lat="44.63975" lon="5.78543">
        <ele>1532.8</ele>
        <time>2023-05-18T09:36:42Z</time>
      </trkpt>
      <trkpt lat="44.63974" lon="5.78545">
        <ele>1533.4</ele>
        <time>2023-05-18T09:36:46Z</time>
      </trkpt>
      <trkpt lat="44.63974" lon="5.78545">
        <ele>1533.4</ele>
        <time>2023-05-18T09:36:47Z</time>
      </trkpt>
      <trkpt lat="44.63973" lon="5.78545">
        <ele>1533.6</ele>
        <time>2023-05-18T09:36:48Z</time>
      </trkpt>
      <trkpt lat="44.63973" lon="5.78545">
        <ele>1533.6</ele>
        <time>2023-05-18T09:36:50Z</time>
      </trkpt>
      <trkpt lat="44.63973" lon="5.78545">
        <ele>1533.8</ele>
        <time>2023-05-18T09:36:51Z</time>
      </trkpt>
      <trkpt lat="44.63973" lon="5.78545">
        <ele>1533.8</ele>
        <time>2023-05-18T09:36:52Z</time>
      </trkpt>
      <trkpt lat="44.63973" lon="5.78547">
        <ele>1534</ele>
        <time>2023-05-18T09:36:53Z</time>
      </trkpt>
      <trkpt lat="44.63971" lon="5.7855">
        <ele>1534</ele>
        <time>2023-05-18T09:36:56Z</time>
      </trkpt>
      <trkpt lat="44.63971" lon="5.7855">
        <ele>1534.2</ele>
        <time>2023-05-18T09:36:57Z</time>
      </trkpt>
      <trkpt lat="44.63971" lon="5.7855">
        <ele>1534.4</ele>
        <time>2023-05-18T09:36:58Z</time>
      </trkpt>
      <trkpt lat="44.6397" lon="5.78551">
        <ele>1534.6</ele>
        <time>2023-05-18T09:36:59Z</time>
      </trkpt>
      <trkpt lat="44.6397" lon="5.78552">
        <ele>1534.6</ele>
        <time>2023-05-18T09:37:00Z</time>
      </trkpt>
      <trkpt lat="44.6397" lon="5.78552">
        <ele>1535</ele>
        <time>2023-05-18T09:37:02Z</time>
      </trkpt>
      <trkpt lat="44.63967" lon="5.78556">
        <ele>1535.2</ele>
        <time>2023-05-18T09:37:06Z</time>
      </trkpt>
      <trkpt lat="44.63966" lon="5.78557">
        <ele>1535.2</ele>
        <time>2023-05-18T09:37:07Z</time>
      </trkpt>
      <trkpt lat="44.63965" lon="5.78558">
        <ele>1535.4</ele>
        <time>2023-05-18T09:37:08Z</time>
      </trkpt>
      <trkpt lat="44.63964" lon="5.78559">
        <ele>1535.6</ele>
        <time>2023-05-18T09:37:09Z</time>
      </trkpt>
      <trkpt lat="44.63963" lon="5.7856">
        <ele>1535.8</ele>
        <time>2023-05-18T09:37:10Z</time>
      </trkpt>
      <trkpt lat="44.63963" lon="5.7856">
        <ele>1536</ele>
        <time>2023-05-18T09:37:11Z</time>
      </trkpt>
      <trkpt lat="44.63962" lon="5.78561">
        <ele>1536</ele>
        <time>2023-05-18T09:37:12Z</time>
      </trkpt>
      <trkpt lat="44.63961" lon="5.78563">
        <ele>1536.2</ele>
        <time>2023-05-18T09:37:13Z</time>
      </trkpt>
      <trkpt lat="44.6396" lon="5.78565">
        <ele>1536.2</ele>
        <time>2023-05-18T09:37:14Z</time>
      </trkpt>
      <trkpt lat="44.63959" lon="5.78566">
        <ele>1536.2</ele>
        <time>2023-05-18T09:37:15Z</time>
      </trkpt>
      <trkpt lat="44.63958" lon="5.78568">
        <ele>1536.4</ele>
        <time>2023-05-18T09:37:16Z</time>
      </trkpt>
      <trkpt lat="44.63957" lon="5.78569">
        <ele>1536.6</ele>
        <time>2023-05-18T09:37:17Z</time>
      </trkpt>
      <trkpt lat="44.63957" lon="5.78569">
        <ele>1536.8</ele>
        <time>2023-05-18T09:37:18Z</time>
      </trkpt>
      <trkpt lat="44.63957" lon="5.7857">
        <ele>1536.8</ele>
        <time>2023-05-18T09:37:19Z</time>
      </trkpt>
      <trkpt lat="44.63956" lon="5.78572">
        <ele>1536.8</ele>
        <time>2023-05-18T09:37:20Z</time>
      </trkpt>
      <trkpt lat="44.63955" lon="5.78574">
        <ele>1537</ele>
        <time>2023-05-18T09:37:21Z</time>
      </trkpt>
      <trkpt lat="44.63954" lon="5.78575">
        <ele>1537</ele>
        <time>2023-05-18T09:37:22Z</time>
      </trkpt>
      <trkpt lat="44.63954" lon="5.78576">
        <ele>1537</ele>
        <time>2023-05-18T09:37:23Z</time>
      </trkpt>
      <trkpt lat="44.63953" lon="5.78577">
        <ele>1537.2</ele>
        <time>2023-05-18T09:37:24Z</time>
      </trkpt>
      <trkpt lat="44.63952" lon="5.78579">
        <ele>1537.2</ele>
        <time>2023-05-18T09:37:25Z</time>
      </trkpt>
      <trkpt lat="44.63951" lon="5.7858">
        <ele>1537.2</ele>
        <time>2023-05-18T09:37:26Z</time>
      </trkpt>
      <trkpt lat="44.63951" lon="5.78581">
        <ele>1537.4</ele>
        <time>2023-05-18T09:37:27Z</time>
      </trkpt>
      <trkpt lat="44.63951" lon="5.78581">
        <ele>1537.4</ele>
        <time>2023-05-18T09:37:28Z</time>
      </trkpt>
      <trkpt lat="44.63951" lon="5.78581">
        <ele>1537.4</ele>
        <time>2023-05-18T09:37:29Z</time>
      </trkpt>
      <trkpt lat="44.63951" lon="5.78581">
        <ele>1537.6</ele>
        <time>2023-05-18T09:37:30Z</time>
      </trkpt>
      <trkpt lat="44.63951" lon="5.78581">
        <ele>1537.6</ele>
        <time>2023-05-18T09:37:31Z</time>
      </trkpt>
      <trkpt lat="44.6395" lon="5.78582">
        <ele>1537.8</ele>
        <time>2023-05-18T09:37:32Z</time>
      </trkpt>
      <trkpt lat="44.6395" lon="5.78582">
        <ele>1538</ele>
        <time>2023-05-18T09:37:33Z</time>
      </trkpt>
      <trkpt lat="44.6395" lon="5.78582">
        <ele>1538</ele>
        <time>2023-05-18T09:37:34Z</time>
      </trkpt>
      <trkpt lat="44.6395" lon="5.78582">
        <ele>1538.2</ele>
        <time>2023-05-18T09:37:35Z</time>
      </trkpt>
      <trkpt lat="44.63949" lon="5.78583">
        <ele>1538.4</ele>
        <time>2023-05-18T09:37:37Z</time>
      </trkpt>
      <trkpt lat="44.63948" lon="5.78586">
        <ele>1539</ele>
        <time>2023-05-18T09:37:41Z</time>
      </trkpt>
      <trkpt lat="44.63948" lon="5.78587">
        <ele>1539.2</ele>
        <time>2023-05-18T09:37:42Z</time>
      </trkpt>
      <trkpt lat="44.63948" lon="5.78588">
        <ele>1539.2</ele>
        <time>2023-05-18T09:37:43Z</time>
      </trkpt>
      <trkpt lat="44.63947" lon="5.78589">
        <ele>1539.4</ele>
        <time>2023-05-18T09:37:44Z</time>
      </trkpt>
      <trkpt lat="44.63946" lon="5.78589">
        <ele>1539.4</ele>
        <time>2023-05-18T09:37:45Z</time>
      </trkpt>
      <trkpt lat="44.63945" lon="5.7859">
        <ele>1539.4</ele>
        <time>2023-05-18T09:37:46Z</time>
      </trkpt>
      <trkpt lat="44.63945" lon="5.78592">
        <ele>1539.8</ele>
        <time>2023-05-18T09:37:47Z</time>
      </trkpt>
      <trkpt lat="44.63945" lon="5.78593">
        <ele>1539.8</ele>
        <time>2023-05-18T09:37:48Z</time>
      </trkpt>
      <trkpt lat="44.63944" lon="5.78593">
        <ele>1540</ele>
        <time>2023-05-18T09:37:49Z</time>
      </trkpt>
      <trkpt lat="44.63943" lon="5.78594">
        <ele>1540</ele>
        <time>2023-05-18T09:37:50Z</time>
      </trkpt>
      <trkpt lat="44.63943" lon="5.78594">
        <ele>1540.2</ele>
        <time>2023-05-18T09:37:51Z</time>
      </trkpt>
      <trkpt lat="44.63943" lon="5.78596">
        <ele>1540.4</ele>
        <time>2023-05-18T09:37:52Z</time>
      </trkpt>
      <trkpt lat="44.63942" lon="5.78597">
        <ele>1540.6</ele>
        <time>2023-05-18T09:37:53Z</time>
      </trkpt>
      <trkpt lat="44.63942" lon="5.78598">
        <ele>1540.6</ele>
        <time>2023-05-18T09:37:54Z</time>
      </trkpt>
      <trkpt lat="44.63941" lon="5.78598">
        <ele>1540.6</ele>
        <time>2023-05-18T09:37:55Z</time>
      </trkpt>
      <trkpt lat="44.63941" lon="5.78598">
        <ele>1540.8</ele>
        <time>2023-05-18T09:37:56Z</time>
      </trkpt>
      <trkpt lat="44.63941" lon="5.78598">
        <ele>1541</ele>
        <time>2023-05-18T09:37:57Z</time>
      </trkpt>
      <trkpt lat="44.63941" lon="5.78598">
        <ele>1541</ele>
        <time>2023-05-18T09:37:58Z</time>
      </trkpt>
      <trkpt lat="44.63941" lon="5.78598">
        <ele>1541.2</ele>
        <time>2023-05-18T09:37:59Z</time>
      </trkpt>
      <trkpt lat="44.63941" lon="5.78598">
        <ele>1541.4</ele>
        <time>2023-05-18T09:38:00Z</time>
      </trkpt>
      <trkpt lat="44.63941" lon="5.78599">
        <ele>1541.6</ele>
        <time>2023-05-18T09:38:01Z</time>
      </trkpt>
      <trkpt lat="44.63941" lon="5.78599">
        <ele>1541.6</ele>
        <time>2023-05-18T09:38:02Z</time>
      </trkpt>
      <trkpt lat="44.63941" lon="5.78599">
        <ele>1542</ele>
        <time>2023-05-18T09:38:03Z</time>
      </trkpt>
      <trkpt lat="44.63941" lon="5.78599">
        <ele>1542</ele>
        <time>2023-05-18T09:38:04Z</time>
      </trkpt>
      <trkpt lat="44.63941" lon="5.78599">
        <ele>1542.2</ele>
        <time>2023-05-18T09:38:05Z</time>
      </trkpt>
      <trkpt lat="44.63941" lon="5.78599">
        <ele>1542.2</ele>
        <time>2023-05-18T09:38:06Z</time>
      </trkpt>
      <trkpt lat="44.63941" lon="5.78599">
        <ele>1542.4</ele>
        <time>2023-05-18T09:38:07Z</time>
      </trkpt>
      <trkpt lat="44.63941" lon="5.78599">
        <ele>1542.4</ele>
        <time>2023-05-18T09:38:09Z</time>
      </trkpt>
      <trkpt lat="44.63941" lon="5.78599">
        <ele>1542.6</ele>
        <time>2023-05-18T09:38:10Z</time>
      </trkpt>
      <trkpt lat="44.63941" lon="5.78599">
        <ele>1542.6</ele>
        <time>2023-05-18T09:38:11Z</time>
      </trkpt>
      <trkpt lat="44.63941" lon="5.78599">
        <ele>1542.8</ele>
        <time>2023-05-18T09:38:12Z</time>
      </trkpt>
      <trkpt lat="44.63941" lon="5.78599">
        <ele>1543</ele>
        <time>2023-05-18T09:38:13Z</time>
      </trkpt>
      <trkpt lat="44.6394" lon="5.786">
        <ele>1543.2</ele>
        <time>2023-05-18T09:38:14Z</time>
      </trkpt>
      <trkpt lat="44.6394" lon="5.786">
        <ele>1543.2</ele>
        <time>2023-05-18T09:38:15Z</time>
      </trkpt>
      <trkpt lat="44.6394" lon="5.786">
        <ele>1543.4</ele>
        <time>2023-05-18T09:38:16Z</time>
      </trkpt>
      <trkpt lat="44.6394" lon="5.786">
        <ele>1543.4</ele>
        <time>2023-05-18T09:38:17Z</time>
      </trkpt>
      <trkpt lat="44.6394" lon="5.78601">
        <ele>1543.6</ele>
        <time>2023-05-18T09:38:18Z</time>
      </trkpt>
      <trkpt lat="44.63939" lon="5.78601">
        <ele>1543.8</ele>
        <time>2023-05-18T09:38:19Z</time>
      </trkpt>
      <trkpt lat="44.63939" lon="5.78601">
        <ele>1544</ele>
        <time>2023-05-18T09:38:20Z</time>
      </trkpt>
      <trkpt lat="44.63938" lon="5.78601">
        <ele>1544</ele>
        <time>2023-05-18T09:38:21Z</time>
      </trkpt>
      <trkpt lat="44.63938" lon="5.78601">
        <ele>1544.2</ele>
        <time>2023-05-18T09:38:22Z</time>
      </trkpt>
      <trkpt lat="44.63938" lon="5.78601">
        <ele>1544.4</ele>
        <time>2023-05-18T09:38:23Z</time>
      </trkpt>
      <trkpt lat="44.63937" lon="5.78601">
        <ele>1544.4</ele>
        <time>2023-05-18T09:38:24Z</time>
      </trkpt>
      <trkpt lat="44.63937" lon="5.78601">
        <ele>1544.6</ele>
        <time>2023-05-18T09:38:25Z</time>
      </trkpt>
      <trkpt lat="44.63937" lon="5.78601">
        <ele>1544.6</ele>
        <time>2023-05-18T09:38:26Z</time>
      </trkpt>
      <trkpt lat="44.63937" lon="5.78601">
        <ele>1544.8</ele>
        <time>2023-05-18T09:38:27Z</time>
      </trkpt>
      <trkpt lat="44.63937" lon="5.78601">
        <ele>1545</ele>
        <time>2023-05-18T09:38:28Z</time>
      </trkpt>
      <trkpt lat="44.63937" lon="5.78601">
        <ele>1545</ele>
        <time>2023-05-18T09:38:29Z</time>
      </trkpt>
      <trkpt lat="44.63937" lon="5.78601">
        <ele>1545.2</ele>
        <time>2023-05-18T09:38:32Z</time>
      </trkpt>
      <trkpt lat="44.63937" lon="5.78601">
        <ele>1545.4</ele>
        <time>2023-05-18T09:38:33Z</time>
      </trkpt>
      <trkpt lat="44.63936" lon="5.78601">
        <ele>1545.4</ele>
        <time>2023-05-18T09:38:35Z</time>
      </trkpt>
      <trkpt lat="44.63935" lon="5.78602">
        <ele>1546.4</ele>
        <time>2023-05-18T09:38:41Z</time>
      </trkpt>
      <trkpt lat="44.63934" lon="5.78602">
        <ele>1546.6</ele>
        <time>2023-05-18T09:38:42Z</time>
      </trkpt>
      <trkpt lat="44.63933" lon="5.78602">
        <ele>1546.6</ele>
        <time>2023-05-18T09:38:43Z</time>
      </trkpt>
      <trkpt lat="44.63933" lon="5.78602">
        <ele>1546.8</ele>
        <time>2023-05-18T09:38:44Z</time>
      </trkpt>
      <trkpt lat="44.63933" lon="5.78602">
        <ele>1546.8</ele>
        <time>2023-05-18T09:38:45Z</time>
      </trkpt>
      <trkpt lat="44.63933" lon="5.78602">
        <ele>1547.2</ele>
        <time>2023-05-18T09:38:48Z</time>
      </trkpt>
      <trkpt lat="44.63931" lon="5.78602">
        <ele>1547.4</ele>
        <time>2023-05-18T09:38:50Z</time>
      </trkpt>
      <trkpt lat="44.6393" lon="5.78602">
        <ele>1547.4</ele>
        <time>2023-05-18T09:38:51Z</time>
      </trkpt>
      <trkpt lat="44.63929" lon="5.78602">
        <ele>1547.4</ele>
        <time>2023-05-18T09:38:52Z</time>
      </trkpt>
      <trkpt lat="44.63929" lon="5.78602">
        <ele>1547.6</ele>
        <time>2023-05-18T09:38:53Z</time>
      </trkpt>
      <trkpt lat="44.63929" lon="5.78602">
        <ele>1547.8</ele>
        <time>2023-05-18T09:38:54Z</time>
      </trkpt>
      <trkpt lat="44.63928" lon="5.78602">
        <ele>1547.8</ele>
        <time>2023-05-18T09:38:55Z</time>
      </trkpt>
      <trkpt lat="44.63928" lon="5.78602">
        <ele>1548</ele>
        <time>2023-05-18T09:38:56Z</time>
      </trkpt>
      <trkpt lat="44.63927" lon="5.78602">
        <ele>1548</ele>
        <time>2023-05-18T09:38:57Z</time>
      </trkpt>
      <trkpt lat="44.63926" lon="5.78602">
        <ele>1548</ele>
        <time>2023-05-18T09:38:58Z</time>
      </trkpt>
      <trkpt lat="44.63925" lon="5.78603">
        <ele>1548.2</ele>
        <time>2023-05-18T09:38:59Z</time>
      </trkpt>
      <trkpt lat="44.63924" lon="5.78603">
        <ele>1548.2</ele>
        <time>2023-05-18T09:39:00Z</time>
      </trkpt>
      <trkpt lat="44.63922" lon="5.78603">
        <ele>1548.2</ele>
        <time>2023-05-18T09:39:01Z</time>
      </trkpt>
      <trkpt lat="44.63921" lon="5.78604">
        <ele>1548.4</ele>
        <time>2023-05-18T09:39:02Z</time>
      </trkpt>
      <trkpt lat="44.6392" lon="5.78604">
        <ele>1548.4</ele>
        <time>2023-05-18T09:39:03Z</time>
      </trkpt>
      <trkpt lat="44.63919" lon="5.78604">
        <ele>1548.4</ele>
        <time>2023-05-18T09:39:04Z</time>
      </trkpt>
      <trkpt lat="44.63919" lon="5.78604">
        <ele>1548.6</ele>
        <time>2023-05-18T09:39:05Z</time>
      </trkpt>
      <trkpt lat="44.63919" lon="5.78604">
        <ele>1548.6</ele>
        <time>2023-05-18T09:39:06Z</time>
      </trkpt>
      <trkpt lat="44.63918" lon="5.78604">
        <ele>1548.6</ele>
        <time>2023-05-18T09:39:07Z</time>
      </trkpt>
      <trkpt lat="44.63918" lon="5.78604">
        <ele>1548.6</ele>
        <time>2023-05-18T09:39:09Z</time>
      </trkpt>
      <trkpt lat="44.63918" lon="5.78604">
        <ele>1548.8</ele>
        <time>2023-05-18T09:39:13Z</time>
      </trkpt>
      <trkpt lat="44.63918" lon="5.78603">
        <ele>1549</ele>
        <time>2023-05-18T09:39:22Z</time>
      </trkpt>
      <trkpt lat="44.63918" lon="5.78603">
        <ele>1549</ele>
        <time>2023-05-18T09:39:29Z</time>
      </trkpt>
      <trkpt lat="44.63916" lon="5.78606">
        <ele>1549.2</ele>
        <time>2023-05-18T09:39:36Z</time>
      </trkpt>
      <trkpt lat="44.63914" lon="5.78608">
        <ele>1549.4</ele>
        <time>2023-05-18T09:39:43Z</time>
      </trkpt>
      <trkpt lat="44.63913" lon="5.78608">
        <ele>1549.4</ele>
        <time>2023-05-18T09:39:44Z</time>
      </trkpt>
      <trkpt lat="44.63912" lon="5.7861">
        <ele>1549.4</ele>
        <time>2023-05-18T09:39:45Z</time>
      </trkpt>
      <trkpt lat="44.6391" lon="5.78611">
        <ele>1549.4</ele>
        <time>2023-05-18T09:39:46Z</time>
      </trkpt>
      <trkpt lat="44.63909" lon="5.78613">
        <ele>1549.4</ele>
        <time>2023-05-18T09:39:47Z</time>
      </trkpt>
      <trkpt lat="44.63907" lon="5.78614">
        <ele>1549.6</ele>
        <time>2023-05-18T09:39:48Z</time>
      </trkpt>
      <trkpt lat="44.63906" lon="5.78614">
        <ele>1549.6</ele>
        <time>2023-05-18T09:39:49Z</time>
      </trkpt>
      <trkpt lat="44.63905" lon="5.78615">
        <ele>1549.6</ele>
        <time>2023-05-18T09:39:50Z</time>
      </trkpt>
      <trkpt lat="44.63901" lon="5.78618">
        <ele>1549.8</ele>
        <time>2023-05-18T09:39:53Z</time>
      </trkpt>
      <trkpt lat="44.639" lon="5.78619">
        <ele>1549.8</ele>
        <time>2023-05-18T09:39:54Z</time>
      </trkpt>
      <trkpt lat="44.63898" lon="5.78619">
        <ele>1549.8</ele>
        <time>2023-05-18T09:39:55Z</time>
      </trkpt>
      <trkpt lat="44.63897" lon="5.7862">
        <ele>1549.8</ele>
        <time>2023-05-18T09:39:56Z</time>
      </trkpt>
      <trkpt lat="44.63892" lon="5.78625">
        <ele>1550</ele>
        <time>2023-05-18T09:39:59Z</time>
      </trkpt>
      <trkpt lat="44.63892" lon="5.78626">
        <ele>1550.2</ele>
        <time>2023-05-18T09:40:00Z</time>
      </trkpt>
      <trkpt lat="44.63891" lon="5.78626">
        <ele>1550.2</ele>
        <time>2023-05-18T09:40:01Z</time>
      </trkpt>
      <trkpt lat="44.63891" lon="5.78626">
        <ele>1550.4</ele>
        <time>2023-05-18T09:40:02Z</time>
      </trkpt>
      <trkpt lat="44.63891" lon="5.78627">
        <ele>1550.4</ele>
        <time>2023-05-18T09:40:03Z</time>
      </trkpt>
      <trkpt lat="44.6389" lon="5.78627">
        <ele>1550.6</ele>
        <time>2023-05-18T09:40:06Z</time>
      </trkpt>
      <trkpt lat="44.6389" lon="5.78627">
        <ele>1550.6</ele>
        <time>2023-05-18T09:40:07Z</time>
      </trkpt>
      <trkpt lat="44.6389" lon="5.78627">
        <ele>1550.6</ele>
        <time>2023-05-18T09:40:08Z</time>
      </trkpt>
      <trkpt lat="44.6389" lon="5.78627">
        <ele>1550.8</ele>
        <time>2023-05-18T09:40:09Z</time>
      </trkpt>
      <trkpt lat="44.63889" lon="5.78628">
        <ele>1550.8</ele>
        <time>2023-05-18T09:40:10Z</time>
      </trkpt>
      <trkpt lat="44.63889" lon="5.78629">
        <ele>1551</ele>
        <time>2023-05-18T09:40:11Z</time>
      </trkpt>
      <trkpt lat="44.63887" lon="5.7863">
        <ele>1551</ele>
        <time>2023-05-18T09:40:12Z</time>
      </trkpt>
      <trkpt lat="44.63885" lon="5.78634">
        <ele>1551.2</ele>
        <time>2023-05-18T09:40:15Z</time>
      </trkpt>
      <trkpt lat="44.63884" lon="5.78636">
        <ele>1551.4</ele>
        <time>2023-05-18T09:40:17Z</time>
      </trkpt>
      <trkpt lat="44.63884" lon="5.78636">
        <ele>1551.6</ele>
        <time>2023-05-18T09:40:18Z</time>
      </trkpt>
      <trkpt lat="44.63883" lon="5.7864">
        <ele>1552.2</ele>
        <time>2023-05-18T09:40:23Z</time>
      </trkpt>
      <trkpt lat="44.63883" lon="5.7864">
        <ele>1552.2</ele>
        <time>2023-05-18T09:40:24Z</time>
      </trkpt>
      <trkpt lat="44.63883" lon="5.7864">
        <ele>1552.4</ele>
        <time>2023-05-18T09:40:25Z</time>
      </trkpt>
      <trkpt lat="44.63883" lon="5.78641">
        <ele>1552.6</ele>
        <time>2023-05-18T09:40:26Z</time>
      </trkpt>
      <trkpt lat="44.63883" lon="5.78641">
        <ele>1553</ele>
        <time>2023-05-18T09:40:30Z</time>
      </trkpt>
      <trkpt lat="44.63882" lon="5.78641">
        <ele>1553.2</ele>
        <time>2023-05-18T09:40:32Z</time>
      </trkpt>
      <trkpt lat="44.63881" lon="5.78643">
        <ele>1553.4</ele>
        <time>2023-05-18T09:40:33Z</time>
      </trkpt>
      <trkpt lat="44.63881" lon="5.78645">
        <ele>1553.4</ele>
        <time>2023-05-18T09:40:34Z</time>
      </trkpt>
      <trkpt lat="44.6388" lon="5.78649">
        <ele>1553.6</ele>
        <time>2023-05-18T09:40:35Z</time>
      </trkpt>
      <trkpt lat="44.6388" lon="5.78649">
        <ele>1553.6</ele>
        <time>2023-05-18T09:40:36Z</time>
      </trkpt>
      <trkpt lat="44.6388" lon="5.78649">
        <ele>1553.8</ele>
        <time>2023-05-18T09:40:37Z</time>
      </trkpt>
      <trkpt lat="44.6388" lon="5.7865">
        <ele>1553.8</ele>
        <time>2023-05-18T09:40:38Z</time>
      </trkpt>
      <trkpt lat="44.63879" lon="5.78651">
        <ele>1554</ele>
        <time>2023-05-18T09:40:39Z</time>
      </trkpt>
      <trkpt lat="44.63878" lon="5.78651">
        <ele>1554.2</ele>
        <time>2023-05-18T09:40:40Z</time>
      </trkpt>
      <trkpt lat="44.63878" lon="5.78652">
        <ele>1554.2</ele>
        <time>2023-05-18T09:40:41Z</time>
      </trkpt>
      <trkpt lat="44.63878" lon="5.78652">
        <ele>1554.4</ele>
        <time>2023-05-18T09:40:42Z</time>
      </trkpt>
      <trkpt lat="44.63877" lon="5.78653">
        <ele>1554.6</ele>
        <time>2023-05-18T09:40:43Z</time>
      </trkpt>
      <trkpt lat="44.63877" lon="5.78654">
        <ele>1554.8</ele>
        <time>2023-05-18T09:40:44Z</time>
      </trkpt>
      <trkpt lat="44.63876" lon="5.78655">
        <ele>1554.8</ele>
        <time>2023-05-18T09:40:45Z</time>
      </trkpt>
      <trkpt lat="44.63876" lon="5.78655">
        <ele>1554.8</ele>
        <time>2023-05-18T09:40:46Z</time>
      </trkpt>
      <trkpt lat="44.63875" lon="5.78655">
        <ele>1555</ele>
        <time>2023-05-18T09:40:47Z</time>
      </trkpt>
      <trkpt lat="44.63874" lon="5.78655">
        <ele>1555</ele>
        <time>2023-05-18T09:40:48Z</time>
      </trkpt>
      <trkpt lat="44.63873" lon="5.78655">
        <ele>1555.2</ele>
        <time>2023-05-18T09:40:49Z</time>
      </trkpt>
      <trkpt lat="44.63873" lon="5.78656">
        <ele>1555.2</ele>
        <time>2023-05-18T09:40:50Z</time>
      </trkpt>
      <trkpt lat="44.63872" lon="5.78656">
        <ele>1555.4</ele>
        <time>2023-05-18T09:40:51Z</time>
      </trkpt>
      <trkpt lat="44.63871" lon="5.78657">
        <ele>1555.6</ele>
        <time>2023-05-18T09:40:52Z</time>
      </trkpt>
      <trkpt lat="44.63871" lon="5.78656">
        <ele>1555.6</ele>
        <time>2023-05-18T09:40:53Z</time>
      </trkpt>
      <trkpt lat="44.63871" lon="5.78656">
        <ele>1555.6</ele>
        <time>2023-05-18T09:40:54Z</time>
      </trkpt>
      <trkpt lat="44.6387" lon="5.78657">
        <ele>1555.8</ele>
        <time>2023-05-18T09:40:56Z</time>
      </trkpt>
      <trkpt lat="44.6387" lon="5.78657">
        <ele>1555.8</ele>
        <time>2023-05-18T09:40:57Z</time>
      </trkpt>
      <trkpt lat="44.63869" lon="5.78657">
        <ele>1556</ele>
        <time>2023-05-18T09:40:58Z</time>
      </trkpt>
      <trkpt lat="44.63869" lon="5.78657">
        <ele>1556</ele>
        <time>2023-05-18T09:40:59Z</time>
      </trkpt>
      <trkpt lat="44.63869" lon="5.78657">
        <ele>1556.2</ele>
        <time>2023-05-18T09:41:00Z</time>
      </trkpt>
      <trkpt lat="44.63869" lon="5.78657">
        <ele>1556.4</ele>
        <time>2023-05-18T09:41:01Z</time>
      </trkpt>
      <trkpt lat="44.63868" lon="5.78657">
        <ele>1556.4</ele>
        <time>2023-05-18T09:41:02Z</time>
      </trkpt>
      <trkpt lat="44.63868" lon="5.78657">
        <ele>1556.6</ele>
        <time>2023-05-18T09:41:03Z</time>
      </trkpt>
      <trkpt lat="44.63868" lon="5.78657">
        <ele>1556.6</ele>
        <time>2023-05-18T09:41:04Z</time>
      </trkpt>
      <trkpt lat="44.63868" lon="5.78657">
        <ele>1556.8</ele>
        <time>2023-05-18T09:41:05Z</time>
      </trkpt>
      <trkpt lat="44.63868" lon="5.78657">
        <ele>1556.8</ele>
        <time>2023-05-18T09:41:06Z</time>
      </trkpt>
      <trkpt lat="44.63868" lon="5.78657">
        <ele>1557</ele>
        <time>2023-05-18T09:41:07Z</time>
      </trkpt>
      <trkpt lat="44.63868" lon="5.78657">
        <ele>1557.2</ele>
        <time>2023-05-18T09:41:08Z</time>
      </trkpt>
      <trkpt lat="44.63868" lon="5.78657">
        <ele>1557.4</ele>
        <time>2023-05-18T09:41:09Z</time>
      </trkpt>
      <trkpt lat="44.63868" lon="5.78657">
        <ele>1557.6</ele>
        <time>2023-05-18T09:41:11Z</time>
      </trkpt>
      <trkpt lat="44.63868" lon="5.78657">
        <ele>1557.6</ele>
        <time>2023-05-18T09:41:12Z</time>
      </trkpt>
      <trkpt lat="44.63868" lon="5.78657">
        <ele>1557.6</ele>
        <time>2023-05-18T09:41:13Z</time>
      </trkpt>
      <trkpt lat="44.63867" lon="5.78657">
        <ele>1557.8</ele>
        <time>2023-05-18T09:41:14Z</time>
      </trkpt>
      <trkpt lat="44.63868" lon="5.78657">
        <ele>1557.8</ele>
        <time>2023-05-18T09:41:15Z</time>
      </trkpt>
      <trkpt lat="44.63868" lon="5.78657">
        <ele>1557.8</ele>
        <time>2023-05-18T09:41:16Z</time>
      </trkpt>
      <trkpt lat="44.63868" lon="5.78657">
        <ele>1558</ele>
        <time>2023-05-18T09:41:17Z</time>
      </trkpt>
      <trkpt lat="44.63868" lon="5.78657">
        <ele>1558.2</ele>
        <time>2023-05-18T09:41:18Z</time>
      </trkpt>
      <trkpt lat="44.63868" lon="5.78657">
        <ele>1558.2</ele>
        <time>2023-05-18T09:41:19Z</time>
      </trkpt>
      <trkpt lat="44.63868" lon="5.78657">
        <ele>1558.4</ele>
        <time>2023-05-18T09:41:20Z</time>
      </trkpt>
      <trkpt lat="44.63868" lon="5.78657">
        <ele>1558.4</ele>
        <time>2023-05-18T09:41:21Z</time>
      </trkpt>
      <trkpt lat="44.63868" lon="5.78657">
        <ele>1558.6</ele>
        <time>2023-05-18T09:41:23Z</time>
      </trkpt>
      <trkpt lat="44.63868" lon="5.78657">
        <ele>1558.6</ele>
        <time>2023-05-18T09:41:24Z</time>
      </trkpt>
      <trkpt lat="44.63868" lon="5.78657">
        <ele>1558.8</ele>
        <time>2023-05-18T09:41:28Z</time>
      </trkpt>
      <trkpt lat="44.63867" lon="5.78656">
        <ele>1559</ele>
        <time>2023-05-18T09:41:32Z</time>
      </trkpt>
      <trkpt lat="44.63865" lon="5.78654">
        <ele>1559.4</ele>
        <time>2023-05-18T09:41:39Z</time>
      </trkpt>
      <trkpt lat="44.63865" lon="5.78655">
        <ele>1559.4</ele>
        <time>2023-05-18T09:41:40Z</time>
      </trkpt>
      <trkpt lat="44.63862" lon="5.78654">
        <ele>1559.8</ele>
        <time>2023-05-18T09:41:45Z</time>
      </trkpt>
      <trkpt lat="44.63861" lon="5.78655">
        <ele>1560</ele>
        <time>2023-05-18T09:41:46Z</time>
      </trkpt>
      <trkpt lat="44.6386" lon="5.78655">
        <ele>1560</ele>
        <time>2023-05-18T09:41:47Z</time>
      </trkpt>
      <trkpt lat="44.63859" lon="5.78656">
        <ele>1560.2</ele>
        <time>2023-05-18T09:41:48Z</time>
      </trkpt>
      <trkpt lat="44.63858" lon="5.78657">
        <ele>1560.4</ele>
        <time>2023-05-18T09:41:49Z</time>
      </trkpt>
      <trkpt lat="44.63858" lon="5.78657">
        <ele>1560.4</ele>
        <time>2023-05-18T09:41:50Z</time>
      </trkpt>
      <trkpt lat="44.63857" lon="5.78658">
        <ele>1560.6</ele>
        <time>2023-05-18T09:41:51Z</time>
      </trkpt>
      <trkpt lat="44.63856" lon="5.78658">
        <ele>1560.6</ele>
        <time>2023-05-18T09:41:52Z</time>
      </trkpt>
      <trkpt lat="44.63854" lon="5.78658">
        <ele>1560.8</ele>
        <time>2023-05-18T09:41:54Z</time>
      </trkpt>
      <trkpt lat="44.63853" lon="5.78658">
        <ele>1561</ele>
        <time>2023-05-18T09:41:55Z</time>
      </trkpt>
      <trkpt lat="44.63851" lon="5.78658">
        <ele>1561.2</ele>
        <time>2023-05-18T09:41:56Z</time>
      </trkpt>
      <trkpt lat="44.6385" lon="5.78658">
        <ele>1561.4</ele>
        <time>2023-05-18T09:41:58Z</time>
      </trkpt>
      <trkpt lat="44.63849" lon="5.78659">
        <ele>1561.4</ele>
        <time>2023-05-18T09:41:59Z</time>
      </trkpt>
      <trkpt lat="44.63849" lon="5.78658">
        <ele>1561.4</ele>
        <time>2023-05-18T09:42:00Z</time>
      </trkpt>
      <trkpt lat="44.63849" lon="5.78659">
        <ele>1561.6</ele>
        <time>2023-05-18T09:42:01Z</time>
      </trkpt>
      <trkpt lat="44.63848" lon="5.78659">
        <ele>1561.6</ele>
        <time>2023-05-18T09:42:02Z</time>
      </trkpt>
      <trkpt lat="44.63848" lon="5.78659">
        <ele>1561.8</ele>
        <time>2023-05-18T09:42:03Z</time>
      </trkpt>
      <trkpt lat="44.63847" lon="5.7866">
        <ele>1562</ele>
        <time>2023-05-18T09:42:04Z</time>
      </trkpt>
      <trkpt lat="44.63846" lon="5.78661">
        <ele>1562.2</ele>
        <time>2023-05-18T09:42:05Z</time>
      </trkpt>
      <trkpt lat="44.63845" lon="5.78662">
        <ele>1562.2</ele>
        <time>2023-05-18T09:42:06Z</time>
      </trkpt>
      <trkpt lat="44.63845" lon="5.78662">
        <ele>1562.2</ele>
        <time>2023-05-18T09:42:07Z</time>
      </trkpt>
      <trkpt lat="44.63845" lon="5.78663">
        <ele>1562.2</ele>
        <time>2023-05-18T09:42:08Z</time>
      </trkpt>
      <trkpt lat="44.63845" lon="5.78663">
        <ele>1562.2</ele>
        <time>2023-05-18T09:42:09Z</time>
      </trkpt>
      <trkpt lat="44.63845" lon="5.78663">
        <ele>1562.4</ele>
        <time>2023-05-18T09:42:10Z</time>
      </trkpt>
      <trkpt lat="44.63844" lon="5.78665">
        <ele>1562.8</ele>
        <time>2023-05-18T09:42:13Z</time>
      </trkpt>
      <trkpt lat="44.63844" lon="5.78666">
        <ele>1562.8</ele>
        <time>2023-05-18T09:42:14Z</time>
      </trkpt>
      <trkpt lat="44.63844" lon="5.78667">
        <ele>1563</ele>
        <time>2023-05-18T09:42:15Z</time>
      </trkpt>
      <trkpt lat="44.63843" lon="5.78668">
        <ele>1563</ele>
        <time>2023-05-18T09:42:16Z</time>
      </trkpt>
      <trkpt lat="44.63843" lon="5.78669">
        <ele>1563.2</ele>
        <time>2023-05-18T09:42:17Z</time>
      </trkpt>
      <trkpt lat="44.63843" lon="5.7867">
        <ele>1563.2</ele>
        <time>2023-05-18T09:42:18Z</time>
      </trkpt>
      <trkpt lat="44.63842" lon="5.7867">
        <ele>1563.4</ele>
        <time>2023-05-18T09:42:19Z</time>
      </trkpt>
      <trkpt lat="44.63842" lon="5.78671">
        <ele>1563.4</ele>
        <time>2023-05-18T09:42:20Z</time>
      </trkpt>
      <trkpt lat="44.63841" lon="5.78672">
        <ele>1563.6</ele>
        <time>2023-05-18T09:42:21Z</time>
      </trkpt>
      <trkpt lat="44.6384" lon="5.78677">
        <ele>1564</ele>
        <time>2023-05-18T09:42:26Z</time>
      </trkpt>
      <trkpt lat="44.6384" lon="5.78677">
        <ele>1564</ele>
        <time>2023-05-18T09:42:27Z</time>
      </trkpt>
      <trkpt lat="44.6384" lon="5.78679">
        <ele>1564.2</ele>
        <time>2023-05-18T09:42:29Z</time>
      </trkpt>
      <trkpt lat="44.6384" lon="5.78679">
        <ele>1564.4</ele>
        <time>2023-05-18T09:42:30Z</time>
      </trkpt>
      <trkpt lat="44.6384" lon="5.78681">
        <ele>1564.6</ele>
        <time>2023-05-18T09:42:32Z</time>
      </trkpt>
      <trkpt lat="44.6384" lon="5.78682">
        <ele>1564.8</ele>
        <time>2023-05-18T09:42:33Z</time>
      </trkpt>
      <trkpt lat="44.6384" lon="5.78683">
        <ele>1564.8</ele>
        <time>2023-05-18T09:42:35Z</time>
      </trkpt>
      <trkpt lat="44.6384" lon="5.78683">
        <ele>1564.8</ele>
        <time>2023-05-18T09:42:36Z</time>
      </trkpt>
      <trkpt lat="44.6384" lon="5.78688">
        <ele>1565.2</ele>
        <time>2023-05-18T09:42:42Z</time>
      </trkpt>
      <trkpt lat="44.63841" lon="5.7869">
        <ele>1565.2</ele>
        <time>2023-05-18T09:42:44Z</time>
      </trkpt>
      <trkpt lat="44.63841" lon="5.78691">
        <ele>1565.4</ele>
        <time>2023-05-18T09:42:45Z</time>
      </trkpt>
      <trkpt lat="44.63842" lon="5.78692">
        <ele>1565.4</ele>
        <time>2023-05-18T09:42:46Z</time>
      </trkpt>
      <trkpt lat="44.63843" lon="5.78695">
        <ele>1565.4</ele>
        <time>2023-05-18T09:42:47Z</time>
      </trkpt>
      <trkpt lat="44.63843" lon="5.78696">
        <ele>1565.6</ele>
        <time>2023-05-18T09:42:48Z</time>
      </trkpt>
      <trkpt lat="44.63845" lon="5.78702">
        <ele>1566</ele>
        <time>2023-05-18T09:42:54Z</time>
      </trkpt>
      <trkpt lat="44.63845" lon="5.78703">
        <ele>1566</ele>
        <time>2023-05-18T09:42:55Z</time>
      </trkpt>
      <trkpt lat="44.63845" lon="5.78704">
        <ele>1566.2</ele>
        <time>2023-05-18T09:42:56Z</time>
      </trkpt>
      <trkpt lat="44.63845" lon="5.78705">
        <ele>1566.2</ele>
        <time>2023-05-18T09:42:57Z</time>
      </trkpt>
      <trkpt lat="44.63845" lon="5.78705">
        <ele>1566.4</ele>
        <time>2023-05-18T09:42:58Z</time>
      </trkpt>
      <trkpt lat="44.63843" lon="5.78711">
        <ele>1566.8</ele>
        <time>2023-05-18T09:43:02Z</time>
      </trkpt>
      <trkpt lat="44.63842" lon="5.78712">
        <ele>1566.8</ele>
        <time>2023-05-18T09:43:03Z</time>
      </trkpt>
      <trkpt lat="44.63842" lon="5.78713">
        <ele>1567</ele>
        <time>2023-05-18T09:43:04Z</time>
      </trkpt>
      <trkpt lat="44.6384" lon="5.78715">
        <ele>1567.2</ele>
        <time>2023-05-18T09:43:06Z</time>
      </trkpt>
      <trkpt lat="44.6384" lon="5.78716">
        <ele>1567.4</ele>
        <time>2023-05-18T09:43:08Z</time>
      </trkpt>
      <trkpt lat="44.6384" lon="5.78716">
        <ele>1567.6</ele>
        <time>2023-05-18T09:43:09Z</time>
      </trkpt>
      <trkpt lat="44.6384" lon="5.78717">
        <ele>1567.6</ele>
        <time>2023-05-18T09:43:10Z</time>
      </trkpt>
      <trkpt lat="44.63839" lon="5.78717">
        <ele>1567.8</ele>
        <time>2023-05-18T09:43:11Z</time>
      </trkpt>
      <trkpt lat="44.63838" lon="5.78717">
        <ele>1567.8</ele>
        <time>2023-05-18T09:43:12Z</time>
      </trkpt>
      <trkpt lat="44.63838" lon="5.78717">
        <ele>1568</ele>
        <time>2023-05-18T09:43:13Z</time>
      </trkpt>
      <trkpt lat="44.63838" lon="5.78718">
        <ele>1568</ele>
        <time>2023-05-18T09:43:14Z</time>
      </trkpt>
      <trkpt lat="44.63837" lon="5.78718">
        <ele>1568.2</ele>
        <time>2023-05-18T09:43:15Z</time>
      </trkpt>
      <trkpt lat="44.63837" lon="5.78719">
        <ele>1568.2</ele>
        <time>2023-05-18T09:43:16Z</time>
      </trkpt>
      <trkpt lat="44.63835" lon="5.78719">
        <ele>1568.4</ele>
        <time>2023-05-18T09:43:18Z</time>
      </trkpt>
      <trkpt lat="44.63835" lon="5.78719">
        <ele>1568.4</ele>
        <time>2023-05-18T09:43:20Z</time>
      </trkpt>
      <trkpt lat="44.63834" lon="5.78717">
        <ele>1568.4</ele>
        <time>2023-05-18T09:43:22Z</time>
      </trkpt>
      <trkpt lat="44.63832" lon="5.78715">
        <ele>1568.6</ele>
        <time>2023-05-18T09:43:25Z</time>
      </trkpt>
      <trkpt lat="44.63831" lon="5.78715">
        <ele>1568.8</ele>
        <time>2023-05-18T09:43:27Z</time>
      </trkpt>
      <trkpt lat="44.63831" lon="5.78715">
        <ele>1568.8</ele>
        <time>2023-05-18T09:43:28Z</time>
      </trkpt>
      <trkpt lat="44.6383" lon="5.78714">
        <ele>1569.4</ele>
        <time>2023-05-18T09:43:32Z</time>
      </trkpt>
      <trkpt lat="44.63829" lon="5.78713">
        <ele>1569.6</ele>
        <time>2023-05-18T09:43:33Z</time>
      </trkpt>
      <trkpt lat="44.63826" lon="5.7871">
        <ele>1569.8</ele>
        <time>2023-05-18T09:43:39Z</time>
      </trkpt>
      <trkpt lat="44.63826" lon="5.7871">
        <ele>1570</ele>
        <time>2023-05-18T09:43:40Z</time>
      </trkpt>
      <trkpt lat="44.63825" lon="5.78709">
        <ele>1570.4</ele>
        <time>2023-05-18T09:43:49Z</time>
      </trkpt>
      <trkpt lat="44.63822" lon="5.78709">
        <ele>1570.6</ele>
        <time>2023-05-18T09:43:56Z</time>
      </trkpt>
      <trkpt lat="44.63821" lon="5.78709">
        <ele>1570.8</ele>
        <time>2023-05-18T09:44:00Z</time>
      </trkpt>
      <trkpt lat="44.63821" lon="5.78709">
        <ele>1571.4</ele>
        <time>2023-05-18T09:44:03Z</time>
      </trkpt>
      <trkpt lat="44.63818" lon="5.78711">
        <ele>1571.8</ele>
        <time>2023-05-18T09:44:09Z</time>
      </trkpt>
      <trkpt lat="44.63815" lon="5.78713">
        <ele>1571.8</ele>
        <time>2023-05-18T09:44:12Z</time>
      </trkpt>
      <trkpt lat="44.63815" lon="5.78713">
        <ele>1571.8</ele>
        <time>2023-05-18T09:44:15Z</time>
      </trkpt>
      <trkpt lat="44.63815" lon="5.78713">
        <ele>1571.8</ele>
        <time>2023-05-18T09:44:20Z</time>
      </trkpt>
      <trkpt lat="44.63815" lon="5.78713">
        <ele>1572.2</ele>
        <time>2023-05-18T09:44:41Z</time>
      </trkpt>
      <trkpt lat="44.63815" lon="5.78713">
        <ele>1572.2</ele>
        <time>2023-05-18T09:45:00Z</time>
      </trkpt>
      <trkpt lat="44.63815" lon="5.78713">
        <ele>1572.4</ele>
        <time>2023-05-18T09:45:39Z</time>
      </trkpt>
      <trkpt lat="44.63815" lon="5.78713">
        <ele>1572.2</ele>
        <time>2023-05-18T09:46:20Z</time>
      </trkpt>
      <trkpt lat="44.63815" lon="5.78713">
        <ele>1572</ele>
        <time>2023-05-18T09:46:36Z</time>
      </trkpt>
      <trkpt lat="44.63814" lon="5.78713">
        <ele>1572</ele>
        <time>2023-05-18T09:46:49Z</time>
      </trkpt>
      <trkpt lat="44.63814" lon="5.78713">
        <ele>1572.8</ele>
        <time>2023-05-18T09:46:58Z</time>
      </trkpt>
      <trkpt lat="44.63813" lon="5.78708">
        <ele>1573.2</ele>
        <time>2023-05-18T09:47:03Z</time>
      </trkpt>
      <trkpt lat="44.63813" lon="5.78708">
        <ele>1573.2</ele>
        <time>2023-05-18T09:47:04Z</time>
      </trkpt>
      <trkpt lat="44.63813" lon="5.78708">
        <ele>1573.2</ele>
        <time>2023-05-18T09:47:05Z</time>
      </trkpt>
      <trkpt lat="44.63813" lon="5.78708">
        <ele>1573.4</ele>
        <time>2023-05-18T09:47:06Z</time>
      </trkpt>
      <trkpt lat="44.63812" lon="5.78707">
        <ele>1573.4</ele>
        <time>2023-05-18T09:47:08Z</time>
      </trkpt>
      <trkpt lat="44.63812" lon="5.78707">
        <ele>1573.4</ele>
        <time>2023-05-18T09:47:09Z</time>
      </trkpt>
      <trkpt lat="44.63812" lon="5.78707">
        <ele>1573.8</ele>
        <time>2023-05-18T09:47:12Z</time>
      </trkpt>
      <trkpt lat="44.63811" lon="5.78704">
        <ele>1574.2</ele>
        <time>2023-05-18T09:47:16Z</time>
      </trkpt>
      <trkpt lat="44.63811" lon="5.787">
        <ele>1574.2</ele>
        <time>2023-05-18T09:47:19Z</time>
      </trkpt>
      <trkpt lat="44.63811" lon="5.78698">
        <ele>1574.4</ele>
        <time>2023-05-18T09:47:22Z</time>
      </trkpt>
      <trkpt lat="44.6381" lon="5.78695">
        <ele>1574.4</ele>
        <time>2023-05-18T09:47:24Z</time>
      </trkpt>
      <trkpt lat="44.6381" lon="5.78694">
        <ele>1574.6</ele>
        <time>2023-05-18T09:47:25Z</time>
      </trkpt>
      <trkpt lat="44.63807" lon="5.78693">
        <ele>1574.8</ele>
        <time>2023-05-18T09:47:27Z</time>
      </trkpt>
      <trkpt lat="44.63806" lon="5.78693">
        <ele>1574.8</ele>
        <time>2023-05-18T09:47:28Z</time>
      </trkpt>
      <trkpt lat="44.63806" lon="5.78692">
        <ele>1575.2</ele>
        <time>2023-05-18T09:47:29Z</time>
      </trkpt>
      <trkpt lat="44.63805" lon="5.78691">
        <ele>1575.4</ele>
        <time>2023-05-18T09:47:30Z</time>
      </trkpt>
      <trkpt lat="44.63805" lon="5.78691">
        <ele>1575.6</ele>
        <time>2023-05-18T09:47:31Z</time>
      </trkpt>
      <trkpt lat="44.63804" lon="5.7869">
        <ele>1576</ele>
        <time>2023-05-18T09:47:32Z</time>
      </trkpt>
      <trkpt lat="44.63803" lon="5.78691">
        <ele>1576.2</ele>
        <time>2023-05-18T09:47:33Z</time>
      </trkpt>
      <trkpt lat="44.63803" lon="5.78689">
        <ele>1576.2</ele>
        <time>2023-05-18T09:47:35Z</time>
      </trkpt>
      <trkpt lat="44.63803" lon="5.78689">
        <ele>1576.4</ele>
        <time>2023-05-18T09:47:38Z</time>
      </trkpt>
      <trkpt lat="44.63803" lon="5.78689">
        <ele>1576.6</ele>
        <time>2023-05-18T09:47:39Z</time>
      </trkpt>
      <trkpt lat="44.63803" lon="5.78689">
        <ele>1576.8</ele>
        <time>2023-05-18T09:47:43Z</time>
      </trkpt>
      <trkpt lat="44.63801" lon="5.78689">
        <ele>1576.8</ele>
        <time>2023-05-18T09:47:46Z</time>
      </trkpt>
      <trkpt lat="44.63801" lon="5.78688">
        <ele>1576.8</ele>
        <time>2023-05-18T09:47:49Z</time>
      </trkpt>
      <trkpt lat="44.63801" lon="5.78688">
        <ele>1576.8</ele>
        <time>2023-05-18T09:47:50Z</time>
      </trkpt>
      <trkpt lat="44.638" lon="5.78687">
        <ele>1576.8</ele>
        <time>2023-05-18T09:47:52Z</time>
      </trkpt>
      <trkpt lat="44.63799" lon="5.78686">
        <ele>1577</ele>
        <time>2023-05-18T09:47:53Z</time>
      </trkpt>
      <trkpt lat="44.63796" lon="5.78682">
        <ele>1577.2</ele>
        <time>2023-05-18T09:47:58Z</time>
      </trkpt>
      <trkpt lat="44.63795" lon="5.78681">
        <ele>1577.6</ele>
        <time>2023-05-18T09:48:01Z</time>
      </trkpt>
      <trkpt lat="44.63795" lon="5.7868">
        <ele>1578.4</ele>
        <time>2023-05-18T09:48:06Z</time>
      </trkpt>
      <trkpt lat="44.63794" lon="5.78679">
        <ele>1578.6</ele>
        <time>2023-05-18T09:48:08Z</time>
      </trkpt>
      <trkpt lat="44.63794" lon="5.78674">
        <ele>1579.2</ele>
        <time>2023-05-18T09:48:12Z</time>
      </trkpt>
      <trkpt lat="44.63794" lon="5.78673">
        <ele>1579.4</ele>
        <time>2023-05-18T09:48:13Z</time>
      </trkpt>
      <trkpt lat="44.63794" lon="5.78672">
        <ele>1579.4</ele>
        <time>2023-05-18T09:48:14Z</time>
      </trkpt>
      <trkpt lat="44.63794" lon="5.78671">
        <ele>1579.6</ele>
        <time>2023-05-18T09:48:16Z</time>
      </trkpt>
      <trkpt lat="44.63794" lon="5.7867">
        <ele>1579.6</ele>
        <time>2023-05-18T09:48:17Z</time>
      </trkpt>
      <trkpt lat="44.63795" lon="5.78669">
        <ele>1579.6</ele>
        <time>2023-05-18T09:48:18Z</time>
      </trkpt>
      <trkpt lat="44.63795" lon="5.78668">
        <ele>1579.8</ele>
        <time>2023-05-18T09:48:19Z</time>
      </trkpt>
      <trkpt lat="44.63795" lon="5.78667">
        <ele>1579.8</ele>
        <time>2023-05-18T09:48:20Z</time>
      </trkpt>
      <trkpt lat="44.63795" lon="5.78667">
        <ele>1579.8</ele>
        <time>2023-05-18T09:48:21Z</time>
      </trkpt>
      <trkpt lat="44.63795" lon="5.78667">
        <ele>1579.8</ele>
        <time>2023-05-18T09:48:22Z</time>
      </trkpt>
      <trkpt lat="44.63795" lon="5.78667">
        <ele>1580</ele>
        <time>2023-05-18T09:48:25Z</time>
      </trkpt>
      <trkpt lat="44.63795" lon="5.78666">
        <ele>1580.8</ele>
        <time>2023-05-18T09:48:33Z</time>
      </trkpt>
      <trkpt lat="44.63794" lon="5.78666">
        <ele>1580.8</ele>
        <time>2023-05-18T09:48:36Z</time>
      </trkpt>
      <trkpt lat="44.63793" lon="5.7866">
        <ele>1581</ele>
        <time>2023-05-18T09:48:42Z</time>
      </trkpt>
      <trkpt lat="44.63792" lon="5.78659">
        <ele>1581.2</ele>
        <time>2023-05-18T09:48:43Z</time>
      </trkpt>
      <trkpt lat="44.63792" lon="5.78658">
        <ele>1581.4</ele>
        <time>2023-05-18T09:48:46Z</time>
      </trkpt>
      <trkpt lat="44.63792" lon="5.78658">
        <ele>1581.6</ele>
        <time>2023-05-18T09:48:49Z</time>
      </trkpt>
      <trkpt lat="44.63792" lon="5.78658">
        <ele>1581.8</ele>
        <time>2023-05-18T09:48:53Z</time>
      </trkpt>
      <trkpt lat="44.63792" lon="5.78658">
        <ele>1582.4</ele>
        <time>2023-05-18T09:49:01Z</time>
      </trkpt>
      <trkpt lat="44.63792" lon="5.78658">
        <ele>1582.8</ele>
        <time>2023-05-18T09:49:05Z</time>
      </trkpt>
      <trkpt lat="44.63791" lon="5.78655">
        <ele>1583.4</ele>
        <time>2023-05-18T09:49:11Z</time>
      </trkpt>
      <trkpt lat="44.63791" lon="5.78655">
        <ele>1583.4</ele>
        <time>2023-05-18T09:49:12Z</time>
      </trkpt>
      <trkpt lat="44.63791" lon="5.78655">
        <ele>1583.6</ele>
        <time>2023-05-18T09:49:13Z</time>
      </trkpt>
      <trkpt lat="44.63791" lon="5.78655">
        <ele>1583.6</ele>
        <time>2023-05-18T09:49:14Z</time>
      </trkpt>
      <trkpt lat="44.63791" lon="5.78655">
        <ele>1584</ele>
        <time>2023-05-18T09:49:16Z</time>
      </trkpt>
      <trkpt lat="44.63791" lon="5.78655">
        <ele>1584.2</ele>
        <time>2023-05-18T09:49:21Z</time>
      </trkpt>
      <trkpt lat="44.63791" lon="5.78655">
        <ele>1584.8</ele>
        <time>2023-05-18T09:49:40Z</time>
      </trkpt>
      <trkpt lat="44.63791" lon="5.78655">
        <ele>1584.2</ele>
        <time>2023-05-18T09:49:51Z</time>
      </trkpt>
      <trkpt lat="44.63791" lon="5.78655">
        <ele>1584.2</ele>
        <time>2023-05-18T09:49:52Z</time>
      </trkpt>
      <trkpt lat="44.63792" lon="5.78653">
        <ele>1584.2</ele>
        <time>2023-05-18T09:50:01Z</time>
      </trkpt>
      <trkpt lat="44.63792" lon="5.78652">
        <ele>1584.2</ele>
        <time>2023-05-18T09:50:02Z</time>
      </trkpt>
      <trkpt lat="44.63792" lon="5.78651">
        <ele>1584.4</ele>
        <time>2023-05-18T09:50:03Z</time>
      </trkpt>
      <trkpt lat="44.63791" lon="5.78649">
        <ele>1584.6</ele>
        <time>2023-05-18T09:50:04Z</time>
      </trkpt>
      <trkpt lat="44.63791" lon="5.78648">
        <ele>1584.6</ele>
        <time>2023-05-18T09:50:05Z</time>
      </trkpt>
      <trkpt lat="44.6379" lon="5.78648">
        <ele>1584.6</ele>
        <time>2023-05-18T09:50:06Z</time>
      </trkpt>
      <trkpt lat="44.6379" lon="5.78648">
        <ele>1584.8</ele>
        <time>2023-05-18T09:50:07Z</time>
      </trkpt>
      <trkpt lat="44.6379" lon="5.78648">
        <ele>1584.8</ele>
        <time>2023-05-18T09:50:08Z</time>
      </trkpt>
      <trkpt lat="44.6379" lon="5.78648">
        <ele>1585</ele>
        <time>2023-05-18T09:50:11Z</time>
      </trkpt>
      <trkpt lat="44.6379" lon="5.78648">
        <ele>1585.2</ele>
        <time>2023-05-18T09:50:12Z</time>
      </trkpt>
      <trkpt lat="44.6379" lon="5.78648">
        <ele>1585.2</ele>
        <time>2023-05-18T09:50:13Z</time>
      </trkpt>
      <trkpt lat="44.6379" lon="5.78648">
        <ele>1585.4</ele>
        <time>2023-05-18T09:50:14Z</time>
      </trkpt>
      <trkpt lat="44.6379" lon="5.78648">
        <ele>1586.2</ele>
        <time>2023-05-18T09:50:18Z</time>
      </trkpt>
      <trkpt lat="44.63789" lon="5.78647">
        <ele>1587.4</ele>
        <time>2023-05-18T09:50:22Z</time>
      </trkpt>
      <trkpt lat="44.63786" lon="5.78646">
        <ele>1587.8</ele>
        <time>2023-05-18T09:50:25Z</time>
      </trkpt>
      <trkpt lat="44.63785" lon="5.78646">
        <ele>1587.8</ele>
        <time>2023-05-18T09:50:26Z</time>
      </trkpt>
      <trkpt lat="44.63784" lon="5.78646">
        <ele>1588</ele>
        <time>2023-05-18T09:50:27Z</time>
      </trkpt>
      <trkpt lat="44.63784" lon="5.78646">
        <ele>1588</ele>
        <time>2023-05-18T09:50:28Z</time>
      </trkpt>
      <trkpt lat="44.63783" lon="5.78646">
        <ele>1588.2</ele>
        <time>2023-05-18T09:50:29Z</time>
      </trkpt>
      <trkpt lat="44.63782" lon="5.78646">
        <ele>1588.2</ele>
        <time>2023-05-18T09:50:30Z</time>
      </trkpt>
      <trkpt lat="44.63782" lon="5.78647">
        <ele>1588.2</ele>
        <time>2023-05-18T09:50:31Z</time>
      </trkpt>
      <trkpt lat="44.63781" lon="5.78646">
        <ele>1588.2</ele>
        <time>2023-05-18T09:50:32Z</time>
      </trkpt>
      <trkpt lat="44.6378" lon="5.78646">
        <ele>1588.4</ele>
        <time>2023-05-18T09:50:33Z</time>
      </trkpt>
      <trkpt lat="44.63779" lon="5.78646">
        <ele>1588.4</ele>
        <time>2023-05-18T09:50:34Z</time>
      </trkpt>
      <trkpt lat="44.63778" lon="5.78646">
        <ele>1588.4</ele>
        <time>2023-05-18T09:50:35Z</time>
      </trkpt>
      <trkpt lat="44.63778" lon="5.78646">
        <ele>1588.6</ele>
        <time>2023-05-18T09:50:36Z</time>
      </trkpt>
      <trkpt lat="44.63778" lon="5.78646">
        <ele>1588.6</ele>
        <time>2023-05-18T09:50:37Z</time>
      </trkpt>
      <trkpt lat="44.63777" lon="5.78646">
        <ele>1588.6</ele>
        <time>2023-05-18T09:50:38Z</time>
      </trkpt>
      <trkpt lat="44.63777" lon="5.78645">
        <ele>1588.8</ele>
        <time>2023-05-18T09:50:39Z</time>
      </trkpt>
      <trkpt lat="44.63777" lon="5.78645">
        <ele>1588.8</ele>
        <time>2023-05-18T09:50:40Z</time>
      </trkpt>
      <trkpt lat="44.63777" lon="5.78645">
        <ele>1588.8</ele>
        <time>2023-05-18T09:50:41Z</time>
      </trkpt>
      <trkpt lat="44.63776" lon="5.78645">
        <ele>1589</ele>
        <time>2023-05-18T09:50:42Z</time>
      </trkpt>
      <trkpt lat="44.63776" lon="5.78645">
        <ele>1589.4</ele>
        <time>2023-05-18T09:50:46Z</time>
      </trkpt>
      <trkpt lat="44.63776" lon="5.78645">
        <ele>1589.6</ele>
        <time>2023-05-18T09:50:47Z</time>
      </trkpt>
      <trkpt lat="44.63776" lon="5.78644">
        <ele>1590</ele>
        <time>2023-05-18T09:50:50Z</time>
      </trkpt>
      <trkpt lat="44.63776" lon="5.78644">
        <ele>1590.8</ele>
        <time>2023-05-18T09:50:56Z</time>
      </trkpt>
      <trkpt lat="44.63776" lon="5.78642">
        <ele>1591</ele>
        <time>2023-05-18T09:51:01Z</time>
      </trkpt>
      <trkpt lat="44.63776" lon="5.78641">
        <ele>1591.6</ele>
        <time>2023-05-18T09:51:08Z</time>
      </trkpt>
      <trkpt lat="44.63776" lon="5.78641">
        <ele>1591.8</ele>
        <time>2023-05-18T09:51:11Z</time>
      </trkpt>
      <trkpt lat="44.63776" lon="5.78641">
        <ele>1592.2</ele>
        <time>2023-05-18T09:51:14Z</time>
      </trkpt>
      <trkpt lat="44.63776" lon="5.7864">
        <ele>1593</ele>
        <time>2023-05-18T09:51:23Z</time>
      </trkpt>
      <trkpt lat="44.63776" lon="5.7864">
        <ele>1593.2</ele>
        <time>2023-05-18T09:51:25Z</time>
      </trkpt>
      <trkpt lat="44.63775" lon="5.78641">
        <ele>1594.2</ele>
        <time>2023-05-18T09:51:32Z</time>
      </trkpt>
      <trkpt lat="44.63775" lon="5.7864">
        <ele>1595</ele>
        <time>2023-05-18T09:51:42Z</time>
      </trkpt>
      <trkpt lat="44.63775" lon="5.7864">
        <ele>1595.2</ele>
        <time>2023-05-18T09:51:44Z</time>
      </trkpt>
      <trkpt lat="44.63775" lon="5.7864">
        <ele>1596</ele>
        <time>2023-05-18T09:51:51Z</time>
      </trkpt>
      <trkpt lat="44.63775" lon="5.7864">
        <ele>1596.2</ele>
        <time>2023-05-18T09:51:53Z</time>
      </trkpt>
      <trkpt lat="44.63775" lon="5.7864">
        <ele>1597</ele>
        <time>2023-05-18T09:51:57Z</time>
      </trkpt>
      <trkpt lat="44.63775" lon="5.7864">
        <ele>1597</ele>
        <time>2023-05-18T09:51:58Z</time>
      </trkpt>
      <trkpt lat="44.63775" lon="5.78639">
        <ele>1597.2</ele>
        <time>2023-05-18T09:51:59Z</time>
      </trkpt>
      <trkpt lat="44.63775" lon="5.78637">
        <ele>1597.4</ele>
        <time>2023-05-18T09:52:01Z</time>
      </trkpt>
      <trkpt lat="44.63775" lon="5.78637">
        <ele>1597.6</ele>
        <time>2023-05-18T09:52:02Z</time>
      </trkpt>
      <trkpt lat="44.63775" lon="5.78636">
        <ele>1597.6</ele>
        <time>2023-05-18T09:52:03Z</time>
      </trkpt>
      <trkpt lat="44.63774" lon="5.78636">
        <ele>1597.8</ele>
        <time>2023-05-18T09:52:04Z</time>
      </trkpt>
      <trkpt lat="44.63773" lon="5.78634">
        <ele>1598</ele>
        <time>2023-05-18T09:52:06Z</time>
      </trkpt>
      <trkpt lat="44.63773" lon="5.78634">
        <ele>1598</ele>
        <time>2023-05-18T09:52:07Z</time>
      </trkpt>
      <trkpt lat="44.63773" lon="5.78634">
        <ele>1598.2</ele>
        <time>2023-05-18T09:52:08Z</time>
      </trkpt>
      <trkpt lat="44.63773" lon="5.78634">
        <ele>1598.2</ele>
        <time>2023-05-18T09:52:09Z</time>
      </trkpt>
      <trkpt lat="44.63772" lon="5.78631">
        <ele>1598.6</ele>
        <time>2023-05-18T09:52:12Z</time>
      </trkpt>
      <trkpt lat="44.63772" lon="5.7863">
        <ele>1599.6</ele>
        <time>2023-05-18T09:52:18Z</time>
      </trkpt>
      <trkpt lat="44.63771" lon="5.78629">
        <ele>1599.8</ele>
        <time>2023-05-18T09:52:21Z</time>
      </trkpt>
      <trkpt lat="44.63771" lon="5.78629">
        <ele>1600</ele>
        <time>2023-05-18T09:52:23Z</time>
      </trkpt>
      <trkpt lat="44.63771" lon="5.78629">
        <ele>1600.2</ele>
        <time>2023-05-18T09:52:25Z</time>
      </trkpt>
      <trkpt lat="44.63771" lon="5.78629">
        <ele>1600.2</ele>
        <time>2023-05-18T09:52:26Z</time>
      </trkpt>
      <trkpt lat="44.63771" lon="5.78629">
        <ele>1600.4</ele>
        <time>2023-05-18T09:52:27Z</time>
      </trkpt>
      <trkpt lat="44.63771" lon="5.78629">
        <ele>1600.4</ele>
        <time>2023-05-18T09:52:28Z</time>
      </trkpt>
      <trkpt lat="44.6377" lon="5.78628">
        <ele>1600.6</ele>
        <time>2023-05-18T09:52:29Z</time>
      </trkpt>
      <trkpt lat="44.63769" lon="5.78628">
        <ele>1600.6</ele>
        <time>2023-05-18T09:52:30Z</time>
      </trkpt>
      <trkpt lat="44.63769" lon="5.78627">
        <ele>1600.8</ele>
        <time>2023-05-18T09:52:31Z</time>
      </trkpt>
      <trkpt lat="44.63769" lon="5.78628">
        <ele>1600.8</ele>
        <time>2023-05-18T09:52:32Z</time>
      </trkpt>
      <trkpt lat="44.63768" lon="5.78627">
        <ele>1601</ele>
        <time>2023-05-18T09:52:33Z</time>
      </trkpt>
      <trkpt lat="44.63767" lon="5.78627">
        <ele>1601.2</ele>
        <time>2023-05-18T09:52:34Z</time>
      </trkpt>
      <trkpt lat="44.63765" lon="5.78626">
        <ele>1601.2</ele>
        <time>2023-05-18T09:52:35Z</time>
      </trkpt>
      <trkpt lat="44.63765" lon="5.78627">
        <ele>1601.2</ele>
        <time>2023-05-18T09:52:36Z</time>
      </trkpt>
      <trkpt lat="44.63765" lon="5.78627">
        <ele>1601.2</ele>
        <time>2023-05-18T09:52:37Z</time>
      </trkpt>
      <trkpt lat="44.63764" lon="5.78626">
        <ele>1601.4</ele>
        <time>2023-05-18T09:52:38Z</time>
      </trkpt>
      <trkpt lat="44.63763" lon="5.78625">
        <ele>1601.4</ele>
        <time>2023-05-18T09:52:39Z</time>
      </trkpt>
      <trkpt lat="44.63762" lon="5.78624">
        <ele>1601.4</ele>
        <time>2023-05-18T09:52:40Z</time>
      </trkpt>
      <trkpt lat="44.63761" lon="5.78624">
        <ele>1601.6</ele>
        <time>2023-05-18T09:52:41Z</time>
      </trkpt>
      <trkpt lat="44.63761" lon="5.78624">
        <ele>1601.6</ele>
        <time>2023-05-18T09:52:42Z</time>
      </trkpt>
      <trkpt lat="44.63761" lon="5.78624">
        <ele>1601.8</ele>
        <time>2023-05-18T09:52:43Z</time>
      </trkpt>
      <trkpt lat="44.63761" lon="5.78624">
        <ele>1601.8</ele>
        <time>2023-05-18T09:52:44Z</time>
      </trkpt>
      <trkpt lat="44.6376" lon="5.78624">
        <ele>1601.8</ele>
        <time>2023-05-18T09:52:45Z</time>
      </trkpt>
      <trkpt lat="44.6376" lon="5.78624">
        <ele>1601.8</ele>
        <time>2023-05-18T09:52:46Z</time>
      </trkpt>
      <trkpt lat="44.6376" lon="5.78624">
        <ele>1602</ele>
        <time>2023-05-18T09:52:47Z</time>
      </trkpt>
      <trkpt lat="44.63759" lon="5.78624">
        <ele>1602</ele>
        <time>2023-05-18T09:52:48Z</time>
      </trkpt>
      <trkpt lat="44.63759" lon="5.78624">
        <ele>1602.4</ele>
        <time>2023-05-18T09:52:49Z</time>
      </trkpt>
      <trkpt lat="44.63759" lon="5.78624">
        <ele>1602.4</ele>
        <time>2023-05-18T09:52:50Z</time>
      </trkpt>
      <trkpt lat="44.63758" lon="5.78624">
        <ele>1602.6</ele>
        <time>2023-05-18T09:52:51Z</time>
      </trkpt>
      <trkpt lat="44.63756" lon="5.78624">
        <ele>1602.8</ele>
        <time>2023-05-18T09:52:52Z</time>
      </trkpt>
      <trkpt lat="44.63756" lon="5.78624">
        <ele>1603</ele>
        <time>2023-05-18T09:52:54Z</time>
      </trkpt>
      <trkpt lat="44.63756" lon="5.78624">
        <ele>1603.2</ele>
        <time>2023-05-18T09:52:55Z</time>
      </trkpt>
      <trkpt lat="44.63756" lon="5.78624">
        <ele>1603.2</ele>
        <time>2023-05-18T09:52:56Z</time>
      </trkpt>
      <trkpt lat="44.63756" lon="5.78624">
        <ele>1603.4</ele>
        <time>2023-05-18T09:52:58Z</time>
      </trkpt>
      <trkpt lat="44.63755" lon="5.78622">
        <ele>1603.8</ele>
        <time>2023-05-18T09:53:05Z</time>
      </trkpt>
      <trkpt lat="44.63755" lon="5.78622">
        <ele>1603.8</ele>
        <time>2023-05-18T09:53:07Z</time>
      </trkpt>
      <trkpt lat="44.63755" lon="5.78621">
        <ele>1604</ele>
        <time>2023-05-18T09:53:08Z</time>
      </trkpt>
      <trkpt lat="44.63755" lon="5.78621">
        <ele>1604.2</ele>
        <time>2023-05-18T09:53:09Z</time>
      </trkpt>
      <trkpt lat="44.63755" lon="5.78621">
        <ele>1604.8</ele>
        <time>2023-05-18T09:53:14Z</time>
      </trkpt>
      <trkpt lat="44.63755" lon="5.78621">
        <ele>1605.4</ele>
        <time>2023-05-18T09:53:18Z</time>
      </trkpt>
      <trkpt lat="44.63755" lon="5.78621">
        <ele>1606</ele>
        <time>2023-05-18T09:53:24Z</time>
      </trkpt>
      <trkpt lat="44.63755" lon="5.78621">
        <ele>1606</ele>
        <time>2023-05-18T09:53:25Z</time>
      </trkpt>
      <trkpt lat="44.63753" lon="5.7862">
        <ele>1606.4</ele>
        <time>2023-05-18T09:53:28Z</time>
      </trkpt>
      <trkpt lat="44.63753" lon="5.78619">
        <ele>1606.8</ele>
        <time>2023-05-18T09:53:31Z</time>
      </trkpt>
      <trkpt lat="44.63752" lon="5.78618">
        <ele>1607</ele>
        <time>2023-05-18T09:53:33Z</time>
      </trkpt>
      <trkpt lat="44.63752" lon="5.78616">
        <ele>1607.6</ele>
        <time>2023-05-18T09:53:38Z</time>
      </trkpt>
      <trkpt lat="44.63751" lon="5.78614">
        <ele>1608</ele>
        <time>2023-05-18T09:53:41Z</time>
      </trkpt>
      <trkpt lat="44.63751" lon="5.78614">
        <ele>1608.6</ele>
        <time>2023-05-18T09:53:45Z</time>
      </trkpt>
      <trkpt lat="44.63751" lon="5.78614">
        <ele>1608.8</ele>
        <time>2023-05-18T09:53:46Z</time>
      </trkpt>
      <trkpt lat="44.63751" lon="5.78614">
        <ele>1610</ele>
        <time>2023-05-18T09:53:57Z</time>
      </trkpt>
      <trkpt lat="44.63751" lon="5.78614">
        <ele>1610.4</ele>
        <time>2023-05-18T09:54:02Z</time>
      </trkpt>
      <trkpt lat="44.63751" lon="5.78613">
        <ele>1610.6</ele>
        <time>2023-05-18T09:54:03Z</time>
      </trkpt>
      <trkpt lat="44.63752" lon="5.78612">
        <ele>1610.6</ele>
        <time>2023-05-18T09:54:04Z</time>
      </trkpt>
      <trkpt lat="44.63752" lon="5.78611">
        <ele>1610.8</ele>
        <time>2023-05-18T09:54:05Z</time>
      </trkpt>
      <trkpt lat="44.63752" lon="5.7861">
        <ele>1611</ele>
        <time>2023-05-18T09:54:06Z</time>
      </trkpt>
      <trkpt lat="44.63752" lon="5.7861">
        <ele>1611</ele>
        <time>2023-05-18T09:54:07Z</time>
      </trkpt>
      <trkpt lat="44.63752" lon="5.78609">
        <ele>1611.2</ele>
        <time>2023-05-18T09:54:08Z</time>
      </trkpt>
      <trkpt lat="44.63752" lon="5.78609">
        <ele>1611.2</ele>
        <time>2023-05-18T09:54:09Z</time>
      </trkpt>
      <trkpt lat="44.63752" lon="5.78609">
        <ele>1611.4</ele>
        <time>2023-05-18T09:54:10Z</time>
      </trkpt>
      <trkpt lat="44.63752" lon="5.78609">
        <ele>1611.6</ele>
        <time>2023-05-18T09:54:11Z</time>
      </trkpt>
      <trkpt lat="44.63752" lon="5.78609">
        <ele>1611.6</ele>
        <time>2023-05-18T09:54:12Z</time>
      </trkpt>
      <trkpt lat="44.63752" lon="5.78609">
        <ele>1612.2</ele>
        <time>2023-05-18T09:54:15Z</time>
      </trkpt>
      <trkpt lat="44.63752" lon="5.78609">
        <ele>1612.2</ele>
        <time>2023-05-18T09:54:16Z</time>
      </trkpt>
      <trkpt lat="44.63752" lon="5.78609">
        <ele>1612.4</ele>
        <time>2023-05-18T09:54:17Z</time>
      </trkpt>
      <trkpt lat="44.63752" lon="5.78609">
        <ele>1612.6</ele>
        <time>2023-05-18T09:54:18Z</time>
      </trkpt>
      <trkpt lat="44.63752" lon="5.78609">
        <ele>1612.6</ele>
        <time>2023-05-18T09:54:19Z</time>
      </trkpt>
      <trkpt lat="44.63752" lon="5.78609">
        <ele>1612.8</ele>
        <time>2023-05-18T09:54:20Z</time>
      </trkpt>
      <trkpt lat="44.63752" lon="5.78609">
        <ele>1613.4</ele>
        <time>2023-05-18T09:54:26Z</time>
      </trkpt>
      <trkpt lat="44.63752" lon="5.78609">
        <ele>1614</ele>
        <time>2023-05-18T09:54:30Z</time>
      </trkpt>
      <trkpt lat="44.63751" lon="5.78607">
        <ele>1614.4</ele>
        <time>2023-05-18T09:54:35Z</time>
      </trkpt>
      <trkpt lat="44.63749" lon="5.78604">
        <ele>1614.4</ele>
        <time>2023-05-18T09:54:37Z</time>
      </trkpt>
      <trkpt lat="44.63747" lon="5.78601">
        <ele>1614.6</ele>
        <time>2023-05-18T09:54:39Z</time>
      </trkpt>
      <trkpt lat="44.63746" lon="5.786">
        <ele>1614.6</ele>
        <time>2023-05-18T09:54:40Z</time>
      </trkpt>
      <trkpt lat="44.63745" lon="5.78599">
        <ele>1614.6</ele>
        <time>2023-05-18T09:54:41Z</time>
      </trkpt>
      <trkpt lat="44.63744" lon="5.78596">
        <ele>1614.8</ele>
        <time>2023-05-18T09:54:42Z</time>
      </trkpt>
      <trkpt lat="44.63744" lon="5.78595">
        <ele>1614.8</ele>
        <time>2023-05-18T09:54:43Z</time>
      </trkpt>
      <trkpt lat="44.63744" lon="5.78595">
        <ele>1615</ele>
        <time>2023-05-18T09:54:44Z</time>
      </trkpt>
      <trkpt lat="44.63744" lon="5.78595">
        <ele>1615.2</ele>
        <time>2023-05-18T09:54:45Z</time>
      </trkpt>
      <trkpt lat="44.63744" lon="5.78592">
        <ele>1615.2</ele>
        <time>2023-05-18T09:54:46Z</time>
      </trkpt>
      <trkpt lat="44.63742" lon="5.7859">
        <ele>1615.6</ele>
        <time>2023-05-18T09:54:48Z</time>
      </trkpt>
      <trkpt lat="44.63741" lon="5.78589">
        <ele>1615.8</ele>
        <time>2023-05-18T09:54:49Z</time>
      </trkpt>
      <trkpt lat="44.63738" lon="5.78588">
        <ele>1616</ele>
        <time>2023-05-18T09:54:51Z</time>
      </trkpt>
      <trkpt lat="44.63737" lon="5.78587">
        <ele>1616</ele>
        <time>2023-05-18T09:54:52Z</time>
      </trkpt>
      <trkpt lat="44.63737" lon="5.78586">
        <ele>1616</ele>
        <time>2023-05-18T09:54:53Z</time>
      </trkpt>
      <trkpt lat="44.63735" lon="5.78586">
        <ele>1616.2</ele>
        <time>2023-05-18T09:54:54Z</time>
      </trkpt>
      <trkpt lat="44.63733" lon="5.78585">
        <ele>1616.2</ele>
        <time>2023-05-18T09:54:55Z</time>
      </trkpt>
      <trkpt lat="44.63732" lon="5.78584">
        <ele>1616.6</ele>
        <time>2023-05-18T09:54:57Z</time>
      </trkpt>
      <trkpt lat="44.63731" lon="5.78583">
        <ele>1616.6</ele>
        <time>2023-05-18T09:54:58Z</time>
      </trkpt>
      <trkpt lat="44.6373" lon="5.78582">
        <ele>1616.6</ele>
        <time>2023-05-18T09:54:59Z</time>
      </trkpt>
      <trkpt lat="44.63729" lon="5.78582">
        <ele>1616.8</ele>
        <time>2023-05-18T09:55:00Z</time>
      </trkpt>
      <trkpt lat="44.63728" lon="5.78582">
        <ele>1616.8</ele>
        <time>2023-05-18T09:55:01Z</time>
      </trkpt>
      <trkpt lat="44.63727" lon="5.78581">
        <ele>1616.8</ele>
        <time>2023-05-18T09:55:02Z</time>
      </trkpt>
      <trkpt lat="44.63725" lon="5.7858">
        <ele>1616.8</ele>
        <time>2023-05-18T09:55:04Z</time>
      </trkpt>
      <trkpt lat="44.63723" lon="5.78581">
        <ele>1616.8</ele>
        <time>2023-05-18T09:55:06Z</time>
      </trkpt>
      <trkpt lat="44.63723" lon="5.78581">
        <ele>1616.8</ele>
        <time>2023-05-18T09:55:07Z</time>
      </trkpt>
      <trkpt lat="44.63723" lon="5.78581">
        <ele>1616.8</ele>
        <time>2023-05-18T09:55:08Z</time>
      </trkpt>
      <trkpt lat="44.63722" lon="5.78582">
        <ele>1616.8</ele>
        <time>2023-05-18T09:55:09Z</time>
      </trkpt>
      <trkpt lat="44.63722" lon="5.78582">
        <ele>1616.8</ele>
        <time>2023-05-18T09:55:10Z</time>
      </trkpt>
      <trkpt lat="44.6372" lon="5.78581">
        <ele>1617</ele>
        <time>2023-05-18T09:55:16Z</time>
      </trkpt>
      <trkpt lat="44.6372" lon="5.78581">
        <ele>1617.2</ele>
        <time>2023-05-18T09:55:17Z</time>
      </trkpt>
      <trkpt lat="44.63719" lon="5.78581">
        <ele>1617.4</ele>
        <time>2023-05-18T09:55:19Z</time>
      </trkpt>
      <trkpt lat="44.63718" lon="5.78582">
        <ele>1617.4</ele>
        <time>2023-05-18T09:55:20Z</time>
      </trkpt>
      <trkpt lat="44.63716" lon="5.78583">
        <ele>1617.4</ele>
        <time>2023-05-18T09:55:21Z</time>
      </trkpt>
      <trkpt lat="44.63714" lon="5.78586">
        <ele>1617.6</ele>
        <time>2023-05-18T09:55:23Z</time>
      </trkpt>
      <trkpt lat="44.63713" lon="5.78586">
        <ele>1617.8</ele>
        <time>2023-05-18T09:55:24Z</time>
      </trkpt>
      <trkpt lat="44.63712" lon="5.78587">
        <ele>1617.8</ele>
        <time>2023-05-18T09:55:25Z</time>
      </trkpt>
      <trkpt lat="44.63712" lon="5.78587">
        <ele>1618</ele>
        <time>2023-05-18T09:55:26Z</time>
      </trkpt>
      <trkpt lat="44.63711" lon="5.78587">
        <ele>1618.2</ele>
        <time>2023-05-18T09:55:27Z</time>
      </trkpt>
      <trkpt lat="44.63711" lon="5.78587">
        <ele>1618.2</ele>
        <time>2023-05-18T09:55:28Z</time>
      </trkpt>
      <trkpt lat="44.63711" lon="5.78588">
        <ele>1618.2</ele>
        <time>2023-05-18T09:55:30Z</time>
      </trkpt>
      <trkpt lat="44.63711" lon="5.78589">
        <ele>1618.4</ele>
        <time>2023-05-18T09:55:31Z</time>
      </trkpt>
      <trkpt lat="44.6371" lon="5.78589">
        <ele>1618.4</ele>
        <time>2023-05-18T09:55:32Z</time>
      </trkpt>
      <trkpt lat="44.6371" lon="5.78589">
        <ele>1618.4</ele>
        <time>2023-05-18T09:55:33Z</time>
      </trkpt>
      <trkpt lat="44.63709" lon="5.7859">
        <ele>1618.6</ele>
        <time>2023-05-18T09:55:34Z</time>
      </trkpt>
      <trkpt lat="44.63708" lon="5.78591">
        <ele>1618.6</ele>
        <time>2023-05-18T09:55:35Z</time>
      </trkpt>
      <trkpt lat="44.63707" lon="5.78591">
        <ele>1619</ele>
        <time>2023-05-18T09:55:36Z</time>
      </trkpt>
      <trkpt lat="44.63706" lon="5.78592">
        <ele>1619</ele>
        <time>2023-05-18T09:55:37Z</time>
      </trkpt>
      <trkpt lat="44.63705" lon="5.78593">
        <ele>1619.2</ele>
        <time>2023-05-18T09:55:39Z</time>
      </trkpt>
      <trkpt lat="44.63705" lon="5.78593">
        <ele>1619.4</ele>
        <time>2023-05-18T09:55:40Z</time>
      </trkpt>
      <trkpt lat="44.63702" lon="5.78596">
        <ele>1620</ele>
        <time>2023-05-18T09:55:45Z</time>
      </trkpt>
      <trkpt lat="44.63698" lon="5.78602">
        <ele>1620.4</ele>
        <time>2023-05-18T09:55:50Z</time>
      </trkpt>
      <trkpt lat="44.63697" lon="5.78603">
        <ele>1620.6</ele>
        <time>2023-05-18T09:55:51Z</time>
      </trkpt>
      <trkpt lat="44.63696" lon="5.78604">
        <ele>1620.8</ele>
        <time>2023-05-18T09:55:52Z</time>
      </trkpt>
      <trkpt lat="44.63696" lon="5.78604">
        <ele>1620.8</ele>
        <time>2023-05-18T09:55:53Z</time>
      </trkpt>
      <trkpt lat="44.63696" lon="5.78604">
        <ele>1621</ele>
        <time>2023-05-18T09:55:54Z</time>
      </trkpt>
      <trkpt lat="44.63695" lon="5.78604">
        <ele>1621</ele>
        <time>2023-05-18T09:55:55Z</time>
      </trkpt>
      <trkpt lat="44.63695" lon="5.78604">
        <ele>1621</ele>
        <time>2023-05-18T09:55:56Z</time>
      </trkpt>
      <trkpt lat="44.63694" lon="5.78604">
        <ele>1621</ele>
        <time>2023-05-18T09:55:57Z</time>
      </trkpt>
      <trkpt lat="44.63694" lon="5.78604">
        <ele>1621.2</ele>
        <time>2023-05-18T09:55:58Z</time>
      </trkpt>
      <trkpt lat="44.63694" lon="5.78604">
        <ele>1621.2</ele>
        <time>2023-05-18T09:55:59Z</time>
      </trkpt>
      <trkpt lat="44.63694" lon="5.78604">
        <ele>1621.4</ele>
        <time>2023-05-18T09:56:00Z</time>
      </trkpt>
      <trkpt lat="44.63694" lon="5.78604">
        <ele>1621.6</ele>
        <time>2023-05-18T09:56:02Z</time>
      </trkpt>
      <trkpt lat="44.63693" lon="5.78604">
        <ele>1621.6</ele>
        <time>2023-05-18T09:56:04Z</time>
      </trkpt>
      <trkpt lat="44.63693" lon="5.78604">
        <ele>1622</ele>
        <time>2023-05-18T09:56:08Z</time>
      </trkpt>
      <trkpt lat="44.63693" lon="5.78604">
        <ele>1622.2</ele>
        <time>2023-05-18T09:56:10Z</time>
      </trkpt>
      <trkpt lat="44.63692" lon="5.78603">
        <ele>1623</ele>
        <time>2023-05-18T09:56:17Z</time>
      </trkpt>
      <trkpt lat="44.63692" lon="5.78603">
        <ele>1623.2</ele>
        <time>2023-05-18T09:56:18Z</time>
      </trkpt>
      <trkpt lat="44.63692" lon="5.78603">
        <ele>1623.2</ele>
        <time>2023-05-18T09:56:19Z</time>
      </trkpt>
      <trkpt lat="44.63692" lon="5.786">
        <ele>1623.8</ele>
        <time>2023-05-18T09:56:25Z</time>
      </trkpt>
      <trkpt lat="44.63691" lon="5.78599">
        <ele>1624</ele>
        <time>2023-05-18T09:56:26Z</time>
      </trkpt>
      <trkpt lat="44.63691" lon="5.78598">
        <ele>1624</ele>
        <time>2023-05-18T09:56:27Z</time>
      </trkpt>
      <trkpt lat="44.63691" lon="5.78598">
        <ele>1624</ele>
        <time>2023-05-18T09:56:28Z</time>
      </trkpt>
      <trkpt lat="44.6369" lon="5.78597">
        <ele>1624.2</ele>
        <time>2023-05-18T09:56:29Z</time>
      </trkpt>
      <trkpt lat="44.6369" lon="5.78597">
        <ele>1624.2</ele>
        <time>2023-05-18T09:56:30Z</time>
      </trkpt>
      <trkpt lat="44.6369" lon="5.78597">
        <ele>1624.4</ele>
        <time>2023-05-18T09:56:31Z</time>
      </trkpt>
      <trkpt lat="44.63689" lon="5.78596">
        <ele>1624.6</ele>
        <time>2023-05-18T09:56:32Z</time>
      </trkpt>
      <trkpt lat="44.63689" lon="5.78595">
        <ele>1624.6</ele>
        <time>2023-05-18T09:56:33Z</time>
      </trkpt>
      <trkpt lat="44.63688" lon="5.78594">
        <ele>1624.8</ele>
        <time>2023-05-18T09:56:34Z</time>
      </trkpt>
      <trkpt lat="44.63688" lon="5.78593">
        <ele>1625</ele>
        <time>2023-05-18T09:56:35Z</time>
      </trkpt>
      <trkpt lat="44.63688" lon="5.78593">
        <ele>1625</ele>
        <time>2023-05-18T09:56:36Z</time>
      </trkpt>
      <trkpt lat="44.63687" lon="5.78592">
        <ele>1625</ele>
        <time>2023-05-18T09:56:37Z</time>
      </trkpt>
      <trkpt lat="44.63686" lon="5.78592">
        <ele>1625.2</ele>
        <time>2023-05-18T09:56:38Z</time>
      </trkpt>
      <trkpt lat="44.63685" lon="5.78591">
        <ele>1625.2</ele>
        <time>2023-05-18T09:56:39Z</time>
      </trkpt>
      <trkpt lat="44.63685" lon="5.78591">
        <ele>1625.4</ele>
        <time>2023-05-18T09:56:40Z</time>
      </trkpt>
      <trkpt lat="44.63685" lon="5.78591">
        <ele>1625.4</ele>
        <time>2023-05-18T09:56:41Z</time>
      </trkpt>
      <trkpt lat="44.63685" lon="5.7859">
        <ele>1625.4</ele>
        <time>2023-05-18T09:56:42Z</time>
      </trkpt>
      <trkpt lat="44.63685" lon="5.78589">
        <ele>1625.6</ele>
        <time>2023-05-18T09:56:43Z</time>
      </trkpt>
      <trkpt lat="44.63685" lon="5.78589">
        <ele>1625.6</ele>
        <time>2023-05-18T09:56:44Z</time>
      </trkpt>
      <trkpt lat="44.63685" lon="5.78588">
        <ele>1625.8</ele>
        <time>2023-05-18T09:56:45Z</time>
      </trkpt>
      <trkpt lat="44.63685" lon="5.78588">
        <ele>1625.8</ele>
        <time>2023-05-18T09:56:46Z</time>
      </trkpt>
      <trkpt lat="44.63684" lon="5.78588">
        <ele>1626</ele>
        <time>2023-05-18T09:56:47Z</time>
      </trkpt>
      <trkpt lat="44.63684" lon="5.78586">
        <ele>1626</ele>
        <time>2023-05-18T09:56:49Z</time>
      </trkpt>
      <trkpt lat="44.63684" lon="5.78584">
        <ele>1626.2</ele>
        <time>2023-05-18T09:56:50Z</time>
      </trkpt>
      <trkpt lat="44.63683" lon="5.78583">
        <ele>1626.4</ele>
        <time>2023-05-18T09:56:51Z</time>
      </trkpt>
      <trkpt lat="44.63683" lon="5.78581">
        <ele>1626.6</ele>
        <time>2023-05-18T09:56:53Z</time>
      </trkpt>
      <trkpt lat="44.63682" lon="5.78581">
        <ele>1626.8</ele>
        <time>2023-05-18T09:56:54Z</time>
      </trkpt>
      <trkpt lat="44.63683" lon="5.7858">
        <ele>1627.4</ele>
        <time>2023-05-18T09:56:59Z</time>
      </trkpt>
      <trkpt lat="44.63683" lon="5.7858">
        <ele>1627.4</ele>
        <time>2023-05-18T09:57:00Z</time>
      </trkpt>
      <trkpt lat="44.63683" lon="5.78579">
        <ele>1627.6</ele>
        <time>2023-05-18T09:57:01Z</time>
      </trkpt>
      <trkpt lat="44.63683" lon="5.78577">
        <ele>1627.6</ele>
        <time>2023-05-18T09:57:02Z</time>
      </trkpt>
      <trkpt lat="44.63683" lon="5.78576">
        <ele>1627.6</ele>
        <time>2023-05-18T09:57:03Z</time>
      </trkpt>
      <trkpt lat="44.63683" lon="5.78576">
        <ele>1627.6</ele>
        <time>2023-05-18T09:57:04Z</time>
      </trkpt>
      <trkpt lat="44.63683" lon="5.78575">
        <ele>1627.6</ele>
        <time>2023-05-18T09:57:05Z</time>
      </trkpt>
      <trkpt lat="44.63683" lon="5.78574">
        <ele>1627.6</ele>
        <time>2023-05-18T09:57:06Z</time>
      </trkpt>
      <trkpt lat="44.63684" lon="5.78573">
        <ele>1627.8</ele>
        <time>2023-05-18T09:57:07Z</time>
      </trkpt>
      <trkpt lat="44.63684" lon="5.78573">
        <ele>1627.8</ele>
        <time>2023-05-18T09:57:08Z</time>
      </trkpt>
      <trkpt lat="44.63684" lon="5.78572">
        <ele>1627.8</ele>
        <time>2023-05-18T09:57:09Z</time>
      </trkpt>
      <trkpt lat="44.63684" lon="5.78568">
        <ele>1628.2</ele>
        <time>2023-05-18T09:57:15Z</time>
      </trkpt>
      <trkpt lat="44.63682" lon="5.78567">
        <ele>1628.6</ele>
        <time>2023-05-18T09:57:17Z</time>
      </trkpt>
      <trkpt lat="44.63681" lon="5.78566">
        <ele>1628.8</ele>
        <time>2023-05-18T09:57:19Z</time>
      </trkpt>
      <trkpt lat="44.63679" lon="5.78564">
        <ele>1629</ele>
        <time>2023-05-18T09:57:21Z</time>
      </trkpt>
      <trkpt lat="44.63679" lon="5.78564">
        <ele>1629</ele>
        <time>2023-05-18T09:57:22Z</time>
      </trkpt>
      <trkpt lat="44.63679" lon="5.78563">
        <ele>1629.2</ele>
        <time>2023-05-18T09:57:23Z</time>
      </trkpt>
      <trkpt lat="44.63679" lon="5.78557">
        <ele>1629.4</ele>
        <time>2023-05-18T09:57:27Z</time>
      </trkpt>
      <trkpt lat="44.63679" lon="5.78556">
        <ele>1629.6</ele>
        <time>2023-05-18T09:57:29Z</time>
      </trkpt>
      <trkpt lat="44.63679" lon="5.78556">
        <ele>1629.6</ele>
        <time>2023-05-18T09:57:30Z</time>
      </trkpt>
      <trkpt lat="44.63679" lon="5.78556">
        <ele>1630</ele>
        <time>2023-05-18T09:57:34Z</time>
      </trkpt>
      <trkpt lat="44.63679" lon="5.78556">
        <ele>1630</ele>
        <time>2023-05-18T09:57:46Z</time>
      </trkpt>
      <trkpt lat="44.63679" lon="5.78556">
        <ele>1629.8</ele>
        <time>2023-05-18T09:58:22Z</time>
      </trkpt>
      <trkpt lat="44.63679" lon="5.78556">
        <ele>1629.6</ele>
        <time>2023-05-18T09:58:48Z</time>
      </trkpt>
      <trkpt lat="44.63679" lon="5.78556">
        <ele>1629.8</ele>
        <time>2023-05-18T09:59:27Z</time>
      </trkpt>
      <trkpt lat="44.63681" lon="5.78554">
        <ele>1629.8</ele>
        <time>2023-05-18T09:59:35Z</time>
      </trkpt>
      <trkpt lat="44.63683" lon="5.7855">
        <ele>1629.8</ele>
        <time>2023-05-18T09:59:39Z</time>
      </trkpt>
      <trkpt lat="44.63684" lon="5.78548">
        <ele>1630</ele>
        <time>2023-05-18T09:59:40Z</time>
      </trkpt>
      <trkpt lat="44.63685" lon="5.78545">
        <ele>1630</ele>
        <time>2023-05-18T09:59:41Z</time>
      </trkpt>
      <trkpt lat="44.63686" lon="5.78544">
        <ele>1630.2</ele>
        <time>2023-05-18T09:59:42Z</time>
      </trkpt>
      <trkpt lat="44.63686" lon="5.78543">
        <ele>1630.4</ele>
        <time>2023-05-18T09:59:43Z</time>
      </trkpt>
      <trkpt lat="44.63686" lon="5.78543">
        <ele>1630.4</ele>
        <time>2023-05-18T09:59:44Z</time>
      </trkpt>
      <trkpt lat="44.63686" lon="5.78542">
        <ele>1630.6</ele>
        <time>2023-05-18T09:59:45Z</time>
      </trkpt>
      <trkpt lat="44.63689" lon="5.78538">
        <ele>1631.6</ele>
        <time>2023-05-18T09:59:49Z</time>
      </trkpt>
      <trkpt lat="44.63689" lon="5.78538">
        <ele>1631.6</ele>
        <time>2023-05-18T09:59:50Z</time>
      </trkpt>
      <trkpt lat="44.63689" lon="5.78537">
        <ele>1631.8</ele>
        <time>2023-05-18T09:59:51Z</time>
      </trkpt>
      <trkpt lat="44.6369" lon="5.78536">
        <ele>1632</ele>
        <time>2023-05-18T09:59:52Z</time>
      </trkpt>
      <trkpt lat="44.63691" lon="5.78536">
        <ele>1632</ele>
        <time>2023-05-18T09:59:53Z</time>
      </trkpt>
      <trkpt lat="44.63693" lon="5.78533">
        <ele>1632.2</ele>
        <time>2023-05-18T09:59:55Z</time>
      </trkpt>
      <trkpt lat="44.63693" lon="5.78531">
        <ele>1632.2</ele>
        <time>2023-05-18T09:59:56Z</time>
      </trkpt>
      <trkpt lat="44.63698" lon="5.78527">
        <ele>1632.6</ele>
        <time>2023-05-18T10:00:01Z</time>
      </trkpt>
      <trkpt lat="44.637" lon="5.78526">
        <ele>1632.6</ele>
        <time>2023-05-18T10:00:02Z</time>
      </trkpt>
      <trkpt lat="44.63701" lon="5.78523">
        <ele>1632.8</ele>
        <time>2023-05-18T10:00:03Z</time>
      </trkpt>
      <trkpt lat="44.63701" lon="5.78521">
        <ele>1632.8</ele>
        <time>2023-05-18T10:00:04Z</time>
      </trkpt>
      <trkpt lat="44.63701" lon="5.7852">
        <ele>1633</ele>
        <time>2023-05-18T10:00:05Z</time>
      </trkpt>
      <trkpt lat="44.63702" lon="5.78519">
        <ele>1633</ele>
        <time>2023-05-18T10:00:06Z</time>
      </trkpt>
      <trkpt lat="44.63702" lon="5.78518">
        <ele>1633.2</ele>
        <time>2023-05-18T10:00:07Z</time>
      </trkpt>
      <trkpt lat="44.63703" lon="5.78517">
        <ele>1633.2</ele>
        <time>2023-05-18T10:00:08Z</time>
      </trkpt>
      <trkpt lat="44.63704" lon="5.78516">
        <ele>1633.4</ele>
        <time>2023-05-18T10:00:09Z</time>
      </trkpt>
      <trkpt lat="44.63705" lon="5.78515">
        <ele>1633.6</ele>
        <time>2023-05-18T10:00:10Z</time>
      </trkpt>
      <trkpt lat="44.63706" lon="5.78515">
        <ele>1633.6</ele>
        <time>2023-05-18T10:00:11Z</time>
      </trkpt>
      <trkpt lat="44.63707" lon="5.78514">
        <ele>1633.8</ele>
        <time>2023-05-18T10:00:12Z</time>
      </trkpt>
      <trkpt lat="44.63708" lon="5.78514">
        <ele>1633.8</ele>
        <time>2023-05-18T10:00:13Z</time>
      </trkpt>
      <trkpt lat="44.63709" lon="5.78513">
        <ele>1634</ele>
        <time>2023-05-18T10:00:14Z</time>
      </trkpt>
      <trkpt lat="44.6371" lon="5.78512">
        <ele>1634.2</ele>
        <time>2023-05-18T10:00:15Z</time>
      </trkpt>
      <trkpt lat="44.63711" lon="5.7851">
        <ele>1634.2</ele>
        <time>2023-05-18T10:00:16Z</time>
      </trkpt>
      <trkpt lat="44.63712" lon="5.78509">
        <ele>1634.4</ele>
        <time>2023-05-18T10:00:17Z</time>
      </trkpt>
      <trkpt lat="44.63713" lon="5.78508">
        <ele>1634.4</ele>
        <time>2023-05-18T10:00:18Z</time>
      </trkpt>
      <trkpt lat="44.63713" lon="5.78506">
        <ele>1634.4</ele>
        <time>2023-05-18T10:00:19Z</time>
      </trkpt>
      <trkpt lat="44.63714" lon="5.78505">
        <ele>1634.6</ele>
        <time>2023-05-18T10:00:20Z</time>
      </trkpt>
      <trkpt lat="44.63714" lon="5.78505">
        <ele>1634.8</ele>
        <time>2023-05-18T10:00:21Z</time>
      </trkpt>
      <trkpt lat="44.63715" lon="5.78504">
        <ele>1634.8</ele>
        <time>2023-05-18T10:00:22Z</time>
      </trkpt>
      <trkpt lat="44.63717" lon="5.78503">
        <ele>1635</ele>
        <time>2023-05-18T10:00:23Z</time>
      </trkpt>
      <trkpt lat="44.63718" lon="5.78503">
        <ele>1635</ele>
        <time>2023-05-18T10:00:24Z</time>
      </trkpt>
      <trkpt lat="44.63718" lon="5.78502">
        <ele>1635.2</ele>
        <time>2023-05-18T10:00:25Z</time>
      </trkpt>
      <trkpt lat="44.63719" lon="5.78501">
        <ele>1635.2</ele>
        <time>2023-05-18T10:00:26Z</time>
      </trkpt>
      <trkpt lat="44.63719" lon="5.78499">
        <ele>1635.2</ele>
        <time>2023-05-18T10:00:27Z</time>
      </trkpt>
      <trkpt lat="44.63719" lon="5.78498">
        <ele>1635.6</ele>
        <time>2023-05-18T10:00:28Z</time>
      </trkpt>
      <trkpt lat="44.6372" lon="5.78496">
        <ele>1635.6</ele>
        <time>2023-05-18T10:00:29Z</time>
      </trkpt>
      <trkpt lat="44.63721" lon="5.78495">
        <ele>1635.8</ele>
        <time>2023-05-18T10:00:30Z</time>
      </trkpt>
      <trkpt lat="44.63722" lon="5.78494">
        <ele>1636</ele>
        <time>2023-05-18T10:00:31Z</time>
      </trkpt>
      <trkpt lat="44.63722" lon="5.78495">
        <ele>1636</ele>
        <time>2023-05-18T10:00:32Z</time>
      </trkpt>
      <trkpt lat="44.63722" lon="5.78494">
        <ele>1636.2</ele>
        <time>2023-05-18T10:00:33Z</time>
      </trkpt>
      <trkpt lat="44.63724" lon="5.78494">
        <ele>1636.4</ele>
        <time>2023-05-18T10:00:34Z</time>
      </trkpt>
      <trkpt lat="44.63725" lon="5.78493">
        <ele>1636.4</ele>
        <time>2023-05-18T10:00:35Z</time>
      </trkpt>
      <trkpt lat="44.63725" lon="5.78493">
        <ele>1636.6</ele>
        <time>2023-05-18T10:00:36Z</time>
      </trkpt>
      <trkpt lat="44.63726" lon="5.78492">
        <ele>1636.8</ele>
        <time>2023-05-18T10:00:37Z</time>
      </trkpt>
      <trkpt lat="44.63727" lon="5.78491">
        <ele>1636.8</ele>
        <time>2023-05-18T10:00:38Z</time>
      </trkpt>
      <trkpt lat="44.63728" lon="5.78491">
        <ele>1637</ele>
        <time>2023-05-18T10:00:39Z</time>
      </trkpt>
      <trkpt lat="44.63729" lon="5.78491">
        <ele>1637</ele>
        <time>2023-05-18T10:00:40Z</time>
      </trkpt>
      <trkpt lat="44.6373" lon="5.7849">
        <ele>1637.2</ele>
        <time>2023-05-18T10:00:41Z</time>
      </trkpt>
      <trkpt lat="44.6373" lon="5.78489">
        <ele>1637.2</ele>
        <time>2023-05-18T10:00:42Z</time>
      </trkpt>
      <trkpt lat="44.63731" lon="5.78489">
        <ele>1637.4</ele>
        <time>2023-05-18T10:00:43Z</time>
      </trkpt>
      <trkpt lat="44.63731" lon="5.78488">
        <ele>1637.6</ele>
        <time>2023-05-18T10:00:44Z</time>
      </trkpt>
      <trkpt lat="44.63731" lon="5.78488">
        <ele>1637.6</ele>
        <time>2023-05-18T10:00:45Z</time>
      </trkpt>
      <trkpt lat="44.63732" lon="5.78488">
        <ele>1637.8</ele>
        <time>2023-05-18T10:00:46Z</time>
      </trkpt>
      <trkpt lat="44.63732" lon="5.78487">
        <ele>1638</ele>
        <time>2023-05-18T10:00:47Z</time>
      </trkpt>
      <trkpt lat="44.63733" lon="5.78487">
        <ele>1638</ele>
        <time>2023-05-18T10:00:48Z</time>
      </trkpt>
      <trkpt lat="44.63735" lon="5.78486">
        <ele>1638.2</ele>
        <time>2023-05-18T10:00:49Z</time>
      </trkpt>
      <trkpt lat="44.63735" lon="5.78485">
        <ele>1638.2</ele>
        <time>2023-05-18T10:00:50Z</time>
      </trkpt>
      <trkpt lat="44.63736" lon="5.78485">
        <ele>1638.2</ele>
        <time>2023-05-18T10:00:51Z</time>
      </trkpt>
      <trkpt lat="44.63736" lon="5.78485">
        <ele>1638.4</ele>
        <time>2023-05-18T10:00:52Z</time>
      </trkpt>
      <trkpt lat="44.63737" lon="5.78484">
        <ele>1638.4</ele>
        <time>2023-05-18T10:00:53Z</time>
      </trkpt>
      <trkpt lat="44.63738" lon="5.78484">
        <ele>1638.6</ele>
        <time>2023-05-18T10:00:54Z</time>
      </trkpt>
      <trkpt lat="44.63739" lon="5.78483">
        <ele>1638.6</ele>
        <time>2023-05-18T10:00:55Z</time>
      </trkpt>
      <trkpt lat="44.6374" lon="5.78482">
        <ele>1638.8</ele>
        <time>2023-05-18T10:00:56Z</time>
      </trkpt>
      <trkpt lat="44.6374" lon="5.78481">
        <ele>1639</ele>
        <time>2023-05-18T10:00:57Z</time>
      </trkpt>
      <trkpt lat="44.63741" lon="5.7848">
        <ele>1639</ele>
        <time>2023-05-18T10:00:58Z</time>
      </trkpt>
      <trkpt lat="44.63743" lon="5.78479">
        <ele>1639.2</ele>
        <time>2023-05-18T10:00:59Z</time>
      </trkpt>
      <trkpt lat="44.63743" lon="5.78478">
        <ele>1639.2</ele>
        <time>2023-05-18T10:01:00Z</time>
      </trkpt>
      <trkpt lat="44.63744" lon="5.78477">
        <ele>1639.6</ele>
        <time>2023-05-18T10:01:01Z</time>
      </trkpt>
      <trkpt lat="44.63744" lon="5.78476">
        <ele>1639.6</ele>
        <time>2023-05-18T10:01:02Z</time>
      </trkpt>
      <trkpt lat="44.63744" lon="5.78477">
        <ele>1639.8</ele>
        <time>2023-05-18T10:01:03Z</time>
      </trkpt>
      <trkpt lat="44.63743" lon="5.78477">
        <ele>1639.8</ele>
        <time>2023-05-18T10:01:04Z</time>
      </trkpt>
      <trkpt lat="44.63744" lon="5.78476">
        <ele>1639.8</ele>
        <time>2023-05-18T10:01:05Z</time>
      </trkpt>
      <trkpt lat="44.63744" lon="5.78476">
        <ele>1640</ele>
        <time>2023-05-18T10:01:06Z</time>
      </trkpt>
      <trkpt lat="44.63744" lon="5.78476">
        <ele>1640.2</ele>
        <time>2023-05-18T10:01:07Z</time>
      </trkpt>
      <trkpt lat="44.63744" lon="5.78476">
        <ele>1640.4</ele>
        <time>2023-05-18T10:01:08Z</time>
      </trkpt>
      <trkpt lat="44.63744" lon="5.78476">
        <ele>1640.4</ele>
        <time>2023-05-18T10:01:09Z</time>
      </trkpt>
      <trkpt lat="44.63743" lon="5.78475">
        <ele>1640.6</ele>
        <time>2023-05-18T10:01:10Z</time>
      </trkpt>
      <trkpt lat="44.63742" lon="5.78476">
        <ele>1640.8</ele>
        <time>2023-05-18T10:01:11Z</time>
      </trkpt>
      <trkpt lat="44.63742" lon="5.78476">
        <ele>1641</ele>
        <time>2023-05-18T10:01:12Z</time>
      </trkpt>
      <trkpt lat="44.63741" lon="5.78476">
        <ele>1641</ele>
        <time>2023-05-18T10:01:13Z</time>
      </trkpt>
      <trkpt lat="44.63741" lon="5.78477">
        <ele>1641</ele>
        <time>2023-05-18T10:01:14Z</time>
      </trkpt>
      <trkpt lat="44.6374" lon="5.78477">
        <ele>1641.2</ele>
        <time>2023-05-18T10:01:15Z</time>
      </trkpt>
      <trkpt lat="44.63739" lon="5.78477">
        <ele>1641.2</ele>
        <time>2023-05-18T10:01:16Z</time>
      </trkpt>
      <trkpt lat="44.63738" lon="5.78478">
        <ele>1641.4</ele>
        <time>2023-05-18T10:01:17Z</time>
      </trkpt>
      <trkpt lat="44.63738" lon="5.78478">
        <ele>1641.4</ele>
        <time>2023-05-18T10:01:18Z</time>
      </trkpt>
      <trkpt lat="44.63737" lon="5.78478">
        <ele>1641.6</ele>
        <time>2023-05-18T10:01:19Z</time>
      </trkpt>
      <trkpt lat="44.63736" lon="5.78479">
        <ele>1641.6</ele>
        <time>2023-05-18T10:01:20Z</time>
      </trkpt>
      <trkpt lat="44.63736" lon="5.78479">
        <ele>1641.8</ele>
        <time>2023-05-18T10:01:21Z</time>
      </trkpt>
      <trkpt lat="44.63735" lon="5.78479">
        <ele>1641.8</ele>
        <time>2023-05-18T10:01:22Z</time>
      </trkpt>
      <trkpt lat="44.63734" lon="5.7848">
        <ele>1642</ele>
        <time>2023-05-18T10:01:23Z</time>
      </trkpt>
      <trkpt lat="44.63733" lon="5.7848">
        <ele>1642</ele>
        <time>2023-05-18T10:01:24Z</time>
      </trkpt>
      <trkpt lat="44.63732" lon="5.7848">
        <ele>1642.2</ele>
        <time>2023-05-18T10:01:25Z</time>
      </trkpt>
      <trkpt lat="44.63731" lon="5.7848">
        <ele>1642.2</ele>
        <time>2023-05-18T10:01:26Z</time>
      </trkpt>
      <trkpt lat="44.6373" lon="5.7848">
        <ele>1642.2</ele>
        <time>2023-05-18T10:01:27Z</time>
      </trkpt>
      <trkpt lat="44.63728" lon="5.7848">
        <ele>1642.2</ele>
        <time>2023-05-18T10:01:28Z</time>
      </trkpt>
      <trkpt lat="44.63727" lon="5.7848">
        <ele>1642.4</ele>
        <time>2023-05-18T10:01:29Z</time>
      </trkpt>
      <trkpt lat="44.63726" lon="5.7848">
        <ele>1642.4</ele>
        <time>2023-05-18T10:01:30Z</time>
      </trkpt>
      <trkpt lat="44.63725" lon="5.7848">
        <ele>1642.6</ele>
        <time>2023-05-18T10:01:31Z</time>
      </trkpt>
      <trkpt lat="44.63724" lon="5.7848">
        <ele>1642.8</ele>
        <time>2023-05-18T10:01:32Z</time>
      </trkpt>
      <trkpt lat="44.63723" lon="5.78481">
        <ele>1643</ele>
        <time>2023-05-18T10:01:33Z</time>
      </trkpt>
      <trkpt lat="44.63722" lon="5.7848">
        <ele>1643</ele>
        <time>2023-05-18T10:01:34Z</time>
      </trkpt>
      <trkpt lat="44.63721" lon="5.7848">
        <ele>1643.2</ele>
        <time>2023-05-18T10:01:35Z</time>
      </trkpt>
      <trkpt lat="44.6372" lon="5.78481">
        <ele>1643.2</ele>
        <time>2023-05-18T10:01:36Z</time>
      </trkpt>
      <trkpt lat="44.63715" lon="5.78482">
        <ele>1643.4</ele>
        <time>2023-05-18T10:01:40Z</time>
      </trkpt>
      <trkpt lat="44.63715" lon="5.78482">
        <ele>1643.6</ele>
        <time>2023-05-18T10:01:41Z</time>
      </trkpt>
      <trkpt lat="44.63715" lon="5.78482">
        <ele>1643.8</ele>
        <time>2023-05-18T10:01:42Z</time>
      </trkpt>
      <trkpt lat="44.63714" lon="5.78483">
        <ele>1643.8</ele>
        <time>2023-05-18T10:01:43Z</time>
      </trkpt>
      <trkpt lat="44.63712" lon="5.78482">
        <ele>1644</ele>
        <time>2023-05-18T10:01:45Z</time>
      </trkpt>
      <trkpt lat="44.63711" lon="5.78483">
        <ele>1644.2</ele>
        <time>2023-05-18T10:01:46Z</time>
      </trkpt>
      <trkpt lat="44.63707" lon="5.78483">
        <ele>1645</ele>
        <time>2023-05-18T10:01:50Z</time>
      </trkpt>
      <trkpt lat="44.63706" lon="5.78483">
        <ele>1645.2</ele>
        <time>2023-05-18T10:01:52Z</time>
      </trkpt>
      <trkpt lat="44.63705" lon="5.78483">
        <ele>1645.2</ele>
        <time>2023-05-18T10:01:53Z</time>
      </trkpt>
      <trkpt lat="44.63704" lon="5.78482">
        <ele>1645.4</ele>
        <time>2023-05-18T10:01:54Z</time>
      </trkpt>
      <trkpt lat="44.63703" lon="5.78482">
        <ele>1645.4</ele>
        <time>2023-05-18T10:01:55Z</time>
      </trkpt>
      <trkpt lat="44.63702" lon="5.78483">
        <ele>1645.6</ele>
        <time>2023-05-18T10:01:56Z</time>
      </trkpt>
      <trkpt lat="44.63701" lon="5.78483">
        <ele>1645.6</ele>
        <time>2023-05-18T10:01:57Z</time>
      </trkpt>
      <trkpt lat="44.637" lon="5.78484">
        <ele>1645.6</ele>
        <time>2023-05-18T10:01:58Z</time>
      </trkpt>
      <trkpt lat="44.637" lon="5.78484">
        <ele>1645.8</ele>
        <time>2023-05-18T10:01:59Z</time>
      </trkpt>
      <trkpt lat="44.63699" lon="5.78485">
        <ele>1645.8</ele>
        <time>2023-05-18T10:02:00Z</time>
      </trkpt>
      <trkpt lat="44.63698" lon="5.78485">
        <ele>1646</ele>
        <time>2023-05-18T10:02:01Z</time>
      </trkpt>
      <trkpt lat="44.63698" lon="5.78485">
        <ele>1646</ele>
        <time>2023-05-18T10:02:02Z</time>
      </trkpt>
      <trkpt lat="44.63697" lon="5.78485">
        <ele>1646.2</ele>
        <time>2023-05-18T10:02:03Z</time>
      </trkpt>
      <trkpt lat="44.63696" lon="5.78484">
        <ele>1646.2</ele>
        <time>2023-05-18T10:02:04Z</time>
      </trkpt>
      <trkpt lat="44.63695" lon="5.78484">
        <ele>1646.4</ele>
        <time>2023-05-18T10:02:05Z</time>
      </trkpt>
      <trkpt lat="44.63695" lon="5.78484">
        <ele>1646.4</ele>
        <time>2023-05-18T10:02:06Z</time>
      </trkpt>
      <trkpt lat="44.63693" lon="5.78483">
        <ele>1646.4</ele>
        <time>2023-05-18T10:02:07Z</time>
      </trkpt>
      <trkpt lat="44.63692" lon="5.78483">
        <ele>1646.6</ele>
        <time>2023-05-18T10:02:08Z</time>
      </trkpt>
      <trkpt lat="44.63691" lon="5.78483">
        <ele>1646.8</ele>
        <time>2023-05-18T10:02:09Z</time>
      </trkpt>
      <trkpt lat="44.6369" lon="5.78483">
        <ele>1647</ele>
        <time>2023-05-18T10:02:10Z</time>
      </trkpt>
      <trkpt lat="44.6369" lon="5.78483">
        <ele>1647.2</ele>
        <time>2023-05-18T10:02:11Z</time>
      </trkpt>
      <trkpt lat="44.63689" lon="5.78483">
        <ele>1647.2</ele>
        <time>2023-05-18T10:02:12Z</time>
      </trkpt>
      <trkpt lat="44.63689" lon="5.78482">
        <ele>1647.4</ele>
        <time>2023-05-18T10:02:13Z</time>
      </trkpt>
      <trkpt lat="44.63688" lon="5.78482">
        <ele>1647.6</ele>
        <time>2023-05-18T10:02:14Z</time>
      </trkpt>
      <trkpt lat="44.63688" lon="5.78482">
        <ele>1647.6</ele>
        <time>2023-05-18T10:02:15Z</time>
      </trkpt>
      <trkpt lat="44.63688" lon="5.78482">
        <ele>1647.8</ele>
        <time>2023-05-18T10:02:16Z</time>
      </trkpt>
      <trkpt lat="44.63688" lon="5.78482">
        <ele>1648</ele>
        <time>2023-05-18T10:02:17Z</time>
      </trkpt>
      <trkpt lat="44.63688" lon="5.78482">
        <ele>1648</ele>
        <time>2023-05-18T10:02:18Z</time>
      </trkpt>
      <trkpt lat="44.63686" lon="5.78482">
        <ele>1648.4</ele>
        <time>2023-05-18T10:02:21Z</time>
      </trkpt>
      <trkpt lat="44.63686" lon="5.78481">
        <ele>1648.4</ele>
        <time>2023-05-18T10:02:22Z</time>
      </trkpt>
      <trkpt lat="44.63686" lon="5.78481">
        <ele>1648.4</ele>
        <time>2023-05-18T10:02:23Z</time>
      </trkpt>
      <trkpt lat="44.63686" lon="5.78482">
        <ele>1648.4</ele>
        <time>2023-05-18T10:02:24Z</time>
      </trkpt>
      <trkpt lat="44.63684" lon="5.78482">
        <ele>1648.6</ele>
        <time>2023-05-18T10:02:26Z</time>
      </trkpt>
      <trkpt lat="44.63682" lon="5.78482">
        <ele>1648.6</ele>
        <time>2023-05-18T10:02:27Z</time>
      </trkpt>
      <trkpt lat="44.63681" lon="5.78481">
        <ele>1648.6</ele>
        <time>2023-05-18T10:02:28Z</time>
      </trkpt>
      <trkpt lat="44.63681" lon="5.78481">
        <ele>1648.6</ele>
        <time>2023-05-18T10:02:29Z</time>
      </trkpt>
      <trkpt lat="44.63679" lon="5.78481">
        <ele>1648.8</ele>
        <time>2023-05-18T10:02:30Z</time>
      </trkpt>
      <trkpt lat="44.63679" lon="5.78481">
        <ele>1648.8</ele>
        <time>2023-05-18T10:02:31Z</time>
      </trkpt>
      <trkpt lat="44.63679" lon="5.78481">
        <ele>1649</ele>
        <time>2023-05-18T10:02:32Z</time>
      </trkpt>
      <trkpt lat="44.63679" lon="5.78481">
        <ele>1649</ele>
        <time>2023-05-18T10:02:33Z</time>
      </trkpt>
      <trkpt lat="44.63678" lon="5.78482">
        <ele>1649.2</ele>
        <time>2023-05-18T10:02:35Z</time>
      </trkpt>
      <trkpt lat="44.63677" lon="5.78482">
        <ele>1649.2</ele>
        <time>2023-05-18T10:02:36Z</time>
      </trkpt>
      <trkpt lat="44.63676" lon="5.78482">
        <ele>1649.4</ele>
        <time>2023-05-18T10:02:37Z</time>
      </trkpt>
      <trkpt lat="44.63675" lon="5.78482">
        <ele>1649.6</ele>
        <time>2023-05-18T10:02:39Z</time>
      </trkpt>
      <trkpt lat="44.63674" lon="5.78483">
        <ele>1649.8</ele>
        <time>2023-05-18T10:02:42Z</time>
      </trkpt>
      <trkpt lat="44.63674" lon="5.78483">
        <ele>1650</ele>
        <time>2023-05-18T10:02:43Z</time>
      </trkpt>
      <trkpt lat="44.63671" lon="5.78484">
        <ele>1650.2</ele>
        <time>2023-05-18T10:02:46Z</time>
      </trkpt>
      <trkpt lat="44.63671" lon="5.78484">
        <ele>1650.2</ele>
        <time>2023-05-18T10:02:47Z</time>
      </trkpt>
      <trkpt lat="44.6367" lon="5.78484">
        <ele>1650.2</ele>
        <time>2023-05-18T10:02:48Z</time>
      </trkpt>
      <trkpt lat="44.6367" lon="5.78485">
        <ele>1650.4</ele>
        <time>2023-05-18T10:02:49Z</time>
      </trkpt>
      <trkpt lat="44.63668" lon="5.78486">
        <ele>1650.6</ele>
        <time>2023-05-18T10:02:54Z</time>
      </trkpt>
      <trkpt lat="44.63668" lon="5.78486">
        <ele>1650.6</ele>
        <time>2023-05-18T10:02:55Z</time>
      </trkpt>
      <trkpt lat="44.63667" lon="5.78486">
        <ele>1650.8</ele>
        <time>2023-05-18T10:02:56Z</time>
      </trkpt>
      <trkpt lat="44.63667" lon="5.78487">
        <ele>1650.8</ele>
        <time>2023-05-18T10:02:57Z</time>
      </trkpt>
      <trkpt lat="44.63664" lon="5.7849">
        <ele>1651</ele>
        <time>2023-05-18T10:03:02Z</time>
      </trkpt>
      <trkpt lat="44.63661" lon="5.78491">
        <ele>1651.2</ele>
        <time>2023-05-18T10:03:05Z</time>
      </trkpt>
      <trkpt lat="44.6366" lon="5.78491">
        <ele>1651.2</ele>
        <time>2023-05-18T10:03:06Z</time>
      </trkpt>
      <trkpt lat="44.6366" lon="5.78492">
        <ele>1651.4</ele>
        <time>2023-05-18T10:03:07Z</time>
      </trkpt>
      <trkpt lat="44.63658" lon="5.78493">
        <ele>1651.6</ele>
        <time>2023-05-18T10:03:10Z</time>
      </trkpt>
      <trkpt lat="44.63656" lon="5.78493">
        <ele>1651.8</ele>
        <time>2023-05-18T10:03:13Z</time>
      </trkpt>
      <trkpt lat="44.63655" lon="5.78494">
        <ele>1652</ele>
        <time>2023-05-18T10:03:14Z</time>
      </trkpt>
      <trkpt lat="44.63654" lon="5.78494">
        <ele>1652</ele>
        <time>2023-05-18T10:03:15Z</time>
      </trkpt>
      <trkpt lat="44.63653" lon="5.78494">
        <ele>1652.2</ele>
        <time>2023-05-18T10:03:16Z</time>
      </trkpt>
      <trkpt lat="44.63652" lon="5.78495">
        <ele>1652.2</ele>
        <time>2023-05-18T10:03:17Z</time>
      </trkpt>
      <trkpt lat="44.63651" lon="5.78495">
        <ele>1652.4</ele>
        <time>2023-05-18T10:03:18Z</time>
      </trkpt>
      <trkpt lat="44.63651" lon="5.78496">
        <ele>1652.4</ele>
        <time>2023-05-18T10:03:19Z</time>
      </trkpt>
      <trkpt lat="44.6365" lon="5.78496">
        <ele>1652.6</ele>
        <time>2023-05-18T10:03:20Z</time>
      </trkpt>
      <trkpt lat="44.6365" lon="5.78497">
        <ele>1652.6</ele>
        <time>2023-05-18T10:03:21Z</time>
      </trkpt>
      <trkpt lat="44.63644" lon="5.78501">
        <ele>1653.2</ele>
        <time>2023-05-18T10:03:28Z</time>
      </trkpt>
      <trkpt lat="44.63643" lon="5.78502">
        <ele>1653.2</ele>
        <time>2023-05-18T10:03:29Z</time>
      </trkpt>
      <trkpt lat="44.63642" lon="5.78502">
        <ele>1653.2</ele>
        <time>2023-05-18T10:03:30Z</time>
      </trkpt>
      <trkpt lat="44.63641" lon="5.78502">
        <ele>1653.4</ele>
        <time>2023-05-18T10:03:31Z</time>
      </trkpt>
      <trkpt lat="44.6364" lon="5.78502">
        <ele>1653.4</ele>
        <time>2023-05-18T10:03:32Z</time>
      </trkpt>
      <trkpt lat="44.6364" lon="5.78502">
        <ele>1653.6</ele>
        <time>2023-05-18T10:03:33Z</time>
      </trkpt>
      <trkpt lat="44.6364" lon="5.78502">
        <ele>1653.6</ele>
        <time>2023-05-18T10:03:34Z</time>
      </trkpt>
      <trkpt lat="44.63639" lon="5.78503">
        <ele>1653.6</ele>
        <time>2023-05-18T10:03:35Z</time>
      </trkpt>
      <trkpt lat="44.63639" lon="5.78503">
        <ele>1653.8</ele>
        <time>2023-05-18T10:03:36Z</time>
      </trkpt>
      <trkpt lat="44.63638" lon="5.78503">
        <ele>1653.8</ele>
        <time>2023-05-18T10:03:37Z</time>
      </trkpt>
      <trkpt lat="44.63637" lon="5.78503">
        <ele>1653.8</ele>
        <time>2023-05-18T10:03:38Z</time>
      </trkpt>
      <trkpt lat="44.63637" lon="5.78504">
        <ele>1654</ele>
        <time>2023-05-18T10:03:39Z</time>
      </trkpt>
      <trkpt lat="44.63636" lon="5.78504">
        <ele>1654</ele>
        <time>2023-05-18T10:03:40Z</time>
      </trkpt>
      <trkpt lat="44.63636" lon="5.78504">
        <ele>1654.2</ele>
        <time>2023-05-18T10:03:41Z</time>
      </trkpt>
      <trkpt lat="44.63636" lon="5.78504">
        <ele>1654.2</ele>
        <time>2023-05-18T10:03:42Z</time>
      </trkpt>
      <trkpt lat="44.63635" lon="5.78504">
        <ele>1654.4</ele>
        <time>2023-05-18T10:03:43Z</time>
      </trkpt>
      <trkpt lat="44.63635" lon="5.78505">
        <ele>1654.4</ele>
        <time>2023-05-18T10:03:44Z</time>
      </trkpt>
      <trkpt lat="44.63634" lon="5.78505">
        <ele>1654.6</ele>
        <time>2023-05-18T10:03:45Z</time>
      </trkpt>
      <trkpt lat="44.63631" lon="5.78506">
        <ele>1655</ele>
        <time>2023-05-18T10:03:48Z</time>
      </trkpt>
      <trkpt lat="44.63629" lon="5.78509">
        <ele>1655.2</ele>
        <time>2023-05-18T10:03:51Z</time>
      </trkpt>
      <trkpt lat="44.63629" lon="5.78509">
        <ele>1655.2</ele>
        <time>2023-05-18T10:03:52Z</time>
      </trkpt>
      <trkpt lat="44.63628" lon="5.78509">
        <ele>1655.4</ele>
        <time>2023-05-18T10:03:55Z</time>
      </trkpt>
      <trkpt lat="44.63628" lon="5.7851">
        <ele>1655.6</ele>
        <time>2023-05-18T10:03:57Z</time>
      </trkpt>
      <trkpt lat="44.63627" lon="5.7851">
        <ele>1656</ele>
        <time>2023-05-18T10:04:01Z</time>
      </trkpt>
      <trkpt lat="44.63625" lon="5.7851">
        <ele>1656</ele>
        <time>2023-05-18T10:04:02Z</time>
      </trkpt>
      <trkpt lat="44.63624" lon="5.7851">
        <ele>1656</ele>
        <time>2023-05-18T10:04:03Z</time>
      </trkpt>
      <trkpt lat="44.63622" lon="5.78511">
        <ele>1656.2</ele>
        <time>2023-05-18T10:04:05Z</time>
      </trkpt>
      <trkpt lat="44.63621" lon="5.78512">
        <ele>1656.2</ele>
        <time>2023-05-18T10:04:06Z</time>
      </trkpt>
      <trkpt lat="44.63621" lon="5.78512">
        <ele>1656.4</ele>
        <time>2023-05-18T10:04:07Z</time>
      </trkpt>
      <trkpt lat="44.6362" lon="5.78512">
        <ele>1656.4</ele>
        <time>2023-05-18T10:04:08Z</time>
      </trkpt>
      <trkpt lat="44.63618" lon="5.78513">
        <ele>1656.4</ele>
        <time>2023-05-18T10:04:10Z</time>
      </trkpt>
      <trkpt lat="44.63617" lon="5.78514">
        <ele>1656.8</ele>
        <time>2023-05-18T10:04:12Z</time>
      </trkpt>
      <trkpt lat="44.63616" lon="5.78515">
        <ele>1657</ele>
        <time>2023-05-18T10:04:14Z</time>
      </trkpt>
      <trkpt lat="44.63616" lon="5.78515">
        <ele>1657</ele>
        <time>2023-05-18T10:04:15Z</time>
      </trkpt>
      <trkpt lat="44.63615" lon="5.78515">
        <ele>1657.2</ele>
        <time>2023-05-18T10:04:16Z</time>
      </trkpt>
      <trkpt lat="44.63614" lon="5.78516">
        <ele>1657.4</ele>
        <time>2023-05-18T10:04:17Z</time>
      </trkpt>
      <trkpt lat="44.63614" lon="5.78516">
        <ele>1657.4</ele>
        <time>2023-05-18T10:04:18Z</time>
      </trkpt>
      <trkpt lat="44.63614" lon="5.78516">
        <ele>1657.4</ele>
        <time>2023-05-18T10:04:19Z</time>
      </trkpt>
      <trkpt lat="44.63614" lon="5.78517">
        <ele>1657.6</ele>
        <time>2023-05-18T10:04:20Z</time>
      </trkpt>
      <trkpt lat="44.63612" lon="5.78516">
        <ele>1657.8</ele>
        <time>2023-05-18T10:04:22Z</time>
      </trkpt>
      <trkpt lat="44.63611" lon="5.78517">
        <ele>1658.2</ele>
        <time>2023-05-18T10:04:27Z</time>
      </trkpt>
      <trkpt lat="44.63611" lon="5.78517">
        <ele>1658.4</ele>
        <time>2023-05-18T10:04:28Z</time>
      </trkpt>
      <trkpt lat="44.63611" lon="5.78517">
        <ele>1658.4</ele>
        <time>2023-05-18T10:04:29Z</time>
      </trkpt>
      <trkpt lat="44.6361" lon="5.78518">
        <ele>1658.6</ele>
        <time>2023-05-18T10:04:32Z</time>
      </trkpt>
      <trkpt lat="44.63609" lon="5.78519">
        <ele>1659</ele>
        <time>2023-05-18T10:04:34Z</time>
      </trkpt>
      <trkpt lat="44.63608" lon="5.78519">
        <ele>1659.2</ele>
        <time>2023-05-18T10:04:35Z</time>
      </trkpt>
      <trkpt lat="44.63608" lon="5.78519">
        <ele>1659.2</ele>
        <time>2023-05-18T10:04:36Z</time>
      </trkpt>
      <trkpt lat="44.63607" lon="5.7852">
        <ele>1659.2</ele>
        <time>2023-05-18T10:04:37Z</time>
      </trkpt>
      <trkpt lat="44.63606" lon="5.7852">
        <ele>1659.4</ele>
        <time>2023-05-18T10:04:38Z</time>
      </trkpt>
      <trkpt lat="44.63606" lon="5.7852">
        <ele>1659.4</ele>
        <time>2023-05-18T10:04:39Z</time>
      </trkpt>
      <trkpt lat="44.63605" lon="5.78521">
        <ele>1659.4</ele>
        <time>2023-05-18T10:04:40Z</time>
      </trkpt>
      <trkpt lat="44.63604" lon="5.78521">
        <ele>1659.6</ele>
        <time>2023-05-18T10:04:41Z</time>
      </trkpt>
      <trkpt lat="44.63604" lon="5.78521">
        <ele>1659.8</ele>
        <time>2023-05-18T10:04:42Z</time>
      </trkpt>
      <trkpt lat="44.63603" lon="5.78521">
        <ele>1659.8</ele>
        <time>2023-05-18T10:04:43Z</time>
      </trkpt>
      <trkpt lat="44.63602" lon="5.78522">
        <ele>1659.8</ele>
        <time>2023-05-18T10:04:44Z</time>
      </trkpt>
      <trkpt lat="44.63601" lon="5.78522">
        <ele>1659.8</ele>
        <time>2023-05-18T10:04:45Z</time>
      </trkpt>
      <trkpt lat="44.63601" lon="5.78523">
        <ele>1660</ele>
        <time>2023-05-18T10:04:46Z</time>
      </trkpt>
      <trkpt lat="44.636" lon="5.78523">
        <ele>1660</ele>
        <time>2023-05-18T10:04:47Z</time>
      </trkpt>
      <trkpt lat="44.636" lon="5.78524">
        <ele>1660</ele>
        <time>2023-05-18T10:04:48Z</time>
      </trkpt>
      <trkpt lat="44.63599" lon="5.78524">
        <ele>1660.2</ele>
        <time>2023-05-18T10:04:49Z</time>
      </trkpt>
      <trkpt lat="44.63599" lon="5.78524">
        <ele>1660.4</ele>
        <time>2023-05-18T10:04:51Z</time>
      </trkpt>
      <trkpt lat="44.63599" lon="5.78524">
        <ele>1660.6</ele>
        <time>2023-05-18T10:04:52Z</time>
      </trkpt>
      <trkpt lat="44.63599" lon="5.78524">
        <ele>1660.8</ele>
        <time>2023-05-18T10:04:54Z</time>
      </trkpt>
      <trkpt lat="44.63598" lon="5.78525">
        <ele>1661.2</ele>
        <time>2023-05-18T10:05:00Z</time>
      </trkpt>
      <trkpt lat="44.63597" lon="5.78525">
        <ele>1661.2</ele>
        <time>2023-05-18T10:05:01Z</time>
      </trkpt>
      <trkpt lat="44.63596" lon="5.78528">
        <ele>1661.4</ele>
        <time>2023-05-18T10:05:03Z</time>
      </trkpt>
      <trkpt lat="44.63595" lon="5.78529">
        <ele>1661.6</ele>
        <time>2023-05-18T10:05:04Z</time>
      </trkpt>
      <trkpt lat="44.63594" lon="5.7853">
        <ele>1661.6</ele>
        <time>2023-05-18T10:05:05Z</time>
      </trkpt>
      <trkpt lat="44.63594" lon="5.7853">
        <ele>1661.8</ele>
        <time>2023-05-18T10:05:06Z</time>
      </trkpt>
      <trkpt lat="44.63594" lon="5.7853">
        <ele>1661.8</ele>
        <time>2023-05-18T10:05:07Z</time>
      </trkpt>
      <trkpt lat="44.63594" lon="5.7853">
        <ele>1662.4</ele>
        <time>2023-05-18T10:05:15Z</time>
      </trkpt>
      <trkpt lat="44.63592" lon="5.7853">
        <ele>1662.4</ele>
        <time>2023-05-18T10:05:24Z</time>
      </trkpt>
      <trkpt lat="44.63591" lon="5.78532">
        <ele>1662.6</ele>
        <time>2023-05-18T10:05:26Z</time>
      </trkpt>
      <trkpt lat="44.6359" lon="5.78532">
        <ele>1662.8</ele>
        <time>2023-05-18T10:05:27Z</time>
      </trkpt>
      <trkpt lat="44.6359" lon="5.78533">
        <ele>1662.8</ele>
        <time>2023-05-18T10:05:28Z</time>
      </trkpt>
      <trkpt lat="44.63586" lon="5.78534">
        <ele>1663</ele>
        <time>2023-05-18T10:05:31Z</time>
      </trkpt>
      <trkpt lat="44.63587" lon="5.78535">
        <ele>1663</ele>
        <time>2023-05-18T10:05:32Z</time>
      </trkpt>
      <trkpt lat="44.63586" lon="5.78535">
        <ele>1663.2</ele>
        <time>2023-05-18T10:05:33Z</time>
      </trkpt>
      <trkpt lat="44.63586" lon="5.78536">
        <ele>1663.2</ele>
        <time>2023-05-18T10:05:34Z</time>
      </trkpt>
      <trkpt lat="44.63586" lon="5.78536">
        <ele>1663.4</ele>
        <time>2023-05-18T10:05:35Z</time>
      </trkpt>
      <trkpt lat="44.63585" lon="5.78536">
        <ele>1663.4</ele>
        <time>2023-05-18T10:05:36Z</time>
      </trkpt>
      <trkpt lat="44.63584" lon="5.78536">
        <ele>1663.4</ele>
        <time>2023-05-18T10:05:38Z</time>
      </trkpt>
      <trkpt lat="44.63584" lon="5.78536">
        <ele>1663.6</ele>
        <time>2023-05-18T10:05:39Z</time>
      </trkpt>
      <trkpt lat="44.63584" lon="5.78536">
        <ele>1663.6</ele>
        <time>2023-05-18T10:05:40Z</time>
      </trkpt>
      <trkpt lat="44.63584" lon="5.78537">
        <ele>1663.6</ele>
        <time>2023-05-18T10:05:41Z</time>
      </trkpt>
      <trkpt lat="44.63582" lon="5.7854">
        <ele>1663.8</ele>
        <time>2023-05-18T10:05:43Z</time>
      </trkpt>
      <trkpt lat="44.63581" lon="5.78541">
        <ele>1664</ele>
        <time>2023-05-18T10:05:44Z</time>
      </trkpt>
      <trkpt lat="44.63579" lon="5.78543">
        <ele>1664</ele>
        <time>2023-05-18T10:05:45Z</time>
      </trkpt>
      <trkpt lat="44.63579" lon="5.78543">
        <ele>1664.2</ele>
        <time>2023-05-18T10:05:46Z</time>
      </trkpt>
      <trkpt lat="44.63579" lon="5.78543">
        <ele>1664.2</ele>
        <time>2023-05-18T10:05:47Z</time>
      </trkpt>
      <trkpt lat="44.63578" lon="5.78543">
        <ele>1664.4</ele>
        <time>2023-05-18T10:05:48Z</time>
      </trkpt>
      <trkpt lat="44.63578" lon="5.78544">
        <ele>1664.4</ele>
        <time>2023-05-18T10:05:49Z</time>
      </trkpt>
      <trkpt lat="44.63578" lon="5.78544">
        <ele>1664.6</ele>
        <time>2023-05-18T10:05:50Z</time>
      </trkpt>
      <trkpt lat="44.63578" lon="5.78544">
        <ele>1664.8</ele>
        <time>2023-05-18T10:05:51Z</time>
      </trkpt>
      <trkpt lat="44.63578" lon="5.78544">
        <ele>1664.8</ele>
        <time>2023-05-18T10:05:52Z</time>
      </trkpt>
      <trkpt lat="44.63578" lon="5.78544">
        <ele>1664.8</ele>
        <time>2023-05-18T10:05:53Z</time>
      </trkpt>
      <trkpt lat="44.63575" lon="5.78546">
        <ele>1665</ele>
        <time>2023-05-18T10:05:56Z</time>
      </trkpt>
      <trkpt lat="44.63574" lon="5.78546">
        <ele>1665.2</ele>
        <time>2023-05-18T10:05:58Z</time>
      </trkpt>
      <trkpt lat="44.63573" lon="5.78547">
        <ele>1665.2</ele>
        <time>2023-05-18T10:05:59Z</time>
      </trkpt>
      <trkpt lat="44.63571" lon="5.78548">
        <ele>1665.6</ele>
        <time>2023-05-18T10:06:01Z</time>
      </trkpt>
      <trkpt lat="44.63571" lon="5.78548">
        <ele>1665.8</ele>
        <time>2023-05-18T10:06:02Z</time>
      </trkpt>
      <trkpt lat="44.6357" lon="5.78549">
        <ele>1666</ele>
        <time>2023-05-18T10:06:03Z</time>
      </trkpt>
      <trkpt lat="44.63569" lon="5.78552">
        <ele>1666.2</ele>
        <time>2023-05-18T10:06:05Z</time>
      </trkpt>
      <trkpt lat="44.63568" lon="5.78553">
        <ele>1666.4</ele>
        <time>2023-05-18T10:06:06Z</time>
      </trkpt>
      <trkpt lat="44.63568" lon="5.78554">
        <ele>1666.6</ele>
        <time>2023-05-18T10:06:07Z</time>
      </trkpt>
      <trkpt lat="44.63567" lon="5.78554">
        <ele>1666.6</ele>
        <time>2023-05-18T10:06:08Z</time>
      </trkpt>
      <trkpt lat="44.63565" lon="5.78555">
        <ele>1666.8</ele>
        <time>2023-05-18T10:06:09Z</time>
      </trkpt>
      <trkpt lat="44.63562" lon="5.78556">
        <ele>1667</ele>
        <time>2023-05-18T10:06:10Z</time>
      </trkpt>
      <trkpt lat="44.63561" lon="5.78556">
        <ele>1667</ele>
        <time>2023-05-18T10:06:11Z</time>
      </trkpt>
      <trkpt lat="44.63559" lon="5.78557">
        <ele>1667.2</ele>
        <time>2023-05-18T10:06:12Z</time>
      </trkpt>
      <trkpt lat="44.63558" lon="5.78557">
        <ele>1667.2</ele>
        <time>2023-05-18T10:06:13Z</time>
      </trkpt>
      <trkpt lat="44.63558" lon="5.78558">
        <ele>1667.2</ele>
        <time>2023-05-18T10:06:14Z</time>
      </trkpt>
      <trkpt lat="44.63557" lon="5.78558">
        <ele>1667.2</ele>
        <time>2023-05-18T10:06:15Z</time>
      </trkpt>
      <trkpt lat="44.63556" lon="5.78558">
        <ele>1667.4</ele>
        <time>2023-05-18T10:06:16Z</time>
      </trkpt>
      <trkpt lat="44.63555" lon="5.78558">
        <ele>1667.4</ele>
        <time>2023-05-18T10:06:17Z</time>
      </trkpt>
      <trkpt lat="44.63555" lon="5.78559">
        <ele>1667.6</ele>
        <time>2023-05-18T10:06:18Z</time>
      </trkpt>
      <trkpt lat="44.63554" lon="5.78559">
        <ele>1667.6</ele>
        <time>2023-05-18T10:06:19Z</time>
      </trkpt>
      <trkpt lat="44.63553" lon="5.78559">
        <ele>1667.8</ele>
        <time>2023-05-18T10:06:20Z</time>
      </trkpt>
      <trkpt lat="44.63553" lon="5.78559">
        <ele>1667.8</ele>
        <time>2023-05-18T10:06:21Z</time>
      </trkpt>
      <trkpt lat="44.63552" lon="5.78559">
        <ele>1668</ele>
        <time>2023-05-18T10:06:22Z</time>
      </trkpt>
      <trkpt lat="44.63551" lon="5.7856">
        <ele>1668</ele>
        <time>2023-05-18T10:06:23Z</time>
      </trkpt>
      <trkpt lat="44.63549" lon="5.78561">
        <ele>1668.2</ele>
        <time>2023-05-18T10:06:24Z</time>
      </trkpt>
      <trkpt lat="44.63549" lon="5.78562">
        <ele>1668.4</ele>
        <time>2023-05-18T10:06:25Z</time>
      </trkpt>
      <trkpt lat="44.63548" lon="5.78562">
        <ele>1668.4</ele>
        <time>2023-05-18T10:06:26Z</time>
      </trkpt>
      <trkpt lat="44.63547" lon="5.78563">
        <ele>1668.6</ele>
        <time>2023-05-18T10:06:27Z</time>
      </trkpt>
      <trkpt lat="44.63547" lon="5.78563">
        <ele>1668.6</ele>
        <time>2023-05-18T10:06:28Z</time>
      </trkpt>
      <trkpt lat="44.63546" lon="5.78564">
        <ele>1668.8</ele>
        <time>2023-05-18T10:06:29Z</time>
      </trkpt>
      <trkpt lat="44.63545" lon="5.78565">
        <ele>1668.8</ele>
        <time>2023-05-18T10:06:30Z</time>
      </trkpt>
      <trkpt lat="44.63545" lon="5.78565">
        <ele>1668.8</ele>
        <time>2023-05-18T10:06:31Z</time>
      </trkpt>
      <trkpt lat="44.63545" lon="5.78566">
        <ele>1668.8</ele>
        <time>2023-05-18T10:06:32Z</time>
      </trkpt>
      <trkpt lat="44.63545" lon="5.78567">
        <ele>1669</ele>
        <time>2023-05-18T10:06:33Z</time>
      </trkpt>
      <trkpt lat="44.63544" lon="5.78568">
        <ele>1669.2</ele>
        <time>2023-05-18T10:06:34Z</time>
      </trkpt>
      <trkpt lat="44.63544" lon="5.78569">
        <ele>1669.4</ele>
        <time>2023-05-18T10:06:35Z</time>
      </trkpt>
      <trkpt lat="44.63544" lon="5.78569">
        <ele>1669.6</ele>
        <time>2023-05-18T10:06:36Z</time>
      </trkpt>
      <trkpt lat="44.63543" lon="5.78569">
        <ele>1669.6</ele>
        <time>2023-05-18T10:06:37Z</time>
      </trkpt>
      <trkpt lat="44.63543" lon="5.78569">
        <ele>1669.8</ele>
        <time>2023-05-18T10:06:38Z</time>
      </trkpt>
      <trkpt lat="44.63542" lon="5.78569">
        <ele>1670</ele>
        <time>2023-05-18T10:06:39Z</time>
      </trkpt>
      <trkpt lat="44.63541" lon="5.7857">
        <ele>1670</ele>
        <time>2023-05-18T10:06:40Z</time>
      </trkpt>
      <trkpt lat="44.63541" lon="5.7857">
        <ele>1670</ele>
        <time>2023-05-18T10:06:41Z</time>
      </trkpt>
      <trkpt lat="44.63541" lon="5.7857">
        <ele>1670.2</ele>
        <time>2023-05-18T10:06:42Z</time>
      </trkpt>
      <trkpt lat="44.63541" lon="5.7857">
        <ele>1670.4</ele>
        <time>2023-05-18T10:06:43Z</time>
      </trkpt>
      <trkpt lat="44.63541" lon="5.78571">
        <ele>1670.8</ele>
        <time>2023-05-18T10:06:47Z</time>
      </trkpt>
      <trkpt lat="44.63541" lon="5.78571">
        <ele>1671.4</ele>
        <time>2023-05-18T10:06:49Z</time>
      </trkpt>
      <trkpt lat="44.63541" lon="5.78573">
        <ele>1672.4</ele>
        <time>2023-05-18T10:06:54Z</time>
      </trkpt>
      <trkpt lat="44.63541" lon="5.78574">
        <ele>1672.4</ele>
        <time>2023-05-18T10:06:55Z</time>
      </trkpt>
      <trkpt lat="44.6354" lon="5.78574">
        <ele>1672.6</ele>
        <time>2023-05-18T10:06:56Z</time>
      </trkpt>
      <trkpt lat="44.6354" lon="5.78574">
        <ele>1672.6</ele>
        <time>2023-05-18T10:06:57Z</time>
      </trkpt>
      <trkpt lat="44.6354" lon="5.78574">
        <ele>1672.8</ele>
        <time>2023-05-18T10:06:58Z</time>
      </trkpt>
      <trkpt lat="44.63539" lon="5.78577">
        <ele>1672.8</ele>
        <time>2023-05-18T10:07:00Z</time>
      </trkpt>
      <trkpt lat="44.63538" lon="5.78578">
        <ele>1672.8</ele>
        <time>2023-05-18T10:07:01Z</time>
      </trkpt>
      <trkpt lat="44.63538" lon="5.78578">
        <ele>1673</ele>
        <time>2023-05-18T10:07:02Z</time>
      </trkpt>
      <trkpt lat="44.63537" lon="5.78579">
        <ele>1673</ele>
        <time>2023-05-18T10:07:03Z</time>
      </trkpt>
      <trkpt lat="44.63537" lon="5.78579">
        <ele>1673</ele>
        <time>2023-05-18T10:07:04Z</time>
      </trkpt>
      <trkpt lat="44.63537" lon="5.7858">
        <ele>1673.2</ele>
        <time>2023-05-18T10:07:05Z</time>
      </trkpt>
      <trkpt lat="44.63536" lon="5.78581">
        <ele>1673.2</ele>
        <time>2023-05-18T10:07:06Z</time>
      </trkpt>
      <trkpt lat="44.63536" lon="5.78582">
        <ele>1673.2</ele>
        <time>2023-05-18T10:07:07Z</time>
      </trkpt>
      <trkpt lat="44.63535" lon="5.78582">
        <ele>1673.2</ele>
        <time>2023-05-18T10:07:08Z</time>
      </trkpt>
      <trkpt lat="44.63535" lon="5.78582">
        <ele>1673.2</ele>
        <time>2023-05-18T10:07:09Z</time>
      </trkpt>
      <trkpt lat="44.63534" lon="5.78583">
        <ele>1673.2</ele>
        <time>2023-05-18T10:07:10Z</time>
      </trkpt>
      <trkpt lat="44.63533" lon="5.78583">
        <ele>1673.2</ele>
        <time>2023-05-18T10:07:11Z</time>
      </trkpt>
      <trkpt lat="44.63532" lon="5.78584">
        <ele>1673.2</ele>
        <time>2023-05-18T10:07:12Z</time>
      </trkpt>
      <trkpt lat="44.63532" lon="5.78584">
        <ele>1673.2</ele>
        <time>2023-05-18T10:07:13Z</time>
      </trkpt>
      <trkpt lat="44.63532" lon="5.78584">
        <ele>1673.4</ele>
        <time>2023-05-18T10:07:15Z</time>
      </trkpt>
      <trkpt lat="44.63532" lon="5.78584">
        <ele>1673.4</ele>
        <time>2023-05-18T10:07:17Z</time>
      </trkpt>
      <trkpt lat="44.63531" lon="5.78586">
        <ele>1674</ele>
        <time>2023-05-18T10:07:21Z</time>
      </trkpt>
      <trkpt lat="44.63531" lon="5.78588">
        <ele>1674</ele>
        <time>2023-05-18T10:07:22Z</time>
      </trkpt>
      <trkpt lat="44.63531" lon="5.78588">
        <ele>1674</ele>
        <time>2023-05-18T10:07:24Z</time>
      </trkpt>
      <trkpt lat="44.63531" lon="5.7859">
        <ele>1674.2</ele>
        <time>2023-05-18T10:07:25Z</time>
      </trkpt>
      <trkpt lat="44.63531" lon="5.78592">
        <ele>1674.4</ele>
        <time>2023-05-18T10:07:28Z</time>
      </trkpt>
      <trkpt lat="44.63529" lon="5.78595">
        <ele>1674.8</ele>
        <time>2023-05-18T10:07:31Z</time>
      </trkpt>
      <trkpt lat="44.63528" lon="5.78595">
        <ele>1674.8</ele>
        <time>2023-05-18T10:07:32Z</time>
      </trkpt>
      <trkpt lat="44.63526" lon="5.78596">
        <ele>1674.8</ele>
        <time>2023-05-18T10:07:33Z</time>
      </trkpt>
      <trkpt lat="44.63525" lon="5.78597">
        <ele>1675</ele>
        <time>2023-05-18T10:07:34Z</time>
      </trkpt>
      <trkpt lat="44.63523" lon="5.78598">
        <ele>1675</ele>
        <time>2023-05-18T10:07:36Z</time>
      </trkpt>
      <trkpt lat="44.63522" lon="5.78598">
        <ele>1675.2</ele>
        <time>2023-05-18T10:07:37Z</time>
      </trkpt>
      <trkpt lat="44.6352" lon="5.78599">
        <ele>1675.4</ele>
        <time>2023-05-18T10:07:38Z</time>
      </trkpt>
      <trkpt lat="44.6352" lon="5.78599">
        <ele>1675.6</ele>
        <time>2023-05-18T10:07:39Z</time>
      </trkpt>
      <trkpt lat="44.6352" lon="5.786">
        <ele>1675.8</ele>
        <time>2023-05-18T10:07:41Z</time>
      </trkpt>
      <trkpt lat="44.63519" lon="5.78603">
        <ele>1675.8</ele>
        <time>2023-05-18T10:07:43Z</time>
      </trkpt>
      <trkpt lat="44.63519" lon="5.78605">
        <ele>1676</ele>
        <time>2023-05-18T10:07:44Z</time>
      </trkpt>
      <trkpt lat="44.63519" lon="5.78607">
        <ele>1676</ele>
        <time>2023-05-18T10:07:46Z</time>
      </trkpt>
      <trkpt lat="44.63519" lon="5.78607">
        <ele>1676.2</ele>
        <time>2023-05-18T10:07:47Z</time>
      </trkpt>
      <trkpt lat="44.63519" lon="5.78608">
        <ele>1676.2</ele>
        <time>2023-05-18T10:07:48Z</time>
      </trkpt>
      <trkpt lat="44.6352" lon="5.7861">
        <ele>1676.4</ele>
        <time>2023-05-18T10:07:49Z</time>
      </trkpt>
      <trkpt lat="44.63519" lon="5.78611">
        <ele>1676.4</ele>
        <time>2023-05-18T10:07:50Z</time>
      </trkpt>
      <trkpt lat="44.63519" lon="5.78612">
        <ele>1676.6</ele>
        <time>2023-05-18T10:07:52Z</time>
      </trkpt>
      <trkpt lat="44.63518" lon="5.78612">
        <ele>1676.6</ele>
        <time>2023-05-18T10:07:53Z</time>
      </trkpt>
      <trkpt lat="44.63518" lon="5.78613">
        <ele>1676.6</ele>
        <time>2023-05-18T10:07:54Z</time>
      </trkpt>
      <trkpt lat="44.63518" lon="5.78615">
        <ele>1676.6</ele>
        <time>2023-05-18T10:07:55Z</time>
      </trkpt>
      <trkpt lat="44.63518" lon="5.78616">
        <ele>1676.6</ele>
        <time>2023-05-18T10:07:56Z</time>
      </trkpt>
      <trkpt lat="44.63517" lon="5.78617">
        <ele>1676.8</ele>
        <time>2023-05-18T10:07:58Z</time>
      </trkpt>
      <trkpt lat="44.63517" lon="5.78618">
        <ele>1676.8</ele>
        <time>2023-05-18T10:07:59Z</time>
      </trkpt>
      <trkpt lat="44.63517" lon="5.78618">
        <ele>1676.8</ele>
        <time>2023-05-18T10:08:00Z</time>
      </trkpt>
      <trkpt lat="44.63516" lon="5.78618">
        <ele>1677</ele>
        <time>2023-05-18T10:08:01Z</time>
      </trkpt>
      <trkpt lat="44.63512" lon="5.78619">
        <ele>1677.2</ele>
        <time>2023-05-18T10:08:04Z</time>
      </trkpt>
      <trkpt lat="44.63508" lon="5.78624">
        <ele>1677.6</ele>
        <time>2023-05-18T10:08:08Z</time>
      </trkpt>
      <trkpt lat="44.63507" lon="5.78627">
        <ele>1678</ele>
        <time>2023-05-18T10:08:10Z</time>
      </trkpt>
      <trkpt lat="44.63506" lon="5.78628">
        <ele>1678</ele>
        <time>2023-05-18T10:08:11Z</time>
      </trkpt>
      <trkpt lat="44.63505" lon="5.7863">
        <ele>1678.4</ele>
        <time>2023-05-18T10:08:16Z</time>
      </trkpt>
      <trkpt lat="44.63505" lon="5.78631">
        <ele>1678.6</ele>
        <time>2023-05-18T10:08:18Z</time>
      </trkpt>
      <trkpt lat="44.63504" lon="5.78631">
        <ele>1679</ele>
        <time>2023-05-18T10:08:19Z</time>
      </trkpt>
      <trkpt lat="44.63504" lon="5.78632">
        <ele>1679</ele>
        <time>2023-05-18T10:08:21Z</time>
      </trkpt>
      <trkpt lat="44.63504" lon="5.78632">
        <ele>1679</ele>
        <time>2023-05-18T10:08:22Z</time>
      </trkpt>
      <trkpt lat="44.63503" lon="5.78633">
        <ele>1679.4</ele>
        <time>2023-05-18T10:08:24Z</time>
      </trkpt>
      <trkpt lat="44.63503" lon="5.78633">
        <ele>1679.4</ele>
        <time>2023-05-18T10:08:25Z</time>
      </trkpt>
      <trkpt lat="44.63502" lon="5.78635">
        <ele>1679.8</ele>
        <time>2023-05-18T10:08:27Z</time>
      </trkpt>
      <trkpt lat="44.63502" lon="5.78635">
        <ele>1680</ele>
        <time>2023-05-18T10:08:28Z</time>
      </trkpt>
      <trkpt lat="44.63502" lon="5.78636">
        <ele>1680.2</ele>
        <time>2023-05-18T10:08:29Z</time>
      </trkpt>
      <trkpt lat="44.63502" lon="5.78637">
        <ele>1680.4</ele>
        <time>2023-05-18T10:08:30Z</time>
      </trkpt>
      <trkpt lat="44.63501" lon="5.78638">
        <ele>1680.4</ele>
        <time>2023-05-18T10:08:31Z</time>
      </trkpt>
      <trkpt lat="44.63501" lon="5.7864">
        <ele>1680.4</ele>
        <time>2023-05-18T10:08:32Z</time>
      </trkpt>
      <trkpt lat="44.63501" lon="5.78642">
        <ele>1680.6</ele>
        <time>2023-05-18T10:08:33Z</time>
      </trkpt>
      <trkpt lat="44.63501" lon="5.78643">
        <ele>1680.8</ele>
        <time>2023-05-18T10:08:34Z</time>
      </trkpt>
      <trkpt lat="44.63502" lon="5.78646">
        <ele>1681</ele>
        <time>2023-05-18T10:08:35Z</time>
      </trkpt>
      <trkpt lat="44.63502" lon="5.78647">
        <ele>1681</ele>
        <time>2023-05-18T10:08:36Z</time>
      </trkpt>
      <trkpt lat="44.63502" lon="5.7865">
        <ele>1681</ele>
        <time>2023-05-18T10:08:37Z</time>
      </trkpt>
      <trkpt lat="44.63501" lon="5.78652">
        <ele>1681</ele>
        <time>2023-05-18T10:08:38Z</time>
      </trkpt>
      <trkpt lat="44.63501" lon="5.78653">
        <ele>1681.2</ele>
        <time>2023-05-18T10:08:39Z</time>
      </trkpt>
      <trkpt lat="44.63501" lon="5.78653">
        <ele>1681.6</ele>
        <time>2023-05-18T10:08:40Z</time>
      </trkpt>
      <trkpt lat="44.63501" lon="5.78653">
        <ele>1681.6</ele>
        <time>2023-05-18T10:08:41Z</time>
      </trkpt>
      <trkpt lat="44.635" lon="5.78654">
        <ele>1681.4</ele>
        <time>2023-05-18T10:08:42Z</time>
      </trkpt>
      <trkpt lat="44.635" lon="5.78654">
        <ele>1681.6</ele>
        <time>2023-05-18T10:08:43Z</time>
      </trkpt>
      <trkpt lat="44.635" lon="5.78655">
        <ele>1681.8</ele>
        <time>2023-05-18T10:08:44Z</time>
      </trkpt>
      <trkpt lat="44.635" lon="5.78656">
        <ele>1681.8</ele>
        <time>2023-05-18T10:08:45Z</time>
      </trkpt>
      <trkpt lat="44.63499" lon="5.78657">
        <ele>1682.2</ele>
        <time>2023-05-18T10:08:46Z</time>
      </trkpt>
      <trkpt lat="44.635" lon="5.7866">
        <ele>1682</ele>
        <time>2023-05-18T10:08:47Z</time>
      </trkpt>
      <trkpt lat="44.635" lon="5.78663">
        <ele>1682.2</ele>
        <time>2023-05-18T10:08:48Z</time>
      </trkpt>
      <trkpt lat="44.63499" lon="5.78664">
        <ele>1682.4</ele>
        <time>2023-05-18T10:08:49Z</time>
      </trkpt>
      <trkpt lat="44.63498" lon="5.78664">
        <ele>1682.4</ele>
        <time>2023-05-18T10:08:50Z</time>
      </trkpt>
      <trkpt lat="44.63497" lon="5.78665">
        <ele>1682.6</ele>
        <time>2023-05-18T10:08:51Z</time>
      </trkpt>
      <trkpt lat="44.63496" lon="5.78666">
        <ele>1682.6</ele>
        <time>2023-05-18T10:08:52Z</time>
      </trkpt>
      <trkpt lat="44.63495" lon="5.78666">
        <ele>1682.6</ele>
        <time>2023-05-18T10:08:53Z</time>
      </trkpt>
      <trkpt lat="44.63495" lon="5.78666">
        <ele>1682.6</ele>
        <time>2023-05-18T10:08:54Z</time>
      </trkpt>
      <trkpt lat="44.63495" lon="5.78667">
        <ele>1683</ele>
        <time>2023-05-18T10:08:55Z</time>
      </trkpt>
      <trkpt lat="44.63495" lon="5.78667">
        <ele>1682.8</ele>
        <time>2023-05-18T10:08:56Z</time>
      </trkpt>
      <trkpt lat="44.63495" lon="5.78668">
        <ele>1683</ele>
        <time>2023-05-18T10:08:57Z</time>
      </trkpt>
      <trkpt lat="44.63496" lon="5.78669">
        <ele>1683</ele>
        <time>2023-05-18T10:08:58Z</time>
      </trkpt>
      <trkpt lat="44.63496" lon="5.7867">
        <ele>1683.2</ele>
        <time>2023-05-18T10:08:59Z</time>
      </trkpt>
      <trkpt lat="44.63496" lon="5.78672">
        <ele>1683.2</ele>
        <time>2023-05-18T10:09:00Z</time>
      </trkpt>
      <trkpt lat="44.63497" lon="5.78673">
        <ele>1683.2</ele>
        <time>2023-05-18T10:09:01Z</time>
      </trkpt>
      <trkpt lat="44.63497" lon="5.78674">
        <ele>1683.4</ele>
        <time>2023-05-18T10:09:02Z</time>
      </trkpt>
      <trkpt lat="44.63497" lon="5.78675">
        <ele>1683.4</ele>
        <time>2023-05-18T10:09:03Z</time>
      </trkpt>
      <trkpt lat="44.63498" lon="5.78677">
        <ele>1683.6</ele>
        <time>2023-05-18T10:09:05Z</time>
      </trkpt>
      <trkpt lat="44.63498" lon="5.78678">
        <ele>1683.8</ele>
        <time>2023-05-18T10:09:06Z</time>
      </trkpt>
      <trkpt lat="44.63499" lon="5.78678">
        <ele>1683.8</ele>
        <time>2023-05-18T10:09:07Z</time>
      </trkpt>
      <trkpt lat="44.63499" lon="5.78679">
        <ele>1684</ele>
        <time>2023-05-18T10:09:08Z</time>
      </trkpt>
      <trkpt lat="44.63499" lon="5.78679">
        <ele>1684.2</ele>
        <time>2023-05-18T10:09:10Z</time>
      </trkpt>
      <trkpt lat="44.63498" lon="5.7868">
        <ele>1684.6</ele>
        <time>2023-05-18T10:09:13Z</time>
      </trkpt>
      <trkpt lat="44.63497" lon="5.78682">
        <ele>1684.8</ele>
        <time>2023-05-18T10:09:15Z</time>
      </trkpt>
      <trkpt lat="44.63497" lon="5.78682">
        <ele>1684.8</ele>
        <time>2023-05-18T10:09:16Z</time>
      </trkpt>
      <trkpt lat="44.63497" lon="5.78682">
        <ele>1685</ele>
        <time>2023-05-18T10:09:17Z</time>
      </trkpt>
      <trkpt lat="44.63496" lon="5.78682">
        <ele>1685.2</ele>
        <time>2023-05-18T10:09:18Z</time>
      </trkpt>
      <trkpt lat="44.63496" lon="5.78682">
        <ele>1685.2</ele>
        <time>2023-05-18T10:09:20Z</time>
      </trkpt>
      <trkpt lat="44.63496" lon="5.78682">
        <ele>1685.4</ele>
        <time>2023-05-18T10:09:21Z</time>
      </trkpt>
      <trkpt lat="44.63496" lon="5.78682">
        <ele>1685.6</ele>
        <time>2023-05-18T10:09:22Z</time>
      </trkpt>
      <trkpt lat="44.63495" lon="5.78683">
        <ele>1685.6</ele>
        <time>2023-05-18T10:09:24Z</time>
      </trkpt>
      <trkpt lat="44.63493" lon="5.78683">
        <ele>1686</ele>
        <time>2023-05-18T10:09:26Z</time>
      </trkpt>
      <trkpt lat="44.63491" lon="5.78683">
        <ele>1686</ele>
        <time>2023-05-18T10:09:27Z</time>
      </trkpt>
      <trkpt lat="44.63491" lon="5.78683">
        <ele>1686.2</ele>
        <time>2023-05-18T10:09:28Z</time>
      </trkpt>
      <trkpt lat="44.63491" lon="5.78683">
        <ele>1686.4</ele>
        <time>2023-05-18T10:09:29Z</time>
      </trkpt>
      <trkpt lat="44.6349" lon="5.78683">
        <ele>1686.4</ele>
        <time>2023-05-18T10:09:30Z</time>
      </trkpt>
      <trkpt lat="44.6349" lon="5.78683">
        <ele>1686.4</ele>
        <time>2023-05-18T10:09:31Z</time>
      </trkpt>
      <trkpt lat="44.6349" lon="5.78683">
        <ele>1686.6</ele>
        <time>2023-05-18T10:09:32Z</time>
      </trkpt>
      <trkpt lat="44.63488" lon="5.78682">
        <ele>1686.8</ele>
        <time>2023-05-18T10:09:33Z</time>
      </trkpt>
      <trkpt lat="44.63487" lon="5.78682">
        <ele>1687</ele>
        <time>2023-05-18T10:09:34Z</time>
      </trkpt>
      <trkpt lat="44.63486" lon="5.78682">
        <ele>1687.2</ele>
        <time>2023-05-18T10:09:35Z</time>
      </trkpt>
      <trkpt lat="44.63485" lon="5.78682">
        <ele>1687.2</ele>
        <time>2023-05-18T10:09:36Z</time>
      </trkpt>
      <trkpt lat="44.63485" lon="5.78682">
        <ele>1687.2</ele>
        <time>2023-05-18T10:09:37Z</time>
      </trkpt>
      <trkpt lat="44.63485" lon="5.78682">
        <ele>1687.4</ele>
        <time>2023-05-18T10:09:38Z</time>
      </trkpt>
      <trkpt lat="44.63484" lon="5.78681">
        <ele>1687.6</ele>
        <time>2023-05-18T10:09:39Z</time>
      </trkpt>
      <trkpt lat="44.63483" lon="5.7868">
        <ele>1687.6</ele>
        <time>2023-05-18T10:09:40Z</time>
      </trkpt>
      <trkpt lat="44.63483" lon="5.78679">
        <ele>1687.6</ele>
        <time>2023-05-18T10:09:41Z</time>
      </trkpt>
      <trkpt lat="44.63483" lon="5.78679">
        <ele>1687.6</ele>
        <time>2023-05-18T10:09:42Z</time>
      </trkpt>
      <trkpt lat="44.63483" lon="5.78679">
        <ele>1687.6</ele>
        <time>2023-05-18T10:09:43Z</time>
      </trkpt>
      <trkpt lat="44.63482" lon="5.78679">
        <ele>1687.8</ele>
        <time>2023-05-18T10:09:44Z</time>
      </trkpt>
      <trkpt lat="44.63482" lon="5.78679">
        <ele>1688</ele>
        <time>2023-05-18T10:09:45Z</time>
      </trkpt>
      <trkpt lat="44.63482" lon="5.78679">
        <ele>1688</ele>
        <time>2023-05-18T10:09:46Z</time>
      </trkpt>
      <trkpt lat="44.63482" lon="5.78679">
        <ele>1688.2</ele>
        <time>2023-05-18T10:09:47Z</time>
      </trkpt>
      <trkpt lat="44.63482" lon="5.78679">
        <ele>1688.2</ele>
        <time>2023-05-18T10:09:48Z</time>
      </trkpt>
      <trkpt lat="44.63482" lon="5.78679">
        <ele>1688.6</ele>
        <time>2023-05-18T10:09:49Z</time>
      </trkpt>
      <trkpt lat="44.63482" lon="5.78679">
        <ele>1688.6</ele>
        <time>2023-05-18T10:09:50Z</time>
      </trkpt>
      <trkpt lat="44.63482" lon="5.78678">
        <ele>1688.8</ele>
        <time>2023-05-18T10:09:51Z</time>
      </trkpt>
      <trkpt lat="44.63482" lon="5.78678">
        <ele>1688.8</ele>
        <time>2023-05-18T10:09:52Z</time>
      </trkpt>
      <trkpt lat="44.63482" lon="5.78677">
        <ele>1689</ele>
        <time>2023-05-18T10:09:53Z</time>
      </trkpt>
      <trkpt lat="44.63482" lon="5.78677">
        <ele>1689.2</ele>
        <time>2023-05-18T10:09:54Z</time>
      </trkpt>
      <trkpt lat="44.63483" lon="5.78676">
        <ele>1689.2</ele>
        <time>2023-05-18T10:09:55Z</time>
      </trkpt>
      <trkpt lat="44.63483" lon="5.78675">
        <ele>1689.2</ele>
        <time>2023-05-18T10:09:56Z</time>
      </trkpt>
      <trkpt lat="44.63484" lon="5.78675">
        <ele>1689.4</ele>
        <time>2023-05-18T10:09:57Z</time>
      </trkpt>
      <trkpt lat="44.63484" lon="5.78674">
        <ele>1689.4</ele>
        <time>2023-05-18T10:09:58Z</time>
      </trkpt>
      <trkpt lat="44.63484" lon="5.78674">
        <ele>1689.6</ele>
        <time>2023-05-18T10:09:59Z</time>
      </trkpt>
      <trkpt lat="44.63484" lon="5.78673">
        <ele>1689.8</ele>
        <time>2023-05-18T10:10:00Z</time>
      </trkpt>
      <trkpt lat="44.63484" lon="5.78672">
        <ele>1689.8</ele>
        <time>2023-05-18T10:10:01Z</time>
      </trkpt>
      <trkpt lat="44.63484" lon="5.7867">
        <ele>1690</ele>
        <time>2023-05-18T10:10:02Z</time>
      </trkpt>
      <trkpt lat="44.63483" lon="5.78668">
        <ele>1690.2</ele>
        <time>2023-05-18T10:10:03Z</time>
      </trkpt>
      <trkpt lat="44.63483" lon="5.78667">
        <ele>1690.4</ele>
        <time>2023-05-18T10:10:04Z</time>
      </trkpt>
      <trkpt lat="44.63483" lon="5.78666">
        <ele>1690.6</ele>
        <time>2023-05-18T10:10:05Z</time>
      </trkpt>
      <trkpt lat="44.63483" lon="5.78665">
        <ele>1690.6</ele>
        <time>2023-05-18T10:10:06Z</time>
      </trkpt>
      <trkpt lat="44.63483" lon="5.78664">
        <ele>1690.8</ele>
        <time>2023-05-18T10:10:07Z</time>
      </trkpt>
      <trkpt lat="44.63483" lon="5.78662">
        <ele>1690.8</ele>
        <time>2023-05-18T10:10:08Z</time>
      </trkpt>
      <trkpt lat="44.63484" lon="5.78662">
        <ele>1691</ele>
        <time>2023-05-18T10:10:09Z</time>
      </trkpt>
      <trkpt lat="44.63484" lon="5.78662">
        <ele>1691</ele>
        <time>2023-05-18T10:10:10Z</time>
      </trkpt>
      <trkpt lat="44.63483" lon="5.78661">
        <ele>1691.2</ele>
        <time>2023-05-18T10:10:11Z</time>
      </trkpt>
      <trkpt lat="44.63482" lon="5.78659">
        <ele>1691.4</ele>
        <time>2023-05-18T10:10:12Z</time>
      </trkpt>
      <trkpt lat="44.63482" lon="5.78659">
        <ele>1691.6</ele>
        <time>2023-05-18T10:10:13Z</time>
      </trkpt>
      <trkpt lat="44.63482" lon="5.78659">
        <ele>1691.6</ele>
        <time>2023-05-18T10:10:14Z</time>
      </trkpt>
      <trkpt lat="44.63481" lon="5.78658">
        <ele>1691.6</ele>
        <time>2023-05-18T10:10:15Z</time>
      </trkpt>
      <trkpt lat="44.63481" lon="5.78658">
        <ele>1691.6</ele>
        <time>2023-05-18T10:10:16Z</time>
      </trkpt>
      <trkpt lat="44.63481" lon="5.78658">
        <ele>1691.8</ele>
        <time>2023-05-18T10:10:17Z</time>
      </trkpt>
      <trkpt lat="44.63481" lon="5.78658">
        <ele>1691.8</ele>
        <time>2023-05-18T10:10:19Z</time>
      </trkpt>
      <trkpt lat="44.63481" lon="5.78658">
        <ele>1692</ele>
        <time>2023-05-18T10:10:20Z</time>
      </trkpt>
      <trkpt lat="44.63481" lon="5.78657">
        <ele>1692.6</ele>
        <time>2023-05-18T10:10:25Z</time>
      </trkpt>
      <trkpt lat="44.63481" lon="5.78657">
        <ele>1693</ele>
        <time>2023-05-18T10:10:27Z</time>
      </trkpt>
      <trkpt lat="44.63481" lon="5.78657">
        <ele>1693</ele>
        <time>2023-05-18T10:10:28Z</time>
      </trkpt>
      <trkpt lat="44.63481" lon="5.78658">
        <ele>1693.4</ele>
        <time>2023-05-18T10:10:30Z</time>
      </trkpt>
      <trkpt lat="44.63481" lon="5.78658">
        <ele>1693.4</ele>
        <time>2023-05-18T10:10:31Z</time>
      </trkpt>
      <trkpt lat="44.6348" lon="5.78657">
        <ele>1693.6</ele>
        <time>2023-05-18T10:10:32Z</time>
      </trkpt>
      <trkpt lat="44.63478" lon="5.78658">
        <ele>1693.6</ele>
        <time>2023-05-18T10:10:33Z</time>
      </trkpt>
      <trkpt lat="44.63478" lon="5.78658">
        <ele>1693.8</ele>
        <time>2023-05-18T10:10:34Z</time>
      </trkpt>
      <trkpt lat="44.63477" lon="5.78659">
        <ele>1693.8</ele>
        <time>2023-05-18T10:10:35Z</time>
      </trkpt>
      <trkpt lat="44.63477" lon="5.78659">
        <ele>1694</ele>
        <time>2023-05-18T10:10:36Z</time>
      </trkpt>
      <trkpt lat="44.63477" lon="5.78659">
        <ele>1694</ele>
        <time>2023-05-18T10:10:37Z</time>
      </trkpt>
      <trkpt lat="44.63477" lon="5.78659">
        <ele>1694.2</ele>
        <time>2023-05-18T10:10:38Z</time>
      </trkpt>
      <trkpt lat="44.63476" lon="5.78659">
        <ele>1694.2</ele>
        <time>2023-05-18T10:10:39Z</time>
      </trkpt>
      <trkpt lat="44.63475" lon="5.78659">
        <ele>1694.4</ele>
        <time>2023-05-18T10:10:40Z</time>
      </trkpt>
      <trkpt lat="44.63474" lon="5.78659">
        <ele>1694.6</ele>
        <time>2023-05-18T10:10:41Z</time>
      </trkpt>
      <trkpt lat="44.63473" lon="5.7866">
        <ele>1694.6</ele>
        <time>2023-05-18T10:10:42Z</time>
      </trkpt>
      <trkpt lat="44.63471" lon="5.7866">
        <ele>1694.8</ele>
        <time>2023-05-18T10:10:43Z</time>
      </trkpt>
      <trkpt lat="44.6347" lon="5.7866">
        <ele>1694.8</ele>
        <time>2023-05-18T10:10:44Z</time>
      </trkpt>
      <trkpt lat="44.63468" lon="5.78661">
        <ele>1695</ele>
        <time>2023-05-18T10:10:45Z</time>
      </trkpt>
      <trkpt lat="44.63469" lon="5.78663">
        <ele>1695</ele>
        <time>2023-05-18T10:10:46Z</time>
      </trkpt>
      <trkpt lat="44.63468" lon="5.78665">
        <ele>1695.2</ele>
        <time>2023-05-18T10:10:47Z</time>
      </trkpt>
      <trkpt lat="44.63468" lon="5.78666">
        <ele>1695.2</ele>
        <time>2023-05-18T10:10:48Z</time>
      </trkpt>
      <trkpt lat="44.63467" lon="5.78668">
        <ele>1695.4</ele>
        <time>2023-05-18T10:10:49Z</time>
      </trkpt>
      <trkpt lat="44.63467" lon="5.78669">
        <ele>1695.4</ele>
        <time>2023-05-18T10:10:50Z</time>
      </trkpt>
      <trkpt lat="44.63466" lon="5.7867">
        <ele>1695.4</ele>
        <time>2023-05-18T10:10:51Z</time>
      </trkpt>
      <trkpt lat="44.63466" lon="5.78671">
        <ele>1695.6</ele>
        <time>2023-05-18T10:10:52Z</time>
      </trkpt>
      <trkpt lat="44.63466" lon="5.78672">
        <ele>1695.6</ele>
        <time>2023-05-18T10:10:53Z</time>
      </trkpt>
      <trkpt lat="44.63466" lon="5.78672">
        <ele>1695.6</ele>
        <time>2023-05-18T10:10:54Z</time>
      </trkpt>
      <trkpt lat="44.63465" lon="5.78673">
        <ele>1695.6</ele>
        <time>2023-05-18T10:10:55Z</time>
      </trkpt>
      <trkpt lat="44.63465" lon="5.78673">
        <ele>1695.6</ele>
        <time>2023-05-18T10:10:56Z</time>
      </trkpt>
      <trkpt lat="44.63465" lon="5.78673">
        <ele>1695.8</ele>
        <time>2023-05-18T10:10:57Z</time>
      </trkpt>
      <trkpt lat="44.63465" lon="5.78673">
        <ele>1696</ele>
        <time>2023-05-18T10:10:58Z</time>
      </trkpt>
      <trkpt lat="44.63465" lon="5.78675">
        <ele>1696.2</ele>
        <time>2023-05-18T10:11:00Z</time>
      </trkpt>
      <trkpt lat="44.63464" lon="5.78675">
        <ele>1696.4</ele>
        <time>2023-05-18T10:11:01Z</time>
      </trkpt>
      <trkpt lat="44.63464" lon="5.78675">
        <ele>1696.6</ele>
        <time>2023-05-18T10:11:02Z</time>
      </trkpt>
      <trkpt lat="44.63464" lon="5.78676">
        <ele>1696.6</ele>
        <time>2023-05-18T10:11:03Z</time>
      </trkpt>
      <trkpt lat="44.63464" lon="5.78677">
        <ele>1696.8</ele>
        <time>2023-05-18T10:11:04Z</time>
      </trkpt>
      <trkpt lat="44.63464" lon="5.78677">
        <ele>1697</ele>
        <time>2023-05-18T10:11:05Z</time>
      </trkpt>
      <trkpt lat="44.63464" lon="5.78678">
        <ele>1697.2</ele>
        <time>2023-05-18T10:11:06Z</time>
      </trkpt>
      <trkpt lat="44.63463" lon="5.78678">
        <ele>1697.4</ele>
        <time>2023-05-18T10:11:07Z</time>
      </trkpt>
      <trkpt lat="44.63463" lon="5.78681">
        <ele>1697.6</ele>
        <time>2023-05-18T10:11:11Z</time>
      </trkpt>
      <trkpt lat="44.63463" lon="5.78681">
        <ele>1697.6</ele>
        <time>2023-05-18T10:11:12Z</time>
      </trkpt>
      <trkpt lat="44.63463" lon="5.78681">
        <ele>1697.8</ele>
        <time>2023-05-18T10:11:13Z</time>
      </trkpt>
      <trkpt lat="44.63462" lon="5.78681">
        <ele>1698</ele>
        <time>2023-05-18T10:11:14Z</time>
      </trkpt>
      <trkpt lat="44.63462" lon="5.78684">
        <ele>1698.4</ele>
        <time>2023-05-18T10:11:16Z</time>
      </trkpt>
      <trkpt lat="44.63461" lon="5.78685">
        <ele>1698.4</ele>
        <time>2023-05-18T10:11:17Z</time>
      </trkpt>
      <trkpt lat="44.63461" lon="5.78686">
        <ele>1698.4</ele>
        <time>2023-05-18T10:11:18Z</time>
      </trkpt>
      <trkpt lat="44.63461" lon="5.78686">
        <ele>1698.6</ele>
        <time>2023-05-18T10:11:19Z</time>
      </trkpt>
      <trkpt lat="44.63461" lon="5.78686">
        <ele>1698.6</ele>
        <time>2023-05-18T10:11:20Z</time>
      </trkpt>
      <trkpt lat="44.63461" lon="5.78687">
        <ele>1698.8</ele>
        <time>2023-05-18T10:11:22Z</time>
      </trkpt>
      <trkpt lat="44.63461" lon="5.78687">
        <ele>1698.8</ele>
        <time>2023-05-18T10:11:23Z</time>
      </trkpt>
      <trkpt lat="44.63461" lon="5.78687">
        <ele>1699.4</ele>
        <time>2023-05-18T10:11:27Z</time>
      </trkpt>
      <trkpt lat="44.63461" lon="5.78688">
        <ele>1699.6</ele>
        <time>2023-05-18T10:11:28Z</time>
      </trkpt>
      <trkpt lat="44.63461" lon="5.78689">
        <ele>1699.6</ele>
        <time>2023-05-18T10:11:30Z</time>
      </trkpt>
      <trkpt lat="44.63461" lon="5.78689">
        <ele>1700.2</ele>
        <time>2023-05-18T10:11:34Z</time>
      </trkpt>
      <trkpt lat="44.6346" lon="5.78689">
        <ele>1700.4</ele>
        <time>2023-05-18T10:11:35Z</time>
      </trkpt>
      <trkpt lat="44.6346" lon="5.78689">
        <ele>1700.4</ele>
        <time>2023-05-18T10:11:36Z</time>
      </trkpt>
      <trkpt lat="44.6346" lon="5.78689">
        <ele>1700.6</ele>
        <time>2023-05-18T10:11:37Z</time>
      </trkpt>
      <trkpt lat="44.63461" lon="5.78689">
        <ele>1700.6</ele>
        <time>2023-05-18T10:11:38Z</time>
      </trkpt>
      <trkpt lat="44.63461" lon="5.78689">
        <ele>1700.8</ele>
        <time>2023-05-18T10:11:39Z</time>
      </trkpt>
      <trkpt lat="44.63461" lon="5.78689">
        <ele>1700.8</ele>
        <time>2023-05-18T10:11:40Z</time>
      </trkpt>
      <trkpt lat="44.63461" lon="5.78688">
        <ele>1701</ele>
        <time>2023-05-18T10:11:41Z</time>
      </trkpt>
      <trkpt lat="44.63461" lon="5.78687">
        <ele>1701</ele>
        <time>2023-05-18T10:11:42Z</time>
      </trkpt>
      <trkpt lat="44.63461" lon="5.78686">
        <ele>1701.2</ele>
        <time>2023-05-18T10:11:43Z</time>
      </trkpt>
      <trkpt lat="44.63461" lon="5.78685">
        <ele>1701.4</ele>
        <time>2023-05-18T10:11:44Z</time>
      </trkpt>
      <trkpt lat="44.63461" lon="5.78684">
        <ele>1701.4</ele>
        <time>2023-05-18T10:11:45Z</time>
      </trkpt>
      <trkpt lat="44.6346" lon="5.78683">
        <ele>1701.6</ele>
        <time>2023-05-18T10:11:46Z</time>
      </trkpt>
      <trkpt lat="44.6346" lon="5.78683">
        <ele>1701.6</ele>
        <time>2023-05-18T10:11:47Z</time>
      </trkpt>
      <trkpt lat="44.6346" lon="5.78683">
        <ele>1701.8</ele>
        <time>2023-05-18T10:11:48Z</time>
      </trkpt>
      <trkpt lat="44.6346" lon="5.78683">
        <ele>1701.8</ele>
        <time>2023-05-18T10:11:49Z</time>
      </trkpt>
      <trkpt lat="44.63461" lon="5.78682">
        <ele>1702</ele>
        <time>2023-05-18T10:11:50Z</time>
      </trkpt>
      <trkpt lat="44.63461" lon="5.78682">
        <ele>1702</ele>
        <time>2023-05-18T10:11:51Z</time>
      </trkpt>
      <trkpt lat="44.63461" lon="5.78682">
        <ele>1702</ele>
        <time>2023-05-18T10:11:52Z</time>
      </trkpt>
      <trkpt lat="44.63461" lon="5.78682">
        <ele>1702.2</ele>
        <time>2023-05-18T10:11:53Z</time>
      </trkpt>
      <trkpt lat="44.63461" lon="5.78682">
        <ele>1702.2</ele>
        <time>2023-05-18T10:11:54Z</time>
      </trkpt>
      <trkpt lat="44.63461" lon="5.78682">
        <ele>1702.2</ele>
        <time>2023-05-18T10:11:55Z</time>
      </trkpt>
      <trkpt lat="44.63461" lon="5.78682">
        <ele>1702.4</ele>
        <time>2023-05-18T10:11:56Z</time>
      </trkpt>
      <trkpt lat="44.63461" lon="5.78681">
        <ele>1702.8</ele>
        <time>2023-05-18T10:11:57Z</time>
      </trkpt>
      <trkpt lat="44.63461" lon="5.78681">
        <ele>1702.8</ele>
        <time>2023-05-18T10:11:58Z</time>
      </trkpt>
      <trkpt lat="44.63462" lon="5.7868">
        <ele>1703</ele>
        <time>2023-05-18T10:11:59Z</time>
      </trkpt>
      <trkpt lat="44.63462" lon="5.7868">
        <ele>1703</ele>
        <time>2023-05-18T10:12:00Z</time>
      </trkpt>
      <trkpt lat="44.63462" lon="5.78679">
        <ele>1703</ele>
        <time>2023-05-18T10:12:01Z</time>
      </trkpt>
      <trkpt lat="44.63462" lon="5.78678">
        <ele>1703.2</ele>
        <time>2023-05-18T10:12:02Z</time>
      </trkpt>
      <trkpt lat="44.63462" lon="5.78678">
        <ele>1703.4</ele>
        <time>2023-05-18T10:12:05Z</time>
      </trkpt>
      <trkpt lat="44.63462" lon="5.78677">
        <ele>1703.6</ele>
        <time>2023-05-18T10:12:06Z</time>
      </trkpt>
      <trkpt lat="44.63462" lon="5.78677">
        <ele>1703.8</ele>
        <time>2023-05-18T10:12:07Z</time>
      </trkpt>
      <trkpt lat="44.63462" lon="5.78676">
        <ele>1703.8</ele>
        <time>2023-05-18T10:12:08Z</time>
      </trkpt>
      <trkpt lat="44.63461" lon="5.78673">
        <ele>1704.6</ele>
        <time>2023-05-18T10:12:12Z</time>
      </trkpt>
      <trkpt lat="44.6346" lon="5.78671">
        <ele>1704.8</ele>
        <time>2023-05-18T10:12:13Z</time>
      </trkpt>
      <trkpt lat="44.6346" lon="5.7867">
        <ele>1704.8</ele>
        <time>2023-05-18T10:12:14Z</time>
      </trkpt>
      <trkpt lat="44.6346" lon="5.7867">
        <ele>1705</ele>
        <time>2023-05-18T10:12:15Z</time>
      </trkpt>
      <trkpt lat="44.63459" lon="5.78669">
        <ele>1705</ele>
        <time>2023-05-18T10:12:16Z</time>
      </trkpt>
      <trkpt lat="44.63459" lon="5.78669">
        <ele>1705</ele>
        <time>2023-05-18T10:12:17Z</time>
      </trkpt>
      <trkpt lat="44.63458" lon="5.78668">
        <ele>1705.2</ele>
        <time>2023-05-18T10:12:18Z</time>
      </trkpt>
      <trkpt lat="44.63458" lon="5.78668">
        <ele>1705.4</ele>
        <time>2023-05-18T10:12:19Z</time>
      </trkpt>
      <trkpt lat="44.63458" lon="5.78668">
        <ele>1705.6</ele>
        <time>2023-05-18T10:12:20Z</time>
      </trkpt>
      <trkpt lat="44.63457" lon="5.78668">
        <ele>1705.6</ele>
        <time>2023-05-18T10:12:21Z</time>
      </trkpt>
      <trkpt lat="44.63457" lon="5.78668">
        <ele>1705.6</ele>
        <time>2023-05-18T10:12:22Z</time>
      </trkpt>
      <trkpt lat="44.63457" lon="5.78668">
        <ele>1705.8</ele>
        <time>2023-05-18T10:12:23Z</time>
      </trkpt>
      <trkpt lat="44.63457" lon="5.78668">
        <ele>1706</ele>
        <time>2023-05-18T10:12:24Z</time>
      </trkpt>
      <trkpt lat="44.63456" lon="5.78668">
        <ele>1706</ele>
        <time>2023-05-18T10:12:25Z</time>
      </trkpt>
      <trkpt lat="44.63455" lon="5.78668">
        <ele>1706</ele>
        <time>2023-05-18T10:12:26Z</time>
      </trkpt>
      <trkpt lat="44.63454" lon="5.78667">
        <ele>1706.2</ele>
        <time>2023-05-18T10:12:27Z</time>
      </trkpt>
      <trkpt lat="44.63453" lon="5.78667">
        <ele>1706.4</ele>
        <time>2023-05-18T10:12:28Z</time>
      </trkpt>
      <trkpt lat="44.63452" lon="5.78667">
        <ele>1706.6</ele>
        <time>2023-05-18T10:12:29Z</time>
      </trkpt>
      <trkpt lat="44.63452" lon="5.78668">
        <ele>1706.6</ele>
        <time>2023-05-18T10:12:30Z</time>
      </trkpt>
      <trkpt lat="44.63451" lon="5.78669">
        <ele>1706.8</ele>
        <time>2023-05-18T10:12:31Z</time>
      </trkpt>
      <trkpt lat="44.63451" lon="5.78669">
        <ele>1706.8</ele>
        <time>2023-05-18T10:12:32Z</time>
      </trkpt>
      <trkpt lat="44.63451" lon="5.78669">
        <ele>1706.8</ele>
        <time>2023-05-18T10:12:33Z</time>
      </trkpt>
      <trkpt lat="44.63451" lon="5.78669">
        <ele>1706.8</ele>
        <time>2023-05-18T10:12:34Z</time>
      </trkpt>
      <trkpt lat="44.63451" lon="5.78669">
        <ele>1707</ele>
        <time>2023-05-18T10:12:35Z</time>
      </trkpt>
      <trkpt lat="44.6345" lon="5.7867">
        <ele>1707.2</ele>
        <time>2023-05-18T10:12:38Z</time>
      </trkpt>
      <trkpt lat="44.6345" lon="5.7867">
        <ele>1707.4</ele>
        <time>2023-05-18T10:12:41Z</time>
      </trkpt>
      <trkpt lat="44.6345" lon="5.7867">
        <ele>1707</ele>
        <time>2023-05-18T10:13:33Z</time>
      </trkpt>
      <trkpt lat="44.6345" lon="5.7867">
        <ele>1707</ele>
        <time>2023-05-18T10:15:08Z</time>
      </trkpt>
      <trkpt lat="44.6345" lon="5.7867">
        <ele>1707</ele>
        <time>2023-05-18T10:15:09Z</time>
      </trkpt>
      <trkpt lat="44.6345" lon="5.7867">
        <ele>1707.2</ele>
        <time>2023-05-18T10:15:22Z</time>
      </trkpt>
      <trkpt lat="44.6345" lon="5.7867">
        <ele>1707.4</ele>
        <time>2023-05-18T10:15:34Z</time>
      </trkpt>
      <trkpt lat="44.63448" lon="5.78672">
        <ele>1707.4</ele>
        <time>2023-05-18T10:15:36Z</time>
      </trkpt>
      <trkpt lat="44.63448" lon="5.78674">
        <ele>1707.4</ele>
        <time>2023-05-18T10:15:37Z</time>
      </trkpt>
      <trkpt lat="44.63447" lon="5.78675">
        <ele>1707.4</ele>
        <time>2023-05-18T10:15:38Z</time>
      </trkpt>
      <trkpt lat="44.63446" lon="5.78677">
        <ele>1707.4</ele>
        <time>2023-05-18T10:15:39Z</time>
      </trkpt>
      <trkpt lat="44.63445" lon="5.78679">
        <ele>1707.4</ele>
        <time>2023-05-18T10:15:40Z</time>
      </trkpt>
      <trkpt lat="44.63443" lon="5.7868">
        <ele>1707.4</ele>
        <time>2023-05-18T10:15:41Z</time>
      </trkpt>
      <trkpt lat="44.63441" lon="5.78682">
        <ele>1707.4</ele>
        <time>2023-05-18T10:15:42Z</time>
      </trkpt>
      <trkpt lat="44.6344" lon="5.78684">
        <ele>1707.2</ele>
        <time>2023-05-18T10:15:43Z</time>
      </trkpt>
      <trkpt lat="44.63438" lon="5.78685">
        <ele>1707.2</ele>
        <time>2023-05-18T10:15:44Z</time>
      </trkpt>
      <trkpt lat="44.63437" lon="5.78685">
        <ele>1707.2</ele>
        <time>2023-05-18T10:15:45Z</time>
      </trkpt>
      <trkpt lat="44.63436" lon="5.78686">
        <ele>1707</ele>
        <time>2023-05-18T10:15:46Z</time>
      </trkpt>
      <trkpt lat="44.63434" lon="5.78688">
        <ele>1706.8</ele>
        <time>2023-05-18T10:15:47Z</time>
      </trkpt>
      <trkpt lat="44.63432" lon="5.78689">
        <ele>1706.6</ele>
        <time>2023-05-18T10:15:48Z</time>
      </trkpt>
      <trkpt lat="44.6343" lon="5.78691">
        <ele>1706.6</ele>
        <time>2023-05-18T10:15:49Z</time>
      </trkpt>
      <trkpt lat="44.63428" lon="5.78692">
        <ele>1706.6</ele>
        <time>2023-05-18T10:15:50Z</time>
      </trkpt>
      <trkpt lat="44.63424" lon="5.78693">
        <ele>1706.6</ele>
        <time>2023-05-18T10:15:52Z</time>
      </trkpt>
      <trkpt lat="44.63422" lon="5.78694">
        <ele>1706.6</ele>
        <time>2023-05-18T10:15:53Z</time>
      </trkpt>
      <trkpt lat="44.63421" lon="5.78694">
        <ele>1706.6</ele>
        <time>2023-05-18T10:15:54Z</time>
      </trkpt>
      <trkpt lat="44.63419" lon="5.78696">
        <ele>1706.8</ele>
        <time>2023-05-18T10:15:55Z</time>
      </trkpt>
      <trkpt lat="44.63419" lon="5.78698">
        <ele>1706.6</ele>
        <time>2023-05-18T10:15:56Z</time>
      </trkpt>
      <trkpt lat="44.63418" lon="5.787">
        <ele>1706.6</ele>
        <time>2023-05-18T10:15:57Z</time>
      </trkpt>
      <trkpt lat="44.63417" lon="5.78703">
        <ele>1706.6</ele>
        <time>2023-05-18T10:15:58Z</time>
      </trkpt>
      <trkpt lat="44.63414" lon="5.7871">
        <ele>1706.6</ele>
        <time>2023-05-18T10:16:01Z</time>
      </trkpt>
      <trkpt lat="44.63411" lon="5.78717">
        <ele>1706.4</ele>
        <time>2023-05-18T10:16:04Z</time>
      </trkpt>
      <trkpt lat="44.63411" lon="5.78718">
        <ele>1706.4</ele>
        <time>2023-05-18T10:16:05Z</time>
      </trkpt>
      <trkpt lat="44.6341" lon="5.7872">
        <ele>1706.4</ele>
        <time>2023-05-18T10:16:07Z</time>
      </trkpt>
      <trkpt lat="44.63409" lon="5.78721">
        <ele>1706.4</ele>
        <time>2023-05-18T10:16:08Z</time>
      </trkpt>
      <trkpt lat="44.63409" lon="5.78722">
        <ele>1706.4</ele>
        <time>2023-05-18T10:16:09Z</time>
      </trkpt>
      <trkpt lat="44.63408" lon="5.78724">
        <ele>1706.4</ele>
        <time>2023-05-18T10:16:10Z</time>
      </trkpt>
      <trkpt lat="44.63408" lon="5.78726">
        <ele>1706.4</ele>
        <time>2023-05-18T10:16:11Z</time>
      </trkpt>
      <trkpt lat="44.63407" lon="5.78728">
        <ele>1706.4</ele>
        <time>2023-05-18T10:16:12Z</time>
      </trkpt>
      <trkpt lat="44.63406" lon="5.7873">
        <ele>1706.4</ele>
        <time>2023-05-18T10:16:13Z</time>
      </trkpt>
      <trkpt lat="44.63405" lon="5.78734">
        <ele>1706.4</ele>
        <time>2023-05-18T10:16:15Z</time>
      </trkpt>
      <trkpt lat="44.63405" lon="5.78736">
        <ele>1706.4</ele>
        <time>2023-05-18T10:16:16Z</time>
      </trkpt>
      <trkpt lat="44.63405" lon="5.78738">
        <ele>1706.4</ele>
        <time>2023-05-18T10:16:17Z</time>
      </trkpt>
      <trkpt lat="44.63405" lon="5.7874">
        <ele>1706.4</ele>
        <time>2023-05-18T10:16:18Z</time>
      </trkpt>
      <trkpt lat="44.63405" lon="5.78742">
        <ele>1706.4</ele>
        <time>2023-05-18T10:16:19Z</time>
      </trkpt>
      <trkpt lat="44.63404" lon="5.78748">
        <ele>1706.4</ele>
        <time>2023-05-18T10:16:22Z</time>
      </trkpt>
      <trkpt lat="44.63404" lon="5.78749">
        <ele>1706.4</ele>
        <time>2023-05-18T10:16:23Z</time>
      </trkpt>
      <trkpt lat="44.63404" lon="5.78751">
        <ele>1706.6</ele>
        <time>2023-05-18T10:16:24Z</time>
      </trkpt>
      <trkpt lat="44.63403" lon="5.78752">
        <ele>1706.8</ele>
        <time>2023-05-18T10:16:25Z</time>
      </trkpt>
      <trkpt lat="44.63403" lon="5.78754">
        <ele>1707</ele>
        <time>2023-05-18T10:16:26Z</time>
      </trkpt>
      <trkpt lat="44.63403" lon="5.78756">
        <ele>1707</ele>
        <time>2023-05-18T10:16:27Z</time>
      </trkpt>
      <trkpt lat="44.63402" lon="5.78758">
        <ele>1707.2</ele>
        <time>2023-05-18T10:16:28Z</time>
      </trkpt>
      <trkpt lat="44.63401" lon="5.78761">
        <ele>1707.2</ele>
        <time>2023-05-18T10:16:30Z</time>
      </trkpt>
      <trkpt lat="44.63401" lon="5.78763">
        <ele>1707.2</ele>
        <time>2023-05-18T10:16:31Z</time>
      </trkpt>
      <trkpt lat="44.634" lon="5.78765">
        <ele>1707.4</ele>
        <time>2023-05-18T10:16:32Z</time>
      </trkpt>
      <trkpt lat="44.634" lon="5.78771">
        <ele>1707.4</ele>
        <time>2023-05-18T10:16:35Z</time>
      </trkpt>
      <trkpt lat="44.634" lon="5.78772">
        <ele>1707.4</ele>
        <time>2023-05-18T10:16:36Z</time>
      </trkpt>
      <trkpt lat="44.63401" lon="5.78775">
        <ele>1707.4</ele>
        <time>2023-05-18T10:16:37Z</time>
      </trkpt>
      <trkpt lat="44.63399" lon="5.78783">
        <ele>1707.6</ele>
        <time>2023-05-18T10:16:41Z</time>
      </trkpt>
      <trkpt lat="44.63397" lon="5.78801">
        <ele>1708</ele>
        <time>2023-05-18T10:16:50Z</time>
      </trkpt>
      <trkpt lat="44.63396" lon="5.78811">
        <ele>1708.2</ele>
        <time>2023-05-18T10:16:54Z</time>
      </trkpt>
      <trkpt lat="44.63396" lon="5.78812">
        <ele>1708.2</ele>
        <time>2023-05-18T10:16:55Z</time>
      </trkpt>
      <trkpt lat="44.63396" lon="5.78814">
        <ele>1708.2</ele>
        <time>2023-05-18T10:16:56Z</time>
      </trkpt>
      <trkpt lat="44.63396" lon="5.78816">
        <ele>1708.2</ele>
        <time>2023-05-18T10:16:57Z</time>
      </trkpt>
      <trkpt lat="44.63396" lon="5.78819">
        <ele>1708.2</ele>
        <time>2023-05-18T10:16:58Z</time>
      </trkpt>
      <trkpt lat="44.63395" lon="5.78823">
        <ele>1708.2</ele>
        <time>2023-05-18T10:17:00Z</time>
      </trkpt>
      <trkpt lat="44.63395" lon="5.78825">
        <ele>1708.2</ele>
        <time>2023-05-18T10:17:01Z</time>
      </trkpt>
      <trkpt lat="44.63395" lon="5.78827">
        <ele>1708.2</ele>
        <time>2023-05-18T10:17:02Z</time>
      </trkpt>
      <trkpt lat="44.63395" lon="5.7883">
        <ele>1708.2</ele>
        <time>2023-05-18T10:17:03Z</time>
      </trkpt>
      <trkpt lat="44.63396" lon="5.78831">
        <ele>1708.2</ele>
        <time>2023-05-18T10:17:04Z</time>
      </trkpt>
      <trkpt lat="44.63397" lon="5.78834">
        <ele>1708.2</ele>
        <time>2023-05-18T10:17:05Z</time>
      </trkpt>
      <trkpt lat="44.63397" lon="5.78836">
        <ele>1708.2</ele>
        <time>2023-05-18T10:17:06Z</time>
      </trkpt>
      <trkpt lat="44.63398" lon="5.78846">
        <ele>1708</ele>
        <time>2023-05-18T10:17:10Z</time>
      </trkpt>
      <trkpt lat="44.63397" lon="5.78848">
        <ele>1707.8</ele>
        <time>2023-05-18T10:17:11Z</time>
      </trkpt>
      <trkpt lat="44.63397" lon="5.78853">
        <ele>1707.6</ele>
        <time>2023-05-18T10:17:14Z</time>
      </trkpt>
      <trkpt lat="44.63397" lon="5.78855">
        <ele>1707.6</ele>
        <time>2023-05-18T10:17:15Z</time>
      </trkpt>
      <trkpt lat="44.63396" lon="5.78857">
        <ele>1707.6</ele>
        <time>2023-05-18T10:17:16Z</time>
      </trkpt>
      <trkpt lat="44.63393" lon="5.78867">
        <ele>1707.8</ele>
        <time>2023-05-18T10:17:22Z</time>
      </trkpt>
      <trkpt lat="44.63393" lon="5.78868">
        <ele>1708</ele>
        <time>2023-05-18T10:17:23Z</time>
      </trkpt>
      <trkpt lat="44.63393" lon="5.7887">
        <ele>1708</ele>
        <time>2023-05-18T10:17:24Z</time>
      </trkpt>
      <trkpt lat="44.63392" lon="5.78874">
        <ele>1708.4</ele>
        <time>2023-05-18T10:17:26Z</time>
      </trkpt>
      <trkpt lat="44.63392" lon="5.78876">
        <ele>1708.4</ele>
        <time>2023-05-18T10:17:27Z</time>
      </trkpt>
      <trkpt lat="44.63392" lon="5.78877">
        <ele>1708.6</ele>
        <time>2023-05-18T10:17:28Z</time>
      </trkpt>
      <trkpt lat="44.63391" lon="5.78878">
        <ele>1708.8</ele>
        <time>2023-05-18T10:17:29Z</time>
      </trkpt>
      <trkpt lat="44.63391" lon="5.7888">
        <ele>1709</ele>
        <time>2023-05-18T10:17:30Z</time>
      </trkpt>
      <trkpt lat="44.63391" lon="5.78882">
        <ele>1709.2</ele>
        <time>2023-05-18T10:17:31Z</time>
      </trkpt>
      <trkpt lat="44.63391" lon="5.78884">
        <ele>1709.2</ele>
        <time>2023-05-18T10:17:32Z</time>
      </trkpt>
      <trkpt lat="44.6339" lon="5.78885">
        <ele>1709.4</ele>
        <time>2023-05-18T10:17:33Z</time>
      </trkpt>
      <trkpt lat="44.6339" lon="5.78887">
        <ele>1709.4</ele>
        <time>2023-05-18T10:17:34Z</time>
      </trkpt>
      <trkpt lat="44.6339" lon="5.78892">
        <ele>1709.6</ele>
        <time>2023-05-18T10:17:36Z</time>
      </trkpt>
      <trkpt lat="44.6339" lon="5.78894">
        <ele>1709.6</ele>
        <time>2023-05-18T10:17:37Z</time>
      </trkpt>
      <trkpt lat="44.63389" lon="5.78896">
        <ele>1709.6</ele>
        <time>2023-05-18T10:17:38Z</time>
      </trkpt>
      <trkpt lat="44.6339" lon="5.78898">
        <ele>1709.6</ele>
        <time>2023-05-18T10:17:39Z</time>
      </trkpt>
      <trkpt lat="44.6339" lon="5.78904">
        <ele>1709.6</ele>
        <time>2023-05-18T10:17:42Z</time>
      </trkpt>
      <trkpt lat="44.6339" lon="5.78905">
        <ele>1709.6</ele>
        <time>2023-05-18T10:17:43Z</time>
      </trkpt>
      <trkpt lat="44.6339" lon="5.78907">
        <ele>1709.6</ele>
        <time>2023-05-18T10:17:44Z</time>
      </trkpt>
      <trkpt lat="44.6339" lon="5.78909">
        <ele>1709.8</ele>
        <time>2023-05-18T10:17:45Z</time>
      </trkpt>
      <trkpt lat="44.6339" lon="5.78912">
        <ele>1709.8</ele>
        <time>2023-05-18T10:17:47Z</time>
      </trkpt>
      <trkpt lat="44.6339" lon="5.78913">
        <ele>1710</ele>
        <time>2023-05-18T10:17:48Z</time>
      </trkpt>
      <trkpt lat="44.63389" lon="5.78914">
        <ele>1710</ele>
        <time>2023-05-18T10:17:49Z</time>
      </trkpt>
      <trkpt lat="44.63389" lon="5.78915">
        <ele>1710.2</ele>
        <time>2023-05-18T10:17:50Z</time>
      </trkpt>
      <trkpt lat="44.63389" lon="5.78917">
        <ele>1710.2</ele>
        <time>2023-05-18T10:17:51Z</time>
      </trkpt>
      <trkpt lat="44.6339" lon="5.78919">
        <ele>1710.2</ele>
        <time>2023-05-18T10:17:52Z</time>
      </trkpt>
      <trkpt lat="44.6339" lon="5.78921">
        <ele>1710.4</ele>
        <time>2023-05-18T10:17:53Z</time>
      </trkpt>
      <trkpt lat="44.6339" lon="5.78926">
        <ele>1710.8</ele>
        <time>2023-05-18T10:17:56Z</time>
      </trkpt>
      <trkpt lat="44.6339" lon="5.78927">
        <ele>1710.8</ele>
        <time>2023-05-18T10:17:57Z</time>
      </trkpt>
      <trkpt lat="44.6339" lon="5.7893">
        <ele>1710.6</ele>
        <time>2023-05-18T10:17:58Z</time>
      </trkpt>
      <trkpt lat="44.63389" lon="5.78936">
        <ele>1711</ele>
        <time>2023-05-18T10:18:01Z</time>
      </trkpt>
      <trkpt lat="44.63388" lon="5.7894">
        <ele>1711</ele>
        <time>2023-05-18T10:18:03Z</time>
      </trkpt>
      <trkpt lat="44.63388" lon="5.78942">
        <ele>1711.2</ele>
        <time>2023-05-18T10:18:04Z</time>
      </trkpt>
      <trkpt lat="44.63388" lon="5.78944">
        <ele>1711.2</ele>
        <time>2023-05-18T10:18:05Z</time>
      </trkpt>
      <trkpt lat="44.63388" lon="5.78948">
        <ele>1711.4</ele>
        <time>2023-05-18T10:18:07Z</time>
      </trkpt>
      <trkpt lat="44.63388" lon="5.7895">
        <ele>1711.4</ele>
        <time>2023-05-18T10:18:08Z</time>
      </trkpt>
      <trkpt lat="44.63388" lon="5.78952">
        <ele>1711.4</ele>
        <time>2023-05-18T10:18:09Z</time>
      </trkpt>
      <trkpt lat="44.63389" lon="5.78957">
        <ele>1711.4</ele>
        <time>2023-05-18T10:18:12Z</time>
      </trkpt>
      <trkpt lat="44.6339" lon="5.78959">
        <ele>1711.6</ele>
        <time>2023-05-18T10:18:13Z</time>
      </trkpt>
      <trkpt lat="44.6339" lon="5.78961">
        <ele>1711.6</ele>
        <time>2023-05-18T10:18:14Z</time>
      </trkpt>
      <trkpt lat="44.63391" lon="5.78963">
        <ele>1711.8</ele>
        <time>2023-05-18T10:18:15Z</time>
      </trkpt>
      <trkpt lat="44.63393" lon="5.7897">
        <ele>1711.8</ele>
        <time>2023-05-18T10:18:18Z</time>
      </trkpt>
      <trkpt lat="44.63392" lon="5.78973">
        <ele>1712</ele>
        <time>2023-05-18T10:18:20Z</time>
      </trkpt>
      <trkpt lat="44.63392" lon="5.78976">
        <ele>1712</ele>
        <time>2023-05-18T10:18:22Z</time>
      </trkpt>
      <trkpt lat="44.63392" lon="5.78978">
        <ele>1712</ele>
        <time>2023-05-18T10:18:23Z</time>
      </trkpt>
      <trkpt lat="44.6339" lon="5.78988">
        <ele>1712.4</ele>
        <time>2023-05-18T10:18:28Z</time>
      </trkpt>
      <trkpt lat="44.63389" lon="5.78991">
        <ele>1712.4</ele>
        <time>2023-05-18T10:18:29Z</time>
      </trkpt>
      <trkpt lat="44.63389" lon="5.78993">
        <ele>1712.6</ele>
        <time>2023-05-18T10:18:30Z</time>
      </trkpt>
      <trkpt lat="44.63388" lon="5.78997">
        <ele>1712.8</ele>
        <time>2023-05-18T10:18:33Z</time>
      </trkpt>
      <trkpt lat="44.63388" lon="5.78999">
        <ele>1712.8</ele>
        <time>2023-05-18T10:18:34Z</time>
      </trkpt>
      <trkpt lat="44.63388" lon="5.79001">
        <ele>1713</ele>
        <time>2023-05-18T10:18:35Z</time>
      </trkpt>
      <trkpt lat="44.63388" lon="5.79002">
        <ele>1713.2</ele>
        <time>2023-05-18T10:18:36Z</time>
      </trkpt>
      <trkpt lat="44.63387" lon="5.79005">
        <ele>1713.4</ele>
        <time>2023-05-18T10:18:38Z</time>
      </trkpt>
      <trkpt lat="44.63387" lon="5.79007">
        <ele>1713.4</ele>
        <time>2023-05-18T10:18:39Z</time>
      </trkpt>
      <trkpt lat="44.63387" lon="5.79009">
        <ele>1713.4</ele>
        <time>2023-05-18T10:18:40Z</time>
      </trkpt>
      <trkpt lat="44.63386" lon="5.79011">
        <ele>1713.6</ele>
        <time>2023-05-18T10:18:41Z</time>
      </trkpt>
      <trkpt lat="44.63386" lon="5.79012">
        <ele>1713.8</ele>
        <time>2023-05-18T10:18:42Z</time>
      </trkpt>
      <trkpt lat="44.63386" lon="5.79014">
        <ele>1713.8</ele>
        <time>2023-05-18T10:18:43Z</time>
      </trkpt>
      <trkpt lat="44.63384" lon="5.79019">
        <ele>1714.2</ele>
        <time>2023-05-18T10:18:46Z</time>
      </trkpt>
      <trkpt lat="44.63384" lon="5.79023">
        <ele>1714.4</ele>
        <time>2023-05-18T10:18:49Z</time>
      </trkpt>
      <trkpt lat="44.63384" lon="5.79024">
        <ele>1714.4</ele>
        <time>2023-05-18T10:18:50Z</time>
      </trkpt>
      <trkpt lat="44.63384" lon="5.79028">
        <ele>1714.6</ele>
        <time>2023-05-18T10:18:53Z</time>
      </trkpt>
      <trkpt lat="44.63384" lon="5.7903">
        <ele>1714.8</ele>
        <time>2023-05-18T10:18:54Z</time>
      </trkpt>
      <trkpt lat="44.63383" lon="5.79031">
        <ele>1714.8</ele>
        <time>2023-05-18T10:18:55Z</time>
      </trkpt>
      <trkpt lat="44.63383" lon="5.79033">
        <ele>1714.8</ele>
        <time>2023-05-18T10:18:56Z</time>
      </trkpt>
      <trkpt lat="44.63383" lon="5.79034">
        <ele>1715</ele>
        <time>2023-05-18T10:18:57Z</time>
      </trkpt>
      <trkpt lat="44.63382" lon="5.79038">
        <ele>1715.2</ele>
        <time>2023-05-18T10:18:59Z</time>
      </trkpt>
      <trkpt lat="44.63382" lon="5.79039">
        <ele>1715.2</ele>
        <time>2023-05-18T10:19:00Z</time>
      </trkpt>
      <trkpt lat="44.63382" lon="5.7904">
        <ele>1715.4</ele>
        <time>2023-05-18T10:19:01Z</time>
      </trkpt>
      <trkpt lat="44.63382" lon="5.79041">
        <ele>1715.4</ele>
        <time>2023-05-18T10:19:02Z</time>
      </trkpt>
      <trkpt lat="44.63382" lon="5.79042">
        <ele>1715.6</ele>
        <time>2023-05-18T10:19:03Z</time>
      </trkpt>
      <trkpt lat="44.63382" lon="5.79042">
        <ele>1715.8</ele>
        <time>2023-05-18T10:19:04Z</time>
      </trkpt>
      <trkpt lat="44.63382" lon="5.79042">
        <ele>1715.8</ele>
        <time>2023-05-18T10:19:05Z</time>
      </trkpt>
      <trkpt lat="44.63382" lon="5.79042">
        <ele>1716</ele>
        <time>2023-05-18T10:19:06Z</time>
      </trkpt>
      <trkpt lat="44.63381" lon="5.79044">
        <ele>1716.2</ele>
        <time>2023-05-18T10:19:10Z</time>
      </trkpt>
      <trkpt lat="44.63381" lon="5.79045">
        <ele>1716.4</ele>
        <time>2023-05-18T10:19:11Z</time>
      </trkpt>
      <trkpt lat="44.63381" lon="5.79047">
        <ele>1716.4</ele>
        <time>2023-05-18T10:19:12Z</time>
      </trkpt>
      <trkpt lat="44.6338" lon="5.79048">
        <ele>1716.4</ele>
        <time>2023-05-18T10:19:13Z</time>
      </trkpt>
      <trkpt lat="44.6338" lon="5.79051">
        <ele>1716.6</ele>
        <time>2023-05-18T10:19:15Z</time>
      </trkpt>
      <trkpt lat="44.63379" lon="5.79053">
        <ele>1716.6</ele>
        <time>2023-05-18T10:19:16Z</time>
      </trkpt>
      <trkpt lat="44.63379" lon="5.79054">
        <ele>1716.8</ele>
        <time>2023-05-18T10:19:17Z</time>
      </trkpt>
      <trkpt lat="44.63379" lon="5.79056">
        <ele>1716.8</ele>
        <time>2023-05-18T10:19:18Z</time>
      </trkpt>
      <trkpt lat="44.63379" lon="5.79056">
        <ele>1716.8</ele>
        <time>2023-05-18T10:19:19Z</time>
      </trkpt>
      <trkpt lat="44.63379" lon="5.79057">
        <ele>1717</ele>
        <time>2023-05-18T10:19:20Z</time>
      </trkpt>
      <trkpt lat="44.63378" lon="5.7906">
        <ele>1717</ele>
        <time>2023-05-18T10:19:22Z</time>
      </trkpt>
      <trkpt lat="44.63378" lon="5.79062">
        <ele>1717.2</ele>
        <time>2023-05-18T10:19:23Z</time>
      </trkpt>
      <trkpt lat="44.63377" lon="5.79064">
        <ele>1717.2</ele>
        <time>2023-05-18T10:19:24Z</time>
      </trkpt>
      <trkpt lat="44.63378" lon="5.79066">
        <ele>1717.4</ele>
        <time>2023-05-18T10:19:25Z</time>
      </trkpt>
      <trkpt lat="44.63377" lon="5.79069">
        <ele>1717.6</ele>
        <time>2023-05-18T10:19:27Z</time>
      </trkpt>
      <trkpt lat="44.63376" lon="5.79072">
        <ele>1717.8</ele>
        <time>2023-05-18T10:19:29Z</time>
      </trkpt>
      <trkpt lat="44.63375" lon="5.79073">
        <ele>1717.8</ele>
        <time>2023-05-18T10:19:30Z</time>
      </trkpt>
      <trkpt lat="44.63375" lon="5.79076">
        <ele>1718.4</ele>
        <time>2023-05-18T10:19:32Z</time>
      </trkpt>
      <trkpt lat="44.63375" lon="5.79077">
        <ele>1718.6</ele>
        <time>2023-05-18T10:19:33Z</time>
      </trkpt>
      <trkpt lat="44.63375" lon="5.79079">
        <ele>1718.6</ele>
        <time>2023-05-18T10:19:34Z</time>
      </trkpt>
      <trkpt lat="44.63374" lon="5.79083">
        <ele>1718.8</ele>
        <time>2023-05-18T10:19:37Z</time>
      </trkpt>
      <trkpt lat="44.63374" lon="5.79088">
        <ele>1719.2</ele>
        <time>2023-05-18T10:19:40Z</time>
      </trkpt>
      <trkpt lat="44.63374" lon="5.79089">
        <ele>1719.4</ele>
        <time>2023-05-18T10:19:41Z</time>
      </trkpt>
      <trkpt lat="44.63374" lon="5.7909">
        <ele>1719.6</ele>
        <time>2023-05-18T10:19:42Z</time>
      </trkpt>
      <trkpt lat="44.63374" lon="5.79092">
        <ele>1719.6</ele>
        <time>2023-05-18T10:19:43Z</time>
      </trkpt>
      <trkpt lat="44.63373" lon="5.79094">
        <ele>1719.8</ele>
        <time>2023-05-18T10:19:44Z</time>
      </trkpt>
      <trkpt lat="44.63373" lon="5.79095">
        <ele>1719.8</ele>
        <time>2023-05-18T10:19:45Z</time>
      </trkpt>
      <trkpt lat="44.63373" lon="5.79097">
        <ele>1719.8</ele>
        <time>2023-05-18T10:19:46Z</time>
      </trkpt>
      <trkpt lat="44.63373" lon="5.79098">
        <ele>1720</ele>
        <time>2023-05-18T10:19:47Z</time>
      </trkpt>
      <trkpt lat="44.63373" lon="5.79099">
        <ele>1720</ele>
        <time>2023-05-18T10:19:48Z</time>
      </trkpt>
      <trkpt lat="44.63372" lon="5.79101">
        <ele>1720.2</ele>
        <time>2023-05-18T10:19:49Z</time>
      </trkpt>
      <trkpt lat="44.63372" lon="5.79102">
        <ele>1720.2</ele>
        <time>2023-05-18T10:19:50Z</time>
      </trkpt>
      <trkpt lat="44.63372" lon="5.79104">
        <ele>1720.4</ele>
        <time>2023-05-18T10:19:51Z</time>
      </trkpt>
      <trkpt lat="44.63372" lon="5.79105">
        <ele>1720.4</ele>
        <time>2023-05-18T10:19:52Z</time>
      </trkpt>
      <trkpt lat="44.63372" lon="5.79107">
        <ele>1720.6</ele>
        <time>2023-05-18T10:19:53Z</time>
      </trkpt>
      <trkpt lat="44.63372" lon="5.79109">
        <ele>1720.8</ele>
        <time>2023-05-18T10:19:54Z</time>
      </trkpt>
      <trkpt lat="44.63372" lon="5.7911">
        <ele>1720.8</ele>
        <time>2023-05-18T10:19:55Z</time>
      </trkpt>
      <trkpt lat="44.63371" lon="5.79112">
        <ele>1720.8</ele>
        <time>2023-05-18T10:19:56Z</time>
      </trkpt>
      <trkpt lat="44.63371" lon="5.79114">
        <ele>1721</ele>
        <time>2023-05-18T10:19:57Z</time>
      </trkpt>
      <trkpt lat="44.63372" lon="5.79117">
        <ele>1721</ele>
        <time>2023-05-18T10:19:58Z</time>
      </trkpt>
      <trkpt lat="44.63372" lon="5.79118">
        <ele>1721.2</ele>
        <time>2023-05-18T10:19:59Z</time>
      </trkpt>
      <trkpt lat="44.63371" lon="5.79119">
        <ele>1721.2</ele>
        <time>2023-05-18T10:20:00Z</time>
      </trkpt>
      <trkpt lat="44.63371" lon="5.7912">
        <ele>1721.2</ele>
        <time>2023-05-18T10:20:01Z</time>
      </trkpt>
      <trkpt lat="44.63371" lon="5.79121">
        <ele>1721.4</ele>
        <time>2023-05-18T10:20:02Z</time>
      </trkpt>
      <trkpt lat="44.63371" lon="5.79122">
        <ele>1721.4</ele>
        <time>2023-05-18T10:20:03Z</time>
      </trkpt>
      <trkpt lat="44.63371" lon="5.79123">
        <ele>1721.6</ele>
        <time>2023-05-18T10:20:04Z</time>
      </trkpt>
      <trkpt lat="44.63371" lon="5.79124">
        <ele>1721.6</ele>
        <time>2023-05-18T10:20:05Z</time>
      </trkpt>
      <trkpt lat="44.63371" lon="5.79125">
        <ele>1721.8</ele>
        <time>2023-05-18T10:20:06Z</time>
      </trkpt>
      <trkpt lat="44.63371" lon="5.79128">
        <ele>1722</ele>
        <time>2023-05-18T10:20:08Z</time>
      </trkpt>
      <trkpt lat="44.63371" lon="5.79129">
        <ele>1722.2</ele>
        <time>2023-05-18T10:20:09Z</time>
      </trkpt>
      <trkpt lat="44.63371" lon="5.79129">
        <ele>1722.2</ele>
        <time>2023-05-18T10:20:10Z</time>
      </trkpt>
      <trkpt lat="44.63371" lon="5.79129">
        <ele>1722.6</ele>
        <time>2023-05-18T10:20:11Z</time>
      </trkpt>
      <trkpt lat="44.63371" lon="5.79129">
        <ele>1722.8</ele>
        <time>2023-05-18T10:20:12Z</time>
      </trkpt>
      <trkpt lat="44.63371" lon="5.7913">
        <ele>1722.8</ele>
        <time>2023-05-18T10:20:13Z</time>
      </trkpt>
      <trkpt lat="44.63371" lon="5.79131">
        <ele>1723.2</ele>
        <time>2023-05-18T10:20:15Z</time>
      </trkpt>
      <trkpt lat="44.63372" lon="5.79132">
        <ele>1723.4</ele>
        <time>2023-05-18T10:20:16Z</time>
      </trkpt>
      <trkpt lat="44.63371" lon="5.79132">
        <ele>1723.4</ele>
        <time>2023-05-18T10:20:17Z</time>
      </trkpt>
      <trkpt lat="44.63371" lon="5.79132">
        <ele>1723.4</ele>
        <time>2023-05-18T10:20:18Z</time>
      </trkpt>
      <trkpt lat="44.63371" lon="5.79132">
        <ele>1723.4</ele>
        <time>2023-05-18T10:20:19Z</time>
      </trkpt>
      <trkpt lat="44.63371" lon="5.79134">
        <ele>1723.6</ele>
        <time>2023-05-18T10:20:21Z</time>
      </trkpt>
      <trkpt lat="44.63372" lon="5.79135">
        <ele>1723.6</ele>
        <time>2023-05-18T10:20:22Z</time>
      </trkpt>
      <trkpt lat="44.63372" lon="5.79137">
        <ele>1723.8</ele>
        <time>2023-05-18T10:20:23Z</time>
      </trkpt>
      <trkpt lat="44.63372" lon="5.79138">
        <ele>1723.8</ele>
        <time>2023-05-18T10:20:24Z</time>
      </trkpt>
      <trkpt lat="44.63372" lon="5.79138">
        <ele>1723.8</ele>
        <time>2023-05-18T10:20:25Z</time>
      </trkpt>
      <trkpt lat="44.63372" lon="5.79139">
        <ele>1723.8</ele>
        <time>2023-05-18T10:20:26Z</time>
      </trkpt>
      <trkpt lat="44.63373" lon="5.79141">
        <ele>1724</ele>
        <time>2023-05-18T10:20:27Z</time>
      </trkpt>
      <trkpt lat="44.63373" lon="5.79142">
        <ele>1724</ele>
        <time>2023-05-18T10:20:28Z</time>
      </trkpt>
      <trkpt lat="44.63373" lon="5.79145">
        <ele>1724.4</ele>
        <time>2023-05-18T10:20:30Z</time>
      </trkpt>
      <trkpt lat="44.63373" lon="5.79147">
        <ele>1724.4</ele>
        <time>2023-05-18T10:20:31Z</time>
      </trkpt>
      <trkpt lat="44.63373" lon="5.79151">
        <ele>1724.8</ele>
        <time>2023-05-18T10:20:35Z</time>
      </trkpt>
      <trkpt lat="44.63373" lon="5.79151">
        <ele>1725</ele>
        <time>2023-05-18T10:20:36Z</time>
      </trkpt>
      <trkpt lat="44.63373" lon="5.79151">
        <ele>1725.2</ele>
        <time>2023-05-18T10:20:37Z</time>
      </trkpt>
      <trkpt lat="44.63373" lon="5.79152">
        <ele>1725.2</ele>
        <time>2023-05-18T10:20:38Z</time>
      </trkpt>
      <trkpt lat="44.63374" lon="5.79154">
        <ele>1725.4</ele>
        <time>2023-05-18T10:20:39Z</time>
      </trkpt>
      <trkpt lat="44.63375" lon="5.79163">
        <ele>1725.8</ele>
        <time>2023-05-18T10:20:43Z</time>
      </trkpt>
      <trkpt lat="44.63375" lon="5.79166">
        <ele>1725.8</ele>
        <time>2023-05-18T10:20:44Z</time>
      </trkpt>
      <trkpt lat="44.63375" lon="5.79168">
        <ele>1726</ele>
        <time>2023-05-18T10:20:45Z</time>
      </trkpt>
      <trkpt lat="44.63375" lon="5.7917">
        <ele>1726.2</ele>
        <time>2023-05-18T10:20:46Z</time>
      </trkpt>
      <trkpt lat="44.63374" lon="5.79173">
        <ele>1726.4</ele>
        <time>2023-05-18T10:20:47Z</time>
      </trkpt>
      <trkpt lat="44.63374" lon="5.79175">
        <ele>1726.4</ele>
        <time>2023-05-18T10:20:48Z</time>
      </trkpt>
      <trkpt lat="44.63374" lon="5.79178">
        <ele>1726.4</ele>
        <time>2023-05-18T10:20:49Z</time>
      </trkpt>
      <trkpt lat="44.63375" lon="5.7918">
        <ele>1726.6</ele>
        <time>2023-05-18T10:20:50Z</time>
      </trkpt>
      <trkpt lat="44.63374" lon="5.79182">
        <ele>1726.8</ele>
        <time>2023-05-18T10:20:51Z</time>
      </trkpt>
      <trkpt lat="44.63374" lon="5.79184">
        <ele>1727</ele>
        <time>2023-05-18T10:20:52Z</time>
      </trkpt>
      <trkpt lat="44.63374" lon="5.79185">
        <ele>1727</ele>
        <time>2023-05-18T10:20:53Z</time>
      </trkpt>
      <trkpt lat="44.63375" lon="5.79186">
        <ele>1727.2</ele>
        <time>2023-05-18T10:20:54Z</time>
      </trkpt>
      <trkpt lat="44.63375" lon="5.79187">
        <ele>1727.2</ele>
        <time>2023-05-18T10:20:55Z</time>
      </trkpt>
      <trkpt lat="44.63374" lon="5.79188">
        <ele>1727.4</ele>
        <time>2023-05-18T10:20:56Z</time>
      </trkpt>
      <trkpt lat="44.63374" lon="5.79188">
        <ele>1727.6</ele>
        <time>2023-05-18T10:20:57Z</time>
      </trkpt>
      <trkpt lat="44.63374" lon="5.7919">
        <ele>1727.8</ele>
        <time>2023-05-18T10:20:58Z</time>
      </trkpt>
      <trkpt lat="44.63374" lon="5.79192">
        <ele>1728</ele>
        <time>2023-05-18T10:20:59Z</time>
      </trkpt>
      <trkpt lat="44.63375" lon="5.79194">
        <ele>1728.2</ele>
        <time>2023-05-18T10:21:00Z</time>
      </trkpt>
      <trkpt lat="44.63375" lon="5.79197">
        <ele>1728</ele>
        <time>2023-05-18T10:21:01Z</time>
      </trkpt>
      <trkpt lat="44.63375" lon="5.79197">
        <ele>1728.2</ele>
        <time>2023-05-18T10:21:02Z</time>
      </trkpt>
      <trkpt lat="44.63375" lon="5.79198">
        <ele>1728.4</ele>
        <time>2023-05-18T10:21:03Z</time>
      </trkpt>
      <trkpt lat="44.63375" lon="5.79199">
        <ele>1728.4</ele>
        <time>2023-05-18T10:21:04Z</time>
      </trkpt>
      <trkpt lat="44.63375" lon="5.79201">
        <ele>1728.4</ele>
        <time>2023-05-18T10:21:05Z</time>
      </trkpt>
      <trkpt lat="44.63375" lon="5.79203">
        <ele>1728.4</ele>
        <time>2023-05-18T10:21:06Z</time>
      </trkpt>
      <trkpt lat="44.63375" lon="5.79205">
        <ele>1728.6</ele>
        <time>2023-05-18T10:21:07Z</time>
      </trkpt>
      <trkpt lat="44.63375" lon="5.79207">
        <ele>1728.8</ele>
        <time>2023-05-18T10:21:08Z</time>
      </trkpt>
      <trkpt lat="44.63376" lon="5.7921">
        <ele>1728.8</ele>
        <time>2023-05-18T10:21:09Z</time>
      </trkpt>
      <trkpt lat="44.63376" lon="5.79212">
        <ele>1729</ele>
        <time>2023-05-18T10:21:10Z</time>
      </trkpt>
      <trkpt lat="44.63377" lon="5.79214">
        <ele>1729</ele>
        <time>2023-05-18T10:21:11Z</time>
      </trkpt>
      <trkpt lat="44.63377" lon="5.79217">
        <ele>1729.2</ele>
        <time>2023-05-18T10:21:12Z</time>
      </trkpt>
      <trkpt lat="44.63378" lon="5.79219">
        <ele>1729.4</ele>
        <time>2023-05-18T10:21:13Z</time>
      </trkpt>
      <trkpt lat="44.63378" lon="5.79221">
        <ele>1729.6</ele>
        <time>2023-05-18T10:21:14Z</time>
      </trkpt>
      <trkpt lat="44.63378" lon="5.79222">
        <ele>1729.6</ele>
        <time>2023-05-18T10:21:15Z</time>
      </trkpt>
      <trkpt lat="44.63378" lon="5.79224">
        <ele>1729.8</ele>
        <time>2023-05-18T10:21:16Z</time>
      </trkpt>
      <trkpt lat="44.63378" lon="5.79226">
        <ele>1730</ele>
        <time>2023-05-18T10:21:17Z</time>
      </trkpt>
      <trkpt lat="44.63378" lon="5.79227">
        <ele>1730</ele>
        <time>2023-05-18T10:21:18Z</time>
      </trkpt>
      <trkpt lat="44.63378" lon="5.79229">
        <ele>1730.2</ele>
        <time>2023-05-18T10:21:19Z</time>
      </trkpt>
      <trkpt lat="44.63378" lon="5.7923">
        <ele>1730.2</ele>
        <time>2023-05-18T10:21:20Z</time>
      </trkpt>
      <trkpt lat="44.63378" lon="5.7923">
        <ele>1730.4</ele>
        <time>2023-05-18T10:21:21Z</time>
      </trkpt>
      <trkpt lat="44.63379" lon="5.79231">
        <ele>1730.4</ele>
        <time>2023-05-18T10:21:22Z</time>
      </trkpt>
      <trkpt lat="44.63379" lon="5.79233">
        <ele>1730.6</ele>
        <time>2023-05-18T10:21:23Z</time>
      </trkpt>
      <trkpt lat="44.63379" lon="5.79235">
        <ele>1730.8</ele>
        <time>2023-05-18T10:21:24Z</time>
      </trkpt>
      <trkpt lat="44.6338" lon="5.79238">
        <ele>1731</ele>
        <time>2023-05-18T10:21:25Z</time>
      </trkpt>
      <trkpt lat="44.63381" lon="5.79241">
        <ele>1731.2</ele>
        <time>2023-05-18T10:21:26Z</time>
      </trkpt>
      <trkpt lat="44.63381" lon="5.79242">
        <ele>1731.2</ele>
        <time>2023-05-18T10:21:27Z</time>
      </trkpt>
      <trkpt lat="44.63382" lon="5.79245">
        <ele>1731.4</ele>
        <time>2023-05-18T10:21:28Z</time>
      </trkpt>
      <trkpt lat="44.63382" lon="5.79247">
        <ele>1731.4</ele>
        <time>2023-05-18T10:21:29Z</time>
      </trkpt>
      <trkpt lat="44.63382" lon="5.79249">
        <ele>1731.8</ele>
        <time>2023-05-18T10:21:30Z</time>
      </trkpt>
      <trkpt lat="44.63382" lon="5.79251">
        <ele>1731.8</ele>
        <time>2023-05-18T10:21:31Z</time>
      </trkpt>
      <trkpt lat="44.63383" lon="5.79252">
        <ele>1732</ele>
        <time>2023-05-18T10:21:32Z</time>
      </trkpt>
      <trkpt lat="44.63383" lon="5.79252">
        <ele>1732</ele>
        <time>2023-05-18T10:21:33Z</time>
      </trkpt>
      <trkpt lat="44.63383" lon="5.79253">
        <ele>1732.2</ele>
        <time>2023-05-18T10:21:34Z</time>
      </trkpt>
      <trkpt lat="44.63383" lon="5.79254">
        <ele>1732.4</ele>
        <time>2023-05-18T10:21:35Z</time>
      </trkpt>
      <trkpt lat="44.63383" lon="5.79255">
        <ele>1732.4</ele>
        <time>2023-05-18T10:21:36Z</time>
      </trkpt>
      <trkpt lat="44.63383" lon="5.79257">
        <ele>1732.6</ele>
        <time>2023-05-18T10:21:37Z</time>
      </trkpt>
      <trkpt lat="44.63383" lon="5.7926">
        <ele>1732.8</ele>
        <time>2023-05-18T10:21:38Z</time>
      </trkpt>
      <trkpt lat="44.63385" lon="5.79263">
        <ele>1732.8</ele>
        <time>2023-05-18T10:21:39Z</time>
      </trkpt>
      <trkpt lat="44.63385" lon="5.79265">
        <ele>1733</ele>
        <time>2023-05-18T10:21:40Z</time>
      </trkpt>
      <trkpt lat="44.63385" lon="5.79266">
        <ele>1733</ele>
        <time>2023-05-18T10:21:41Z</time>
      </trkpt>
      <trkpt lat="44.63385" lon="5.79267">
        <ele>1733</ele>
        <time>2023-05-18T10:21:42Z</time>
      </trkpt>
      <trkpt lat="44.63385" lon="5.79269">
        <ele>1733.2</ele>
        <time>2023-05-18T10:21:43Z</time>
      </trkpt>
      <trkpt lat="44.63386" lon="5.7927">
        <ele>1733.4</ele>
        <time>2023-05-18T10:21:44Z</time>
      </trkpt>
      <trkpt lat="44.63386" lon="5.79273">
        <ele>1733.4</ele>
        <time>2023-05-18T10:21:45Z</time>
      </trkpt>
      <trkpt lat="44.63387" lon="5.79274">
        <ele>1733.6</ele>
        <time>2023-05-18T10:21:46Z</time>
      </trkpt>
      <trkpt lat="44.63387" lon="5.79275">
        <ele>1733.6</ele>
        <time>2023-05-18T10:21:47Z</time>
      </trkpt>
      <trkpt lat="44.63388" lon="5.79276">
        <ele>1733.8</ele>
        <time>2023-05-18T10:21:48Z</time>
      </trkpt>
      <trkpt lat="44.63389" lon="5.79278">
        <ele>1733.8</ele>
        <time>2023-05-18T10:21:49Z</time>
      </trkpt>
      <trkpt lat="44.63389" lon="5.79278">
        <ele>1733.8</ele>
        <time>2023-05-18T10:21:50Z</time>
      </trkpt>
      <trkpt lat="44.63389" lon="5.79279">
        <ele>1733.8</ele>
        <time>2023-05-18T10:21:51Z</time>
      </trkpt>
      <trkpt lat="44.63389" lon="5.79279">
        <ele>1734</ele>
        <time>2023-05-18T10:21:52Z</time>
      </trkpt>
      <trkpt lat="44.6339" lon="5.79281">
        <ele>1734.2</ele>
        <time>2023-05-18T10:21:53Z</time>
      </trkpt>
      <trkpt lat="44.6339" lon="5.79283">
        <ele>1734.2</ele>
        <time>2023-05-18T10:21:54Z</time>
      </trkpt>
      <trkpt lat="44.6339" lon="5.79285">
        <ele>1734.6</ele>
        <time>2023-05-18T10:21:55Z</time>
      </trkpt>
      <trkpt lat="44.6339" lon="5.79287">
        <ele>1734.6</ele>
        <time>2023-05-18T10:21:56Z</time>
      </trkpt>
      <trkpt lat="44.6339" lon="5.79288">
        <ele>1734.8</ele>
        <time>2023-05-18T10:21:57Z</time>
      </trkpt>
      <trkpt lat="44.63391" lon="5.7929">
        <ele>1734.8</ele>
        <time>2023-05-18T10:21:58Z</time>
      </trkpt>
      <trkpt lat="44.63391" lon="5.79291">
        <ele>1735</ele>
        <time>2023-05-18T10:21:59Z</time>
      </trkpt>
      <trkpt lat="44.63391" lon="5.79293">
        <ele>1735</ele>
        <time>2023-05-18T10:22:00Z</time>
      </trkpt>
      <trkpt lat="44.63392" lon="5.79294">
        <ele>1735</ele>
        <time>2023-05-18T10:22:01Z</time>
      </trkpt>
      <trkpt lat="44.63392" lon="5.79295">
        <ele>1735.2</ele>
        <time>2023-05-18T10:22:02Z</time>
      </trkpt>
      <trkpt lat="44.63393" lon="5.79297">
        <ele>1735.2</ele>
        <time>2023-05-18T10:22:03Z</time>
      </trkpt>
      <trkpt lat="44.63394" lon="5.79299">
        <ele>1735.2</ele>
        <time>2023-05-18T10:22:04Z</time>
      </trkpt>
      <trkpt lat="44.63395" lon="5.793">
        <ele>1735.2</ele>
        <time>2023-05-18T10:22:05Z</time>
      </trkpt>
      <trkpt lat="44.63396" lon="5.79302">
        <ele>1735.4</ele>
        <time>2023-05-18T10:22:06Z</time>
      </trkpt>
      <trkpt lat="44.63396" lon="5.79302">
        <ele>1735.4</ele>
        <time>2023-05-18T10:22:07Z</time>
      </trkpt>
      <trkpt lat="44.63396" lon="5.79302">
        <ele>1735.4</ele>
        <time>2023-05-18T10:22:08Z</time>
      </trkpt>
      <trkpt lat="44.63396" lon="5.79302">
        <ele>1735.4</ele>
        <time>2023-05-18T10:22:09Z</time>
      </trkpt>
      <trkpt lat="44.63396" lon="5.79302">
        <ele>1736</ele>
        <time>2023-05-18T10:22:12Z</time>
      </trkpt>
      <trkpt lat="44.63397" lon="5.79304">
        <ele>1736.4</ele>
        <time>2023-05-18T10:22:15Z</time>
      </trkpt>
      <trkpt lat="44.63397" lon="5.79305">
        <ele>1736.4</ele>
        <time>2023-05-18T10:22:16Z</time>
      </trkpt>
      <trkpt lat="44.63398" lon="5.79305">
        <ele>1736.4</ele>
        <time>2023-05-18T10:22:17Z</time>
      </trkpt>
      <trkpt lat="44.63398" lon="5.79305">
        <ele>1736.6</ele>
        <time>2023-05-18T10:22:18Z</time>
      </trkpt>
      <trkpt lat="44.634" lon="5.79307">
        <ele>1736.8</ele>
        <time>2023-05-18T10:22:22Z</time>
      </trkpt>
      <trkpt lat="44.63399" lon="5.79308">
        <ele>1736.8</ele>
        <time>2023-05-18T10:22:23Z</time>
      </trkpt>
      <trkpt lat="44.63399" lon="5.7931">
        <ele>1737</ele>
        <time>2023-05-18T10:22:25Z</time>
      </trkpt>
      <trkpt lat="44.63399" lon="5.7931">
        <ele>1737.2</ele>
        <time>2023-05-18T10:22:26Z</time>
      </trkpt>
      <trkpt lat="44.63399" lon="5.79311">
        <ele>1737.2</ele>
        <time>2023-05-18T10:22:28Z</time>
      </trkpt>
      <trkpt lat="44.634" lon="5.79312">
        <ele>1737.2</ele>
        <time>2023-05-18T10:22:30Z</time>
      </trkpt>
      <trkpt lat="44.63401" lon="5.79313">
        <ele>1737.2</ele>
        <time>2023-05-18T10:22:31Z</time>
      </trkpt>
      <trkpt lat="44.63402" lon="5.79317">
        <ele>1737.2</ele>
        <time>2023-05-18T10:22:33Z</time>
      </trkpt>
      <trkpt lat="44.63406" lon="5.79324">
        <ele>1737.4</ele>
        <time>2023-05-18T10:22:38Z</time>
      </trkpt>
      <trkpt lat="44.63406" lon="5.79324">
        <ele>1737.4</ele>
        <time>2023-05-18T10:22:39Z</time>
      </trkpt>
      <trkpt lat="44.63407" lon="5.79326">
        <ele>1738.2</ele>
        <time>2023-05-18T10:22:45Z</time>
      </trkpt>
      <trkpt lat="44.6341" lon="5.79332">
        <ele>1738.6</ele>
        <time>2023-05-18T10:22:52Z</time>
      </trkpt>
      <trkpt lat="44.63411" lon="5.79333">
        <ele>1739</ele>
        <time>2023-05-18T10:22:53Z</time>
      </trkpt>
      <trkpt lat="44.63411" lon="5.79334">
        <ele>1738.8</ele>
        <time>2023-05-18T10:22:54Z</time>
      </trkpt>
      <trkpt lat="44.63417" lon="5.79346">
        <ele>1739.4</ele>
        <time>2023-05-18T10:23:02Z</time>
      </trkpt>
      <trkpt lat="44.63421" lon="5.79353">
        <ele>1740</ele>
        <time>2023-05-18T10:23:08Z</time>
      </trkpt>
      <trkpt lat="44.63421" lon="5.79355">
        <ele>1740.2</ele>
        <time>2023-05-18T10:23:09Z</time>
      </trkpt>
      <trkpt lat="44.63421" lon="5.79355">
        <ele>1740.4</ele>
        <time>2023-05-18T10:23:10Z</time>
      </trkpt>
      <trkpt lat="44.63421" lon="5.79354">
        <ele>1740.6</ele>
        <time>2023-05-18T10:23:11Z</time>
      </trkpt>
      <trkpt lat="44.63421" lon="5.79354">
        <ele>1740.6</ele>
        <time>2023-05-18T10:23:12Z</time>
      </trkpt>
      <trkpt lat="44.63421" lon="5.79356">
        <ele>1741</ele>
        <time>2023-05-18T10:23:16Z</time>
      </trkpt>
      <trkpt lat="44.63422" lon="5.79357">
        <ele>1741</ele>
        <time>2023-05-18T10:23:17Z</time>
      </trkpt>
      <trkpt lat="44.63422" lon="5.79357">
        <ele>1741</ele>
        <time>2023-05-18T10:23:18Z</time>
      </trkpt>
      <trkpt lat="44.63422" lon="5.79357">
        <ele>1741</ele>
        <time>2023-05-18T10:23:19Z</time>
      </trkpt>
      <trkpt lat="44.63422" lon="5.79358">
        <ele>1741.2</ele>
        <time>2023-05-18T10:23:20Z</time>
      </trkpt>
      <trkpt lat="44.63422" lon="5.79359">
        <ele>1741.2</ele>
        <time>2023-05-18T10:23:21Z</time>
      </trkpt>
      <trkpt lat="44.63422" lon="5.79361">
        <ele>1741.2</ele>
        <time>2023-05-18T10:23:22Z</time>
      </trkpt>
      <trkpt lat="44.63422" lon="5.79362">
        <ele>1741.4</ele>
        <time>2023-05-18T10:23:23Z</time>
      </trkpt>
      <trkpt lat="44.63422" lon="5.79363">
        <ele>1741.4</ele>
        <time>2023-05-18T10:23:24Z</time>
      </trkpt>
      <trkpt lat="44.63422" lon="5.79364">
        <ele>1741.6</ele>
        <time>2023-05-18T10:23:25Z</time>
      </trkpt>
      <trkpt lat="44.63422" lon="5.79365">
        <ele>1741.6</ele>
        <time>2023-05-18T10:23:26Z</time>
      </trkpt>
      <trkpt lat="44.63424" lon="5.79367">
        <ele>1741.8</ele>
        <time>2023-05-18T10:23:28Z</time>
      </trkpt>
      <trkpt lat="44.63425" lon="5.7937">
        <ele>1742</ele>
        <time>2023-05-18T10:23:30Z</time>
      </trkpt>
      <trkpt lat="44.63425" lon="5.79371">
        <ele>1742.2</ele>
        <time>2023-05-18T10:23:33Z</time>
      </trkpt>
      <trkpt lat="44.63426" lon="5.79375">
        <ele>1742.6</ele>
        <time>2023-05-18T10:23:38Z</time>
      </trkpt>
      <trkpt lat="44.63427" lon="5.79378">
        <ele>1743</ele>
        <time>2023-05-18T10:23:41Z</time>
      </trkpt>
      <trkpt lat="44.63428" lon="5.79379">
        <ele>1743</ele>
        <time>2023-05-18T10:23:42Z</time>
      </trkpt>
      <trkpt lat="44.63428" lon="5.7938">
        <ele>1743</ele>
        <time>2023-05-18T10:23:43Z</time>
      </trkpt>
      <trkpt lat="44.63429" lon="5.79381">
        <ele>1743</ele>
        <time>2023-05-18T10:23:44Z</time>
      </trkpt>
      <trkpt lat="44.63431" lon="5.79386">
        <ele>1743.2</ele>
        <time>2023-05-18T10:23:50Z</time>
      </trkpt>
      <trkpt lat="44.63433" lon="5.79391">
        <ele>1743.4</ele>
        <time>2023-05-18T10:23:53Z</time>
      </trkpt>
      <trkpt lat="44.63433" lon="5.79392">
        <ele>1743.4</ele>
        <time>2023-05-18T10:23:54Z</time>
      </trkpt>
      <trkpt lat="44.63434" lon="5.79393">
        <ele>1743.4</ele>
        <time>2023-05-18T10:23:55Z</time>
      </trkpt>
      <trkpt lat="44.63435" lon="5.79394">
        <ele>1743.6</ele>
        <time>2023-05-18T10:23:56Z</time>
      </trkpt>
      <trkpt lat="44.63435" lon="5.79396">
        <ele>1743.6</ele>
        <time>2023-05-18T10:23:57Z</time>
      </trkpt>
      <trkpt lat="44.63435" lon="5.79397">
        <ele>1743.8</ele>
        <time>2023-05-18T10:23:58Z</time>
      </trkpt>
      <trkpt lat="44.63435" lon="5.79398">
        <ele>1743.8</ele>
        <time>2023-05-18T10:23:59Z</time>
      </trkpt>
      <trkpt lat="44.63435" lon="5.79399">
        <ele>1744</ele>
        <time>2023-05-18T10:24:00Z</time>
      </trkpt>
      <trkpt lat="44.63435" lon="5.794">
        <ele>1744</ele>
        <time>2023-05-18T10:24:01Z</time>
      </trkpt>
      <trkpt lat="44.63435" lon="5.79402">
        <ele>1744</ele>
        <time>2023-05-18T10:24:02Z</time>
      </trkpt>
      <trkpt lat="44.63435" lon="5.79403">
        <ele>1744</ele>
        <time>2023-05-18T10:24:03Z</time>
      </trkpt>
      <trkpt lat="44.63435" lon="5.79403">
        <ele>1744</ele>
        <time>2023-05-18T10:24:04Z</time>
      </trkpt>
      <trkpt lat="44.63436" lon="5.79404">
        <ele>1744.2</ele>
        <time>2023-05-18T10:24:05Z</time>
      </trkpt>
      <trkpt lat="44.63437" lon="5.79404">
        <ele>1744.2</ele>
        <time>2023-05-18T10:24:06Z</time>
      </trkpt>
      <trkpt lat="44.63437" lon="5.79404">
        <ele>1744.2</ele>
        <time>2023-05-18T10:24:07Z</time>
      </trkpt>
      <trkpt lat="44.63437" lon="5.79404">
        <ele>1744.2</ele>
        <time>2023-05-18T10:24:08Z</time>
      </trkpt>
      <trkpt lat="44.63437" lon="5.79405">
        <ele>1744.2</ele>
        <time>2023-05-18T10:24:09Z</time>
      </trkpt>
      <trkpt lat="44.63437" lon="5.79406">
        <ele>1744.4</ele>
        <time>2023-05-18T10:24:11Z</time>
      </trkpt>
      <trkpt lat="44.63437" lon="5.79406">
        <ele>1744.4</ele>
        <time>2023-05-18T10:24:12Z</time>
      </trkpt>
      <trkpt lat="44.63437" lon="5.79406">
        <ele>1744.4</ele>
        <time>2023-05-18T10:24:13Z</time>
      </trkpt>
      <trkpt lat="44.63436" lon="5.79408">
        <ele>1744.6</ele>
        <time>2023-05-18T10:24:15Z</time>
      </trkpt>
      <trkpt lat="44.63436" lon="5.7941">
        <ele>1744.8</ele>
        <time>2023-05-18T10:24:16Z</time>
      </trkpt>
      <trkpt lat="44.63434" lon="5.79413">
        <ele>1745</ele>
        <time>2023-05-18T10:24:18Z</time>
      </trkpt>
      <trkpt lat="44.63434" lon="5.79413">
        <ele>1745</ele>
        <time>2023-05-18T10:24:19Z</time>
      </trkpt>
      <trkpt lat="44.63434" lon="5.79414">
        <ele>1745.2</ele>
        <time>2023-05-18T10:24:20Z</time>
      </trkpt>
      <trkpt lat="44.63434" lon="5.79416">
        <ele>1745.4</ele>
        <time>2023-05-18T10:24:21Z</time>
      </trkpt>
      <trkpt lat="44.63434" lon="5.79418">
        <ele>1745.6</ele>
        <time>2023-05-18T10:24:23Z</time>
      </trkpt>
      <trkpt lat="44.63434" lon="5.79418">
        <ele>1745.6</ele>
        <time>2023-05-18T10:24:24Z</time>
      </trkpt>
      <trkpt lat="44.63434" lon="5.79418">
        <ele>1745.6</ele>
        <time>2023-05-18T10:24:25Z</time>
      </trkpt>
      <trkpt lat="44.63435" lon="5.79419">
        <ele>1746</ele>
        <time>2023-05-18T10:24:27Z</time>
      </trkpt>
      <trkpt lat="44.63434" lon="5.7942">
        <ele>1746.2</ele>
        <time>2023-05-18T10:24:28Z</time>
      </trkpt>
      <trkpt lat="44.63434" lon="5.7942">
        <ele>1746.2</ele>
        <time>2023-05-18T10:24:29Z</time>
      </trkpt>
      <trkpt lat="44.63434" lon="5.7942">
        <ele>1746.4</ele>
        <time>2023-05-18T10:24:30Z</time>
      </trkpt>
      <trkpt lat="44.63433" lon="5.79421">
        <ele>1746.4</ele>
        <time>2023-05-18T10:24:32Z</time>
      </trkpt>
      <trkpt lat="44.63433" lon="5.79421">
        <ele>1746.4</ele>
        <time>2023-05-18T10:24:33Z</time>
      </trkpt>
      <trkpt lat="44.63433" lon="5.79421">
        <ele>1746.6</ele>
        <time>2023-05-18T10:24:34Z</time>
      </trkpt>
      <trkpt lat="44.63433" lon="5.79421">
        <ele>1746.8</ele>
        <time>2023-05-18T10:24:36Z</time>
      </trkpt>
      <trkpt lat="44.63432" lon="5.7942">
        <ele>1747</ele>
        <time>2023-05-18T10:24:38Z</time>
      </trkpt>
      <trkpt lat="44.63432" lon="5.7942">
        <ele>1747.2</ele>
        <time>2023-05-18T10:24:40Z</time>
      </trkpt>
      <trkpt lat="44.63432" lon="5.79422">
        <ele>1747.6</ele>
        <time>2023-05-18T10:24:46Z</time>
      </trkpt>
      <trkpt lat="44.63432" lon="5.79422">
        <ele>1747.6</ele>
        <time>2023-05-18T10:24:48Z</time>
      </trkpt>
      <trkpt lat="44.63431" lon="5.79423">
        <ele>1747.8</ele>
        <time>2023-05-18T10:24:50Z</time>
      </trkpt>
      <trkpt lat="44.6343" lon="5.79425">
        <ele>1748.2</ele>
        <time>2023-05-18T10:25:01Z</time>
      </trkpt>
      <trkpt lat="44.6343" lon="5.79426">
        <ele>1748.2</ele>
        <time>2023-05-18T10:25:02Z</time>
      </trkpt>
      <trkpt lat="44.63429" lon="5.79427">
        <ele>1748.2</ele>
        <time>2023-05-18T10:25:03Z</time>
      </trkpt>
      <trkpt lat="44.63428" lon="5.79428">
        <ele>1748.2</ele>
        <time>2023-05-18T10:25:04Z</time>
      </trkpt>
      <trkpt lat="44.63427" lon="5.79429">
        <ele>1748.2</ele>
        <time>2023-05-18T10:25:05Z</time>
      </trkpt>
      <trkpt lat="44.63426" lon="5.7943">
        <ele>1748.2</ele>
        <time>2023-05-18T10:25:06Z</time>
      </trkpt>
      <trkpt lat="44.63425" lon="5.79431">
        <ele>1748.4</ele>
        <time>2023-05-18T10:25:07Z</time>
      </trkpt>
      <trkpt lat="44.63424" lon="5.79432">
        <ele>1748.4</ele>
        <time>2023-05-18T10:25:08Z</time>
      </trkpt>
      <trkpt lat="44.63424" lon="5.79434">
        <ele>1748.6</ele>
        <time>2023-05-18T10:25:09Z</time>
      </trkpt>
      <trkpt lat="44.63423" lon="5.79435">
        <ele>1748.8</ele>
        <time>2023-05-18T10:25:10Z</time>
      </trkpt>
      <trkpt lat="44.63423" lon="5.79435">
        <ele>1748.8</ele>
        <time>2023-05-18T10:25:11Z</time>
      </trkpt>
      <trkpt lat="44.63423" lon="5.79435">
        <ele>1749</ele>
        <time>2023-05-18T10:25:13Z</time>
      </trkpt>
      <trkpt lat="44.63423" lon="5.79436">
        <ele>1749</ele>
        <time>2023-05-18T10:25:14Z</time>
      </trkpt>
      <trkpt lat="44.63423" lon="5.79438">
        <ele>1749.2</ele>
        <time>2023-05-18T10:25:16Z</time>
      </trkpt>
      <trkpt lat="44.63422" lon="5.79439">
        <ele>1749.4</ele>
        <time>2023-05-18T10:25:17Z</time>
      </trkpt>
      <trkpt lat="44.63422" lon="5.7944">
        <ele>1749.6</ele>
        <time>2023-05-18T10:25:18Z</time>
      </trkpt>
      <trkpt lat="44.63422" lon="5.7944">
        <ele>1749.6</ele>
        <time>2023-05-18T10:25:19Z</time>
      </trkpt>
      <trkpt lat="44.63422" lon="5.7944">
        <ele>1749.6</ele>
        <time>2023-05-18T10:25:20Z</time>
      </trkpt>
      <trkpt lat="44.63422" lon="5.7944">
        <ele>1750</ele>
        <time>2023-05-18T10:25:22Z</time>
      </trkpt>
      <trkpt lat="44.6342" lon="5.7944">
        <ele>1750</ele>
        <time>2023-05-18T10:25:25Z</time>
      </trkpt>
      <trkpt lat="44.63419" lon="5.79441">
        <ele>1750.4</ele>
        <time>2023-05-18T10:25:27Z</time>
      </trkpt>
      <trkpt lat="44.63418" lon="5.79441">
        <ele>1750.4</ele>
        <time>2023-05-18T10:25:28Z</time>
      </trkpt>
      <trkpt lat="44.63417" lon="5.79441">
        <ele>1750.4</ele>
        <time>2023-05-18T10:25:29Z</time>
      </trkpt>
      <trkpt lat="44.63417" lon="5.79441">
        <ele>1750.4</ele>
        <time>2023-05-18T10:25:30Z</time>
      </trkpt>
      <trkpt lat="44.63415" lon="5.79442">
        <ele>1750.6</ele>
        <time>2023-05-18T10:25:31Z</time>
      </trkpt>
      <trkpt lat="44.6341" lon="5.79443">
        <ele>1750.8</ele>
        <time>2023-05-18T10:25:34Z</time>
      </trkpt>
      <trkpt lat="44.63408" lon="5.79445">
        <ele>1751</ele>
        <time>2023-05-18T10:25:35Z</time>
      </trkpt>
      <trkpt lat="44.63407" lon="5.79446">
        <ele>1751</ele>
        <time>2023-05-18T10:25:36Z</time>
      </trkpt>
      <trkpt lat="44.63406" lon="5.79448">
        <ele>1751.2</ele>
        <time>2023-05-18T10:25:37Z</time>
      </trkpt>
      <trkpt lat="44.63405" lon="5.7945">
        <ele>1751.2</ele>
        <time>2023-05-18T10:25:38Z</time>
      </trkpt>
      <trkpt lat="44.63404" lon="5.79451">
        <ele>1751.2</ele>
        <time>2023-05-18T10:25:39Z</time>
      </trkpt>
      <trkpt lat="44.63404" lon="5.79454">
        <ele>1751.2</ele>
        <time>2023-05-18T10:25:40Z</time>
      </trkpt>
      <trkpt lat="44.63404" lon="5.79455">
        <ele>1751.2</ele>
        <time>2023-05-18T10:25:41Z</time>
      </trkpt>
      <trkpt lat="44.63403" lon="5.79458">
        <ele>1751.4</ele>
        <time>2023-05-18T10:25:42Z</time>
      </trkpt>
      <trkpt lat="44.63402" lon="5.79462">
        <ele>1751.4</ele>
        <time>2023-05-18T10:25:44Z</time>
      </trkpt>
      <trkpt lat="44.63401" lon="5.79465">
        <ele>1751.4</ele>
        <time>2023-05-18T10:25:45Z</time>
      </trkpt>
      <trkpt lat="44.63399" lon="5.79467">
        <ele>1751.6</ele>
        <time>2023-05-18T10:25:46Z</time>
      </trkpt>
      <trkpt lat="44.63398" lon="5.79468">
        <ele>1751.8</ele>
        <time>2023-05-18T10:25:47Z</time>
      </trkpt>
      <trkpt lat="44.63397" lon="5.79469">
        <ele>1751.8</ele>
        <time>2023-05-18T10:25:48Z</time>
      </trkpt>
      <trkpt lat="44.63396" lon="5.79472">
        <ele>1751.8</ele>
        <time>2023-05-18T10:25:49Z</time>
      </trkpt>
      <trkpt lat="44.63396" lon="5.79474">
        <ele>1752</ele>
        <time>2023-05-18T10:25:50Z</time>
      </trkpt>
      <trkpt lat="44.63397" lon="5.79475">
        <ele>1752</ele>
        <time>2023-05-18T10:25:51Z</time>
      </trkpt>
      <trkpt lat="44.63396" lon="5.79479">
        <ele>1752</ele>
        <time>2023-05-18T10:25:52Z</time>
      </trkpt>
      <trkpt lat="44.63395" lon="5.79481">
        <ele>1752.2</ele>
        <time>2023-05-18T10:25:53Z</time>
      </trkpt>
      <trkpt lat="44.63395" lon="5.79482">
        <ele>1752.2</ele>
        <time>2023-05-18T10:25:54Z</time>
      </trkpt>
      <trkpt lat="44.63395" lon="5.79483">
        <ele>1752.6</ele>
        <time>2023-05-18T10:25:56Z</time>
      </trkpt>
      <trkpt lat="44.63395" lon="5.79483">
        <ele>1752.6</ele>
        <time>2023-05-18T10:25:57Z</time>
      </trkpt>
      <trkpt lat="44.63395" lon="5.79484">
        <ele>1752.8</ele>
        <time>2023-05-18T10:26:00Z</time>
      </trkpt>
      <trkpt lat="44.63395" lon="5.79485">
        <ele>1753</ele>
        <time>2023-05-18T10:26:01Z</time>
      </trkpt>
      <trkpt lat="44.63395" lon="5.79486">
        <ele>1753.2</ele>
        <time>2023-05-18T10:26:02Z</time>
      </trkpt>
      <trkpt lat="44.63396" lon="5.79488">
        <ele>1753.2</ele>
        <time>2023-05-18T10:26:03Z</time>
      </trkpt>
      <trkpt lat="44.63396" lon="5.79496">
        <ele>1753.4</ele>
        <time>2023-05-18T10:26:07Z</time>
      </trkpt>
      <trkpt lat="44.63397" lon="5.79498">
        <ele>1753.4</ele>
        <time>2023-05-18T10:26:08Z</time>
      </trkpt>
      <trkpt lat="44.63397" lon="5.795">
        <ele>1753.4</ele>
        <time>2023-05-18T10:26:09Z</time>
      </trkpt>
      <trkpt lat="44.63399" lon="5.79512">
        <ele>1753.8</ele>
        <time>2023-05-18T10:26:16Z</time>
      </trkpt>
      <trkpt lat="44.634" lon="5.79514">
        <ele>1753.8</ele>
        <time>2023-05-18T10:26:17Z</time>
      </trkpt>
      <trkpt lat="44.634" lon="5.79516">
        <ele>1754</ele>
        <time>2023-05-18T10:26:18Z</time>
      </trkpt>
      <trkpt lat="44.63401" lon="5.79517">
        <ele>1754</ele>
        <time>2023-05-18T10:26:19Z</time>
      </trkpt>
      <trkpt lat="44.63401" lon="5.79519">
        <ele>1754</ele>
        <time>2023-05-18T10:26:20Z</time>
      </trkpt>
      <trkpt lat="44.63402" lon="5.79521">
        <ele>1754.2</ele>
        <time>2023-05-18T10:26:21Z</time>
      </trkpt>
      <trkpt lat="44.63402" lon="5.79525">
        <ele>1754.2</ele>
        <time>2023-05-18T10:26:23Z</time>
      </trkpt>
      <trkpt lat="44.63405" lon="5.7953">
        <ele>1754.6</ele>
        <time>2023-05-18T10:26:26Z</time>
      </trkpt>
      <trkpt lat="44.63406" lon="5.79532">
        <ele>1754.6</ele>
        <time>2023-05-18T10:26:27Z</time>
      </trkpt>
      <trkpt lat="44.63408" lon="5.79539">
        <ele>1754.8</ele>
        <time>2023-05-18T10:26:31Z</time>
      </trkpt>
      <trkpt lat="44.63408" lon="5.7954">
        <ele>1754.8</ele>
        <time>2023-05-18T10:26:32Z</time>
      </trkpt>
      <trkpt lat="44.63408" lon="5.79542">
        <ele>1755</ele>
        <time>2023-05-18T10:26:33Z</time>
      </trkpt>
      <trkpt lat="44.63408" lon="5.79543">
        <ele>1755</ele>
        <time>2023-05-18T10:26:34Z</time>
      </trkpt>
      <trkpt lat="44.63408" lon="5.79545">
        <ele>1755</ele>
        <time>2023-05-18T10:26:35Z</time>
      </trkpt>
      <trkpt lat="44.63409" lon="5.79546">
        <ele>1755.2</ele>
        <time>2023-05-18T10:26:36Z</time>
      </trkpt>
      <trkpt lat="44.63409" lon="5.79548">
        <ele>1755.2</ele>
        <time>2023-05-18T10:26:37Z</time>
      </trkpt>
      <trkpt lat="44.6341" lon="5.7955">
        <ele>1755.4</ele>
        <time>2023-05-18T10:26:38Z</time>
      </trkpt>
      <trkpt lat="44.63414" lon="5.79559">
        <ele>1755.6</ele>
        <time>2023-05-18T10:26:43Z</time>
      </trkpt>
      <trkpt lat="44.63414" lon="5.7956">
        <ele>1756</ele>
        <time>2023-05-18T10:26:44Z</time>
      </trkpt>
      <trkpt lat="44.63415" lon="5.79561">
        <ele>1756</ele>
        <time>2023-05-18T10:26:45Z</time>
      </trkpt>
      <trkpt lat="44.6342" lon="5.79569">
        <ele>1756.2</ele>
        <time>2023-05-18T10:26:50Z</time>
      </trkpt>
      <trkpt lat="44.63421" lon="5.79571">
        <ele>1756.2</ele>
        <time>2023-05-18T10:26:51Z</time>
      </trkpt>
      <trkpt lat="44.63421" lon="5.79573">
        <ele>1756.2</ele>
        <time>2023-05-18T10:26:52Z</time>
      </trkpt>
      <trkpt lat="44.63422" lon="5.79574">
        <ele>1756.2</ele>
        <time>2023-05-18T10:26:53Z</time>
      </trkpt>
      <trkpt lat="44.63426" lon="5.7958">
        <ele>1756.4</ele>
        <time>2023-05-18T10:26:57Z</time>
      </trkpt>
      <trkpt lat="44.63428" lon="5.79582">
        <ele>1756.6</ele>
        <time>2023-05-18T10:27:00Z</time>
      </trkpt>
      <trkpt lat="44.63429" lon="5.79583">
        <ele>1756.8</ele>
        <time>2023-05-18T10:27:01Z</time>
      </trkpt>
      <trkpt lat="44.63429" lon="5.79585">
        <ele>1756.8</ele>
        <time>2023-05-18T10:27:02Z</time>
      </trkpt>
      <trkpt lat="44.63431" lon="5.79588">
        <ele>1756.8</ele>
        <time>2023-05-18T10:27:04Z</time>
      </trkpt>
      <trkpt lat="44.63432" lon="5.79589">
        <ele>1757</ele>
        <time>2023-05-18T10:27:05Z</time>
      </trkpt>
      <trkpt lat="44.63433" lon="5.7959">
        <ele>1757</ele>
        <time>2023-05-18T10:27:06Z</time>
      </trkpt>
      <trkpt lat="44.63434" lon="5.79591">
        <ele>1757</ele>
        <time>2023-05-18T10:27:07Z</time>
      </trkpt>
      <trkpt lat="44.63436" lon="5.79592">
        <ele>1757</ele>
        <time>2023-05-18T10:27:08Z</time>
      </trkpt>
      <trkpt lat="44.63437" lon="5.79593">
        <ele>1757</ele>
        <time>2023-05-18T10:27:09Z</time>
      </trkpt>
      <trkpt lat="44.63438" lon="5.79593">
        <ele>1757.2</ele>
        <time>2023-05-18T10:27:10Z</time>
      </trkpt>
      <trkpt lat="44.63438" lon="5.79594">
        <ele>1757.2</ele>
        <time>2023-05-18T10:27:11Z</time>
      </trkpt>
      <trkpt lat="44.63439" lon="5.79596">
        <ele>1757.2</ele>
        <time>2023-05-18T10:27:12Z</time>
      </trkpt>
      <trkpt lat="44.63441" lon="5.79599">
        <ele>1757.4</ele>
        <time>2023-05-18T10:27:14Z</time>
      </trkpt>
      <trkpt lat="44.63443" lon="5.79599">
        <ele>1757.4</ele>
        <time>2023-05-18T10:27:15Z</time>
      </trkpt>
      <trkpt lat="44.63444" lon="5.796">
        <ele>1758</ele>
        <time>2023-05-18T10:27:16Z</time>
      </trkpt>
      <trkpt lat="44.63445" lon="5.796">
        <ele>1758.2</ele>
        <time>2023-05-18T10:27:17Z</time>
      </trkpt>
      <trkpt lat="44.63446" lon="5.79602">
        <ele>1758.4</ele>
        <time>2023-05-18T10:27:18Z</time>
      </trkpt>
      <trkpt lat="44.63446" lon="5.79604">
        <ele>1758.6</ele>
        <time>2023-05-18T10:27:19Z</time>
      </trkpt>
      <trkpt lat="44.63447" lon="5.79605">
        <ele>1758.6</ele>
        <time>2023-05-18T10:27:20Z</time>
      </trkpt>
      <trkpt lat="44.63447" lon="5.79607">
        <ele>1758.6</ele>
        <time>2023-05-18T10:27:21Z</time>
      </trkpt>
      <trkpt lat="44.63448" lon="5.79608">
        <ele>1758.6</ele>
        <time>2023-05-18T10:27:22Z</time>
      </trkpt>
      <trkpt lat="44.63449" lon="5.79608">
        <ele>1758.8</ele>
        <time>2023-05-18T10:27:23Z</time>
      </trkpt>
      <trkpt lat="44.6345" lon="5.79608">
        <ele>1758.8</ele>
        <time>2023-05-18T10:27:24Z</time>
      </trkpt>
      <trkpt lat="44.63452" lon="5.79609">
        <ele>1758.8</ele>
        <time>2023-05-18T10:27:25Z</time>
      </trkpt>
      <trkpt lat="44.63455" lon="5.79613">
        <ele>1758.8</ele>
        <time>2023-05-18T10:27:28Z</time>
      </trkpt>
      <trkpt lat="44.63457" lon="5.79614">
        <ele>1758.8</ele>
        <time>2023-05-18T10:27:29Z</time>
      </trkpt>
      <trkpt lat="44.63458" lon="5.79615">
        <ele>1758.8</ele>
        <time>2023-05-18T10:27:30Z</time>
      </trkpt>
      <trkpt lat="44.63459" lon="5.79616">
        <ele>1758.8</ele>
        <time>2023-05-18T10:27:31Z</time>
      </trkpt>
      <trkpt lat="44.6346" lon="5.79617">
        <ele>1758.8</ele>
        <time>2023-05-18T10:27:32Z</time>
      </trkpt>
      <trkpt lat="44.63461" lon="5.79618">
        <ele>1758.8</ele>
        <time>2023-05-18T10:27:33Z</time>
      </trkpt>
      <trkpt lat="44.63462" lon="5.7962">
        <ele>1758.8</ele>
        <time>2023-05-18T10:27:34Z</time>
      </trkpt>
      <trkpt lat="44.63463" lon="5.79622">
        <ele>1758.8</ele>
        <time>2023-05-18T10:27:35Z</time>
      </trkpt>
      <trkpt lat="44.63464" lon="5.79623">
        <ele>1758.8</ele>
        <time>2023-05-18T10:27:36Z</time>
      </trkpt>
      <trkpt lat="44.63465" lon="5.79625">
        <ele>1758.8</ele>
        <time>2023-05-18T10:27:37Z</time>
      </trkpt>
      <trkpt lat="44.63469" lon="5.79628">
        <ele>1758.8</ele>
        <time>2023-05-18T10:27:39Z</time>
      </trkpt>
      <trkpt lat="44.6347" lon="5.79629">
        <ele>1758.8</ele>
        <time>2023-05-18T10:27:40Z</time>
      </trkpt>
      <trkpt lat="44.63471" lon="5.7963">
        <ele>1759.2</ele>
        <time>2023-05-18T10:27:41Z</time>
      </trkpt>
      <trkpt lat="44.63472" lon="5.79631">
        <ele>1759.2</ele>
        <time>2023-05-18T10:27:42Z</time>
      </trkpt>
      <trkpt lat="44.63473" lon="5.79632">
        <ele>1759.2</ele>
        <time>2023-05-18T10:27:43Z</time>
      </trkpt>
      <trkpt lat="44.63475" lon="5.79632">
        <ele>1759.2</ele>
        <time>2023-05-18T10:27:44Z</time>
      </trkpt>
      <trkpt lat="44.63476" lon="5.79633">
        <ele>1759.2</ele>
        <time>2023-05-18T10:27:45Z</time>
      </trkpt>
      <trkpt lat="44.63477" lon="5.79634">
        <ele>1759.4</ele>
        <time>2023-05-18T10:27:46Z</time>
      </trkpt>
      <trkpt lat="44.63478" lon="5.79634">
        <ele>1759.4</ele>
        <time>2023-05-18T10:27:47Z</time>
      </trkpt>
      <trkpt lat="44.6348" lon="5.79635">
        <ele>1759.6</ele>
        <time>2023-05-18T10:27:49Z</time>
      </trkpt>
      <trkpt lat="44.63481" lon="5.79636">
        <ele>1759.6</ele>
        <time>2023-05-18T10:27:50Z</time>
      </trkpt>
      <trkpt lat="44.63481" lon="5.79638">
        <ele>1759.8</ele>
        <time>2023-05-18T10:27:51Z</time>
      </trkpt>
      <trkpt lat="44.63482" lon="5.7964">
        <ele>1760</ele>
        <time>2023-05-18T10:27:52Z</time>
      </trkpt>
      <trkpt lat="44.63483" lon="5.79642">
        <ele>1760</ele>
        <time>2023-05-18T10:27:53Z</time>
      </trkpt>
      <trkpt lat="44.63486" lon="5.79648">
        <ele>1760.2</ele>
        <time>2023-05-18T10:27:57Z</time>
      </trkpt>
      <trkpt lat="44.63486" lon="5.79649">
        <ele>1760.2</ele>
        <time>2023-05-18T10:27:58Z</time>
      </trkpt>
      <trkpt lat="44.63487" lon="5.7965">
        <ele>1760.4</ele>
        <time>2023-05-18T10:27:59Z</time>
      </trkpt>
      <trkpt lat="44.63488" lon="5.79651">
        <ele>1760.4</ele>
        <time>2023-05-18T10:28:00Z</time>
      </trkpt>
      <trkpt lat="44.63489" lon="5.79652">
        <ele>1760.4</ele>
        <time>2023-05-18T10:28:01Z</time>
      </trkpt>
      <trkpt lat="44.6349" lon="5.79653">
        <ele>1760.6</ele>
        <time>2023-05-18T10:28:02Z</time>
      </trkpt>
      <trkpt lat="44.63492" lon="5.79656">
        <ele>1760.8</ele>
        <time>2023-05-18T10:28:04Z</time>
      </trkpt>
      <trkpt lat="44.63493" lon="5.79657">
        <ele>1761</ele>
        <time>2023-05-18T10:28:05Z</time>
      </trkpt>
      <trkpt lat="44.63493" lon="5.79658">
        <ele>1761</ele>
        <time>2023-05-18T10:28:06Z</time>
      </trkpt>
      <trkpt lat="44.63494" lon="5.79659">
        <ele>1761.2</ele>
        <time>2023-05-18T10:28:07Z</time>
      </trkpt>
      <trkpt lat="44.63495" lon="5.7966">
        <ele>1761.2</ele>
        <time>2023-05-18T10:28:08Z</time>
      </trkpt>
      <trkpt lat="44.63495" lon="5.79661">
        <ele>1761.4</ele>
        <time>2023-05-18T10:28:09Z</time>
      </trkpt>
      <trkpt lat="44.63499" lon="5.79666">
        <ele>1762</ele>
        <time>2023-05-18T10:28:14Z</time>
      </trkpt>
      <trkpt lat="44.635" lon="5.79667">
        <ele>1762.2</ele>
        <time>2023-05-18T10:28:15Z</time>
      </trkpt>
      <trkpt lat="44.63501" lon="5.79669">
        <ele>1762.2</ele>
        <time>2023-05-18T10:28:16Z</time>
      </trkpt>
      <trkpt lat="44.63502" lon="5.7967">
        <ele>1762.4</ele>
        <time>2023-05-18T10:28:17Z</time>
      </trkpt>
      <trkpt lat="44.63502" lon="5.79672">
        <ele>1762.4</ele>
        <time>2023-05-18T10:28:18Z</time>
      </trkpt>
      <trkpt lat="44.63507" lon="5.79684">
        <ele>1762.8</ele>
        <time>2023-05-18T10:28:26Z</time>
      </trkpt>
      <trkpt lat="44.6351" lon="5.7969">
        <ele>1763.4</ele>
        <time>2023-05-18T10:28:30Z</time>
      </trkpt>
      <trkpt lat="44.63511" lon="5.79691">
        <ele>1763.4</ele>
        <time>2023-05-18T10:28:31Z</time>
      </trkpt>
      <trkpt lat="44.63512" lon="5.79692">
        <ele>1763.6</ele>
        <time>2023-05-18T10:28:32Z</time>
      </trkpt>
      <trkpt lat="44.63513" lon="5.79695">
        <ele>1763.8</ele>
        <time>2023-05-18T10:28:34Z</time>
      </trkpt>
      <trkpt lat="44.63513" lon="5.79696">
        <ele>1763.8</ele>
        <time>2023-05-18T10:28:35Z</time>
      </trkpt>
      <trkpt lat="44.63514" lon="5.79697">
        <ele>1764</ele>
        <time>2023-05-18T10:28:36Z</time>
      </trkpt>
      <trkpt lat="44.63517" lon="5.79702">
        <ele>1764.2</ele>
        <time>2023-05-18T10:28:39Z</time>
      </trkpt>
      <trkpt lat="44.63517" lon="5.79703">
        <ele>1764.2</ele>
        <time>2023-05-18T10:28:40Z</time>
      </trkpt>
      <trkpt lat="44.63518" lon="5.79708">
        <ele>1764.4</ele>
        <time>2023-05-18T10:28:43Z</time>
      </trkpt>
      <trkpt lat="44.63519" lon="5.7971">
        <ele>1764.6</ele>
        <time>2023-05-18T10:28:44Z</time>
      </trkpt>
      <trkpt lat="44.63521" lon="5.79715">
        <ele>1765</ele>
        <time>2023-05-18T10:28:49Z</time>
      </trkpt>
      <trkpt lat="44.63521" lon="5.79717">
        <ele>1765</ele>
        <time>2023-05-18T10:28:50Z</time>
      </trkpt>
      <trkpt lat="44.63522" lon="5.79718">
        <ele>1765</ele>
        <time>2023-05-18T10:28:51Z</time>
      </trkpt>
      <trkpt lat="44.63522" lon="5.79719">
        <ele>1765</ele>
        <time>2023-05-18T10:28:52Z</time>
      </trkpt>
      <trkpt lat="44.63523" lon="5.7972">
        <ele>1765.2</ele>
        <time>2023-05-18T10:28:53Z</time>
      </trkpt>
      <trkpt lat="44.63524" lon="5.79721">
        <ele>1765.2</ele>
        <time>2023-05-18T10:28:54Z</time>
      </trkpt>
      <trkpt lat="44.63525" lon="5.79722">
        <ele>1765.4</ele>
        <time>2023-05-18T10:28:55Z</time>
      </trkpt>
      <trkpt lat="44.63526" lon="5.79723">
        <ele>1765.4</ele>
        <time>2023-05-18T10:28:56Z</time>
      </trkpt>
      <trkpt lat="44.63527" lon="5.79724">
        <ele>1765.4</ele>
        <time>2023-05-18T10:28:57Z</time>
      </trkpt>
      <trkpt lat="44.63528" lon="5.79725">
        <ele>1765.6</ele>
        <time>2023-05-18T10:28:58Z</time>
      </trkpt>
      <trkpt lat="44.63529" lon="5.79726">
        <ele>1765.6</ele>
        <time>2023-05-18T10:28:59Z</time>
      </trkpt>
      <trkpt lat="44.6353" lon="5.79726">
        <ele>1765.8</ele>
        <time>2023-05-18T10:29:00Z</time>
      </trkpt>
      <trkpt lat="44.63532" lon="5.79727">
        <ele>1765.8</ele>
        <time>2023-05-18T10:29:01Z</time>
      </trkpt>
      <trkpt lat="44.63534" lon="5.79728">
        <ele>1766</ele>
        <time>2023-05-18T10:29:03Z</time>
      </trkpt>
      <trkpt lat="44.63535" lon="5.79729">
        <ele>1766.2</ele>
        <time>2023-05-18T10:29:04Z</time>
      </trkpt>
      <trkpt lat="44.63539" lon="5.79731">
        <ele>1766.2</ele>
        <time>2023-05-18T10:29:07Z</time>
      </trkpt>
      <trkpt lat="44.63544" lon="5.79735">
        <ele>1766.2</ele>
        <time>2023-05-18T10:29:10Z</time>
      </trkpt>
      <trkpt lat="44.63545" lon="5.79736">
        <ele>1766.2</ele>
        <time>2023-05-18T10:29:11Z</time>
      </trkpt>
      <trkpt lat="44.63548" lon="5.79737">
        <ele>1766.2</ele>
        <time>2023-05-18T10:29:12Z</time>
      </trkpt>
      <trkpt lat="44.63549" lon="5.79737">
        <ele>1766.2</ele>
        <time>2023-05-18T10:29:13Z</time>
      </trkpt>
      <trkpt lat="44.63549" lon="5.79738">
        <ele>1766.2</ele>
        <time>2023-05-18T10:29:14Z</time>
      </trkpt>
      <trkpt lat="44.6355" lon="5.7974">
        <ele>1766.2</ele>
        <time>2023-05-18T10:29:15Z</time>
      </trkpt>
      <trkpt lat="44.63551" lon="5.79742">
        <ele>1766</ele>
        <time>2023-05-18T10:29:16Z</time>
      </trkpt>
      <trkpt lat="44.6355" lon="5.79745">
        <ele>1765.8</ele>
        <time>2023-05-18T10:29:18Z</time>
      </trkpt>
      <trkpt lat="44.63549" lon="5.79746">
        <ele>1765.8</ele>
        <time>2023-05-18T10:29:19Z</time>
      </trkpt>
      <trkpt lat="44.63548" lon="5.79747">
        <ele>1765.6</ele>
        <time>2023-05-18T10:29:20Z</time>
      </trkpt>
      <trkpt lat="44.63548" lon="5.7975">
        <ele>1765.6</ele>
        <time>2023-05-18T10:29:21Z</time>
      </trkpt>
      <trkpt lat="44.63547" lon="5.79753">
        <ele>1765.6</ele>
        <time>2023-05-18T10:29:22Z</time>
      </trkpt>
      <trkpt lat="44.63547" lon="5.79756">
        <ele>1765.6</ele>
        <time>2023-05-18T10:29:23Z</time>
      </trkpt>
      <trkpt lat="44.63546" lon="5.79759">
        <ele>1765.6</ele>
        <time>2023-05-18T10:29:25Z</time>
      </trkpt>
      <trkpt lat="44.63546" lon="5.7976">
        <ele>1765.6</ele>
        <time>2023-05-18T10:29:26Z</time>
      </trkpt>
      <trkpt lat="44.63546" lon="5.79761">
        <ele>1765.8</ele>
        <time>2023-05-18T10:29:27Z</time>
      </trkpt>
      <trkpt lat="44.63547" lon="5.79762">
        <ele>1765.8</ele>
        <time>2023-05-18T10:29:28Z</time>
      </trkpt>
      <trkpt lat="44.63547" lon="5.79762">
        <ele>1766.2</ele>
        <time>2023-05-18T10:29:29Z</time>
      </trkpt>
      <trkpt lat="44.63548" lon="5.79764">
        <ele>1766.2</ele>
        <time>2023-05-18T10:29:30Z</time>
      </trkpt>
      <trkpt lat="44.63548" lon="5.79765">
        <ele>1766.4</ele>
        <time>2023-05-18T10:29:31Z</time>
      </trkpt>
      <trkpt lat="44.6355" lon="5.79765">
        <ele>1766.4</ele>
        <time>2023-05-18T10:29:32Z</time>
      </trkpt>
      <trkpt lat="44.63551" lon="5.79767">
        <ele>1766.4</ele>
        <time>2023-05-18T10:29:33Z</time>
      </trkpt>
      <trkpt lat="44.63552" lon="5.79768">
        <ele>1766.4</ele>
        <time>2023-05-18T10:29:34Z</time>
      </trkpt>
      <trkpt lat="44.63553" lon="5.7977">
        <ele>1766.6</ele>
        <time>2023-05-18T10:29:35Z</time>
      </trkpt>
      <trkpt lat="44.63554" lon="5.79774">
        <ele>1766.6</ele>
        <time>2023-05-18T10:29:37Z</time>
      </trkpt>
      <trkpt lat="44.63556" lon="5.79781">
        <ele>1766.6</ele>
        <time>2023-05-18T10:29:40Z</time>
      </trkpt>
      <trkpt lat="44.63557" lon="5.79783">
        <ele>1766.6</ele>
        <time>2023-05-18T10:29:41Z</time>
      </trkpt>
      <trkpt lat="44.63557" lon="5.79785">
        <ele>1766.4</ele>
        <time>2023-05-18T10:29:42Z</time>
      </trkpt>
      <trkpt lat="44.63557" lon="5.79786">
        <ele>1766.4</ele>
        <time>2023-05-18T10:29:43Z</time>
      </trkpt>
      <trkpt lat="44.63557" lon="5.79788">
        <ele>1766.4</ele>
        <time>2023-05-18T10:29:44Z</time>
      </trkpt>
      <trkpt lat="44.63557" lon="5.7979">
        <ele>1766.2</ele>
        <time>2023-05-18T10:29:45Z</time>
      </trkpt>
      <trkpt lat="44.63558" lon="5.79795">
        <ele>1766</ele>
        <time>2023-05-18T10:29:47Z</time>
      </trkpt>
      <trkpt lat="44.63556" lon="5.798">
        <ele>1766</ele>
        <time>2023-05-18T10:29:49Z</time>
      </trkpt>
      <trkpt lat="44.63555" lon="5.798">
        <ele>1766</ele>
        <time>2023-05-18T10:29:50Z</time>
      </trkpt>
      <trkpt lat="44.63553" lon="5.798">
        <ele>1765.8</ele>
        <time>2023-05-18T10:29:51Z</time>
      </trkpt>
      <trkpt lat="44.63552" lon="5.798">
        <ele>1765.8</ele>
        <time>2023-05-18T10:29:52Z</time>
      </trkpt>
      <trkpt lat="44.63551" lon="5.79801">
        <ele>1765.8</ele>
        <time>2023-05-18T10:29:53Z</time>
      </trkpt>
      <trkpt lat="44.63551" lon="5.79802">
        <ele>1765.8</ele>
        <time>2023-05-18T10:29:54Z</time>
      </trkpt>
      <trkpt lat="44.6355" lon="5.79803">
        <ele>1765.8</ele>
        <time>2023-05-18T10:29:55Z</time>
      </trkpt>
      <trkpt lat="44.63549" lon="5.79805">
        <ele>1765.6</ele>
        <time>2023-05-18T10:29:57Z</time>
      </trkpt>
      <trkpt lat="44.63549" lon="5.79806">
        <ele>1765.6</ele>
        <time>2023-05-18T10:29:58Z</time>
      </trkpt>
      <trkpt lat="44.63549" lon="5.79809">
        <ele>1765.8</ele>
        <time>2023-05-18T10:29:59Z</time>
      </trkpt>
      <trkpt lat="44.6355" lon="5.79813">
        <ele>1765.8</ele>
        <time>2023-05-18T10:30:00Z</time>
      </trkpt>
      <trkpt lat="44.6355" lon="5.79817">
        <ele>1765.8</ele>
        <time>2023-05-18T10:30:01Z</time>
      </trkpt>
      <trkpt lat="44.63553" lon="5.79831">
        <ele>1765.8</ele>
        <time>2023-05-18T10:30:08Z</time>
      </trkpt>
      <trkpt lat="44.63554" lon="5.79835">
        <ele>1765.8</ele>
        <time>2023-05-18T10:30:10Z</time>
      </trkpt>
      <trkpt lat="44.63554" lon="5.79837">
        <ele>1765.8</ele>
        <time>2023-05-18T10:30:11Z</time>
      </trkpt>
      <trkpt lat="44.63555" lon="5.79839">
        <ele>1765.8</ele>
        <time>2023-05-18T10:30:12Z</time>
      </trkpt>
      <trkpt lat="44.63556" lon="5.7984">
        <ele>1765.8</ele>
        <time>2023-05-18T10:30:13Z</time>
      </trkpt>
      <trkpt lat="44.63556" lon="5.79841">
        <ele>1766</ele>
        <time>2023-05-18T10:30:14Z</time>
      </trkpt>
      <trkpt lat="44.63556" lon="5.79843">
        <ele>1766</ele>
        <time>2023-05-18T10:30:15Z</time>
      </trkpt>
      <trkpt lat="44.63556" lon="5.79846">
        <ele>1766</ele>
        <time>2023-05-18T10:30:16Z</time>
      </trkpt>
      <trkpt lat="44.63556" lon="5.79849">
        <ele>1766</ele>
        <time>2023-05-18T10:30:17Z</time>
      </trkpt>
      <trkpt lat="44.63556" lon="5.79851">
        <ele>1765.8</ele>
        <time>2023-05-18T10:30:18Z</time>
      </trkpt>
      <trkpt lat="44.63557" lon="5.79853">
        <ele>1765.8</ele>
        <time>2023-05-18T10:30:19Z</time>
      </trkpt>
      <trkpt lat="44.63558" lon="5.79854">
        <ele>1765.8</ele>
        <time>2023-05-18T10:30:20Z</time>
      </trkpt>
      <trkpt lat="44.63559" lon="5.79855">
        <ele>1765.6</ele>
        <time>2023-05-18T10:30:21Z</time>
      </trkpt>
      <trkpt lat="44.63559" lon="5.79856">
        <ele>1765.6</ele>
        <time>2023-05-18T10:30:22Z</time>
      </trkpt>
      <trkpt lat="44.63559" lon="5.79856">
        <ele>1765.6</ele>
        <time>2023-05-18T10:30:23Z</time>
      </trkpt>
      <trkpt lat="44.63559" lon="5.79856">
        <ele>1765.6</ele>
        <time>2023-05-18T10:30:27Z</time>
      </trkpt>
      <trkpt lat="44.63559" lon="5.79856">
        <ele>1765.4</ele>
        <time>2023-05-18T10:30:43Z</time>
      </trkpt>
      <trkpt lat="44.6356" lon="5.79857">
        <ele>1765.2</ele>
        <time>2023-05-18T10:31:17Z</time>
      </trkpt>
      <trkpt lat="44.6356" lon="5.79859">
        <ele>1765.2</ele>
        <time>2023-05-18T10:31:18Z</time>
      </trkpt>
      <trkpt lat="44.63561" lon="5.7986">
        <ele>1765.2</ele>
        <time>2023-05-18T10:31:19Z</time>
      </trkpt>
      <trkpt lat="44.63562" lon="5.79861">
        <ele>1765.2</ele>
        <time>2023-05-18T10:31:20Z</time>
      </trkpt>
      <trkpt lat="44.63564" lon="5.79867">
        <ele>1765.4</ele>
        <time>2023-05-18T10:31:23Z</time>
      </trkpt>
      <trkpt lat="44.63563" lon="5.79869">
        <ele>1765.4</ele>
        <time>2023-05-18T10:31:24Z</time>
      </trkpt>
      <trkpt lat="44.63563" lon="5.79872">
        <ele>1765.4</ele>
        <time>2023-05-18T10:31:26Z</time>
      </trkpt>
      <trkpt lat="44.63562" lon="5.79874">
        <ele>1765.2</ele>
        <time>2023-05-18T10:31:29Z</time>
      </trkpt>
      <trkpt lat="44.63562" lon="5.79874">
        <ele>1765</ele>
        <time>2023-05-18T10:31:30Z</time>
      </trkpt>
      <trkpt lat="44.63559" lon="5.79875">
        <ele>1764.4</ele>
        <time>2023-05-18T10:31:36Z</time>
      </trkpt>
      <trkpt lat="44.63558" lon="5.79876">
        <ele>1764.4</ele>
        <time>2023-05-18T10:31:37Z</time>
      </trkpt>
      <trkpt lat="44.63557" lon="5.79875">
        <ele>1764.2</ele>
        <time>2023-05-18T10:31:41Z</time>
      </trkpt>
      <trkpt lat="44.63557" lon="5.79875">
        <ele>1764.2</ele>
        <time>2023-05-18T10:31:42Z</time>
      </trkpt>
      <trkpt lat="44.63556" lon="5.79875">
        <ele>1764.4</ele>
        <time>2023-05-18T10:31:44Z</time>
      </trkpt>
      <trkpt lat="44.63556" lon="5.79875">
        <ele>1764.4</ele>
        <time>2023-05-18T10:31:45Z</time>
      </trkpt>
      <trkpt lat="44.63556" lon="5.79874">
        <ele>1764.8</ele>
        <time>2023-05-18T10:31:48Z</time>
      </trkpt>
      <trkpt lat="44.63556" lon="5.79874">
        <ele>1764.8</ele>
        <time>2023-05-18T10:31:49Z</time>
      </trkpt>
      <trkpt lat="44.63556" lon="5.79874">
        <ele>1765</ele>
        <time>2023-05-18T10:31:50Z</time>
      </trkpt>
      <trkpt lat="44.63555" lon="5.79874">
        <ele>1765</ele>
        <time>2023-05-18T10:31:51Z</time>
      </trkpt>
      <trkpt lat="44.63554" lon="5.79872">
        <ele>1764.6</ele>
        <time>2023-05-18T10:31:56Z</time>
      </trkpt>
      <trkpt lat="44.63553" lon="5.79871">
        <ele>1764.6</ele>
        <time>2023-05-18T10:31:57Z</time>
      </trkpt>
      <trkpt lat="44.63552" lon="5.7987">
        <ele>1764.6</ele>
        <time>2023-05-18T10:31:58Z</time>
      </trkpt>
      <trkpt lat="44.63551" lon="5.79869">
        <ele>1764.6</ele>
        <time>2023-05-18T10:32:00Z</time>
      </trkpt>
      <trkpt lat="44.63551" lon="5.79869">
        <ele>1764.6</ele>
        <time>2023-05-18T10:32:01Z</time>
      </trkpt>
      <trkpt lat="44.6355" lon="5.79868">
        <ele>1764.6</ele>
        <time>2023-05-18T10:32:02Z</time>
      </trkpt>
      <trkpt lat="44.63549" lon="5.79867">
        <ele>1764.6</ele>
        <time>2023-05-18T10:32:03Z</time>
      </trkpt>
      <trkpt lat="44.63549" lon="5.79866">
        <ele>1764.6</ele>
        <time>2023-05-18T10:32:05Z</time>
      </trkpt>
      <trkpt lat="44.63549" lon="5.79866">
        <ele>1764.8</ele>
        <time>2023-05-18T10:32:06Z</time>
      </trkpt>
      <trkpt lat="44.63548" lon="5.79866">
        <ele>1764.8</ele>
        <time>2023-05-18T10:32:07Z</time>
      </trkpt>
      <trkpt lat="44.63548" lon="5.79866">
        <ele>1764.8</ele>
        <time>2023-05-18T10:32:08Z</time>
      </trkpt>
      <trkpt lat="44.63548" lon="5.79866">
        <ele>1764.8</ele>
        <time>2023-05-18T10:32:09Z</time>
      </trkpt>
      <trkpt lat="44.63548" lon="5.79866">
        <ele>1764.8</ele>
        <time>2023-05-18T10:32:10Z</time>
      </trkpt>
      <trkpt lat="44.63548" lon="5.79866">
        <ele>1764.8</ele>
        <time>2023-05-18T10:32:11Z</time>
      </trkpt>
      <trkpt lat="44.63547" lon="5.79865">
        <ele>1765.2</ele>
        <time>2023-05-18T10:32:16Z</time>
      </trkpt>
      <trkpt lat="44.63547" lon="5.79865">
        <ele>1765.2</ele>
        <time>2023-05-18T10:32:17Z</time>
      </trkpt>
      <trkpt lat="44.63546" lon="5.79865">
        <ele>1766.2</ele>
        <time>2023-05-18T10:32:22Z</time>
      </trkpt>
      <trkpt lat="44.63544" lon="5.79863">
        <ele>1766.4</ele>
        <time>2023-05-18T10:32:25Z</time>
      </trkpt>
      <trkpt lat="44.63542" lon="5.79862">
        <ele>1766.6</ele>
        <time>2023-05-18T10:32:26Z</time>
      </trkpt>
      <trkpt lat="44.6354" lon="5.7986">
        <ele>1767</ele>
        <time>2023-05-18T10:32:31Z</time>
      </trkpt>
      <trkpt lat="44.63539" lon="5.79859">
        <ele>1767.2</ele>
        <time>2023-05-18T10:32:33Z</time>
      </trkpt>
      <trkpt lat="44.63537" lon="5.79858">
        <ele>1767.4</ele>
        <time>2023-05-18T10:32:35Z</time>
      </trkpt>
      <trkpt lat="44.63536" lon="5.79857">
        <ele>1767.4</ele>
        <time>2023-05-18T10:32:36Z</time>
      </trkpt>
      <trkpt lat="44.63532" lon="5.79855">
        <ele>1767.8</ele>
        <time>2023-05-18T10:32:41Z</time>
      </trkpt>
      <trkpt lat="44.6353" lon="5.79854">
        <ele>1768</ele>
        <time>2023-05-18T10:32:43Z</time>
      </trkpt>
      <trkpt lat="44.6353" lon="5.79854">
        <ele>1768.2</ele>
        <time>2023-05-18T10:32:44Z</time>
      </trkpt>
      <trkpt lat="44.63529" lon="5.79855">
        <ele>1768.2</ele>
        <time>2023-05-18T10:32:45Z</time>
      </trkpt>
      <trkpt lat="44.63529" lon="5.79856">
        <ele>1768.4</ele>
        <time>2023-05-18T10:32:46Z</time>
      </trkpt>
      <trkpt lat="44.63528" lon="5.79856">
        <ele>1768.4</ele>
        <time>2023-05-18T10:32:47Z</time>
      </trkpt>
      <trkpt lat="44.63528" lon="5.79856">
        <ele>1768.4</ele>
        <time>2023-05-18T10:32:48Z</time>
      </trkpt>
      <trkpt lat="44.63523" lon="5.79854">
        <ele>1768.8</ele>
        <time>2023-05-18T10:32:57Z</time>
      </trkpt>
      <trkpt lat="44.63522" lon="5.79854">
        <ele>1768.6</ele>
        <time>2023-05-18T10:32:58Z</time>
      </trkpt>
      <trkpt lat="44.6352" lon="5.79854">
        <ele>1768.6</ele>
        <time>2023-05-18T10:32:59Z</time>
      </trkpt>
      <trkpt lat="44.63519" lon="5.79853">
        <ele>1768.6</ele>
        <time>2023-05-18T10:33:00Z</time>
      </trkpt>
      <trkpt lat="44.63515" lon="5.79853">
        <ele>1768.4</ele>
        <time>2023-05-18T10:33:04Z</time>
      </trkpt>
      <trkpt lat="44.63513" lon="5.79854">
        <ele>1768.4</ele>
        <time>2023-05-18T10:33:05Z</time>
      </trkpt>
      <trkpt lat="44.63504" lon="5.79853">
        <ele>1768.4</ele>
        <time>2023-05-18T10:33:10Z</time>
      </trkpt>
      <trkpt lat="44.63502" lon="5.79853">
        <ele>1768</ele>
        <time>2023-05-18T10:33:15Z</time>
      </trkpt>
      <trkpt lat="44.63496" lon="5.7985">
        <ele>1767.6</ele>
        <time>2023-05-18T10:33:20Z</time>
      </trkpt>
      <trkpt lat="44.6349" lon="5.79843">
        <ele>1767.4</ele>
        <time>2023-05-18T10:33:23Z</time>
      </trkpt>
      <trkpt lat="44.63489" lon="5.79841">
        <ele>1767.4</ele>
        <time>2023-05-18T10:33:24Z</time>
      </trkpt>
      <trkpt lat="44.63488" lon="5.7984">
        <ele>1767.2</ele>
        <time>2023-05-18T10:33:25Z</time>
      </trkpt>
      <trkpt lat="44.63487" lon="5.79838">
        <ele>1767.2</ele>
        <time>2023-05-18T10:33:26Z</time>
      </trkpt>
      <trkpt lat="44.63487" lon="5.79837">
        <ele>1767.2</ele>
        <time>2023-05-18T10:33:27Z</time>
      </trkpt>
      <trkpt lat="44.63485" lon="5.79836">
        <ele>1767</ele>
        <time>2023-05-18T10:33:28Z</time>
      </trkpt>
      <trkpt lat="44.63484" lon="5.79835">
        <ele>1767</ele>
        <time>2023-05-18T10:33:29Z</time>
      </trkpt>
      <trkpt lat="44.63483" lon="5.79834">
        <ele>1767</ele>
        <time>2023-05-18T10:33:30Z</time>
      </trkpt>
      <trkpt lat="44.63482" lon="5.79833">
        <ele>1767</ele>
        <time>2023-05-18T10:33:31Z</time>
      </trkpt>
      <trkpt lat="44.63481" lon="5.79831">
        <ele>1767</ele>
        <time>2023-05-18T10:33:32Z</time>
      </trkpt>
      <trkpt lat="44.63479" lon="5.79827">
        <ele>1767</ele>
        <time>2023-05-18T10:33:34Z</time>
      </trkpt>
      <trkpt lat="44.63477" lon="5.79825">
        <ele>1767</ele>
        <time>2023-05-18T10:33:35Z</time>
      </trkpt>
      <trkpt lat="44.63476" lon="5.79823">
        <ele>1767</ele>
        <time>2023-05-18T10:33:36Z</time>
      </trkpt>
      <trkpt lat="44.63474" lon="5.79823">
        <ele>1767</ele>
        <time>2023-05-18T10:33:37Z</time>
      </trkpt>
      <trkpt lat="44.63473" lon="5.79823">
        <ele>1766.8</ele>
        <time>2023-05-18T10:33:38Z</time>
      </trkpt>
      <trkpt lat="44.63471" lon="5.79823">
        <ele>1766.8</ele>
        <time>2023-05-18T10:33:39Z</time>
      </trkpt>
      <trkpt lat="44.63469" lon="5.79823">
        <ele>1766.8</ele>
        <time>2023-05-18T10:33:40Z</time>
      </trkpt>
      <trkpt lat="44.63468" lon="5.79823">
        <ele>1766.6</ele>
        <time>2023-05-18T10:33:41Z</time>
      </trkpt>
      <trkpt lat="44.63466" lon="5.79822">
        <ele>1766.4</ele>
        <time>2023-05-18T10:33:42Z</time>
      </trkpt>
      <trkpt lat="44.63464" lon="5.7982">
        <ele>1765.8</ele>
        <time>2023-05-18T10:33:43Z</time>
      </trkpt>
      <trkpt lat="44.63463" lon="5.79819">
        <ele>1765.6</ele>
        <time>2023-05-18T10:33:44Z</time>
      </trkpt>
      <trkpt lat="44.63461" lon="5.79818">
        <ele>1765.4</ele>
        <time>2023-05-18T10:33:45Z</time>
      </trkpt>
      <trkpt lat="44.63454" lon="5.79812">
        <ele>1765</ele>
        <time>2023-05-18T10:33:48Z</time>
      </trkpt>
      <trkpt lat="44.6345" lon="5.79809">
        <ele>1765</ele>
        <time>2023-05-18T10:33:50Z</time>
      </trkpt>
      <trkpt lat="44.63448" lon="5.79807">
        <ele>1764.8</ele>
        <time>2023-05-18T10:33:51Z</time>
      </trkpt>
      <trkpt lat="44.63447" lon="5.79807">
        <ele>1764.6</ele>
        <time>2023-05-18T10:33:52Z</time>
      </trkpt>
      <trkpt lat="44.63445" lon="5.79806">
        <ele>1764.4</ele>
        <time>2023-05-18T10:33:53Z</time>
      </trkpt>
      <trkpt lat="44.6344" lon="5.79804">
        <ele>1763.6</ele>
        <time>2023-05-18T10:33:56Z</time>
      </trkpt>
      <trkpt lat="44.63438" lon="5.79804">
        <ele>1763.4</ele>
        <time>2023-05-18T10:33:57Z</time>
      </trkpt>
      <trkpt lat="44.63437" lon="5.79804">
        <ele>1763.4</ele>
        <time>2023-05-18T10:33:58Z</time>
      </trkpt>
      <trkpt lat="44.63435" lon="5.79802">
        <ele>1763</ele>
        <time>2023-05-18T10:33:59Z</time>
      </trkpt>
      <trkpt lat="44.63433" lon="5.798">
        <ele>1763</ele>
        <time>2023-05-18T10:34:00Z</time>
      </trkpt>
      <trkpt lat="44.63431" lon="5.79799">
        <ele>1763</ele>
        <time>2023-05-18T10:34:01Z</time>
      </trkpt>
      <trkpt lat="44.6343" lon="5.79799">
        <ele>1763</ele>
        <time>2023-05-18T10:34:02Z</time>
      </trkpt>
      <trkpt lat="44.63428" lon="5.79798">
        <ele>1763</ele>
        <time>2023-05-18T10:34:03Z</time>
      </trkpt>
      <trkpt lat="44.63427" lon="5.79797">
        <ele>1763</ele>
        <time>2023-05-18T10:34:04Z</time>
      </trkpt>
      <trkpt lat="44.63425" lon="5.79797">
        <ele>1763</ele>
        <time>2023-05-18T10:34:05Z</time>
      </trkpt>
      <trkpt lat="44.63424" lon="5.79797">
        <ele>1762.8</ele>
        <time>2023-05-18T10:34:06Z</time>
      </trkpt>
      <trkpt lat="44.63422" lon="5.79797">
        <ele>1762.8</ele>
        <time>2023-05-18T10:34:07Z</time>
      </trkpt>
      <trkpt lat="44.6342" lon="5.79796">
        <ele>1762.6</ele>
        <time>2023-05-18T10:34:08Z</time>
      </trkpt>
      <trkpt lat="44.63418" lon="5.79795">
        <ele>1762.6</ele>
        <time>2023-05-18T10:34:09Z</time>
      </trkpt>
      <trkpt lat="44.63407" lon="5.79793">
        <ele>1762</ele>
        <time>2023-05-18T10:34:13Z</time>
      </trkpt>
      <trkpt lat="44.63405" lon="5.79792">
        <ele>1761.8</ele>
        <time>2023-05-18T10:34:14Z</time>
      </trkpt>
      <trkpt lat="44.63403" lon="5.79792">
        <ele>1761.8</ele>
        <time>2023-05-18T10:34:15Z</time>
      </trkpt>
      <trkpt lat="44.63403" lon="5.79792">
        <ele>1761.4</ele>
        <time>2023-05-18T10:34:16Z</time>
      </trkpt>
      <trkpt lat="44.63402" lon="5.79792">
        <ele>1761</ele>
        <time>2023-05-18T10:34:17Z</time>
      </trkpt>
      <trkpt lat="44.63402" lon="5.79792">
        <ele>1760.6</ele>
        <time>2023-05-18T10:34:18Z</time>
      </trkpt>
      <trkpt lat="44.63402" lon="5.79792">
        <ele>1760.4</ele>
        <time>2023-05-18T10:34:19Z</time>
      </trkpt>
      <trkpt lat="44.634" lon="5.79791">
        <ele>1759.8</ele>
        <time>2023-05-18T10:34:24Z</time>
      </trkpt>
      <trkpt lat="44.634" lon="5.79791">
        <ele>1759.8</ele>
        <time>2023-05-18T10:34:25Z</time>
      </trkpt>
      <trkpt lat="44.634" lon="5.79791">
        <ele>1759.8</ele>
        <time>2023-05-18T10:34:27Z</time>
      </trkpt>
      <trkpt lat="44.63399" lon="5.7979">
        <ele>1759.6</ele>
        <time>2023-05-18T10:34:31Z</time>
      </trkpt>
      <trkpt lat="44.63399" lon="5.7979">
        <ele>1759.6</ele>
        <time>2023-05-18T10:34:32Z</time>
      </trkpt>
      <trkpt lat="44.63397" lon="5.79789">
        <ele>1759.4</ele>
        <time>2023-05-18T10:34:33Z</time>
      </trkpt>
      <trkpt lat="44.63396" lon="5.79787">
        <ele>1759.4</ele>
        <time>2023-05-18T10:34:34Z</time>
      </trkpt>
      <trkpt lat="44.63395" lon="5.79786">
        <ele>1759.2</ele>
        <time>2023-05-18T10:34:35Z</time>
      </trkpt>
      <trkpt lat="44.63393" lon="5.79785">
        <ele>1759</ele>
        <time>2023-05-18T10:34:36Z</time>
      </trkpt>
      <trkpt lat="44.63391" lon="5.79784">
        <ele>1759</ele>
        <time>2023-05-18T10:34:37Z</time>
      </trkpt>
      <trkpt lat="44.63389" lon="5.79783">
        <ele>1759</ele>
        <time>2023-05-18T10:34:38Z</time>
      </trkpt>
      <trkpt lat="44.63386" lon="5.79781">
        <ele>1758.6</ele>
        <time>2023-05-18T10:34:41Z</time>
      </trkpt>
      <trkpt lat="44.63385" lon="5.7978">
        <ele>1758.4</ele>
        <time>2023-05-18T10:34:42Z</time>
      </trkpt>
      <trkpt lat="44.63382" lon="5.79778">
        <ele>1758.2</ele>
        <time>2023-05-18T10:34:44Z</time>
      </trkpt>
      <trkpt lat="44.6338" lon="5.79776">
        <ele>1758.2</ele>
        <time>2023-05-18T10:34:45Z</time>
      </trkpt>
      <trkpt lat="44.63379" lon="5.79775">
        <ele>1758</ele>
        <time>2023-05-18T10:34:46Z</time>
      </trkpt>
      <trkpt lat="44.63374" lon="5.79772">
        <ele>1757.6</ele>
        <time>2023-05-18T10:34:48Z</time>
      </trkpt>
      <trkpt lat="44.63372" lon="5.79772">
        <ele>1757.6</ele>
        <time>2023-05-18T10:34:49Z</time>
      </trkpt>
      <trkpt lat="44.63371" lon="5.79771">
        <ele>1757.2</ele>
        <time>2023-05-18T10:34:50Z</time>
      </trkpt>
      <trkpt lat="44.63369" lon="5.7977">
        <ele>1757</ele>
        <time>2023-05-18T10:34:51Z</time>
      </trkpt>
      <trkpt lat="44.63366" lon="5.79767">
        <ele>1756.4</ele>
        <time>2023-05-18T10:34:53Z</time>
      </trkpt>
      <trkpt lat="44.63364" lon="5.79767">
        <ele>1756.2</ele>
        <time>2023-05-18T10:34:54Z</time>
      </trkpt>
      <trkpt lat="44.63362" lon="5.79767">
        <ele>1756</ele>
        <time>2023-05-18T10:34:55Z</time>
      </trkpt>
      <trkpt lat="44.63362" lon="5.79767">
        <ele>1755.8</ele>
        <time>2023-05-18T10:34:56Z</time>
      </trkpt>
      <trkpt lat="44.63361" lon="5.79767">
        <ele>1755.6</ele>
        <time>2023-05-18T10:34:57Z</time>
      </trkpt>
      <trkpt lat="44.6336" lon="5.79767">
        <ele>1755.4</ele>
        <time>2023-05-18T10:34:58Z</time>
      </trkpt>
      <trkpt lat="44.63358" lon="5.79766">
        <ele>1755.2</ele>
        <time>2023-05-18T10:34:59Z</time>
      </trkpt>
      <trkpt lat="44.63357" lon="5.79765">
        <ele>1755</ele>
        <time>2023-05-18T10:35:00Z</time>
      </trkpt>
      <trkpt lat="44.63354" lon="5.79763">
        <ele>1754.8</ele>
        <time>2023-05-18T10:35:02Z</time>
      </trkpt>
      <trkpt lat="44.63352" lon="5.79762">
        <ele>1754.6</ele>
        <time>2023-05-18T10:35:03Z</time>
      </trkpt>
      <trkpt lat="44.63349" lon="5.79761">
        <ele>1754.6</ele>
        <time>2023-05-18T10:35:04Z</time>
      </trkpt>
      <trkpt lat="44.63344" lon="5.7976">
        <ele>1754.4</ele>
        <time>2023-05-18T10:35:06Z</time>
      </trkpt>
      <trkpt lat="44.63343" lon="5.79759">
        <ele>1754.2</ele>
        <time>2023-05-18T10:35:07Z</time>
      </trkpt>
      <trkpt lat="44.63341" lon="5.79759">
        <ele>1754</ele>
        <time>2023-05-18T10:35:08Z</time>
      </trkpt>
      <trkpt lat="44.63341" lon="5.79759">
        <ele>1753.8</ele>
        <time>2023-05-18T10:35:09Z</time>
      </trkpt>
      <trkpt lat="44.6334" lon="5.79759">
        <ele>1753.6</ele>
        <time>2023-05-18T10:35:10Z</time>
      </trkpt>
      <trkpt lat="44.63339" lon="5.7976">
        <ele>1753.4</ele>
        <time>2023-05-18T10:35:11Z</time>
      </trkpt>
      <trkpt lat="44.63338" lon="5.7976">
        <ele>1753.2</ele>
        <time>2023-05-18T10:35:12Z</time>
      </trkpt>
      <trkpt lat="44.63338" lon="5.7976">
        <ele>1753</ele>
        <time>2023-05-18T10:35:13Z</time>
      </trkpt>
      <trkpt lat="44.63336" lon="5.7976">
        <ele>1753</ele>
        <time>2023-05-18T10:35:14Z</time>
      </trkpt>
      <trkpt lat="44.63336" lon="5.79759">
        <ele>1753</ele>
        <time>2023-05-18T10:35:15Z</time>
      </trkpt>
      <trkpt lat="44.63334" lon="5.79759">
        <ele>1753</ele>
        <time>2023-05-18T10:35:16Z</time>
      </trkpt>
      <trkpt lat="44.63333" lon="5.79759">
        <ele>1752.8</ele>
        <time>2023-05-18T10:35:17Z</time>
      </trkpt>
      <trkpt lat="44.63332" lon="5.79758">
        <ele>1752.8</ele>
        <time>2023-05-18T10:35:18Z</time>
      </trkpt>
      <trkpt lat="44.63331" lon="5.79759">
        <ele>1752.8</ele>
        <time>2023-05-18T10:35:19Z</time>
      </trkpt>
      <trkpt lat="44.63329" lon="5.79759">
        <ele>1752.6</ele>
        <time>2023-05-18T10:35:20Z</time>
      </trkpt>
      <trkpt lat="44.63328" lon="5.79759">
        <ele>1752.6</ele>
        <time>2023-05-18T10:35:21Z</time>
      </trkpt>
      <trkpt lat="44.63328" lon="5.79759">
        <ele>1752.8</ele>
        <time>2023-05-18T10:35:22Z</time>
      </trkpt>
      <trkpt lat="44.63327" lon="5.79759">
        <ele>1752.6</ele>
        <time>2023-05-18T10:35:23Z</time>
      </trkpt>
      <trkpt lat="44.63323" lon="5.79759">
        <ele>1752.4</ele>
        <time>2023-05-18T10:35:29Z</time>
      </trkpt>
      <trkpt lat="44.63321" lon="5.79762">
        <ele>1752.4</ele>
        <time>2023-05-18T10:35:33Z</time>
      </trkpt>
      <trkpt lat="44.6332" lon="5.79763">
        <ele>1752.4</ele>
        <time>2023-05-18T10:35:34Z</time>
      </trkpt>
      <trkpt lat="44.63317" lon="5.79763">
        <ele>1752.4</ele>
        <time>2023-05-18T10:35:36Z</time>
      </trkpt>
      <trkpt lat="44.63308" lon="5.79766">
        <ele>1752.2</ele>
        <time>2023-05-18T10:35:41Z</time>
      </trkpt>
      <trkpt lat="44.63306" lon="5.79766">
        <ele>1752</ele>
        <time>2023-05-18T10:35:42Z</time>
      </trkpt>
      <trkpt lat="44.63304" lon="5.79766">
        <ele>1752</ele>
        <time>2023-05-18T10:35:43Z</time>
      </trkpt>
      <trkpt lat="44.63297" lon="5.79767">
        <ele>1751.8</ele>
        <time>2023-05-18T10:35:46Z</time>
      </trkpt>
      <trkpt lat="44.63294" lon="5.79768">
        <ele>1751.6</ele>
        <time>2023-05-18T10:35:48Z</time>
      </trkpt>
      <trkpt lat="44.63293" lon="5.79767">
        <ele>1751.6</ele>
        <time>2023-05-18T10:35:49Z</time>
      </trkpt>
      <trkpt lat="44.63291" lon="5.79767">
        <ele>1751.4</ele>
        <time>2023-05-18T10:35:50Z</time>
      </trkpt>
      <trkpt lat="44.6329" lon="5.79766">
        <ele>1751.4</ele>
        <time>2023-05-18T10:35:51Z</time>
      </trkpt>
      <trkpt lat="44.63288" lon="5.79765">
        <ele>1751.4</ele>
        <time>2023-05-18T10:35:52Z</time>
      </trkpt>
      <trkpt lat="44.63287" lon="5.79765">
        <ele>1751.2</ele>
        <time>2023-05-18T10:35:53Z</time>
      </trkpt>
      <trkpt lat="44.63285" lon="5.79765">
        <ele>1751.2</ele>
        <time>2023-05-18T10:35:54Z</time>
      </trkpt>
      <trkpt lat="44.63284" lon="5.79764">
        <ele>1751</ele>
        <time>2023-05-18T10:35:55Z</time>
      </trkpt>
      <trkpt lat="44.63282" lon="5.79764">
        <ele>1751</ele>
        <time>2023-05-18T10:35:56Z</time>
      </trkpt>
      <trkpt lat="44.6328" lon="5.79764">
        <ele>1751</ele>
        <time>2023-05-18T10:35:57Z</time>
      </trkpt>
      <trkpt lat="44.63279" lon="5.79764">
        <ele>1750.8</ele>
        <time>2023-05-18T10:35:58Z</time>
      </trkpt>
      <trkpt lat="44.63278" lon="5.79764">
        <ele>1750.8</ele>
        <time>2023-05-18T10:35:59Z</time>
      </trkpt>
      <trkpt lat="44.63277" lon="5.79764">
        <ele>1750.8</ele>
        <time>2023-05-18T10:36:00Z</time>
      </trkpt>
      <trkpt lat="44.63275" lon="5.79763">
        <ele>1750.6</ele>
        <time>2023-05-18T10:36:01Z</time>
      </trkpt>
      <trkpt lat="44.63274" lon="5.79761">
        <ele>1750.6</ele>
        <time>2023-05-18T10:36:02Z</time>
      </trkpt>
      <trkpt lat="44.63272" lon="5.7976">
        <ele>1750.4</ele>
        <time>2023-05-18T10:36:03Z</time>
      </trkpt>
      <trkpt lat="44.63266" lon="5.79757">
        <ele>1750.2</ele>
        <time>2023-05-18T10:36:06Z</time>
      </trkpt>
      <trkpt lat="44.63264" lon="5.79756">
        <ele>1750</ele>
        <time>2023-05-18T10:36:07Z</time>
      </trkpt>
      <trkpt lat="44.6326" lon="5.79755">
        <ele>1749.8</ele>
        <time>2023-05-18T10:36:09Z</time>
      </trkpt>
      <trkpt lat="44.63258" lon="5.79755">
        <ele>1749.6</ele>
        <time>2023-05-18T10:36:10Z</time>
      </trkpt>
      <trkpt lat="44.63255" lon="5.79754">
        <ele>1749.4</ele>
        <time>2023-05-18T10:36:12Z</time>
      </trkpt>
      <trkpt lat="44.63253" lon="5.79753">
        <ele>1749.4</ele>
        <time>2023-05-18T10:36:13Z</time>
      </trkpt>
      <trkpt lat="44.63252" lon="5.79753">
        <ele>1749.2</ele>
        <time>2023-05-18T10:36:14Z</time>
      </trkpt>
      <trkpt lat="44.63251" lon="5.79752">
        <ele>1749</ele>
        <time>2023-05-18T10:36:15Z</time>
      </trkpt>
      <trkpt lat="44.63249" lon="5.79751">
        <ele>1748.8</ele>
        <time>2023-05-18T10:36:16Z</time>
      </trkpt>
      <trkpt lat="44.63247" lon="5.79748">
        <ele>1748.6</ele>
        <time>2023-05-18T10:36:18Z</time>
      </trkpt>
      <trkpt lat="44.63245" lon="5.79746">
        <ele>1748.6</ele>
        <time>2023-05-18T10:36:19Z</time>
      </trkpt>
      <trkpt lat="44.63244" lon="5.79744">
        <ele>1748.6</ele>
        <time>2023-05-18T10:36:20Z</time>
      </trkpt>
      <trkpt lat="44.63243" lon="5.79743">
        <ele>1748.6</ele>
        <time>2023-05-18T10:36:21Z</time>
      </trkpt>
      <trkpt lat="44.63242" lon="5.79741">
        <ele>1748.4</ele>
        <time>2023-05-18T10:36:22Z</time>
      </trkpt>
      <trkpt lat="44.63239" lon="5.79739">
        <ele>1748.4</ele>
        <time>2023-05-18T10:36:23Z</time>
      </trkpt>
      <trkpt lat="44.63237" lon="5.79738">
        <ele>1748.4</ele>
        <time>2023-05-18T10:36:24Z</time>
      </trkpt>
      <trkpt lat="44.63235" lon="5.79737">
        <ele>1748.4</ele>
        <time>2023-05-18T10:36:25Z</time>
      </trkpt>
      <trkpt lat="44.63233" lon="5.79736">
        <ele>1748.4</ele>
        <time>2023-05-18T10:36:26Z</time>
      </trkpt>
      <trkpt lat="44.63227" lon="5.79733">
        <ele>1748.2</ele>
        <time>2023-05-18T10:36:29Z</time>
      </trkpt>
      <trkpt lat="44.63223" lon="5.79731">
        <ele>1747.8</ele>
        <time>2023-05-18T10:36:31Z</time>
      </trkpt>
      <trkpt lat="44.63219" lon="5.79728">
        <ele>1747.4</ele>
        <time>2023-05-18T10:36:33Z</time>
      </trkpt>
      <trkpt lat="44.63206" lon="5.79717">
        <ele>1747</ele>
        <time>2023-05-18T10:36:40Z</time>
      </trkpt>
      <trkpt lat="44.63201" lon="5.79713">
        <ele>1746.8</ele>
        <time>2023-05-18T10:36:42Z</time>
      </trkpt>
      <trkpt lat="44.63188" lon="5.79698">
        <ele>1746</ele>
        <time>2023-05-18T10:36:48Z</time>
      </trkpt>
      <trkpt lat="44.63184" lon="5.79693">
        <ele>1745.6</ele>
        <time>2023-05-18T10:36:50Z</time>
      </trkpt>
      <trkpt lat="44.63178" lon="5.79686">
        <ele>1745</ele>
        <time>2023-05-18T10:36:54Z</time>
      </trkpt>
      <trkpt lat="44.63177" lon="5.79684">
        <ele>1745</ele>
        <time>2023-05-18T10:36:55Z</time>
      </trkpt>
      <trkpt lat="44.63176" lon="5.79683">
        <ele>1744.8</ele>
        <time>2023-05-18T10:36:56Z</time>
      </trkpt>
      <trkpt lat="44.63176" lon="5.79682">
        <ele>1744.8</ele>
        <time>2023-05-18T10:36:57Z</time>
      </trkpt>
      <trkpt lat="44.63175" lon="5.79681">
        <ele>1744.8</ele>
        <time>2023-05-18T10:36:58Z</time>
      </trkpt>
      <trkpt lat="44.63174" lon="5.79679">
        <ele>1744.8</ele>
        <time>2023-05-18T10:36:59Z</time>
      </trkpt>
      <trkpt lat="44.63173" lon="5.79678">
        <ele>1744.6</ele>
        <time>2023-05-18T10:37:00Z</time>
      </trkpt>
      <trkpt lat="44.63171" lon="5.79675">
        <ele>1744.6</ele>
        <time>2023-05-18T10:37:02Z</time>
      </trkpt>
      <trkpt lat="44.6317" lon="5.79674">
        <ele>1744.6</ele>
        <time>2023-05-18T10:37:03Z</time>
      </trkpt>
      <trkpt lat="44.63169" lon="5.79673">
        <ele>1744.6</ele>
        <time>2023-05-18T10:37:04Z</time>
      </trkpt>
      <trkpt lat="44.63164" lon="5.79669">
        <ele>1744.4</ele>
        <time>2023-05-18T10:37:07Z</time>
      </trkpt>
      <trkpt lat="44.63157" lon="5.79665">
        <ele>1744</ele>
        <time>2023-05-18T10:37:12Z</time>
      </trkpt>
      <trkpt lat="44.63156" lon="5.79665">
        <ele>1744</ele>
        <time>2023-05-18T10:37:13Z</time>
      </trkpt>
      <trkpt lat="44.63155" lon="5.79664">
        <ele>1743.8</ele>
        <time>2023-05-18T10:37:14Z</time>
      </trkpt>
      <trkpt lat="44.63153" lon="5.79664">
        <ele>1743.8</ele>
        <time>2023-05-18T10:37:15Z</time>
      </trkpt>
      <trkpt lat="44.63152" lon="5.79663">
        <ele>1743.8</ele>
        <time>2023-05-18T10:37:16Z</time>
      </trkpt>
      <trkpt lat="44.63151" lon="5.79661">
        <ele>1743.6</ele>
        <time>2023-05-18T10:37:17Z</time>
      </trkpt>
      <trkpt lat="44.63149" lon="5.79659">
        <ele>1743.6</ele>
        <time>2023-05-18T10:37:18Z</time>
      </trkpt>
      <trkpt lat="44.63147" lon="5.79657">
        <ele>1743.6</ele>
        <time>2023-05-18T10:37:19Z</time>
      </trkpt>
      <trkpt lat="44.63138" lon="5.79648">
        <ele>1743.2</ele>
        <time>2023-05-18T10:37:23Z</time>
      </trkpt>
      <trkpt lat="44.63134" lon="5.79645">
        <ele>1743.2</ele>
        <time>2023-05-18T10:37:25Z</time>
      </trkpt>
      <trkpt lat="44.63132" lon="5.79642">
        <ele>1742.8</ele>
        <time>2023-05-18T10:37:27Z</time>
      </trkpt>
      <trkpt lat="44.63131" lon="5.7964">
        <ele>1742.8</ele>
        <time>2023-05-18T10:37:28Z</time>
      </trkpt>
      <trkpt lat="44.6313" lon="5.79638">
        <ele>1742.6</ele>
        <time>2023-05-18T10:37:29Z</time>
      </trkpt>
      <trkpt lat="44.63128" lon="5.79635">
        <ele>1742.6</ele>
        <time>2023-05-18T10:37:30Z</time>
      </trkpt>
      <trkpt lat="44.63127" lon="5.79633">
        <ele>1742.6</ele>
        <time>2023-05-18T10:37:31Z</time>
      </trkpt>
      <trkpt lat="44.63125" lon="5.79632">
        <ele>1742.4</ele>
        <time>2023-05-18T10:37:32Z</time>
      </trkpt>
      <trkpt lat="44.63124" lon="5.7963">
        <ele>1742.4</ele>
        <time>2023-05-18T10:37:33Z</time>
      </trkpt>
      <trkpt lat="44.63122" lon="5.79628">
        <ele>1742.4</ele>
        <time>2023-05-18T10:37:34Z</time>
      </trkpt>
      <trkpt lat="44.63121" lon="5.79626">
        <ele>1742.2</ele>
        <time>2023-05-18T10:37:35Z</time>
      </trkpt>
      <trkpt lat="44.6312" lon="5.79623">
        <ele>1742.2</ele>
        <time>2023-05-18T10:37:36Z</time>
      </trkpt>
      <trkpt lat="44.63119" lon="5.7962">
        <ele>1742.2</ele>
        <time>2023-05-18T10:37:37Z</time>
      </trkpt>
      <trkpt lat="44.63118" lon="5.79617">
        <ele>1742</ele>
        <time>2023-05-18T10:37:38Z</time>
      </trkpt>
      <trkpt lat="44.63118" lon="5.79615">
        <ele>1742</ele>
        <time>2023-05-18T10:37:39Z</time>
      </trkpt>
      <trkpt lat="44.63117" lon="5.79611">
        <ele>1741.8</ele>
        <time>2023-05-18T10:37:40Z</time>
      </trkpt>
      <trkpt lat="44.6311" lon="5.79597">
        <ele>1741.4</ele>
        <time>2023-05-18T10:37:44Z</time>
      </trkpt>
      <trkpt lat="44.63105" lon="5.79585">
        <ele>1741</ele>
        <time>2023-05-18T10:37:48Z</time>
      </trkpt>
      <trkpt lat="44.63103" lon="5.7958">
        <ele>1740.8</ele>
        <time>2023-05-18T10:37:49Z</time>
      </trkpt>
      <trkpt lat="44.63101" lon="5.79577">
        <ele>1740.6</ele>
        <time>2023-05-18T10:37:50Z</time>
      </trkpt>
      <trkpt lat="44.63095" lon="5.79569">
        <ele>1739.8</ele>
        <time>2023-05-18T10:37:52Z</time>
      </trkpt>
      <trkpt lat="44.6309" lon="5.79558">
        <ele>1738.8</ele>
        <time>2023-05-18T10:37:55Z</time>
      </trkpt>
      <trkpt lat="44.63089" lon="5.79555">
        <ele>1738.6</ele>
        <time>2023-05-18T10:37:56Z</time>
      </trkpt>
      <trkpt lat="44.63087" lon="5.79552">
        <ele>1738.2</ele>
        <time>2023-05-18T10:37:57Z</time>
      </trkpt>
      <trkpt lat="44.63086" lon="5.7955">
        <ele>1738</ele>
        <time>2023-05-18T10:37:58Z</time>
      </trkpt>
      <trkpt lat="44.63086" lon="5.79548">
        <ele>1737.4</ele>
        <time>2023-05-18T10:37:59Z</time>
      </trkpt>
      <trkpt lat="44.63085" lon="5.79546">
        <ele>1737.2</ele>
        <time>2023-05-18T10:38:00Z</time>
      </trkpt>
      <trkpt lat="44.63085" lon="5.79544">
        <ele>1736.8</ele>
        <time>2023-05-18T10:38:01Z</time>
      </trkpt>
      <trkpt lat="44.63084" lon="5.79542">
        <ele>1736.6</ele>
        <time>2023-05-18T10:38:02Z</time>
      </trkpt>
      <trkpt lat="44.63083" lon="5.7954">
        <ele>1736.4</ele>
        <time>2023-05-18T10:38:03Z</time>
      </trkpt>
      <trkpt lat="44.63082" lon="5.79539">
        <ele>1736</ele>
        <time>2023-05-18T10:38:04Z</time>
      </trkpt>
      <trkpt lat="44.63081" lon="5.79536">
        <ele>1735.6</ele>
        <time>2023-05-18T10:38:06Z</time>
      </trkpt>
      <trkpt lat="44.63078" lon="5.7953">
        <ele>1735.6</ele>
        <time>2023-05-18T10:38:08Z</time>
      </trkpt>
      <trkpt lat="44.63077" lon="5.79527">
        <ele>1735.4</ele>
        <time>2023-05-18T10:38:09Z</time>
      </trkpt>
      <trkpt lat="44.63077" lon="5.79523">
        <ele>1735.4</ele>
        <time>2023-05-18T10:38:11Z</time>
      </trkpt>
      <trkpt lat="44.63076" lon="5.7952">
        <ele>1735.4</ele>
        <time>2023-05-18T10:38:12Z</time>
      </trkpt>
      <trkpt lat="44.63074" lon="5.79517">
        <ele>1735.2</ele>
        <time>2023-05-18T10:38:13Z</time>
      </trkpt>
      <trkpt lat="44.63072" lon="5.79515">
        <ele>1735.2</ele>
        <time>2023-05-18T10:38:14Z</time>
      </trkpt>
      <trkpt lat="44.63072" lon="5.79513">
        <ele>1734.8</ele>
        <time>2023-05-18T10:38:15Z</time>
      </trkpt>
      <trkpt lat="44.63071" lon="5.79509">
        <ele>1734.4</ele>
        <time>2023-05-18T10:38:17Z</time>
      </trkpt>
      <trkpt lat="44.63071" lon="5.79506">
        <ele>1734.6</ele>
        <time>2023-05-18T10:38:18Z</time>
      </trkpt>
      <trkpt lat="44.6307" lon="5.79503">
        <ele>1734.4</ele>
        <time>2023-05-18T10:38:19Z</time>
      </trkpt>
      <trkpt lat="44.63069" lon="5.795">
        <ele>1734.2</ele>
        <time>2023-05-18T10:38:20Z</time>
      </trkpt>
      <trkpt lat="44.63067" lon="5.79496">
        <ele>1734.2</ele>
        <time>2023-05-18T10:38:22Z</time>
      </trkpt>
      <trkpt lat="44.63068" lon="5.79495">
        <ele>1734.2</ele>
        <time>2023-05-18T10:38:23Z</time>
      </trkpt>
      <trkpt lat="44.63068" lon="5.79493">
        <ele>1734</ele>
        <time>2023-05-18T10:38:24Z</time>
      </trkpt>
      <trkpt lat="44.63067" lon="5.79491">
        <ele>1734</ele>
        <time>2023-05-18T10:38:25Z</time>
      </trkpt>
      <trkpt lat="44.63066" lon="5.7949">
        <ele>1734</ele>
        <time>2023-05-18T10:38:26Z</time>
      </trkpt>
      <trkpt lat="44.63065" lon="5.79488">
        <ele>1734</ele>
        <time>2023-05-18T10:38:27Z</time>
      </trkpt>
      <trkpt lat="44.63065" lon="5.79487">
        <ele>1733.8</ele>
        <time>2023-05-18T10:38:28Z</time>
      </trkpt>
      <trkpt lat="44.63064" lon="5.79485">
        <ele>1733.8</ele>
        <time>2023-05-18T10:38:29Z</time>
      </trkpt>
      <trkpt lat="44.63064" lon="5.79482">
        <ele>1733.8</ele>
        <time>2023-05-18T10:38:30Z</time>
      </trkpt>
      <trkpt lat="44.63063" lon="5.79479">
        <ele>1733.6</ele>
        <time>2023-05-18T10:38:31Z</time>
      </trkpt>
      <trkpt lat="44.63059" lon="5.79471">
        <ele>1733.6</ele>
        <time>2023-05-18T10:38:34Z</time>
      </trkpt>
      <trkpt lat="44.63057" lon="5.79471">
        <ele>1733.4</ele>
        <time>2023-05-18T10:38:35Z</time>
      </trkpt>
      <trkpt lat="44.63057" lon="5.79471">
        <ele>1733.4</ele>
        <time>2023-05-18T10:38:36Z</time>
      </trkpt>
      <trkpt lat="44.63057" lon="5.7947">
        <ele>1733.2</ele>
        <time>2023-05-18T10:38:37Z</time>
      </trkpt>
      <trkpt lat="44.63056" lon="5.79469">
        <ele>1733.2</ele>
        <time>2023-05-18T10:38:38Z</time>
      </trkpt>
      <trkpt lat="44.63055" lon="5.79468">
        <ele>1733</ele>
        <time>2023-05-18T10:38:39Z</time>
      </trkpt>
      <trkpt lat="44.63052" lon="5.79466">
        <ele>1732.8</ele>
        <time>2023-05-18T10:38:42Z</time>
      </trkpt>
      <trkpt lat="44.63051" lon="5.79465">
        <ele>1732.6</ele>
        <time>2023-05-18T10:38:43Z</time>
      </trkpt>
      <trkpt lat="44.6305" lon="5.79463">
        <ele>1732.6</ele>
        <time>2023-05-18T10:38:44Z</time>
      </trkpt>
      <trkpt lat="44.63049" lon="5.7946">
        <ele>1732.8</ele>
        <time>2023-05-18T10:38:46Z</time>
      </trkpt>
      <trkpt lat="44.63048" lon="5.79457">
        <ele>1732.8</ele>
        <time>2023-05-18T10:38:48Z</time>
      </trkpt>
      <trkpt lat="44.63047" lon="5.79455">
        <ele>1733</ele>
        <time>2023-05-18T10:38:49Z</time>
      </trkpt>
      <trkpt lat="44.63046" lon="5.79454">
        <ele>1733</ele>
        <time>2023-05-18T10:38:50Z</time>
      </trkpt>
      <trkpt lat="44.63046" lon="5.79453">
        <ele>1733</ele>
        <time>2023-05-18T10:38:52Z</time>
      </trkpt>
      <trkpt lat="44.63045" lon="5.79452">
        <ele>1733</ele>
        <time>2023-05-18T10:38:53Z</time>
      </trkpt>
      <trkpt lat="44.63045" lon="5.79452">
        <ele>1733</ele>
        <time>2023-05-18T10:38:54Z</time>
      </trkpt>
      <trkpt lat="44.63045" lon="5.79452">
        <ele>1733</ele>
        <time>2023-05-18T10:38:55Z</time>
      </trkpt>
      <trkpt lat="44.63045" lon="5.79451">
        <ele>1733</ele>
        <time>2023-05-18T10:38:58Z</time>
      </trkpt>
      <trkpt lat="44.63045" lon="5.79451">
        <ele>1732.8</ele>
        <time>2023-05-18T10:38:59Z</time>
      </trkpt>
      <trkpt lat="44.63045" lon="5.79451">
        <ele>1732.6</ele>
        <time>2023-05-18T10:39:05Z</time>
      </trkpt>
      <trkpt lat="44.63045" lon="5.79451">
        <ele>1732.6</ele>
        <time>2023-05-18T10:39:08Z</time>
      </trkpt>
      <trkpt lat="44.63045" lon="5.79451">
        <ele>1732.6</ele>
        <time>2023-05-18T10:39:09Z</time>
      </trkpt>
      <trkpt lat="44.63044" lon="5.79448">
        <ele>1732.4</ele>
        <time>2023-05-18T10:39:12Z</time>
      </trkpt>
      <trkpt lat="44.63044" lon="5.79447">
        <ele>1732.4</ele>
        <time>2023-05-18T10:39:14Z</time>
      </trkpt>
      <trkpt lat="44.63044" lon="5.79446">
        <ele>1732.4</ele>
        <time>2023-05-18T10:39:15Z</time>
      </trkpt>
      <trkpt lat="44.63044" lon="5.79445">
        <ele>1732.4</ele>
        <time>2023-05-18T10:39:16Z</time>
      </trkpt>
      <trkpt lat="44.63044" lon="5.79443">
        <ele>1732.4</ele>
        <time>2023-05-18T10:39:17Z</time>
      </trkpt>
      <trkpt lat="44.63042" lon="5.7944">
        <ele>1732.4</ele>
        <time>2023-05-18T10:39:20Z</time>
      </trkpt>
      <trkpt lat="44.63042" lon="5.79438">
        <ele>1732.4</ele>
        <time>2023-05-18T10:39:21Z</time>
      </trkpt>
      <trkpt lat="44.63042" lon="5.79437">
        <ele>1732.4</ele>
        <time>2023-05-18T10:39:22Z</time>
      </trkpt>
      <trkpt lat="44.63042" lon="5.79437">
        <ele>1732.4</ele>
        <time>2023-05-18T10:39:23Z</time>
      </trkpt>
      <trkpt lat="44.63041" lon="5.79436">
        <ele>1732.4</ele>
        <time>2023-05-18T10:39:24Z</time>
      </trkpt>
      <trkpt lat="44.63041" lon="5.79435">
        <ele>1732.4</ele>
        <time>2023-05-18T10:39:25Z</time>
      </trkpt>
      <trkpt lat="44.63041" lon="5.79431">
        <ele>1732.6</ele>
        <time>2023-05-18T10:39:27Z</time>
      </trkpt>
      <trkpt lat="44.63041" lon="5.79429">
        <ele>1732.6</ele>
        <time>2023-05-18T10:39:28Z</time>
      </trkpt>
      <trkpt lat="44.63041" lon="5.79424">
        <ele>1732.6</ele>
        <time>2023-05-18T10:39:32Z</time>
      </trkpt>
      <trkpt lat="44.63038" lon="5.79419">
        <ele>1732.4</ele>
        <time>2023-05-18T10:39:34Z</time>
      </trkpt>
      <trkpt lat="44.63037" lon="5.79417">
        <ele>1732.4</ele>
        <time>2023-05-18T10:39:35Z</time>
      </trkpt>
      <trkpt lat="44.63037" lon="5.79415">
        <ele>1732.4</ele>
        <time>2023-05-18T10:39:36Z</time>
      </trkpt>
      <trkpt lat="44.63037" lon="5.79413">
        <ele>1732.4</ele>
        <time>2023-05-18T10:39:37Z</time>
      </trkpt>
      <trkpt lat="44.63034" lon="5.79408">
        <ele>1732.2</ele>
        <time>2023-05-18T10:39:39Z</time>
      </trkpt>
      <trkpt lat="44.63033" lon="5.79405">
        <ele>1732</ele>
        <time>2023-05-18T10:39:40Z</time>
      </trkpt>
      <trkpt lat="44.63032" lon="5.79402">
        <ele>1732</ele>
        <time>2023-05-18T10:39:41Z</time>
      </trkpt>
      <trkpt lat="44.63031" lon="5.794">
        <ele>1732</ele>
        <time>2023-05-18T10:39:42Z</time>
      </trkpt>
      <trkpt lat="44.6303" lon="5.79396">
        <ele>1731.8</ele>
        <time>2023-05-18T10:39:43Z</time>
      </trkpt>
      <trkpt lat="44.63026" lon="5.7939">
        <ele>1731.6</ele>
        <time>2023-05-18T10:39:45Z</time>
      </trkpt>
      <trkpt lat="44.63024" lon="5.79383">
        <ele>1731.4</ele>
        <time>2023-05-18T10:39:47Z</time>
      </trkpt>
      <trkpt lat="44.63023" lon="5.7938">
        <ele>1731.2</ele>
        <time>2023-05-18T10:39:48Z</time>
      </trkpt>
      <trkpt lat="44.63021" lon="5.79376">
        <ele>1730.8</ele>
        <time>2023-05-18T10:39:49Z</time>
      </trkpt>
      <trkpt lat="44.63021" lon="5.79374">
        <ele>1730.8</ele>
        <time>2023-05-18T10:39:50Z</time>
      </trkpt>
      <trkpt lat="44.63021" lon="5.79374">
        <ele>1730.6</ele>
        <time>2023-05-18T10:39:51Z</time>
      </trkpt>
      <trkpt lat="44.63021" lon="5.79374">
        <ele>1730.2</ele>
        <time>2023-05-18T10:39:52Z</time>
      </trkpt>
      <trkpt lat="44.63021" lon="5.79374">
        <ele>1730.2</ele>
        <time>2023-05-18T10:39:53Z</time>
      </trkpt>
      <trkpt lat="44.63021" lon="5.79374">
        <ele>1730.2</ele>
        <time>2023-05-18T10:39:54Z</time>
      </trkpt>
      <trkpt lat="44.63021" lon="5.79374">
        <ele>1730.2</ele>
        <time>2023-05-18T10:39:55Z</time>
      </trkpt>
      <trkpt lat="44.63021" lon="5.79374">
        <ele>1730.2</ele>
        <time>2023-05-18T10:39:57Z</time>
      </trkpt>
      <trkpt lat="44.63021" lon="5.79374">
        <ele>1730.2</ele>
        <time>2023-05-18T10:39:58Z</time>
      </trkpt>
      <trkpt lat="44.63021" lon="5.79374">
        <ele>1730.2</ele>
        <time>2023-05-18T10:39:59Z</time>
      </trkpt>
      <trkpt lat="44.6302" lon="5.79373">
        <ele>1730.4</ele>
        <time>2023-05-18T10:40:00Z</time>
      </trkpt>
      <trkpt lat="44.6302" lon="5.79373">
        <ele>1730.4</ele>
        <time>2023-05-18T10:40:01Z</time>
      </trkpt>
      <trkpt lat="44.6302" lon="5.79372">
        <ele>1730.6</ele>
        <time>2023-05-18T10:40:02Z</time>
      </trkpt>
      <trkpt lat="44.63018" lon="5.79371">
        <ele>1730.8</ele>
        <time>2023-05-18T10:40:03Z</time>
      </trkpt>
      <trkpt lat="44.63018" lon="5.79369">
        <ele>1730.8</ele>
        <time>2023-05-18T10:40:04Z</time>
      </trkpt>
      <trkpt lat="44.63017" lon="5.79366">
        <ele>1731</ele>
        <time>2023-05-18T10:40:07Z</time>
      </trkpt>
      <trkpt lat="44.63017" lon="5.79363">
        <ele>1731.2</ele>
        <time>2023-05-18T10:40:08Z</time>
      </trkpt>
      <trkpt lat="44.63017" lon="5.79362">
        <ele>1731.2</ele>
        <time>2023-05-18T10:40:09Z</time>
      </trkpt>
      <trkpt lat="44.63016" lon="5.7936">
        <ele>1731.2</ele>
        <time>2023-05-18T10:40:10Z</time>
      </trkpt>
      <trkpt lat="44.63016" lon="5.79359">
        <ele>1731.2</ele>
        <time>2023-05-18T10:40:11Z</time>
      </trkpt>
      <trkpt lat="44.63015" lon="5.79355">
        <ele>1731.2</ele>
        <time>2023-05-18T10:40:14Z</time>
      </trkpt>
      <trkpt lat="44.63015" lon="5.79355">
        <ele>1731.2</ele>
        <time>2023-05-18T10:40:15Z</time>
      </trkpt>
      <trkpt lat="44.63015" lon="5.79355">
        <ele>1731.2</ele>
        <time>2023-05-18T10:40:16Z</time>
      </trkpt>
      <trkpt lat="44.63015" lon="5.79355">
        <ele>1731.4</ele>
        <time>2023-05-18T10:40:21Z</time>
      </trkpt>
      <trkpt lat="44.63014" lon="5.79354">
        <ele>1731.4</ele>
        <time>2023-05-18T10:40:33Z</time>
      </trkpt>
      <trkpt lat="44.63015" lon="5.79351">
        <ele>1731.4</ele>
        <time>2023-05-18T10:40:35Z</time>
      </trkpt>
      <trkpt lat="44.63012" lon="5.79344">
        <ele>1731.6</ele>
        <time>2023-05-18T10:40:38Z</time>
      </trkpt>
      <trkpt lat="44.63011" lon="5.79342">
        <ele>1731.6</ele>
        <time>2023-05-18T10:40:39Z</time>
      </trkpt>
      <trkpt lat="44.63011" lon="5.79339">
        <ele>1731.6</ele>
        <time>2023-05-18T10:40:40Z</time>
      </trkpt>
      <trkpt lat="44.6301" lon="5.79335">
        <ele>1731.6</ele>
        <time>2023-05-18T10:40:41Z</time>
      </trkpt>
      <trkpt lat="44.6301" lon="5.79332">
        <ele>1731.6</ele>
        <time>2023-05-18T10:40:42Z</time>
      </trkpt>
      <trkpt lat="44.63009" lon="5.79328">
        <ele>1731.4</ele>
        <time>2023-05-18T10:40:43Z</time>
      </trkpt>
      <trkpt lat="44.63008" lon="5.79325">
        <ele>1731.2</ele>
        <time>2023-05-18T10:40:44Z</time>
      </trkpt>
      <trkpt lat="44.63007" lon="5.79321">
        <ele>1731.2</ele>
        <time>2023-05-18T10:40:45Z</time>
      </trkpt>
      <trkpt lat="44.63004" lon="5.79317">
        <ele>1731</ele>
        <time>2023-05-18T10:40:47Z</time>
      </trkpt>
      <trkpt lat="44.63003" lon="5.79315">
        <ele>1730.6</ele>
        <time>2023-05-18T10:40:48Z</time>
      </trkpt>
      <trkpt lat="44.63002" lon="5.79313">
        <ele>1730.4</ele>
        <time>2023-05-18T10:40:49Z</time>
      </trkpt>
      <trkpt lat="44.63001" lon="5.7931">
        <ele>1730</ele>
        <time>2023-05-18T10:40:50Z</time>
      </trkpt>
      <trkpt lat="44.62998" lon="5.79305">
        <ele>1729.6</ele>
        <time>2023-05-18T10:40:52Z</time>
      </trkpt>
      <trkpt lat="44.62996" lon="5.79299">
        <ele>1729.4</ele>
        <time>2023-05-18T10:40:54Z</time>
      </trkpt>
      <trkpt lat="44.62995" lon="5.79294">
        <ele>1729.2</ele>
        <time>2023-05-18T10:40:56Z</time>
      </trkpt>
      <trkpt lat="44.62994" lon="5.79292">
        <ele>1729.2</ele>
        <time>2023-05-18T10:40:57Z</time>
      </trkpt>
      <trkpt lat="44.62993" lon="5.79289">
        <ele>1729</ele>
        <time>2023-05-18T10:40:58Z</time>
      </trkpt>
      <trkpt lat="44.62993" lon="5.79285">
        <ele>1728.8</ele>
        <time>2023-05-18T10:40:59Z</time>
      </trkpt>
      <trkpt lat="44.62991" lon="5.7928">
        <ele>1728.8</ele>
        <time>2023-05-18T10:41:00Z</time>
      </trkpt>
      <trkpt lat="44.62983" lon="5.79269">
        <ele>1728.2</ele>
        <time>2023-05-18T10:41:03Z</time>
      </trkpt>
      <trkpt lat="44.62976" lon="5.79263">
        <ele>1727.6</ele>
        <time>2023-05-18T10:41:05Z</time>
      </trkpt>
      <trkpt lat="44.62975" lon="5.7926">
        <ele>1727.2</ele>
        <time>2023-05-18T10:41:06Z</time>
      </trkpt>
      <trkpt lat="44.62974" lon="5.79258">
        <ele>1727</ele>
        <time>2023-05-18T10:41:07Z</time>
      </trkpt>
      <trkpt lat="44.62973" lon="5.79255">
        <ele>1726.8</ele>
        <time>2023-05-18T10:41:08Z</time>
      </trkpt>
      <trkpt lat="44.62969" lon="5.79248">
        <ele>1726.6</ele>
        <time>2023-05-18T10:41:10Z</time>
      </trkpt>
      <trkpt lat="44.62966" lon="5.79244">
        <ele>1726.4</ele>
        <time>2023-05-18T10:41:11Z</time>
      </trkpt>
      <trkpt lat="44.62963" lon="5.7924">
        <ele>1726</ele>
        <time>2023-05-18T10:41:12Z</time>
      </trkpt>
      <trkpt lat="44.6296" lon="5.79236">
        <ele>1725.8</ele>
        <time>2023-05-18T10:41:13Z</time>
      </trkpt>
      <trkpt lat="44.62957" lon="5.79232">
        <ele>1725.6</ele>
        <time>2023-05-18T10:41:14Z</time>
      </trkpt>
      <trkpt lat="44.62952" lon="5.79227">
        <ele>1725.4</ele>
        <time>2023-05-18T10:41:16Z</time>
      </trkpt>
      <trkpt lat="44.6295" lon="5.79224">
        <ele>1725</ele>
        <time>2023-05-18T10:41:17Z</time>
      </trkpt>
      <trkpt lat="44.62949" lon="5.79221">
        <ele>1725</ele>
        <time>2023-05-18T10:41:18Z</time>
      </trkpt>
      <trkpt lat="44.62947" lon="5.79219">
        <ele>1724.8</ele>
        <time>2023-05-18T10:41:19Z</time>
      </trkpt>
      <trkpt lat="44.62946" lon="5.79216">
        <ele>1724.4</ele>
        <time>2023-05-18T10:41:20Z</time>
      </trkpt>
      <trkpt lat="44.62944" lon="5.79213">
        <ele>1724</ele>
        <time>2023-05-18T10:41:21Z</time>
      </trkpt>
      <trkpt lat="44.62942" lon="5.7921">
        <ele>1723.8</ele>
        <time>2023-05-18T10:41:22Z</time>
      </trkpt>
      <trkpt lat="44.62937" lon="5.79203">
        <ele>1723</ele>
        <time>2023-05-18T10:41:24Z</time>
      </trkpt>
      <trkpt lat="44.62933" lon="5.79195">
        <ele>1722</ele>
        <time>2023-05-18T10:41:26Z</time>
      </trkpt>
      <trkpt lat="44.6293" lon="5.79192">
        <ele>1721.8</ele>
        <time>2023-05-18T10:41:27Z</time>
      </trkpt>
      <trkpt lat="44.62923" lon="5.79187">
        <ele>1721.4</ele>
        <time>2023-05-18T10:41:29Z</time>
      </trkpt>
      <trkpt lat="44.62922" lon="5.79185">
        <ele>1721</ele>
        <time>2023-05-18T10:41:30Z</time>
      </trkpt>
      <trkpt lat="44.62921" lon="5.79183">
        <ele>1720.8</ele>
        <time>2023-05-18T10:41:31Z</time>
      </trkpt>
      <trkpt lat="44.62919" lon="5.7918">
        <ele>1720.8</ele>
        <time>2023-05-18T10:41:32Z</time>
      </trkpt>
      <trkpt lat="44.62917" lon="5.79178">
        <ele>1720.8</ele>
        <time>2023-05-18T10:41:33Z</time>
      </trkpt>
      <trkpt lat="44.62915" lon="5.79175">
        <ele>1720.6</ele>
        <time>2023-05-18T10:41:34Z</time>
      </trkpt>
      <trkpt lat="44.62913" lon="5.79173">
        <ele>1720.4</ele>
        <time>2023-05-18T10:41:35Z</time>
      </trkpt>
      <trkpt lat="44.62908" lon="5.79161">
        <ele>1720.2</ele>
        <time>2023-05-18T10:41:38Z</time>
      </trkpt>
      <trkpt lat="44.62905" lon="5.79158">
        <ele>1720</ele>
        <time>2023-05-18T10:41:39Z</time>
      </trkpt>
      <trkpt lat="44.62902" lon="5.79155">
        <ele>1720</ele>
        <time>2023-05-18T10:41:40Z</time>
      </trkpt>
      <trkpt lat="44.62901" lon="5.79152">
        <ele>1719.8</ele>
        <time>2023-05-18T10:41:41Z</time>
      </trkpt>
      <trkpt lat="44.62901" lon="5.79149">
        <ele>1719.8</ele>
        <time>2023-05-18T10:41:42Z</time>
      </trkpt>
      <trkpt lat="44.629" lon="5.79148">
        <ele>1719.6</ele>
        <time>2023-05-18T10:41:43Z</time>
      </trkpt>
      <trkpt lat="44.62898" lon="5.79146">
        <ele>1719.2</ele>
        <time>2023-05-18T10:41:44Z</time>
      </trkpt>
      <trkpt lat="44.62896" lon="5.79144">
        <ele>1719</ele>
        <time>2023-05-18T10:41:45Z</time>
      </trkpt>
      <trkpt lat="44.62894" lon="5.79142">
        <ele>1718.8</ele>
        <time>2023-05-18T10:41:46Z</time>
      </trkpt>
      <trkpt lat="44.62892" lon="5.7914">
        <ele>1718.8</ele>
        <time>2023-05-18T10:41:47Z</time>
      </trkpt>
      <trkpt lat="44.6289" lon="5.79138">
        <ele>1718.6</ele>
        <time>2023-05-18T10:41:48Z</time>
      </trkpt>
      <trkpt lat="44.62888" lon="5.79137">
        <ele>1718.6</ele>
        <time>2023-05-18T10:41:49Z</time>
      </trkpt>
      <trkpt lat="44.62887" lon="5.79136">
        <ele>1718.6</ele>
        <time>2023-05-18T10:41:50Z</time>
      </trkpt>
      <trkpt lat="44.62885" lon="5.79135">
        <ele>1718.6</ele>
        <time>2023-05-18T10:41:51Z</time>
      </trkpt>
      <trkpt lat="44.62883" lon="5.79135">
        <ele>1718.6</ele>
        <time>2023-05-18T10:41:52Z</time>
      </trkpt>
      <trkpt lat="44.62882" lon="5.79134">
        <ele>1718.6</ele>
        <time>2023-05-18T10:41:53Z</time>
      </trkpt>
      <trkpt lat="44.62881" lon="5.79133">
        <ele>1718.6</ele>
        <time>2023-05-18T10:41:54Z</time>
      </trkpt>
      <trkpt lat="44.6288" lon="5.79133">
        <ele>1718.6</ele>
        <time>2023-05-18T10:41:55Z</time>
      </trkpt>
      <trkpt lat="44.62878" lon="5.79132">
        <ele>1718.6</ele>
        <time>2023-05-18T10:41:57Z</time>
      </trkpt>
      <trkpt lat="44.62877" lon="5.79131">
        <ele>1718.6</ele>
        <time>2023-05-18T10:41:58Z</time>
      </trkpt>
      <trkpt lat="44.62877" lon="5.79131">
        <ele>1718.6</ele>
        <time>2023-05-18T10:41:59Z</time>
      </trkpt>
      <trkpt lat="44.62877" lon="5.79131">
        <ele>1718.8</ele>
        <time>2023-05-18T10:42:02Z</time>
      </trkpt>
      <trkpt lat="44.62877" lon="5.79131">
        <ele>1718.8</ele>
        <time>2023-05-18T10:42:10Z</time>
      </trkpt>
      <trkpt lat="44.62878" lon="5.79132">
        <ele>1718.8</ele>
        <time>2023-05-18T10:42:39Z</time>
      </trkpt>
      <trkpt lat="44.62878" lon="5.79132">
        <ele>1718.2</ele>
        <time>2023-05-18T10:42:51Z</time>
      </trkpt>
      <trkpt lat="44.62878" lon="5.79132">
        <ele>1718</ele>
        <time>2023-05-18T10:43:04Z</time>
      </trkpt>
      <trkpt lat="44.62878" lon="5.79132">
        <ele>1718</ele>
        <time>2023-05-18T10:43:16Z</time>
      </trkpt>
      <trkpt lat="44.62878" lon="5.79132">
        <ele>1717.8</ele>
        <time>2023-05-18T10:43:23Z</time>
      </trkpt>
      <trkpt lat="44.62878" lon="5.79132">
        <ele>1717.8</ele>
        <time>2023-05-18T10:43:33Z</time>
      </trkpt>
      <trkpt lat="44.62878" lon="5.79132">
        <ele>1718.4</ele>
        <time>2023-05-18T10:44:09Z</time>
      </trkpt>
      <trkpt lat="44.62878" lon="5.79132">
        <ele>1718.4</ele>
        <time>2023-05-18T10:44:29Z</time>
      </trkpt>
      <trkpt lat="44.62878" lon="5.79132">
        <ele>1718.2</ele>
        <time>2023-05-18T10:44:44Z</time>
      </trkpt>
      <trkpt lat="44.62878" lon="5.79132">
        <ele>1718.4</ele>
        <time>2023-05-18T10:44:57Z</time>
      </trkpt>
      <trkpt lat="44.62878" lon="5.79132">
        <ele>1719.2</ele>
        <time>2023-05-18T10:45:04Z</time>
      </trkpt>
      <trkpt lat="44.62878" lon="5.79132">
        <ele>1719.4</ele>
        <time>2023-05-18T10:45:11Z</time>
      </trkpt>
      <trkpt lat="44.62878" lon="5.79132">
        <ele>1719.4</ele>
        <time>2023-05-18T10:45:12Z</time>
      </trkpt>
      <trkpt lat="44.62878" lon="5.79132">
        <ele>1719.8</ele>
        <time>2023-05-18T10:45:40Z</time>
      </trkpt>
      <trkpt lat="44.62878" lon="5.79132">
        <ele>1719.6</ele>
        <time>2023-05-18T10:45:50Z</time>
      </trkpt>
      <trkpt lat="44.62878" lon="5.79132">
        <ele>1719.8</ele>
        <time>2023-05-18T10:46:05Z</time>
      </trkpt>
      <trkpt lat="44.62878" lon="5.79132">
        <ele>1719.6</ele>
        <time>2023-05-18T10:46:44Z</time>
      </trkpt>
      <trkpt lat="44.62878" lon="5.79132">
        <ele>1719.4</ele>
        <time>2023-05-18T10:47:50Z</time>
      </trkpt>
      <trkpt lat="44.62878" lon="5.79132">
        <ele>1719.6</ele>
        <time>2023-05-18T10:48:31Z</time>
      </trkpt>
      <trkpt lat="44.62878" lon="5.79132">
        <ele>1719.8</ele>
        <time>2023-05-18T10:49:04Z</time>
      </trkpt>
      <trkpt lat="44.62878" lon="5.79132">
        <ele>1719.2</ele>
        <time>2023-05-18T10:49:22Z</time>
      </trkpt>
      <trkpt lat="44.62879" lon="5.79134">
        <ele>1719.6</ele>
        <time>2023-05-18T10:49:29Z</time>
      </trkpt>
      <trkpt lat="44.62879" lon="5.79134">
        <ele>1719.6</ele>
        <time>2023-05-18T10:49:49Z</time>
      </trkpt>
      <trkpt lat="44.62879" lon="5.79134">
        <ele>1719.6</ele>
        <time>2023-05-18T10:50:18Z</time>
      </trkpt>
      <trkpt lat="44.62878" lon="5.79133">
        <ele>1719.6</ele>
        <time>2023-05-18T10:50:41Z</time>
      </trkpt>
      <trkpt lat="44.62878" lon="5.79133">
        <ele>1719.6</ele>
        <time>2023-05-18T10:50:49Z</time>
      </trkpt>
      <trkpt lat="44.62878" lon="5.79133">
        <ele>1719.6</ele>
        <time>2023-05-18T10:51:08Z</time>
      </trkpt>
      <trkpt lat="44.62878" lon="5.79133">
        <ele>1719.4</ele>
        <time>2023-05-18T10:51:36Z</time>
      </trkpt>
      <trkpt lat="44.62878" lon="5.79133">
        <ele>1719.4</ele>
        <time>2023-05-18T10:51:43Z</time>
      </trkpt>
      <trkpt lat="44.62878" lon="5.79133">
        <ele>1719.4</ele>
        <time>2023-05-18T10:52:17Z</time>
      </trkpt>
      <trkpt lat="44.62878" lon="5.79133">
        <ele>1719.6</ele>
        <time>2023-05-18T10:52:36Z</time>
      </trkpt>
      <trkpt lat="44.62878" lon="5.79133">
        <ele>1719.2</ele>
        <time>2023-05-18T10:52:47Z</time>
      </trkpt>
      <trkpt lat="44.62878" lon="5.79133">
        <ele>1718.6</ele>
        <time>2023-05-18T10:52:58Z</time>
      </trkpt>
      <trkpt lat="44.62878" lon="5.79133">
        <ele>1719</ele>
        <time>2023-05-18T10:53:34Z</time>
      </trkpt>
      <trkpt lat="44.62878" lon="5.79132">
        <ele>1719</ele>
        <time>2023-05-18T10:53:55Z</time>
      </trkpt>
      <trkpt lat="44.62878" lon="5.79132">
        <ele>1720.2</ele>
        <time>2023-05-18T10:54:35Z</time>
      </trkpt>
      <trkpt lat="44.62878" lon="5.79129">
        <ele>1720</ele>
        <time>2023-05-18T10:54:41Z</time>
      </trkpt>
      <trkpt lat="44.6288" lon="5.79128">
        <ele>1720</ele>
        <time>2023-05-18T10:54:43Z</time>
      </trkpt>
      <trkpt lat="44.62881" lon="5.79127">
        <ele>1720</ele>
        <time>2023-05-18T10:54:45Z</time>
      </trkpt>
      <trkpt lat="44.62881" lon="5.79122">
        <ele>1719.8</ele>
        <time>2023-05-18T10:54:47Z</time>
      </trkpt>
      <trkpt lat="44.62878" lon="5.79118">
        <ele>1719.8</ele>
        <time>2023-05-18T10:54:50Z</time>
      </trkpt>
      <trkpt lat="44.62877" lon="5.79117">
        <ele>1719.6</ele>
        <time>2023-05-18T10:54:51Z</time>
      </trkpt>
      <trkpt lat="44.62874" lon="5.79115">
        <ele>1719.6</ele>
        <time>2023-05-18T10:54:53Z</time>
      </trkpt>
      <trkpt lat="44.6287" lon="5.79113">
        <ele>1719.6</ele>
        <time>2023-05-18T10:54:57Z</time>
      </trkpt>
      <trkpt lat="44.62868" lon="5.79111">
        <ele>1719.4</ele>
        <time>2023-05-18T10:54:58Z</time>
      </trkpt>
      <trkpt lat="44.62863" lon="5.79111">
        <ele>1719.2</ele>
        <time>2023-05-18T10:55:00Z</time>
      </trkpt>
      <trkpt lat="44.62857" lon="5.7911">
        <ele>1718.8</ele>
        <time>2023-05-18T10:55:02Z</time>
      </trkpt>
      <trkpt lat="44.6285" lon="5.79108">
        <ele>1718.6</ele>
        <time>2023-05-18T10:55:04Z</time>
      </trkpt>
      <trkpt lat="44.62843" lon="5.79109">
        <ele>1718.2</ele>
        <time>2023-05-18T10:55:06Z</time>
      </trkpt>
      <trkpt lat="44.6284" lon="5.7911">
        <ele>1718</ele>
        <time>2023-05-18T10:55:07Z</time>
      </trkpt>
      <trkpt lat="44.62838" lon="5.7911">
        <ele>1717.2</ele>
        <time>2023-05-18T10:55:08Z</time>
      </trkpt>
      <trkpt lat="44.62831" lon="5.7911">
        <ele>1716.4</ele>
        <time>2023-05-18T10:55:10Z</time>
      </trkpt>
      <trkpt lat="44.62827" lon="5.79112">
        <ele>1716.2</ele>
        <time>2023-05-18T10:55:11Z</time>
      </trkpt>
      <trkpt lat="44.62821" lon="5.79114">
        <ele>1715</ele>
        <time>2023-05-18T10:55:13Z</time>
      </trkpt>
      <trkpt lat="44.62813" lon="5.79115">
        <ele>1713.4</ele>
        <time>2023-05-18T10:55:15Z</time>
      </trkpt>
      <trkpt lat="44.6281" lon="5.79115">
        <ele>1712.6</ele>
        <time>2023-05-18T10:55:16Z</time>
      </trkpt>
      <trkpt lat="44.62806" lon="5.79114">
        <ele>1712.2</ele>
        <time>2023-05-18T10:55:17Z</time>
      </trkpt>
      <trkpt lat="44.62804" lon="5.79114">
        <ele>1712</ele>
        <time>2023-05-18T10:55:18Z</time>
      </trkpt>
      <trkpt lat="44.628" lon="5.79114">
        <ele>1711.6</ele>
        <time>2023-05-18T10:55:19Z</time>
      </trkpt>
      <trkpt lat="44.62797" lon="5.79114">
        <ele>1711.6</ele>
        <time>2023-05-18T10:55:20Z</time>
      </trkpt>
      <trkpt lat="44.62793" lon="5.79114">
        <ele>1711</ele>
        <time>2023-05-18T10:55:21Z</time>
      </trkpt>
      <trkpt lat="44.62782" lon="5.79112">
        <ele>1709.8</ele>
        <time>2023-05-18T10:55:24Z</time>
      </trkpt>
      <trkpt lat="44.62779" lon="5.79113">
        <ele>1708.6</ele>
        <time>2023-05-18T10:55:25Z</time>
      </trkpt>
      <trkpt lat="44.62776" lon="5.79115">
        <ele>1707.4</ele>
        <time>2023-05-18T10:55:26Z</time>
      </trkpt>
      <trkpt lat="44.62772" lon="5.79115">
        <ele>1706.8</ele>
        <time>2023-05-18T10:55:27Z</time>
      </trkpt>
      <trkpt lat="44.62768" lon="5.79113">
        <ele>1705.8</ele>
        <time>2023-05-18T10:55:28Z</time>
      </trkpt>
      <trkpt lat="44.62761" lon="5.79111">
        <ele>1705</ele>
        <time>2023-05-18T10:55:30Z</time>
      </trkpt>
      <trkpt lat="44.62756" lon="5.79111">
        <ele>1704.8</ele>
        <time>2023-05-18T10:55:31Z</time>
      </trkpt>
      <trkpt lat="44.62744" lon="5.7911">
        <ele>1703.4</ele>
        <time>2023-05-18T10:55:34Z</time>
      </trkpt>
      <trkpt lat="44.6274" lon="5.7911">
        <ele>1702.2</ele>
        <time>2023-05-18T10:55:35Z</time>
      </trkpt>
      <trkpt lat="44.62734" lon="5.79108">
        <ele>1701</ele>
        <time>2023-05-18T10:55:37Z</time>
      </trkpt>
      <trkpt lat="44.62731" lon="5.79107">
        <ele>1700.6</ele>
        <time>2023-05-18T10:55:38Z</time>
      </trkpt>
      <trkpt lat="44.62727" lon="5.79105">
        <ele>1700</ele>
        <time>2023-05-18T10:55:39Z</time>
      </trkpt>
      <trkpt lat="44.62723" lon="5.79104">
        <ele>1699.8</ele>
        <time>2023-05-18T10:55:40Z</time>
      </trkpt>
      <trkpt lat="44.62715" lon="5.79103">
        <ele>1698.4</ele>
        <time>2023-05-18T10:55:42Z</time>
      </trkpt>
      <trkpt lat="44.62708" lon="5.79101">
        <ele>1697</ele>
        <time>2023-05-18T10:55:44Z</time>
      </trkpt>
      <trkpt lat="44.62704" lon="5.79101">
        <ele>1696.6</ele>
        <time>2023-05-18T10:55:45Z</time>
      </trkpt>
      <trkpt lat="44.62694" lon="5.79099">
        <ele>1695.4</ele>
        <time>2023-05-18T10:55:47Z</time>
      </trkpt>
      <trkpt lat="44.62691" lon="5.79098">
        <ele>1694.6</ele>
        <time>2023-05-18T10:55:48Z</time>
      </trkpt>
      <trkpt lat="44.62687" lon="5.79097">
        <ele>1694.2</ele>
        <time>2023-05-18T10:55:49Z</time>
      </trkpt>
      <trkpt lat="44.62683" lon="5.79095">
        <ele>1693.2</ele>
        <time>2023-05-18T10:55:50Z</time>
      </trkpt>
      <trkpt lat="44.62678" lon="5.79092">
        <ele>1692.8</ele>
        <time>2023-05-18T10:55:51Z</time>
      </trkpt>
      <trkpt lat="44.62669" lon="5.79087">
        <ele>1690.8</ele>
        <time>2023-05-18T10:55:53Z</time>
      </trkpt>
      <trkpt lat="44.62664" lon="5.79084">
        <ele>1690.6</ele>
        <time>2023-05-18T10:55:54Z</time>
      </trkpt>
      <trkpt lat="44.62655" lon="5.79084">
        <ele>1689.6</ele>
        <time>2023-05-18T10:55:56Z</time>
      </trkpt>
      <trkpt lat="44.62646" lon="5.79083">
        <ele>1688.8</ele>
        <time>2023-05-18T10:55:58Z</time>
      </trkpt>
      <trkpt lat="44.62643" lon="5.79081">
        <ele>1688.2</ele>
        <time>2023-05-18T10:55:59Z</time>
      </trkpt>
      <trkpt lat="44.62643" lon="5.7908">
        <ele>1687.6</ele>
        <time>2023-05-18T10:56:00Z</time>
      </trkpt>
      <trkpt lat="44.62642" lon="5.79079">
        <ele>1686.6</ele>
        <time>2023-05-18T10:56:01Z</time>
      </trkpt>
      <trkpt lat="44.62642" lon="5.79077">
        <ele>1685.4</ele>
        <time>2023-05-18T10:56:02Z</time>
      </trkpt>
      <trkpt lat="44.62642" lon="5.79077">
        <ele>1685</ele>
        <time>2023-05-18T10:56:03Z</time>
      </trkpt>
      <trkpt lat="44.62642" lon="5.79077">
        <ele>1684.4</ele>
        <time>2023-05-18T10:56:04Z</time>
      </trkpt>
      <trkpt lat="44.62642" lon="5.79077">
        <ele>1684.4</ele>
        <time>2023-05-18T10:56:05Z</time>
      </trkpt>
      <trkpt lat="44.62642" lon="5.79077">
        <ele>1683.8</ele>
        <time>2023-05-18T10:56:06Z</time>
      </trkpt>
      <trkpt lat="44.62642" lon="5.79077">
        <ele>1683.8</ele>
        <time>2023-05-18T10:56:07Z</time>
      </trkpt>
      <trkpt lat="44.62642" lon="5.79077">
        <ele>1683.8</ele>
        <time>2023-05-18T10:56:08Z</time>
      </trkpt>
      <trkpt lat="44.62642" lon="5.79077">
        <ele>1683.4</ele>
        <time>2023-05-18T10:56:09Z</time>
      </trkpt>
      <trkpt lat="44.62641" lon="5.79076">
        <ele>1683.2</ele>
        <time>2023-05-18T10:56:11Z</time>
      </trkpt>
      <trkpt lat="44.6264" lon="5.79075">
        <ele>1683</ele>
        <time>2023-05-18T10:56:12Z</time>
      </trkpt>
      <trkpt lat="44.62638" lon="5.79074">
        <ele>1683</ele>
        <time>2023-05-18T10:56:13Z</time>
      </trkpt>
      <trkpt lat="44.62636" lon="5.79072">
        <ele>1683</ele>
        <time>2023-05-18T10:56:14Z</time>
      </trkpt>
      <trkpt lat="44.62634" lon="5.79071">
        <ele>1682.6</ele>
        <time>2023-05-18T10:56:15Z</time>
      </trkpt>
      <trkpt lat="44.62633" lon="5.79071">
        <ele>1682.4</ele>
        <time>2023-05-18T10:56:16Z</time>
      </trkpt>
      <trkpt lat="44.62631" lon="5.7907">
        <ele>1682.4</ele>
        <time>2023-05-18T10:56:17Z</time>
      </trkpt>
      <trkpt lat="44.62628" lon="5.79069">
        <ele>1682.2</ele>
        <time>2023-05-18T10:56:18Z</time>
      </trkpt>
      <trkpt lat="44.62622" lon="5.79067">
        <ele>1681.2</ele>
        <time>2023-05-18T10:56:20Z</time>
      </trkpt>
      <trkpt lat="44.62619" lon="5.79065">
        <ele>1681</ele>
        <time>2023-05-18T10:56:21Z</time>
      </trkpt>
      <trkpt lat="44.62608" lon="5.79059">
        <ele>1679.8</ele>
        <time>2023-05-18T10:56:24Z</time>
      </trkpt>
      <trkpt lat="44.62607" lon="5.79059">
        <ele>1679.4</ele>
        <time>2023-05-18T10:56:25Z</time>
      </trkpt>
      <trkpt lat="44.62606" lon="5.79059">
        <ele>1678.6</ele>
        <time>2023-05-18T10:56:26Z</time>
      </trkpt>
      <trkpt lat="44.62606" lon="5.7906">
        <ele>1678.6</ele>
        <time>2023-05-18T10:56:27Z</time>
      </trkpt>
      <trkpt lat="44.62607" lon="5.7906">
        <ele>1678</ele>
        <time>2023-05-18T10:56:28Z</time>
      </trkpt>
      <trkpt lat="44.62608" lon="5.79061">
        <ele>1676.6</ele>
        <time>2023-05-18T10:56:29Z</time>
      </trkpt>
      <trkpt lat="44.62611" lon="5.79063">
        <ele>1675.4</ele>
        <time>2023-05-18T10:56:31Z</time>
      </trkpt>
      <trkpt lat="44.62613" lon="5.79067">
        <ele>1674.4</ele>
        <time>2023-05-18T10:56:34Z</time>
      </trkpt>
      <trkpt lat="44.62613" lon="5.79067">
        <ele>1674.2</ele>
        <time>2023-05-18T10:56:35Z</time>
      </trkpt>
      <trkpt lat="44.62613" lon="5.79068">
        <ele>1674</ele>
        <time>2023-05-18T10:56:36Z</time>
      </trkpt>
      <trkpt lat="44.62614" lon="5.79071">
        <ele>1674</ele>
        <time>2023-05-18T10:56:37Z</time>
      </trkpt>
      <trkpt lat="44.62618" lon="5.79075">
        <ele>1673.4</ele>
        <time>2023-05-18T10:56:39Z</time>
      </trkpt>
      <trkpt lat="44.6262" lon="5.79078">
        <ele>1673.4</ele>
        <time>2023-05-18T10:56:40Z</time>
      </trkpt>
      <trkpt lat="44.62625" lon="5.7909">
        <ele>1672.8</ele>
        <time>2023-05-18T10:56:43Z</time>
      </trkpt>
      <trkpt lat="44.62627" lon="5.79095">
        <ele>1672.2</ele>
        <time>2023-05-18T10:56:44Z</time>
      </trkpt>
      <trkpt lat="44.62629" lon="5.79101">
        <ele>1672</ele>
        <time>2023-05-18T10:56:45Z</time>
      </trkpt>
      <trkpt lat="44.62632" lon="5.79108">
        <ele>1671.4</ele>
        <time>2023-05-18T10:56:47Z</time>
      </trkpt>
      <trkpt lat="44.62632" lon="5.79109">
        <ele>1670.6</ele>
        <time>2023-05-18T10:56:48Z</time>
      </trkpt>
      <trkpt lat="44.62634" lon="5.79112">
        <ele>1670</ele>
        <time>2023-05-18T10:56:49Z</time>
      </trkpt>
      <trkpt lat="44.62634" lon="5.79115">
        <ele>1669.8</ele>
        <time>2023-05-18T10:56:50Z</time>
      </trkpt>
      <trkpt lat="44.62634" lon="5.79118">
        <ele>1668.6</ele>
        <time>2023-05-18T10:56:51Z</time>
      </trkpt>
      <trkpt lat="44.62632" lon="5.79118">
        <ele>1668.4</ele>
        <time>2023-05-18T10:56:52Z</time>
      </trkpt>
      <trkpt lat="44.62631" lon="5.79118">
        <ele>1667.6</ele>
        <time>2023-05-18T10:56:53Z</time>
      </trkpt>
      <trkpt lat="44.6263" lon="5.79115">
        <ele>1667.4</ele>
        <time>2023-05-18T10:56:54Z</time>
      </trkpt>
      <trkpt lat="44.62627" lon="5.79113">
        <ele>1667.2</ele>
        <time>2023-05-18T10:56:55Z</time>
      </trkpt>
      <trkpt lat="44.62622" lon="5.7911">
        <ele>1667.2</ele>
        <time>2023-05-18T10:56:56Z</time>
      </trkpt>
      <trkpt lat="44.62619" lon="5.79107">
        <ele>1666.8</ele>
        <time>2023-05-18T10:56:57Z</time>
      </trkpt>
      <trkpt lat="44.62614" lon="5.79106">
        <ele>1666.2</ele>
        <time>2023-05-18T10:56:58Z</time>
      </trkpt>
      <trkpt lat="44.6261" lon="5.79104">
        <ele>1666</ele>
        <time>2023-05-18T10:56:59Z</time>
      </trkpt>
      <trkpt lat="44.62606" lon="5.79102">
        <ele>1665.6</ele>
        <time>2023-05-18T10:57:00Z</time>
      </trkpt>
      <trkpt lat="44.62602" lon="5.791">
        <ele>1665.4</ele>
        <time>2023-05-18T10:57:01Z</time>
      </trkpt>
      <trkpt lat="44.62596" lon="5.79098">
        <ele>1663.6</ele>
        <time>2023-05-18T10:57:02Z</time>
      </trkpt>
      <trkpt lat="44.62592" lon="5.79095">
        <ele>1662.8</ele>
        <time>2023-05-18T10:57:03Z</time>
      </trkpt>
      <trkpt lat="44.62587" lon="5.79094">
        <ele>1662</ele>
        <time>2023-05-18T10:57:04Z</time>
      </trkpt>
      <trkpt lat="44.62576" lon="5.79093">
        <ele>1660.6</ele>
        <time>2023-05-18T10:57:06Z</time>
      </trkpt>
      <trkpt lat="44.62572" lon="5.79093">
        <ele>1659.4</ele>
        <time>2023-05-18T10:57:07Z</time>
      </trkpt>
      <trkpt lat="44.62569" lon="5.79094">
        <ele>1659</ele>
        <time>2023-05-18T10:57:08Z</time>
      </trkpt>
      <trkpt lat="44.62566" lon="5.79093">
        <ele>1657.6</ele>
        <time>2023-05-18T10:57:09Z</time>
      </trkpt>
      <trkpt lat="44.62562" lon="5.79093">
        <ele>1657.2</ele>
        <time>2023-05-18T10:57:10Z</time>
      </trkpt>
      <trkpt lat="44.62558" lon="5.79092">
        <ele>1656.4</ele>
        <time>2023-05-18T10:57:11Z</time>
      </trkpt>
      <trkpt lat="44.62555" lon="5.79091">
        <ele>1655.8</ele>
        <time>2023-05-18T10:57:12Z</time>
      </trkpt>
      <trkpt lat="44.62552" lon="5.79089">
        <ele>1654.6</ele>
        <time>2023-05-18T10:57:13Z</time>
      </trkpt>
      <trkpt lat="44.62548" lon="5.79088">
        <ele>1654.2</ele>
        <time>2023-05-18T10:57:14Z</time>
      </trkpt>
      <trkpt lat="44.62544" lon="5.79086">
        <ele>1652.8</ele>
        <time>2023-05-18T10:57:15Z</time>
      </trkpt>
      <trkpt lat="44.62537" lon="5.79086">
        <ele>1651.6</ele>
        <time>2023-05-18T10:57:17Z</time>
      </trkpt>
      <trkpt lat="44.62532" lon="5.79086">
        <ele>1650.6</ele>
        <time>2023-05-18T10:57:18Z</time>
      </trkpt>
      <trkpt lat="44.62528" lon="5.79087">
        <ele>1650.2</ele>
        <time>2023-05-18T10:57:19Z</time>
      </trkpt>
      <trkpt lat="44.62524" lon="5.79086">
        <ele>1649</ele>
        <time>2023-05-18T10:57:20Z</time>
      </trkpt>
      <trkpt lat="44.62515" lon="5.79086">
        <ele>1648.2</ele>
        <time>2023-05-18T10:57:22Z</time>
      </trkpt>
      <trkpt lat="44.62511" lon="5.79086">
        <ele>1648</ele>
        <time>2023-05-18T10:57:23Z</time>
      </trkpt>
      <trkpt lat="44.62508" lon="5.79084">
        <ele>1647.2</ele>
        <time>2023-05-18T10:57:24Z</time>
      </trkpt>
      <trkpt lat="44.62505" lon="5.79082">
        <ele>1646</ele>
        <time>2023-05-18T10:57:25Z</time>
      </trkpt>
      <trkpt lat="44.62502" lon="5.7908">
        <ele>1645.4</ele>
        <time>2023-05-18T10:57:26Z</time>
      </trkpt>
      <trkpt lat="44.625" lon="5.79079">
        <ele>1644.6</ele>
        <time>2023-05-18T10:57:27Z</time>
      </trkpt>
      <trkpt lat="44.62499" lon="5.79078">
        <ele>1644.4</ele>
        <time>2023-05-18T10:57:28Z</time>
      </trkpt>
      <trkpt lat="44.62499" lon="5.79078">
        <ele>1644</ele>
        <time>2023-05-18T10:57:29Z</time>
      </trkpt>
      <trkpt lat="44.62499" lon="5.79078">
        <ele>1643.6</ele>
        <time>2023-05-18T10:57:30Z</time>
      </trkpt>
      <trkpt lat="44.62499" lon="5.79078">
        <ele>1642</ele>
        <time>2023-05-18T10:57:32Z</time>
      </trkpt>
      <trkpt lat="44.62499" lon="5.79078">
        <ele>1641</ele>
        <time>2023-05-18T10:57:34Z</time>
      </trkpt>
      <trkpt lat="44.62499" lon="5.79077">
        <ele>1640.8</ele>
        <time>2023-05-18T10:57:37Z</time>
      </trkpt>
      <trkpt lat="44.62498" lon="5.79077">
        <ele>1640.6</ele>
        <time>2023-05-18T10:57:38Z</time>
      </trkpt>
      <trkpt lat="44.62496" lon="5.79077">
        <ele>1640.6</ele>
        <time>2023-05-18T10:57:39Z</time>
      </trkpt>
      <trkpt lat="44.62494" lon="5.79077">
        <ele>1640.6</ele>
        <time>2023-05-18T10:57:40Z</time>
      </trkpt>
      <trkpt lat="44.62492" lon="5.79076">
        <ele>1640.4</ele>
        <time>2023-05-18T10:57:41Z</time>
      </trkpt>
      <trkpt lat="44.6249" lon="5.79076">
        <ele>1640.4</ele>
        <time>2023-05-18T10:57:42Z</time>
      </trkpt>
      <trkpt lat="44.62488" lon="5.79075">
        <ele>1640.2</ele>
        <time>2023-05-18T10:57:43Z</time>
      </trkpt>
      <trkpt lat="44.62485" lon="5.79074">
        <ele>1640</ele>
        <time>2023-05-18T10:57:44Z</time>
      </trkpt>
      <trkpt lat="44.62483" lon="5.79074">
        <ele>1639.6</ele>
        <time>2023-05-18T10:57:45Z</time>
      </trkpt>
      <trkpt lat="44.62481" lon="5.79073">
        <ele>1639.6</ele>
        <time>2023-05-18T10:57:46Z</time>
      </trkpt>
      <trkpt lat="44.6248" lon="5.79073">
        <ele>1639.4</ele>
        <time>2023-05-18T10:57:47Z</time>
      </trkpt>
      <trkpt lat="44.6248" lon="5.79072">
        <ele>1639.2</ele>
        <time>2023-05-18T10:57:48Z</time>
      </trkpt>
      <trkpt lat="44.62479" lon="5.79072">
        <ele>1638.8</ele>
        <time>2023-05-18T10:57:49Z</time>
      </trkpt>
      <trkpt lat="44.62479" lon="5.79072">
        <ele>1638</ele>
        <time>2023-05-18T10:57:51Z</time>
      </trkpt>
      <trkpt lat="44.62479" lon="5.79072">
        <ele>1637.6</ele>
        <time>2023-05-18T10:57:52Z</time>
      </trkpt>
      <trkpt lat="44.62479" lon="5.79072">
        <ele>1637</ele>
        <time>2023-05-18T10:57:57Z</time>
      </trkpt>
      <trkpt lat="44.62479" lon="5.79072">
        <ele>1636.8</ele>
        <time>2023-05-18T10:58:03Z</time>
      </trkpt>
      <trkpt lat="44.62479" lon="5.79073">
        <ele>1636.6</ele>
        <time>2023-05-18T10:58:11Z</time>
      </trkpt>
      <trkpt lat="44.62479" lon="5.79074">
        <ele>1636.2</ele>
        <time>2023-05-18T10:58:12Z</time>
      </trkpt>
      <trkpt lat="44.62478" lon="5.79074">
        <ele>1636</ele>
        <time>2023-05-18T10:58:13Z</time>
      </trkpt>
      <trkpt lat="44.62481" lon="5.79082">
        <ele>1635.2</ele>
        <time>2023-05-18T10:58:16Z</time>
      </trkpt>
      <trkpt lat="44.62483" lon="5.79085">
        <ele>1635</ele>
        <time>2023-05-18T10:58:17Z</time>
      </trkpt>
      <trkpt lat="44.62487" lon="5.79095">
        <ele>1633.8</ele>
        <time>2023-05-18T10:58:21Z</time>
      </trkpt>
      <trkpt lat="44.62487" lon="5.79095">
        <ele>1633.8</ele>
        <time>2023-05-18T10:58:22Z</time>
      </trkpt>
      <trkpt lat="44.62487" lon="5.79095">
        <ele>1633.2</ele>
        <time>2023-05-18T10:58:23Z</time>
      </trkpt>
      <trkpt lat="44.62487" lon="5.79095">
        <ele>1633</ele>
        <time>2023-05-18T10:58:24Z</time>
      </trkpt>
      <trkpt lat="44.62487" lon="5.79095">
        <ele>1632.4</ele>
        <time>2023-05-18T10:58:25Z</time>
      </trkpt>
      <trkpt lat="44.62487" lon="5.79095">
        <ele>1632</ele>
        <time>2023-05-18T10:58:27Z</time>
      </trkpt>
      <trkpt lat="44.62487" lon="5.79095">
        <ele>1631.2</ele>
        <time>2023-05-18T10:58:30Z</time>
      </trkpt>
      <trkpt lat="44.62487" lon="5.79095">
        <ele>1630.2</ele>
        <time>2023-05-18T10:58:39Z</time>
      </trkpt>
      <trkpt lat="44.62487" lon="5.79095">
        <ele>1630.2</ele>
        <time>2023-05-18T10:58:42Z</time>
      </trkpt>
      <trkpt lat="44.62489" lon="5.79101">
        <ele>1630</ele>
        <time>2023-05-18T10:59:07Z</time>
      </trkpt>
      <trkpt lat="44.62492" lon="5.79105">
        <ele>1630</ele>
        <time>2023-05-18T10:59:09Z</time>
      </trkpt>
      <trkpt lat="44.62493" lon="5.79108">
        <ele>1630</ele>
        <time>2023-05-18T10:59:10Z</time>
      </trkpt>
      <trkpt lat="44.62494" lon="5.79111">
        <ele>1630</ele>
        <time>2023-05-18T10:59:11Z</time>
      </trkpt>
      <trkpt lat="44.62494" lon="5.79113">
        <ele>1630</ele>
        <time>2023-05-18T10:59:12Z</time>
      </trkpt>
      <trkpt lat="44.62492" lon="5.79114">
        <ele>1630</ele>
        <time>2023-05-18T10:59:13Z</time>
      </trkpt>
      <trkpt lat="44.62491" lon="5.79114">
        <ele>1630</ele>
        <time>2023-05-18T10:59:14Z</time>
      </trkpt>
      <trkpt lat="44.62489" lon="5.79114">
        <ele>1629.6</ele>
        <time>2023-05-18T10:59:15Z</time>
      </trkpt>
      <trkpt lat="44.62485" lon="5.79111">
        <ele>1629</ele>
        <time>2023-05-18T10:59:17Z</time>
      </trkpt>
      <trkpt lat="44.62482" lon="5.79109">
        <ele>1629</ele>
        <time>2023-05-18T10:59:18Z</time>
      </trkpt>
      <trkpt lat="44.6248" lon="5.79107">
        <ele>1628.4</ele>
        <time>2023-05-18T10:59:19Z</time>
      </trkpt>
      <trkpt lat="44.62475" lon="5.79106">
        <ele>1627.6</ele>
        <time>2023-05-18T10:59:21Z</time>
      </trkpt>
      <trkpt lat="44.62472" lon="5.79105">
        <ele>1627.4</ele>
        <time>2023-05-18T10:59:22Z</time>
      </trkpt>
      <trkpt lat="44.6247" lon="5.79105">
        <ele>1626.4</ele>
        <time>2023-05-18T10:59:23Z</time>
      </trkpt>
      <trkpt lat="44.62468" lon="5.79103">
        <ele>1625.6</ele>
        <time>2023-05-18T10:59:24Z</time>
      </trkpt>
      <trkpt lat="44.62464" lon="5.79103">
        <ele>1625.4</ele>
        <time>2023-05-18T10:59:25Z</time>
      </trkpt>
      <trkpt lat="44.6246" lon="5.79104">
        <ele>1624.2</ele>
        <time>2023-05-18T10:59:26Z</time>
      </trkpt>
      <trkpt lat="44.62452" lon="5.79108">
        <ele>1622.2</ele>
        <time>2023-05-18T10:59:28Z</time>
      </trkpt>
      <trkpt lat="44.62448" lon="5.7911">
        <ele>1621.8</ele>
        <time>2023-05-18T10:59:29Z</time>
      </trkpt>
      <trkpt lat="44.62443" lon="5.79113">
        <ele>1620.6</ele>
        <time>2023-05-18T10:59:30Z</time>
      </trkpt>
      <trkpt lat="44.62439" lon="5.79113">
        <ele>1620</ele>
        <time>2023-05-18T10:59:31Z</time>
      </trkpt>
      <trkpt lat="44.62434" lon="5.79114">
        <ele>1618.4</ele>
        <time>2023-05-18T10:59:32Z</time>
      </trkpt>
      <trkpt lat="44.62429" lon="5.79113">
        <ele>1617.6</ele>
        <time>2023-05-18T10:59:33Z</time>
      </trkpt>
      <trkpt lat="44.62422" lon="5.79114">
        <ele>1617.2</ele>
        <time>2023-05-18T10:59:34Z</time>
      </trkpt>
      <trkpt lat="44.62416" lon="5.79113">
        <ele>1616.2</ele>
        <time>2023-05-18T10:59:35Z</time>
      </trkpt>
      <trkpt lat="44.62411" lon="5.79113">
        <ele>1615.2</ele>
        <time>2023-05-18T10:59:36Z</time>
      </trkpt>
      <trkpt lat="44.62404" lon="5.79112">
        <ele>1614</ele>
        <time>2023-05-18T10:59:37Z</time>
      </trkpt>
      <trkpt lat="44.62392" lon="5.79109">
        <ele>1611.8</ele>
        <time>2023-05-18T10:59:39Z</time>
      </trkpt>
      <trkpt lat="44.62386" lon="5.79109">
        <ele>1611</ele>
        <time>2023-05-18T10:59:40Z</time>
      </trkpt>
      <trkpt lat="44.62379" lon="5.79106">
        <ele>1609</ele>
        <time>2023-05-18T10:59:41Z</time>
      </trkpt>
      <trkpt lat="44.62371" lon="5.79105">
        <ele>1608.2</ele>
        <time>2023-05-18T10:59:42Z</time>
      </trkpt>
      <trkpt lat="44.62362" lon="5.79107">
        <ele>1607.2</ele>
        <time>2023-05-18T10:59:43Z</time>
      </trkpt>
      <trkpt lat="44.62347" lon="5.79107">
        <ele>1605.8</ele>
        <time>2023-05-18T10:59:45Z</time>
      </trkpt>
      <trkpt lat="44.62341" lon="5.79106">
        <ele>1604.2</ele>
        <time>2023-05-18T10:59:46Z</time>
      </trkpt>
      <trkpt lat="44.62335" lon="5.79106">
        <ele>1603</ele>
        <time>2023-05-18T10:59:47Z</time>
      </trkpt>
      <trkpt lat="44.62328" lon="5.79106">
        <ele>1601.8</ele>
        <time>2023-05-18T10:59:48Z</time>
      </trkpt>
      <trkpt lat="44.62322" lon="5.79108">
        <ele>1601.2</ele>
        <time>2023-05-18T10:59:49Z</time>
      </trkpt>
      <trkpt lat="44.62317" lon="5.79107">
        <ele>1600</ele>
        <time>2023-05-18T10:59:50Z</time>
      </trkpt>
      <trkpt lat="44.62312" lon="5.79106">
        <ele>1599</ele>
        <time>2023-05-18T10:59:51Z</time>
      </trkpt>
      <trkpt lat="44.62307" lon="5.79106">
        <ele>1597.8</ele>
        <time>2023-05-18T10:59:52Z</time>
      </trkpt>
      <trkpt lat="44.62302" lon="5.79106">
        <ele>1597</ele>
        <time>2023-05-18T10:59:53Z</time>
      </trkpt>
      <trkpt lat="44.62297" lon="5.79107">
        <ele>1596.4</ele>
        <time>2023-05-18T10:59:54Z</time>
      </trkpt>
      <trkpt lat="44.62292" lon="5.79106">
        <ele>1595</ele>
        <time>2023-05-18T10:59:55Z</time>
      </trkpt>
      <trkpt lat="44.62286" lon="5.79104">
        <ele>1594.8</ele>
        <time>2023-05-18T10:59:56Z</time>
      </trkpt>
      <trkpt lat="44.62279" lon="5.79104">
        <ele>1593.8</ele>
        <time>2023-05-18T10:59:57Z</time>
      </trkpt>
      <trkpt lat="44.62265" lon="5.79106">
        <ele>1592</ele>
        <time>2023-05-18T10:59:59Z</time>
      </trkpt>
      <trkpt lat="44.62259" lon="5.79106">
        <ele>1591.4</ele>
        <time>2023-05-18T11:00:00Z</time>
      </trkpt>
      <trkpt lat="44.62251" lon="5.79108">
        <ele>1590.4</ele>
        <time>2023-05-18T11:00:01Z</time>
      </trkpt>
      <trkpt lat="44.62244" lon="5.79111">
        <ele>1589.2</ele>
        <time>2023-05-18T11:00:02Z</time>
      </trkpt>
      <trkpt lat="44.62238" lon="5.79112">
        <ele>1588.8</ele>
        <time>2023-05-18T11:00:03Z</time>
      </trkpt>
      <trkpt lat="44.62231" lon="5.79112">
        <ele>1587.6</ele>
        <time>2023-05-18T11:00:04Z</time>
      </trkpt>
      <trkpt lat="44.62225" lon="5.79113">
        <ele>1587.2</ele>
        <time>2023-05-18T11:00:05Z</time>
      </trkpt>
      <trkpt lat="44.6222" lon="5.79113">
        <ele>1586.4</ele>
        <time>2023-05-18T11:00:06Z</time>
      </trkpt>
      <trkpt lat="44.62214" lon="5.79114">
        <ele>1585.8</ele>
        <time>2023-05-18T11:00:07Z</time>
      </trkpt>
      <trkpt lat="44.62207" lon="5.79115">
        <ele>1585.4</ele>
        <time>2023-05-18T11:00:08Z</time>
      </trkpt>
      <trkpt lat="44.622" lon="5.79117">
        <ele>1585</ele>
        <time>2023-05-18T11:00:09Z</time>
      </trkpt>
      <trkpt lat="44.62194" lon="5.79117">
        <ele>1584.2</ele>
        <time>2023-05-18T11:00:10Z</time>
      </trkpt>
      <trkpt lat="44.62188" lon="5.79117">
        <ele>1583</ele>
        <time>2023-05-18T11:00:11Z</time>
      </trkpt>
      <trkpt lat="44.6218" lon="5.7912">
        <ele>1582.4</ele>
        <time>2023-05-18T11:00:12Z</time>
      </trkpt>
      <trkpt lat="44.62174" lon="5.7912">
        <ele>1582</ele>
        <time>2023-05-18T11:00:13Z</time>
      </trkpt>
      <trkpt lat="44.62168" lon="5.79119">
        <ele>1581.6</ele>
        <time>2023-05-18T11:00:14Z</time>
      </trkpt>
      <trkpt lat="44.62162" lon="5.79119">
        <ele>1580.4</ele>
        <time>2023-05-18T11:00:15Z</time>
      </trkpt>
      <trkpt lat="44.62156" lon="5.79119">
        <ele>1580.2</ele>
        <time>2023-05-18T11:00:16Z</time>
      </trkpt>
      <trkpt lat="44.6215" lon="5.79121">
        <ele>1579.4</ele>
        <time>2023-05-18T11:00:17Z</time>
      </trkpt>
      <trkpt lat="44.62131" lon="5.79124">
        <ele>1578</ele>
        <time>2023-05-18T11:00:20Z</time>
      </trkpt>
      <trkpt lat="44.62127" lon="5.79124">
        <ele>1577.6</ele>
        <time>2023-05-18T11:00:21Z</time>
      </trkpt>
      <trkpt lat="44.62123" lon="5.79124">
        <ele>1577</ele>
        <time>2023-05-18T11:00:22Z</time>
      </trkpt>
      <trkpt lat="44.62117" lon="5.79126">
        <ele>1576.6</ele>
        <time>2023-05-18T11:00:23Z</time>
      </trkpt>
      <trkpt lat="44.62111" lon="5.79128">
        <ele>1576.4</ele>
        <time>2023-05-18T11:00:24Z</time>
      </trkpt>
      <trkpt lat="44.62105" lon="5.79126">
        <ele>1575.8</ele>
        <time>2023-05-18T11:00:25Z</time>
      </trkpt>
      <trkpt lat="44.62094" lon="5.79121">
        <ele>1575</ele>
        <time>2023-05-18T11:00:27Z</time>
      </trkpt>
      <trkpt lat="44.62088" lon="5.7912">
        <ele>1574.2</ele>
        <time>2023-05-18T11:00:28Z</time>
      </trkpt>
      <trkpt lat="44.62082" lon="5.79119">
        <ele>1573.6</ele>
        <time>2023-05-18T11:00:29Z</time>
      </trkpt>
      <trkpt lat="44.62078" lon="5.79118">
        <ele>1573</ele>
        <time>2023-05-18T11:00:30Z</time>
      </trkpt>
      <trkpt lat="44.62072" lon="5.79119">
        <ele>1571.8</ele>
        <time>2023-05-18T11:00:31Z</time>
      </trkpt>
      <trkpt lat="44.62067" lon="5.79119">
        <ele>1571.4</ele>
        <time>2023-05-18T11:00:32Z</time>
      </trkpt>
      <trkpt lat="44.62062" lon="5.79117">
        <ele>1570.8</ele>
        <time>2023-05-18T11:00:33Z</time>
      </trkpt>
      <trkpt lat="44.62056" lon="5.79116">
        <ele>1570.6</ele>
        <time>2023-05-18T11:00:34Z</time>
      </trkpt>
      <trkpt lat="44.62047" lon="5.79111">
        <ele>1569.6</ele>
        <time>2023-05-18T11:00:36Z</time>
      </trkpt>
      <trkpt lat="44.62044" lon="5.79109">
        <ele>1569</ele>
        <time>2023-05-18T11:00:37Z</time>
      </trkpt>
      <trkpt lat="44.62041" lon="5.79107">
        <ele>1568</ele>
        <time>2023-05-18T11:00:38Z</time>
      </trkpt>
      <trkpt lat="44.62038" lon="5.79105">
        <ele>1567.6</ele>
        <time>2023-05-18T11:00:39Z</time>
      </trkpt>
      <trkpt lat="44.62035" lon="5.79103">
        <ele>1566.6</ele>
        <time>2023-05-18T11:00:40Z</time>
      </trkpt>
      <trkpt lat="44.62033" lon="5.79102">
        <ele>1566.2</ele>
        <time>2023-05-18T11:00:41Z</time>
      </trkpt>
      <trkpt lat="44.6203" lon="5.79101">
        <ele>1565.8</ele>
        <time>2023-05-18T11:00:42Z</time>
      </trkpt>
      <trkpt lat="44.62027" lon="5.791">
        <ele>1565.6</ele>
        <time>2023-05-18T11:00:43Z</time>
      </trkpt>
      <trkpt lat="44.62024" lon="5.79097">
        <ele>1565</ele>
        <time>2023-05-18T11:00:44Z</time>
      </trkpt>
      <trkpt lat="44.62021" lon="5.79095">
        <ele>1564.4</ele>
        <time>2023-05-18T11:00:45Z</time>
      </trkpt>
      <trkpt lat="44.62017" lon="5.79095">
        <ele>1563.4</ele>
        <time>2023-05-18T11:00:46Z</time>
      </trkpt>
      <trkpt lat="44.62013" lon="5.79094">
        <ele>1562.6</ele>
        <time>2023-05-18T11:00:47Z</time>
      </trkpt>
      <trkpt lat="44.62009" lon="5.79091">
        <ele>1561.2</ele>
        <time>2023-05-18T11:00:49Z</time>
      </trkpt>
      <trkpt lat="44.62008" lon="5.79091">
        <ele>1561</ele>
        <time>2023-05-18T11:00:50Z</time>
      </trkpt>
      <trkpt lat="44.62008" lon="5.79091">
        <ele>1560.4</ele>
        <time>2023-05-18T11:00:51Z</time>
      </trkpt>
      <trkpt lat="44.62008" lon="5.79091">
        <ele>1560</ele>
        <time>2023-05-18T11:00:52Z</time>
      </trkpt>
      <trkpt lat="44.62008" lon="5.79091">
        <ele>1559.2</ele>
        <time>2023-05-18T11:00:56Z</time>
      </trkpt>
      <trkpt lat="44.62007" lon="5.79088">
        <ele>1558.8</ele>
        <time>2023-05-18T11:00:58Z</time>
      </trkpt>
      <trkpt lat="44.62" lon="5.79084">
        <ele>1558.4</ele>
        <time>2023-05-18T11:01:01Z</time>
      </trkpt>
      <trkpt lat="44.61991" lon="5.79074">
        <ele>1557.8</ele>
        <time>2023-05-18T11:01:04Z</time>
      </trkpt>
      <trkpt lat="44.61987" lon="5.7907">
        <ele>1557.6</ele>
        <time>2023-05-18T11:01:05Z</time>
      </trkpt>
      <trkpt lat="44.6198" lon="5.79057">
        <ele>1557.2</ele>
        <time>2023-05-18T11:01:08Z</time>
      </trkpt>
      <trkpt lat="44.61978" lon="5.79048">
        <ele>1556.6</ele>
        <time>2023-05-18T11:01:09Z</time>
      </trkpt>
      <trkpt lat="44.61977" lon="5.79037">
        <ele>1556.4</ele>
        <time>2023-05-18T11:01:10Z</time>
      </trkpt>
      <trkpt lat="44.61976" lon="5.79029">
        <ele>1555.6</ele>
        <time>2023-05-18T11:01:11Z</time>
      </trkpt>
      <trkpt lat="44.61975" lon="5.79022">
        <ele>1555.4</ele>
        <time>2023-05-18T11:01:12Z</time>
      </trkpt>
      <trkpt lat="44.61973" lon="5.79015">
        <ele>1554</ele>
        <time>2023-05-18T11:01:13Z</time>
      </trkpt>
      <trkpt lat="44.61972" lon="5.79008">
        <ele>1553.4</ele>
        <time>2023-05-18T11:01:14Z</time>
      </trkpt>
      <trkpt lat="44.61971" lon="5.78999">
        <ele>1552.4</ele>
        <time>2023-05-18T11:01:15Z</time>
      </trkpt>
      <trkpt lat="44.61972" lon="5.78991">
        <ele>1551.2</ele>
        <time>2023-05-18T11:01:16Z</time>
      </trkpt>
      <trkpt lat="44.61972" lon="5.78982">
        <ele>1550.2</ele>
        <time>2023-05-18T11:01:17Z</time>
      </trkpt>
      <trkpt lat="44.61972" lon="5.78975">
        <ele>1548.8</ele>
        <time>2023-05-18T11:01:18Z</time>
      </trkpt>
      <trkpt lat="44.61971" lon="5.7896">
        <ele>1546.6</ele>
        <time>2023-05-18T11:01:20Z</time>
      </trkpt>
      <trkpt lat="44.61971" lon="5.78953">
        <ele>1546.2</ele>
        <time>2023-05-18T11:01:21Z</time>
      </trkpt>
      <trkpt lat="44.6197" lon="5.78945">
        <ele>1544.6</ele>
        <time>2023-05-18T11:01:22Z</time>
      </trkpt>
      <trkpt lat="44.61966" lon="5.78941">
        <ele>1544</ele>
        <time>2023-05-18T11:01:23Z</time>
      </trkpt>
      <trkpt lat="44.61963" lon="5.7894">
        <ele>1542.6</ele>
        <time>2023-05-18T11:01:24Z</time>
      </trkpt>
      <trkpt lat="44.61959" lon="5.78941">
        <ele>1541.6</ele>
        <time>2023-05-18T11:01:25Z</time>
      </trkpt>
      <trkpt lat="44.61955" lon="5.78943">
        <ele>1541.2</ele>
        <time>2023-05-18T11:01:26Z</time>
      </trkpt>
      <trkpt lat="44.61951" lon="5.78945">
        <ele>1540.2</ele>
        <time>2023-05-18T11:01:27Z</time>
      </trkpt>
      <trkpt lat="44.61948" lon="5.78945">
        <ele>1539.4</ele>
        <time>2023-05-18T11:01:28Z</time>
      </trkpt>
      <trkpt lat="44.61944" lon="5.78944">
        <ele>1537.8</ele>
        <time>2023-05-18T11:01:29Z</time>
      </trkpt>
      <trkpt lat="44.61941" lon="5.78943">
        <ele>1537.2</ele>
        <time>2023-05-18T11:01:30Z</time>
      </trkpt>
      <trkpt lat="44.61937" lon="5.78942">
        <ele>1535.6</ele>
        <time>2023-05-18T11:01:31Z</time>
      </trkpt>
      <trkpt lat="44.61932" lon="5.78941">
        <ele>1534.8</ele>
        <time>2023-05-18T11:01:32Z</time>
      </trkpt>
      <trkpt lat="44.61928" lon="5.78939">
        <ele>1533.4</ele>
        <time>2023-05-18T11:01:33Z</time>
      </trkpt>
      <trkpt lat="44.61923" lon="5.78938">
        <ele>1532</ele>
        <time>2023-05-18T11:01:34Z</time>
      </trkpt>
      <trkpt lat="44.61917" lon="5.78937">
        <ele>1529.8</ele>
        <time>2023-05-18T11:01:36Z</time>
      </trkpt>
      <trkpt lat="44.61914" lon="5.78938">
        <ele>1529</ele>
        <time>2023-05-18T11:01:37Z</time>
      </trkpt>
      <trkpt lat="44.61912" lon="5.78938">
        <ele>1527.8</ele>
        <time>2023-05-18T11:01:38Z</time>
      </trkpt>
      <trkpt lat="44.6191" lon="5.78938">
        <ele>1527</ele>
        <time>2023-05-18T11:01:39Z</time>
      </trkpt>
      <trkpt lat="44.61907" lon="5.78938">
        <ele>1525.8</ele>
        <time>2023-05-18T11:01:40Z</time>
      </trkpt>
      <trkpt lat="44.61902" lon="5.78937">
        <ele>1524.4</ele>
        <time>2023-05-18T11:01:42Z</time>
      </trkpt>
      <trkpt lat="44.61896" lon="5.78933">
        <ele>1523.4</ele>
        <time>2023-05-18T11:01:44Z</time>
      </trkpt>
      <trkpt lat="44.61894" lon="5.7893">
        <ele>1523</ele>
        <time>2023-05-18T11:01:45Z</time>
      </trkpt>
      <trkpt lat="44.6189" lon="5.78925">
        <ele>1522.2</ele>
        <time>2023-05-18T11:01:47Z</time>
      </trkpt>
      <trkpt lat="44.61887" lon="5.78922">
        <ele>1522</ele>
        <time>2023-05-18T11:01:48Z</time>
      </trkpt>
      <trkpt lat="44.61884" lon="5.7892">
        <ele>1521</ele>
        <time>2023-05-18T11:01:49Z</time>
      </trkpt>
      <trkpt lat="44.61878" lon="5.78917">
        <ele>1520.4</ele>
        <time>2023-05-18T11:01:50Z</time>
      </trkpt>
      <trkpt lat="44.61874" lon="5.78918">
        <ele>1519.6</ele>
        <time>2023-05-18T11:01:51Z</time>
      </trkpt>
      <trkpt lat="44.61872" lon="5.78921">
        <ele>1518.8</ele>
        <time>2023-05-18T11:01:52Z</time>
      </trkpt>
      <trkpt lat="44.61868" lon="5.78923">
        <ele>1518.8</ele>
        <time>2023-05-18T11:01:53Z</time>
      </trkpt>
      <trkpt lat="44.61865" lon="5.78924">
        <ele>1518</ele>
        <time>2023-05-18T11:01:54Z</time>
      </trkpt>
      <trkpt lat="44.61861" lon="5.78924">
        <ele>1517.6</ele>
        <time>2023-05-18T11:01:55Z</time>
      </trkpt>
      <trkpt lat="44.61857" lon="5.78925">
        <ele>1517</ele>
        <time>2023-05-18T11:01:56Z</time>
      </trkpt>
      <trkpt lat="44.61853" lon="5.78927">
        <ele>1516.8</ele>
        <time>2023-05-18T11:01:57Z</time>
      </trkpt>
      <trkpt lat="44.6185" lon="5.78928">
        <ele>1516.2</ele>
        <time>2023-05-18T11:01:58Z</time>
      </trkpt>
      <trkpt lat="44.61846" lon="5.7893">
        <ele>1516</ele>
        <time>2023-05-18T11:01:59Z</time>
      </trkpt>
      <trkpt lat="44.61843" lon="5.78932">
        <ele>1515.4</ele>
        <time>2023-05-18T11:02:00Z</time>
      </trkpt>
      <trkpt lat="44.61834" lon="5.78942">
        <ele>1514.6</ele>
        <time>2023-05-18T11:02:03Z</time>
      </trkpt>
      <trkpt lat="44.61832" lon="5.78947">
        <ele>1514.6</ele>
        <time>2023-05-18T11:02:04Z</time>
      </trkpt>
      <trkpt lat="44.61832" lon="5.78951">
        <ele>1514.4</ele>
        <time>2023-05-18T11:02:05Z</time>
      </trkpt>
      <trkpt lat="44.61829" lon="5.78966">
        <ele>1513.6</ele>
        <time>2023-05-18T11:02:08Z</time>
      </trkpt>
      <trkpt lat="44.61829" lon="5.7897">
        <ele>1512.6</ele>
        <time>2023-05-18T11:02:09Z</time>
      </trkpt>
      <trkpt lat="44.61827" lon="5.78984">
        <ele>1511.6</ele>
        <time>2023-05-18T11:02:12Z</time>
      </trkpt>
      <trkpt lat="44.61826" lon="5.79">
        <ele>1511</ele>
        <time>2023-05-18T11:02:15Z</time>
      </trkpt>
      <trkpt lat="44.61827" lon="5.79017">
        <ele>1510.4</ele>
        <time>2023-05-18T11:02:18Z</time>
      </trkpt>
      <trkpt lat="44.61832" lon="5.79032">
        <ele>1510</ele>
        <time>2023-05-18T11:02:21Z</time>
      </trkpt>
      <trkpt lat="44.61841" lon="5.79048">
        <ele>1508.8</ele>
        <time>2023-05-18T11:02:25Z</time>
      </trkpt>
      <trkpt lat="44.61844" lon="5.79051">
        <ele>1508.8</ele>
        <time>2023-05-18T11:02:26Z</time>
      </trkpt>
      <trkpt lat="44.61848" lon="5.79054">
        <ele>1508</ele>
        <time>2023-05-18T11:02:27Z</time>
      </trkpt>
      <trkpt lat="44.61851" lon="5.79055">
        <ele>1507.6</ele>
        <time>2023-05-18T11:02:28Z</time>
      </trkpt>
      <trkpt lat="44.61855" lon="5.79058">
        <ele>1507.6</ele>
        <time>2023-05-18T11:02:29Z</time>
      </trkpt>
      <trkpt lat="44.61858" lon="5.7906">
        <ele>1507.4</ele>
        <time>2023-05-18T11:02:30Z</time>
      </trkpt>
      <trkpt lat="44.61861" lon="5.79063">
        <ele>1507.2</ele>
        <time>2023-05-18T11:02:31Z</time>
      </trkpt>
      <trkpt lat="44.61865" lon="5.79065">
        <ele>1507</ele>
        <time>2023-05-18T11:02:32Z</time>
      </trkpt>
      <trkpt lat="44.61879" lon="5.79073">
        <ele>1506.2</ele>
        <time>2023-05-18T11:02:36Z</time>
      </trkpt>
      <trkpt lat="44.61887" lon="5.79079">
        <ele>1505.8</ele>
        <time>2023-05-18T11:02:38Z</time>
      </trkpt>
      <trkpt lat="44.61907" lon="5.79098">
        <ele>1504.8</ele>
        <time>2023-05-18T11:02:43Z</time>
      </trkpt>
      <trkpt lat="44.61919" lon="5.79111">
        <ele>1503.6</ele>
        <time>2023-05-18T11:02:46Z</time>
      </trkpt>
      <trkpt lat="44.61923" lon="5.79115">
        <ele>1503.4</ele>
        <time>2023-05-18T11:02:47Z</time>
      </trkpt>
      <trkpt lat="44.61931" lon="5.79124">
        <ele>1503</ele>
        <time>2023-05-18T11:02:49Z</time>
      </trkpt>
      <trkpt lat="44.61939" lon="5.79134">
        <ele>1502.6</ele>
        <time>2023-05-18T11:02:51Z</time>
      </trkpt>
      <trkpt lat="44.61945" lon="5.79145">
        <ele>1501.6</ele>
        <time>2023-05-18T11:02:53Z</time>
      </trkpt>
      <trkpt lat="44.61946" lon="5.79152">
        <ele>1501</ele>
        <time>2023-05-18T11:02:54Z</time>
      </trkpt>
      <trkpt lat="44.61948" lon="5.79159">
        <ele>1500.2</ele>
        <time>2023-05-18T11:02:55Z</time>
      </trkpt>
      <trkpt lat="44.61949" lon="5.79166">
        <ele>1500</ele>
        <time>2023-05-18T11:02:56Z</time>
      </trkpt>
      <trkpt lat="44.61951" lon="5.79172">
        <ele>1499.6</ele>
        <time>2023-05-18T11:02:57Z</time>
      </trkpt>
      <trkpt lat="44.61952" lon="5.79178">
        <ele>1499</ele>
        <time>2023-05-18T11:02:58Z</time>
      </trkpt>
      <trkpt lat="44.61953" lon="5.79185">
        <ele>1498.2</ele>
        <time>2023-05-18T11:02:59Z</time>
      </trkpt>
      <trkpt lat="44.61955" lon="5.79192">
        <ele>1498</ele>
        <time>2023-05-18T11:03:00Z</time>
      </trkpt>
      <trkpt lat="44.61961" lon="5.79204">
        <ele>1497.4</ele>
        <time>2023-05-18T11:03:02Z</time>
      </trkpt>
      <trkpt lat="44.61965" lon="5.7921">
        <ele>1497</ele>
        <time>2023-05-18T11:03:03Z</time>
      </trkpt>
      <trkpt lat="44.61968" lon="5.79217">
        <ele>1496.8</ele>
        <time>2023-05-18T11:03:04Z</time>
      </trkpt>
      <trkpt lat="44.61976" lon="5.79228">
        <ele>1495.4</ele>
        <time>2023-05-18T11:03:06Z</time>
      </trkpt>
      <trkpt lat="44.61983" lon="5.7924">
        <ele>1494.4</ele>
        <time>2023-05-18T11:03:08Z</time>
      </trkpt>
      <trkpt lat="44.61988" lon="5.79247">
        <ele>1494.2</ele>
        <time>2023-05-18T11:03:09Z</time>
      </trkpt>
      <trkpt lat="44.61994" lon="5.79253">
        <ele>1493.2</ele>
        <time>2023-05-18T11:03:10Z</time>
      </trkpt>
      <trkpt lat="44.61999" lon="5.79261">
        <ele>1492.6</ele>
        <time>2023-05-18T11:03:11Z</time>
      </trkpt>
      <trkpt lat="44.62004" lon="5.79269">
        <ele>1491.8</ele>
        <time>2023-05-18T11:03:12Z</time>
      </trkpt>
      <trkpt lat="44.62009" lon="5.79276">
        <ele>1491.6</ele>
        <time>2023-05-18T11:03:13Z</time>
      </trkpt>
      <trkpt lat="44.62015" lon="5.79283">
        <ele>1490.2</ele>
        <time>2023-05-18T11:03:14Z</time>
      </trkpt>
      <trkpt lat="44.62027" lon="5.79296">
        <ele>1489</ele>
        <time>2023-05-18T11:03:16Z</time>
      </trkpt>
      <trkpt lat="44.62038" lon="5.79311">
        <ele>1487.2</ele>
        <time>2023-05-18T11:03:18Z</time>
      </trkpt>
      <trkpt lat="44.62049" lon="5.79325">
        <ele>1485.8</ele>
        <time>2023-05-18T11:03:20Z</time>
      </trkpt>
      <trkpt lat="44.62055" lon="5.7933">
        <ele>1484.6</ele>
        <time>2023-05-18T11:03:21Z</time>
      </trkpt>
      <trkpt lat="44.62062" lon="5.79334">
        <ele>1484</ele>
        <time>2023-05-18T11:03:22Z</time>
      </trkpt>
      <trkpt lat="44.62068" lon="5.79337">
        <ele>1482.6</ele>
        <time>2023-05-18T11:03:23Z</time>
      </trkpt>
      <trkpt lat="44.6208" lon="5.79342">
        <ele>1481.2</ele>
        <time>2023-05-18T11:03:25Z</time>
      </trkpt>
      <trkpt lat="44.62085" lon="5.79345">
        <ele>1480.2</ele>
        <time>2023-05-18T11:03:26Z</time>
      </trkpt>
      <trkpt lat="44.6209" lon="5.79348">
        <ele>1480</ele>
        <time>2023-05-18T11:03:27Z</time>
      </trkpt>
      <trkpt lat="44.62093" lon="5.79353">
        <ele>1479.4</ele>
        <time>2023-05-18T11:03:28Z</time>
      </trkpt>
      <trkpt lat="44.62095" lon="5.7936">
        <ele>1479.2</ele>
        <time>2023-05-18T11:03:29Z</time>
      </trkpt>
      <trkpt lat="44.62096" lon="5.79366">
        <ele>1478.6</ele>
        <time>2023-05-18T11:03:30Z</time>
      </trkpt>
      <trkpt lat="44.62096" lon="5.79372">
        <ele>1478.4</ele>
        <time>2023-05-18T11:03:31Z</time>
      </trkpt>
      <trkpt lat="44.62096" lon="5.79378">
        <ele>1478.2</ele>
        <time>2023-05-18T11:03:32Z</time>
      </trkpt>
      <trkpt lat="44.62095" lon="5.79383">
        <ele>1478.2</ele>
        <time>2023-05-18T11:03:33Z</time>
      </trkpt>
      <trkpt lat="44.62093" lon="5.79387">
        <ele>1478</ele>
        <time>2023-05-18T11:03:34Z</time>
      </trkpt>
      <trkpt lat="44.62092" lon="5.7939">
        <ele>1478</ele>
        <time>2023-05-18T11:03:35Z</time>
      </trkpt>
      <trkpt lat="44.62092" lon="5.79391">
        <ele>1477.8</ele>
        <time>2023-05-18T11:03:36Z</time>
      </trkpt>
      <trkpt lat="44.62092" lon="5.79391">
        <ele>1477.4</ele>
        <time>2023-05-18T11:03:37Z</time>
      </trkpt>
      <trkpt lat="44.62089" lon="5.79397">
        <ele>1476.4</ele>
        <time>2023-05-18T11:03:42Z</time>
      </trkpt>
      <trkpt lat="44.62088" lon="5.79398">
        <ele>1476.4</ele>
        <time>2023-05-18T11:03:43Z</time>
      </trkpt>
      <trkpt lat="44.62087" lon="5.794">
        <ele>1476.2</ele>
        <time>2023-05-18T11:03:44Z</time>
      </trkpt>
      <trkpt lat="44.62086" lon="5.79401">
        <ele>1476</ele>
        <time>2023-05-18T11:03:45Z</time>
      </trkpt>
      <trkpt lat="44.62085" lon="5.79402">
        <ele>1475.8</ele>
        <time>2023-05-18T11:03:46Z</time>
      </trkpt>
      <trkpt lat="44.62085" lon="5.79403">
        <ele>1475.8</ele>
        <time>2023-05-18T11:03:47Z</time>
      </trkpt>
      <trkpt lat="44.62085" lon="5.79403">
        <ele>1475.6</ele>
        <time>2023-05-18T11:03:48Z</time>
      </trkpt>
      <trkpt lat="44.62085" lon="5.79403">
        <ele>1475.6</ele>
        <time>2023-05-18T11:03:50Z</time>
      </trkpt>
      <trkpt lat="44.62085" lon="5.79403">
        <ele>1475</ele>
        <time>2023-05-18T11:04:08Z</time>
      </trkpt>
      <trkpt lat="44.62084" lon="5.79406">
        <ele>1475</ele>
        <time>2023-05-18T11:04:10Z</time>
      </trkpt>
      <trkpt lat="44.62082" lon="5.79412">
        <ele>1475</ele>
        <time>2023-05-18T11:04:14Z</time>
      </trkpt>
      <trkpt lat="44.62077" lon="5.79424">
        <ele>1476</ele>
        <time>2023-05-18T11:04:21Z</time>
      </trkpt>
      <trkpt lat="44.62074" lon="5.7943">
        <ele>1476.6</ele>
        <time>2023-05-18T11:04:24Z</time>
      </trkpt>
      <trkpt lat="44.62072" lon="5.79436">
        <ele>1477</ele>
        <time>2023-05-18T11:04:27Z</time>
      </trkpt>
      <trkpt lat="44.62069" lon="5.79446">
        <ele>1477.8</ele>
        <time>2023-05-18T11:04:32Z</time>
      </trkpt>
      <trkpt lat="44.62067" lon="5.79448">
        <ele>1478</ele>
        <time>2023-05-18T11:04:33Z</time>
      </trkpt>
      <trkpt lat="44.62065" lon="5.79452">
        <ele>1478.2</ele>
        <time>2023-05-18T11:04:35Z</time>
      </trkpt>
      <trkpt lat="44.62064" lon="5.79454">
        <ele>1478.4</ele>
        <time>2023-05-18T11:04:36Z</time>
      </trkpt>
      <trkpt lat="44.62063" lon="5.79455">
        <ele>1478.4</ele>
        <time>2023-05-18T11:04:37Z</time>
      </trkpt>
      <trkpt lat="44.62062" lon="5.79457">
        <ele>1478.4</ele>
        <time>2023-05-18T11:04:38Z</time>
      </trkpt>
      <trkpt lat="44.62061" lon="5.79458">
        <ele>1478.6</ele>
        <time>2023-05-18T11:04:39Z</time>
      </trkpt>
      <trkpt lat="44.6206" lon="5.7946">
        <ele>1478.6</ele>
        <time>2023-05-18T11:04:40Z</time>
      </trkpt>
      <trkpt lat="44.6206" lon="5.79462">
        <ele>1478.6</ele>
        <time>2023-05-18T11:04:41Z</time>
      </trkpt>
      <trkpt lat="44.62058" lon="5.79464">
        <ele>1478.8</ele>
        <time>2023-05-18T11:04:42Z</time>
      </trkpt>
      <trkpt lat="44.62057" lon="5.79466">
        <ele>1478.8</ele>
        <time>2023-05-18T11:04:43Z</time>
      </trkpt>
      <trkpt lat="44.62056" lon="5.79468">
        <ele>1479</ele>
        <time>2023-05-18T11:04:44Z</time>
      </trkpt>
      <trkpt lat="44.62055" lon="5.7947">
        <ele>1479</ele>
        <time>2023-05-18T11:04:45Z</time>
      </trkpt>
      <trkpt lat="44.62054" lon="5.79471">
        <ele>1479</ele>
        <time>2023-05-18T11:04:46Z</time>
      </trkpt>
      <trkpt lat="44.62053" lon="5.79473">
        <ele>1479</ele>
        <time>2023-05-18T11:04:47Z</time>
      </trkpt>
      <trkpt lat="44.62052" lon="5.79474">
        <ele>1479</ele>
        <time>2023-05-18T11:04:48Z</time>
      </trkpt>
      <trkpt lat="44.62052" lon="5.79475">
        <ele>1479.2</ele>
        <time>2023-05-18T11:04:49Z</time>
      </trkpt>
      <trkpt lat="44.62051" lon="5.79476">
        <ele>1479.2</ele>
        <time>2023-05-18T11:04:50Z</time>
      </trkpt>
      <trkpt lat="44.6205" lon="5.79477">
        <ele>1479.2</ele>
        <time>2023-05-18T11:04:51Z</time>
      </trkpt>
      <trkpt lat="44.62049" lon="5.79479">
        <ele>1479.2</ele>
        <time>2023-05-18T11:04:52Z</time>
      </trkpt>
      <trkpt lat="44.62048" lon="5.7948">
        <ele>1479.2</ele>
        <time>2023-05-18T11:04:53Z</time>
      </trkpt>
      <trkpt lat="44.62048" lon="5.79481">
        <ele>1479.2</ele>
        <time>2023-05-18T11:04:54Z</time>
      </trkpt>
      <trkpt lat="44.62047" lon="5.79483">
        <ele>1479.4</ele>
        <time>2023-05-18T11:04:55Z</time>
      </trkpt>
      <trkpt lat="44.62046" lon="5.79484">
        <ele>1479.6</ele>
        <time>2023-05-18T11:04:56Z</time>
      </trkpt>
      <trkpt lat="44.62044" lon="5.79487">
        <ele>1479.8</ele>
        <time>2023-05-18T11:04:58Z</time>
      </trkpt>
      <trkpt lat="44.62043" lon="5.79487">
        <ele>1480</ele>
        <time>2023-05-18T11:04:59Z</time>
      </trkpt>
      <trkpt lat="44.62042" lon="5.79488">
        <ele>1480.2</ele>
        <time>2023-05-18T11:05:00Z</time>
      </trkpt>
      <trkpt lat="44.62042" lon="5.79489">
        <ele>1480.4</ele>
        <time>2023-05-18T11:05:01Z</time>
      </trkpt>
      <trkpt lat="44.62041" lon="5.7949">
        <ele>1480.6</ele>
        <time>2023-05-18T11:05:02Z</time>
      </trkpt>
      <trkpt lat="44.6204" lon="5.79491">
        <ele>1480.8</ele>
        <time>2023-05-18T11:05:03Z</time>
      </trkpt>
      <trkpt lat="44.62039" lon="5.79491">
        <ele>1481</ele>
        <time>2023-05-18T11:05:04Z</time>
      </trkpt>
      <trkpt lat="44.62039" lon="5.79492">
        <ele>1481</ele>
        <time>2023-05-18T11:05:05Z</time>
      </trkpt>
      <trkpt lat="44.62038" lon="5.79494">
        <ele>1481</ele>
        <time>2023-05-18T11:05:06Z</time>
      </trkpt>
      <trkpt lat="44.62037" lon="5.79496">
        <ele>1481.2</ele>
        <time>2023-05-18T11:05:07Z</time>
      </trkpt>
      <trkpt lat="44.62036" lon="5.79497">
        <ele>1481.2</ele>
        <time>2023-05-18T11:05:08Z</time>
      </trkpt>
      <trkpt lat="44.62035" lon="5.79498">
        <ele>1481.4</ele>
        <time>2023-05-18T11:05:09Z</time>
      </trkpt>
      <trkpt lat="44.62035" lon="5.79499">
        <ele>1481.6</ele>
        <time>2023-05-18T11:05:10Z</time>
      </trkpt>
      <trkpt lat="44.62034" lon="5.795">
        <ele>1481.6</ele>
        <time>2023-05-18T11:05:11Z</time>
      </trkpt>
      <trkpt lat="44.62033" lon="5.79502">
        <ele>1481.8</ele>
        <time>2023-05-18T11:05:12Z</time>
      </trkpt>
      <trkpt lat="44.62032" lon="5.79503">
        <ele>1481.8</ele>
        <time>2023-05-18T11:05:13Z</time>
      </trkpt>
      <trkpt lat="44.62032" lon="5.79505">
        <ele>1482</ele>
        <time>2023-05-18T11:05:14Z</time>
      </trkpt>
      <trkpt lat="44.62031" lon="5.79506">
        <ele>1482.2</ele>
        <time>2023-05-18T11:05:15Z</time>
      </trkpt>
      <trkpt lat="44.62031" lon="5.79508">
        <ele>1482.4</ele>
        <time>2023-05-18T11:05:16Z</time>
      </trkpt>
      <trkpt lat="44.6203" lon="5.79509">
        <ele>1482.6</ele>
        <time>2023-05-18T11:05:17Z</time>
      </trkpt>
      <trkpt lat="44.62029" lon="5.79511">
        <ele>1482.8</ele>
        <time>2023-05-18T11:05:18Z</time>
      </trkpt>
      <trkpt lat="44.62029" lon="5.79513">
        <ele>1482.8</ele>
        <time>2023-05-18T11:05:19Z</time>
      </trkpt>
      <trkpt lat="44.62029" lon="5.79514">
        <ele>1483</ele>
        <time>2023-05-18T11:05:20Z</time>
      </trkpt>
      <trkpt lat="44.62028" lon="5.79515">
        <ele>1483.2</ele>
        <time>2023-05-18T11:05:21Z</time>
      </trkpt>
      <trkpt lat="44.62028" lon="5.79517">
        <ele>1483.4</ele>
        <time>2023-05-18T11:05:22Z</time>
      </trkpt>
      <trkpt lat="44.62028" lon="5.79519">
        <ele>1483.6</ele>
        <time>2023-05-18T11:05:23Z</time>
      </trkpt>
      <trkpt lat="44.62027" lon="5.79521">
        <ele>1483.8</ele>
        <time>2023-05-18T11:05:24Z</time>
      </trkpt>
      <trkpt lat="44.62027" lon="5.79522">
        <ele>1483.8</ele>
        <time>2023-05-18T11:05:25Z</time>
      </trkpt>
      <trkpt lat="44.62027" lon="5.79524">
        <ele>1484</ele>
        <time>2023-05-18T11:05:26Z</time>
      </trkpt>
      <trkpt lat="44.62026" lon="5.79525">
        <ele>1484.2</ele>
        <time>2023-05-18T11:05:27Z</time>
      </trkpt>
      <trkpt lat="44.62026" lon="5.79527">
        <ele>1484.2</ele>
        <time>2023-05-18T11:05:28Z</time>
      </trkpt>
      <trkpt lat="44.62026" lon="5.79527">
        <ele>1484.4</ele>
        <time>2023-05-18T11:05:29Z</time>
      </trkpt>
      <trkpt lat="44.62026" lon="5.79529">
        <ele>1484.6</ele>
        <time>2023-05-18T11:05:30Z</time>
      </trkpt>
      <trkpt lat="44.62026" lon="5.7953">
        <ele>1484.6</ele>
        <time>2023-05-18T11:05:31Z</time>
      </trkpt>
      <trkpt lat="44.62026" lon="5.79531">
        <ele>1484.8</ele>
        <time>2023-05-18T11:05:32Z</time>
      </trkpt>
      <trkpt lat="44.62025" lon="5.79532">
        <ele>1484.8</ele>
        <time>2023-05-18T11:05:33Z</time>
      </trkpt>
      <trkpt lat="44.62025" lon="5.79533">
        <ele>1485</ele>
        <time>2023-05-18T11:05:34Z</time>
      </trkpt>
      <trkpt lat="44.62025" lon="5.79535">
        <ele>1485</ele>
        <time>2023-05-18T11:05:35Z</time>
      </trkpt>
      <trkpt lat="44.62025" lon="5.79536">
        <ele>1485.4</ele>
        <time>2023-05-18T11:05:36Z</time>
      </trkpt>
      <trkpt lat="44.62025" lon="5.79537">
        <ele>1485.4</ele>
        <time>2023-05-18T11:05:37Z</time>
      </trkpt>
      <trkpt lat="44.62025" lon="5.79538">
        <ele>1485.6</ele>
        <time>2023-05-18T11:05:38Z</time>
      </trkpt>
      <trkpt lat="44.62025" lon="5.7954">
        <ele>1485.8</ele>
        <time>2023-05-18T11:05:39Z</time>
      </trkpt>
      <trkpt lat="44.62024" lon="5.79541">
        <ele>1485.8</ele>
        <time>2023-05-18T11:05:40Z</time>
      </trkpt>
      <trkpt lat="44.62024" lon="5.79543">
        <ele>1486</ele>
        <time>2023-05-18T11:05:41Z</time>
      </trkpt>
      <trkpt lat="44.62023" lon="5.79545">
        <ele>1486.2</ele>
        <time>2023-05-18T11:05:42Z</time>
      </trkpt>
      <trkpt lat="44.62023" lon="5.79547">
        <ele>1486.4</ele>
        <time>2023-05-18T11:05:43Z</time>
      </trkpt>
      <trkpt lat="44.62023" lon="5.79548">
        <ele>1486.6</ele>
        <time>2023-05-18T11:05:44Z</time>
      </trkpt>
      <trkpt lat="44.62023" lon="5.79549">
        <ele>1486.6</ele>
        <time>2023-05-18T11:05:45Z</time>
      </trkpt>
      <trkpt lat="44.62023" lon="5.79551">
        <ele>1486.6</ele>
        <time>2023-05-18T11:05:46Z</time>
      </trkpt>
      <trkpt lat="44.62023" lon="5.79552">
        <ele>1486.8</ele>
        <time>2023-05-18T11:05:47Z</time>
      </trkpt>
      <trkpt lat="44.62023" lon="5.79553">
        <ele>1487</ele>
        <time>2023-05-18T11:05:48Z</time>
      </trkpt>
      <trkpt lat="44.62022" lon="5.79555">
        <ele>1487.2</ele>
        <time>2023-05-18T11:05:49Z</time>
      </trkpt>
      <trkpt lat="44.62022" lon="5.79556">
        <ele>1487.4</ele>
        <time>2023-05-18T11:05:50Z</time>
      </trkpt>
      <trkpt lat="44.62022" lon="5.79558">
        <ele>1487.4</ele>
        <time>2023-05-18T11:05:51Z</time>
      </trkpt>
      <trkpt lat="44.62021" lon="5.7956">
        <ele>1488</ele>
        <time>2023-05-18T11:05:52Z</time>
      </trkpt>
      <trkpt lat="44.62021" lon="5.79561">
        <ele>1488</ele>
        <time>2023-05-18T11:05:53Z</time>
      </trkpt>
      <trkpt lat="44.62021" lon="5.79563">
        <ele>1488.2</ele>
        <time>2023-05-18T11:05:54Z</time>
      </trkpt>
      <trkpt lat="44.62021" lon="5.79564">
        <ele>1488.2</ele>
        <time>2023-05-18T11:05:55Z</time>
      </trkpt>
      <trkpt lat="44.62021" lon="5.79565">
        <ele>1488.4</ele>
        <time>2023-05-18T11:05:56Z</time>
      </trkpt>
      <trkpt lat="44.62021" lon="5.79567">
        <ele>1488.4</ele>
        <time>2023-05-18T11:05:57Z</time>
      </trkpt>
      <trkpt lat="44.62021" lon="5.79568">
        <ele>1488.6</ele>
        <time>2023-05-18T11:05:58Z</time>
      </trkpt>
      <trkpt lat="44.6202" lon="5.79569">
        <ele>1488.8</ele>
        <time>2023-05-18T11:05:59Z</time>
      </trkpt>
      <trkpt lat="44.6202" lon="5.79571">
        <ele>1489</ele>
        <time>2023-05-18T11:06:00Z</time>
      </trkpt>
      <trkpt lat="44.6202" lon="5.79572">
        <ele>1489.2</ele>
        <time>2023-05-18T11:06:01Z</time>
      </trkpt>
      <trkpt lat="44.6202" lon="5.79574">
        <ele>1489.2</ele>
        <time>2023-05-18T11:06:02Z</time>
      </trkpt>
      <trkpt lat="44.6202" lon="5.79576">
        <ele>1489.6</ele>
        <time>2023-05-18T11:06:03Z</time>
      </trkpt>
      <trkpt lat="44.6202" lon="5.79577">
        <ele>1489.6</ele>
        <time>2023-05-18T11:06:04Z</time>
      </trkpt>
      <trkpt lat="44.6202" lon="5.79579">
        <ele>1490</ele>
        <time>2023-05-18T11:06:05Z</time>
      </trkpt>
      <trkpt lat="44.6202" lon="5.7958">
        <ele>1490</ele>
        <time>2023-05-18T11:06:06Z</time>
      </trkpt>
      <trkpt lat="44.6202" lon="5.79582">
        <ele>1490.2</ele>
        <time>2023-05-18T11:06:07Z</time>
      </trkpt>
      <trkpt lat="44.6202" lon="5.79583">
        <ele>1490.2</ele>
        <time>2023-05-18T11:06:08Z</time>
      </trkpt>
      <trkpt lat="44.6202" lon="5.79585">
        <ele>1490.4</ele>
        <time>2023-05-18T11:06:09Z</time>
      </trkpt>
      <trkpt lat="44.62019" lon="5.79587">
        <ele>1490.8</ele>
        <time>2023-05-18T11:06:10Z</time>
      </trkpt>
      <trkpt lat="44.62019" lon="5.79588">
        <ele>1490.8</ele>
        <time>2023-05-18T11:06:11Z</time>
      </trkpt>
      <trkpt lat="44.62019" lon="5.7959">
        <ele>1491</ele>
        <time>2023-05-18T11:06:12Z</time>
      </trkpt>
      <trkpt lat="44.62019" lon="5.79591">
        <ele>1491.2</ele>
        <time>2023-05-18T11:06:13Z</time>
      </trkpt>
      <trkpt lat="44.62019" lon="5.79593">
        <ele>1491.4</ele>
        <time>2023-05-18T11:06:14Z</time>
      </trkpt>
      <trkpt lat="44.62018" lon="5.79594">
        <ele>1491.6</ele>
        <time>2023-05-18T11:06:15Z</time>
      </trkpt>
      <trkpt lat="44.62019" lon="5.79595">
        <ele>1491.6</ele>
        <time>2023-05-18T11:06:16Z</time>
      </trkpt>
      <trkpt lat="44.62018" lon="5.79597">
        <ele>1491.8</ele>
        <time>2023-05-18T11:06:17Z</time>
      </trkpt>
      <trkpt lat="44.62018" lon="5.79598">
        <ele>1492</ele>
        <time>2023-05-18T11:06:18Z</time>
      </trkpt>
      <trkpt lat="44.62018" lon="5.796">
        <ele>1492</ele>
        <time>2023-05-18T11:06:19Z</time>
      </trkpt>
      <trkpt lat="44.62017" lon="5.79601">
        <ele>1492.2</ele>
        <time>2023-05-18T11:06:20Z</time>
      </trkpt>
      <trkpt lat="44.62017" lon="5.79603">
        <ele>1492.2</ele>
        <time>2023-05-18T11:06:21Z</time>
      </trkpt>
      <trkpt lat="44.62016" lon="5.79605">
        <ele>1492.4</ele>
        <time>2023-05-18T11:06:22Z</time>
      </trkpt>
      <trkpt lat="44.62016" lon="5.79606">
        <ele>1492.4</ele>
        <time>2023-05-18T11:06:23Z</time>
      </trkpt>
      <trkpt lat="44.62016" lon="5.79607">
        <ele>1492.4</ele>
        <time>2023-05-18T11:06:24Z</time>
      </trkpt>
      <trkpt lat="44.62016" lon="5.79608">
        <ele>1492.8</ele>
        <time>2023-05-18T11:06:25Z</time>
      </trkpt>
      <trkpt lat="44.62015" lon="5.79609">
        <ele>1492.8</ele>
        <time>2023-05-18T11:06:26Z</time>
      </trkpt>
      <trkpt lat="44.62015" lon="5.79611">
        <ele>1493.2</ele>
        <time>2023-05-18T11:06:27Z</time>
      </trkpt>
      <trkpt lat="44.62015" lon="5.79612">
        <ele>1493.4</ele>
        <time>2023-05-18T11:06:28Z</time>
      </trkpt>
      <trkpt lat="44.62015" lon="5.79614">
        <ele>1493.6</ele>
        <time>2023-05-18T11:06:29Z</time>
      </trkpt>
      <trkpt lat="44.62014" lon="5.79616">
        <ele>1493.6</ele>
        <time>2023-05-18T11:06:30Z</time>
      </trkpt>
      <trkpt lat="44.62014" lon="5.79617">
        <ele>1493.8</ele>
        <time>2023-05-18T11:06:31Z</time>
      </trkpt>
      <trkpt lat="44.62014" lon="5.79618">
        <ele>1494</ele>
        <time>2023-05-18T11:06:32Z</time>
      </trkpt>
      <trkpt lat="44.62014" lon="5.79619">
        <ele>1494</ele>
        <time>2023-05-18T11:06:33Z</time>
      </trkpt>
      <trkpt lat="44.62014" lon="5.79621">
        <ele>1494.2</ele>
        <time>2023-05-18T11:06:34Z</time>
      </trkpt>
      <trkpt lat="44.62013" lon="5.79622">
        <ele>1494.2</ele>
        <time>2023-05-18T11:06:35Z</time>
      </trkpt>
      <trkpt lat="44.62013" lon="5.79623">
        <ele>1494.2</ele>
        <time>2023-05-18T11:06:36Z</time>
      </trkpt>
      <trkpt lat="44.62013" lon="5.79625">
        <ele>1494.4</ele>
        <time>2023-05-18T11:06:37Z</time>
      </trkpt>
      <trkpt lat="44.62012" lon="5.79626">
        <ele>1494.6</ele>
        <time>2023-05-18T11:06:38Z</time>
      </trkpt>
      <trkpt lat="44.62012" lon="5.79627">
        <ele>1494.8</ele>
        <time>2023-05-18T11:06:39Z</time>
      </trkpt>
      <trkpt lat="44.62012" lon="5.79629">
        <ele>1494.8</ele>
        <time>2023-05-18T11:06:40Z</time>
      </trkpt>
      <trkpt lat="44.62011" lon="5.7963">
        <ele>1495.2</ele>
        <time>2023-05-18T11:06:41Z</time>
      </trkpt>
      <trkpt lat="44.62011" lon="5.79632">
        <ele>1495.2</ele>
        <time>2023-05-18T11:06:42Z</time>
      </trkpt>
      <trkpt lat="44.6201" lon="5.79633">
        <ele>1495.4</ele>
        <time>2023-05-18T11:06:43Z</time>
      </trkpt>
      <trkpt lat="44.6201" lon="5.79634">
        <ele>1495.4</ele>
        <time>2023-05-18T11:06:44Z</time>
      </trkpt>
      <trkpt lat="44.6201" lon="5.79636">
        <ele>1495.4</ele>
        <time>2023-05-18T11:06:45Z</time>
      </trkpt>
      <trkpt lat="44.62009" lon="5.79637">
        <ele>1495.6</ele>
        <time>2023-05-18T11:06:46Z</time>
      </trkpt>
      <trkpt lat="44.62009" lon="5.79639">
        <ele>1495.8</ele>
        <time>2023-05-18T11:06:47Z</time>
      </trkpt>
      <trkpt lat="44.62009" lon="5.79641">
        <ele>1496</ele>
        <time>2023-05-18T11:06:48Z</time>
      </trkpt>
      <trkpt lat="44.62008" lon="5.79643">
        <ele>1496</ele>
        <time>2023-05-18T11:06:49Z</time>
      </trkpt>
      <trkpt lat="44.62008" lon="5.79644">
        <ele>1496.2</ele>
        <time>2023-05-18T11:06:50Z</time>
      </trkpt>
      <trkpt lat="44.62008" lon="5.79645">
        <ele>1496.4</ele>
        <time>2023-05-18T11:06:51Z</time>
      </trkpt>
      <trkpt lat="44.62008" lon="5.79646">
        <ele>1496.4</ele>
        <time>2023-05-18T11:06:52Z</time>
      </trkpt>
      <trkpt lat="44.62007" lon="5.79648">
        <ele>1496.6</ele>
        <time>2023-05-18T11:06:53Z</time>
      </trkpt>
      <trkpt lat="44.62007" lon="5.79649">
        <ele>1496.6</ele>
        <time>2023-05-18T11:06:54Z</time>
      </trkpt>
      <trkpt lat="44.62007" lon="5.79651">
        <ele>1496.8</ele>
        <time>2023-05-18T11:06:55Z</time>
      </trkpt>
      <trkpt lat="44.62006" lon="5.79652">
        <ele>1496.8</ele>
        <time>2023-05-18T11:06:56Z</time>
      </trkpt>
      <trkpt lat="44.62006" lon="5.79653">
        <ele>1497.2</ele>
        <time>2023-05-18T11:06:57Z</time>
      </trkpt>
      <trkpt lat="44.62006" lon="5.79655">
        <ele>1497.2</ele>
        <time>2023-05-18T11:06:58Z</time>
      </trkpt>
      <trkpt lat="44.62005" lon="5.79656">
        <ele>1497.4</ele>
        <time>2023-05-18T11:06:59Z</time>
      </trkpt>
      <trkpt lat="44.62005" lon="5.79657">
        <ele>1497.4</ele>
        <time>2023-05-18T11:07:00Z</time>
      </trkpt>
      <trkpt lat="44.62005" lon="5.79659">
        <ele>1497.6</ele>
        <time>2023-05-18T11:07:01Z</time>
      </trkpt>
      <trkpt lat="44.62004" lon="5.7966">
        <ele>1497.8</ele>
        <time>2023-05-18T11:07:02Z</time>
      </trkpt>
      <trkpt lat="44.62004" lon="5.79661">
        <ele>1498</ele>
        <time>2023-05-18T11:07:03Z</time>
      </trkpt>
      <trkpt lat="44.62004" lon="5.79663">
        <ele>1498.2</ele>
        <time>2023-05-18T11:07:04Z</time>
      </trkpt>
      <trkpt lat="44.62004" lon="5.79664">
        <ele>1498.4</ele>
        <time>2023-05-18T11:07:05Z</time>
      </trkpt>
      <trkpt lat="44.62003" lon="5.79665">
        <ele>1498.4</ele>
        <time>2023-05-18T11:07:06Z</time>
      </trkpt>
      <trkpt lat="44.62003" lon="5.79666">
        <ele>1498.4</ele>
        <time>2023-05-18T11:07:07Z</time>
      </trkpt>
      <trkpt lat="44.62002" lon="5.79667">
        <ele>1498.6</ele>
        <time>2023-05-18T11:07:08Z</time>
      </trkpt>
      <trkpt lat="44.62002" lon="5.79669">
        <ele>1498.8</ele>
        <time>2023-05-18T11:07:09Z</time>
      </trkpt>
      <trkpt lat="44.62002" lon="5.7967">
        <ele>1499</ele>
        <time>2023-05-18T11:07:10Z</time>
      </trkpt>
      <trkpt lat="44.62002" lon="5.79672">
        <ele>1499.2</ele>
        <time>2023-05-18T11:07:11Z</time>
      </trkpt>
      <trkpt lat="44.62001" lon="5.79673">
        <ele>1499.4</ele>
        <time>2023-05-18T11:07:12Z</time>
      </trkpt>
      <trkpt lat="44.62001" lon="5.79674">
        <ele>1499.6</ele>
        <time>2023-05-18T11:07:13Z</time>
      </trkpt>
      <trkpt lat="44.62" lon="5.79675">
        <ele>1499.6</ele>
        <time>2023-05-18T11:07:14Z</time>
      </trkpt>
      <trkpt lat="44.62" lon="5.79677">
        <ele>1499.8</ele>
        <time>2023-05-18T11:07:15Z</time>
      </trkpt>
      <trkpt lat="44.62" lon="5.79678">
        <ele>1500</ele>
        <time>2023-05-18T11:07:16Z</time>
      </trkpt>
      <trkpt lat="44.61999" lon="5.79679">
        <ele>1500.2</ele>
        <time>2023-05-18T11:07:17Z</time>
      </trkpt>
      <trkpt lat="44.61999" lon="5.79681">
        <ele>1500.2</ele>
        <time>2023-05-18T11:07:18Z</time>
      </trkpt>
      <trkpt lat="44.61999" lon="5.79682">
        <ele>1500.4</ele>
        <time>2023-05-18T11:07:19Z</time>
      </trkpt>
      <trkpt lat="44.62" lon="5.79683">
        <ele>1500.6</ele>
        <time>2023-05-18T11:07:20Z</time>
      </trkpt>
      <trkpt lat="44.62001" lon="5.79683">
        <ele>1500.8</ele>
        <time>2023-05-18T11:07:21Z</time>
      </trkpt>
      <trkpt lat="44.62002" lon="5.79683">
        <ele>1501.2</ele>
        <time>2023-05-18T11:07:22Z</time>
      </trkpt>
      <trkpt lat="44.62003" lon="5.79683">
        <ele>1501.4</ele>
        <time>2023-05-18T11:07:23Z</time>
      </trkpt>
      <trkpt lat="44.62004" lon="5.79682">
        <ele>1501.6</ele>
        <time>2023-05-18T11:07:24Z</time>
      </trkpt>
      <trkpt lat="44.62004" lon="5.79681">
        <ele>1502</ele>
        <time>2023-05-18T11:07:25Z</time>
      </trkpt>
      <trkpt lat="44.62005" lon="5.79681">
        <ele>1502.6</ele>
        <time>2023-05-18T11:07:26Z</time>
      </trkpt>
      <trkpt lat="44.62006" lon="5.7968">
        <ele>1502.6</ele>
        <time>2023-05-18T11:07:27Z</time>
      </trkpt>
      <trkpt lat="44.62007" lon="5.7968">
        <ele>1503</ele>
        <time>2023-05-18T11:07:28Z</time>
      </trkpt>
      <trkpt lat="44.62007" lon="5.79679">
        <ele>1503.2</ele>
        <time>2023-05-18T11:07:29Z</time>
      </trkpt>
      <trkpt lat="44.62008" lon="5.79679">
        <ele>1503.4</ele>
        <time>2023-05-18T11:07:30Z</time>
      </trkpt>
      <trkpt lat="44.62009" lon="5.79678">
        <ele>1503.6</ele>
        <time>2023-05-18T11:07:31Z</time>
      </trkpt>
      <trkpt lat="44.62009" lon="5.79677">
        <ele>1503.8</ele>
        <time>2023-05-18T11:07:32Z</time>
      </trkpt>
      <trkpt lat="44.6201" lon="5.79676">
        <ele>1504</ele>
        <time>2023-05-18T11:07:33Z</time>
      </trkpt>
      <trkpt lat="44.62011" lon="5.79675">
        <ele>1504.2</ele>
        <time>2023-05-18T11:07:34Z</time>
      </trkpt>
      <trkpt lat="44.62011" lon="5.79674">
        <ele>1504.4</ele>
        <time>2023-05-18T11:07:35Z</time>
      </trkpt>
      <trkpt lat="44.62012" lon="5.79674">
        <ele>1504.4</ele>
        <time>2023-05-18T11:07:36Z</time>
      </trkpt>
      <trkpt lat="44.62013" lon="5.79673">
        <ele>1504.6</ele>
        <time>2023-05-18T11:07:37Z</time>
      </trkpt>
      <trkpt lat="44.62013" lon="5.79672">
        <ele>1504.6</ele>
        <time>2023-05-18T11:07:38Z</time>
      </trkpt>
      <trkpt lat="44.62014" lon="5.79671">
        <ele>1504.8</ele>
        <time>2023-05-18T11:07:39Z</time>
      </trkpt>
      <trkpt lat="44.62015" lon="5.79671">
        <ele>1505</ele>
        <time>2023-05-18T11:07:40Z</time>
      </trkpt>
      <trkpt lat="44.62015" lon="5.7967">
        <ele>1505.2</ele>
        <time>2023-05-18T11:07:41Z</time>
      </trkpt>
      <trkpt lat="44.62016" lon="5.79669">
        <ele>1505.6</ele>
        <time>2023-05-18T11:07:42Z</time>
      </trkpt>
      <trkpt lat="44.62016" lon="5.79668">
        <ele>1505.6</ele>
        <time>2023-05-18T11:07:43Z</time>
      </trkpt>
      <trkpt lat="44.62017" lon="5.79668">
        <ele>1505.8</ele>
        <time>2023-05-18T11:07:44Z</time>
      </trkpt>
      <trkpt lat="44.62018" lon="5.79667">
        <ele>1506</ele>
        <time>2023-05-18T11:07:45Z</time>
      </trkpt>
      <trkpt lat="44.62018" lon="5.79666">
        <ele>1506.2</ele>
        <time>2023-05-18T11:07:46Z</time>
      </trkpt>
      <trkpt lat="44.62019" lon="5.79666">
        <ele>1506.2</ele>
        <time>2023-05-18T11:07:47Z</time>
      </trkpt>
      <trkpt lat="44.6202" lon="5.79665">
        <ele>1506.6</ele>
        <time>2023-05-18T11:07:48Z</time>
      </trkpt>
      <trkpt lat="44.62021" lon="5.79665">
        <ele>1506.8</ele>
        <time>2023-05-18T11:07:49Z</time>
      </trkpt>
      <trkpt lat="44.62022" lon="5.79664">
        <ele>1507</ele>
        <time>2023-05-18T11:07:50Z</time>
      </trkpt>
      <trkpt lat="44.62023" lon="5.79663">
        <ele>1507</ele>
        <time>2023-05-18T11:07:51Z</time>
      </trkpt>
      <trkpt lat="44.62023" lon="5.79662">
        <ele>1507.2</ele>
        <time>2023-05-18T11:07:52Z</time>
      </trkpt>
      <trkpt lat="44.62024" lon="5.79662">
        <ele>1507.4</ele>
        <time>2023-05-18T11:07:53Z</time>
      </trkpt>
      <trkpt lat="44.62024" lon="5.79661">
        <ele>1507.4</ele>
        <time>2023-05-18T11:07:54Z</time>
      </trkpt>
      <trkpt lat="44.62025" lon="5.79661">
        <ele>1507.8</ele>
        <time>2023-05-18T11:07:55Z</time>
      </trkpt>
      <trkpt lat="44.62026" lon="5.7966">
        <ele>1508</ele>
        <time>2023-05-18T11:07:56Z</time>
      </trkpt>
      <trkpt lat="44.62027" lon="5.79659">
        <ele>1508.2</ele>
        <time>2023-05-18T11:07:57Z</time>
      </trkpt>
      <trkpt lat="44.62028" lon="5.79659">
        <ele>1508.4</ele>
        <time>2023-05-18T11:07:58Z</time>
      </trkpt>
      <trkpt lat="44.62029" lon="5.79658">
        <ele>1508.6</ele>
        <time>2023-05-18T11:07:59Z</time>
      </trkpt>
      <trkpt lat="44.6203" lon="5.79657">
        <ele>1508.8</ele>
        <time>2023-05-18T11:08:00Z</time>
      </trkpt>
      <trkpt lat="44.62031" lon="5.79656">
        <ele>1508.8</ele>
        <time>2023-05-18T11:08:01Z</time>
      </trkpt>
      <trkpt lat="44.62031" lon="5.79656">
        <ele>1509</ele>
        <time>2023-05-18T11:08:02Z</time>
      </trkpt>
      <trkpt lat="44.62032" lon="5.79655">
        <ele>1509</ele>
        <time>2023-05-18T11:08:03Z</time>
      </trkpt>
      <trkpt lat="44.62033" lon="5.79655">
        <ele>1509.2</ele>
        <time>2023-05-18T11:08:04Z</time>
      </trkpt>
      <trkpt lat="44.62034" lon="5.79654">
        <ele>1509.2</ele>
        <time>2023-05-18T11:08:05Z</time>
      </trkpt>
      <trkpt lat="44.62035" lon="5.79653">
        <ele>1509.6</ele>
        <time>2023-05-18T11:08:06Z</time>
      </trkpt>
      <trkpt lat="44.62035" lon="5.79653">
        <ele>1509.8</ele>
        <time>2023-05-18T11:08:07Z</time>
      </trkpt>
      <trkpt lat="44.62036" lon="5.79652">
        <ele>1510.2</ele>
        <time>2023-05-18T11:08:08Z</time>
      </trkpt>
      <trkpt lat="44.62037" lon="5.7965">
        <ele>1510.4</ele>
        <time>2023-05-18T11:08:09Z</time>
      </trkpt>
      <trkpt lat="44.62038" lon="5.7965">
        <ele>1510.6</ele>
        <time>2023-05-18T11:08:10Z</time>
      </trkpt>
      <trkpt lat="44.62038" lon="5.79649">
        <ele>1510.8</ele>
        <time>2023-05-18T11:08:11Z</time>
      </trkpt>
      <trkpt lat="44.62039" lon="5.79649">
        <ele>1511</ele>
        <time>2023-05-18T11:08:12Z</time>
      </trkpt>
      <trkpt lat="44.6204" lon="5.79649">
        <ele>1511</ele>
        <time>2023-05-18T11:08:13Z</time>
      </trkpt>
      <trkpt lat="44.62041" lon="5.79648">
        <ele>1511.2</ele>
        <time>2023-05-18T11:08:14Z</time>
      </trkpt>
      <trkpt lat="44.62042" lon="5.79648">
        <ele>1511.4</ele>
        <time>2023-05-18T11:08:15Z</time>
      </trkpt>
      <trkpt lat="44.62043" lon="5.79647">
        <ele>1511.6</ele>
        <time>2023-05-18T11:08:16Z</time>
      </trkpt>
      <trkpt lat="44.62043" lon="5.79647">
        <ele>1511.8</ele>
        <time>2023-05-18T11:08:17Z</time>
      </trkpt>
      <trkpt lat="44.62044" lon="5.79646">
        <ele>1512</ele>
        <time>2023-05-18T11:08:18Z</time>
      </trkpt>
      <trkpt lat="44.62045" lon="5.79645">
        <ele>1512</ele>
        <time>2023-05-18T11:08:19Z</time>
      </trkpt>
      <trkpt lat="44.62046" lon="5.79645">
        <ele>1512.4</ele>
        <time>2023-05-18T11:08:20Z</time>
      </trkpt>
      <trkpt lat="44.62047" lon="5.79645">
        <ele>1512.4</ele>
        <time>2023-05-18T11:08:21Z</time>
      </trkpt>
      <trkpt lat="44.62048" lon="5.79644">
        <ele>1512.6</ele>
        <time>2023-05-18T11:08:22Z</time>
      </trkpt>
      <trkpt lat="44.62049" lon="5.79643">
        <ele>1512.6</ele>
        <time>2023-05-18T11:08:23Z</time>
      </trkpt>
      <trkpt lat="44.6205" lon="5.79643">
        <ele>1512.8</ele>
        <time>2023-05-18T11:08:24Z</time>
      </trkpt>
      <trkpt lat="44.6205" lon="5.79643">
        <ele>1513</ele>
        <time>2023-05-18T11:08:25Z</time>
      </trkpt>
      <trkpt lat="44.62051" lon="5.79642">
        <ele>1513.4</ele>
        <time>2023-05-18T11:08:26Z</time>
      </trkpt>
      <trkpt lat="44.62052" lon="5.79641">
        <ele>1513.8</ele>
        <time>2023-05-18T11:08:27Z</time>
      </trkpt>
      <trkpt lat="44.62053" lon="5.79641">
        <ele>1514</ele>
        <time>2023-05-18T11:08:28Z</time>
      </trkpt>
      <trkpt lat="44.62054" lon="5.7964">
        <ele>1514.2</ele>
        <time>2023-05-18T11:08:29Z</time>
      </trkpt>
      <trkpt lat="44.62055" lon="5.7964">
        <ele>1514.2</ele>
        <time>2023-05-18T11:08:30Z</time>
      </trkpt>
      <trkpt lat="44.62056" lon="5.79639">
        <ele>1514.6</ele>
        <time>2023-05-18T11:08:31Z</time>
      </trkpt>
      <trkpt lat="44.62057" lon="5.79639">
        <ele>1514.6</ele>
        <time>2023-05-18T11:08:32Z</time>
      </trkpt>
      <trkpt lat="44.62058" lon="5.79638">
        <ele>1514.6</ele>
        <time>2023-05-18T11:08:33Z</time>
      </trkpt>
      <trkpt lat="44.62058" lon="5.79638">
        <ele>1514.8</ele>
        <time>2023-05-18T11:08:34Z</time>
      </trkpt>
      <trkpt lat="44.62059" lon="5.79637">
        <ele>1514.8</ele>
        <time>2023-05-18T11:08:35Z</time>
      </trkpt>
      <trkpt lat="44.62059" lon="5.79637">
        <ele>1515</ele>
        <time>2023-05-18T11:08:36Z</time>
      </trkpt>
      <trkpt lat="44.6206" lon="5.79636">
        <ele>1515</ele>
        <time>2023-05-18T11:08:37Z</time>
      </trkpt>
      <trkpt lat="44.62061" lon="5.79635">
        <ele>1515.4</ele>
        <time>2023-05-18T11:08:38Z</time>
      </trkpt>
      <trkpt lat="44.62061" lon="5.79635">
        <ele>1515.6</ele>
        <time>2023-05-18T11:08:39Z</time>
      </trkpt>
      <trkpt lat="44.62062" lon="5.79634">
        <ele>1515.6</ele>
        <time>2023-05-18T11:08:40Z</time>
      </trkpt>
      <trkpt lat="44.62063" lon="5.79633">
        <ele>1515.8</ele>
        <time>2023-05-18T11:08:41Z</time>
      </trkpt>
      <trkpt lat="44.62064" lon="5.79633">
        <ele>1516</ele>
        <time>2023-05-18T11:08:42Z</time>
      </trkpt>
      <trkpt lat="44.62065" lon="5.79632">
        <ele>1516</ele>
        <time>2023-05-18T11:08:43Z</time>
      </trkpt>
      <trkpt lat="44.62066" lon="5.79631">
        <ele>1516.2</ele>
        <time>2023-05-18T11:08:44Z</time>
      </trkpt>
      <trkpt lat="44.62067" lon="5.7963">
        <ele>1516.6</ele>
        <time>2023-05-18T11:08:45Z</time>
      </trkpt>
      <trkpt lat="44.62067" lon="5.79629">
        <ele>1516.6</ele>
        <time>2023-05-18T11:08:46Z</time>
      </trkpt>
      <trkpt lat="44.62068" lon="5.79628">
        <ele>1516.8</ele>
        <time>2023-05-18T11:08:47Z</time>
      </trkpt>
      <trkpt lat="44.62069" lon="5.79627">
        <ele>1517</ele>
        <time>2023-05-18T11:08:48Z</time>
      </trkpt>
      <trkpt lat="44.6207" lon="5.79626">
        <ele>1517</ele>
        <time>2023-05-18T11:08:49Z</time>
      </trkpt>
      <trkpt lat="44.62071" lon="5.79625">
        <ele>1517.2</ele>
        <time>2023-05-18T11:08:50Z</time>
      </trkpt>
      <trkpt lat="44.62072" lon="5.79624">
        <ele>1517.2</ele>
        <time>2023-05-18T11:08:51Z</time>
      </trkpt>
      <trkpt lat="44.62073" lon="5.79623">
        <ele>1517.2</ele>
        <time>2023-05-18T11:08:52Z</time>
      </trkpt>
      <trkpt lat="44.62074" lon="5.79622">
        <ele>1517.4</ele>
        <time>2023-05-18T11:08:53Z</time>
      </trkpt>
      <trkpt lat="44.62075" lon="5.79621">
        <ele>1517.6</ele>
        <time>2023-05-18T11:08:54Z</time>
      </trkpt>
      <trkpt lat="44.62075" lon="5.79621">
        <ele>1517.8</ele>
        <time>2023-05-18T11:08:55Z</time>
      </trkpt>
      <trkpt lat="44.62076" lon="5.79619">
        <ele>1517.8</ele>
        <time>2023-05-18T11:08:56Z</time>
      </trkpt>
      <trkpt lat="44.62077" lon="5.79619">
        <ele>1518</ele>
        <time>2023-05-18T11:08:57Z</time>
      </trkpt>
      <trkpt lat="44.62078" lon="5.79617">
        <ele>1518.2</ele>
        <time>2023-05-18T11:08:58Z</time>
      </trkpt>
      <trkpt lat="44.62079" lon="5.79616">
        <ele>1518.2</ele>
        <time>2023-05-18T11:08:59Z</time>
      </trkpt>
      <trkpt lat="44.6208" lon="5.79615">
        <ele>1518.6</ele>
        <time>2023-05-18T11:09:00Z</time>
      </trkpt>
      <trkpt lat="44.62081" lon="5.79614">
        <ele>1518.6</ele>
        <time>2023-05-18T11:09:01Z</time>
      </trkpt>
      <trkpt lat="44.62082" lon="5.79613">
        <ele>1518.8</ele>
        <time>2023-05-18T11:09:02Z</time>
      </trkpt>
      <trkpt lat="44.62083" lon="5.79612">
        <ele>1519</ele>
        <time>2023-05-18T11:09:03Z</time>
      </trkpt>
      <trkpt lat="44.62084" lon="5.79611">
        <ele>1519.2</ele>
        <time>2023-05-18T11:09:04Z</time>
      </trkpt>
      <trkpt lat="44.62085" lon="5.7961">
        <ele>1519.6</ele>
        <time>2023-05-18T11:09:05Z</time>
      </trkpt>
      <trkpt lat="44.62086" lon="5.79609">
        <ele>1519.8</ele>
        <time>2023-05-18T11:09:06Z</time>
      </trkpt>
      <trkpt lat="44.62087" lon="5.79608">
        <ele>1520</ele>
        <time>2023-05-18T11:09:07Z</time>
      </trkpt>
      <trkpt lat="44.62088" lon="5.79607">
        <ele>1520</ele>
        <time>2023-05-18T11:09:08Z</time>
      </trkpt>
      <trkpt lat="44.62089" lon="5.79606">
        <ele>1520.2</ele>
        <time>2023-05-18T11:09:09Z</time>
      </trkpt>
      <trkpt lat="44.6209" lon="5.79605">
        <ele>1520.4</ele>
        <time>2023-05-18T11:09:10Z</time>
      </trkpt>
      <trkpt lat="44.62091" lon="5.79605">
        <ele>1520.4</ele>
        <time>2023-05-18T11:09:11Z</time>
      </trkpt>
      <trkpt lat="44.62092" lon="5.79605">
        <ele>1520.6</ele>
        <time>2023-05-18T11:09:12Z</time>
      </trkpt>
      <trkpt lat="44.62093" lon="5.79604">
        <ele>1520.8</ele>
        <time>2023-05-18T11:09:13Z</time>
      </trkpt>
      <trkpt lat="44.62094" lon="5.79604">
        <ele>1521</ele>
        <time>2023-05-18T11:09:14Z</time>
      </trkpt>
      <trkpt lat="44.62095" lon="5.79603">
        <ele>1521</ele>
        <time>2023-05-18T11:09:15Z</time>
      </trkpt>
      <trkpt lat="44.62096" lon="5.79602">
        <ele>1521</ele>
        <time>2023-05-18T11:09:16Z</time>
      </trkpt>
      <trkpt lat="44.62097" lon="5.79601">
        <ele>1521.2</ele>
        <time>2023-05-18T11:09:17Z</time>
      </trkpt>
      <trkpt lat="44.62098" lon="5.796">
        <ele>1521.2</ele>
        <time>2023-05-18T11:09:18Z</time>
      </trkpt>
      <trkpt lat="44.62099" lon="5.79599">
        <ele>1521.2</ele>
        <time>2023-05-18T11:09:19Z</time>
      </trkpt>
      <trkpt lat="44.62099" lon="5.79598">
        <ele>1521.4</ele>
        <time>2023-05-18T11:09:20Z</time>
      </trkpt>
      <trkpt lat="44.621" lon="5.79597">
        <ele>1521.6</ele>
        <time>2023-05-18T11:09:21Z</time>
      </trkpt>
      <trkpt lat="44.62101" lon="5.79597">
        <ele>1521.8</ele>
        <time>2023-05-18T11:09:22Z</time>
      </trkpt>
      <trkpt lat="44.62102" lon="5.79596">
        <ele>1521.8</ele>
        <time>2023-05-18T11:09:23Z</time>
      </trkpt>
      <trkpt lat="44.62103" lon="5.79595">
        <ele>1522</ele>
        <time>2023-05-18T11:09:24Z</time>
      </trkpt>
      <trkpt lat="44.62104" lon="5.79595">
        <ele>1522.2</ele>
        <time>2023-05-18T11:09:25Z</time>
      </trkpt>
      <trkpt lat="44.62105" lon="5.79594">
        <ele>1522.2</ele>
        <time>2023-05-18T11:09:26Z</time>
      </trkpt>
      <trkpt lat="44.62106" lon="5.79593">
        <ele>1522.6</ele>
        <time>2023-05-18T11:09:27Z</time>
      </trkpt>
      <trkpt lat="44.62108" lon="5.79593">
        <ele>1522.8</ele>
        <time>2023-05-18T11:09:28Z</time>
      </trkpt>
      <trkpt lat="44.62109" lon="5.79592">
        <ele>1522.8</ele>
        <time>2023-05-18T11:09:29Z</time>
      </trkpt>
      <trkpt lat="44.62109" lon="5.79592">
        <ele>1522.8</ele>
        <time>2023-05-18T11:09:30Z</time>
      </trkpt>
      <trkpt lat="44.6211" lon="5.79591">
        <ele>1523.2</ele>
        <time>2023-05-18T11:09:31Z</time>
      </trkpt>
      <trkpt lat="44.62111" lon="5.79591">
        <ele>1523.2</ele>
        <time>2023-05-18T11:09:32Z</time>
      </trkpt>
      <trkpt lat="44.62113" lon="5.7959">
        <ele>1523.2</ele>
        <time>2023-05-18T11:09:33Z</time>
      </trkpt>
      <trkpt lat="44.62114" lon="5.79588">
        <ele>1523.4</ele>
        <time>2023-05-18T11:09:34Z</time>
      </trkpt>
      <trkpt lat="44.62116" lon="5.79587">
        <ele>1523.4</ele>
        <time>2023-05-18T11:09:35Z</time>
      </trkpt>
      <trkpt lat="44.62117" lon="5.79586">
        <ele>1523.4</ele>
        <time>2023-05-18T11:09:36Z</time>
      </trkpt>
      <trkpt lat="44.62117" lon="5.79585">
        <ele>1523.4</ele>
        <time>2023-05-18T11:09:37Z</time>
      </trkpt>
      <trkpt lat="44.62118" lon="5.79583">
        <ele>1523.8</ele>
        <time>2023-05-18T11:09:38Z</time>
      </trkpt>
      <trkpt lat="44.62118" lon="5.79582">
        <ele>1523.8</ele>
        <time>2023-05-18T11:09:39Z</time>
      </trkpt>
      <trkpt lat="44.62119" lon="5.79581">
        <ele>1524</ele>
        <time>2023-05-18T11:09:40Z</time>
      </trkpt>
      <trkpt lat="44.62119" lon="5.79579">
        <ele>1524</ele>
        <time>2023-05-18T11:09:41Z</time>
      </trkpt>
      <trkpt lat="44.62119" lon="5.79578">
        <ele>1524</ele>
        <time>2023-05-18T11:09:42Z</time>
      </trkpt>
      <trkpt lat="44.6212" lon="5.79576">
        <ele>1524</ele>
        <time>2023-05-18T11:09:43Z</time>
      </trkpt>
      <trkpt lat="44.6212" lon="5.79575">
        <ele>1524.4</ele>
        <time>2023-05-18T11:09:44Z</time>
      </trkpt>
      <trkpt lat="44.6212" lon="5.79573">
        <ele>1524.4</ele>
        <time>2023-05-18T11:09:45Z</time>
      </trkpt>
      <trkpt lat="44.62121" lon="5.79572">
        <ele>1524.4</ele>
        <time>2023-05-18T11:09:46Z</time>
      </trkpt>
      <trkpt lat="44.62121" lon="5.7957">
        <ele>1524.6</ele>
        <time>2023-05-18T11:09:47Z</time>
      </trkpt>
      <trkpt lat="44.62121" lon="5.79568">
        <ele>1524.6</ele>
        <time>2023-05-18T11:09:48Z</time>
      </trkpt>
      <trkpt lat="44.62122" lon="5.79567">
        <ele>1525</ele>
        <time>2023-05-18T11:09:49Z</time>
      </trkpt>
      <trkpt lat="44.62122" lon="5.79565">
        <ele>1525</ele>
        <time>2023-05-18T11:09:50Z</time>
      </trkpt>
      <trkpt lat="44.62122" lon="5.79563">
        <ele>1525.2</ele>
        <time>2023-05-18T11:09:51Z</time>
      </trkpt>
      <trkpt lat="44.62122" lon="5.79562">
        <ele>1525.4</ele>
        <time>2023-05-18T11:09:52Z</time>
      </trkpt>
      <trkpt lat="44.62122" lon="5.7956">
        <ele>1525.8</ele>
        <time>2023-05-18T11:09:53Z</time>
      </trkpt>
      <trkpt lat="44.62122" lon="5.79559">
        <ele>1526</ele>
        <time>2023-05-18T11:09:54Z</time>
      </trkpt>
      <trkpt lat="44.62122" lon="5.79557">
        <ele>1526</ele>
        <time>2023-05-18T11:09:55Z</time>
      </trkpt>
      <trkpt lat="44.62122" lon="5.79555">
        <ele>1526.4</ele>
        <time>2023-05-18T11:09:56Z</time>
      </trkpt>
      <trkpt lat="44.62122" lon="5.79553">
        <ele>1526.6</ele>
        <time>2023-05-18T11:09:57Z</time>
      </trkpt>
      <trkpt lat="44.62123" lon="5.79552">
        <ele>1526.6</ele>
        <time>2023-05-18T11:09:58Z</time>
      </trkpt>
      <trkpt lat="44.62123" lon="5.7955">
        <ele>1527</ele>
        <time>2023-05-18T11:09:59Z</time>
      </trkpt>
      <trkpt lat="44.62124" lon="5.79548">
        <ele>1527</ele>
        <time>2023-05-18T11:10:00Z</time>
      </trkpt>
      <trkpt lat="44.62125" lon="5.79547">
        <ele>1527</ele>
        <time>2023-05-18T11:10:01Z</time>
      </trkpt>
      <trkpt lat="44.62125" lon="5.79545">
        <ele>1527.2</ele>
        <time>2023-05-18T11:10:02Z</time>
      </trkpt>
      <trkpt lat="44.62126" lon="5.79544">
        <ele>1527.2</ele>
        <time>2023-05-18T11:10:03Z</time>
      </trkpt>
      <trkpt lat="44.62127" lon="5.79542">
        <ele>1527.2</ele>
        <time>2023-05-18T11:10:04Z</time>
      </trkpt>
      <trkpt lat="44.62128" lon="5.79541">
        <ele>1527.2</ele>
        <time>2023-05-18T11:10:05Z</time>
      </trkpt>
      <trkpt lat="44.62129" lon="5.7954">
        <ele>1527.2</ele>
        <time>2023-05-18T11:10:06Z</time>
      </trkpt>
      <trkpt lat="44.62129" lon="5.79539">
        <ele>1527.4</ele>
        <time>2023-05-18T11:10:07Z</time>
      </trkpt>
      <trkpt lat="44.6213" lon="5.79538">
        <ele>1527.4</ele>
        <time>2023-05-18T11:10:08Z</time>
      </trkpt>
      <trkpt lat="44.6213" lon="5.79537">
        <ele>1527.8</ele>
        <time>2023-05-18T11:10:09Z</time>
      </trkpt>
      <trkpt lat="44.62131" lon="5.79536">
        <ele>1527.8</ele>
        <time>2023-05-18T11:10:10Z</time>
      </trkpt>
      <trkpt lat="44.62132" lon="5.79535">
        <ele>1528</ele>
        <time>2023-05-18T11:10:11Z</time>
      </trkpt>
      <trkpt lat="44.62133" lon="5.79534">
        <ele>1528</ele>
        <time>2023-05-18T11:10:12Z</time>
      </trkpt>
      <trkpt lat="44.62133" lon="5.79533">
        <ele>1528</ele>
        <time>2023-05-18T11:10:13Z</time>
      </trkpt>
      <trkpt lat="44.62134" lon="5.79532">
        <ele>1528.6</ele>
        <time>2023-05-18T11:10:14Z</time>
      </trkpt>
      <trkpt lat="44.62135" lon="5.79531">
        <ele>1528.6</ele>
        <time>2023-05-18T11:10:15Z</time>
      </trkpt>
      <trkpt lat="44.62136" lon="5.7953">
        <ele>1529</ele>
        <time>2023-05-18T11:10:16Z</time>
      </trkpt>
      <trkpt lat="44.62137" lon="5.79529">
        <ele>1529.2</ele>
        <time>2023-05-18T11:10:17Z</time>
      </trkpt>
      <trkpt lat="44.62138" lon="5.79528">
        <ele>1529.2</ele>
        <time>2023-05-18T11:10:18Z</time>
      </trkpt>
      <trkpt lat="44.62139" lon="5.79527">
        <ele>1529.6</ele>
        <time>2023-05-18T11:10:19Z</time>
      </trkpt>
      <trkpt lat="44.6214" lon="5.79527">
        <ele>1529.6</ele>
        <time>2023-05-18T11:10:20Z</time>
      </trkpt>
      <trkpt lat="44.6214" lon="5.79526">
        <ele>1530</ele>
        <time>2023-05-18T11:10:21Z</time>
      </trkpt>
      <trkpt lat="44.62141" lon="5.79525">
        <ele>1530</ele>
        <time>2023-05-18T11:10:22Z</time>
      </trkpt>
      <trkpt lat="44.62142" lon="5.79524">
        <ele>1530.2</ele>
        <time>2023-05-18T11:10:23Z</time>
      </trkpt>
      <trkpt lat="44.62143" lon="5.79524">
        <ele>1530.4</ele>
        <time>2023-05-18T11:10:24Z</time>
      </trkpt>
      <trkpt lat="44.62144" lon="5.79523">
        <ele>1530.6</ele>
        <time>2023-05-18T11:10:25Z</time>
      </trkpt>
      <trkpt lat="44.62145" lon="5.79522">
        <ele>1530.6</ele>
        <time>2023-05-18T11:10:26Z</time>
      </trkpt>
      <trkpt lat="44.62146" lon="5.79522">
        <ele>1530.8</ele>
        <time>2023-05-18T11:10:27Z</time>
      </trkpt>
      <trkpt lat="44.62147" lon="5.79521">
        <ele>1530.8</ele>
        <time>2023-05-18T11:10:28Z</time>
      </trkpt>
      <trkpt lat="44.62148" lon="5.79521">
        <ele>1531</ele>
        <time>2023-05-18T11:10:29Z</time>
      </trkpt>
      <trkpt lat="44.62149" lon="5.7952">
        <ele>1531.4</ele>
        <time>2023-05-18T11:10:30Z</time>
      </trkpt>
      <trkpt lat="44.62149" lon="5.7952">
        <ele>1531.4</ele>
        <time>2023-05-18T11:10:31Z</time>
      </trkpt>
      <trkpt lat="44.6215" lon="5.79519">
        <ele>1531.6</ele>
        <time>2023-05-18T11:10:32Z</time>
      </trkpt>
      <trkpt lat="44.62151" lon="5.79518">
        <ele>1531.8</ele>
        <time>2023-05-18T11:10:33Z</time>
      </trkpt>
      <trkpt lat="44.62152" lon="5.79517">
        <ele>1532</ele>
        <time>2023-05-18T11:10:34Z</time>
      </trkpt>
      <trkpt lat="44.62153" lon="5.79517">
        <ele>1532.4</ele>
        <time>2023-05-18T11:10:35Z</time>
      </trkpt>
      <trkpt lat="44.62153" lon="5.79516">
        <ele>1532.6</ele>
        <time>2023-05-18T11:10:36Z</time>
      </trkpt>
      <trkpt lat="44.62154" lon="5.79515">
        <ele>1532.8</ele>
        <time>2023-05-18T11:10:37Z</time>
      </trkpt>
      <trkpt lat="44.62155" lon="5.79514">
        <ele>1533</ele>
        <time>2023-05-18T11:10:38Z</time>
      </trkpt>
      <trkpt lat="44.62155" lon="5.79514">
        <ele>1533.2</ele>
        <time>2023-05-18T11:10:39Z</time>
      </trkpt>
      <trkpt lat="44.62156" lon="5.79513">
        <ele>1533.2</ele>
        <time>2023-05-18T11:10:40Z</time>
      </trkpt>
      <trkpt lat="44.62156" lon="5.79512">
        <ele>1533.4</ele>
        <time>2023-05-18T11:10:41Z</time>
      </trkpt>
      <trkpt lat="44.62157" lon="5.79512">
        <ele>1533.4</ele>
        <time>2023-05-18T11:10:42Z</time>
      </trkpt>
      <trkpt lat="44.62157" lon="5.79512">
        <ele>1533.6</ele>
        <time>2023-05-18T11:10:43Z</time>
      </trkpt>
      <trkpt lat="44.62157" lon="5.79512">
        <ele>1533.8</ele>
        <time>2023-05-18T11:10:44Z</time>
      </trkpt>
      <trkpt lat="44.62158" lon="5.7951">
        <ele>1534</ele>
        <time>2023-05-18T11:10:45Z</time>
      </trkpt>
      <trkpt lat="44.62159" lon="5.7951">
        <ele>1534.2</ele>
        <time>2023-05-18T11:10:46Z</time>
      </trkpt>
      <trkpt lat="44.62159" lon="5.7951">
        <ele>1534.2</ele>
        <time>2023-05-18T11:10:47Z</time>
      </trkpt>
      <trkpt lat="44.62159" lon="5.7951">
        <ele>1534.6</ele>
        <time>2023-05-18T11:10:48Z</time>
      </trkpt>
      <trkpt lat="44.6216" lon="5.79509">
        <ele>1534.6</ele>
        <time>2023-05-18T11:10:49Z</time>
      </trkpt>
      <trkpt lat="44.62161" lon="5.79508">
        <ele>1534.8</ele>
        <time>2023-05-18T11:10:50Z</time>
      </trkpt>
      <trkpt lat="44.62161" lon="5.79507">
        <ele>1535</ele>
        <time>2023-05-18T11:10:51Z</time>
      </trkpt>
      <trkpt lat="44.62162" lon="5.79506">
        <ele>1535.6</ele>
        <time>2023-05-18T11:10:52Z</time>
      </trkpt>
      <trkpt lat="44.62163" lon="5.79506">
        <ele>1535.8</ele>
        <time>2023-05-18T11:10:53Z</time>
      </trkpt>
      <trkpt lat="44.62164" lon="5.79506">
        <ele>1535.8</ele>
        <time>2023-05-18T11:10:54Z</time>
      </trkpt>
      <trkpt lat="44.62164" lon="5.79506">
        <ele>1536.2</ele>
        <time>2023-05-18T11:10:55Z</time>
      </trkpt>
      <trkpt lat="44.62164" lon="5.79506">
        <ele>1536.2</ele>
        <time>2023-05-18T11:10:56Z</time>
      </trkpt>
      <trkpt lat="44.62166" lon="5.79506">
        <ele>1536.4</ele>
        <time>2023-05-18T11:10:57Z</time>
      </trkpt>
      <trkpt lat="44.62166" lon="5.79505">
        <ele>1536.6</ele>
        <time>2023-05-18T11:10:58Z</time>
      </trkpt>
      <trkpt lat="44.62167" lon="5.79504">
        <ele>1536.8</ele>
        <time>2023-05-18T11:10:59Z</time>
      </trkpt>
      <trkpt lat="44.62168" lon="5.79503">
        <ele>1536.8</ele>
        <time>2023-05-18T11:11:00Z</time>
      </trkpt>
      <trkpt lat="44.62169" lon="5.79502">
        <ele>1537.2</ele>
        <time>2023-05-18T11:11:01Z</time>
      </trkpt>
      <trkpt lat="44.6217" lon="5.79502">
        <ele>1537.4</ele>
        <time>2023-05-18T11:11:02Z</time>
      </trkpt>
      <trkpt lat="44.62171" lon="5.79502">
        <ele>1537.6</ele>
        <time>2023-05-18T11:11:03Z</time>
      </trkpt>
      <trkpt lat="44.62171" lon="5.79502">
        <ele>1537.8</ele>
        <time>2023-05-18T11:11:04Z</time>
      </trkpt>
      <trkpt lat="44.62171" lon="5.79502">
        <ele>1538</ele>
        <time>2023-05-18T11:11:06Z</time>
      </trkpt>
      <trkpt lat="44.62171" lon="5.79502">
        <ele>1538</ele>
        <time>2023-05-18T11:11:07Z</time>
      </trkpt>
      <trkpt lat="44.62172" lon="5.79501">
        <ele>1538.2</ele>
        <time>2023-05-18T11:11:08Z</time>
      </trkpt>
      <trkpt lat="44.62173" lon="5.795">
        <ele>1538.4</ele>
        <time>2023-05-18T11:11:09Z</time>
      </trkpt>
      <trkpt lat="44.62174" lon="5.79499">
        <ele>1538.6</ele>
        <time>2023-05-18T11:11:10Z</time>
      </trkpt>
      <trkpt lat="44.62175" lon="5.79499">
        <ele>1538.8</ele>
        <time>2023-05-18T11:11:11Z</time>
      </trkpt>
      <trkpt lat="44.62176" lon="5.79498">
        <ele>1538.8</ele>
        <time>2023-05-18T11:11:12Z</time>
      </trkpt>
      <trkpt lat="44.62177" lon="5.79498">
        <ele>1539.2</ele>
        <time>2023-05-18T11:11:13Z</time>
      </trkpt>
      <trkpt lat="44.62178" lon="5.79498">
        <ele>1539.2</ele>
        <time>2023-05-18T11:11:14Z</time>
      </trkpt>
      <trkpt lat="44.62179" lon="5.79497">
        <ele>1539.4</ele>
        <time>2023-05-18T11:11:15Z</time>
      </trkpt>
      <trkpt lat="44.6218" lon="5.79496">
        <ele>1539.6</ele>
        <time>2023-05-18T11:11:16Z</time>
      </trkpt>
      <trkpt lat="44.6218" lon="5.79496">
        <ele>1539.6</ele>
        <time>2023-05-18T11:11:17Z</time>
      </trkpt>
      <trkpt lat="44.62181" lon="5.79496">
        <ele>1539.6</ele>
        <time>2023-05-18T11:11:18Z</time>
      </trkpt>
      <trkpt lat="44.62183" lon="5.79496">
        <ele>1539.8</ele>
        <time>2023-05-18T11:11:19Z</time>
      </trkpt>
      <trkpt lat="44.62184" lon="5.79495">
        <ele>1540</ele>
        <time>2023-05-18T11:11:20Z</time>
      </trkpt>
      <trkpt lat="44.62185" lon="5.79494">
        <ele>1540</ele>
        <time>2023-05-18T11:11:21Z</time>
      </trkpt>
      <trkpt lat="44.62186" lon="5.79493">
        <ele>1540.2</ele>
        <time>2023-05-18T11:11:22Z</time>
      </trkpt>
      <trkpt lat="44.62187" lon="5.79492">
        <ele>1540.2</ele>
        <time>2023-05-18T11:11:23Z</time>
      </trkpt>
      <trkpt lat="44.62187" lon="5.79491">
        <ele>1540.8</ele>
        <time>2023-05-18T11:11:24Z</time>
      </trkpt>
      <trkpt lat="44.62188" lon="5.79491">
        <ele>1541</ele>
        <time>2023-05-18T11:11:25Z</time>
      </trkpt>
      <trkpt lat="44.62188" lon="5.79491">
        <ele>1541.2</ele>
        <time>2023-05-18T11:11:26Z</time>
      </trkpt>
      <trkpt lat="44.62188" lon="5.79491">
        <ele>1541.4</ele>
        <time>2023-05-18T11:11:28Z</time>
      </trkpt>
      <trkpt lat="44.62188" lon="5.79491">
        <ele>1541.4</ele>
        <time>2023-05-18T11:11:29Z</time>
      </trkpt>
      <trkpt lat="44.62189" lon="5.79491">
        <ele>1541.8</ele>
        <time>2023-05-18T11:11:30Z</time>
      </trkpt>
      <trkpt lat="44.6219" lon="5.79491">
        <ele>1542</ele>
        <time>2023-05-18T11:11:31Z</time>
      </trkpt>
      <trkpt lat="44.62191" lon="5.79491">
        <ele>1542</ele>
        <time>2023-05-18T11:11:32Z</time>
      </trkpt>
      <trkpt lat="44.62191" lon="5.79491">
        <ele>1542.4</ele>
        <time>2023-05-18T11:11:33Z</time>
      </trkpt>
      <trkpt lat="44.62191" lon="5.79491">
        <ele>1542.6</ele>
        <time>2023-05-18T11:11:34Z</time>
      </trkpt>
      <trkpt lat="44.62191" lon="5.79491">
        <ele>1543</ele>
        <time>2023-05-18T11:11:35Z</time>
      </trkpt>
      <trkpt lat="44.62193" lon="5.7949">
        <ele>1543</ele>
        <time>2023-05-18T11:11:36Z</time>
      </trkpt>
      <trkpt lat="44.62193" lon="5.7949">
        <ele>1543.2</ele>
        <time>2023-05-18T11:11:37Z</time>
      </trkpt>
      <trkpt lat="44.62194" lon="5.79489">
        <ele>1543.4</ele>
        <time>2023-05-18T11:11:38Z</time>
      </trkpt>
      <trkpt lat="44.62195" lon="5.79488">
        <ele>1543.6</ele>
        <time>2023-05-18T11:11:39Z</time>
      </trkpt>
      <trkpt lat="44.62197" lon="5.79488">
        <ele>1543.8</ele>
        <time>2023-05-18T11:11:40Z</time>
      </trkpt>
      <trkpt lat="44.62198" lon="5.79487">
        <ele>1543.8</ele>
        <time>2023-05-18T11:11:41Z</time>
      </trkpt>
      <trkpt lat="44.62199" lon="5.79486">
        <ele>1543.8</ele>
        <time>2023-05-18T11:11:42Z</time>
      </trkpt>
      <trkpt lat="44.62201" lon="5.79485">
        <ele>1544</ele>
        <time>2023-05-18T11:11:43Z</time>
      </trkpt>
      <trkpt lat="44.62202" lon="5.79484">
        <ele>1544.2</ele>
        <time>2023-05-18T11:11:44Z</time>
      </trkpt>
      <trkpt lat="44.62203" lon="5.79484">
        <ele>1544.2</ele>
        <time>2023-05-18T11:11:45Z</time>
      </trkpt>
      <trkpt lat="44.62205" lon="5.79483">
        <ele>1544.2</ele>
        <time>2023-05-18T11:11:46Z</time>
      </trkpt>
      <trkpt lat="44.62206" lon="5.79482">
        <ele>1544.4</ele>
        <time>2023-05-18T11:11:47Z</time>
      </trkpt>
      <trkpt lat="44.62207" lon="5.79482">
        <ele>1544.6</ele>
        <time>2023-05-18T11:11:48Z</time>
      </trkpt>
      <trkpt lat="44.62209" lon="5.7948">
        <ele>1544.8</ele>
        <time>2023-05-18T11:11:49Z</time>
      </trkpt>
      <trkpt lat="44.6221" lon="5.7948">
        <ele>1545</ele>
        <time>2023-05-18T11:11:50Z</time>
      </trkpt>
      <trkpt lat="44.62212" lon="5.79479">
        <ele>1545.2</ele>
        <time>2023-05-18T11:11:51Z</time>
      </trkpt>
      <trkpt lat="44.62213" lon="5.79479">
        <ele>1545.2</ele>
        <time>2023-05-18T11:11:52Z</time>
      </trkpt>
      <trkpt lat="44.62214" lon="5.79478">
        <ele>1545.2</ele>
        <time>2023-05-18T11:11:53Z</time>
      </trkpt>
      <trkpt lat="44.62215" lon="5.79478">
        <ele>1545.4</ele>
        <time>2023-05-18T11:11:54Z</time>
      </trkpt>
      <trkpt lat="44.62216" lon="5.79478">
        <ele>1545.6</ele>
        <time>2023-05-18T11:11:55Z</time>
      </trkpt>
      <trkpt lat="44.62217" lon="5.79477">
        <ele>1546</ele>
        <time>2023-05-18T11:11:56Z</time>
      </trkpt>
      <trkpt lat="44.62219" lon="5.79475">
        <ele>1546</ele>
        <time>2023-05-18T11:11:57Z</time>
      </trkpt>
      <trkpt lat="44.6222" lon="5.79474">
        <ele>1546.2</ele>
        <time>2023-05-18T11:11:58Z</time>
      </trkpt>
      <trkpt lat="44.62221" lon="5.79474">
        <ele>1546.4</ele>
        <time>2023-05-18T11:11:59Z</time>
      </trkpt>
      <trkpt lat="44.62222" lon="5.79473">
        <ele>1546.6</ele>
        <time>2023-05-18T11:12:00Z</time>
      </trkpt>
      <trkpt lat="44.62222" lon="5.79473">
        <ele>1546.8</ele>
        <time>2023-05-18T11:12:01Z</time>
      </trkpt>
      <trkpt lat="44.62222" lon="5.79473">
        <ele>1547</ele>
        <time>2023-05-18T11:12:02Z</time>
      </trkpt>
      <trkpt lat="44.62223" lon="5.79473">
        <ele>1547.2</ele>
        <time>2023-05-18T11:12:03Z</time>
      </trkpt>
      <trkpt lat="44.62223" lon="5.79473">
        <ele>1547.4</ele>
        <time>2023-05-18T11:12:04Z</time>
      </trkpt>
      <trkpt lat="44.62223" lon="5.79473">
        <ele>1547.6</ele>
        <time>2023-05-18T11:12:05Z</time>
      </trkpt>
      <trkpt lat="44.62223" lon="5.79473">
        <ele>1547.8</ele>
        <time>2023-05-18T11:12:06Z</time>
      </trkpt>
      <trkpt lat="44.62224" lon="5.79473">
        <ele>1548</ele>
        <time>2023-05-18T11:12:07Z</time>
      </trkpt>
      <trkpt lat="44.62225" lon="5.79472">
        <ele>1548.2</ele>
        <time>2023-05-18T11:12:08Z</time>
      </trkpt>
      <trkpt lat="44.62225" lon="5.79472">
        <ele>1548.4</ele>
        <time>2023-05-18T11:12:09Z</time>
      </trkpt>
      <trkpt lat="44.62226" lon="5.79472">
        <ele>1548.4</ele>
        <time>2023-05-18T11:12:10Z</time>
      </trkpt>
      <trkpt lat="44.62226" lon="5.79472">
        <ele>1548.6</ele>
        <time>2023-05-18T11:12:11Z</time>
      </trkpt>
      <trkpt lat="44.62226" lon="5.79472">
        <ele>1548.8</ele>
        <time>2023-05-18T11:12:12Z</time>
      </trkpt>
      <trkpt lat="44.62226" lon="5.79473">
        <ele>1549</ele>
        <time>2023-05-18T11:12:13Z</time>
      </trkpt>
      <trkpt lat="44.62226" lon="5.79473">
        <ele>1549.2</ele>
        <time>2023-05-18T11:12:14Z</time>
      </trkpt>
      <trkpt lat="44.62226" lon="5.79473">
        <ele>1549.4</ele>
        <time>2023-05-18T11:12:15Z</time>
      </trkpt>
      <trkpt lat="44.62226" lon="5.79474">
        <ele>1549.8</ele>
        <time>2023-05-18T11:12:16Z</time>
      </trkpt>
      <trkpt lat="44.62226" lon="5.79474">
        <ele>1549.8</ele>
        <time>2023-05-18T11:12:17Z</time>
      </trkpt>
      <trkpt lat="44.62225" lon="5.79476">
        <ele>1550</ele>
        <time>2023-05-18T11:12:18Z</time>
      </trkpt>
      <trkpt lat="44.62226" lon="5.79478">
        <ele>1550.2</ele>
        <time>2023-05-18T11:12:19Z</time>
      </trkpt>
      <trkpt lat="44.62226" lon="5.79479">
        <ele>1550.4</ele>
        <time>2023-05-18T11:12:20Z</time>
      </trkpt>
      <trkpt lat="44.62225" lon="5.79479">
        <ele>1550.4</ele>
        <time>2023-05-18T11:12:21Z</time>
      </trkpt>
      <trkpt lat="44.62225" lon="5.79479">
        <ele>1550.6</ele>
        <time>2023-05-18T11:12:22Z</time>
      </trkpt>
      <trkpt lat="44.62225" lon="5.79479">
        <ele>1550.8</ele>
        <time>2023-05-18T11:12:23Z</time>
      </trkpt>
      <trkpt lat="44.62225" lon="5.79479">
        <ele>1551.2</ele>
        <time>2023-05-18T11:12:25Z</time>
      </trkpt>
      <trkpt lat="44.62225" lon="5.7948">
        <ele>1551.6</ele>
        <time>2023-05-18T11:12:35Z</time>
      </trkpt>
      <trkpt lat="44.62225" lon="5.79481">
        <ele>1551.6</ele>
        <time>2023-05-18T11:12:36Z</time>
      </trkpt>
      <trkpt lat="44.62224" lon="5.79482">
        <ele>1551.6</ele>
        <time>2023-05-18T11:12:37Z</time>
      </trkpt>
      <trkpt lat="44.62224" lon="5.79483">
        <ele>1551.6</ele>
        <time>2023-05-18T11:12:38Z</time>
      </trkpt>
      <trkpt lat="44.62224" lon="5.79484">
        <ele>1551.6</ele>
        <time>2023-05-18T11:12:39Z</time>
      </trkpt>
      <trkpt lat="44.62224" lon="5.79484">
        <ele>1551.8</ele>
        <time>2023-05-18T11:12:40Z</time>
      </trkpt>
      <trkpt lat="44.62224" lon="5.79484">
        <ele>1552</ele>
        <time>2023-05-18T11:12:43Z</time>
      </trkpt>
      <trkpt lat="44.62224" lon="5.79484">
        <ele>1552</ele>
        <time>2023-05-18T11:12:47Z</time>
      </trkpt>
      <trkpt lat="44.62223" lon="5.79485">
        <ele>1552.2</ele>
        <time>2023-05-18T11:13:01Z</time>
      </trkpt>
      <trkpt lat="44.62223" lon="5.79486">
        <ele>1552.2</ele>
        <time>2023-05-18T11:13:07Z</time>
      </trkpt>
      <trkpt lat="44.62223" lon="5.79486">
        <ele>1552.2</ele>
        <time>2023-05-18T11:13:53Z</time>
      </trkpt>
      <trkpt lat="44.62223" lon="5.79486">
        <ele>1552</ele>
        <time>2023-05-18T11:14:01Z</time>
      </trkpt>
      <trkpt lat="44.62223" lon="5.79486">
        <ele>1552.2</ele>
        <time>2023-05-18T11:14:17Z</time>
      </trkpt>
      <trkpt lat="44.62223" lon="5.79486">
        <ele>1552.2</ele>
        <time>2023-05-18T11:15:51Z</time>
      </trkpt>
      <trkpt lat="44.62223" lon="5.79486">
        <ele>1551.8</ele>
        <time>2023-05-18T11:17:17Z</time>
      </trkpt>
      <trkpt lat="44.62223" lon="5.79486">
        <ele>1551.8</ele>
        <time>2023-05-18T11:17:39Z</time>
      </trkpt>
      <trkpt lat="44.62223" lon="5.79486">
        <ele>1552</ele>
        <time>2023-05-18T11:18:13Z</time>
      </trkpt>
      <trkpt lat="44.62223" lon="5.79486">
        <ele>1551.8</ele>
        <time>2023-05-18T11:18:29Z</time>
      </trkpt>
      <trkpt lat="44.62223" lon="5.79486">
        <ele>1551.6</ele>
        <time>2023-05-18T11:18:53Z</time>
      </trkpt>
      <trkpt lat="44.62223" lon="5.79486">
        <ele>1551.8</ele>
        <time>2023-05-18T11:19:06Z</time>
      </trkpt>
      <trkpt lat="44.62223" lon="5.79486">
        <ele>1551.8</ele>
        <time>2023-05-18T11:19:16Z</time>
      </trkpt>
      <trkpt lat="44.62223" lon="5.79486">
        <ele>1551.8</ele>
        <time>2023-05-18T11:19:19Z</time>
      </trkpt>
      <trkpt lat="44.62223" lon="5.79486">
        <ele>1551.4</ele>
        <time>2023-05-18T11:19:37Z</time>
      </trkpt>
      <trkpt lat="44.62223" lon="5.79486">
        <ele>1551.6</ele>
        <time>2023-05-18T11:19:51Z</time>
      </trkpt>
      <trkpt lat="44.62223" lon="5.79486">
        <ele>1551.6</ele>
        <time>2023-05-18T11:20:35Z</time>
      </trkpt>
      <trkpt lat="44.62223" lon="5.79486">
        <ele>1552</ele>
        <time>2023-05-18T11:21:14Z</time>
      </trkpt>
      <trkpt lat="44.62223" lon="5.79486">
        <ele>1552.2</ele>
        <time>2023-05-18T11:21:40Z</time>
      </trkpt>
      <trkpt lat="44.62223" lon="5.79486">
        <ele>1552.2</ele>
        <time>2023-05-18T11:22:06Z</time>
      </trkpt>
      <trkpt lat="44.62223" lon="5.79486">
        <ele>1552.4</ele>
        <time>2023-05-18T11:22:24Z</time>
      </trkpt>
      <trkpt lat="44.62223" lon="5.79486">
        <ele>1552.2</ele>
        <time>2023-05-18T11:22:55Z</time>
      </trkpt>
      <trkpt lat="44.62223" lon="5.79486">
        <ele>1552.2</ele>
        <time>2023-05-18T11:23:08Z</time>
      </trkpt>
      <trkpt lat="44.62223" lon="5.79486">
        <ele>1552</ele>
        <time>2023-05-18T11:23:35Z</time>
      </trkpt>
      <trkpt lat="44.62223" lon="5.79486">
        <ele>1552</ele>
        <time>2023-05-18T11:25:01Z</time>
      </trkpt>
      <trkpt lat="44.62223" lon="5.79486">
        <ele>1552</ele>
        <time>2023-05-18T11:25:24Z</time>
      </trkpt>
      <trkpt lat="44.62223" lon="5.79486">
        <ele>1552.6</ele>
        <time>2023-05-18T11:26:52Z</time>
      </trkpt>
      <trkpt lat="44.62223" lon="5.79486">
        <ele>1551.6</ele>
        <time>2023-05-18T11:27:12Z</time>
      </trkpt>
      <trkpt lat="44.62222" lon="5.79486">
        <ele>1551.6</ele>
        <time>2023-05-18T11:27:30Z</time>
      </trkpt>
      <trkpt lat="44.62221" lon="5.79491">
        <ele>1552.4</ele>
        <time>2023-05-18T11:27:39Z</time>
      </trkpt>
      <trkpt lat="44.6222" lon="5.79492">
        <ele>1552.4</ele>
        <time>2023-05-18T11:27:40Z</time>
      </trkpt>
      <trkpt lat="44.62219" lon="5.79493">
        <ele>1552.4</ele>
        <time>2023-05-18T11:27:41Z</time>
      </trkpt>
      <trkpt lat="44.62218" lon="5.79494">
        <ele>1552.6</ele>
        <time>2023-05-18T11:27:42Z</time>
      </trkpt>
      <trkpt lat="44.62217" lon="5.79497">
        <ele>1552.8</ele>
        <time>2023-05-18T11:27:44Z</time>
      </trkpt>
      <trkpt lat="44.62217" lon="5.79498">
        <ele>1553</ele>
        <time>2023-05-18T11:27:45Z</time>
      </trkpt>
      <trkpt lat="44.62216" lon="5.79498">
        <ele>1553</ele>
        <time>2023-05-18T11:27:46Z</time>
      </trkpt>
      <trkpt lat="44.62216" lon="5.79501">
        <ele>1553.4</ele>
        <time>2023-05-18T11:27:48Z</time>
      </trkpt>
      <trkpt lat="44.62215" lon="5.79502">
        <ele>1553.6</ele>
        <time>2023-05-18T11:27:49Z</time>
      </trkpt>
      <trkpt lat="44.62213" lon="5.79504">
        <ele>1554</ele>
        <time>2023-05-18T11:27:51Z</time>
      </trkpt>
      <trkpt lat="44.62212" lon="5.79505">
        <ele>1554.2</ele>
        <time>2023-05-18T11:27:52Z</time>
      </trkpt>
      <trkpt lat="44.62211" lon="5.79507">
        <ele>1554.4</ele>
        <time>2023-05-18T11:27:53Z</time>
      </trkpt>
      <trkpt lat="44.62209" lon="5.7951">
        <ele>1555</ele>
        <time>2023-05-18T11:27:55Z</time>
      </trkpt>
      <trkpt lat="44.62208" lon="5.79511">
        <ele>1555.2</ele>
        <time>2023-05-18T11:27:56Z</time>
      </trkpt>
      <trkpt lat="44.62207" lon="5.79514">
        <ele>1555.6</ele>
        <time>2023-05-18T11:27:58Z</time>
      </trkpt>
      <trkpt lat="44.62207" lon="5.79516">
        <ele>1555.6</ele>
        <time>2023-05-18T11:27:59Z</time>
      </trkpt>
      <trkpt lat="44.62207" lon="5.79517">
        <ele>1555.8</ele>
        <time>2023-05-18T11:28:00Z</time>
      </trkpt>
      <trkpt lat="44.62206" lon="5.79518">
        <ele>1556</ele>
        <time>2023-05-18T11:28:01Z</time>
      </trkpt>
      <trkpt lat="44.62206" lon="5.7952">
        <ele>1556.2</ele>
        <time>2023-05-18T11:28:02Z</time>
      </trkpt>
      <trkpt lat="44.62206" lon="5.79521">
        <ele>1556.4</ele>
        <time>2023-05-18T11:28:03Z</time>
      </trkpt>
      <trkpt lat="44.62206" lon="5.79522">
        <ele>1556.6</ele>
        <time>2023-05-18T11:28:04Z</time>
      </trkpt>
      <trkpt lat="44.62205" lon="5.79523">
        <ele>1556.8</ele>
        <time>2023-05-18T11:28:05Z</time>
      </trkpt>
      <trkpt lat="44.62205" lon="5.79524">
        <ele>1557</ele>
        <time>2023-05-18T11:28:06Z</time>
      </trkpt>
      <trkpt lat="44.62204" lon="5.79525">
        <ele>1557.2</ele>
        <time>2023-05-18T11:28:07Z</time>
      </trkpt>
      <trkpt lat="44.62204" lon="5.79525">
        <ele>1557.2</ele>
        <time>2023-05-18T11:28:08Z</time>
      </trkpt>
      <trkpt lat="44.62204" lon="5.79528">
        <ele>1557.4</ele>
        <time>2023-05-18T11:28:09Z</time>
      </trkpt>
      <trkpt lat="44.62203" lon="5.79529">
        <ele>1557.8</ele>
        <time>2023-05-18T11:28:10Z</time>
      </trkpt>
      <trkpt lat="44.62203" lon="5.79531">
        <ele>1557.8</ele>
        <time>2023-05-18T11:28:11Z</time>
      </trkpt>
      <trkpt lat="44.62203" lon="5.79532">
        <ele>1558</ele>
        <time>2023-05-18T11:28:12Z</time>
      </trkpt>
      <trkpt lat="44.62202" lon="5.79534">
        <ele>1558</ele>
        <time>2023-05-18T11:28:13Z</time>
      </trkpt>
      <trkpt lat="44.62201" lon="5.79535">
        <ele>1558.2</ele>
        <time>2023-05-18T11:28:14Z</time>
      </trkpt>
      <trkpt lat="44.622" lon="5.79537">
        <ele>1558.4</ele>
        <time>2023-05-18T11:28:15Z</time>
      </trkpt>
      <trkpt lat="44.622" lon="5.79538">
        <ele>1558.6</ele>
        <time>2023-05-18T11:28:16Z</time>
      </trkpt>
      <trkpt lat="44.62199" lon="5.7954">
        <ele>1558.8</ele>
        <time>2023-05-18T11:28:17Z</time>
      </trkpt>
      <trkpt lat="44.62198" lon="5.79541">
        <ele>1559</ele>
        <time>2023-05-18T11:28:18Z</time>
      </trkpt>
      <trkpt lat="44.62197" lon="5.79543">
        <ele>1559.4</ele>
        <time>2023-05-18T11:28:19Z</time>
      </trkpt>
      <trkpt lat="44.62197" lon="5.79545">
        <ele>1559.4</ele>
        <time>2023-05-18T11:28:20Z</time>
      </trkpt>
      <trkpt lat="44.62196" lon="5.79546">
        <ele>1559.6</ele>
        <time>2023-05-18T11:28:21Z</time>
      </trkpt>
      <trkpt lat="44.62195" lon="5.79548">
        <ele>1559.6</ele>
        <time>2023-05-18T11:28:22Z</time>
      </trkpt>
      <trkpt lat="44.62194" lon="5.79549">
        <ele>1559.8</ele>
        <time>2023-05-18T11:28:23Z</time>
      </trkpt>
      <trkpt lat="44.62194" lon="5.7955">
        <ele>1560</ele>
        <time>2023-05-18T11:28:24Z</time>
      </trkpt>
      <trkpt lat="44.62193" lon="5.79551">
        <ele>1560</ele>
        <time>2023-05-18T11:28:25Z</time>
      </trkpt>
      <trkpt lat="44.62192" lon="5.79552">
        <ele>1560.2</ele>
        <time>2023-05-18T11:28:26Z</time>
      </trkpt>
      <trkpt lat="44.62192" lon="5.79553">
        <ele>1560.6</ele>
        <time>2023-05-18T11:28:27Z</time>
      </trkpt>
      <trkpt lat="44.62191" lon="5.79555">
        <ele>1560.8</ele>
        <time>2023-05-18T11:28:28Z</time>
      </trkpt>
      <trkpt lat="44.62191" lon="5.79557">
        <ele>1561</ele>
        <time>2023-05-18T11:28:29Z</time>
      </trkpt>
      <trkpt lat="44.62191" lon="5.79559">
        <ele>1561.4</ele>
        <time>2023-05-18T11:28:30Z</time>
      </trkpt>
      <trkpt lat="44.6219" lon="5.79561">
        <ele>1561.4</ele>
        <time>2023-05-18T11:28:31Z</time>
      </trkpt>
      <trkpt lat="44.62189" lon="5.79563">
        <ele>1561.6</ele>
        <time>2023-05-18T11:28:32Z</time>
      </trkpt>
      <trkpt lat="44.62189" lon="5.79564">
        <ele>1561.8</ele>
        <time>2023-05-18T11:28:33Z</time>
      </trkpt>
      <trkpt lat="44.62188" lon="5.79566">
        <ele>1561.8</ele>
        <time>2023-05-18T11:28:34Z</time>
      </trkpt>
      <trkpt lat="44.62188" lon="5.79568">
        <ele>1562</ele>
        <time>2023-05-18T11:28:35Z</time>
      </trkpt>
      <trkpt lat="44.62187" lon="5.79569">
        <ele>1562</ele>
        <time>2023-05-18T11:28:36Z</time>
      </trkpt>
      <trkpt lat="44.62187" lon="5.79571">
        <ele>1562</ele>
        <time>2023-05-18T11:28:37Z</time>
      </trkpt>
      <trkpt lat="44.62186" lon="5.79574">
        <ele>1562.2</ele>
        <time>2023-05-18T11:28:38Z</time>
      </trkpt>
      <trkpt lat="44.62186" lon="5.79576">
        <ele>1562.2</ele>
        <time>2023-05-18T11:28:39Z</time>
      </trkpt>
      <trkpt lat="44.62186" lon="5.79578">
        <ele>1562.4</ele>
        <time>2023-05-18T11:28:40Z</time>
      </trkpt>
      <trkpt lat="44.62185" lon="5.79579">
        <ele>1562.4</ele>
        <time>2023-05-18T11:28:41Z</time>
      </trkpt>
      <trkpt lat="44.62185" lon="5.79581">
        <ele>1562.6</ele>
        <time>2023-05-18T11:28:42Z</time>
      </trkpt>
      <trkpt lat="44.62184" lon="5.79582">
        <ele>1563</ele>
        <time>2023-05-18T11:28:43Z</time>
      </trkpt>
      <trkpt lat="44.62184" lon="5.79583">
        <ele>1563</ele>
        <time>2023-05-18T11:28:44Z</time>
      </trkpt>
      <trkpt lat="44.62183" lon="5.79585">
        <ele>1563.2</ele>
        <time>2023-05-18T11:28:45Z</time>
      </trkpt>
      <trkpt lat="44.62183" lon="5.79587">
        <ele>1563.2</ele>
        <time>2023-05-18T11:28:46Z</time>
      </trkpt>
      <trkpt lat="44.62183" lon="5.79589">
        <ele>1563.4</ele>
        <time>2023-05-18T11:28:47Z</time>
      </trkpt>
      <trkpt lat="44.62183" lon="5.7959">
        <ele>1563.4</ele>
        <time>2023-05-18T11:28:48Z</time>
      </trkpt>
      <trkpt lat="44.62183" lon="5.79592">
        <ele>1563.4</ele>
        <time>2023-05-18T11:28:49Z</time>
      </trkpt>
      <trkpt lat="44.62183" lon="5.79594">
        <ele>1563.6</ele>
        <time>2023-05-18T11:28:50Z</time>
      </trkpt>
      <trkpt lat="44.62183" lon="5.79596">
        <ele>1563.6</ele>
        <time>2023-05-18T11:28:51Z</time>
      </trkpt>
      <trkpt lat="44.62183" lon="5.79598">
        <ele>1563.8</ele>
        <time>2023-05-18T11:28:52Z</time>
      </trkpt>
      <trkpt lat="44.62183" lon="5.79599">
        <ele>1564</ele>
        <time>2023-05-18T11:28:53Z</time>
      </trkpt>
      <trkpt lat="44.62183" lon="5.79601">
        <ele>1564</ele>
        <time>2023-05-18T11:28:54Z</time>
      </trkpt>
      <trkpt lat="44.62183" lon="5.79603">
        <ele>1564.2</ele>
        <time>2023-05-18T11:28:55Z</time>
      </trkpt>
      <trkpt lat="44.62183" lon="5.79605">
        <ele>1564.4</ele>
        <time>2023-05-18T11:28:56Z</time>
      </trkpt>
      <trkpt lat="44.62183" lon="5.79607">
        <ele>1564.6</ele>
        <time>2023-05-18T11:28:57Z</time>
      </trkpt>
      <trkpt lat="44.62183" lon="5.79608">
        <ele>1564.6</ele>
        <time>2023-05-18T11:28:58Z</time>
      </trkpt>
      <trkpt lat="44.62183" lon="5.79609">
        <ele>1565</ele>
        <time>2023-05-18T11:28:59Z</time>
      </trkpt>
      <trkpt lat="44.62184" lon="5.79611">
        <ele>1565.2</ele>
        <time>2023-05-18T11:29:00Z</time>
      </trkpt>
      <trkpt lat="44.62184" lon="5.79613">
        <ele>1565.4</ele>
        <time>2023-05-18T11:29:01Z</time>
      </trkpt>
      <trkpt lat="44.62185" lon="5.79614">
        <ele>1565.6</ele>
        <time>2023-05-18T11:29:02Z</time>
      </trkpt>
      <trkpt lat="44.62186" lon="5.79615">
        <ele>1565.8</ele>
        <time>2023-05-18T11:29:03Z</time>
      </trkpt>
      <trkpt lat="44.62186" lon="5.79617">
        <ele>1566</ele>
        <time>2023-05-18T11:29:04Z</time>
      </trkpt>
      <trkpt lat="44.62186" lon="5.79619">
        <ele>1566</ele>
        <time>2023-05-18T11:29:05Z</time>
      </trkpt>
      <trkpt lat="44.62187" lon="5.7962">
        <ele>1566.4</ele>
        <time>2023-05-18T11:29:06Z</time>
      </trkpt>
      <trkpt lat="44.62187" lon="5.79621">
        <ele>1566.4</ele>
        <time>2023-05-18T11:29:07Z</time>
      </trkpt>
      <trkpt lat="44.62188" lon="5.79622">
        <ele>1566.6</ele>
        <time>2023-05-18T11:29:08Z</time>
      </trkpt>
      <trkpt lat="44.62189" lon="5.79624">
        <ele>1566.6</ele>
        <time>2023-05-18T11:29:09Z</time>
      </trkpt>
      <trkpt lat="44.62189" lon="5.79625">
        <ele>1567</ele>
        <time>2023-05-18T11:29:10Z</time>
      </trkpt>
      <trkpt lat="44.62189" lon="5.79626">
        <ele>1567.2</ele>
        <time>2023-05-18T11:29:11Z</time>
      </trkpt>
      <trkpt lat="44.6219" lon="5.79627">
        <ele>1567.2</ele>
        <time>2023-05-18T11:29:12Z</time>
      </trkpt>
      <trkpt lat="44.6219" lon="5.79628">
        <ele>1567.6</ele>
        <time>2023-05-18T11:29:13Z</time>
      </trkpt>
      <trkpt lat="44.62191" lon="5.7963">
        <ele>1567.6</ele>
        <time>2023-05-18T11:29:14Z</time>
      </trkpt>
      <trkpt lat="44.62191" lon="5.7963">
        <ele>1567.8</ele>
        <time>2023-05-18T11:29:15Z</time>
      </trkpt>
      <trkpt lat="44.62192" lon="5.79631">
        <ele>1567.8</ele>
        <time>2023-05-18T11:29:16Z</time>
      </trkpt>
      <trkpt lat="44.62192" lon="5.79633">
        <ele>1568</ele>
        <time>2023-05-18T11:29:17Z</time>
      </trkpt>
      <trkpt lat="44.62192" lon="5.79634">
        <ele>1568</ele>
        <time>2023-05-18T11:29:18Z</time>
      </trkpt>
      <trkpt lat="44.62193" lon="5.79636">
        <ele>1568.2</ele>
        <time>2023-05-18T11:29:19Z</time>
      </trkpt>
      <trkpt lat="44.62194" lon="5.79638">
        <ele>1568.2</ele>
        <time>2023-05-18T11:29:20Z</time>
      </trkpt>
      <trkpt lat="44.62194" lon="5.7964">
        <ele>1568.4</ele>
        <time>2023-05-18T11:29:21Z</time>
      </trkpt>
      <trkpt lat="44.62194" lon="5.79642">
        <ele>1568.6</ele>
        <time>2023-05-18T11:29:22Z</time>
      </trkpt>
      <trkpt lat="44.62195" lon="5.79644">
        <ele>1568.6</ele>
        <time>2023-05-18T11:29:23Z</time>
      </trkpt>
      <trkpt lat="44.62195" lon="5.79645">
        <ele>1568.6</ele>
        <time>2023-05-18T11:29:24Z</time>
      </trkpt>
      <trkpt lat="44.62195" lon="5.79647">
        <ele>1568.8</ele>
        <time>2023-05-18T11:29:25Z</time>
      </trkpt>
      <trkpt lat="44.62195" lon="5.79648">
        <ele>1568.8</ele>
        <time>2023-05-18T11:29:26Z</time>
      </trkpt>
      <trkpt lat="44.62195" lon="5.7965">
        <ele>1568.8</ele>
        <time>2023-05-18T11:29:27Z</time>
      </trkpt>
      <trkpt lat="44.62196" lon="5.79652">
        <ele>1569</ele>
        <time>2023-05-18T11:29:28Z</time>
      </trkpt>
      <trkpt lat="44.62196" lon="5.79653">
        <ele>1569</ele>
        <time>2023-05-18T11:29:29Z</time>
      </trkpt>
      <trkpt lat="44.62196" lon="5.79655">
        <ele>1569.2</ele>
        <time>2023-05-18T11:29:30Z</time>
      </trkpt>
      <trkpt lat="44.62196" lon="5.79657">
        <ele>1569.4</ele>
        <time>2023-05-18T11:29:31Z</time>
      </trkpt>
      <trkpt lat="44.62195" lon="5.79659">
        <ele>1569.6</ele>
        <time>2023-05-18T11:29:32Z</time>
      </trkpt>
      <trkpt lat="44.62195" lon="5.7966">
        <ele>1569.8</ele>
        <time>2023-05-18T11:29:33Z</time>
      </trkpt>
      <trkpt lat="44.62196" lon="5.79662">
        <ele>1569.8</ele>
        <time>2023-05-18T11:29:34Z</time>
      </trkpt>
      <trkpt lat="44.62196" lon="5.79665">
        <ele>1570</ele>
        <time>2023-05-18T11:29:35Z</time>
      </trkpt>
      <trkpt lat="44.62197" lon="5.79666">
        <ele>1570.2</ele>
        <time>2023-05-18T11:29:36Z</time>
      </trkpt>
      <trkpt lat="44.62197" lon="5.79667">
        <ele>1570.4</ele>
        <time>2023-05-18T11:29:37Z</time>
      </trkpt>
      <trkpt lat="44.62198" lon="5.79669">
        <ele>1570.4</ele>
        <time>2023-05-18T11:29:38Z</time>
      </trkpt>
      <trkpt lat="44.62197" lon="5.79671">
        <ele>1570.6</ele>
        <time>2023-05-18T11:29:39Z</time>
      </trkpt>
      <trkpt lat="44.62198" lon="5.79673">
        <ele>1571</ele>
        <time>2023-05-18T11:29:40Z</time>
      </trkpt>
      <trkpt lat="44.62198" lon="5.79674">
        <ele>1571</ele>
        <time>2023-05-18T11:29:41Z</time>
      </trkpt>
      <trkpt lat="44.62197" lon="5.79675">
        <ele>1571.4</ele>
        <time>2023-05-18T11:29:42Z</time>
      </trkpt>
      <trkpt lat="44.62197" lon="5.79676">
        <ele>1571.4</ele>
        <time>2023-05-18T11:29:43Z</time>
      </trkpt>
      <trkpt lat="44.62197" lon="5.79678">
        <ele>1571.6</ele>
        <time>2023-05-18T11:29:44Z</time>
      </trkpt>
      <trkpt lat="44.62196" lon="5.79679">
        <ele>1571.8</ele>
        <time>2023-05-18T11:29:45Z</time>
      </trkpt>
      <trkpt lat="44.62195" lon="5.79681">
        <ele>1572</ele>
        <time>2023-05-18T11:29:46Z</time>
      </trkpt>
      <trkpt lat="44.62195" lon="5.79683">
        <ele>1572</ele>
        <time>2023-05-18T11:29:47Z</time>
      </trkpt>
      <trkpt lat="44.62195" lon="5.79685">
        <ele>1572.2</ele>
        <time>2023-05-18T11:29:48Z</time>
      </trkpt>
      <trkpt lat="44.62194" lon="5.79686">
        <ele>1572.4</ele>
        <time>2023-05-18T11:29:49Z</time>
      </trkpt>
      <trkpt lat="44.62194" lon="5.79688">
        <ele>1572.6</ele>
        <time>2023-05-18T11:29:50Z</time>
      </trkpt>
      <trkpt lat="44.62193" lon="5.79689">
        <ele>1572.8</ele>
        <time>2023-05-18T11:29:51Z</time>
      </trkpt>
      <trkpt lat="44.62192" lon="5.79691">
        <ele>1573</ele>
        <time>2023-05-18T11:29:52Z</time>
      </trkpt>
      <trkpt lat="44.62192" lon="5.79693">
        <ele>1573.2</ele>
        <time>2023-05-18T11:29:53Z</time>
      </trkpt>
      <trkpt lat="44.62191" lon="5.79695">
        <ele>1573.2</ele>
        <time>2023-05-18T11:29:54Z</time>
      </trkpt>
      <trkpt lat="44.62191" lon="5.79696">
        <ele>1573.4</ele>
        <time>2023-05-18T11:29:55Z</time>
      </trkpt>
      <trkpt lat="44.62191" lon="5.79698">
        <ele>1573.6</ele>
        <time>2023-05-18T11:29:56Z</time>
      </trkpt>
      <trkpt lat="44.6219" lon="5.797">
        <ele>1573.6</ele>
        <time>2023-05-18T11:29:57Z</time>
      </trkpt>
      <trkpt lat="44.6219" lon="5.79702">
        <ele>1573.6</ele>
        <time>2023-05-18T11:29:58Z</time>
      </trkpt>
      <trkpt lat="44.6219" lon="5.79703">
        <ele>1573.6</ele>
        <time>2023-05-18T11:29:59Z</time>
      </trkpt>
      <trkpt lat="44.6219" lon="5.79705">
        <ele>1573.8</ele>
        <time>2023-05-18T11:30:00Z</time>
      </trkpt>
      <trkpt lat="44.62189" lon="5.79707">
        <ele>1573.8</ele>
        <time>2023-05-18T11:30:01Z</time>
      </trkpt>
      <trkpt lat="44.62189" lon="5.79709">
        <ele>1574</ele>
        <time>2023-05-18T11:30:02Z</time>
      </trkpt>
      <trkpt lat="44.62188" lon="5.7971">
        <ele>1574</ele>
        <time>2023-05-18T11:30:03Z</time>
      </trkpt>
      <trkpt lat="44.62188" lon="5.79712">
        <ele>1574</ele>
        <time>2023-05-18T11:30:04Z</time>
      </trkpt>
      <trkpt lat="44.62188" lon="5.79714">
        <ele>1574.2</ele>
        <time>2023-05-18T11:30:05Z</time>
      </trkpt>
      <trkpt lat="44.62188" lon="5.79715">
        <ele>1574.4</ele>
        <time>2023-05-18T11:30:06Z</time>
      </trkpt>
      <trkpt lat="44.62187" lon="5.79717">
        <ele>1574.6</ele>
        <time>2023-05-18T11:30:07Z</time>
      </trkpt>
      <trkpt lat="44.62187" lon="5.79719">
        <ele>1574.6</ele>
        <time>2023-05-18T11:30:08Z</time>
      </trkpt>
      <trkpt lat="44.62187" lon="5.79721">
        <ele>1574.6</ele>
        <time>2023-05-18T11:30:09Z</time>
      </trkpt>
      <trkpt lat="44.62187" lon="5.79722">
        <ele>1574.6</ele>
        <time>2023-05-18T11:30:10Z</time>
      </trkpt>
      <trkpt lat="44.62186" lon="5.79724">
        <ele>1574.8</ele>
        <time>2023-05-18T11:30:11Z</time>
      </trkpt>
      <trkpt lat="44.62186" lon="5.79725">
        <ele>1575</ele>
        <time>2023-05-18T11:30:12Z</time>
      </trkpt>
      <trkpt lat="44.62185" lon="5.79726">
        <ele>1575.2</ele>
        <time>2023-05-18T11:30:13Z</time>
      </trkpt>
      <trkpt lat="44.62184" lon="5.79727">
        <ele>1575.2</ele>
        <time>2023-05-18T11:30:14Z</time>
      </trkpt>
      <trkpt lat="44.62183" lon="5.79729">
        <ele>1575.4</ele>
        <time>2023-05-18T11:30:15Z</time>
      </trkpt>
      <trkpt lat="44.62183" lon="5.7973">
        <ele>1575.6</ele>
        <time>2023-05-18T11:30:16Z</time>
      </trkpt>
      <trkpt lat="44.62182" lon="5.79732">
        <ele>1575.6</ele>
        <time>2023-05-18T11:30:17Z</time>
      </trkpt>
      <trkpt lat="44.62182" lon="5.79733">
        <ele>1575.8</ele>
        <time>2023-05-18T11:30:18Z</time>
      </trkpt>
      <trkpt lat="44.62181" lon="5.79735">
        <ele>1575.8</ele>
        <time>2023-05-18T11:30:19Z</time>
      </trkpt>
      <trkpt lat="44.6218" lon="5.79736">
        <ele>1576</ele>
        <time>2023-05-18T11:30:20Z</time>
      </trkpt>
      <trkpt lat="44.62179" lon="5.79737">
        <ele>1576.2</ele>
        <time>2023-05-18T11:30:21Z</time>
      </trkpt>
      <trkpt lat="44.62179" lon="5.79739">
        <ele>1576.4</ele>
        <time>2023-05-18T11:30:22Z</time>
      </trkpt>
      <trkpt lat="44.62178" lon="5.79741">
        <ele>1576.4</ele>
        <time>2023-05-18T11:30:23Z</time>
      </trkpt>
      <trkpt lat="44.62177" lon="5.79742">
        <ele>1576.4</ele>
        <time>2023-05-18T11:30:24Z</time>
      </trkpt>
      <trkpt lat="44.62177" lon="5.79743">
        <ele>1576.6</ele>
        <time>2023-05-18T11:30:25Z</time>
      </trkpt>
      <trkpt lat="44.62176" lon="5.79745">
        <ele>1576.6</ele>
        <time>2023-05-18T11:30:26Z</time>
      </trkpt>
      <trkpt lat="44.62175" lon="5.79747">
        <ele>1576.8</ele>
        <time>2023-05-18T11:30:27Z</time>
      </trkpt>
      <trkpt lat="44.62174" lon="5.79749">
        <ele>1576.8</ele>
        <time>2023-05-18T11:30:28Z</time>
      </trkpt>
      <trkpt lat="44.62173" lon="5.79751">
        <ele>1577</ele>
        <time>2023-05-18T11:30:29Z</time>
      </trkpt>
      <trkpt lat="44.62172" lon="5.79753">
        <ele>1577</ele>
        <time>2023-05-18T11:30:30Z</time>
      </trkpt>
      <trkpt lat="44.62172" lon="5.79754">
        <ele>1577.2</ele>
        <time>2023-05-18T11:30:31Z</time>
      </trkpt>
      <trkpt lat="44.62171" lon="5.79755">
        <ele>1577.2</ele>
        <time>2023-05-18T11:30:32Z</time>
      </trkpt>
      <trkpt lat="44.6217" lon="5.79757">
        <ele>1577.2</ele>
        <time>2023-05-18T11:30:33Z</time>
      </trkpt>
      <trkpt lat="44.62169" lon="5.79758">
        <ele>1577.4</ele>
        <time>2023-05-18T11:30:34Z</time>
      </trkpt>
      <trkpt lat="44.62168" lon="5.7976">
        <ele>1577.4</ele>
        <time>2023-05-18T11:30:35Z</time>
      </trkpt>
      <trkpt lat="44.62168" lon="5.79761">
        <ele>1577.4</ele>
        <time>2023-05-18T11:30:36Z</time>
      </trkpt>
      <trkpt lat="44.62167" lon="5.79762">
        <ele>1577.6</ele>
        <time>2023-05-18T11:30:37Z</time>
      </trkpt>
      <trkpt lat="44.62166" lon="5.79763">
        <ele>1577.6</ele>
        <time>2023-05-18T11:30:38Z</time>
      </trkpt>
      <trkpt lat="44.62166" lon="5.79765">
        <ele>1577.6</ele>
        <time>2023-05-18T11:30:39Z</time>
      </trkpt>
      <trkpt lat="44.62165" lon="5.79766">
        <ele>1577.8</ele>
        <time>2023-05-18T11:30:40Z</time>
      </trkpt>
      <trkpt lat="44.62165" lon="5.79768">
        <ele>1578</ele>
        <time>2023-05-18T11:30:41Z</time>
      </trkpt>
      <trkpt lat="44.62164" lon="5.79769">
        <ele>1578</ele>
        <time>2023-05-18T11:30:42Z</time>
      </trkpt>
      <trkpt lat="44.62164" lon="5.79771">
        <ele>1578.2</ele>
        <time>2023-05-18T11:30:43Z</time>
      </trkpt>
      <trkpt lat="44.62163" lon="5.79772">
        <ele>1578.4</ele>
        <time>2023-05-18T11:30:44Z</time>
      </trkpt>
      <trkpt lat="44.62162" lon="5.79773">
        <ele>1578.6</ele>
        <time>2023-05-18T11:30:45Z</time>
      </trkpt>
      <trkpt lat="44.62162" lon="5.79774">
        <ele>1579</ele>
        <time>2023-05-18T11:30:46Z</time>
      </trkpt>
      <trkpt lat="44.62161" lon="5.79775">
        <ele>1579.2</ele>
        <time>2023-05-18T11:30:47Z</time>
      </trkpt>
      <trkpt lat="44.6216" lon="5.79776">
        <ele>1579.2</ele>
        <time>2023-05-18T11:30:48Z</time>
      </trkpt>
      <trkpt lat="44.62159" lon="5.79777">
        <ele>1579.4</ele>
        <time>2023-05-18T11:30:49Z</time>
      </trkpt>
      <trkpt lat="44.62159" lon="5.79778">
        <ele>1579.4</ele>
        <time>2023-05-18T11:30:50Z</time>
      </trkpt>
      <trkpt lat="44.62158" lon="5.7978">
        <ele>1579.8</ele>
        <time>2023-05-18T11:30:51Z</time>
      </trkpt>
      <trkpt lat="44.62158" lon="5.79781">
        <ele>1579.6</ele>
        <time>2023-05-18T11:30:52Z</time>
      </trkpt>
      <trkpt lat="44.62157" lon="5.79782">
        <ele>1579.8</ele>
        <time>2023-05-18T11:30:53Z</time>
      </trkpt>
      <trkpt lat="44.62156" lon="5.79784">
        <ele>1580.2</ele>
        <time>2023-05-18T11:30:54Z</time>
      </trkpt>
      <trkpt lat="44.62156" lon="5.79785">
        <ele>1580.4</ele>
        <time>2023-05-18T11:30:55Z</time>
      </trkpt>
      <trkpt lat="44.62155" lon="5.79786">
        <ele>1580.6</ele>
        <time>2023-05-18T11:30:56Z</time>
      </trkpt>
      <trkpt lat="44.62154" lon="5.79787">
        <ele>1580.8</ele>
        <time>2023-05-18T11:30:57Z</time>
      </trkpt>
      <trkpt lat="44.62153" lon="5.79788">
        <ele>1581</ele>
        <time>2023-05-18T11:30:58Z</time>
      </trkpt>
      <trkpt lat="44.62153" lon="5.79789">
        <ele>1581.4</ele>
        <time>2023-05-18T11:30:59Z</time>
      </trkpt>
      <trkpt lat="44.62152" lon="5.79791">
        <ele>1581.4</ele>
        <time>2023-05-18T11:31:00Z</time>
      </trkpt>
      <trkpt lat="44.62151" lon="5.79792">
        <ele>1581.6</ele>
        <time>2023-05-18T11:31:01Z</time>
      </trkpt>
      <trkpt lat="44.6215" lon="5.79794">
        <ele>1581.8</ele>
        <time>2023-05-18T11:31:02Z</time>
      </trkpt>
      <trkpt lat="44.6215" lon="5.79795">
        <ele>1582</ele>
        <time>2023-05-18T11:31:03Z</time>
      </trkpt>
      <trkpt lat="44.62149" lon="5.79796">
        <ele>1582</ele>
        <time>2023-05-18T11:31:04Z</time>
      </trkpt>
      <trkpt lat="44.62148" lon="5.79797">
        <ele>1582</ele>
        <time>2023-05-18T11:31:05Z</time>
      </trkpt>
      <trkpt lat="44.62148" lon="5.79798">
        <ele>1582</ele>
        <time>2023-05-18T11:31:06Z</time>
      </trkpt>
      <trkpt lat="44.62147" lon="5.798">
        <ele>1582.2</ele>
        <time>2023-05-18T11:31:07Z</time>
      </trkpt>
      <trkpt lat="44.62146" lon="5.79801">
        <ele>1582.2</ele>
        <time>2023-05-18T11:31:08Z</time>
      </trkpt>
      <trkpt lat="44.62146" lon="5.79802">
        <ele>1582.2</ele>
        <time>2023-05-18T11:31:09Z</time>
      </trkpt>
      <trkpt lat="44.62145" lon="5.79804">
        <ele>1582.4</ele>
        <time>2023-05-18T11:31:10Z</time>
      </trkpt>
      <trkpt lat="44.62144" lon="5.79805">
        <ele>1582.6</ele>
        <time>2023-05-18T11:31:11Z</time>
      </trkpt>
      <trkpt lat="44.62143" lon="5.79806">
        <ele>1582.8</ele>
        <time>2023-05-18T11:31:12Z</time>
      </trkpt>
      <trkpt lat="44.62143" lon="5.79807">
        <ele>1582.8</ele>
        <time>2023-05-18T11:31:13Z</time>
      </trkpt>
      <trkpt lat="44.62142" lon="5.79808">
        <ele>1583</ele>
        <time>2023-05-18T11:31:14Z</time>
      </trkpt>
      <trkpt lat="44.62141" lon="5.7981">
        <ele>1583</ele>
        <time>2023-05-18T11:31:15Z</time>
      </trkpt>
      <trkpt lat="44.6214" lon="5.79811">
        <ele>1583.2</ele>
        <time>2023-05-18T11:31:16Z</time>
      </trkpt>
      <trkpt lat="44.62139" lon="5.79812">
        <ele>1583.4</ele>
        <time>2023-05-18T11:31:17Z</time>
      </trkpt>
      <trkpt lat="44.62139" lon="5.79813">
        <ele>1583.4</ele>
        <time>2023-05-18T11:31:18Z</time>
      </trkpt>
      <trkpt lat="44.62139" lon="5.79815">
        <ele>1583.6</ele>
        <time>2023-05-18T11:31:19Z</time>
      </trkpt>
      <trkpt lat="44.62138" lon="5.79816">
        <ele>1583.8</ele>
        <time>2023-05-18T11:31:20Z</time>
      </trkpt>
      <trkpt lat="44.62138" lon="5.79818">
        <ele>1584</ele>
        <time>2023-05-18T11:31:21Z</time>
      </trkpt>
      <trkpt lat="44.62137" lon="5.79819">
        <ele>1584</ele>
        <time>2023-05-18T11:31:22Z</time>
      </trkpt>
      <trkpt lat="44.62136" lon="5.7982">
        <ele>1584.2</ele>
        <time>2023-05-18T11:31:23Z</time>
      </trkpt>
      <trkpt lat="44.62136" lon="5.79821">
        <ele>1584.2</ele>
        <time>2023-05-18T11:31:24Z</time>
      </trkpt>
      <trkpt lat="44.62135" lon="5.79823">
        <ele>1584.4</ele>
        <time>2023-05-18T11:31:25Z</time>
      </trkpt>
      <trkpt lat="44.62134" lon="5.79824">
        <ele>1584.6</ele>
        <time>2023-05-18T11:31:26Z</time>
      </trkpt>
      <trkpt lat="44.62133" lon="5.79826">
        <ele>1584.6</ele>
        <time>2023-05-18T11:31:27Z</time>
      </trkpt>
      <trkpt lat="44.62133" lon="5.79827">
        <ele>1584.8</ele>
        <time>2023-05-18T11:31:28Z</time>
      </trkpt>
      <trkpt lat="44.62132" lon="5.79828">
        <ele>1584.8</ele>
        <time>2023-05-18T11:31:29Z</time>
      </trkpt>
      <trkpt lat="44.62131" lon="5.7983">
        <ele>1585</ele>
        <time>2023-05-18T11:31:30Z</time>
      </trkpt>
      <trkpt lat="44.6213" lon="5.79831">
        <ele>1585.2</ele>
        <time>2023-05-18T11:31:31Z</time>
      </trkpt>
      <trkpt lat="44.62129" lon="5.79833">
        <ele>1585.2</ele>
        <time>2023-05-18T11:31:32Z</time>
      </trkpt>
      <trkpt lat="44.62129" lon="5.79834">
        <ele>1585.4</ele>
        <time>2023-05-18T11:31:33Z</time>
      </trkpt>
      <trkpt lat="44.62128" lon="5.79835">
        <ele>1585.6</ele>
        <time>2023-05-18T11:31:34Z</time>
      </trkpt>
      <trkpt lat="44.62127" lon="5.79836">
        <ele>1585.8</ele>
        <time>2023-05-18T11:31:35Z</time>
      </trkpt>
      <trkpt lat="44.62126" lon="5.79837">
        <ele>1586</ele>
        <time>2023-05-18T11:31:36Z</time>
      </trkpt>
      <trkpt lat="44.62125" lon="5.79838">
        <ele>1586.2</ele>
        <time>2023-05-18T11:31:37Z</time>
      </trkpt>
      <trkpt lat="44.62124" lon="5.79839">
        <ele>1586.2</ele>
        <time>2023-05-18T11:31:38Z</time>
      </trkpt>
      <trkpt lat="44.62123" lon="5.7984">
        <ele>1586.4</ele>
        <time>2023-05-18T11:31:39Z</time>
      </trkpt>
      <trkpt lat="44.62123" lon="5.7984">
        <ele>1586.6</ele>
        <time>2023-05-18T11:31:40Z</time>
      </trkpt>
      <trkpt lat="44.62121" lon="5.79842">
        <ele>1586.8</ele>
        <time>2023-05-18T11:31:41Z</time>
      </trkpt>
      <trkpt lat="44.6212" lon="5.79843">
        <ele>1587</ele>
        <time>2023-05-18T11:31:42Z</time>
      </trkpt>
      <trkpt lat="44.6212" lon="5.79844">
        <ele>1587.2</ele>
        <time>2023-05-18T11:31:43Z</time>
      </trkpt>
      <trkpt lat="44.62119" lon="5.79845">
        <ele>1587.2</ele>
        <time>2023-05-18T11:31:44Z</time>
      </trkpt>
      <trkpt lat="44.62118" lon="5.79846">
        <ele>1587.4</ele>
        <time>2023-05-18T11:31:45Z</time>
      </trkpt>
      <trkpt lat="44.62117" lon="5.79846">
        <ele>1587.6</ele>
        <time>2023-05-18T11:31:46Z</time>
      </trkpt>
      <trkpt lat="44.62116" lon="5.79847">
        <ele>1587.8</ele>
        <time>2023-05-18T11:31:47Z</time>
      </trkpt>
      <trkpt lat="44.62115" lon="5.79847">
        <ele>1588</ele>
        <time>2023-05-18T11:31:48Z</time>
      </trkpt>
      <trkpt lat="44.62114" lon="5.79848">
        <ele>1588</ele>
        <time>2023-05-18T11:31:49Z</time>
      </trkpt>
      <trkpt lat="44.62113" lon="5.79849">
        <ele>1588.2</ele>
        <time>2023-05-18T11:31:50Z</time>
      </trkpt>
      <trkpt lat="44.62112" lon="5.7985">
        <ele>1588.4</ele>
        <time>2023-05-18T11:31:51Z</time>
      </trkpt>
      <trkpt lat="44.62111" lon="5.79852">
        <ele>1588.8</ele>
        <time>2023-05-18T11:31:52Z</time>
      </trkpt>
      <trkpt lat="44.6211" lon="5.79853">
        <ele>1589</ele>
        <time>2023-05-18T11:31:53Z</time>
      </trkpt>
      <trkpt lat="44.62109" lon="5.79854">
        <ele>1589.4</ele>
        <time>2023-05-18T11:31:54Z</time>
      </trkpt>
      <trkpt lat="44.62108" lon="5.79855">
        <ele>1589.6</ele>
        <time>2023-05-18T11:31:55Z</time>
      </trkpt>
      <trkpt lat="44.62107" lon="5.79856">
        <ele>1589.6</ele>
        <time>2023-05-18T11:31:56Z</time>
      </trkpt>
      <trkpt lat="44.62106" lon="5.79857">
        <ele>1589.6</ele>
        <time>2023-05-18T11:31:57Z</time>
      </trkpt>
      <trkpt lat="44.62105" lon="5.79858">
        <ele>1589.8</ele>
        <time>2023-05-18T11:31:58Z</time>
      </trkpt>
      <trkpt lat="44.62104" lon="5.79859">
        <ele>1590</ele>
        <time>2023-05-18T11:31:59Z</time>
      </trkpt>
      <trkpt lat="44.62104" lon="5.7986">
        <ele>1590</ele>
        <time>2023-05-18T11:32:00Z</time>
      </trkpt>
      <trkpt lat="44.62103" lon="5.79861">
        <ele>1590.4</ele>
        <time>2023-05-18T11:32:01Z</time>
      </trkpt>
      <trkpt lat="44.62102" lon="5.79862">
        <ele>1590.6</ele>
        <time>2023-05-18T11:32:02Z</time>
      </trkpt>
      <trkpt lat="44.62102" lon="5.79863">
        <ele>1590.8</ele>
        <time>2023-05-18T11:32:03Z</time>
      </trkpt>
      <trkpt lat="44.62102" lon="5.79864">
        <ele>1591</ele>
        <time>2023-05-18T11:32:04Z</time>
      </trkpt>
      <trkpt lat="44.62102" lon="5.79866">
        <ele>1591.2</ele>
        <time>2023-05-18T11:32:05Z</time>
      </trkpt>
      <trkpt lat="44.62102" lon="5.79867">
        <ele>1591.4</ele>
        <time>2023-05-18T11:32:06Z</time>
      </trkpt>
      <trkpt lat="44.62103" lon="5.79867">
        <ele>1591.4</ele>
        <time>2023-05-18T11:32:07Z</time>
      </trkpt>
      <trkpt lat="44.62104" lon="5.79867">
        <ele>1591.8</ele>
        <time>2023-05-18T11:32:08Z</time>
      </trkpt>
      <trkpt lat="44.62105" lon="5.79867">
        <ele>1592</ele>
        <time>2023-05-18T11:32:09Z</time>
      </trkpt>
      <trkpt lat="44.62107" lon="5.79867">
        <ele>1592.2</ele>
        <time>2023-05-18T11:32:10Z</time>
      </trkpt>
      <trkpt lat="44.62108" lon="5.79867">
        <ele>1592.4</ele>
        <time>2023-05-18T11:32:11Z</time>
      </trkpt>
      <trkpt lat="44.62109" lon="5.79866">
        <ele>1592.6</ele>
        <time>2023-05-18T11:32:12Z</time>
      </trkpt>
      <trkpt lat="44.6211" lon="5.79866">
        <ele>1592.6</ele>
        <time>2023-05-18T11:32:13Z</time>
      </trkpt>
      <trkpt lat="44.62111" lon="5.79865">
        <ele>1592.6</ele>
        <time>2023-05-18T11:32:14Z</time>
      </trkpt>
      <trkpt lat="44.62112" lon="5.79864">
        <ele>1592.8</ele>
        <time>2023-05-18T11:32:15Z</time>
      </trkpt>
      <trkpt lat="44.62113" lon="5.79863">
        <ele>1592.8</ele>
        <time>2023-05-18T11:32:16Z</time>
      </trkpt>
      <trkpt lat="44.62115" lon="5.79862">
        <ele>1593.2</ele>
        <time>2023-05-18T11:32:17Z</time>
      </trkpt>
      <trkpt lat="44.62116" lon="5.79861">
        <ele>1593.2</ele>
        <time>2023-05-18T11:32:18Z</time>
      </trkpt>
      <trkpt lat="44.62116" lon="5.7986">
        <ele>1593.4</ele>
        <time>2023-05-18T11:32:19Z</time>
      </trkpt>
      <trkpt lat="44.62118" lon="5.7986">
        <ele>1593.4</ele>
        <time>2023-05-18T11:32:20Z</time>
      </trkpt>
      <trkpt lat="44.62119" lon="5.79859">
        <ele>1593.4</ele>
        <time>2023-05-18T11:32:21Z</time>
      </trkpt>
      <trkpt lat="44.6212" lon="5.79859">
        <ele>1593.6</ele>
        <time>2023-05-18T11:32:22Z</time>
      </trkpt>
      <trkpt lat="44.62121" lon="5.79858">
        <ele>1593.8</ele>
        <time>2023-05-18T11:32:23Z</time>
      </trkpt>
      <trkpt lat="44.62122" lon="5.79858">
        <ele>1594</ele>
        <time>2023-05-18T11:32:24Z</time>
      </trkpt>
      <trkpt lat="44.62124" lon="5.79857">
        <ele>1594</ele>
        <time>2023-05-18T11:32:25Z</time>
      </trkpt>
      <trkpt lat="44.62125" lon="5.79857">
        <ele>1594.2</ele>
        <time>2023-05-18T11:32:26Z</time>
      </trkpt>
      <trkpt lat="44.62126" lon="5.79857">
        <ele>1594.2</ele>
        <time>2023-05-18T11:32:27Z</time>
      </trkpt>
      <trkpt lat="44.62127" lon="5.79856">
        <ele>1594.4</ele>
        <time>2023-05-18T11:32:28Z</time>
      </trkpt>
      <trkpt lat="44.62128" lon="5.79856">
        <ele>1594.6</ele>
        <time>2023-05-18T11:32:29Z</time>
      </trkpt>
      <trkpt lat="44.62129" lon="5.79855">
        <ele>1594.6</ele>
        <time>2023-05-18T11:32:30Z</time>
      </trkpt>
      <trkpt lat="44.62131" lon="5.79854">
        <ele>1594.8</ele>
        <time>2023-05-18T11:32:31Z</time>
      </trkpt>
      <trkpt lat="44.62132" lon="5.79853">
        <ele>1594.8</ele>
        <time>2023-05-18T11:32:32Z</time>
      </trkpt>
      <trkpt lat="44.62133" lon="5.79853">
        <ele>1595</ele>
        <time>2023-05-18T11:32:33Z</time>
      </trkpt>
      <trkpt lat="44.62134" lon="5.79852">
        <ele>1595.2</ele>
        <time>2023-05-18T11:32:34Z</time>
      </trkpt>
      <trkpt lat="44.62136" lon="5.79852">
        <ele>1595.4</ele>
        <time>2023-05-18T11:32:35Z</time>
      </trkpt>
      <trkpt lat="44.62137" lon="5.79851">
        <ele>1595.6</ele>
        <time>2023-05-18T11:32:36Z</time>
      </trkpt>
      <trkpt lat="44.62139" lon="5.7985">
        <ele>1595.8</ele>
        <time>2023-05-18T11:32:37Z</time>
      </trkpt>
      <trkpt lat="44.6214" lon="5.7985">
        <ele>1596</ele>
        <time>2023-05-18T11:32:38Z</time>
      </trkpt>
      <trkpt lat="44.62141" lon="5.79849">
        <ele>1596.2</ele>
        <time>2023-05-18T11:32:39Z</time>
      </trkpt>
      <trkpt lat="44.62142" lon="5.79849">
        <ele>1596.4</ele>
        <time>2023-05-18T11:32:40Z</time>
      </trkpt>
      <trkpt lat="44.62144" lon="5.79848">
        <ele>1596.4</ele>
        <time>2023-05-18T11:32:41Z</time>
      </trkpt>
      <trkpt lat="44.62145" lon="5.79848">
        <ele>1596.6</ele>
        <time>2023-05-18T11:32:42Z</time>
      </trkpt>
      <trkpt lat="44.62146" lon="5.79847">
        <ele>1596.8</ele>
        <time>2023-05-18T11:32:43Z</time>
      </trkpt>
      <trkpt lat="44.62146" lon="5.79846">
        <ele>1596.8</ele>
        <time>2023-05-18T11:32:44Z</time>
      </trkpt>
      <trkpt lat="44.62147" lon="5.79845">
        <ele>1596.8</ele>
        <time>2023-05-18T11:32:45Z</time>
      </trkpt>
      <trkpt lat="44.62148" lon="5.79845">
        <ele>1597</ele>
        <time>2023-05-18T11:32:46Z</time>
      </trkpt>
      <trkpt lat="44.6215" lon="5.79844">
        <ele>1597.2</ele>
        <time>2023-05-18T11:32:47Z</time>
      </trkpt>
      <trkpt lat="44.62151" lon="5.79844">
        <ele>1597.4</ele>
        <time>2023-05-18T11:32:48Z</time>
      </trkpt>
      <trkpt lat="44.62152" lon="5.79843">
        <ele>1597.4</ele>
        <time>2023-05-18T11:32:49Z</time>
      </trkpt>
      <trkpt lat="44.62153" lon="5.79842">
        <ele>1597.6</ele>
        <time>2023-05-18T11:32:50Z</time>
      </trkpt>
      <trkpt lat="44.62154" lon="5.79842">
        <ele>1597.8</ele>
        <time>2023-05-18T11:32:51Z</time>
      </trkpt>
      <trkpt lat="44.62155" lon="5.79841">
        <ele>1597.8</ele>
        <time>2023-05-18T11:32:52Z</time>
      </trkpt>
      <trkpt lat="44.62156" lon="5.7984">
        <ele>1598</ele>
        <time>2023-05-18T11:32:53Z</time>
      </trkpt>
      <trkpt lat="44.62157" lon="5.79839">
        <ele>1598</ele>
        <time>2023-05-18T11:32:54Z</time>
      </trkpt>
      <trkpt lat="44.62158" lon="5.79839">
        <ele>1598.4</ele>
        <time>2023-05-18T11:32:55Z</time>
      </trkpt>
      <trkpt lat="44.62159" lon="5.79838">
        <ele>1598.6</ele>
        <time>2023-05-18T11:32:56Z</time>
      </trkpt>
      <trkpt lat="44.6216" lon="5.79837">
        <ele>1598.8</ele>
        <time>2023-05-18T11:32:57Z</time>
      </trkpt>
      <trkpt lat="44.62161" lon="5.79837">
        <ele>1599</ele>
        <time>2023-05-18T11:32:58Z</time>
      </trkpt>
      <trkpt lat="44.62161" lon="5.79836">
        <ele>1599.2</ele>
        <time>2023-05-18T11:32:59Z</time>
      </trkpt>
      <trkpt lat="44.62162" lon="5.79835">
        <ele>1599.6</ele>
        <time>2023-05-18T11:33:00Z</time>
      </trkpt>
      <trkpt lat="44.62163" lon="5.79834">
        <ele>1599.8</ele>
        <time>2023-05-18T11:33:01Z</time>
      </trkpt>
      <trkpt lat="44.62164" lon="5.79834">
        <ele>1600</ele>
        <time>2023-05-18T11:33:02Z</time>
      </trkpt>
      <trkpt lat="44.62165" lon="5.79833">
        <ele>1600.2</ele>
        <time>2023-05-18T11:33:03Z</time>
      </trkpt>
      <trkpt lat="44.62166" lon="5.79832">
        <ele>1600.4</ele>
        <time>2023-05-18T11:33:04Z</time>
      </trkpt>
      <trkpt lat="44.62166" lon="5.79831">
        <ele>1600.6</ele>
        <time>2023-05-18T11:33:05Z</time>
      </trkpt>
      <trkpt lat="44.62167" lon="5.7983">
        <ele>1600.6</ele>
        <time>2023-05-18T11:33:06Z</time>
      </trkpt>
      <trkpt lat="44.62168" lon="5.79829">
        <ele>1600.8</ele>
        <time>2023-05-18T11:33:07Z</time>
      </trkpt>
      <trkpt lat="44.62169" lon="5.79828">
        <ele>1601</ele>
        <time>2023-05-18T11:33:08Z</time>
      </trkpt>
      <trkpt lat="44.62169" lon="5.79827">
        <ele>1601</ele>
        <time>2023-05-18T11:33:09Z</time>
      </trkpt>
      <trkpt lat="44.6217" lon="5.79827">
        <ele>1601.2</ele>
        <time>2023-05-18T11:33:10Z</time>
      </trkpt>
      <trkpt lat="44.62171" lon="5.79826">
        <ele>1601.4</ele>
        <time>2023-05-18T11:33:11Z</time>
      </trkpt>
      <trkpt lat="44.62172" lon="5.79825">
        <ele>1601.4</ele>
        <time>2023-05-18T11:33:12Z</time>
      </trkpt>
      <trkpt lat="44.62173" lon="5.79824">
        <ele>1601.6</ele>
        <time>2023-05-18T11:33:13Z</time>
      </trkpt>
      <trkpt lat="44.62173" lon="5.79823">
        <ele>1601.8</ele>
        <time>2023-05-18T11:33:14Z</time>
      </trkpt>
      <trkpt lat="44.62173" lon="5.79822">
        <ele>1602</ele>
        <time>2023-05-18T11:33:15Z</time>
      </trkpt>
      <trkpt lat="44.62174" lon="5.7982">
        <ele>1602.2</ele>
        <time>2023-05-18T11:33:16Z</time>
      </trkpt>
      <trkpt lat="44.62175" lon="5.79821">
        <ele>1602.4</ele>
        <time>2023-05-18T11:33:17Z</time>
      </trkpt>
      <trkpt lat="44.62176" lon="5.7982">
        <ele>1602.8</ele>
        <time>2023-05-18T11:33:18Z</time>
      </trkpt>
      <trkpt lat="44.62177" lon="5.79819">
        <ele>1602.8</ele>
        <time>2023-05-18T11:33:19Z</time>
      </trkpt>
      <trkpt lat="44.62178" lon="5.79819">
        <ele>1603</ele>
        <time>2023-05-18T11:33:20Z</time>
      </trkpt>
      <trkpt lat="44.62179" lon="5.79818">
        <ele>1603.2</ele>
        <time>2023-05-18T11:33:21Z</time>
      </trkpt>
      <trkpt lat="44.6218" lon="5.79817">
        <ele>1603.4</ele>
        <time>2023-05-18T11:33:22Z</time>
      </trkpt>
      <trkpt lat="44.6218" lon="5.79816">
        <ele>1603.6</ele>
        <time>2023-05-18T11:33:23Z</time>
      </trkpt>
      <trkpt lat="44.62181" lon="5.79815">
        <ele>1603.8</ele>
        <time>2023-05-18T11:33:24Z</time>
      </trkpt>
      <trkpt lat="44.62182" lon="5.79814">
        <ele>1604.2</ele>
        <time>2023-05-18T11:33:25Z</time>
      </trkpt>
      <trkpt lat="44.62184" lon="5.79814">
        <ele>1604.4</ele>
        <time>2023-05-18T11:33:26Z</time>
      </trkpt>
      <trkpt lat="44.62184" lon="5.79812">
        <ele>1604.6</ele>
        <time>2023-05-18T11:33:27Z</time>
      </trkpt>
      <trkpt lat="44.62184" lon="5.79811">
        <ele>1604.6</ele>
        <time>2023-05-18T11:33:28Z</time>
      </trkpt>
      <trkpt lat="44.62184" lon="5.79811">
        <ele>1604.6</ele>
        <time>2023-05-18T11:33:29Z</time>
      </trkpt>
      <trkpt lat="44.62185" lon="5.7981">
        <ele>1604.8</ele>
        <time>2023-05-18T11:33:30Z</time>
      </trkpt>
      <trkpt lat="44.62186" lon="5.79809">
        <ele>1605</ele>
        <time>2023-05-18T11:33:31Z</time>
      </trkpt>
      <trkpt lat="44.62187" lon="5.79808">
        <ele>1605.2</ele>
        <time>2023-05-18T11:33:32Z</time>
      </trkpt>
      <trkpt lat="44.62188" lon="5.79807">
        <ele>1605.2</ele>
        <time>2023-05-18T11:33:33Z</time>
      </trkpt>
      <trkpt lat="44.62188" lon="5.79807">
        <ele>1605.4</ele>
        <time>2023-05-18T11:33:34Z</time>
      </trkpt>
      <trkpt lat="44.62189" lon="5.79806">
        <ele>1605.4</ele>
        <time>2023-05-18T11:33:35Z</time>
      </trkpt>
      <trkpt lat="44.6219" lon="5.79805">
        <ele>1605.8</ele>
        <time>2023-05-18T11:33:36Z</time>
      </trkpt>
      <trkpt lat="44.6219" lon="5.79804">
        <ele>1605.8</ele>
        <time>2023-05-18T11:33:37Z</time>
      </trkpt>
      <trkpt lat="44.62191" lon="5.79803">
        <ele>1606</ele>
        <time>2023-05-18T11:33:38Z</time>
      </trkpt>
      <trkpt lat="44.62192" lon="5.79803">
        <ele>1606</ele>
        <time>2023-05-18T11:33:39Z</time>
      </trkpt>
      <trkpt lat="44.62193" lon="5.79802">
        <ele>1606.2</ele>
        <time>2023-05-18T11:33:40Z</time>
      </trkpt>
      <trkpt lat="44.62194" lon="5.79802">
        <ele>1606.4</ele>
        <time>2023-05-18T11:33:41Z</time>
      </trkpt>
      <trkpt lat="44.62195" lon="5.79801">
        <ele>1606.6</ele>
        <time>2023-05-18T11:33:42Z</time>
      </trkpt>
      <trkpt lat="44.62195" lon="5.798">
        <ele>1606.8</ele>
        <time>2023-05-18T11:33:43Z</time>
      </trkpt>
      <trkpt lat="44.62196" lon="5.79799">
        <ele>1607</ele>
        <time>2023-05-18T11:33:44Z</time>
      </trkpt>
      <trkpt lat="44.62196" lon="5.79799">
        <ele>1607.6</ele>
        <time>2023-05-18T11:33:47Z</time>
      </trkpt>
      <trkpt lat="44.62196" lon="5.79799">
        <ele>1607.8</ele>
        <time>2023-05-18T11:33:49Z</time>
      </trkpt>
      <trkpt lat="44.62196" lon="5.79799">
        <ele>1608</ele>
        <time>2023-05-18T11:33:50Z</time>
      </trkpt>
      <trkpt lat="44.62196" lon="5.79799">
        <ele>1608.2</ele>
        <time>2023-05-18T11:33:55Z</time>
      </trkpt>
      <trkpt lat="44.62196" lon="5.79798">
        <ele>1608.2</ele>
        <time>2023-05-18T11:33:56Z</time>
      </trkpt>
      <trkpt lat="44.62197" lon="5.79797">
        <ele>1608.2</ele>
        <time>2023-05-18T11:33:57Z</time>
      </trkpt>
      <trkpt lat="44.62198" lon="5.79797">
        <ele>1608.2</ele>
        <time>2023-05-18T11:33:58Z</time>
      </trkpt>
      <trkpt lat="44.62199" lon="5.79796">
        <ele>1608.2</ele>
        <time>2023-05-18T11:33:59Z</time>
      </trkpt>
      <trkpt lat="44.622" lon="5.79795">
        <ele>1608.2</ele>
        <time>2023-05-18T11:34:00Z</time>
      </trkpt>
      <trkpt lat="44.622" lon="5.79794">
        <ele>1608.2</ele>
        <time>2023-05-18T11:34:01Z</time>
      </trkpt>
      <trkpt lat="44.62201" lon="5.79794">
        <ele>1608.2</ele>
        <time>2023-05-18T11:34:02Z</time>
      </trkpt>
      <trkpt lat="44.62202" lon="5.79793">
        <ele>1608.4</ele>
        <time>2023-05-18T11:34:03Z</time>
      </trkpt>
      <trkpt lat="44.62202" lon="5.79793">
        <ele>1608.4</ele>
        <time>2023-05-18T11:34:04Z</time>
      </trkpt>
      <trkpt lat="44.62203" lon="5.79792">
        <ele>1608.6</ele>
        <time>2023-05-18T11:34:05Z</time>
      </trkpt>
      <trkpt lat="44.62203" lon="5.79792">
        <ele>1608.6</ele>
        <time>2023-05-18T11:34:06Z</time>
      </trkpt>
      <trkpt lat="44.62205" lon="5.79791">
        <ele>1609</ele>
        <time>2023-05-18T11:34:08Z</time>
      </trkpt>
      <trkpt lat="44.62207" lon="5.79788">
        <ele>1609.4</ele>
        <time>2023-05-18T11:34:11Z</time>
      </trkpt>
      <trkpt lat="44.62208" lon="5.79788">
        <ele>1609.6</ele>
        <time>2023-05-18T11:34:12Z</time>
      </trkpt>
      <trkpt lat="44.62209" lon="5.79786">
        <ele>1610.2</ele>
        <time>2023-05-18T11:34:14Z</time>
      </trkpt>
      <trkpt lat="44.6221" lon="5.79785">
        <ele>1610.4</ele>
        <time>2023-05-18T11:34:15Z</time>
      </trkpt>
      <trkpt lat="44.62211" lon="5.79784">
        <ele>1610.6</ele>
        <time>2023-05-18T11:34:16Z</time>
      </trkpt>
      <trkpt lat="44.62212" lon="5.79783">
        <ele>1610.6</ele>
        <time>2023-05-18T11:34:17Z</time>
      </trkpt>
      <trkpt lat="44.62212" lon="5.79782">
        <ele>1610.8</ele>
        <time>2023-05-18T11:34:18Z</time>
      </trkpt>
      <trkpt lat="44.62213" lon="5.79782">
        <ele>1611</ele>
        <time>2023-05-18T11:34:19Z</time>
      </trkpt>
      <trkpt lat="44.62213" lon="5.79781">
        <ele>1611</ele>
        <time>2023-05-18T11:34:20Z</time>
      </trkpt>
      <trkpt lat="44.62214" lon="5.7978">
        <ele>1611.2</ele>
        <time>2023-05-18T11:34:21Z</time>
      </trkpt>
      <trkpt lat="44.62215" lon="5.79779">
        <ele>1611.4</ele>
        <time>2023-05-18T11:34:22Z</time>
      </trkpt>
      <trkpt lat="44.62216" lon="5.79778">
        <ele>1611.6</ele>
        <time>2023-05-18T11:34:23Z</time>
      </trkpt>
      <trkpt lat="44.62216" lon="5.79778">
        <ele>1611.8</ele>
        <time>2023-05-18T11:34:24Z</time>
      </trkpt>
      <trkpt lat="44.62217" lon="5.79778">
        <ele>1612.2</ele>
        <time>2023-05-18T11:34:25Z</time>
      </trkpt>
      <trkpt lat="44.62218" lon="5.79777">
        <ele>1612.4</ele>
        <time>2023-05-18T11:34:26Z</time>
      </trkpt>
      <trkpt lat="44.62219" lon="5.79776">
        <ele>1612.8</ele>
        <time>2023-05-18T11:34:27Z</time>
      </trkpt>
      <trkpt lat="44.6222" lon="5.79776">
        <ele>1613</ele>
        <time>2023-05-18T11:34:28Z</time>
      </trkpt>
      <trkpt lat="44.62221" lon="5.79775">
        <ele>1613.2</ele>
        <time>2023-05-18T11:34:29Z</time>
      </trkpt>
      <trkpt lat="44.62221" lon="5.79774">
        <ele>1613.4</ele>
        <time>2023-05-18T11:34:30Z</time>
      </trkpt>
      <trkpt lat="44.62222" lon="5.79773">
        <ele>1613.6</ele>
        <time>2023-05-18T11:34:31Z</time>
      </trkpt>
      <trkpt lat="44.62223" lon="5.79773">
        <ele>1613.8</ele>
        <time>2023-05-18T11:34:32Z</time>
      </trkpt>
      <trkpt lat="44.62223" lon="5.79772">
        <ele>1614</ele>
        <time>2023-05-18T11:34:33Z</time>
      </trkpt>
      <trkpt lat="44.62224" lon="5.79771">
        <ele>1614.2</ele>
        <time>2023-05-18T11:34:34Z</time>
      </trkpt>
      <trkpt lat="44.62225" lon="5.7977">
        <ele>1614.4</ele>
        <time>2023-05-18T11:34:35Z</time>
      </trkpt>
      <trkpt lat="44.62226" lon="5.79769">
        <ele>1614.4</ele>
        <time>2023-05-18T11:34:36Z</time>
      </trkpt>
      <trkpt lat="44.62226" lon="5.79769">
        <ele>1614.6</ele>
        <time>2023-05-18T11:34:37Z</time>
      </trkpt>
      <trkpt lat="44.62227" lon="5.79767">
        <ele>1614.8</ele>
        <time>2023-05-18T11:34:38Z</time>
      </trkpt>
      <trkpt lat="44.62228" lon="5.79766">
        <ele>1615</ele>
        <time>2023-05-18T11:34:39Z</time>
      </trkpt>
      <trkpt lat="44.62228" lon="5.79766">
        <ele>1615.2</ele>
        <time>2023-05-18T11:34:40Z</time>
      </trkpt>
      <trkpt lat="44.62228" lon="5.79766">
        <ele>1615.6</ele>
        <time>2023-05-18T11:34:42Z</time>
      </trkpt>
      <trkpt lat="44.62229" lon="5.79765">
        <ele>1616</ele>
        <time>2023-05-18T11:34:44Z</time>
      </trkpt>
      <trkpt lat="44.6223" lon="5.79765">
        <ele>1616.2</ele>
        <time>2023-05-18T11:34:45Z</time>
      </trkpt>
      <trkpt lat="44.6223" lon="5.79765">
        <ele>1616.2</ele>
        <time>2023-05-18T11:34:46Z</time>
      </trkpt>
      <trkpt lat="44.6223" lon="5.79765">
        <ele>1616.4</ele>
        <time>2023-05-18T11:34:47Z</time>
      </trkpt>
      <trkpt lat="44.62231" lon="5.79764">
        <ele>1616.8</ele>
        <time>2023-05-18T11:34:48Z</time>
      </trkpt>
      <trkpt lat="44.62231" lon="5.79764">
        <ele>1616.8</ele>
        <time>2023-05-18T11:34:49Z</time>
      </trkpt>
      <trkpt lat="44.62231" lon="5.79764">
        <ele>1617</ele>
        <time>2023-05-18T11:34:50Z</time>
      </trkpt>
      <trkpt lat="44.62232" lon="5.79764">
        <ele>1617.2</ele>
        <time>2023-05-18T11:34:51Z</time>
      </trkpt>
      <trkpt lat="44.62233" lon="5.79763">
        <ele>1617.4</ele>
        <time>2023-05-18T11:34:52Z</time>
      </trkpt>
      <trkpt lat="44.62233" lon="5.79763">
        <ele>1617.4</ele>
        <time>2023-05-18T11:34:53Z</time>
      </trkpt>
      <trkpt lat="44.62233" lon="5.79762">
        <ele>1617.4</ele>
        <time>2023-05-18T11:34:54Z</time>
      </trkpt>
      <trkpt lat="44.62234" lon="5.79762">
        <ele>1617.6</ele>
        <time>2023-05-18T11:34:55Z</time>
      </trkpt>
      <trkpt lat="44.62235" lon="5.79761">
        <ele>1617.8</ele>
        <time>2023-05-18T11:34:56Z</time>
      </trkpt>
      <trkpt lat="44.62235" lon="5.79761">
        <ele>1617.8</ele>
        <time>2023-05-18T11:34:57Z</time>
      </trkpt>
      <trkpt lat="44.62236" lon="5.7976">
        <ele>1617.8</ele>
        <time>2023-05-18T11:34:58Z</time>
      </trkpt>
      <trkpt lat="44.62236" lon="5.7976">
        <ele>1618</ele>
        <time>2023-05-18T11:34:59Z</time>
      </trkpt>
      <trkpt lat="44.62237" lon="5.79759">
        <ele>1618</ele>
        <time>2023-05-18T11:35:00Z</time>
      </trkpt>
      <trkpt lat="44.62237" lon="5.79758">
        <ele>1618.2</ele>
        <time>2023-05-18T11:35:01Z</time>
      </trkpt>
      <trkpt lat="44.62238" lon="5.79757">
        <ele>1618.4</ele>
        <time>2023-05-18T11:35:02Z</time>
      </trkpt>
      <trkpt lat="44.62238" lon="5.79757">
        <ele>1618.4</ele>
        <time>2023-05-18T11:35:03Z</time>
      </trkpt>
      <trkpt lat="44.62239" lon="5.79757">
        <ele>1618.6</ele>
        <time>2023-05-18T11:35:04Z</time>
      </trkpt>
      <trkpt lat="44.62239" lon="5.79756">
        <ele>1618.6</ele>
        <time>2023-05-18T11:35:05Z</time>
      </trkpt>
      <trkpt lat="44.62239" lon="5.79756">
        <ele>1618.8</ele>
        <time>2023-05-18T11:35:06Z</time>
      </trkpt>
      <trkpt lat="44.62239" lon="5.79756">
        <ele>1619</ele>
        <time>2023-05-18T11:35:07Z</time>
      </trkpt>
      <trkpt lat="44.6224" lon="5.79756">
        <ele>1619.2</ele>
        <time>2023-05-18T11:35:08Z</time>
      </trkpt>
      <trkpt lat="44.6224" lon="5.79756">
        <ele>1619.4</ele>
        <time>2023-05-18T11:35:09Z</time>
      </trkpt>
      <trkpt lat="44.6224" lon="5.79755">
        <ele>1619.4</ele>
        <time>2023-05-18T11:35:10Z</time>
      </trkpt>
      <trkpt lat="44.6224" lon="5.79755">
        <ele>1619.6</ele>
        <time>2023-05-18T11:35:11Z</time>
      </trkpt>
      <trkpt lat="44.62241" lon="5.79754">
        <ele>1619.6</ele>
        <time>2023-05-18T11:35:12Z</time>
      </trkpt>
      <trkpt lat="44.62242" lon="5.79753">
        <ele>1619.8</ele>
        <time>2023-05-18T11:35:13Z</time>
      </trkpt>
      <trkpt lat="44.62242" lon="5.79752">
        <ele>1620</ele>
        <time>2023-05-18T11:35:14Z</time>
      </trkpt>
      <trkpt lat="44.62243" lon="5.79751">
        <ele>1620.2</ele>
        <time>2023-05-18T11:35:15Z</time>
      </trkpt>
      <trkpt lat="44.62243" lon="5.7975">
        <ele>1620.2</ele>
        <time>2023-05-18T11:35:16Z</time>
      </trkpt>
      <trkpt lat="44.62244" lon="5.79749">
        <ele>1620.4</ele>
        <time>2023-05-18T11:35:17Z</time>
      </trkpt>
      <trkpt lat="44.62245" lon="5.79748">
        <ele>1620.6</ele>
        <time>2023-05-18T11:35:18Z</time>
      </trkpt>
      <trkpt lat="44.62246" lon="5.79747">
        <ele>1620.6</ele>
        <time>2023-05-18T11:35:19Z</time>
      </trkpt>
      <trkpt lat="44.62246" lon="5.79746">
        <ele>1621</ele>
        <time>2023-05-18T11:35:20Z</time>
      </trkpt>
      <trkpt lat="44.62247" lon="5.79745">
        <ele>1621</ele>
        <time>2023-05-18T11:35:21Z</time>
      </trkpt>
      <trkpt lat="44.62247" lon="5.79744">
        <ele>1621</ele>
        <time>2023-05-18T11:35:22Z</time>
      </trkpt>
      <trkpt lat="44.62248" lon="5.79743">
        <ele>1621.2</ele>
        <time>2023-05-18T11:35:23Z</time>
      </trkpt>
      <trkpt lat="44.62248" lon="5.79743">
        <ele>1621.2</ele>
        <time>2023-05-18T11:35:24Z</time>
      </trkpt>
      <trkpt lat="44.62249" lon="5.79742">
        <ele>1621.4</ele>
        <time>2023-05-18T11:35:25Z</time>
      </trkpt>
      <trkpt lat="44.62249" lon="5.79742">
        <ele>1621.6</ele>
        <time>2023-05-18T11:35:26Z</time>
      </trkpt>
      <trkpt lat="44.62249" lon="5.79741">
        <ele>1622</ele>
        <time>2023-05-18T11:35:28Z</time>
      </trkpt>
      <trkpt lat="44.6225" lon="5.79741">
        <ele>1622.2</ele>
        <time>2023-05-18T11:35:29Z</time>
      </trkpt>
      <trkpt lat="44.6225" lon="5.7974">
        <ele>1622.4</ele>
        <time>2023-05-18T11:35:30Z</time>
      </trkpt>
      <trkpt lat="44.62251" lon="5.79739">
        <ele>1622.6</ele>
        <time>2023-05-18T11:35:31Z</time>
      </trkpt>
      <trkpt lat="44.62251" lon="5.79739">
        <ele>1622.6</ele>
        <time>2023-05-18T11:35:32Z</time>
      </trkpt>
      <trkpt lat="44.62252" lon="5.79739">
        <ele>1622.8</ele>
        <time>2023-05-18T11:35:33Z</time>
      </trkpt>
      <trkpt lat="44.62252" lon="5.79739">
        <ele>1622.8</ele>
        <time>2023-05-18T11:35:34Z</time>
      </trkpt>
      <trkpt lat="44.62253" lon="5.79738">
        <ele>1623</ele>
        <time>2023-05-18T11:35:35Z</time>
      </trkpt>
      <trkpt lat="44.62254" lon="5.79737">
        <ele>1623.2</ele>
        <time>2023-05-18T11:35:36Z</time>
      </trkpt>
      <trkpt lat="44.62254" lon="5.79737">
        <ele>1623.2</ele>
        <time>2023-05-18T11:35:37Z</time>
      </trkpt>
      <trkpt lat="44.62254" lon="5.79737">
        <ele>1623.4</ele>
        <time>2023-05-18T11:35:38Z</time>
      </trkpt>
      <trkpt lat="44.62255" lon="5.79736">
        <ele>1623.6</ele>
        <time>2023-05-18T11:35:39Z</time>
      </trkpt>
      <trkpt lat="44.62256" lon="5.79735">
        <ele>1623.8</ele>
        <time>2023-05-18T11:35:40Z</time>
      </trkpt>
      <trkpt lat="44.62257" lon="5.79734">
        <ele>1623.8</ele>
        <time>2023-05-18T11:35:41Z</time>
      </trkpt>
      <trkpt lat="44.62258" lon="5.79733">
        <ele>1624</ele>
        <time>2023-05-18T11:35:42Z</time>
      </trkpt>
      <trkpt lat="44.62259" lon="5.79733">
        <ele>1624.2</ele>
        <time>2023-05-18T11:35:43Z</time>
      </trkpt>
      <trkpt lat="44.62259" lon="5.79732">
        <ele>1624.4</ele>
        <time>2023-05-18T11:35:44Z</time>
      </trkpt>
      <trkpt lat="44.62261" lon="5.79731">
        <ele>1624.6</ele>
        <time>2023-05-18T11:35:45Z</time>
      </trkpt>
      <trkpt lat="44.62262" lon="5.7973">
        <ele>1624.8</ele>
        <time>2023-05-18T11:35:46Z</time>
      </trkpt>
      <trkpt lat="44.62262" lon="5.79729">
        <ele>1624.8</ele>
        <time>2023-05-18T11:35:47Z</time>
      </trkpt>
      <trkpt lat="44.62263" lon="5.79729">
        <ele>1625</ele>
        <time>2023-05-18T11:35:48Z</time>
      </trkpt>
      <trkpt lat="44.62263" lon="5.79729">
        <ele>1625.4</ele>
        <time>2023-05-18T11:35:49Z</time>
      </trkpt>
      <trkpt lat="44.62264" lon="5.79729">
        <ele>1625.6</ele>
        <time>2023-05-18T11:35:52Z</time>
      </trkpt>
      <trkpt lat="44.62264" lon="5.79728">
        <ele>1625.6</ele>
        <time>2023-05-18T11:35:53Z</time>
      </trkpt>
      <trkpt lat="44.62265" lon="5.79727">
        <ele>1625.8</ele>
        <time>2023-05-18T11:35:54Z</time>
      </trkpt>
      <trkpt lat="44.62266" lon="5.79726">
        <ele>1625.8</ele>
        <time>2023-05-18T11:35:55Z</time>
      </trkpt>
      <trkpt lat="44.62267" lon="5.79725">
        <ele>1625.8</ele>
        <time>2023-05-18T11:35:56Z</time>
      </trkpt>
      <trkpt lat="44.62268" lon="5.79724">
        <ele>1625.8</ele>
        <time>2023-05-18T11:35:57Z</time>
      </trkpt>
      <trkpt lat="44.62269" lon="5.79723">
        <ele>1626</ele>
        <time>2023-05-18T11:35:58Z</time>
      </trkpt>
      <trkpt lat="44.6227" lon="5.79722">
        <ele>1626</ele>
        <time>2023-05-18T11:35:59Z</time>
      </trkpt>
      <trkpt lat="44.62272" lon="5.79721">
        <ele>1626.2</ele>
        <time>2023-05-18T11:36:00Z</time>
      </trkpt>
      <trkpt lat="44.62272" lon="5.7972">
        <ele>1626.2</ele>
        <time>2023-05-18T11:36:01Z</time>
      </trkpt>
      <trkpt lat="44.62273" lon="5.79719">
        <ele>1626.4</ele>
        <time>2023-05-18T11:36:02Z</time>
      </trkpt>
      <trkpt lat="44.62274" lon="5.79718">
        <ele>1626.6</ele>
        <time>2023-05-18T11:36:03Z</time>
      </trkpt>
      <trkpt lat="44.62275" lon="5.79717">
        <ele>1626.6</ele>
        <time>2023-05-18T11:36:04Z</time>
      </trkpt>
      <trkpt lat="44.62276" lon="5.79715">
        <ele>1627</ele>
        <time>2023-05-18T11:36:05Z</time>
      </trkpt>
      <trkpt lat="44.62278" lon="5.79714">
        <ele>1627</ele>
        <time>2023-05-18T11:36:06Z</time>
      </trkpt>
      <trkpt lat="44.62278" lon="5.79713">
        <ele>1627.2</ele>
        <time>2023-05-18T11:36:07Z</time>
      </trkpt>
      <trkpt lat="44.62279" lon="5.79711">
        <ele>1627.4</ele>
        <time>2023-05-18T11:36:08Z</time>
      </trkpt>
      <trkpt lat="44.6228" lon="5.7971">
        <ele>1627.6</ele>
        <time>2023-05-18T11:36:09Z</time>
      </trkpt>
      <trkpt lat="44.62281" lon="5.79709">
        <ele>1627.8</ele>
        <time>2023-05-18T11:36:10Z</time>
      </trkpt>
      <trkpt lat="44.62282" lon="5.79707">
        <ele>1628</ele>
        <time>2023-05-18T11:36:11Z</time>
      </trkpt>
      <trkpt lat="44.62282" lon="5.79706">
        <ele>1628.2</ele>
        <time>2023-05-18T11:36:12Z</time>
      </trkpt>
      <trkpt lat="44.62283" lon="5.79705">
        <ele>1628.4</ele>
        <time>2023-05-18T11:36:13Z</time>
      </trkpt>
      <trkpt lat="44.62284" lon="5.79703">
        <ele>1628.6</ele>
        <time>2023-05-18T11:36:14Z</time>
      </trkpt>
      <trkpt lat="44.62285" lon="5.79702">
        <ele>1628.6</ele>
        <time>2023-05-18T11:36:15Z</time>
      </trkpt>
      <trkpt lat="44.62285" lon="5.79701">
        <ele>1628.8</ele>
        <time>2023-05-18T11:36:16Z</time>
      </trkpt>
      <trkpt lat="44.62286" lon="5.797">
        <ele>1629</ele>
        <time>2023-05-18T11:36:17Z</time>
      </trkpt>
      <trkpt lat="44.62286" lon="5.79699">
        <ele>1629.2</ele>
        <time>2023-05-18T11:36:18Z</time>
      </trkpt>
      <trkpt lat="44.62287" lon="5.79698">
        <ele>1629.4</ele>
        <time>2023-05-18T11:36:19Z</time>
      </trkpt>
      <trkpt lat="44.62288" lon="5.79696">
        <ele>1629.6</ele>
        <time>2023-05-18T11:36:20Z</time>
      </trkpt>
      <trkpt lat="44.62289" lon="5.79695">
        <ele>1629.8</ele>
        <time>2023-05-18T11:36:21Z</time>
      </trkpt>
      <trkpt lat="44.62289" lon="5.79693">
        <ele>1629.8</ele>
        <time>2023-05-18T11:36:22Z</time>
      </trkpt>
      <trkpt lat="44.6229" lon="5.79692">
        <ele>1630</ele>
        <time>2023-05-18T11:36:23Z</time>
      </trkpt>
      <trkpt lat="44.62291" lon="5.79691">
        <ele>1630</ele>
        <time>2023-05-18T11:36:24Z</time>
      </trkpt>
      <trkpt lat="44.62292" lon="5.79689">
        <ele>1630.4</ele>
        <time>2023-05-18T11:36:25Z</time>
      </trkpt>
      <trkpt lat="44.62292" lon="5.79688">
        <ele>1630.6</ele>
        <time>2023-05-18T11:36:26Z</time>
      </trkpt>
      <trkpt lat="44.62293" lon="5.79687">
        <ele>1630.8</ele>
        <time>2023-05-18T11:36:27Z</time>
      </trkpt>
      <trkpt lat="44.62294" lon="5.79686">
        <ele>1631</ele>
        <time>2023-05-18T11:36:28Z</time>
      </trkpt>
      <trkpt lat="44.62295" lon="5.79684">
        <ele>1631.2</ele>
        <time>2023-05-18T11:36:29Z</time>
      </trkpt>
      <trkpt lat="44.62296" lon="5.79683">
        <ele>1631.4</ele>
        <time>2023-05-18T11:36:30Z</time>
      </trkpt>
      <trkpt lat="44.62297" lon="5.79681">
        <ele>1631.4</ele>
        <time>2023-05-18T11:36:31Z</time>
      </trkpt>
      <trkpt lat="44.62298" lon="5.7968">
        <ele>1631.8</ele>
        <time>2023-05-18T11:36:32Z</time>
      </trkpt>
      <trkpt lat="44.62299" lon="5.7968">
        <ele>1631.8</ele>
        <time>2023-05-18T11:36:33Z</time>
      </trkpt>
      <trkpt lat="44.623" lon="5.7968">
        <ele>1632</ele>
        <time>2023-05-18T11:36:34Z</time>
      </trkpt>
      <trkpt lat="44.62301" lon="5.79681">
        <ele>1632.2</ele>
        <time>2023-05-18T11:36:35Z</time>
      </trkpt>
      <trkpt lat="44.62301" lon="5.79681">
        <ele>1632.6</ele>
        <time>2023-05-18T11:36:36Z</time>
      </trkpt>
      <trkpt lat="44.62302" lon="5.79681">
        <ele>1632.8</ele>
        <time>2023-05-18T11:36:37Z</time>
      </trkpt>
      <trkpt lat="44.62302" lon="5.79681">
        <ele>1633.2</ele>
        <time>2023-05-18T11:36:38Z</time>
      </trkpt>
      <trkpt lat="44.62303" lon="5.79682">
        <ele>1633.6</ele>
        <time>2023-05-18T11:36:39Z</time>
      </trkpt>
      <trkpt lat="44.62303" lon="5.79682">
        <ele>1633.8</ele>
        <time>2023-05-18T11:36:40Z</time>
      </trkpt>
      <trkpt lat="44.62304" lon="5.79683">
        <ele>1634</ele>
        <time>2023-05-18T11:36:41Z</time>
      </trkpt>
      <trkpt lat="44.62305" lon="5.79683">
        <ele>1634.2</ele>
        <time>2023-05-18T11:36:42Z</time>
      </trkpt>
      <trkpt lat="44.62306" lon="5.79684">
        <ele>1634.4</ele>
        <time>2023-05-18T11:36:43Z</time>
      </trkpt>
      <trkpt lat="44.62307" lon="5.79684">
        <ele>1634.4</ele>
        <time>2023-05-18T11:36:44Z</time>
      </trkpt>
      <trkpt lat="44.62307" lon="5.79684">
        <ele>1634.6</ele>
        <time>2023-05-18T11:36:45Z</time>
      </trkpt>
      <trkpt lat="44.62308" lon="5.79685">
        <ele>1634.6</ele>
        <time>2023-05-18T11:36:46Z</time>
      </trkpt>
      <trkpt lat="44.62309" lon="5.79685">
        <ele>1634.8</ele>
        <time>2023-05-18T11:36:47Z</time>
      </trkpt>
      <trkpt lat="44.6231" lon="5.79686">
        <ele>1634.8</ele>
        <time>2023-05-18T11:36:48Z</time>
      </trkpt>
      <trkpt lat="44.62311" lon="5.79686">
        <ele>1635</ele>
        <time>2023-05-18T11:36:49Z</time>
      </trkpt>
      <trkpt lat="44.62311" lon="5.79686">
        <ele>1635</ele>
        <time>2023-05-18T11:36:50Z</time>
      </trkpt>
      <trkpt lat="44.62311" lon="5.79686">
        <ele>1635.2</ele>
        <time>2023-05-18T11:36:51Z</time>
      </trkpt>
      <trkpt lat="44.62312" lon="5.79687">
        <ele>1635.6</ele>
        <time>2023-05-18T11:36:52Z</time>
      </trkpt>
      <trkpt lat="44.62313" lon="5.79688">
        <ele>1635.6</ele>
        <time>2023-05-18T11:36:53Z</time>
      </trkpt>
      <trkpt lat="44.62314" lon="5.79688">
        <ele>1635.8</ele>
        <time>2023-05-18T11:36:54Z</time>
      </trkpt>
      <trkpt lat="44.62315" lon="5.79689">
        <ele>1636</ele>
        <time>2023-05-18T11:36:55Z</time>
      </trkpt>
      <trkpt lat="44.62315" lon="5.79689">
        <ele>1636</ele>
        <time>2023-05-18T11:36:56Z</time>
      </trkpt>
      <trkpt lat="44.62316" lon="5.7969">
        <ele>1636.2</ele>
        <time>2023-05-18T11:36:57Z</time>
      </trkpt>
      <trkpt lat="44.62317" lon="5.79691">
        <ele>1636.4</ele>
        <time>2023-05-18T11:36:58Z</time>
      </trkpt>
      <trkpt lat="44.62318" lon="5.79691">
        <ele>1637</ele>
        <time>2023-05-18T11:36:59Z</time>
      </trkpt>
      <trkpt lat="44.62318" lon="5.79691">
        <ele>1637</ele>
        <time>2023-05-18T11:37:00Z</time>
      </trkpt>
      <trkpt lat="44.62319" lon="5.79691">
        <ele>1637</ele>
        <time>2023-05-18T11:37:01Z</time>
      </trkpt>
      <trkpt lat="44.6232" lon="5.79691">
        <ele>1637.2</ele>
        <time>2023-05-18T11:37:02Z</time>
      </trkpt>
      <trkpt lat="44.6232" lon="5.79692">
        <ele>1637.4</ele>
        <time>2023-05-18T11:37:03Z</time>
      </trkpt>
      <trkpt lat="44.62321" lon="5.79693">
        <ele>1637.6</ele>
        <time>2023-05-18T11:37:04Z</time>
      </trkpt>
      <trkpt lat="44.62321" lon="5.79694">
        <ele>1637.6</ele>
        <time>2023-05-18T11:37:05Z</time>
      </trkpt>
      <trkpt lat="44.62322" lon="5.79694">
        <ele>1637.8</ele>
        <time>2023-05-18T11:37:06Z</time>
      </trkpt>
      <trkpt lat="44.62322" lon="5.79695">
        <ele>1638</ele>
        <time>2023-05-18T11:37:07Z</time>
      </trkpt>
      <trkpt lat="44.62322" lon="5.79695">
        <ele>1638.2</ele>
        <time>2023-05-18T11:37:08Z</time>
      </trkpt>
      <trkpt lat="44.62323" lon="5.79696">
        <ele>1638.4</ele>
        <time>2023-05-18T11:37:09Z</time>
      </trkpt>
      <trkpt lat="44.62324" lon="5.79697">
        <ele>1638.6</ele>
        <time>2023-05-18T11:37:10Z</time>
      </trkpt>
      <trkpt lat="44.62325" lon="5.79698">
        <ele>1638.8</ele>
        <time>2023-05-18T11:37:11Z</time>
      </trkpt>
      <trkpt lat="44.62326" lon="5.79698">
        <ele>1639</ele>
        <time>2023-05-18T11:37:12Z</time>
      </trkpt>
      <trkpt lat="44.62327" lon="5.79699">
        <ele>1639</ele>
        <time>2023-05-18T11:37:13Z</time>
      </trkpt>
      <trkpt lat="44.62328" lon="5.79699">
        <ele>1639.2</ele>
        <time>2023-05-18T11:37:14Z</time>
      </trkpt>
      <trkpt lat="44.6233" lon="5.797">
        <ele>1639.4</ele>
        <time>2023-05-18T11:37:15Z</time>
      </trkpt>
      <trkpt lat="44.62331" lon="5.797">
        <ele>1639.4</ele>
        <time>2023-05-18T11:37:16Z</time>
      </trkpt>
      <trkpt lat="44.62332" lon="5.797">
        <ele>1639.6</ele>
        <time>2023-05-18T11:37:17Z</time>
      </trkpt>
      <trkpt lat="44.62334" lon="5.797">
        <ele>1639.6</ele>
        <time>2023-05-18T11:37:18Z</time>
      </trkpt>
      <trkpt lat="44.62335" lon="5.797">
        <ele>1639.8</ele>
        <time>2023-05-18T11:37:19Z</time>
      </trkpt>
      <trkpt lat="44.62336" lon="5.797">
        <ele>1639.8</ele>
        <time>2023-05-18T11:37:20Z</time>
      </trkpt>
      <trkpt lat="44.62337" lon="5.79701">
        <ele>1639.8</ele>
        <time>2023-05-18T11:37:21Z</time>
      </trkpt>
      <trkpt lat="44.62338" lon="5.79701">
        <ele>1639.8</ele>
        <time>2023-05-18T11:37:22Z</time>
      </trkpt>
      <trkpt lat="44.62339" lon="5.79701">
        <ele>1639.8</ele>
        <time>2023-05-18T11:37:23Z</time>
      </trkpt>
      <trkpt lat="44.62341" lon="5.79701">
        <ele>1639.8</ele>
        <time>2023-05-18T11:37:24Z</time>
      </trkpt>
      <trkpt lat="44.62343" lon="5.79701">
        <ele>1639.8</ele>
        <time>2023-05-18T11:37:25Z</time>
      </trkpt>
      <trkpt lat="44.62344" lon="5.79701">
        <ele>1639.8</ele>
        <time>2023-05-18T11:37:26Z</time>
      </trkpt>
      <trkpt lat="44.62345" lon="5.79701">
        <ele>1639.8</ele>
        <time>2023-05-18T11:37:27Z</time>
      </trkpt>
      <trkpt lat="44.62347" lon="5.79703">
        <ele>1639.8</ele>
        <time>2023-05-18T11:37:28Z</time>
      </trkpt>
      <trkpt lat="44.62349" lon="5.79707">
        <ele>1639.8</ele>
        <time>2023-05-18T11:37:29Z</time>
      </trkpt>
      <trkpt lat="44.6235" lon="5.79709">
        <ele>1639.8</ele>
        <time>2023-05-18T11:37:30Z</time>
      </trkpt>
      <trkpt lat="44.62352" lon="5.7971">
        <ele>1639.8</ele>
        <time>2023-05-18T11:37:31Z</time>
      </trkpt>
      <trkpt lat="44.62353" lon="5.79711">
        <ele>1639.8</ele>
        <time>2023-05-18T11:37:32Z</time>
      </trkpt>
      <trkpt lat="44.62355" lon="5.79712">
        <ele>1639.8</ele>
        <time>2023-05-18T11:37:33Z</time>
      </trkpt>
      <trkpt lat="44.62359" lon="5.79713">
        <ele>1640.2</ele>
        <time>2023-05-18T11:37:35Z</time>
      </trkpt>
      <trkpt lat="44.6236" lon="5.79712">
        <ele>1640.2</ele>
        <time>2023-05-18T11:37:36Z</time>
      </trkpt>
      <trkpt lat="44.62363" lon="5.79709">
        <ele>1640.4</ele>
        <time>2023-05-18T11:37:38Z</time>
      </trkpt>
      <trkpt lat="44.62364" lon="5.79708">
        <ele>1640.6</ele>
        <time>2023-05-18T11:37:39Z</time>
      </trkpt>
      <trkpt lat="44.62369" lon="5.79704">
        <ele>1640.8</ele>
        <time>2023-05-18T11:37:43Z</time>
      </trkpt>
      <trkpt lat="44.62371" lon="5.79702">
        <ele>1641</ele>
        <time>2023-05-18T11:37:44Z</time>
      </trkpt>
      <trkpt lat="44.62372" lon="5.79702">
        <ele>1641.2</ele>
        <time>2023-05-18T11:37:45Z</time>
      </trkpt>
      <trkpt lat="44.62373" lon="5.79702">
        <ele>1641.4</ele>
        <time>2023-05-18T11:37:46Z</time>
      </trkpt>
      <trkpt lat="44.62373" lon="5.79702">
        <ele>1641.4</ele>
        <time>2023-05-18T11:37:47Z</time>
      </trkpt>
      <trkpt lat="44.62374" lon="5.79701">
        <ele>1641.6</ele>
        <time>2023-05-18T11:37:48Z</time>
      </trkpt>
      <trkpt lat="44.62375" lon="5.797">
        <ele>1641.6</ele>
        <time>2023-05-18T11:37:49Z</time>
      </trkpt>
      <trkpt lat="44.62376" lon="5.79699">
        <ele>1641.8</ele>
        <time>2023-05-18T11:37:50Z</time>
      </trkpt>
      <trkpt lat="44.62377" lon="5.79699">
        <ele>1642</ele>
        <time>2023-05-18T11:37:51Z</time>
      </trkpt>
      <trkpt lat="44.62379" lon="5.79698">
        <ele>1642</ele>
        <time>2023-05-18T11:37:52Z</time>
      </trkpt>
      <trkpt lat="44.6238" lon="5.79698">
        <ele>1642.2</ele>
        <time>2023-05-18T11:37:53Z</time>
      </trkpt>
      <trkpt lat="44.62381" lon="5.79696">
        <ele>1642.4</ele>
        <time>2023-05-18T11:37:54Z</time>
      </trkpt>
      <trkpt lat="44.62382" lon="5.79695">
        <ele>1642.6</ele>
        <time>2023-05-18T11:37:55Z</time>
      </trkpt>
      <trkpt lat="44.62384" lon="5.79694">
        <ele>1642.6</ele>
        <time>2023-05-18T11:37:56Z</time>
      </trkpt>
      <trkpt lat="44.62385" lon="5.79693">
        <ele>1642.6</ele>
        <time>2023-05-18T11:37:57Z</time>
      </trkpt>
      <trkpt lat="44.62386" lon="5.79692">
        <ele>1642.8</ele>
        <time>2023-05-18T11:37:58Z</time>
      </trkpt>
      <trkpt lat="44.62387" lon="5.79691">
        <ele>1642.8</ele>
        <time>2023-05-18T11:37:59Z</time>
      </trkpt>
      <trkpt lat="44.62388" lon="5.7969">
        <ele>1642.8</ele>
        <time>2023-05-18T11:38:00Z</time>
      </trkpt>
      <trkpt lat="44.62389" lon="5.7969">
        <ele>1643</ele>
        <time>2023-05-18T11:38:01Z</time>
      </trkpt>
      <trkpt lat="44.6239" lon="5.79689">
        <ele>1643.2</ele>
        <time>2023-05-18T11:38:02Z</time>
      </trkpt>
      <trkpt lat="44.62391" lon="5.79689">
        <ele>1643.2</ele>
        <time>2023-05-18T11:38:03Z</time>
      </trkpt>
      <trkpt lat="44.62392" lon="5.7969">
        <ele>1643.4</ele>
        <time>2023-05-18T11:38:04Z</time>
      </trkpt>
      <trkpt lat="44.62393" lon="5.7969">
        <ele>1643.4</ele>
        <time>2023-05-18T11:38:05Z</time>
      </trkpt>
      <trkpt lat="44.62393" lon="5.7969">
        <ele>1643.6</ele>
        <time>2023-05-18T11:38:06Z</time>
      </trkpt>
      <trkpt lat="44.62394" lon="5.7969">
        <ele>1643.6</ele>
        <time>2023-05-18T11:38:07Z</time>
      </trkpt>
      <trkpt lat="44.62396" lon="5.7969">
        <ele>1643.8</ele>
        <time>2023-05-18T11:38:08Z</time>
      </trkpt>
      <trkpt lat="44.62397" lon="5.79689">
        <ele>1644</ele>
        <time>2023-05-18T11:38:09Z</time>
      </trkpt>
      <trkpt lat="44.62399" lon="5.79689">
        <ele>1644</ele>
        <time>2023-05-18T11:38:10Z</time>
      </trkpt>
      <trkpt lat="44.624" lon="5.79688">
        <ele>1644.2</ele>
        <time>2023-05-18T11:38:11Z</time>
      </trkpt>
      <trkpt lat="44.62402" lon="5.79687">
        <ele>1644.2</ele>
        <time>2023-05-18T11:38:12Z</time>
      </trkpt>
      <trkpt lat="44.62403" lon="5.79686">
        <ele>1644.2</ele>
        <time>2023-05-18T11:38:13Z</time>
      </trkpt>
      <trkpt lat="44.62405" lon="5.79686">
        <ele>1644.4</ele>
        <time>2023-05-18T11:38:14Z</time>
      </trkpt>
      <trkpt lat="44.62406" lon="5.79686">
        <ele>1644.6</ele>
        <time>2023-05-18T11:38:15Z</time>
      </trkpt>
      <trkpt lat="44.62407" lon="5.79685">
        <ele>1644.6</ele>
        <time>2023-05-18T11:38:16Z</time>
      </trkpt>
      <trkpt lat="44.62408" lon="5.79684">
        <ele>1644.6</ele>
        <time>2023-05-18T11:38:17Z</time>
      </trkpt>
      <trkpt lat="44.6241" lon="5.79684">
        <ele>1644.8</ele>
        <time>2023-05-18T11:38:18Z</time>
      </trkpt>
      <trkpt lat="44.62411" lon="5.79683">
        <ele>1645</ele>
        <time>2023-05-18T11:38:19Z</time>
      </trkpt>
      <trkpt lat="44.62412" lon="5.79682">
        <ele>1645.2</ele>
        <time>2023-05-18T11:38:20Z</time>
      </trkpt>
      <trkpt lat="44.62413" lon="5.79682">
        <ele>1645.2</ele>
        <time>2023-05-18T11:38:21Z</time>
      </trkpt>
      <trkpt lat="44.62415" lon="5.79682">
        <ele>1645.4</ele>
        <time>2023-05-18T11:38:22Z</time>
      </trkpt>
      <trkpt lat="44.62417" lon="5.79682">
        <ele>1645.4</ele>
        <time>2023-05-18T11:38:23Z</time>
      </trkpt>
      <trkpt lat="44.62417" lon="5.79682">
        <ele>1645.6</ele>
        <time>2023-05-18T11:38:24Z</time>
      </trkpt>
      <trkpt lat="44.62417" lon="5.79682">
        <ele>1645.8</ele>
        <time>2023-05-18T11:38:25Z</time>
      </trkpt>
      <trkpt lat="44.62418" lon="5.79682">
        <ele>1646</ele>
        <time>2023-05-18T11:38:26Z</time>
      </trkpt>
      <trkpt lat="44.6242" lon="5.79681">
        <ele>1646.4</ele>
        <time>2023-05-18T11:38:27Z</time>
      </trkpt>
      <trkpt lat="44.62421" lon="5.7968">
        <ele>1646.4</ele>
        <time>2023-05-18T11:38:28Z</time>
      </trkpt>
      <trkpt lat="44.62422" lon="5.79678">
        <ele>1646.8</ele>
        <time>2023-05-18T11:38:29Z</time>
      </trkpt>
      <trkpt lat="44.62423" lon="5.79677">
        <ele>1647</ele>
        <time>2023-05-18T11:38:30Z</time>
      </trkpt>
      <trkpt lat="44.62424" lon="5.79677">
        <ele>1647.2</ele>
        <time>2023-05-18T11:38:31Z</time>
      </trkpt>
      <trkpt lat="44.62424" lon="5.79676">
        <ele>1647.4</ele>
        <time>2023-05-18T11:38:32Z</time>
      </trkpt>
      <trkpt lat="44.62426" lon="5.79674">
        <ele>1647.8</ele>
        <time>2023-05-18T11:38:33Z</time>
      </trkpt>
      <trkpt lat="44.62427" lon="5.79672">
        <ele>1648</ele>
        <time>2023-05-18T11:38:34Z</time>
      </trkpt>
      <trkpt lat="44.62427" lon="5.79672">
        <ele>1648.4</ele>
        <time>2023-05-18T11:38:35Z</time>
      </trkpt>
      <trkpt lat="44.62428" lon="5.79671">
        <ele>1648.8</ele>
        <time>2023-05-18T11:38:36Z</time>
      </trkpt>
      <trkpt lat="44.62428" lon="5.7967">
        <ele>1649</ele>
        <time>2023-05-18T11:38:37Z</time>
      </trkpt>
      <trkpt lat="44.62429" lon="5.79669">
        <ele>1649.4</ele>
        <time>2023-05-18T11:38:38Z</time>
      </trkpt>
      <trkpt lat="44.6243" lon="5.79669">
        <ele>1649.6</ele>
        <time>2023-05-18T11:38:39Z</time>
      </trkpt>
      <trkpt lat="44.6243" lon="5.79667">
        <ele>1650</ele>
        <time>2023-05-18T11:38:40Z</time>
      </trkpt>
      <trkpt lat="44.62431" lon="5.79667">
        <ele>1650.2</ele>
        <time>2023-05-18T11:38:41Z</time>
      </trkpt>
      <trkpt lat="44.62432" lon="5.79666">
        <ele>1650.4</ele>
        <time>2023-05-18T11:38:42Z</time>
      </trkpt>
      <trkpt lat="44.62433" lon="5.79665">
        <ele>1650.6</ele>
        <time>2023-05-18T11:38:43Z</time>
      </trkpt>
      <trkpt lat="44.62434" lon="5.79665">
        <ele>1650.8</ele>
        <time>2023-05-18T11:38:44Z</time>
      </trkpt>
      <trkpt lat="44.62434" lon="5.79665">
        <ele>1651.2</ele>
        <time>2023-05-18T11:38:45Z</time>
      </trkpt>
      <trkpt lat="44.62435" lon="5.79664">
        <ele>1651.2</ele>
        <time>2023-05-18T11:38:46Z</time>
      </trkpt>
      <trkpt lat="44.62435" lon="5.79664">
        <ele>1651.6</ele>
        <time>2023-05-18T11:38:47Z</time>
      </trkpt>
      <trkpt lat="44.62436" lon="5.79663">
        <ele>1651.6</ele>
        <time>2023-05-18T11:38:48Z</time>
      </trkpt>
      <trkpt lat="44.62436" lon="5.79662">
        <ele>1651.8</ele>
        <time>2023-05-18T11:38:49Z</time>
      </trkpt>
      <trkpt lat="44.62438" lon="5.7966">
        <ele>1651.8</ele>
        <time>2023-05-18T11:38:50Z</time>
      </trkpt>
      <trkpt lat="44.62438" lon="5.79659">
        <ele>1652</ele>
        <time>2023-05-18T11:38:51Z</time>
      </trkpt>
      <trkpt lat="44.62438" lon="5.79659">
        <ele>1652</ele>
        <time>2023-05-18T11:38:52Z</time>
      </trkpt>
      <trkpt lat="44.62438" lon="5.79659">
        <ele>1652.2</ele>
        <time>2023-05-18T11:38:53Z</time>
      </trkpt>
      <trkpt lat="44.62438" lon="5.79659">
        <ele>1652.4</ele>
        <time>2023-05-18T11:38:54Z</time>
      </trkpt>
      <trkpt lat="44.62438" lon="5.79659">
        <ele>1652.4</ele>
        <time>2023-05-18T11:38:55Z</time>
      </trkpt>
      <trkpt lat="44.62438" lon="5.79659">
        <ele>1652.4</ele>
        <time>2023-05-18T11:38:56Z</time>
      </trkpt>
      <trkpt lat="44.62438" lon="5.79659">
        <ele>1652.6</ele>
        <time>2023-05-18T11:38:57Z</time>
      </trkpt>
      <trkpt lat="44.62438" lon="5.79659">
        <ele>1652.6</ele>
        <time>2023-05-18T11:38:58Z</time>
      </trkpt>
      <trkpt lat="44.62438" lon="5.79659">
        <ele>1652.6</ele>
        <time>2023-05-18T11:38:59Z</time>
      </trkpt>
      <trkpt lat="44.62438" lon="5.79659">
        <ele>1652.6</ele>
        <time>2023-05-18T11:39:00Z</time>
      </trkpt>
      <trkpt lat="44.62438" lon="5.79659">
        <ele>1653</ele>
        <time>2023-05-18T11:39:06Z</time>
      </trkpt>
      <trkpt lat="44.62439" lon="5.79659">
        <ele>1653.2</ele>
        <time>2023-05-18T11:39:07Z</time>
      </trkpt>
      <trkpt lat="44.62439" lon="5.79659">
        <ele>1653.4</ele>
        <time>2023-05-18T11:39:08Z</time>
      </trkpt>
      <trkpt lat="44.62439" lon="5.79659">
        <ele>1653.4</ele>
        <time>2023-05-18T11:39:09Z</time>
      </trkpt>
      <trkpt lat="44.6244" lon="5.7966">
        <ele>1653.6</ele>
        <time>2023-05-18T11:39:10Z</time>
      </trkpt>
      <trkpt lat="44.6244" lon="5.79659">
        <ele>1653.8</ele>
        <time>2023-05-18T11:39:11Z</time>
      </trkpt>
      <trkpt lat="44.6244" lon="5.79659">
        <ele>1654</ele>
        <time>2023-05-18T11:39:12Z</time>
      </trkpt>
      <trkpt lat="44.6244" lon="5.79659">
        <ele>1654</ele>
        <time>2023-05-18T11:39:13Z</time>
      </trkpt>
      <trkpt lat="44.6244" lon="5.79659">
        <ele>1654.4</ele>
        <time>2023-05-18T11:39:14Z</time>
      </trkpt>
      <trkpt lat="44.62441" lon="5.79659">
        <ele>1654.4</ele>
        <time>2023-05-18T11:39:15Z</time>
      </trkpt>
      <trkpt lat="44.62441" lon="5.79659">
        <ele>1654.6</ele>
        <time>2023-05-18T11:39:16Z</time>
      </trkpt>
      <trkpt lat="44.62441" lon="5.79659">
        <ele>1654.6</ele>
        <time>2023-05-18T11:39:17Z</time>
      </trkpt>
      <trkpt lat="44.62441" lon="5.79659">
        <ele>1654.6</ele>
        <time>2023-05-18T11:39:18Z</time>
      </trkpt>
      <trkpt lat="44.62441" lon="5.79659">
        <ele>1654.8</ele>
        <time>2023-05-18T11:39:19Z</time>
      </trkpt>
      <trkpt lat="44.62441" lon="5.79659">
        <ele>1655</ele>
        <time>2023-05-18T11:39:20Z</time>
      </trkpt>
      <trkpt lat="44.62441" lon="5.79659">
        <ele>1655.2</ele>
        <time>2023-05-18T11:39:21Z</time>
      </trkpt>
      <trkpt lat="44.62443" lon="5.79658">
        <ele>1656.2</ele>
        <time>2023-05-18T11:39:27Z</time>
      </trkpt>
      <trkpt lat="44.62447" lon="5.79657">
        <ele>1656.6</ele>
        <time>2023-05-18T11:39:31Z</time>
      </trkpt>
      <trkpt lat="44.62447" lon="5.79657">
        <ele>1656.8</ele>
        <time>2023-05-18T11:39:32Z</time>
      </trkpt>
      <trkpt lat="44.62449" lon="5.79657">
        <ele>1657.2</ele>
        <time>2023-05-18T11:39:35Z</time>
      </trkpt>
      <trkpt lat="44.62449" lon="5.79658">
        <ele>1657.2</ele>
        <time>2023-05-18T11:39:36Z</time>
      </trkpt>
      <trkpt lat="44.62451" lon="5.79657">
        <ele>1657.4</ele>
        <time>2023-05-18T11:39:37Z</time>
      </trkpt>
      <trkpt lat="44.62451" lon="5.79656">
        <ele>1657.4</ele>
        <time>2023-05-18T11:39:38Z</time>
      </trkpt>
      <trkpt lat="44.62452" lon="5.79656">
        <ele>1657.6</ele>
        <time>2023-05-18T11:39:39Z</time>
      </trkpt>
      <trkpt lat="44.62453" lon="5.79656">
        <ele>1657.6</ele>
        <time>2023-05-18T11:39:40Z</time>
      </trkpt>
      <trkpt lat="44.62453" lon="5.79656">
        <ele>1657.8</ele>
        <time>2023-05-18T11:39:42Z</time>
      </trkpt>
      <trkpt lat="44.62454" lon="5.79656">
        <ele>1658</ele>
        <time>2023-05-18T11:39:43Z</time>
      </trkpt>
      <trkpt lat="44.62454" lon="5.79656">
        <ele>1658.2</ele>
        <time>2023-05-18T11:39:45Z</time>
      </trkpt>
      <trkpt lat="44.62454" lon="5.79656">
        <ele>1658.4</ele>
        <time>2023-05-18T11:39:46Z</time>
      </trkpt>
      <trkpt lat="44.62454" lon="5.79656">
        <ele>1658.6</ele>
        <time>2023-05-18T11:39:47Z</time>
      </trkpt>
      <trkpt lat="44.62454" lon="5.79656">
        <ele>1658.8</ele>
        <time>2023-05-18T11:39:48Z</time>
      </trkpt>
      <trkpt lat="44.62454" lon="5.79655">
        <ele>1658.8</ele>
        <time>2023-05-18T11:39:49Z</time>
      </trkpt>
      <trkpt lat="44.62454" lon="5.79656">
        <ele>1658.8</ele>
        <time>2023-05-18T11:39:50Z</time>
      </trkpt>
      <trkpt lat="44.62454" lon="5.79656">
        <ele>1659.4</ele>
        <time>2023-05-18T11:39:53Z</time>
      </trkpt>
      <trkpt lat="44.62456" lon="5.79655">
        <ele>1659.6</ele>
        <time>2023-05-18T11:39:54Z</time>
      </trkpt>
      <trkpt lat="44.62457" lon="5.79655">
        <ele>1659.6</ele>
        <time>2023-05-18T11:39:55Z</time>
      </trkpt>
      <trkpt lat="44.62459" lon="5.79655">
        <ele>1659.8</ele>
        <time>2023-05-18T11:39:56Z</time>
      </trkpt>
      <trkpt lat="44.6246" lon="5.79654">
        <ele>1660</ele>
        <time>2023-05-18T11:39:57Z</time>
      </trkpt>
      <trkpt lat="44.6246" lon="5.79654">
        <ele>1660.2</ele>
        <time>2023-05-18T11:39:58Z</time>
      </trkpt>
      <trkpt lat="44.6246" lon="5.79654">
        <ele>1660.4</ele>
        <time>2023-05-18T11:39:59Z</time>
      </trkpt>
      <trkpt lat="44.62461" lon="5.79655">
        <ele>1660.6</ele>
        <time>2023-05-18T11:40:01Z</time>
      </trkpt>
      <trkpt lat="44.62461" lon="5.79655">
        <ele>1660.8</ele>
        <time>2023-05-18T11:40:02Z</time>
      </trkpt>
      <trkpt lat="44.62461" lon="5.79655">
        <ele>1661</ele>
        <time>2023-05-18T11:40:03Z</time>
      </trkpt>
      <trkpt lat="44.62461" lon="5.79655">
        <ele>1661</ele>
        <time>2023-05-18T11:40:04Z</time>
      </trkpt>
      <trkpt lat="44.62461" lon="5.79655">
        <ele>1661.6</ele>
        <time>2023-05-18T11:40:08Z</time>
      </trkpt>
      <trkpt lat="44.62463" lon="5.79655">
        <ele>1662.6</ele>
        <time>2023-05-18T11:40:14Z</time>
      </trkpt>
      <trkpt lat="44.62465" lon="5.79655">
        <ele>1663.4</ele>
        <time>2023-05-18T11:40:18Z</time>
      </trkpt>
      <trkpt lat="44.62466" lon="5.79655">
        <ele>1663.4</ele>
        <time>2023-05-18T11:40:19Z</time>
      </trkpt>
      <trkpt lat="44.62466" lon="5.79655">
        <ele>1664</ele>
        <time>2023-05-18T11:40:21Z</time>
      </trkpt>
      <trkpt lat="44.62467" lon="5.79655">
        <ele>1664.4</ele>
        <time>2023-05-18T11:40:25Z</time>
      </trkpt>
      <trkpt lat="44.62469" lon="5.79655">
        <ele>1664.6</ele>
        <time>2023-05-18T11:40:27Z</time>
      </trkpt>
      <trkpt lat="44.62469" lon="5.79655">
        <ele>1664.8</ele>
        <time>2023-05-18T11:40:29Z</time>
      </trkpt>
      <trkpt lat="44.62471" lon="5.79655">
        <ele>1665</ele>
        <time>2023-05-18T11:40:32Z</time>
      </trkpt>
      <trkpt lat="44.62474" lon="5.79656">
        <ele>1665.4</ele>
        <time>2023-05-18T11:40:35Z</time>
      </trkpt>
      <trkpt lat="44.62475" lon="5.79657">
        <ele>1665.6</ele>
        <time>2023-05-18T11:40:36Z</time>
      </trkpt>
      <trkpt lat="44.62476" lon="5.79657">
        <ele>1665.8</ele>
        <time>2023-05-18T11:40:38Z</time>
      </trkpt>
      <trkpt lat="44.62476" lon="5.79657">
        <ele>1666</ele>
        <time>2023-05-18T11:40:39Z</time>
      </trkpt>
      <trkpt lat="44.62478" lon="5.79658">
        <ele>1666.2</ele>
        <time>2023-05-18T11:40:40Z</time>
      </trkpt>
      <trkpt lat="44.62479" lon="5.79658">
        <ele>1666.4</ele>
        <time>2023-05-18T11:40:41Z</time>
      </trkpt>
      <trkpt lat="44.62481" lon="5.79659">
        <ele>1666.6</ele>
        <time>2023-05-18T11:40:43Z</time>
      </trkpt>
      <trkpt lat="44.62481" lon="5.79659">
        <ele>1666.8</ele>
        <time>2023-05-18T11:40:44Z</time>
      </trkpt>
      <trkpt lat="44.62483" lon="5.7966">
        <ele>1667</ele>
        <time>2023-05-18T11:40:47Z</time>
      </trkpt>
      <trkpt lat="44.62484" lon="5.7966">
        <ele>1667.2</ele>
        <time>2023-05-18T11:40:48Z</time>
      </trkpt>
      <trkpt lat="44.62484" lon="5.79661">
        <ele>1667.2</ele>
        <time>2023-05-18T11:40:49Z</time>
      </trkpt>
      <trkpt lat="44.62485" lon="5.79661">
        <ele>1667.4</ele>
        <time>2023-05-18T11:40:50Z</time>
      </trkpt>
      <trkpt lat="44.62485" lon="5.79661">
        <ele>1667.8</ele>
        <time>2023-05-18T11:40:52Z</time>
      </trkpt>
      <trkpt lat="44.62486" lon="5.79662">
        <ele>1668</ele>
        <time>2023-05-18T11:40:54Z</time>
      </trkpt>
      <trkpt lat="44.62486" lon="5.79662">
        <ele>1668.2</ele>
        <time>2023-05-18T11:40:55Z</time>
      </trkpt>
      <trkpt lat="44.62486" lon="5.79662">
        <ele>1668.4</ele>
        <time>2023-05-18T11:40:56Z</time>
      </trkpt>
      <trkpt lat="44.62486" lon="5.79662">
        <ele>1668.6</ele>
        <time>2023-05-18T11:40:57Z</time>
      </trkpt>
      <trkpt lat="44.62488" lon="5.79664">
        <ele>1668.6</ele>
        <time>2023-05-18T11:40:59Z</time>
      </trkpt>
      <trkpt lat="44.62489" lon="5.79665">
        <ele>1668.8</ele>
        <time>2023-05-18T11:41:00Z</time>
      </trkpt>
      <trkpt lat="44.6249" lon="5.79666">
        <ele>1668.8</ele>
        <time>2023-05-18T11:41:01Z</time>
      </trkpt>
      <trkpt lat="44.62491" lon="5.79668">
        <ele>1669</ele>
        <time>2023-05-18T11:41:02Z</time>
      </trkpt>
      <trkpt lat="44.62492" lon="5.79669">
        <ele>1669</ele>
        <time>2023-05-18T11:41:03Z</time>
      </trkpt>
      <trkpt lat="44.62492" lon="5.7967">
        <ele>1669.4</ele>
        <time>2023-05-18T11:41:04Z</time>
      </trkpt>
      <trkpt lat="44.62493" lon="5.79672">
        <ele>1669.4</ele>
        <time>2023-05-18T11:41:05Z</time>
      </trkpt>
      <trkpt lat="44.62494" lon="5.79673">
        <ele>1669.6</ele>
        <time>2023-05-18T11:41:06Z</time>
      </trkpt>
      <trkpt lat="44.62495" lon="5.79675">
        <ele>1669.6</ele>
        <time>2023-05-18T11:41:07Z</time>
      </trkpt>
      <trkpt lat="44.62496" lon="5.79677">
        <ele>1669.6</ele>
        <time>2023-05-18T11:41:08Z</time>
      </trkpt>
      <trkpt lat="44.62497" lon="5.79678">
        <ele>1669.6</ele>
        <time>2023-05-18T11:41:09Z</time>
      </trkpt>
      <trkpt lat="44.62498" lon="5.79679">
        <ele>1669.8</ele>
        <time>2023-05-18T11:41:10Z</time>
      </trkpt>
      <trkpt lat="44.62498" lon="5.79679">
        <ele>1669.8</ele>
        <time>2023-05-18T11:41:11Z</time>
      </trkpt>
      <trkpt lat="44.62499" lon="5.7968">
        <ele>1670</ele>
        <time>2023-05-18T11:41:12Z</time>
      </trkpt>
      <trkpt lat="44.62499" lon="5.79681">
        <ele>1670</ele>
        <time>2023-05-18T11:41:13Z</time>
      </trkpt>
      <trkpt lat="44.625" lon="5.79681">
        <ele>1670</ele>
        <time>2023-05-18T11:41:14Z</time>
      </trkpt>
      <trkpt lat="44.625" lon="5.79682">
        <ele>1670.2</ele>
        <time>2023-05-18T11:41:15Z</time>
      </trkpt>
      <trkpt lat="44.62501" lon="5.79682">
        <ele>1670.2</ele>
        <time>2023-05-18T11:41:16Z</time>
      </trkpt>
      <trkpt lat="44.62501" lon="5.79683">
        <ele>1670.2</ele>
        <time>2023-05-18T11:41:17Z</time>
      </trkpt>
      <trkpt lat="44.62502" lon="5.79683">
        <ele>1670.6</ele>
        <time>2023-05-18T11:41:18Z</time>
      </trkpt>
      <trkpt lat="44.62503" lon="5.79684">
        <ele>1670.6</ele>
        <time>2023-05-18T11:41:19Z</time>
      </trkpt>
      <trkpt lat="44.62504" lon="5.79684">
        <ele>1670.8</ele>
        <time>2023-05-18T11:41:20Z</time>
      </trkpt>
      <trkpt lat="44.62504" lon="5.79684">
        <ele>1671</ele>
        <time>2023-05-18T11:41:21Z</time>
      </trkpt>
      <trkpt lat="44.62504" lon="5.79685">
        <ele>1671.4</ele>
        <time>2023-05-18T11:41:23Z</time>
      </trkpt>
      <trkpt lat="44.62504" lon="5.79686">
        <ele>1671.6</ele>
        <time>2023-05-18T11:41:24Z</time>
      </trkpt>
      <trkpt lat="44.62505" lon="5.79688">
        <ele>1671.6</ele>
        <time>2023-05-18T11:41:25Z</time>
      </trkpt>
      <trkpt lat="44.62505" lon="5.79689">
        <ele>1671.8</ele>
        <time>2023-05-18T11:41:26Z</time>
      </trkpt>
      <trkpt lat="44.62506" lon="5.7969">
        <ele>1672</ele>
        <time>2023-05-18T11:41:27Z</time>
      </trkpt>
      <trkpt lat="44.62507" lon="5.79691">
        <ele>1672</ele>
        <time>2023-05-18T11:41:28Z</time>
      </trkpt>
      <trkpt lat="44.62507" lon="5.79692">
        <ele>1672.2</ele>
        <time>2023-05-18T11:41:29Z</time>
      </trkpt>
      <trkpt lat="44.62508" lon="5.79693">
        <ele>1672.2</ele>
        <time>2023-05-18T11:41:30Z</time>
      </trkpt>
      <trkpt lat="44.62508" lon="5.79693">
        <ele>1672.4</ele>
        <time>2023-05-18T11:41:31Z</time>
      </trkpt>
      <trkpt lat="44.62508" lon="5.79694">
        <ele>1672.4</ele>
        <time>2023-05-18T11:41:32Z</time>
      </trkpt>
      <trkpt lat="44.62509" lon="5.79695">
        <ele>1672.6</ele>
        <time>2023-05-18T11:41:33Z</time>
      </trkpt>
      <trkpt lat="44.62509" lon="5.79695">
        <ele>1672.6</ele>
        <time>2023-05-18T11:41:34Z</time>
      </trkpt>
      <trkpt lat="44.6251" lon="5.79696">
        <ele>1672.8</ele>
        <time>2023-05-18T11:41:35Z</time>
      </trkpt>
      <trkpt lat="44.6251" lon="5.79696">
        <ele>1673</ele>
        <time>2023-05-18T11:41:36Z</time>
      </trkpt>
      <trkpt lat="44.6251" lon="5.79696">
        <ele>1673.6</ele>
        <time>2023-05-18T11:41:40Z</time>
      </trkpt>
      <trkpt lat="44.6251" lon="5.79696">
        <ele>1674</ele>
        <time>2023-05-18T11:41:44Z</time>
      </trkpt>
      <trkpt lat="44.62511" lon="5.79696">
        <ele>1674</ele>
        <time>2023-05-18T11:41:46Z</time>
      </trkpt>
      <trkpt lat="44.62512" lon="5.79697">
        <ele>1674.2</ele>
        <time>2023-05-18T11:41:47Z</time>
      </trkpt>
      <trkpt lat="44.62513" lon="5.79698">
        <ele>1674.2</ele>
        <time>2023-05-18T11:41:48Z</time>
      </trkpt>
      <trkpt lat="44.62514" lon="5.79699">
        <ele>1674.2</ele>
        <time>2023-05-18T11:41:49Z</time>
      </trkpt>
      <trkpt lat="44.62514" lon="5.797">
        <ele>1674.2</ele>
        <time>2023-05-18T11:41:50Z</time>
      </trkpt>
      <trkpt lat="44.62516" lon="5.79701">
        <ele>1674.2</ele>
        <time>2023-05-18T11:41:51Z</time>
      </trkpt>
      <trkpt lat="44.62516" lon="5.79702">
        <ele>1674.2</ele>
        <time>2023-05-18T11:41:52Z</time>
      </trkpt>
      <trkpt lat="44.62517" lon="5.79703">
        <ele>1674.2</ele>
        <time>2023-05-18T11:41:53Z</time>
      </trkpt>
      <trkpt lat="44.62518" lon="5.79704">
        <ele>1674.2</ele>
        <time>2023-05-18T11:41:54Z</time>
      </trkpt>
      <trkpt lat="44.62519" lon="5.79704">
        <ele>1674.4</ele>
        <time>2023-05-18T11:41:55Z</time>
      </trkpt>
      <trkpt lat="44.62523" lon="5.79708">
        <ele>1675</ele>
        <time>2023-05-18T11:42:00Z</time>
      </trkpt>
      <trkpt lat="44.62524" lon="5.79709">
        <ele>1675.2</ele>
        <time>2023-05-18T11:42:01Z</time>
      </trkpt>
      <trkpt lat="44.62525" lon="5.7971">
        <ele>1675.4</ele>
        <time>2023-05-18T11:42:02Z</time>
      </trkpt>
      <trkpt lat="44.62526" lon="5.79711">
        <ele>1675.8</ele>
        <time>2023-05-18T11:42:03Z</time>
      </trkpt>
      <trkpt lat="44.62528" lon="5.79712">
        <ele>1676.2</ele>
        <time>2023-05-18T11:42:05Z</time>
      </trkpt>
      <trkpt lat="44.62531" lon="5.79715">
        <ele>1676.6</ele>
        <time>2023-05-18T11:42:08Z</time>
      </trkpt>
      <trkpt lat="44.62532" lon="5.79715">
        <ele>1676.8</ele>
        <time>2023-05-18T11:42:09Z</time>
      </trkpt>
      <trkpt lat="44.62533" lon="5.79716">
        <ele>1677</ele>
        <time>2023-05-18T11:42:10Z</time>
      </trkpt>
      <trkpt lat="44.62534" lon="5.79717">
        <ele>1677.2</ele>
        <time>2023-05-18T11:42:11Z</time>
      </trkpt>
      <trkpt lat="44.62535" lon="5.79718">
        <ele>1677.4</ele>
        <time>2023-05-18T11:42:12Z</time>
      </trkpt>
      <trkpt lat="44.62537" lon="5.79719">
        <ele>1677.4</ele>
        <time>2023-05-18T11:42:13Z</time>
      </trkpt>
      <trkpt lat="44.62538" lon="5.7972">
        <ele>1677.6</ele>
        <time>2023-05-18T11:42:14Z</time>
      </trkpt>
      <trkpt lat="44.62539" lon="5.7972">
        <ele>1677.6</ele>
        <time>2023-05-18T11:42:15Z</time>
      </trkpt>
      <trkpt lat="44.6254" lon="5.79721">
        <ele>1677.8</ele>
        <time>2023-05-18T11:42:16Z</time>
      </trkpt>
      <trkpt lat="44.62541" lon="5.79722">
        <ele>1678</ele>
        <time>2023-05-18T11:42:17Z</time>
      </trkpt>
      <trkpt lat="44.62542" lon="5.79722">
        <ele>1678</ele>
        <time>2023-05-18T11:42:18Z</time>
      </trkpt>
      <trkpt lat="44.62543" lon="5.79723">
        <ele>1678.2</ele>
        <time>2023-05-18T11:42:19Z</time>
      </trkpt>
      <trkpt lat="44.62544" lon="5.79724">
        <ele>1678.4</ele>
        <time>2023-05-18T11:42:20Z</time>
      </trkpt>
      <trkpt lat="44.62545" lon="5.79725">
        <ele>1678.6</ele>
        <time>2023-05-18T11:42:21Z</time>
      </trkpt>
      <trkpt lat="44.62546" lon="5.79726">
        <ele>1678.6</ele>
        <time>2023-05-18T11:42:22Z</time>
      </trkpt>
      <trkpt lat="44.62547" lon="5.79726">
        <ele>1678.8</ele>
        <time>2023-05-18T11:42:23Z</time>
      </trkpt>
      <trkpt lat="44.62548" lon="5.79726">
        <ele>1679</ele>
        <time>2023-05-18T11:42:24Z</time>
      </trkpt>
      <trkpt lat="44.62549" lon="5.79727">
        <ele>1679.2</ele>
        <time>2023-05-18T11:42:25Z</time>
      </trkpt>
      <trkpt lat="44.6255" lon="5.79727">
        <ele>1679.2</ele>
        <time>2023-05-18T11:42:26Z</time>
      </trkpt>
      <trkpt lat="44.62551" lon="5.79728">
        <ele>1679.4</ele>
        <time>2023-05-18T11:42:27Z</time>
      </trkpt>
      <trkpt lat="44.62552" lon="5.79729">
        <ele>1679.6</ele>
        <time>2023-05-18T11:42:28Z</time>
      </trkpt>
      <trkpt lat="44.62553" lon="5.7973">
        <ele>1679.6</ele>
        <time>2023-05-18T11:42:29Z</time>
      </trkpt>
      <trkpt lat="44.62554" lon="5.7973">
        <ele>1679.8</ele>
        <time>2023-05-18T11:42:30Z</time>
      </trkpt>
      <trkpt lat="44.62555" lon="5.79731">
        <ele>1679.8</ele>
        <time>2023-05-18T11:42:31Z</time>
      </trkpt>
      <trkpt lat="44.62556" lon="5.79731">
        <ele>1680.2</ele>
        <time>2023-05-18T11:42:32Z</time>
      </trkpt>
      <trkpt lat="44.62557" lon="5.79731">
        <ele>1680.2</ele>
        <time>2023-05-18T11:42:33Z</time>
      </trkpt>
      <trkpt lat="44.62558" lon="5.79731">
        <ele>1680.4</ele>
        <time>2023-05-18T11:42:34Z</time>
      </trkpt>
      <trkpt lat="44.62558" lon="5.79731">
        <ele>1680.4</ele>
        <time>2023-05-18T11:42:35Z</time>
      </trkpt>
      <trkpt lat="44.62559" lon="5.79732">
        <ele>1680.6</ele>
        <time>2023-05-18T11:42:36Z</time>
      </trkpt>
      <trkpt lat="44.62559" lon="5.79732">
        <ele>1680.6</ele>
        <time>2023-05-18T11:42:37Z</time>
      </trkpt>
      <trkpt lat="44.6256" lon="5.79733">
        <ele>1680.8</ele>
        <time>2023-05-18T11:42:38Z</time>
      </trkpt>
      <trkpt lat="44.62561" lon="5.79733">
        <ele>1681.2</ele>
        <time>2023-05-18T11:42:39Z</time>
      </trkpt>
      <trkpt lat="44.62563" lon="5.79734">
        <ele>1681.4</ele>
        <time>2023-05-18T11:42:40Z</time>
      </trkpt>
      <trkpt lat="44.62564" lon="5.79735">
        <ele>1681.4</ele>
        <time>2023-05-18T11:42:41Z</time>
      </trkpt>
      <trkpt lat="44.62565" lon="5.79736">
        <ele>1681.6</ele>
        <time>2023-05-18T11:42:42Z</time>
      </trkpt>
      <trkpt lat="44.62565" lon="5.79736">
        <ele>1681.8</ele>
        <time>2023-05-18T11:42:43Z</time>
      </trkpt>
      <trkpt lat="44.62566" lon="5.79736">
        <ele>1682</ele>
        <time>2023-05-18T11:42:44Z</time>
      </trkpt>
      <trkpt lat="44.62567" lon="5.79736">
        <ele>1682.2</ele>
        <time>2023-05-18T11:42:45Z</time>
      </trkpt>
      <trkpt lat="44.62567" lon="5.79737">
        <ele>1682.4</ele>
        <time>2023-05-18T11:42:46Z</time>
      </trkpt>
      <trkpt lat="44.62568" lon="5.79737">
        <ele>1682.6</ele>
        <time>2023-05-18T11:42:47Z</time>
      </trkpt>
      <trkpt lat="44.62569" lon="5.79738">
        <ele>1682.6</ele>
        <time>2023-05-18T11:42:48Z</time>
      </trkpt>
      <trkpt lat="44.6257" lon="5.79739">
        <ele>1682.8</ele>
        <time>2023-05-18T11:42:49Z</time>
      </trkpt>
      <trkpt lat="44.62571" lon="5.79739">
        <ele>1683</ele>
        <time>2023-05-18T11:42:50Z</time>
      </trkpt>
      <trkpt lat="44.62572" lon="5.7974">
        <ele>1683.2</ele>
        <time>2023-05-18T11:42:51Z</time>
      </trkpt>
      <trkpt lat="44.62572" lon="5.79741">
        <ele>1683.4</ele>
        <time>2023-05-18T11:42:52Z</time>
      </trkpt>
      <trkpt lat="44.62574" lon="5.79741">
        <ele>1683.4</ele>
        <time>2023-05-18T11:42:53Z</time>
      </trkpt>
      <trkpt lat="44.62575" lon="5.79741">
        <ele>1683.6</ele>
        <time>2023-05-18T11:42:54Z</time>
      </trkpt>
      <trkpt lat="44.62576" lon="5.79742">
        <ele>1683.6</ele>
        <time>2023-05-18T11:42:55Z</time>
      </trkpt>
      <trkpt lat="44.62577" lon="5.79743">
        <ele>1683.8</ele>
        <time>2023-05-18T11:42:56Z</time>
      </trkpt>
      <trkpt lat="44.62578" lon="5.79744">
        <ele>1683.8</ele>
        <time>2023-05-18T11:42:57Z</time>
      </trkpt>
      <trkpt lat="44.6258" lon="5.79745">
        <ele>1684</ele>
        <time>2023-05-18T11:42:58Z</time>
      </trkpt>
      <trkpt lat="44.6258" lon="5.79745">
        <ele>1684</ele>
        <time>2023-05-18T11:42:59Z</time>
      </trkpt>
      <trkpt lat="44.62581" lon="5.79746">
        <ele>1684.2</ele>
        <time>2023-05-18T11:43:00Z</time>
      </trkpt>
      <trkpt lat="44.62582" lon="5.79746">
        <ele>1684.2</ele>
        <time>2023-05-18T11:43:01Z</time>
      </trkpt>
      <trkpt lat="44.62583" lon="5.79746">
        <ele>1684.4</ele>
        <time>2023-05-18T11:43:02Z</time>
      </trkpt>
      <trkpt lat="44.62584" lon="5.79747">
        <ele>1684.6</ele>
        <time>2023-05-18T11:43:03Z</time>
      </trkpt>
      <trkpt lat="44.62585" lon="5.79748">
        <ele>1684.6</ele>
        <time>2023-05-18T11:43:04Z</time>
      </trkpt>
      <trkpt lat="44.62587" lon="5.79749">
        <ele>1684.6</ele>
        <time>2023-05-18T11:43:05Z</time>
      </trkpt>
      <trkpt lat="44.62588" lon="5.7975">
        <ele>1684.8</ele>
        <time>2023-05-18T11:43:06Z</time>
      </trkpt>
      <trkpt lat="44.62589" lon="5.79751">
        <ele>1685.2</ele>
        <time>2023-05-18T11:43:07Z</time>
      </trkpt>
      <trkpt lat="44.6259" lon="5.79752">
        <ele>1685.4</ele>
        <time>2023-05-18T11:43:08Z</time>
      </trkpt>
      <trkpt lat="44.6259" lon="5.79753">
        <ele>1685.4</ele>
        <time>2023-05-18T11:43:09Z</time>
      </trkpt>
      <trkpt lat="44.62591" lon="5.79754">
        <ele>1685.6</ele>
        <time>2023-05-18T11:43:10Z</time>
      </trkpt>
      <trkpt lat="44.62592" lon="5.79754">
        <ele>1685.6</ele>
        <time>2023-05-18T11:43:11Z</time>
      </trkpt>
      <trkpt lat="44.62593" lon="5.79755">
        <ele>1685.8</ele>
        <time>2023-05-18T11:43:12Z</time>
      </trkpt>
      <trkpt lat="44.62595" lon="5.79755">
        <ele>1685.8</ele>
        <time>2023-05-18T11:43:13Z</time>
      </trkpt>
      <trkpt lat="44.62596" lon="5.79755">
        <ele>1686.2</ele>
        <time>2023-05-18T11:43:14Z</time>
      </trkpt>
      <trkpt lat="44.62597" lon="5.79755">
        <ele>1686.2</ele>
        <time>2023-05-18T11:43:15Z</time>
      </trkpt>
      <trkpt lat="44.62598" lon="5.79756">
        <ele>1686.4</ele>
        <time>2023-05-18T11:43:16Z</time>
      </trkpt>
      <trkpt lat="44.62599" lon="5.79756">
        <ele>1686.4</ele>
        <time>2023-05-18T11:43:17Z</time>
      </trkpt>
      <trkpt lat="44.62599" lon="5.79757">
        <ele>1686.6</ele>
        <time>2023-05-18T11:43:18Z</time>
      </trkpt>
      <trkpt lat="44.62599" lon="5.79757">
        <ele>1686.8</ele>
        <time>2023-05-18T11:43:19Z</time>
      </trkpt>
      <trkpt lat="44.626" lon="5.79757">
        <ele>1687</ele>
        <time>2023-05-18T11:43:20Z</time>
      </trkpt>
      <trkpt lat="44.62601" lon="5.79758">
        <ele>1687.2</ele>
        <time>2023-05-18T11:43:21Z</time>
      </trkpt>
      <trkpt lat="44.62602" lon="5.79759">
        <ele>1687.2</ele>
        <time>2023-05-18T11:43:22Z</time>
      </trkpt>
      <trkpt lat="44.62603" lon="5.7976">
        <ele>1687.8</ele>
        <time>2023-05-18T11:43:23Z</time>
      </trkpt>
      <trkpt lat="44.62603" lon="5.79761">
        <ele>1687.8</ele>
        <time>2023-05-18T11:43:24Z</time>
      </trkpt>
      <trkpt lat="44.62604" lon="5.79761">
        <ele>1688</ele>
        <time>2023-05-18T11:43:25Z</time>
      </trkpt>
      <trkpt lat="44.62605" lon="5.79761">
        <ele>1688.2</ele>
        <time>2023-05-18T11:43:26Z</time>
      </trkpt>
      <trkpt lat="44.62605" lon="5.79761">
        <ele>1688.4</ele>
        <time>2023-05-18T11:43:27Z</time>
      </trkpt>
      <trkpt lat="44.62606" lon="5.79761">
        <ele>1688.6</ele>
        <time>2023-05-18T11:43:28Z</time>
      </trkpt>
      <trkpt lat="44.62607" lon="5.79762">
        <ele>1688.6</ele>
        <time>2023-05-18T11:43:29Z</time>
      </trkpt>
      <trkpt lat="44.62608" lon="5.79762">
        <ele>1688.8</ele>
        <time>2023-05-18T11:43:30Z</time>
      </trkpt>
      <trkpt lat="44.62609" lon="5.79762">
        <ele>1688.8</ele>
        <time>2023-05-18T11:43:31Z</time>
      </trkpt>
      <trkpt lat="44.6261" lon="5.79762">
        <ele>1689</ele>
        <time>2023-05-18T11:43:32Z</time>
      </trkpt>
      <trkpt lat="44.6261" lon="5.79762">
        <ele>1689.2</ele>
        <time>2023-05-18T11:43:33Z</time>
      </trkpt>
      <trkpt lat="44.6261" lon="5.79762">
        <ele>1689.4</ele>
        <time>2023-05-18T11:43:34Z</time>
      </trkpt>
      <trkpt lat="44.62611" lon="5.79763">
        <ele>1690</ele>
        <time>2023-05-18T11:43:38Z</time>
      </trkpt>
      <trkpt lat="44.62611" lon="5.79763">
        <ele>1690</ele>
        <time>2023-05-18T11:43:40Z</time>
      </trkpt>
      <trkpt lat="44.62612" lon="5.79764">
        <ele>1690.2</ele>
        <time>2023-05-18T11:43:43Z</time>
      </trkpt>
      <trkpt lat="44.62613" lon="5.79765">
        <ele>1690.2</ele>
        <time>2023-05-18T11:43:46Z</time>
      </trkpt>
      <trkpt lat="44.62613" lon="5.79765">
        <ele>1690.2</ele>
        <time>2023-05-18T11:43:47Z</time>
      </trkpt>
      <trkpt lat="44.62614" lon="5.79765">
        <ele>1690.4</ele>
        <time>2023-05-18T11:43:51Z</time>
      </trkpt>
      <trkpt lat="44.62615" lon="5.79765">
        <ele>1690.6</ele>
        <time>2023-05-18T11:43:52Z</time>
      </trkpt>
      <trkpt lat="44.62616" lon="5.79766">
        <ele>1690.6</ele>
        <time>2023-05-18T11:43:53Z</time>
      </trkpt>
      <trkpt lat="44.62617" lon="5.79767">
        <ele>1690.6</ele>
        <time>2023-05-18T11:43:54Z</time>
      </trkpt>
      <trkpt lat="44.6262" lon="5.79768">
        <ele>1690.6</ele>
        <time>2023-05-18T11:43:56Z</time>
      </trkpt>
      <trkpt lat="44.62623" lon="5.7977">
        <ele>1690.6</ele>
        <time>2023-05-18T11:43:58Z</time>
      </trkpt>
      <trkpt lat="44.62624" lon="5.7977">
        <ele>1690.8</ele>
        <time>2023-05-18T11:43:59Z</time>
      </trkpt>
      <trkpt lat="44.62624" lon="5.7977">
        <ele>1690.8</ele>
        <time>2023-05-18T11:44:00Z</time>
      </trkpt>
      <trkpt lat="44.62625" lon="5.7977">
        <ele>1691</ele>
        <time>2023-05-18T11:44:01Z</time>
      </trkpt>
      <trkpt lat="44.6263" lon="5.79772">
        <ele>1691.4</ele>
        <time>2023-05-18T11:44:04Z</time>
      </trkpt>
      <trkpt lat="44.62632" lon="5.79772">
        <ele>1691.4</ele>
        <time>2023-05-18T11:44:05Z</time>
      </trkpt>
      <trkpt lat="44.62634" lon="5.79773">
        <ele>1691.6</ele>
        <time>2023-05-18T11:44:06Z</time>
      </trkpt>
      <trkpt lat="44.62636" lon="5.79773">
        <ele>1691.8</ele>
        <time>2023-05-18T11:44:07Z</time>
      </trkpt>
      <trkpt lat="44.6264" lon="5.79773">
        <ele>1692</ele>
        <time>2023-05-18T11:44:09Z</time>
      </trkpt>
      <trkpt lat="44.62642" lon="5.79774">
        <ele>1692.2</ele>
        <time>2023-05-18T11:44:10Z</time>
      </trkpt>
      <trkpt lat="44.62643" lon="5.79774">
        <ele>1692.4</ele>
        <time>2023-05-18T11:44:11Z</time>
      </trkpt>
      <trkpt lat="44.62644" lon="5.79774">
        <ele>1692.4</ele>
        <time>2023-05-18T11:44:12Z</time>
      </trkpt>
      <trkpt lat="44.62645" lon="5.79775">
        <ele>1692.6</ele>
        <time>2023-05-18T11:44:13Z</time>
      </trkpt>
      <trkpt lat="44.62649" lon="5.79775">
        <ele>1692.6</ele>
        <time>2023-05-18T11:44:15Z</time>
      </trkpt>
      <trkpt lat="44.62653" lon="5.79775">
        <ele>1692.8</ele>
        <time>2023-05-18T11:44:17Z</time>
      </trkpt>
      <trkpt lat="44.62655" lon="5.79775">
        <ele>1692.8</ele>
        <time>2023-05-18T11:44:18Z</time>
      </trkpt>
      <trkpt lat="44.62657" lon="5.79775">
        <ele>1692.8</ele>
        <time>2023-05-18T11:44:19Z</time>
      </trkpt>
      <trkpt lat="44.62659" lon="5.79774">
        <ele>1693</ele>
        <time>2023-05-18T11:44:20Z</time>
      </trkpt>
      <trkpt lat="44.6266" lon="5.79774">
        <ele>1693.2</ele>
        <time>2023-05-18T11:44:21Z</time>
      </trkpt>
      <trkpt lat="44.6266" lon="5.79775">
        <ele>1693.4</ele>
        <time>2023-05-18T11:44:22Z</time>
      </trkpt>
      <trkpt lat="44.62661" lon="5.79774">
        <ele>1693.6</ele>
        <time>2023-05-18T11:44:23Z</time>
      </trkpt>
      <trkpt lat="44.62661" lon="5.79775">
        <ele>1693.6</ele>
        <time>2023-05-18T11:44:24Z</time>
      </trkpt>
      <trkpt lat="44.62662" lon="5.79775">
        <ele>1693.8</ele>
        <time>2023-05-18T11:44:25Z</time>
      </trkpt>
      <trkpt lat="44.62663" lon="5.79776">
        <ele>1693.8</ele>
        <time>2023-05-18T11:44:26Z</time>
      </trkpt>
      <trkpt lat="44.62664" lon="5.79776">
        <ele>1693.8</ele>
        <time>2023-05-18T11:44:27Z</time>
      </trkpt>
      <trkpt lat="44.62665" lon="5.79778">
        <ele>1694</ele>
        <time>2023-05-18T11:44:28Z</time>
      </trkpt>
      <trkpt lat="44.62667" lon="5.79778">
        <ele>1694.2</ele>
        <time>2023-05-18T11:44:29Z</time>
      </trkpt>
      <trkpt lat="44.62668" lon="5.79779">
        <ele>1694.2</ele>
        <time>2023-05-18T11:44:30Z</time>
      </trkpt>
      <trkpt lat="44.62668" lon="5.79778">
        <ele>1694.4</ele>
        <time>2023-05-18T11:44:31Z</time>
      </trkpt>
      <trkpt lat="44.62669" lon="5.79778">
        <ele>1694.4</ele>
        <time>2023-05-18T11:44:32Z</time>
      </trkpt>
      <trkpt lat="44.6267" lon="5.79778">
        <ele>1694.6</ele>
        <time>2023-05-18T11:44:33Z</time>
      </trkpt>
      <trkpt lat="44.62671" lon="5.79777">
        <ele>1694.6</ele>
        <time>2023-05-18T11:44:34Z</time>
      </trkpt>
      <trkpt lat="44.62672" lon="5.79776">
        <ele>1694.8</ele>
        <time>2023-05-18T11:44:35Z</time>
      </trkpt>
      <trkpt lat="44.62673" lon="5.79777">
        <ele>1694.8</ele>
        <time>2023-05-18T11:44:36Z</time>
      </trkpt>
      <trkpt lat="44.62673" lon="5.79777">
        <ele>1695</ele>
        <time>2023-05-18T11:44:37Z</time>
      </trkpt>
      <trkpt lat="44.62674" lon="5.79777">
        <ele>1695.2</ele>
        <time>2023-05-18T11:44:38Z</time>
      </trkpt>
      <trkpt lat="44.62674" lon="5.79778">
        <ele>1695.2</ele>
        <time>2023-05-18T11:44:39Z</time>
      </trkpt>
      <trkpt lat="44.62676" lon="5.79778">
        <ele>1695.6</ele>
        <time>2023-05-18T11:44:40Z</time>
      </trkpt>
      <trkpt lat="44.62677" lon="5.79779">
        <ele>1695.6</ele>
        <time>2023-05-18T11:44:41Z</time>
      </trkpt>
      <trkpt lat="44.62678" lon="5.79779">
        <ele>1695.8</ele>
        <time>2023-05-18T11:44:42Z</time>
      </trkpt>
      <trkpt lat="44.62679" lon="5.7978">
        <ele>1696</ele>
        <time>2023-05-18T11:44:43Z</time>
      </trkpt>
      <trkpt lat="44.6268" lon="5.7978">
        <ele>1696.2</ele>
        <time>2023-05-18T11:44:44Z</time>
      </trkpt>
      <trkpt lat="44.62682" lon="5.7978">
        <ele>1696.2</ele>
        <time>2023-05-18T11:44:45Z</time>
      </trkpt>
      <trkpt lat="44.62683" lon="5.79781">
        <ele>1696.4</ele>
        <time>2023-05-18T11:44:46Z</time>
      </trkpt>
      <trkpt lat="44.62684" lon="5.79782">
        <ele>1696.6</ele>
        <time>2023-05-18T11:44:47Z</time>
      </trkpt>
      <trkpt lat="44.62686" lon="5.79783">
        <ele>1696.6</ele>
        <time>2023-05-18T11:44:48Z</time>
      </trkpt>
      <trkpt lat="44.62688" lon="5.79783">
        <ele>1696.8</ele>
        <time>2023-05-18T11:44:49Z</time>
      </trkpt>
      <trkpt lat="44.6269" lon="5.79783">
        <ele>1697</ele>
        <time>2023-05-18T11:44:50Z</time>
      </trkpt>
      <trkpt lat="44.62691" lon="5.79782">
        <ele>1697</ele>
        <time>2023-05-18T11:44:51Z</time>
      </trkpt>
      <trkpt lat="44.62693" lon="5.79781">
        <ele>1697.2</ele>
        <time>2023-05-18T11:44:52Z</time>
      </trkpt>
      <trkpt lat="44.62694" lon="5.79779">
        <ele>1697.2</ele>
        <time>2023-05-18T11:44:53Z</time>
      </trkpt>
      <trkpt lat="44.62695" lon="5.79779">
        <ele>1697.2</ele>
        <time>2023-05-18T11:44:54Z</time>
      </trkpt>
      <trkpt lat="44.62697" lon="5.79778">
        <ele>1697.4</ele>
        <time>2023-05-18T11:44:55Z</time>
      </trkpt>
      <trkpt lat="44.62698" lon="5.79779">
        <ele>1697.6</ele>
        <time>2023-05-18T11:44:56Z</time>
      </trkpt>
      <trkpt lat="44.62699" lon="5.7978">
        <ele>1697.8</ele>
        <time>2023-05-18T11:44:57Z</time>
      </trkpt>
      <trkpt lat="44.62699" lon="5.79782">
        <ele>1698</ele>
        <time>2023-05-18T11:44:58Z</time>
      </trkpt>
      <trkpt lat="44.627" lon="5.79784">
        <ele>1698.2</ele>
        <time>2023-05-18T11:44:59Z</time>
      </trkpt>
      <trkpt lat="44.627" lon="5.79786">
        <ele>1698.4</ele>
        <time>2023-05-18T11:45:00Z</time>
      </trkpt>
      <trkpt lat="44.627" lon="5.79788">
        <ele>1698.2</ele>
        <time>2023-05-18T11:45:01Z</time>
      </trkpt>
      <trkpt lat="44.627" lon="5.7979">
        <ele>1698.4</ele>
        <time>2023-05-18T11:45:02Z</time>
      </trkpt>
      <trkpt lat="44.627" lon="5.79791">
        <ele>1698.4</ele>
        <time>2023-05-18T11:45:03Z</time>
      </trkpt>
      <trkpt lat="44.627" lon="5.79792">
        <ele>1698.6</ele>
        <time>2023-05-18T11:45:04Z</time>
      </trkpt>
      <trkpt lat="44.627" lon="5.79793">
        <ele>1698.6</ele>
        <time>2023-05-18T11:45:05Z</time>
      </trkpt>
      <trkpt lat="44.627" lon="5.79793">
        <ele>1698.6</ele>
        <time>2023-05-18T11:45:06Z</time>
      </trkpt>
      <trkpt lat="44.62701" lon="5.79795">
        <ele>1698.6</ele>
        <time>2023-05-18T11:45:07Z</time>
      </trkpt>
      <trkpt lat="44.62702" lon="5.79797">
        <ele>1698.6</ele>
        <time>2023-05-18T11:45:08Z</time>
      </trkpt>
      <trkpt lat="44.62703" lon="5.79798">
        <ele>1698.6</ele>
        <time>2023-05-18T11:45:09Z</time>
      </trkpt>
      <trkpt lat="44.62703" lon="5.798">
        <ele>1698.6</ele>
        <time>2023-05-18T11:45:10Z</time>
      </trkpt>
      <trkpt lat="44.62704" lon="5.79801">
        <ele>1698.6</ele>
        <time>2023-05-18T11:45:11Z</time>
      </trkpt>
      <trkpt lat="44.62704" lon="5.79803">
        <ele>1698.6</ele>
        <time>2023-05-18T11:45:12Z</time>
      </trkpt>
      <trkpt lat="44.62705" lon="5.79803">
        <ele>1698.6</ele>
        <time>2023-05-18T11:45:13Z</time>
      </trkpt>
      <trkpt lat="44.62705" lon="5.79804">
        <ele>1698.8</ele>
        <time>2023-05-18T11:45:14Z</time>
      </trkpt>
      <trkpt lat="44.62705" lon="5.79804">
        <ele>1699</ele>
        <time>2023-05-18T11:45:15Z</time>
      </trkpt>
      <trkpt lat="44.62705" lon="5.79804">
        <ele>1699.2</ele>
        <time>2023-05-18T11:45:16Z</time>
      </trkpt>
      <trkpt lat="44.62705" lon="5.79804">
        <ele>1699.4</ele>
        <time>2023-05-18T11:45:17Z</time>
      </trkpt>
      <trkpt lat="44.62706" lon="5.79805">
        <ele>1699.4</ele>
        <time>2023-05-18T11:45:18Z</time>
      </trkpt>
      <trkpt lat="44.62707" lon="5.79806">
        <ele>1699.6</ele>
        <time>2023-05-18T11:45:19Z</time>
      </trkpt>
      <trkpt lat="44.62708" lon="5.79808">
        <ele>1700</ele>
        <time>2023-05-18T11:45:21Z</time>
      </trkpt>
      <trkpt lat="44.62709" lon="5.79809">
        <ele>1700.2</ele>
        <time>2023-05-18T11:45:22Z</time>
      </trkpt>
      <trkpt lat="44.6271" lon="5.7981">
        <ele>1700.4</ele>
        <time>2023-05-18T11:45:23Z</time>
      </trkpt>
      <trkpt lat="44.6271" lon="5.7981">
        <ele>1700.4</ele>
        <time>2023-05-18T11:45:24Z</time>
      </trkpt>
      <trkpt lat="44.6271" lon="5.7981">
        <ele>1700.4</ele>
        <time>2023-05-18T11:45:25Z</time>
      </trkpt>
      <trkpt lat="44.6271" lon="5.7981">
        <ele>1700.6</ele>
        <time>2023-05-18T11:45:30Z</time>
      </trkpt>
      <trkpt lat="44.62711" lon="5.7981">
        <ele>1700.8</ele>
        <time>2023-05-18T11:45:32Z</time>
      </trkpt>
      <trkpt lat="44.62712" lon="5.7981">
        <ele>1700.8</ele>
        <time>2023-05-18T11:45:33Z</time>
      </trkpt>
      <trkpt lat="44.62714" lon="5.7981">
        <ele>1700.8</ele>
        <time>2023-05-18T11:45:34Z</time>
      </trkpt>
      <trkpt lat="44.62714" lon="5.7981">
        <ele>1700.8</ele>
        <time>2023-05-18T11:45:35Z</time>
      </trkpt>
      <trkpt lat="44.62715" lon="5.7981">
        <ele>1701</ele>
        <time>2023-05-18T11:45:36Z</time>
      </trkpt>
      <trkpt lat="44.62716" lon="5.79811">
        <ele>1701</ele>
        <time>2023-05-18T11:45:37Z</time>
      </trkpt>
      <trkpt lat="44.62717" lon="5.7981">
        <ele>1701.2</ele>
        <time>2023-05-18T11:45:38Z</time>
      </trkpt>
      <trkpt lat="44.62718" lon="5.7981">
        <ele>1701.2</ele>
        <time>2023-05-18T11:45:39Z</time>
      </trkpt>
      <trkpt lat="44.6272" lon="5.79811">
        <ele>1701.4</ele>
        <time>2023-05-18T11:45:40Z</time>
      </trkpt>
      <trkpt lat="44.62721" lon="5.79812">
        <ele>1701.4</ele>
        <time>2023-05-18T11:45:41Z</time>
      </trkpt>
      <trkpt lat="44.62722" lon="5.79814">
        <ele>1701.6</ele>
        <time>2023-05-18T11:45:42Z</time>
      </trkpt>
      <trkpt lat="44.62726" lon="5.79815">
        <ele>1702</ele>
        <time>2023-05-18T11:45:45Z</time>
      </trkpt>
      <trkpt lat="44.62727" lon="5.79815">
        <ele>1702</ele>
        <time>2023-05-18T11:45:46Z</time>
      </trkpt>
      <trkpt lat="44.62728" lon="5.79815">
        <ele>1702.2</ele>
        <time>2023-05-18T11:45:47Z</time>
      </trkpt>
      <trkpt lat="44.62729" lon="5.79817">
        <ele>1702.2</ele>
        <time>2023-05-18T11:45:48Z</time>
      </trkpt>
      <trkpt lat="44.6273" lon="5.79817">
        <ele>1702.4</ele>
        <time>2023-05-18T11:45:49Z</time>
      </trkpt>
      <trkpt lat="44.62731" lon="5.79818">
        <ele>1702.6</ele>
        <time>2023-05-18T11:45:50Z</time>
      </trkpt>
      <trkpt lat="44.62732" lon="5.7982">
        <ele>1702.8</ele>
        <time>2023-05-18T11:45:51Z</time>
      </trkpt>
      <trkpt lat="44.62733" lon="5.79821">
        <ele>1702.8</ele>
        <time>2023-05-18T11:45:52Z</time>
      </trkpt>
      <trkpt lat="44.62734" lon="5.79821">
        <ele>1702.8</ele>
        <time>2023-05-18T11:45:53Z</time>
      </trkpt>
      <trkpt lat="44.62736" lon="5.79821">
        <ele>1703</ele>
        <time>2023-05-18T11:45:54Z</time>
      </trkpt>
      <trkpt lat="44.62737" lon="5.79821">
        <ele>1703</ele>
        <time>2023-05-18T11:45:55Z</time>
      </trkpt>
      <trkpt lat="44.62738" lon="5.79821">
        <ele>1703.4</ele>
        <time>2023-05-18T11:45:56Z</time>
      </trkpt>
      <trkpt lat="44.62739" lon="5.79822">
        <ele>1703.4</ele>
        <time>2023-05-18T11:45:57Z</time>
      </trkpt>
      <trkpt lat="44.6274" lon="5.79822">
        <ele>1703.6</ele>
        <time>2023-05-18T11:45:58Z</time>
      </trkpt>
      <trkpt lat="44.62741" lon="5.79823">
        <ele>1703.8</ele>
        <time>2023-05-18T11:45:59Z</time>
      </trkpt>
      <trkpt lat="44.62742" lon="5.79824">
        <ele>1703.8</ele>
        <time>2023-05-18T11:46:00Z</time>
      </trkpt>
      <trkpt lat="44.62743" lon="5.79825">
        <ele>1704</ele>
        <time>2023-05-18T11:46:01Z</time>
      </trkpt>
      <trkpt lat="44.62745" lon="5.79827">
        <ele>1704.2</ele>
        <time>2023-05-18T11:46:02Z</time>
      </trkpt>
      <trkpt lat="44.62746" lon="5.79828">
        <ele>1704.4</ele>
        <time>2023-05-18T11:46:03Z</time>
      </trkpt>
      <trkpt lat="44.62747" lon="5.79828">
        <ele>1704.6</ele>
        <time>2023-05-18T11:46:04Z</time>
      </trkpt>
      <trkpt lat="44.62748" lon="5.79829">
        <ele>1704.8</ele>
        <time>2023-05-18T11:46:05Z</time>
      </trkpt>
      <trkpt lat="44.62749" lon="5.79831">
        <ele>1704.8</ele>
        <time>2023-05-18T11:46:06Z</time>
      </trkpt>
      <trkpt lat="44.62751" lon="5.79832">
        <ele>1705</ele>
        <time>2023-05-18T11:46:07Z</time>
      </trkpt>
      <trkpt lat="44.62751" lon="5.79832">
        <ele>1705.2</ele>
        <time>2023-05-18T11:46:08Z</time>
      </trkpt>
      <trkpt lat="44.62752" lon="5.79833">
        <ele>1705.4</ele>
        <time>2023-05-18T11:46:09Z</time>
      </trkpt>
      <trkpt lat="44.62753" lon="5.79834">
        <ele>1705.6</ele>
        <time>2023-05-18T11:46:10Z</time>
      </trkpt>
      <trkpt lat="44.62754" lon="5.79836">
        <ele>1705.6</ele>
        <time>2023-05-18T11:46:11Z</time>
      </trkpt>
      <trkpt lat="44.62756" lon="5.79836">
        <ele>1705.6</ele>
        <time>2023-05-18T11:46:12Z</time>
      </trkpt>
      <trkpt lat="44.62757" lon="5.79837">
        <ele>1705.8</ele>
        <time>2023-05-18T11:46:13Z</time>
      </trkpt>
      <trkpt lat="44.62758" lon="5.79837">
        <ele>1705.8</ele>
        <time>2023-05-18T11:46:14Z</time>
      </trkpt>
      <trkpt lat="44.62759" lon="5.79838">
        <ele>1705.8</ele>
        <time>2023-05-18T11:46:15Z</time>
      </trkpt>
      <trkpt lat="44.6276" lon="5.79839">
        <ele>1706</ele>
        <time>2023-05-18T11:46:16Z</time>
      </trkpt>
      <trkpt lat="44.62761" lon="5.79839">
        <ele>1706.2</ele>
        <time>2023-05-18T11:46:17Z</time>
      </trkpt>
      <trkpt lat="44.62762" lon="5.79839">
        <ele>1706.2</ele>
        <time>2023-05-18T11:46:18Z</time>
      </trkpt>
      <trkpt lat="44.62763" lon="5.79839">
        <ele>1706.4</ele>
        <time>2023-05-18T11:46:19Z</time>
      </trkpt>
      <trkpt lat="44.62764" lon="5.79839">
        <ele>1706.4</ele>
        <time>2023-05-18T11:46:20Z</time>
      </trkpt>
      <trkpt lat="44.62765" lon="5.79839">
        <ele>1706.6</ele>
        <time>2023-05-18T11:46:21Z</time>
      </trkpt>
      <trkpt lat="44.62766" lon="5.79839">
        <ele>1706.6</ele>
        <time>2023-05-18T11:46:22Z</time>
      </trkpt>
      <trkpt lat="44.62767" lon="5.7984">
        <ele>1706.8</ele>
        <time>2023-05-18T11:46:23Z</time>
      </trkpt>
      <trkpt lat="44.62769" lon="5.7984">
        <ele>1706.8</ele>
        <time>2023-05-18T11:46:24Z</time>
      </trkpt>
      <trkpt lat="44.6277" lon="5.79839">
        <ele>1707</ele>
        <time>2023-05-18T11:46:25Z</time>
      </trkpt>
      <trkpt lat="44.62771" lon="5.79839">
        <ele>1707.2</ele>
        <time>2023-05-18T11:46:26Z</time>
      </trkpt>
      <trkpt lat="44.62773" lon="5.79839">
        <ele>1707.2</ele>
        <time>2023-05-18T11:46:27Z</time>
      </trkpt>
      <trkpt lat="44.62774" lon="5.79839">
        <ele>1707.4</ele>
        <time>2023-05-18T11:46:28Z</time>
      </trkpt>
      <trkpt lat="44.62775" lon="5.79838">
        <ele>1707.6</ele>
        <time>2023-05-18T11:46:29Z</time>
      </trkpt>
      <trkpt lat="44.62777" lon="5.79838">
        <ele>1708</ele>
        <time>2023-05-18T11:46:30Z</time>
      </trkpt>
      <trkpt lat="44.62778" lon="5.79837">
        <ele>1708</ele>
        <time>2023-05-18T11:46:31Z</time>
      </trkpt>
      <trkpt lat="44.62779" lon="5.79837">
        <ele>1708.2</ele>
        <time>2023-05-18T11:46:32Z</time>
      </trkpt>
      <trkpt lat="44.62781" lon="5.79837">
        <ele>1708.4</ele>
        <time>2023-05-18T11:46:33Z</time>
      </trkpt>
      <trkpt lat="44.62783" lon="5.79839">
        <ele>1708.4</ele>
        <time>2023-05-18T11:46:34Z</time>
      </trkpt>
      <trkpt lat="44.62785" lon="5.79841">
        <ele>1708.6</ele>
        <time>2023-05-18T11:46:35Z</time>
      </trkpt>
      <trkpt lat="44.62785" lon="5.79843">
        <ele>1708.6</ele>
        <time>2023-05-18T11:46:36Z</time>
      </trkpt>
      <trkpt lat="44.62786" lon="5.79846">
        <ele>1708.4</ele>
        <time>2023-05-18T11:46:37Z</time>
      </trkpt>
      <trkpt lat="44.62787" lon="5.7985">
        <ele>1708.4</ele>
        <time>2023-05-18T11:46:38Z</time>
      </trkpt>
      <trkpt lat="44.62787" lon="5.79852">
        <ele>1708.4</ele>
        <time>2023-05-18T11:46:39Z</time>
      </trkpt>
      <trkpt lat="44.62788" lon="5.79855">
        <ele>1708.4</ele>
        <time>2023-05-18T11:46:40Z</time>
      </trkpt>
      <trkpt lat="44.62788" lon="5.79858">
        <ele>1708.4</ele>
        <time>2023-05-18T11:46:41Z</time>
      </trkpt>
      <trkpt lat="44.62789" lon="5.7986">
        <ele>1708.4</ele>
        <time>2023-05-18T11:46:42Z</time>
      </trkpt>
      <trkpt lat="44.6279" lon="5.79861">
        <ele>1708.4</ele>
        <time>2023-05-18T11:46:43Z</time>
      </trkpt>
      <trkpt lat="44.62791" lon="5.79862">
        <ele>1708.4</ele>
        <time>2023-05-18T11:46:44Z</time>
      </trkpt>
      <trkpt lat="44.62793" lon="5.79862">
        <ele>1708.4</ele>
        <time>2023-05-18T11:46:45Z</time>
      </trkpt>
      <trkpt lat="44.62794" lon="5.79863">
        <ele>1708.4</ele>
        <time>2023-05-18T11:46:46Z</time>
      </trkpt>
      <trkpt lat="44.62796" lon="5.79865">
        <ele>1708.4</ele>
        <time>2023-05-18T11:46:47Z</time>
      </trkpt>
      <trkpt lat="44.62797" lon="5.79866">
        <ele>1708.6</ele>
        <time>2023-05-18T11:46:48Z</time>
      </trkpt>
      <trkpt lat="44.62798" lon="5.79866">
        <ele>1708.6</ele>
        <time>2023-05-18T11:46:49Z</time>
      </trkpt>
      <trkpt lat="44.62798" lon="5.79866">
        <ele>1708.8</ele>
        <time>2023-05-18T11:46:50Z</time>
      </trkpt>
      <trkpt lat="44.62798" lon="5.79866">
        <ele>1709</ele>
        <time>2023-05-18T11:46:51Z</time>
      </trkpt>
      <trkpt lat="44.62798" lon="5.79866">
        <ele>1709.6</ele>
        <time>2023-05-18T11:47:01Z</time>
      </trkpt>
      <trkpt lat="44.62798" lon="5.79866">
        <ele>1709.6</ele>
        <time>2023-05-18T11:47:22Z</time>
      </trkpt>
      <trkpt lat="44.62798" lon="5.79868">
        <ele>1709.6</ele>
        <time>2023-05-18T11:47:32Z</time>
      </trkpt>
      <trkpt lat="44.62798" lon="5.79868">
        <ele>1709.6</ele>
        <time>2023-05-18T11:47:33Z</time>
      </trkpt>
      <trkpt lat="44.62798" lon="5.79868">
        <ele>1709.6</ele>
        <time>2023-05-18T11:47:34Z</time>
      </trkpt>
      <trkpt lat="44.62799" lon="5.79869">
        <ele>1709.8</ele>
        <time>2023-05-18T11:47:40Z</time>
      </trkpt>
      <trkpt lat="44.62801" lon="5.7987">
        <ele>1709.8</ele>
        <time>2023-05-18T11:47:41Z</time>
      </trkpt>
      <trkpt lat="44.62802" lon="5.79871">
        <ele>1710</ele>
        <time>2023-05-18T11:47:42Z</time>
      </trkpt>
      <trkpt lat="44.62804" lon="5.79874">
        <ele>1710</ele>
        <time>2023-05-18T11:47:44Z</time>
      </trkpt>
      <trkpt lat="44.62806" lon="5.79875">
        <ele>1710</ele>
        <time>2023-05-18T11:47:45Z</time>
      </trkpt>
      <trkpt lat="44.62809" lon="5.79878">
        <ele>1710.2</ele>
        <time>2023-05-18T11:47:48Z</time>
      </trkpt>
      <trkpt lat="44.62813" lon="5.79882">
        <ele>1710.8</ele>
        <time>2023-05-18T11:47:51Z</time>
      </trkpt>
      <trkpt lat="44.62821" lon="5.79889">
        <ele>1711.4</ele>
        <time>2023-05-18T11:47:57Z</time>
      </trkpt>
      <trkpt lat="44.62822" lon="5.79889">
        <ele>1711.6</ele>
        <time>2023-05-18T11:47:58Z</time>
      </trkpt>
      <trkpt lat="44.62823" lon="5.7989">
        <ele>1711.6</ele>
        <time>2023-05-18T11:47:59Z</time>
      </trkpt>
      <trkpt lat="44.62823" lon="5.79892">
        <ele>1711.8</ele>
        <time>2023-05-18T11:48:00Z</time>
      </trkpt>
      <trkpt lat="44.62824" lon="5.79894">
        <ele>1711.8</ele>
        <time>2023-05-18T11:48:01Z</time>
      </trkpt>
      <trkpt lat="44.62824" lon="5.79898">
        <ele>1712</ele>
        <time>2023-05-18T11:48:03Z</time>
      </trkpt>
      <trkpt lat="44.62825" lon="5.799">
        <ele>1712.2</ele>
        <time>2023-05-18T11:48:04Z</time>
      </trkpt>
      <trkpt lat="44.62826" lon="5.79902">
        <ele>1712.2</ele>
        <time>2023-05-18T11:48:05Z</time>
      </trkpt>
      <trkpt lat="44.62827" lon="5.79903">
        <ele>1712.4</ele>
        <time>2023-05-18T11:48:06Z</time>
      </trkpt>
      <trkpt lat="44.62828" lon="5.79904">
        <ele>1712.6</ele>
        <time>2023-05-18T11:48:07Z</time>
      </trkpt>
      <trkpt lat="44.6283" lon="5.79905">
        <ele>1712.8</ele>
        <time>2023-05-18T11:48:09Z</time>
      </trkpt>
      <trkpt lat="44.62835" lon="5.79908">
        <ele>1713.2</ele>
        <time>2023-05-18T11:48:12Z</time>
      </trkpt>
      <trkpt lat="44.62836" lon="5.79909">
        <ele>1713.4</ele>
        <time>2023-05-18T11:48:13Z</time>
      </trkpt>
      <trkpt lat="44.62837" lon="5.7991">
        <ele>1713.4</ele>
        <time>2023-05-18T11:48:14Z</time>
      </trkpt>
      <trkpt lat="44.62838" lon="5.7991">
        <ele>1713.6</ele>
        <time>2023-05-18T11:48:15Z</time>
      </trkpt>
      <trkpt lat="44.62839" lon="5.7991">
        <ele>1713.8</ele>
        <time>2023-05-18T11:48:16Z</time>
      </trkpt>
      <trkpt lat="44.62841" lon="5.79911">
        <ele>1713.8</ele>
        <time>2023-05-18T11:48:17Z</time>
      </trkpt>
      <trkpt lat="44.62842" lon="5.79911">
        <ele>1714</ele>
        <time>2023-05-18T11:48:18Z</time>
      </trkpt>
      <trkpt lat="44.62843" lon="5.79912">
        <ele>1714</ele>
        <time>2023-05-18T11:48:19Z</time>
      </trkpt>
      <trkpt lat="44.62845" lon="5.79913">
        <ele>1714</ele>
        <time>2023-05-18T11:48:20Z</time>
      </trkpt>
      <trkpt lat="44.62846" lon="5.79914">
        <ele>1714</ele>
        <time>2023-05-18T11:48:21Z</time>
      </trkpt>
      <trkpt lat="44.62847" lon="5.79915">
        <ele>1714</ele>
        <time>2023-05-18T11:48:22Z</time>
      </trkpt>
      <trkpt lat="44.62848" lon="5.79916">
        <ele>1714</ele>
        <time>2023-05-18T11:48:23Z</time>
      </trkpt>
      <trkpt lat="44.62849" lon="5.79918">
        <ele>1714.2</ele>
        <time>2023-05-18T11:48:24Z</time>
      </trkpt>
      <trkpt lat="44.62851" lon="5.79919">
        <ele>1714.2</ele>
        <time>2023-05-18T11:48:25Z</time>
      </trkpt>
      <trkpt lat="44.62851" lon="5.7992">
        <ele>1714.2</ele>
        <time>2023-05-18T11:48:26Z</time>
      </trkpt>
      <trkpt lat="44.62852" lon="5.79922">
        <ele>1714.4</ele>
        <time>2023-05-18T11:48:27Z</time>
      </trkpt>
      <trkpt lat="44.62853" lon="5.79923">
        <ele>1714.4</ele>
        <time>2023-05-18T11:48:28Z</time>
      </trkpt>
      <trkpt lat="44.62853" lon="5.79924">
        <ele>1714.4</ele>
        <time>2023-05-18T11:48:29Z</time>
      </trkpt>
      <trkpt lat="44.62854" lon="5.79924">
        <ele>1714.6</ele>
        <time>2023-05-18T11:48:30Z</time>
      </trkpt>
      <trkpt lat="44.62855" lon="5.79925">
        <ele>1714.6</ele>
        <time>2023-05-18T11:48:31Z</time>
      </trkpt>
      <trkpt lat="44.62854" lon="5.79925">
        <ele>1714.8</ele>
        <time>2023-05-18T11:48:33Z</time>
      </trkpt>
      <trkpt lat="44.62855" lon="5.79926">
        <ele>1715</ele>
        <time>2023-05-18T11:48:34Z</time>
      </trkpt>
      <trkpt lat="44.62856" lon="5.79929">
        <ele>1715.4</ele>
        <time>2023-05-18T11:48:38Z</time>
      </trkpt>
      <trkpt lat="44.62857" lon="5.79931">
        <ele>1715.4</ele>
        <time>2023-05-18T11:48:39Z</time>
      </trkpt>
      <trkpt lat="44.62858" lon="5.79934">
        <ele>1715.6</ele>
        <time>2023-05-18T11:48:41Z</time>
      </trkpt>
      <trkpt lat="44.6286" lon="5.79936">
        <ele>1715.6</ele>
        <time>2023-05-18T11:48:42Z</time>
      </trkpt>
      <trkpt lat="44.6286" lon="5.79937">
        <ele>1715.8</ele>
        <time>2023-05-18T11:48:43Z</time>
      </trkpt>
      <trkpt lat="44.62861" lon="5.79938">
        <ele>1715.8</ele>
        <time>2023-05-18T11:48:44Z</time>
      </trkpt>
      <trkpt lat="44.62862" lon="5.79941">
        <ele>1716</ele>
        <time>2023-05-18T11:48:46Z</time>
      </trkpt>
      <trkpt lat="44.62869" lon="5.7995">
        <ele>1716.4</ele>
        <time>2023-05-18T11:48:53Z</time>
      </trkpt>
      <trkpt lat="44.62873" lon="5.79956">
        <ele>1716.6</ele>
        <time>2023-05-18T11:48:59Z</time>
      </trkpt>
      <trkpt lat="44.62874" lon="5.79956">
        <ele>1716.8</ele>
        <time>2023-05-18T11:49:01Z</time>
      </trkpt>
      <trkpt lat="44.62874" lon="5.79957">
        <ele>1716.8</ele>
        <time>2023-05-18T11:49:02Z</time>
      </trkpt>
      <trkpt lat="44.62875" lon="5.79959">
        <ele>1717</ele>
        <time>2023-05-18T11:49:04Z</time>
      </trkpt>
      <trkpt lat="44.62875" lon="5.7996">
        <ele>1717.2</ele>
        <time>2023-05-18T11:49:05Z</time>
      </trkpt>
      <trkpt lat="44.62876" lon="5.79961">
        <ele>1717.2</ele>
        <time>2023-05-18T11:49:06Z</time>
      </trkpt>
      <trkpt lat="44.62877" lon="5.79963">
        <ele>1717.2</ele>
        <time>2023-05-18T11:49:08Z</time>
      </trkpt>
      <trkpt lat="44.62878" lon="5.79965">
        <ele>1717.2</ele>
        <time>2023-05-18T11:49:09Z</time>
      </trkpt>
      <trkpt lat="44.62879" lon="5.79965">
        <ele>1717.4</ele>
        <time>2023-05-18T11:49:10Z</time>
      </trkpt>
      <trkpt lat="44.62884" lon="5.79969">
        <ele>1717.8</ele>
        <time>2023-05-18T11:49:15Z</time>
      </trkpt>
      <trkpt lat="44.62885" lon="5.79971">
        <ele>1718</ele>
        <time>2023-05-18T11:49:16Z</time>
      </trkpt>
      <trkpt lat="44.62885" lon="5.79973">
        <ele>1718.2</ele>
        <time>2023-05-18T11:49:17Z</time>
      </trkpt>
      <trkpt lat="44.62886" lon="5.79974">
        <ele>1718.4</ele>
        <time>2023-05-18T11:49:18Z</time>
      </trkpt>
      <trkpt lat="44.62886" lon="5.79976">
        <ele>1718.6</ele>
        <time>2023-05-18T11:49:19Z</time>
      </trkpt>
      <trkpt lat="44.62888" lon="5.79978">
        <ele>1718.8</ele>
        <time>2023-05-18T11:49:21Z</time>
      </trkpt>
      <trkpt lat="44.62889" lon="5.79979">
        <ele>1718.8</ele>
        <time>2023-05-18T11:49:22Z</time>
      </trkpt>
      <trkpt lat="44.62889" lon="5.79981">
        <ele>1719</ele>
        <time>2023-05-18T11:49:23Z</time>
      </trkpt>
      <trkpt lat="44.6289" lon="5.79982">
        <ele>1719.2</ele>
        <time>2023-05-18T11:49:24Z</time>
      </trkpt>
      <trkpt lat="44.6289" lon="5.79983">
        <ele>1719.4</ele>
        <time>2023-05-18T11:49:25Z</time>
      </trkpt>
      <trkpt lat="44.62891" lon="5.79985">
        <ele>1719.4</ele>
        <time>2023-05-18T11:49:26Z</time>
      </trkpt>
      <trkpt lat="44.62891" lon="5.79986">
        <ele>1719.6</ele>
        <time>2023-05-18T11:49:27Z</time>
      </trkpt>
      <trkpt lat="44.62892" lon="5.79988">
        <ele>1719.8</ele>
        <time>2023-05-18T11:49:28Z</time>
      </trkpt>
      <trkpt lat="44.62893" lon="5.79989">
        <ele>1719.8</ele>
        <time>2023-05-18T11:49:29Z</time>
      </trkpt>
      <trkpt lat="44.62894" lon="5.7999">
        <ele>1720</ele>
        <time>2023-05-18T11:49:30Z</time>
      </trkpt>
      <trkpt lat="44.62894" lon="5.79991">
        <ele>1720</ele>
        <time>2023-05-18T11:49:31Z</time>
      </trkpt>
      <trkpt lat="44.62894" lon="5.79991">
        <ele>1720.2</ele>
        <time>2023-05-18T11:49:32Z</time>
      </trkpt>
      <trkpt lat="44.62894" lon="5.79991">
        <ele>1720.2</ele>
        <time>2023-05-18T11:49:33Z</time>
      </trkpt>
      <trkpt lat="44.62894" lon="5.79991">
        <ele>1720.4</ele>
        <time>2023-05-18T11:49:35Z</time>
      </trkpt>
      <trkpt lat="44.62894" lon="5.79992">
        <ele>1720.6</ele>
        <time>2023-05-18T11:49:36Z</time>
      </trkpt>
      <trkpt lat="44.62895" lon="5.79993">
        <ele>1720.6</ele>
        <time>2023-05-18T11:49:37Z</time>
      </trkpt>
      <trkpt lat="44.62896" lon="5.79994">
        <ele>1720.8</ele>
        <time>2023-05-18T11:49:38Z</time>
      </trkpt>
      <trkpt lat="44.62896" lon="5.79995">
        <ele>1720.8</ele>
        <time>2023-05-18T11:49:39Z</time>
      </trkpt>
      <trkpt lat="44.62897" lon="5.79997">
        <ele>1720.8</ele>
        <time>2023-05-18T11:49:40Z</time>
      </trkpt>
      <trkpt lat="44.62898" lon="5.79999">
        <ele>1721</ele>
        <time>2023-05-18T11:49:41Z</time>
      </trkpt>
      <trkpt lat="44.62899" lon="5.80001">
        <ele>1721</ele>
        <time>2023-05-18T11:49:42Z</time>
      </trkpt>
      <trkpt lat="44.62899" lon="5.80002">
        <ele>1721</ele>
        <time>2023-05-18T11:49:43Z</time>
      </trkpt>
      <trkpt lat="44.629" lon="5.80003">
        <ele>1721</ele>
        <time>2023-05-18T11:49:44Z</time>
      </trkpt>
      <trkpt lat="44.629" lon="5.80003">
        <ele>1721.2</ele>
        <time>2023-05-18T11:49:47Z</time>
      </trkpt>
      <trkpt lat="44.629" lon="5.80004">
        <ele>1721.2</ele>
        <time>2023-05-18T11:49:48Z</time>
      </trkpt>
      <trkpt lat="44.62902" lon="5.80007">
        <ele>1721.4</ele>
        <time>2023-05-18T11:49:50Z</time>
      </trkpt>
      <trkpt lat="44.62903" lon="5.80008">
        <ele>1721.4</ele>
        <time>2023-05-18T11:49:51Z</time>
      </trkpt>
      <trkpt lat="44.62906" lon="5.80012">
        <ele>1721.6</ele>
        <time>2023-05-18T11:49:54Z</time>
      </trkpt>
      <trkpt lat="44.62913" lon="5.80024">
        <ele>1722.4</ele>
        <time>2023-05-18T11:50:03Z</time>
      </trkpt>
      <trkpt lat="44.62913" lon="5.80026">
        <ele>1722.4</ele>
        <time>2023-05-18T11:50:04Z</time>
      </trkpt>
      <trkpt lat="44.62914" lon="5.80027">
        <ele>1722.6</ele>
        <time>2023-05-18T11:50:05Z</time>
      </trkpt>
      <trkpt lat="44.62914" lon="5.80028">
        <ele>1722.6</ele>
        <time>2023-05-18T11:50:06Z</time>
      </trkpt>
      <trkpt lat="44.62915" lon="5.8003">
        <ele>1722.8</ele>
        <time>2023-05-18T11:50:07Z</time>
      </trkpt>
      <trkpt lat="44.62916" lon="5.8003">
        <ele>1722.8</ele>
        <time>2023-05-18T11:50:08Z</time>
      </trkpt>
      <trkpt lat="44.62917" lon="5.80031">
        <ele>1722.8</ele>
        <time>2023-05-18T11:50:09Z</time>
      </trkpt>
      <trkpt lat="44.62917" lon="5.80032">
        <ele>1723</ele>
        <time>2023-05-18T11:50:10Z</time>
      </trkpt>
      <trkpt lat="44.62918" lon="5.80033">
        <ele>1723.2</ele>
        <time>2023-05-18T11:50:11Z</time>
      </trkpt>
      <trkpt lat="44.62918" lon="5.80033">
        <ele>1723.2</ele>
        <time>2023-05-18T11:50:12Z</time>
      </trkpt>
      <trkpt lat="44.62918" lon="5.80033">
        <ele>1723.4</ele>
        <time>2023-05-18T11:50:13Z</time>
      </trkpt>
      <trkpt lat="44.62918" lon="5.80034">
        <ele>1723.6</ele>
        <time>2023-05-18T11:50:16Z</time>
      </trkpt>
      <trkpt lat="44.62919" lon="5.80035">
        <ele>1723.8</ele>
        <time>2023-05-18T11:50:17Z</time>
      </trkpt>
      <trkpt lat="44.6292" lon="5.80036">
        <ele>1723.8</ele>
        <time>2023-05-18T11:50:18Z</time>
      </trkpt>
      <trkpt lat="44.6292" lon="5.80037">
        <ele>1724</ele>
        <time>2023-05-18T11:50:19Z</time>
      </trkpt>
      <trkpt lat="44.62921" lon="5.80038">
        <ele>1724</ele>
        <time>2023-05-18T11:50:20Z</time>
      </trkpt>
      <trkpt lat="44.62923" lon="5.8004">
        <ele>1724.2</ele>
        <time>2023-05-18T11:50:23Z</time>
      </trkpt>
      <trkpt lat="44.62925" lon="5.80043">
        <ele>1724.4</ele>
        <time>2023-05-18T11:50:25Z</time>
      </trkpt>
      <trkpt lat="44.62926" lon="5.80046">
        <ele>1724.8</ele>
        <time>2023-05-18T11:50:27Z</time>
      </trkpt>
      <trkpt lat="44.62927" lon="5.80048">
        <ele>1724.8</ele>
        <time>2023-05-18T11:50:28Z</time>
      </trkpt>
      <trkpt lat="44.6293" lon="5.80052">
        <ele>1725.2</ele>
        <time>2023-05-18T11:50:31Z</time>
      </trkpt>
      <trkpt lat="44.62932" lon="5.80055">
        <ele>1725.6</ele>
        <time>2023-05-18T11:50:35Z</time>
      </trkpt>
      <trkpt lat="44.62933" lon="5.80056">
        <ele>1725.6</ele>
        <time>2023-05-18T11:50:36Z</time>
      </trkpt>
      <trkpt lat="44.62933" lon="5.80056">
        <ele>1725.8</ele>
        <time>2023-05-18T11:50:37Z</time>
      </trkpt>
      <trkpt lat="44.62934" lon="5.80057">
        <ele>1725.8</ele>
        <time>2023-05-18T11:50:38Z</time>
      </trkpt>
      <trkpt lat="44.62935" lon="5.80057">
        <ele>1726</ele>
        <time>2023-05-18T11:50:39Z</time>
      </trkpt>
      <trkpt lat="44.62936" lon="5.80058">
        <ele>1726</ele>
        <time>2023-05-18T11:50:40Z</time>
      </trkpt>
      <trkpt lat="44.62937" lon="5.80059">
        <ele>1726</ele>
        <time>2023-05-18T11:50:41Z</time>
      </trkpt>
      <trkpt lat="44.62938" lon="5.8006">
        <ele>1726.4</ele>
        <time>2023-05-18T11:50:42Z</time>
      </trkpt>
      <trkpt lat="44.62939" lon="5.80061">
        <ele>1726.4</ele>
        <time>2023-05-18T11:50:43Z</time>
      </trkpt>
      <trkpt lat="44.6294" lon="5.80061">
        <ele>1726.6</ele>
        <time>2023-05-18T11:50:44Z</time>
      </trkpt>
      <trkpt lat="44.6294" lon="5.80062">
        <ele>1726.6</ele>
        <time>2023-05-18T11:50:45Z</time>
      </trkpt>
      <trkpt lat="44.62941" lon="5.80063">
        <ele>1726.8</ele>
        <time>2023-05-18T11:50:46Z</time>
      </trkpt>
      <trkpt lat="44.62942" lon="5.80065">
        <ele>1726.8</ele>
        <time>2023-05-18T11:50:47Z</time>
      </trkpt>
      <trkpt lat="44.62943" lon="5.80067">
        <ele>1726.8</ele>
        <time>2023-05-18T11:50:48Z</time>
      </trkpt>
      <trkpt lat="44.62944" lon="5.80068">
        <ele>1727</ele>
        <time>2023-05-18T11:50:49Z</time>
      </trkpt>
      <trkpt lat="44.62944" lon="5.80069">
        <ele>1727</ele>
        <time>2023-05-18T11:50:50Z</time>
      </trkpt>
      <trkpt lat="44.62945" lon="5.8007">
        <ele>1727.2</ele>
        <time>2023-05-18T11:50:51Z</time>
      </trkpt>
      <trkpt lat="44.62945" lon="5.80071">
        <ele>1727.2</ele>
        <time>2023-05-18T11:50:52Z</time>
      </trkpt>
      <trkpt lat="44.62945" lon="5.80072">
        <ele>1727.4</ele>
        <time>2023-05-18T11:50:53Z</time>
      </trkpt>
      <trkpt lat="44.62945" lon="5.80073">
        <ele>1727.4</ele>
        <time>2023-05-18T11:50:54Z</time>
      </trkpt>
      <trkpt lat="44.62946" lon="5.80075">
        <ele>1727.6</ele>
        <time>2023-05-18T11:50:55Z</time>
      </trkpt>
      <trkpt lat="44.62946" lon="5.80077">
        <ele>1727.8</ele>
        <time>2023-05-18T11:50:56Z</time>
      </trkpt>
      <trkpt lat="44.62947" lon="5.80078">
        <ele>1727.8</ele>
        <time>2023-05-18T11:50:57Z</time>
      </trkpt>
      <trkpt lat="44.62947" lon="5.80079">
        <ele>1727.8</ele>
        <time>2023-05-18T11:50:58Z</time>
      </trkpt>
      <trkpt lat="44.62948" lon="5.80081">
        <ele>1728</ele>
        <time>2023-05-18T11:50:59Z</time>
      </trkpt>
      <trkpt lat="44.62949" lon="5.80082">
        <ele>1728.2</ele>
        <time>2023-05-18T11:51:00Z</time>
      </trkpt>
      <trkpt lat="44.6295" lon="5.80084">
        <ele>1728.2</ele>
        <time>2023-05-18T11:51:01Z</time>
      </trkpt>
      <trkpt lat="44.62951" lon="5.80085">
        <ele>1728.2</ele>
        <time>2023-05-18T11:51:02Z</time>
      </trkpt>
      <trkpt lat="44.62952" lon="5.80086">
        <ele>1728.4</ele>
        <time>2023-05-18T11:51:03Z</time>
      </trkpt>
      <trkpt lat="44.62952" lon="5.80087">
        <ele>1728.6</ele>
        <time>2023-05-18T11:51:04Z</time>
      </trkpt>
      <trkpt lat="44.62953" lon="5.80089">
        <ele>1728.6</ele>
        <time>2023-05-18T11:51:05Z</time>
      </trkpt>
      <trkpt lat="44.62954" lon="5.8009">
        <ele>1728.8</ele>
        <time>2023-05-18T11:51:06Z</time>
      </trkpt>
      <trkpt lat="44.62954" lon="5.80091">
        <ele>1728.8</ele>
        <time>2023-05-18T11:51:07Z</time>
      </trkpt>
      <trkpt lat="44.62955" lon="5.80093">
        <ele>1729.2</ele>
        <time>2023-05-18T11:51:08Z</time>
      </trkpt>
      <trkpt lat="44.62955" lon="5.80094">
        <ele>1729.4</ele>
        <time>2023-05-18T11:51:09Z</time>
      </trkpt>
      <trkpt lat="44.62956" lon="5.80095">
        <ele>1729.4</ele>
        <time>2023-05-18T11:51:10Z</time>
      </trkpt>
      <trkpt lat="44.62957" lon="5.80096">
        <ele>1729.8</ele>
        <time>2023-05-18T11:51:11Z</time>
      </trkpt>
      <trkpt lat="44.62958" lon="5.80097">
        <ele>1729.8</ele>
        <time>2023-05-18T11:51:12Z</time>
      </trkpt>
      <trkpt lat="44.62958" lon="5.80098">
        <ele>1729.8</ele>
        <time>2023-05-18T11:51:13Z</time>
      </trkpt>
      <trkpt lat="44.62959" lon="5.801">
        <ele>1730</ele>
        <time>2023-05-18T11:51:14Z</time>
      </trkpt>
      <trkpt lat="44.6296" lon="5.80101">
        <ele>1730</ele>
        <time>2023-05-18T11:51:15Z</time>
      </trkpt>
      <trkpt lat="44.62961" lon="5.80102">
        <ele>1730.2</ele>
        <time>2023-05-18T11:51:16Z</time>
      </trkpt>
      <trkpt lat="44.62961" lon="5.80103">
        <ele>1730.2</ele>
        <time>2023-05-18T11:51:17Z</time>
      </trkpt>
      <trkpt lat="44.62962" lon="5.80104">
        <ele>1730.2</ele>
        <time>2023-05-18T11:51:18Z</time>
      </trkpt>
      <trkpt lat="44.62963" lon="5.80105">
        <ele>1730.4</ele>
        <time>2023-05-18T11:51:19Z</time>
      </trkpt>
      <trkpt lat="44.62964" lon="5.80106">
        <ele>1730.4</ele>
        <time>2023-05-18T11:51:20Z</time>
      </trkpt>
      <trkpt lat="44.62965" lon="5.80107">
        <ele>1730.4</ele>
        <time>2023-05-18T11:51:21Z</time>
      </trkpt>
      <trkpt lat="44.62965" lon="5.80109">
        <ele>1730.6</ele>
        <time>2023-05-18T11:51:22Z</time>
      </trkpt>
      <trkpt lat="44.62966" lon="5.8011">
        <ele>1730.8</ele>
        <time>2023-05-18T11:51:23Z</time>
      </trkpt>
      <trkpt lat="44.62967" lon="5.80112">
        <ele>1730.8</ele>
        <time>2023-05-18T11:51:24Z</time>
      </trkpt>
      <trkpt lat="44.62968" lon="5.80113">
        <ele>1731</ele>
        <time>2023-05-18T11:51:25Z</time>
      </trkpt>
      <trkpt lat="44.62969" lon="5.80114">
        <ele>1731.2</ele>
        <time>2023-05-18T11:51:26Z</time>
      </trkpt>
      <trkpt lat="44.6297" lon="5.80115">
        <ele>1731.2</ele>
        <time>2023-05-18T11:51:27Z</time>
      </trkpt>
      <trkpt lat="44.62971" lon="5.80117">
        <ele>1731.4</ele>
        <time>2023-05-18T11:51:28Z</time>
      </trkpt>
      <trkpt lat="44.62972" lon="5.80118">
        <ele>1731.4</ele>
        <time>2023-05-18T11:51:29Z</time>
      </trkpt>
      <trkpt lat="44.62973" lon="5.80119">
        <ele>1731.4</ele>
        <time>2023-05-18T11:51:30Z</time>
      </trkpt>
      <trkpt lat="44.62974" lon="5.80121">
        <ele>1731.6</ele>
        <time>2023-05-18T11:51:31Z</time>
      </trkpt>
      <trkpt lat="44.62975" lon="5.80122">
        <ele>1731.6</ele>
        <time>2023-05-18T11:51:32Z</time>
      </trkpt>
      <trkpt lat="44.62976" lon="5.80123">
        <ele>1731.6</ele>
        <time>2023-05-18T11:51:33Z</time>
      </trkpt>
      <trkpt lat="44.62976" lon="5.80124">
        <ele>1731.6</ele>
        <time>2023-05-18T11:51:34Z</time>
      </trkpt>
      <trkpt lat="44.62979" lon="5.80127">
        <ele>1732</ele>
        <time>2023-05-18T11:51:37Z</time>
      </trkpt>
      <trkpt lat="44.6298" lon="5.80128">
        <ele>1732.2</ele>
        <time>2023-05-18T11:51:38Z</time>
      </trkpt>
      <trkpt lat="44.62981" lon="5.80129">
        <ele>1732.2</ele>
        <time>2023-05-18T11:51:39Z</time>
      </trkpt>
      <trkpt lat="44.62981" lon="5.8013">
        <ele>1732.4</ele>
        <time>2023-05-18T11:51:40Z</time>
      </trkpt>
      <trkpt lat="44.62982" lon="5.80131">
        <ele>1732.6</ele>
        <time>2023-05-18T11:51:41Z</time>
      </trkpt>
      <trkpt lat="44.62983" lon="5.80132">
        <ele>1732.8</ele>
        <time>2023-05-18T11:51:42Z</time>
      </trkpt>
      <trkpt lat="44.62985" lon="5.80136">
        <ele>1733.2</ele>
        <time>2023-05-18T11:51:45Z</time>
      </trkpt>
      <trkpt lat="44.62986" lon="5.80138">
        <ele>1733.4</ele>
        <time>2023-05-18T11:51:46Z</time>
      </trkpt>
      <trkpt lat="44.62986" lon="5.80139">
        <ele>1733.4</ele>
        <time>2023-05-18T11:51:47Z</time>
      </trkpt>
      <trkpt lat="44.62987" lon="5.80141">
        <ele>1733.6</ele>
        <time>2023-05-18T11:51:48Z</time>
      </trkpt>
      <trkpt lat="44.62988" lon="5.80143">
        <ele>1733.8</ele>
        <time>2023-05-18T11:51:49Z</time>
      </trkpt>
      <trkpt lat="44.62989" lon="5.80144">
        <ele>1733.8</ele>
        <time>2023-05-18T11:51:50Z</time>
      </trkpt>
      <trkpt lat="44.62989" lon="5.80146">
        <ele>1734.2</ele>
        <time>2023-05-18T11:51:51Z</time>
      </trkpt>
      <trkpt lat="44.6299" lon="5.80147">
        <ele>1734.2</ele>
        <time>2023-05-18T11:51:52Z</time>
      </trkpt>
      <trkpt lat="44.62991" lon="5.80149">
        <ele>1734.2</ele>
        <time>2023-05-18T11:51:53Z</time>
      </trkpt>
      <trkpt lat="44.62992" lon="5.8015">
        <ele>1734.2</ele>
        <time>2023-05-18T11:51:54Z</time>
      </trkpt>
      <trkpt lat="44.62993" lon="5.80151">
        <ele>1734.4</ele>
        <time>2023-05-18T11:51:55Z</time>
      </trkpt>
      <trkpt lat="44.62994" lon="5.80152">
        <ele>1734.4</ele>
        <time>2023-05-18T11:51:56Z</time>
      </trkpt>
      <trkpt lat="44.62995" lon="5.80153">
        <ele>1734.4</ele>
        <time>2023-05-18T11:51:57Z</time>
      </trkpt>
      <trkpt lat="44.62996" lon="5.80154">
        <ele>1734.4</ele>
        <time>2023-05-18T11:51:58Z</time>
      </trkpt>
      <trkpt lat="44.62997" lon="5.80155">
        <ele>1734.6</ele>
        <time>2023-05-18T11:51:59Z</time>
      </trkpt>
      <trkpt lat="44.62998" lon="5.80156">
        <ele>1734.6</ele>
        <time>2023-05-18T11:52:00Z</time>
      </trkpt>
      <trkpt lat="44.62999" lon="5.80157">
        <ele>1734.8</ele>
        <time>2023-05-18T11:52:01Z</time>
      </trkpt>
      <trkpt lat="44.63001" lon="5.80158">
        <ele>1735</ele>
        <time>2023-05-18T11:52:02Z</time>
      </trkpt>
      <trkpt lat="44.63002" lon="5.80159">
        <ele>1735</ele>
        <time>2023-05-18T11:52:03Z</time>
      </trkpt>
      <trkpt lat="44.63003" lon="5.8016">
        <ele>1735</ele>
        <time>2023-05-18T11:52:04Z</time>
      </trkpt>
      <trkpt lat="44.63004" lon="5.80161">
        <ele>1735.2</ele>
        <time>2023-05-18T11:52:05Z</time>
      </trkpt>
      <trkpt lat="44.63005" lon="5.80162">
        <ele>1735.2</ele>
        <time>2023-05-18T11:52:06Z</time>
      </trkpt>
      <trkpt lat="44.63006" lon="5.80164">
        <ele>1735.4</ele>
        <time>2023-05-18T11:52:07Z</time>
      </trkpt>
      <trkpt lat="44.63007" lon="5.80164">
        <ele>1735.6</ele>
        <time>2023-05-18T11:52:08Z</time>
      </trkpt>
      <trkpt lat="44.63008" lon="5.80165">
        <ele>1735.8</ele>
        <time>2023-05-18T11:52:09Z</time>
      </trkpt>
      <trkpt lat="44.63009" lon="5.80167">
        <ele>1735.8</ele>
        <time>2023-05-18T11:52:10Z</time>
      </trkpt>
      <trkpt lat="44.63011" lon="5.80168">
        <ele>1736</ele>
        <time>2023-05-18T11:52:11Z</time>
      </trkpt>
      <trkpt lat="44.63012" lon="5.80169">
        <ele>1736</ele>
        <time>2023-05-18T11:52:12Z</time>
      </trkpt>
      <trkpt lat="44.63013" lon="5.8017">
        <ele>1736.2</ele>
        <time>2023-05-18T11:52:13Z</time>
      </trkpt>
      <trkpt lat="44.63014" lon="5.80171">
        <ele>1736.4</ele>
        <time>2023-05-18T11:52:14Z</time>
      </trkpt>
      <trkpt lat="44.63015" lon="5.80172">
        <ele>1736.4</ele>
        <time>2023-05-18T11:52:15Z</time>
      </trkpt>
      <trkpt lat="44.63016" lon="5.80173">
        <ele>1736.6</ele>
        <time>2023-05-18T11:52:16Z</time>
      </trkpt>
      <trkpt lat="44.63018" lon="5.80173">
        <ele>1736.6</ele>
        <time>2023-05-18T11:52:17Z</time>
      </trkpt>
      <trkpt lat="44.63019" lon="5.80173">
        <ele>1736.8</ele>
        <time>2023-05-18T11:52:18Z</time>
      </trkpt>
      <trkpt lat="44.6302" lon="5.80174">
        <ele>1736.8</ele>
        <time>2023-05-18T11:52:19Z</time>
      </trkpt>
      <trkpt lat="44.63021" lon="5.80174">
        <ele>1737</ele>
        <time>2023-05-18T11:52:20Z</time>
      </trkpt>
      <trkpt lat="44.63022" lon="5.80175">
        <ele>1737</ele>
        <time>2023-05-18T11:52:21Z</time>
      </trkpt>
      <trkpt lat="44.63023" lon="5.80176">
        <ele>1737.2</ele>
        <time>2023-05-18T11:52:22Z</time>
      </trkpt>
      <trkpt lat="44.63024" lon="5.80177">
        <ele>1737.4</ele>
        <time>2023-05-18T11:52:23Z</time>
      </trkpt>
      <trkpt lat="44.63025" lon="5.80177">
        <ele>1737.4</ele>
        <time>2023-05-18T11:52:24Z</time>
      </trkpt>
      <trkpt lat="44.63026" lon="5.80178">
        <ele>1737.6</ele>
        <time>2023-05-18T11:52:25Z</time>
      </trkpt>
      <trkpt lat="44.63027" lon="5.80179">
        <ele>1737.8</ele>
        <time>2023-05-18T11:52:26Z</time>
      </trkpt>
      <trkpt lat="44.63028" lon="5.80179">
        <ele>1738</ele>
        <time>2023-05-18T11:52:27Z</time>
      </trkpt>
      <trkpt lat="44.63029" lon="5.80179">
        <ele>1738</ele>
        <time>2023-05-18T11:52:28Z</time>
      </trkpt>
      <trkpt lat="44.6303" lon="5.8018">
        <ele>1738.2</ele>
        <time>2023-05-18T11:52:29Z</time>
      </trkpt>
      <trkpt lat="44.63031" lon="5.8018">
        <ele>1738.2</ele>
        <time>2023-05-18T11:52:30Z</time>
      </trkpt>
      <trkpt lat="44.63032" lon="5.80181">
        <ele>1738.4</ele>
        <time>2023-05-18T11:52:31Z</time>
      </trkpt>
      <trkpt lat="44.63033" lon="5.80182">
        <ele>1738.4</ele>
        <time>2023-05-18T11:52:32Z</time>
      </trkpt>
      <trkpt lat="44.63034" lon="5.80183">
        <ele>1738.6</ele>
        <time>2023-05-18T11:52:33Z</time>
      </trkpt>
      <trkpt lat="44.63035" lon="5.80183">
        <ele>1738.8</ele>
        <time>2023-05-18T11:52:34Z</time>
      </trkpt>
      <trkpt lat="44.63037" lon="5.80184">
        <ele>1738.8</ele>
        <time>2023-05-18T11:52:35Z</time>
      </trkpt>
      <trkpt lat="44.63038" lon="5.80184">
        <ele>1739.2</ele>
        <time>2023-05-18T11:52:36Z</time>
      </trkpt>
      <trkpt lat="44.63039" lon="5.80185">
        <ele>1739.2</ele>
        <time>2023-05-18T11:52:37Z</time>
      </trkpt>
      <trkpt lat="44.63039" lon="5.80185">
        <ele>1739.4</ele>
        <time>2023-05-18T11:52:38Z</time>
      </trkpt>
      <trkpt lat="44.63041" lon="5.80186">
        <ele>1739.6</ele>
        <time>2023-05-18T11:52:39Z</time>
      </trkpt>
      <trkpt lat="44.63042" lon="5.80186">
        <ele>1739.6</ele>
        <time>2023-05-18T11:52:40Z</time>
      </trkpt>
      <trkpt lat="44.63043" lon="5.80186">
        <ele>1739.8</ele>
        <time>2023-05-18T11:52:41Z</time>
      </trkpt>
      <trkpt lat="44.63044" lon="5.80187">
        <ele>1740</ele>
        <time>2023-05-18T11:52:42Z</time>
      </trkpt>
      <trkpt lat="44.63045" lon="5.80187">
        <ele>1740.2</ele>
        <time>2023-05-18T11:52:43Z</time>
      </trkpt>
      <trkpt lat="44.63046" lon="5.80188">
        <ele>1740.4</ele>
        <time>2023-05-18T11:52:44Z</time>
      </trkpt>
      <trkpt lat="44.63047" lon="5.80189">
        <ele>1740.6</ele>
        <time>2023-05-18T11:52:45Z</time>
      </trkpt>
      <trkpt lat="44.63047" lon="5.8019">
        <ele>1740.6</ele>
        <time>2023-05-18T11:52:46Z</time>
      </trkpt>
      <trkpt lat="44.63048" lon="5.80191">
        <ele>1740.8</ele>
        <time>2023-05-18T11:52:47Z</time>
      </trkpt>
      <trkpt lat="44.63048" lon="5.80191">
        <ele>1741</ele>
        <time>2023-05-18T11:52:49Z</time>
      </trkpt>
      <trkpt lat="44.63048" lon="5.80191">
        <ele>1741</ele>
        <time>2023-05-18T11:52:51Z</time>
      </trkpt>
      <trkpt lat="44.63048" lon="5.80192">
        <ele>1741</ele>
        <time>2023-05-18T11:52:55Z</time>
      </trkpt>
      <trkpt lat="44.63049" lon="5.80193">
        <ele>1741</ele>
        <time>2023-05-18T11:52:56Z</time>
      </trkpt>
      <trkpt lat="44.63049" lon="5.80195">
        <ele>1741.2</ele>
        <time>2023-05-18T11:52:57Z</time>
      </trkpt>
      <trkpt lat="44.6305" lon="5.80196">
        <ele>1741.2</ele>
        <time>2023-05-18T11:52:58Z</time>
      </trkpt>
      <trkpt lat="44.63051" lon="5.80196">
        <ele>1741.2</ele>
        <time>2023-05-18T11:52:59Z</time>
      </trkpt>
      <trkpt lat="44.63051" lon="5.80197">
        <ele>1741.2</ele>
        <time>2023-05-18T11:53:00Z</time>
      </trkpt>
      <trkpt lat="44.63051" lon="5.80197">
        <ele>1741.2</ele>
        <time>2023-05-18T11:53:01Z</time>
      </trkpt>
      <trkpt lat="44.63051" lon="5.80198">
        <ele>1741.2</ele>
        <time>2023-05-18T11:53:02Z</time>
      </trkpt>
      <trkpt lat="44.63051" lon="5.80199">
        <ele>1741.4</ele>
        <time>2023-05-18T11:53:03Z</time>
      </trkpt>
      <trkpt lat="44.63051" lon="5.802">
        <ele>1741.4</ele>
        <time>2023-05-18T11:53:04Z</time>
      </trkpt>
      <trkpt lat="44.63052" lon="5.80202">
        <ele>1741.4</ele>
        <time>2023-05-18T11:53:05Z</time>
      </trkpt>
      <trkpt lat="44.63053" lon="5.80202">
        <ele>1741.4</ele>
        <time>2023-05-18T11:53:06Z</time>
      </trkpt>
      <trkpt lat="44.63054" lon="5.80204">
        <ele>1741.6</ele>
        <time>2023-05-18T11:53:07Z</time>
      </trkpt>
      <trkpt lat="44.63055" lon="5.80206">
        <ele>1741.8</ele>
        <time>2023-05-18T11:53:09Z</time>
      </trkpt>
      <trkpt lat="44.63056" lon="5.80208">
        <ele>1741.8</ele>
        <time>2023-05-18T11:53:10Z</time>
      </trkpt>
      <trkpt lat="44.6306" lon="5.80215">
        <ele>1742.6</ele>
        <time>2023-05-18T11:53:16Z</time>
      </trkpt>
      <trkpt lat="44.63061" lon="5.80215">
        <ele>1742.8</ele>
        <time>2023-05-18T11:53:17Z</time>
      </trkpt>
      <trkpt lat="44.63062" lon="5.80216">
        <ele>1743</ele>
        <time>2023-05-18T11:53:18Z</time>
      </trkpt>
      <trkpt lat="44.63062" lon="5.80217">
        <ele>1743</ele>
        <time>2023-05-18T11:53:19Z</time>
      </trkpt>
      <trkpt lat="44.63062" lon="5.80217">
        <ele>1743.6</ele>
        <time>2023-05-18T11:53:26Z</time>
      </trkpt>
      <trkpt lat="44.63062" lon="5.80217">
        <ele>1743.6</ele>
        <time>2023-05-18T11:53:29Z</time>
      </trkpt>
      <trkpt lat="44.63063" lon="5.80218">
        <ele>1743.8</ele>
        <time>2023-05-18T11:53:32Z</time>
      </trkpt>
      <trkpt lat="44.63064" lon="5.8022">
        <ele>1743.8</ele>
        <time>2023-05-18T11:53:33Z</time>
      </trkpt>
      <trkpt lat="44.63064" lon="5.80221">
        <ele>1743.8</ele>
        <time>2023-05-18T11:53:34Z</time>
      </trkpt>
      <trkpt lat="44.63065" lon="5.80223">
        <ele>1743.8</ele>
        <time>2023-05-18T11:53:35Z</time>
      </trkpt>
      <trkpt lat="44.63065" lon="5.80224">
        <ele>1743.8</ele>
        <time>2023-05-18T11:53:36Z</time>
      </trkpt>
      <trkpt lat="44.63067" lon="5.80228">
        <ele>1744.4</ele>
        <time>2023-05-18T11:53:43Z</time>
      </trkpt>
      <trkpt lat="44.63068" lon="5.80229">
        <ele>1744.8</ele>
        <time>2023-05-18T11:53:49Z</time>
      </trkpt>
      <trkpt lat="44.63069" lon="5.8023">
        <ele>1744.8</ele>
        <time>2023-05-18T11:53:50Z</time>
      </trkpt>
      <trkpt lat="44.63069" lon="5.80231">
        <ele>1745</ele>
        <time>2023-05-18T11:53:51Z</time>
      </trkpt>
      <trkpt lat="44.63071" lon="5.80234">
        <ele>1745.2</ele>
        <time>2023-05-18T11:53:54Z</time>
      </trkpt>
      <trkpt lat="44.63073" lon="5.80237">
        <ele>1745.2</ele>
        <time>2023-05-18T11:53:56Z</time>
      </trkpt>
      <trkpt lat="44.63073" lon="5.80238">
        <ele>1745.4</ele>
        <time>2023-05-18T11:53:57Z</time>
      </trkpt>
      <trkpt lat="44.63073" lon="5.80239">
        <ele>1745.4</ele>
        <time>2023-05-18T11:53:58Z</time>
      </trkpt>
      <trkpt lat="44.63075" lon="5.80241">
        <ele>1745.8</ele>
        <time>2023-05-18T11:54:01Z</time>
      </trkpt>
      <trkpt lat="44.63076" lon="5.80241">
        <ele>1745.8</ele>
        <time>2023-05-18T11:54:02Z</time>
      </trkpt>
      <trkpt lat="44.63076" lon="5.80241">
        <ele>1746</ele>
        <time>2023-05-18T11:54:03Z</time>
      </trkpt>
      <trkpt lat="44.63077" lon="5.80242">
        <ele>1746.6</ele>
        <time>2023-05-18T11:54:10Z</time>
      </trkpt>
      <trkpt lat="44.63077" lon="5.80243">
        <ele>1746.6</ele>
        <time>2023-05-18T11:54:11Z</time>
      </trkpt>
      <trkpt lat="44.63078" lon="5.80244">
        <ele>1746.6</ele>
        <time>2023-05-18T11:54:12Z</time>
      </trkpt>
      <trkpt lat="44.63079" lon="5.80245">
        <ele>1746.8</ele>
        <time>2023-05-18T11:54:14Z</time>
      </trkpt>
      <trkpt lat="44.63083" lon="5.80251">
        <ele>1746.6</ele>
        <time>2023-05-18T11:54:18Z</time>
      </trkpt>
      <trkpt lat="44.63083" lon="5.80252">
        <ele>1746.8</ele>
        <time>2023-05-18T11:54:19Z</time>
      </trkpt>
      <trkpt lat="44.63084" lon="5.80252">
        <ele>1746.8</ele>
        <time>2023-05-18T11:54:22Z</time>
      </trkpt>
      <trkpt lat="44.63084" lon="5.80253">
        <ele>1746.8</ele>
        <time>2023-05-18T11:54:23Z</time>
      </trkpt>
      <trkpt lat="44.63085" lon="5.80254">
        <ele>1746.8</ele>
        <time>2023-05-18T11:54:24Z</time>
      </trkpt>
      <trkpt lat="44.63086" lon="5.80256">
        <ele>1747</ele>
        <time>2023-05-18T11:54:25Z</time>
      </trkpt>
      <trkpt lat="44.63087" lon="5.80257">
        <ele>1747</ele>
        <time>2023-05-18T11:54:26Z</time>
      </trkpt>
      <trkpt lat="44.63087" lon="5.80258">
        <ele>1747</ele>
        <time>2023-05-18T11:54:27Z</time>
      </trkpt>
      <trkpt lat="44.63087" lon="5.80259">
        <ele>1747.2</ele>
        <time>2023-05-18T11:54:30Z</time>
      </trkpt>
      <trkpt lat="44.63087" lon="5.80259">
        <ele>1747.2</ele>
        <time>2023-05-18T11:54:32Z</time>
      </trkpt>
      <trkpt lat="44.63926" lon="5.84847">
        <ele>1532</ele>
        <time>2023-05-18T12:57:05Z</time>
      </trkpt>
      <trkpt lat="44.63924" lon="5.84846">
        <ele>1531.4</ele>
        <time>2023-05-18T12:57:07Z</time>
      </trkpt>
      <trkpt lat="44.63924" lon="5.84852">
        <ele>1531</ele>
        <time>2023-05-18T12:57:09Z</time>
      </trkpt>
      <trkpt lat="44.63925" lon="5.84831">
        <ele>1530</ele>
        <time>2023-05-18T12:57:11Z</time>
      </trkpt>
      <trkpt lat="44.63926" lon="5.84814">
        <ele>1529.8</ele>
        <time>2023-05-18T12:57:12Z</time>
      </trkpt>
      <trkpt lat="44.63927" lon="5.84818">
        <ele>1529.6</ele>
        <time>2023-05-18T12:57:13Z</time>
      </trkpt>
      <trkpt lat="44.63927" lon="5.84821">
        <ele>1529.2</ele>
        <time>2023-05-18T12:57:14Z</time>
      </trkpt>
      <trkpt lat="44.63928" lon="5.84829">
        <ele>1528.8</ele>
        <time>2023-05-18T12:57:17Z</time>
      </trkpt>
      <trkpt lat="44.63929" lon="5.84829">
        <ele>1528.8</ele>
        <time>2023-05-18T12:57:18Z</time>
      </trkpt>
    </trkseg>
  </trk>
</gpx>